<?xml version="1.0" encoding="UTF-8" standalone="no" ?>
<gpx xmlns="http://www.topografix.com/GPX/1/1" xmlns:xsi="http://www.w3.org/2001/XMLSchema-instance" xsi:schemaLocation="http://www.topografix.com/GPX/1/1 http://www.topografix.com/GPX/1/1/gpx.xsd" version="1.1" creator="VisuGPX - https://www.visugpx.com">
  <metadata>
    <name>Route des Grandes Alpes J6-Bourg Saint Maurice-Le Grand Bornand</name>
  </metadata>
  <trk>
    <name><![CDATA[Sortie vélo le matin]]></name>
    <trkseg>
      <trkpt lat="45.61743" lon="6.76752">
        <ele>828.9</ele>
        <time>2022-06-15T06:34:36Z</time>
      </trkpt>
      <trkpt lat="45.61745" lon="6.76754">
        <ele>828.7</ele>
        <time>2022-06-15T06:34:37Z</time>
      </trkpt>
      <trkpt lat="45.61748" lon="6.76757">
        <ele>828.6</ele>
        <time>2022-06-15T06:34:38Z</time>
      </trkpt>
      <trkpt lat="45.6175" lon="6.76759">
        <ele>828.4</ele>
        <time>2022-06-15T06:34:43Z</time>
      </trkpt>
      <trkpt lat="45.61752" lon="6.76761">
        <ele>828.3</ele>
        <time>2022-06-15T06:34:44Z</time>
      </trkpt>
      <trkpt lat="45.61756" lon="6.76763">
        <ele>828.2</ele>
        <time>2022-06-15T06:34:45Z</time>
      </trkpt>
      <trkpt lat="45.61759" lon="6.76765">
        <ele>828.1</ele>
        <time>2022-06-15T06:34:46Z</time>
      </trkpt>
      <trkpt lat="45.6176" lon="6.76768">
        <ele>827.8</ele>
        <time>2022-06-15T06:34:47Z</time>
      </trkpt>
      <trkpt lat="45.61763" lon="6.7677">
        <ele>827.7</ele>
        <time>2022-06-15T06:34:48Z</time>
      </trkpt>
      <trkpt lat="45.61765" lon="6.76773">
        <ele>827.4</ele>
        <time>2022-06-15T06:34:49Z</time>
      </trkpt>
      <trkpt lat="45.61765" lon="6.76779">
        <ele>826.9</ele>
        <time>2022-06-15T06:34:50Z</time>
      </trkpt>
      <trkpt lat="45.61767" lon="6.76782">
        <ele>826.8</ele>
        <time>2022-06-15T06:34:51Z</time>
      </trkpt>
      <trkpt lat="45.61769" lon="6.76785">
        <ele>826.6</ele>
        <time>2022-06-15T06:34:52Z</time>
      </trkpt>
      <trkpt lat="45.61771" lon="6.76788">
        <ele>826.3</ele>
        <time>2022-06-15T06:34:53Z</time>
      </trkpt>
      <trkpt lat="45.61774" lon="6.76793">
        <ele>826</ele>
        <time>2022-06-15T06:34:54Z</time>
      </trkpt>
      <trkpt lat="45.61776" lon="6.76797">
        <ele>825.6</ele>
        <time>2022-06-15T06:34:55Z</time>
      </trkpt>
      <trkpt lat="45.61778" lon="6.76801">
        <ele>825.3</ele>
        <time>2022-06-15T06:34:56Z</time>
      </trkpt>
      <trkpt lat="45.61781" lon="6.76804">
        <ele>825.4</ele>
        <time>2022-06-15T06:34:57Z</time>
      </trkpt>
      <trkpt lat="45.61783" lon="6.76809">
        <ele>825.4</ele>
        <time>2022-06-15T06:34:58Z</time>
      </trkpt>
      <trkpt lat="45.61786" lon="6.76813">
        <ele>825.5</ele>
        <time>2022-06-15T06:34:59Z</time>
      </trkpt>
      <trkpt lat="45.61788" lon="6.76818">
        <ele>825.3</ele>
        <time>2022-06-15T06:35:00Z</time>
      </trkpt>
      <trkpt lat="45.6179" lon="6.76823">
        <ele>825.2</ele>
        <time>2022-06-15T06:35:01Z</time>
      </trkpt>
      <trkpt lat="45.61793" lon="6.76828">
        <ele>825</ele>
        <time>2022-06-15T06:35:02Z</time>
      </trkpt>
      <trkpt lat="45.61795" lon="6.76832">
        <ele>824.7</ele>
        <time>2022-06-15T06:35:03Z</time>
      </trkpt>
      <trkpt lat="45.61798" lon="6.76836">
        <ele>824.5</ele>
        <time>2022-06-15T06:35:04Z</time>
      </trkpt>
      <trkpt lat="45.618" lon="6.7684">
        <ele>824.2</ele>
        <time>2022-06-15T06:35:05Z</time>
      </trkpt>
      <trkpt lat="45.61805" lon="6.76842">
        <ele>824.1</ele>
        <time>2022-06-15T06:35:06Z</time>
      </trkpt>
      <trkpt lat="45.61808" lon="6.76845">
        <ele>824</ele>
        <time>2022-06-15T06:35:07Z</time>
      </trkpt>
      <trkpt lat="45.61812" lon="6.76849">
        <ele>823.9</ele>
        <time>2022-06-15T06:35:08Z</time>
      </trkpt>
      <trkpt lat="45.61817" lon="6.7685">
        <ele>824.2</ele>
        <time>2022-06-15T06:35:09Z</time>
      </trkpt>
      <trkpt lat="45.6182" lon="6.76854">
        <ele>823.9</ele>
        <time>2022-06-15T06:35:10Z</time>
      </trkpt>
      <trkpt lat="45.61823" lon="6.76859">
        <ele>823.5</ele>
        <time>2022-06-15T06:35:11Z</time>
      </trkpt>
      <trkpt lat="45.61827" lon="6.76863">
        <ele>823.3</ele>
        <time>2022-06-15T06:35:12Z</time>
      </trkpt>
      <trkpt lat="45.6183" lon="6.76869">
        <ele>823</ele>
        <time>2022-06-15T06:35:13Z</time>
      </trkpt>
      <trkpt lat="45.61834" lon="6.76874">
        <ele>822.7</ele>
        <time>2022-06-15T06:35:14Z</time>
      </trkpt>
      <trkpt lat="45.61838" lon="6.76879">
        <ele>822.4</ele>
        <time>2022-06-15T06:35:15Z</time>
      </trkpt>
      <trkpt lat="45.61842" lon="6.76884">
        <ele>822.1</ele>
        <time>2022-06-15T06:35:16Z</time>
      </trkpt>
      <trkpt lat="45.61846" lon="6.76887">
        <ele>822.1</ele>
        <time>2022-06-15T06:35:17Z</time>
      </trkpt>
      <trkpt lat="45.61849" lon="6.76892">
        <ele>822</ele>
        <time>2022-06-15T06:35:18Z</time>
      </trkpt>
      <trkpt lat="45.61852" lon="6.76896">
        <ele>821.9</ele>
        <time>2022-06-15T06:35:19Z</time>
      </trkpt>
      <trkpt lat="45.61853" lon="6.769">
        <ele>821.6</ele>
        <time>2022-06-15T06:35:20Z</time>
      </trkpt>
      <trkpt lat="45.61854" lon="6.76904">
        <ele>821.3</ele>
        <time>2022-06-15T06:35:21Z</time>
      </trkpt>
      <trkpt lat="45.61853" lon="6.7691">
        <ele>820.8</ele>
        <time>2022-06-15T06:35:22Z</time>
      </trkpt>
      <trkpt lat="45.61853" lon="6.76914">
        <ele>820.5</ele>
        <time>2022-06-15T06:35:23Z</time>
      </trkpt>
      <trkpt lat="45.61853" lon="6.76918">
        <ele>820.3</ele>
        <time>2022-06-15T06:35:24Z</time>
      </trkpt>
      <trkpt lat="45.61853" lon="6.7692">
        <ele>820.2</ele>
        <time>2022-06-15T06:35:25Z</time>
      </trkpt>
      <trkpt lat="45.61854" lon="6.76923">
        <ele>820.2</ele>
        <time>2022-06-15T06:35:26Z</time>
      </trkpt>
      <trkpt lat="45.61854" lon="6.76926">
        <ele>820.2</ele>
        <time>2022-06-15T06:35:27Z</time>
      </trkpt>
      <trkpt lat="45.61854" lon="6.76929">
        <ele>820.1</ele>
        <time>2022-06-15T06:35:28Z</time>
      </trkpt>
      <trkpt lat="45.61854" lon="6.76931">
        <ele>820.1</ele>
        <time>2022-06-15T06:35:29Z</time>
      </trkpt>
      <trkpt lat="45.61855" lon="6.76933">
        <ele>820.1</ele>
        <time>2022-06-15T06:35:30Z</time>
      </trkpt>
      <trkpt lat="45.61857" lon="6.76935">
        <ele>820.1</ele>
        <time>2022-06-15T06:35:31Z</time>
      </trkpt>
      <trkpt lat="45.61859" lon="6.76936">
        <ele>820</ele>
        <time>2022-06-15T06:35:32Z</time>
      </trkpt>
      <trkpt lat="45.61861" lon="6.76937">
        <ele>820</ele>
        <time>2022-06-15T06:35:33Z</time>
      </trkpt>
      <trkpt lat="45.61863" lon="6.76939">
        <ele>820</ele>
        <time>2022-06-15T06:35:34Z</time>
      </trkpt>
      <trkpt lat="45.61865" lon="6.76938">
        <ele>819.9</ele>
        <time>2022-06-15T06:35:35Z</time>
      </trkpt>
      <trkpt lat="45.61867" lon="6.76939">
        <ele>819.9</ele>
        <time>2022-06-15T06:35:36Z</time>
      </trkpt>
      <trkpt lat="45.61869" lon="6.76942">
        <ele>819.8</ele>
        <time>2022-06-15T06:35:37Z</time>
      </trkpt>
      <trkpt lat="45.61872" lon="6.76944">
        <ele>819.6</ele>
        <time>2022-06-15T06:35:38Z</time>
      </trkpt>
      <trkpt lat="45.61874" lon="6.76946">
        <ele>819.4</ele>
        <time>2022-06-15T06:35:39Z</time>
      </trkpt>
      <trkpt lat="45.61877" lon="6.76949">
        <ele>819.2</ele>
        <time>2022-06-15T06:35:40Z</time>
      </trkpt>
      <trkpt lat="45.6188" lon="6.76951">
        <ele>819</ele>
        <time>2022-06-15T06:35:41Z</time>
      </trkpt>
      <trkpt lat="45.61883" lon="6.76953">
        <ele>818.9</ele>
        <time>2022-06-15T06:35:42Z</time>
      </trkpt>
      <trkpt lat="45.61887" lon="6.76955">
        <ele>818.7</ele>
        <time>2022-06-15T06:35:43Z</time>
      </trkpt>
      <trkpt lat="45.6189" lon="6.76958">
        <ele>818.5</ele>
        <time>2022-06-15T06:35:44Z</time>
      </trkpt>
      <trkpt lat="45.61893" lon="6.76962">
        <ele>818.4</ele>
        <time>2022-06-15T06:35:45Z</time>
      </trkpt>
      <trkpt lat="45.61896" lon="6.76965">
        <ele>818.3</ele>
        <time>2022-06-15T06:35:46Z</time>
      </trkpt>
      <trkpt lat="45.619" lon="6.76968">
        <ele>818.1</ele>
        <time>2022-06-15T06:35:47Z</time>
      </trkpt>
      <trkpt lat="45.61904" lon="6.76972">
        <ele>818</ele>
        <time>2022-06-15T06:35:48Z</time>
      </trkpt>
      <trkpt lat="45.61907" lon="6.76974">
        <ele>817.9</ele>
        <time>2022-06-15T06:35:49Z</time>
      </trkpt>
      <trkpt lat="45.61911" lon="6.76977">
        <ele>817.8</ele>
        <time>2022-06-15T06:35:50Z</time>
      </trkpt>
      <trkpt lat="45.61916" lon="6.7698">
        <ele>817.7</ele>
        <time>2022-06-15T06:35:51Z</time>
      </trkpt>
      <trkpt lat="45.61921" lon="6.76981">
        <ele>818</ele>
        <time>2022-06-15T06:35:52Z</time>
      </trkpt>
      <trkpt lat="45.61924" lon="6.76986">
        <ele>818</ele>
        <time>2022-06-15T06:35:53Z</time>
      </trkpt>
      <trkpt lat="45.61928" lon="6.7699">
        <ele>818.2</ele>
        <time>2022-06-15T06:35:54Z</time>
      </trkpt>
      <trkpt lat="45.61931" lon="6.76995">
        <ele>818.2</ele>
        <time>2022-06-15T06:35:55Z</time>
      </trkpt>
      <trkpt lat="45.61935" lon="6.77">
        <ele>818.3</ele>
        <time>2022-06-15T06:35:56Z</time>
      </trkpt>
      <trkpt lat="45.61938" lon="6.77005">
        <ele>818</ele>
        <time>2022-06-15T06:35:57Z</time>
      </trkpt>
      <trkpt lat="45.61942" lon="6.7701">
        <ele>817.7</ele>
        <time>2022-06-15T06:35:58Z</time>
      </trkpt>
      <trkpt lat="45.61945" lon="6.77015">
        <ele>817.4</ele>
        <time>2022-06-15T06:35:59Z</time>
      </trkpt>
      <trkpt lat="45.61949" lon="6.7702">
        <ele>817.1</ele>
        <time>2022-06-15T06:36:00Z</time>
      </trkpt>
      <trkpt lat="45.61953" lon="6.77025">
        <ele>816.9</ele>
        <time>2022-06-15T06:36:01Z</time>
      </trkpt>
      <trkpt lat="45.61956" lon="6.7703">
        <ele>816.7</ele>
        <time>2022-06-15T06:36:02Z</time>
      </trkpt>
      <trkpt lat="45.6196" lon="6.77035">
        <ele>816.7</ele>
        <time>2022-06-15T06:36:03Z</time>
      </trkpt>
      <trkpt lat="45.61964" lon="6.7704">
        <ele>816.5</ele>
        <time>2022-06-15T06:36:04Z</time>
      </trkpt>
      <trkpt lat="45.61968" lon="6.77046">
        <ele>816.1</ele>
        <time>2022-06-15T06:36:05Z</time>
      </trkpt>
      <trkpt lat="45.61971" lon="6.77051">
        <ele>815.6</ele>
        <time>2022-06-15T06:36:06Z</time>
      </trkpt>
      <trkpt lat="45.61973" lon="6.77056">
        <ele>815.1</ele>
        <time>2022-06-15T06:36:07Z</time>
      </trkpt>
      <trkpt lat="45.61974" lon="6.77063">
        <ele>814.9</ele>
        <time>2022-06-15T06:36:08Z</time>
      </trkpt>
      <trkpt lat="45.61975" lon="6.7707">
        <ele>814.7</ele>
        <time>2022-06-15T06:36:09Z</time>
      </trkpt>
      <trkpt lat="45.61977" lon="6.77075">
        <ele>814.5</ele>
        <time>2022-06-15T06:36:10Z</time>
      </trkpt>
      <trkpt lat="45.6198" lon="6.77081">
        <ele>814.2</ele>
        <time>2022-06-15T06:36:11Z</time>
      </trkpt>
      <trkpt lat="45.61984" lon="6.77084">
        <ele>814</ele>
        <time>2022-06-15T06:36:12Z</time>
      </trkpt>
      <trkpt lat="45.61989" lon="6.77086">
        <ele>814</ele>
        <time>2022-06-15T06:36:13Z</time>
      </trkpt>
      <trkpt lat="45.61994" lon="6.77087">
        <ele>814</ele>
        <time>2022-06-15T06:36:14Z</time>
      </trkpt>
      <trkpt lat="45.61999" lon="6.77088">
        <ele>814</ele>
        <time>2022-06-15T06:36:15Z</time>
      </trkpt>
      <trkpt lat="45.62004" lon="6.77089">
        <ele>814</ele>
        <time>2022-06-15T06:36:16Z</time>
      </trkpt>
      <trkpt lat="45.62008" lon="6.7709">
        <ele>814</ele>
        <time>2022-06-15T06:36:17Z</time>
      </trkpt>
      <trkpt lat="45.62012" lon="6.77091">
        <ele>814</ele>
        <time>2022-06-15T06:36:18Z</time>
      </trkpt>
      <trkpt lat="45.62016" lon="6.77092">
        <ele>814</ele>
        <time>2022-06-15T06:36:19Z</time>
      </trkpt>
      <trkpt lat="45.6202" lon="6.77094">
        <ele>814</ele>
        <time>2022-06-15T06:36:20Z</time>
      </trkpt>
      <trkpt lat="45.62025" lon="6.77092">
        <ele>814</ele>
        <time>2022-06-15T06:36:21Z</time>
      </trkpt>
      <trkpt lat="45.62028" lon="6.77088">
        <ele>814</ele>
        <time>2022-06-15T06:36:22Z</time>
      </trkpt>
      <trkpt lat="45.62032" lon="6.77086">
        <ele>814.1</ele>
        <time>2022-06-15T06:36:23Z</time>
      </trkpt>
      <trkpt lat="45.62036" lon="6.77086">
        <ele>814.3</ele>
        <time>2022-06-15T06:36:24Z</time>
      </trkpt>
      <trkpt lat="45.6204" lon="6.77085">
        <ele>814.4</ele>
        <time>2022-06-15T06:36:25Z</time>
      </trkpt>
      <trkpt lat="45.62044" lon="6.77084">
        <ele>814.6</ele>
        <time>2022-06-15T06:36:26Z</time>
      </trkpt>
      <trkpt lat="45.62049" lon="6.77084">
        <ele>814.7</ele>
        <time>2022-06-15T06:36:27Z</time>
      </trkpt>
      <trkpt lat="45.62053" lon="6.77084">
        <ele>814.9</ele>
        <time>2022-06-15T06:36:28Z</time>
      </trkpt>
      <trkpt lat="45.62056" lon="6.77083">
        <ele>815</ele>
        <time>2022-06-15T06:36:29Z</time>
      </trkpt>
      <trkpt lat="45.6206" lon="6.77085">
        <ele>815</ele>
        <time>2022-06-15T06:36:30Z</time>
      </trkpt>
      <trkpt lat="45.62063" lon="6.77088">
        <ele>814.8</ele>
        <time>2022-06-15T06:36:31Z</time>
      </trkpt>
      <trkpt lat="45.62065" lon="6.77092">
        <ele>814.6</ele>
        <time>2022-06-15T06:36:32Z</time>
      </trkpt>
      <trkpt lat="45.62068" lon="6.77095">
        <ele>814.4</ele>
        <time>2022-06-15T06:36:33Z</time>
      </trkpt>
      <trkpt lat="45.62071" lon="6.77096">
        <ele>814.3</ele>
        <time>2022-06-15T06:36:34Z</time>
      </trkpt>
      <trkpt lat="45.62075" lon="6.77096">
        <ele>814.2</ele>
        <time>2022-06-15T06:36:35Z</time>
      </trkpt>
      <trkpt lat="45.62078" lon="6.77096">
        <ele>814.2</ele>
        <time>2022-06-15T06:36:36Z</time>
      </trkpt>
      <trkpt lat="45.62082" lon="6.77096">
        <ele>814.1</ele>
        <time>2022-06-15T06:36:37Z</time>
      </trkpt>
      <trkpt lat="45.62086" lon="6.77096">
        <ele>814.2</ele>
        <time>2022-06-15T06:36:38Z</time>
      </trkpt>
      <trkpt lat="45.62091" lon="6.77096">
        <ele>814.4</ele>
        <time>2022-06-15T06:36:39Z</time>
      </trkpt>
      <trkpt lat="45.62095" lon="6.77096">
        <ele>814.5</ele>
        <time>2022-06-15T06:36:40Z</time>
      </trkpt>
      <trkpt lat="45.62099" lon="6.77095">
        <ele>814.7</ele>
        <time>2022-06-15T06:36:41Z</time>
      </trkpt>
      <trkpt lat="45.62103" lon="6.77095">
        <ele>814.9</ele>
        <time>2022-06-15T06:36:42Z</time>
      </trkpt>
      <trkpt lat="45.62108" lon="6.77095">
        <ele>815.1</ele>
        <time>2022-06-15T06:36:43Z</time>
      </trkpt>
      <trkpt lat="45.62112" lon="6.77094">
        <ele>815.2</ele>
        <time>2022-06-15T06:36:44Z</time>
      </trkpt>
      <trkpt lat="45.62116" lon="6.77094">
        <ele>815.3</ele>
        <time>2022-06-15T06:36:45Z</time>
      </trkpt>
      <trkpt lat="45.62121" lon="6.77094">
        <ele>815.3</ele>
        <time>2022-06-15T06:36:46Z</time>
      </trkpt>
      <trkpt lat="45.62125" lon="6.77095">
        <ele>815.4</ele>
        <time>2022-06-15T06:36:47Z</time>
      </trkpt>
      <trkpt lat="45.62129" lon="6.77094">
        <ele>815.5</ele>
        <time>2022-06-15T06:36:48Z</time>
      </trkpt>
      <trkpt lat="45.62134" lon="6.77094">
        <ele>815.5</ele>
        <time>2022-06-15T06:36:49Z</time>
      </trkpt>
      <trkpt lat="45.62138" lon="6.77094">
        <ele>815.6</ele>
        <time>2022-06-15T06:36:50Z</time>
      </trkpt>
      <trkpt lat="45.62142" lon="6.77093">
        <ele>815.8</ele>
        <time>2022-06-15T06:36:51Z</time>
      </trkpt>
      <trkpt lat="45.62147" lon="6.77093">
        <ele>815.9</ele>
        <time>2022-06-15T06:36:52Z</time>
      </trkpt>
      <trkpt lat="45.62151" lon="6.77093">
        <ele>816.1</ele>
        <time>2022-06-15T06:36:53Z</time>
      </trkpt>
      <trkpt lat="45.62155" lon="6.77093">
        <ele>816.2</ele>
        <time>2022-06-15T06:36:54Z</time>
      </trkpt>
      <trkpt lat="45.62159" lon="6.77093">
        <ele>816.4</ele>
        <time>2022-06-15T06:36:55Z</time>
      </trkpt>
      <trkpt lat="45.62163" lon="6.77093">
        <ele>816.5</ele>
        <time>2022-06-15T06:36:56Z</time>
      </trkpt>
      <trkpt lat="45.62167" lon="6.77093">
        <ele>816.7</ele>
        <time>2022-06-15T06:36:57Z</time>
      </trkpt>
      <trkpt lat="45.62171" lon="6.77092">
        <ele>816.8</ele>
        <time>2022-06-15T06:36:58Z</time>
      </trkpt>
      <trkpt lat="45.62174" lon="6.77092">
        <ele>816.9</ele>
        <time>2022-06-15T06:36:59Z</time>
      </trkpt>
      <trkpt lat="45.62178" lon="6.77092">
        <ele>817</ele>
        <time>2022-06-15T06:37:00Z</time>
      </trkpt>
      <trkpt lat="45.62182" lon="6.77092">
        <ele>817.1</ele>
        <time>2022-06-15T06:37:01Z</time>
      </trkpt>
      <trkpt lat="45.62186" lon="6.77092">
        <ele>817.2</ele>
        <time>2022-06-15T06:37:02Z</time>
      </trkpt>
      <trkpt lat="45.6219" lon="6.77091">
        <ele>817.3</ele>
        <time>2022-06-15T06:37:03Z</time>
      </trkpt>
      <trkpt lat="45.62193" lon="6.77091">
        <ele>817.4</ele>
        <time>2022-06-15T06:37:04Z</time>
      </trkpt>
      <trkpt lat="45.62197" lon="6.77091">
        <ele>817.5</ele>
        <time>2022-06-15T06:37:05Z</time>
      </trkpt>
      <trkpt lat="45.622" lon="6.77092">
        <ele>817.7</ele>
        <time>2022-06-15T06:37:06Z</time>
      </trkpt>
      <trkpt lat="45.62204" lon="6.77092">
        <ele>817.9</ele>
        <time>2022-06-15T06:37:07Z</time>
      </trkpt>
      <trkpt lat="45.62207" lon="6.77092">
        <ele>818</ele>
        <time>2022-06-15T06:37:08Z</time>
      </trkpt>
      <trkpt lat="45.62211" lon="6.77092">
        <ele>818.2</ele>
        <time>2022-06-15T06:37:09Z</time>
      </trkpt>
      <trkpt lat="45.62214" lon="6.77093">
        <ele>818.3</ele>
        <time>2022-06-15T06:37:10Z</time>
      </trkpt>
      <trkpt lat="45.62218" lon="6.77093">
        <ele>818.4</ele>
        <time>2022-06-15T06:37:11Z</time>
      </trkpt>
      <trkpt lat="45.62221" lon="6.77094">
        <ele>818.4</ele>
        <time>2022-06-15T06:37:12Z</time>
      </trkpt>
      <trkpt lat="45.62224" lon="6.77095">
        <ele>818.5</ele>
        <time>2022-06-15T06:37:13Z</time>
      </trkpt>
      <trkpt lat="45.62228" lon="6.77095">
        <ele>818.6</ele>
        <time>2022-06-15T06:37:14Z</time>
      </trkpt>
      <trkpt lat="45.62231" lon="6.77096">
        <ele>818.6</ele>
        <time>2022-06-15T06:37:15Z</time>
      </trkpt>
      <trkpt lat="45.62234" lon="6.77097">
        <ele>818.6</ele>
        <time>2022-06-15T06:37:16Z</time>
      </trkpt>
      <trkpt lat="45.62236" lon="6.77098">
        <ele>818.7</ele>
        <time>2022-06-15T06:37:17Z</time>
      </trkpt>
      <trkpt lat="45.62239" lon="6.77099">
        <ele>818.8</ele>
        <time>2022-06-15T06:37:18Z</time>
      </trkpt>
      <trkpt lat="45.62242" lon="6.77099">
        <ele>818.9</ele>
        <time>2022-06-15T06:37:19Z</time>
      </trkpt>
      <trkpt lat="45.62245" lon="6.771">
        <ele>818.9</ele>
        <time>2022-06-15T06:37:20Z</time>
      </trkpt>
      <trkpt lat="45.62248" lon="6.77101">
        <ele>819</ele>
        <time>2022-06-15T06:37:21Z</time>
      </trkpt>
      <trkpt lat="45.62251" lon="6.77102">
        <ele>819.1</ele>
        <time>2022-06-15T06:37:22Z</time>
      </trkpt>
      <trkpt lat="45.62254" lon="6.77104">
        <ele>819.4</ele>
        <time>2022-06-15T06:37:23Z</time>
      </trkpt>
      <trkpt lat="45.62256" lon="6.77105">
        <ele>819.7</ele>
        <time>2022-06-15T06:37:24Z</time>
      </trkpt>
      <trkpt lat="45.62259" lon="6.77106">
        <ele>820</ele>
        <time>2022-06-15T06:37:25Z</time>
      </trkpt>
      <trkpt lat="45.62261" lon="6.77107">
        <ele>820.3</ele>
        <time>2022-06-15T06:37:26Z</time>
      </trkpt>
      <trkpt lat="45.62264" lon="6.77108">
        <ele>820.7</ele>
        <time>2022-06-15T06:37:27Z</time>
      </trkpt>
      <trkpt lat="45.62267" lon="6.77109">
        <ele>821.1</ele>
        <time>2022-06-15T06:37:28Z</time>
      </trkpt>
      <trkpt lat="45.62269" lon="6.7711">
        <ele>821.5</ele>
        <time>2022-06-15T06:37:29Z</time>
      </trkpt>
      <trkpt lat="45.62272" lon="6.77111">
        <ele>821.9</ele>
        <time>2022-06-15T06:37:30Z</time>
      </trkpt>
      <trkpt lat="45.62274" lon="6.77113">
        <ele>822.3</ele>
        <time>2022-06-15T06:37:31Z</time>
      </trkpt>
      <trkpt lat="45.62277" lon="6.77114">
        <ele>822.7</ele>
        <time>2022-06-15T06:37:32Z</time>
      </trkpt>
      <trkpt lat="45.62279" lon="6.77115">
        <ele>822.8</ele>
        <time>2022-06-15T06:37:33Z</time>
      </trkpt>
      <trkpt lat="45.62282" lon="6.77117">
        <ele>822.7</ele>
        <time>2022-06-15T06:37:34Z</time>
      </trkpt>
      <trkpt lat="45.62284" lon="6.77118">
        <ele>822.7</ele>
        <time>2022-06-15T06:37:35Z</time>
      </trkpt>
      <trkpt lat="45.62287" lon="6.7712">
        <ele>822.7</ele>
        <time>2022-06-15T06:37:36Z</time>
      </trkpt>
      <trkpt lat="45.62289" lon="6.77122">
        <ele>822.7</ele>
        <time>2022-06-15T06:37:37Z</time>
      </trkpt>
      <trkpt lat="45.62292" lon="6.77123">
        <ele>822.7</ele>
        <time>2022-06-15T06:37:38Z</time>
      </trkpt>
      <trkpt lat="45.62294" lon="6.77125">
        <ele>822.8</ele>
        <time>2022-06-15T06:37:39Z</time>
      </trkpt>
      <trkpt lat="45.62297" lon="6.77126">
        <ele>822.9</ele>
        <time>2022-06-15T06:37:40Z</time>
      </trkpt>
      <trkpt lat="45.62299" lon="6.77128">
        <ele>823</ele>
        <time>2022-06-15T06:37:41Z</time>
      </trkpt>
      <trkpt lat="45.62301" lon="6.7713">
        <ele>823.2</ele>
        <time>2022-06-15T06:37:42Z</time>
      </trkpt>
      <trkpt lat="45.62304" lon="6.77132">
        <ele>823.4</ele>
        <time>2022-06-15T06:37:43Z</time>
      </trkpt>
      <trkpt lat="45.62306" lon="6.77133">
        <ele>823.6</ele>
        <time>2022-06-15T06:37:44Z</time>
      </trkpt>
      <trkpt lat="45.62308" lon="6.77135">
        <ele>824</ele>
        <time>2022-06-15T06:37:45Z</time>
      </trkpt>
      <trkpt lat="45.62311" lon="6.77137">
        <ele>824.4</ele>
        <time>2022-06-15T06:37:46Z</time>
      </trkpt>
      <trkpt lat="45.62313" lon="6.77139">
        <ele>824.8</ele>
        <time>2022-06-15T06:37:47Z</time>
      </trkpt>
      <trkpt lat="45.62315" lon="6.7714">
        <ele>824.9</ele>
        <time>2022-06-15T06:37:48Z</time>
      </trkpt>
      <trkpt lat="45.62318" lon="6.77142">
        <ele>824.9</ele>
        <time>2022-06-15T06:37:49Z</time>
      </trkpt>
      <trkpt lat="45.6232" lon="6.77144">
        <ele>824.8</ele>
        <time>2022-06-15T06:37:50Z</time>
      </trkpt>
      <trkpt lat="45.62322" lon="6.77147">
        <ele>824.8</ele>
        <time>2022-06-15T06:37:51Z</time>
      </trkpt>
      <trkpt lat="45.62324" lon="6.77148">
        <ele>825</ele>
        <time>2022-06-15T06:37:52Z</time>
      </trkpt>
      <trkpt lat="45.62326" lon="6.77151">
        <ele>825.1</ele>
        <time>2022-06-15T06:37:53Z</time>
      </trkpt>
      <trkpt lat="45.62329" lon="6.77153">
        <ele>825.2</ele>
        <time>2022-06-15T06:37:54Z</time>
      </trkpt>
      <trkpt lat="45.62331" lon="6.77156">
        <ele>825.3</ele>
        <time>2022-06-15T06:37:55Z</time>
      </trkpt>
      <trkpt lat="45.62333" lon="6.77159">
        <ele>825.4</ele>
        <time>2022-06-15T06:37:56Z</time>
      </trkpt>
      <trkpt lat="45.62335" lon="6.77161">
        <ele>825.9</ele>
        <time>2022-06-15T06:37:57Z</time>
      </trkpt>
      <trkpt lat="45.62337" lon="6.77164">
        <ele>826.5</ele>
        <time>2022-06-15T06:37:58Z</time>
      </trkpt>
      <trkpt lat="45.62339" lon="6.77167">
        <ele>827</ele>
        <time>2022-06-15T06:37:59Z</time>
      </trkpt>
      <trkpt lat="45.62341" lon="6.7717">
        <ele>827.1</ele>
        <time>2022-06-15T06:38:00Z</time>
      </trkpt>
      <trkpt lat="45.62342" lon="6.77173">
        <ele>827.1</ele>
        <time>2022-06-15T06:38:01Z</time>
      </trkpt>
      <trkpt lat="45.62344" lon="6.77176">
        <ele>827.3</ele>
        <time>2022-06-15T06:38:02Z</time>
      </trkpt>
      <trkpt lat="45.62346" lon="6.77179">
        <ele>827.2</ele>
        <time>2022-06-15T06:38:03Z</time>
      </trkpt>
      <trkpt lat="45.62348" lon="6.77182">
        <ele>827.3</ele>
        <time>2022-06-15T06:38:04Z</time>
      </trkpt>
      <trkpt lat="45.62349" lon="6.77185">
        <ele>827.2</ele>
        <time>2022-06-15T06:38:05Z</time>
      </trkpt>
      <trkpt lat="45.62351" lon="6.77188">
        <ele>827.2</ele>
        <time>2022-06-15T06:38:06Z</time>
      </trkpt>
      <trkpt lat="45.62353" lon="6.77191">
        <ele>827.3</ele>
        <time>2022-06-15T06:38:07Z</time>
      </trkpt>
      <trkpt lat="45.62355" lon="6.77195">
        <ele>827.4</ele>
        <time>2022-06-15T06:38:08Z</time>
      </trkpt>
      <trkpt lat="45.62356" lon="6.77198">
        <ele>827.4</ele>
        <time>2022-06-15T06:38:09Z</time>
      </trkpt>
      <trkpt lat="45.62358" lon="6.77201">
        <ele>827.3</ele>
        <time>2022-06-15T06:38:10Z</time>
      </trkpt>
      <trkpt lat="45.6236" lon="6.77204">
        <ele>827.3</ele>
        <time>2022-06-15T06:38:11Z</time>
      </trkpt>
      <trkpt lat="45.62362" lon="6.77208">
        <ele>827.4</ele>
        <time>2022-06-15T06:38:12Z</time>
      </trkpt>
      <trkpt lat="45.62363" lon="6.7721">
        <ele>827.7</ele>
        <time>2022-06-15T06:38:13Z</time>
      </trkpt>
      <trkpt lat="45.62365" lon="6.77213">
        <ele>828</ele>
        <time>2022-06-15T06:38:14Z</time>
      </trkpt>
      <trkpt lat="45.62367" lon="6.77216">
        <ele>828.2</ele>
        <time>2022-06-15T06:38:15Z</time>
      </trkpt>
      <trkpt lat="45.62369" lon="6.77219">
        <ele>828.4</ele>
        <time>2022-06-15T06:38:16Z</time>
      </trkpt>
      <trkpt lat="45.62371" lon="6.77222">
        <ele>828.8</ele>
        <time>2022-06-15T06:38:17Z</time>
      </trkpt>
      <trkpt lat="45.62372" lon="6.77226">
        <ele>829</ele>
        <time>2022-06-15T06:38:18Z</time>
      </trkpt>
      <trkpt lat="45.62374" lon="6.77228">
        <ele>829.4</ele>
        <time>2022-06-15T06:38:19Z</time>
      </trkpt>
      <trkpt lat="45.62376" lon="6.77231">
        <ele>829.6</ele>
        <time>2022-06-15T06:38:20Z</time>
      </trkpt>
      <trkpt lat="45.62378" lon="6.77234">
        <ele>829.9</ele>
        <time>2022-06-15T06:38:21Z</time>
      </trkpt>
      <trkpt lat="45.6238" lon="6.77237">
        <ele>830.6</ele>
        <time>2022-06-15T06:38:22Z</time>
      </trkpt>
      <trkpt lat="45.62381" lon="6.7724">
        <ele>830.6</ele>
        <time>2022-06-15T06:38:23Z</time>
      </trkpt>
      <trkpt lat="45.62383" lon="6.77243">
        <ele>830.6</ele>
        <time>2022-06-15T06:38:24Z</time>
      </trkpt>
      <trkpt lat="45.62384" lon="6.77246">
        <ele>830.6</ele>
        <time>2022-06-15T06:38:25Z</time>
      </trkpt>
      <trkpt lat="45.62386" lon="6.7725">
        <ele>830.6</ele>
        <time>2022-06-15T06:38:26Z</time>
      </trkpt>
      <trkpt lat="45.62388" lon="6.77253">
        <ele>830.9</ele>
        <time>2022-06-15T06:38:27Z</time>
      </trkpt>
      <trkpt lat="45.62389" lon="6.77256">
        <ele>830.9</ele>
        <time>2022-06-15T06:38:28Z</time>
      </trkpt>
      <trkpt lat="45.62391" lon="6.7726">
        <ele>831.4</ele>
        <time>2022-06-15T06:38:29Z</time>
      </trkpt>
      <trkpt lat="45.62393" lon="6.77263">
        <ele>831.8</ele>
        <time>2022-06-15T06:38:30Z</time>
      </trkpt>
      <trkpt lat="45.62394" lon="6.77267">
        <ele>832</ele>
        <time>2022-06-15T06:38:31Z</time>
      </trkpt>
      <trkpt lat="45.62395" lon="6.77271">
        <ele>831.8</ele>
        <time>2022-06-15T06:38:32Z</time>
      </trkpt>
      <trkpt lat="45.62396" lon="6.77274">
        <ele>831.7</ele>
        <time>2022-06-15T06:38:33Z</time>
      </trkpt>
      <trkpt lat="45.62397" lon="6.77278">
        <ele>831.4</ele>
        <time>2022-06-15T06:38:34Z</time>
      </trkpt>
      <trkpt lat="45.62398" lon="6.77281">
        <ele>831.6</ele>
        <time>2022-06-15T06:38:35Z</time>
      </trkpt>
      <trkpt lat="45.624" lon="6.77284">
        <ele>831.9</ele>
        <time>2022-06-15T06:38:36Z</time>
      </trkpt>
      <trkpt lat="45.62401" lon="6.77288">
        <ele>832.2</ele>
        <time>2022-06-15T06:38:37Z</time>
      </trkpt>
      <trkpt lat="45.62402" lon="6.77291">
        <ele>832.6</ele>
        <time>2022-06-15T06:38:38Z</time>
      </trkpt>
      <trkpt lat="45.62404" lon="6.77294">
        <ele>832.9</ele>
        <time>2022-06-15T06:38:39Z</time>
      </trkpt>
      <trkpt lat="45.62405" lon="6.77297">
        <ele>833.2</ele>
        <time>2022-06-15T06:38:40Z</time>
      </trkpt>
      <trkpt lat="45.62406" lon="6.77301">
        <ele>833.4</ele>
        <time>2022-06-15T06:38:41Z</time>
      </trkpt>
      <trkpt lat="45.62407" lon="6.77304">
        <ele>833.7</ele>
        <time>2022-06-15T06:38:42Z</time>
      </trkpt>
      <trkpt lat="45.62408" lon="6.77307">
        <ele>833.7</ele>
        <time>2022-06-15T06:38:43Z</time>
      </trkpt>
      <trkpt lat="45.62409" lon="6.7731">
        <ele>833.5</ele>
        <time>2022-06-15T06:38:44Z</time>
      </trkpt>
      <trkpt lat="45.6241" lon="6.77314">
        <ele>833.4</ele>
        <time>2022-06-15T06:38:45Z</time>
      </trkpt>
      <trkpt lat="45.62411" lon="6.77317">
        <ele>833.5</ele>
        <time>2022-06-15T06:38:46Z</time>
      </trkpt>
      <trkpt lat="45.62413" lon="6.7732">
        <ele>833.7</ele>
        <time>2022-06-15T06:38:47Z</time>
      </trkpt>
      <trkpt lat="45.62414" lon="6.77323">
        <ele>833.7</ele>
        <time>2022-06-15T06:38:48Z</time>
      </trkpt>
      <trkpt lat="45.62415" lon="6.77327">
        <ele>833.5</ele>
        <time>2022-06-15T06:38:49Z</time>
      </trkpt>
      <trkpt lat="45.62416" lon="6.7733">
        <ele>833.3</ele>
        <time>2022-06-15T06:38:50Z</time>
      </trkpt>
      <trkpt lat="45.62417" lon="6.77333">
        <ele>833.3</ele>
        <time>2022-06-15T06:38:51Z</time>
      </trkpt>
      <trkpt lat="45.62419" lon="6.77336">
        <ele>833.8</ele>
        <time>2022-06-15T06:38:52Z</time>
      </trkpt>
      <trkpt lat="45.6242" lon="6.77339">
        <ele>834.2</ele>
        <time>2022-06-15T06:38:53Z</time>
      </trkpt>
      <trkpt lat="45.62422" lon="6.77343">
        <ele>834.3</ele>
        <time>2022-06-15T06:38:54Z</time>
      </trkpt>
      <trkpt lat="45.62423" lon="6.77346">
        <ele>834.6</ele>
        <time>2022-06-15T06:38:55Z</time>
      </trkpt>
      <trkpt lat="45.62424" lon="6.7735">
        <ele>834.7</ele>
        <time>2022-06-15T06:38:56Z</time>
      </trkpt>
      <trkpt lat="45.62426" lon="6.77353">
        <ele>834.9</ele>
        <time>2022-06-15T06:38:57Z</time>
      </trkpt>
      <trkpt lat="45.62427" lon="6.77356">
        <ele>835.3</ele>
        <time>2022-06-15T06:38:58Z</time>
      </trkpt>
      <trkpt lat="45.62429" lon="6.77359">
        <ele>835.8</ele>
        <time>2022-06-15T06:38:59Z</time>
      </trkpt>
      <trkpt lat="45.6243" lon="6.77363">
        <ele>836.3</ele>
        <time>2022-06-15T06:39:00Z</time>
      </trkpt>
      <trkpt lat="45.62432" lon="6.77366">
        <ele>836.7</ele>
        <time>2022-06-15T06:39:01Z</time>
      </trkpt>
      <trkpt lat="45.62433" lon="6.77369">
        <ele>837.1</ele>
        <time>2022-06-15T06:39:02Z</time>
      </trkpt>
      <trkpt lat="45.62434" lon="6.77372">
        <ele>837.3</ele>
        <time>2022-06-15T06:39:03Z</time>
      </trkpt>
      <trkpt lat="45.62436" lon="6.77376">
        <ele>837.7</ele>
        <time>2022-06-15T06:39:04Z</time>
      </trkpt>
      <trkpt lat="45.62437" lon="6.77379">
        <ele>837.8</ele>
        <time>2022-06-15T06:39:05Z</time>
      </trkpt>
      <trkpt lat="45.62439" lon="6.77382">
        <ele>838</ele>
        <time>2022-06-15T06:39:06Z</time>
      </trkpt>
      <trkpt lat="45.6244" lon="6.77385">
        <ele>838.1</ele>
        <time>2022-06-15T06:39:07Z</time>
      </trkpt>
      <trkpt lat="45.62441" lon="6.77388">
        <ele>838.2</ele>
        <time>2022-06-15T06:39:08Z</time>
      </trkpt>
      <trkpt lat="45.62443" lon="6.77391">
        <ele>838.4</ele>
        <time>2022-06-15T06:39:09Z</time>
      </trkpt>
      <trkpt lat="45.62444" lon="6.77395">
        <ele>838.9</ele>
        <time>2022-06-15T06:39:10Z</time>
      </trkpt>
      <trkpt lat="45.62446" lon="6.77398">
        <ele>839.5</ele>
        <time>2022-06-15T06:39:11Z</time>
      </trkpt>
      <trkpt lat="45.62447" lon="6.77401">
        <ele>839.8</ele>
        <time>2022-06-15T06:39:12Z</time>
      </trkpt>
      <trkpt lat="45.62447" lon="6.77405">
        <ele>839.7</ele>
        <time>2022-06-15T06:39:13Z</time>
      </trkpt>
      <trkpt lat="45.62448" lon="6.77408">
        <ele>839.9</ele>
        <time>2022-06-15T06:39:14Z</time>
      </trkpt>
      <trkpt lat="45.62449" lon="6.77412">
        <ele>840.2</ele>
        <time>2022-06-15T06:39:15Z</time>
      </trkpt>
      <trkpt lat="45.6245" lon="6.77415">
        <ele>840.6</ele>
        <time>2022-06-15T06:39:16Z</time>
      </trkpt>
      <trkpt lat="45.62451" lon="6.77419">
        <ele>840.7</ele>
        <time>2022-06-15T06:39:17Z</time>
      </trkpt>
      <trkpt lat="45.62453" lon="6.77422">
        <ele>840.8</ele>
        <time>2022-06-15T06:39:18Z</time>
      </trkpt>
      <trkpt lat="45.62454" lon="6.77426">
        <ele>841</ele>
        <time>2022-06-15T06:39:19Z</time>
      </trkpt>
      <trkpt lat="45.62455" lon="6.77429">
        <ele>840.9</ele>
        <time>2022-06-15T06:39:20Z</time>
      </trkpt>
      <trkpt lat="45.62456" lon="6.77432">
        <ele>840.9</ele>
        <time>2022-06-15T06:39:21Z</time>
      </trkpt>
      <trkpt lat="45.62457" lon="6.77436">
        <ele>840.7</ele>
        <time>2022-06-15T06:39:22Z</time>
      </trkpt>
      <trkpt lat="45.62458" lon="6.77439">
        <ele>840.6</ele>
        <time>2022-06-15T06:39:23Z</time>
      </trkpt>
      <trkpt lat="45.62459" lon="6.77443">
        <ele>840.6</ele>
        <time>2022-06-15T06:39:24Z</time>
      </trkpt>
      <trkpt lat="45.6246" lon="6.77446">
        <ele>840.7</ele>
        <time>2022-06-15T06:39:25Z</time>
      </trkpt>
      <trkpt lat="45.62461" lon="6.7745">
        <ele>840.8</ele>
        <time>2022-06-15T06:39:26Z</time>
      </trkpt>
      <trkpt lat="45.62462" lon="6.77453">
        <ele>841</ele>
        <time>2022-06-15T06:39:27Z</time>
      </trkpt>
      <trkpt lat="45.62463" lon="6.77456">
        <ele>841.2</ele>
        <time>2022-06-15T06:39:28Z</time>
      </trkpt>
      <trkpt lat="45.62464" lon="6.77459">
        <ele>841.1</ele>
        <time>2022-06-15T06:39:29Z</time>
      </trkpt>
      <trkpt lat="45.62465" lon="6.77463">
        <ele>841.1</ele>
        <time>2022-06-15T06:39:30Z</time>
      </trkpt>
      <trkpt lat="45.62466" lon="6.77466">
        <ele>841</ele>
        <time>2022-06-15T06:39:31Z</time>
      </trkpt>
      <trkpt lat="45.62467" lon="6.7747">
        <ele>840.8</ele>
        <time>2022-06-15T06:39:32Z</time>
      </trkpt>
      <trkpt lat="45.62468" lon="6.77473">
        <ele>840.9</ele>
        <time>2022-06-15T06:39:33Z</time>
      </trkpt>
      <trkpt lat="45.62469" lon="6.77476">
        <ele>841.3</ele>
        <time>2022-06-15T06:39:34Z</time>
      </trkpt>
      <trkpt lat="45.6247" lon="6.77479">
        <ele>841.8</ele>
        <time>2022-06-15T06:39:35Z</time>
      </trkpt>
      <trkpt lat="45.62471" lon="6.77482">
        <ele>842.3</ele>
        <time>2022-06-15T06:39:36Z</time>
      </trkpt>
      <trkpt lat="45.62473" lon="6.77485">
        <ele>842.8</ele>
        <time>2022-06-15T06:39:37Z</time>
      </trkpt>
      <trkpt lat="45.62474" lon="6.77488">
        <ele>843.5</ele>
        <time>2022-06-15T06:39:38Z</time>
      </trkpt>
      <trkpt lat="45.62475" lon="6.77492">
        <ele>843.9</ele>
        <time>2022-06-15T06:39:39Z</time>
      </trkpt>
      <trkpt lat="45.62477" lon="6.77495">
        <ele>844.5</ele>
        <time>2022-06-15T06:39:40Z</time>
      </trkpt>
      <trkpt lat="45.62478" lon="6.77498">
        <ele>844.9</ele>
        <time>2022-06-15T06:39:41Z</time>
      </trkpt>
      <trkpt lat="45.6248" lon="6.77501">
        <ele>845.3</ele>
        <time>2022-06-15T06:39:42Z</time>
      </trkpt>
      <trkpt lat="45.62481" lon="6.77504">
        <ele>845.5</ele>
        <time>2022-06-15T06:39:43Z</time>
      </trkpt>
      <trkpt lat="45.62483" lon="6.77507">
        <ele>845.6</ele>
        <time>2022-06-15T06:39:44Z</time>
      </trkpt>
      <trkpt lat="45.62484" lon="6.77511">
        <ele>845.6</ele>
        <time>2022-06-15T06:39:45Z</time>
      </trkpt>
      <trkpt lat="45.62485" lon="6.77514">
        <ele>845.7</ele>
        <time>2022-06-15T06:39:46Z</time>
      </trkpt>
      <trkpt lat="45.62487" lon="6.77517">
        <ele>845.9</ele>
        <time>2022-06-15T06:39:47Z</time>
      </trkpt>
      <trkpt lat="45.62488" lon="6.7752">
        <ele>845.9</ele>
        <time>2022-06-15T06:39:48Z</time>
      </trkpt>
      <trkpt lat="45.62489" lon="6.77524">
        <ele>845.9</ele>
        <time>2022-06-15T06:39:49Z</time>
      </trkpt>
      <trkpt lat="45.62491" lon="6.77527">
        <ele>845.9</ele>
        <time>2022-06-15T06:39:50Z</time>
      </trkpt>
      <trkpt lat="45.62492" lon="6.77529">
        <ele>846.1</ele>
        <time>2022-06-15T06:39:51Z</time>
      </trkpt>
      <trkpt lat="45.62494" lon="6.77532">
        <ele>846.4</ele>
        <time>2022-06-15T06:39:52Z</time>
      </trkpt>
      <trkpt lat="45.62495" lon="6.77535">
        <ele>846.8</ele>
        <time>2022-06-15T06:39:53Z</time>
      </trkpt>
      <trkpt lat="45.62497" lon="6.77538">
        <ele>847.1</ele>
        <time>2022-06-15T06:39:54Z</time>
      </trkpt>
      <trkpt lat="45.62498" lon="6.77542">
        <ele>847.6</ele>
        <time>2022-06-15T06:39:55Z</time>
      </trkpt>
      <trkpt lat="45.625" lon="6.77545">
        <ele>847.6</ele>
        <time>2022-06-15T06:39:56Z</time>
      </trkpt>
      <trkpt lat="45.625" lon="6.77548">
        <ele>847.5</ele>
        <time>2022-06-15T06:39:57Z</time>
      </trkpt>
      <trkpt lat="45.62501" lon="6.77551">
        <ele>847.4</ele>
        <time>2022-06-15T06:39:58Z</time>
      </trkpt>
      <trkpt lat="45.62502" lon="6.77555">
        <ele>847.1</ele>
        <time>2022-06-15T06:39:59Z</time>
      </trkpt>
      <trkpt lat="45.62503" lon="6.77558">
        <ele>847.6</ele>
        <time>2022-06-15T06:40:00Z</time>
      </trkpt>
      <trkpt lat="45.62504" lon="6.77562">
        <ele>848.3</ele>
        <time>2022-06-15T06:40:01Z</time>
      </trkpt>
      <trkpt lat="45.62505" lon="6.77565">
        <ele>848.6</ele>
        <time>2022-06-15T06:40:02Z</time>
      </trkpt>
      <trkpt lat="45.62505" lon="6.77569">
        <ele>849</ele>
        <time>2022-06-15T06:40:03Z</time>
      </trkpt>
      <trkpt lat="45.62506" lon="6.77572">
        <ele>849.3</ele>
        <time>2022-06-15T06:40:04Z</time>
      </trkpt>
      <trkpt lat="45.62506" lon="6.77576">
        <ele>849.4</ele>
        <time>2022-06-15T06:40:05Z</time>
      </trkpt>
      <trkpt lat="45.62506" lon="6.77579">
        <ele>849.3</ele>
        <time>2022-06-15T06:40:06Z</time>
      </trkpt>
      <trkpt lat="45.62505" lon="6.77582">
        <ele>849.2</ele>
        <time>2022-06-15T06:40:07Z</time>
      </trkpt>
      <trkpt lat="45.62505" lon="6.77585">
        <ele>849.1</ele>
        <time>2022-06-15T06:40:08Z</time>
      </trkpt>
      <trkpt lat="45.62504" lon="6.77589">
        <ele>849.5</ele>
        <time>2022-06-15T06:40:09Z</time>
      </trkpt>
      <trkpt lat="45.62504" lon="6.77593">
        <ele>849.9</ele>
        <time>2022-06-15T06:40:10Z</time>
      </trkpt>
      <trkpt lat="45.62503" lon="6.77596">
        <ele>850</ele>
        <time>2022-06-15T06:40:11Z</time>
      </trkpt>
      <trkpt lat="45.62502" lon="6.77599">
        <ele>850.2</ele>
        <time>2022-06-15T06:40:12Z</time>
      </trkpt>
      <trkpt lat="45.62502" lon="6.77602">
        <ele>850.4</ele>
        <time>2022-06-15T06:40:13Z</time>
      </trkpt>
      <trkpt lat="45.62501" lon="6.77605">
        <ele>850.4</ele>
        <time>2022-06-15T06:40:14Z</time>
      </trkpt>
      <trkpt lat="45.625" lon="6.77608">
        <ele>850.4</ele>
        <time>2022-06-15T06:40:15Z</time>
      </trkpt>
      <trkpt lat="45.62499" lon="6.77612">
        <ele>850.3</ele>
        <time>2022-06-15T06:40:16Z</time>
      </trkpt>
      <trkpt lat="45.62498" lon="6.77615">
        <ele>850.4</ele>
        <time>2022-06-15T06:40:17Z</time>
      </trkpt>
      <trkpt lat="45.62497" lon="6.77619">
        <ele>850.5</ele>
        <time>2022-06-15T06:40:18Z</time>
      </trkpt>
      <trkpt lat="45.62497" lon="6.77622">
        <ele>850.7</ele>
        <time>2022-06-15T06:40:19Z</time>
      </trkpt>
      <trkpt lat="45.62496" lon="6.77626">
        <ele>850.9</ele>
        <time>2022-06-15T06:40:20Z</time>
      </trkpt>
      <trkpt lat="45.62495" lon="6.7763">
        <ele>851</ele>
        <time>2022-06-15T06:40:21Z</time>
      </trkpt>
      <trkpt lat="45.62494" lon="6.77633">
        <ele>851.1</ele>
        <time>2022-06-15T06:40:22Z</time>
      </trkpt>
      <trkpt lat="45.62494" lon="6.77637">
        <ele>851.5</ele>
        <time>2022-06-15T06:40:23Z</time>
      </trkpt>
      <trkpt lat="45.62494" lon="6.77641">
        <ele>851.8</ele>
        <time>2022-06-15T06:40:24Z</time>
      </trkpt>
      <trkpt lat="45.62494" lon="6.77644">
        <ele>852</ele>
        <time>2022-06-15T06:40:25Z</time>
      </trkpt>
      <trkpt lat="45.62494" lon="6.77648">
        <ele>852.1</ele>
        <time>2022-06-15T06:40:26Z</time>
      </trkpt>
      <trkpt lat="45.62494" lon="6.77651">
        <ele>852.1</ele>
        <time>2022-06-15T06:40:27Z</time>
      </trkpt>
      <trkpt lat="45.62494" lon="6.77655">
        <ele>852.3</ele>
        <time>2022-06-15T06:40:28Z</time>
      </trkpt>
      <trkpt lat="45.62494" lon="6.77658">
        <ele>852.5</ele>
        <time>2022-06-15T06:40:29Z</time>
      </trkpt>
      <trkpt lat="45.62495" lon="6.77662">
        <ele>852.9</ele>
        <time>2022-06-15T06:40:30Z</time>
      </trkpt>
      <trkpt lat="45.62495" lon="6.77665">
        <ele>853</ele>
        <time>2022-06-15T06:40:31Z</time>
      </trkpt>
      <trkpt lat="45.62495" lon="6.77669">
        <ele>853.2</ele>
        <time>2022-06-15T06:40:32Z</time>
      </trkpt>
      <trkpt lat="45.62495" lon="6.77672">
        <ele>853.4</ele>
        <time>2022-06-15T06:40:33Z</time>
      </trkpt>
      <trkpt lat="45.62495" lon="6.77676">
        <ele>853.5</ele>
        <time>2022-06-15T06:40:34Z</time>
      </trkpt>
      <trkpt lat="45.62496" lon="6.77679">
        <ele>853.5</ele>
        <time>2022-06-15T06:40:35Z</time>
      </trkpt>
      <trkpt lat="45.62496" lon="6.77683">
        <ele>853.8</ele>
        <time>2022-06-15T06:40:36Z</time>
      </trkpt>
      <trkpt lat="45.62497" lon="6.77686">
        <ele>854.1</ele>
        <time>2022-06-15T06:40:37Z</time>
      </trkpt>
      <trkpt lat="45.62497" lon="6.77689">
        <ele>854.2</ele>
        <time>2022-06-15T06:40:38Z</time>
      </trkpt>
      <trkpt lat="45.62497" lon="6.77692">
        <ele>854.4</ele>
        <time>2022-06-15T06:40:39Z</time>
      </trkpt>
      <trkpt lat="45.62498" lon="6.77696">
        <ele>854.7</ele>
        <time>2022-06-15T06:40:40Z</time>
      </trkpt>
      <trkpt lat="45.62499" lon="6.77699">
        <ele>855.1</ele>
        <time>2022-06-15T06:40:41Z</time>
      </trkpt>
      <trkpt lat="45.625" lon="6.77702">
        <ele>855.2</ele>
        <time>2022-06-15T06:40:42Z</time>
      </trkpt>
      <trkpt lat="45.62501" lon="6.77705">
        <ele>855.5</ele>
        <time>2022-06-15T06:40:43Z</time>
      </trkpt>
      <trkpt lat="45.62502" lon="6.77708">
        <ele>855.9</ele>
        <time>2022-06-15T06:40:44Z</time>
      </trkpt>
      <trkpt lat="45.62503" lon="6.77711">
        <ele>856.3</ele>
        <time>2022-06-15T06:40:45Z</time>
      </trkpt>
      <trkpt lat="45.62504" lon="6.77714">
        <ele>856.6</ele>
        <time>2022-06-15T06:40:46Z</time>
      </trkpt>
      <trkpt lat="45.62505" lon="6.77718">
        <ele>856.8</ele>
        <time>2022-06-15T06:40:47Z</time>
      </trkpt>
      <trkpt lat="45.62507" lon="6.77721">
        <ele>857.2</ele>
        <time>2022-06-15T06:40:48Z</time>
      </trkpt>
      <trkpt lat="45.62508" lon="6.77723">
        <ele>857.6</ele>
        <time>2022-06-15T06:40:49Z</time>
      </trkpt>
      <trkpt lat="45.62509" lon="6.77727">
        <ele>857.8</ele>
        <time>2022-06-15T06:40:50Z</time>
      </trkpt>
      <trkpt lat="45.6251" lon="6.7773">
        <ele>857.8</ele>
        <time>2022-06-15T06:40:51Z</time>
      </trkpt>
      <trkpt lat="45.62511" lon="6.77733">
        <ele>858.1</ele>
        <time>2022-06-15T06:40:52Z</time>
      </trkpt>
      <trkpt lat="45.62512" lon="6.77736">
        <ele>858.3</ele>
        <time>2022-06-15T06:40:53Z</time>
      </trkpt>
      <trkpt lat="45.62514" lon="6.77739">
        <ele>858.5</ele>
        <time>2022-06-15T06:40:54Z</time>
      </trkpt>
      <trkpt lat="45.62515" lon="6.77742">
        <ele>858.8</ele>
        <time>2022-06-15T06:40:55Z</time>
      </trkpt>
      <trkpt lat="45.62516" lon="6.77745">
        <ele>859.1</ele>
        <time>2022-06-15T06:40:56Z</time>
      </trkpt>
      <trkpt lat="45.62518" lon="6.77748">
        <ele>859.4</ele>
        <time>2022-06-15T06:40:57Z</time>
      </trkpt>
      <trkpt lat="45.62519" lon="6.77751">
        <ele>859.8</ele>
        <time>2022-06-15T06:40:58Z</time>
      </trkpt>
      <trkpt lat="45.62521" lon="6.77754">
        <ele>860.2</ele>
        <time>2022-06-15T06:40:59Z</time>
      </trkpt>
      <trkpt lat="45.62522" lon="6.77757">
        <ele>860.4</ele>
        <time>2022-06-15T06:41:00Z</time>
      </trkpt>
      <trkpt lat="45.62523" lon="6.7776">
        <ele>860.6</ele>
        <time>2022-06-15T06:41:01Z</time>
      </trkpt>
      <trkpt lat="45.62524" lon="6.77763">
        <ele>860.8</ele>
        <time>2022-06-15T06:41:02Z</time>
      </trkpt>
      <trkpt lat="45.62525" lon="6.77766">
        <ele>860.9</ele>
        <time>2022-06-15T06:41:03Z</time>
      </trkpt>
      <trkpt lat="45.62526" lon="6.7777">
        <ele>861.1</ele>
        <time>2022-06-15T06:41:04Z</time>
      </trkpt>
      <trkpt lat="45.62528" lon="6.77773">
        <ele>861.4</ele>
        <time>2022-06-15T06:41:05Z</time>
      </trkpt>
      <trkpt lat="45.62529" lon="6.77776">
        <ele>861.5</ele>
        <time>2022-06-15T06:41:06Z</time>
      </trkpt>
      <trkpt lat="45.62531" lon="6.77778">
        <ele>861.4</ele>
        <time>2022-06-15T06:41:07Z</time>
      </trkpt>
      <trkpt lat="45.62532" lon="6.77781">
        <ele>861.1</ele>
        <time>2022-06-15T06:41:08Z</time>
      </trkpt>
      <trkpt lat="45.62534" lon="6.77783">
        <ele>860.8</ele>
        <time>2022-06-15T06:41:09Z</time>
      </trkpt>
      <trkpt lat="45.62536" lon="6.77784">
        <ele>860.7</ele>
        <time>2022-06-15T06:41:10Z</time>
      </trkpt>
      <trkpt lat="45.62538" lon="6.77785">
        <ele>860.6</ele>
        <time>2022-06-15T06:41:11Z</time>
      </trkpt>
      <trkpt lat="45.62541" lon="6.77786">
        <ele>860.5</ele>
        <time>2022-06-15T06:41:12Z</time>
      </trkpt>
      <trkpt lat="45.62543" lon="6.77787">
        <ele>860.6</ele>
        <time>2022-06-15T06:41:13Z</time>
      </trkpt>
      <trkpt lat="45.62545" lon="6.77787">
        <ele>860.8</ele>
        <time>2022-06-15T06:41:14Z</time>
      </trkpt>
      <trkpt lat="45.62548" lon="6.77787">
        <ele>860.9</ele>
        <time>2022-06-15T06:41:15Z</time>
      </trkpt>
      <trkpt lat="45.6255" lon="6.77787">
        <ele>861</ele>
        <time>2022-06-15T06:41:16Z</time>
      </trkpt>
      <trkpt lat="45.62552" lon="6.77787">
        <ele>861.4</ele>
        <time>2022-06-15T06:41:17Z</time>
      </trkpt>
      <trkpt lat="45.62554" lon="6.77787">
        <ele>861.7</ele>
        <time>2022-06-15T06:41:18Z</time>
      </trkpt>
      <trkpt lat="45.62557" lon="6.77786">
        <ele>862.2</ele>
        <time>2022-06-15T06:41:19Z</time>
      </trkpt>
      <trkpt lat="45.62559" lon="6.77785">
        <ele>862.6</ele>
        <time>2022-06-15T06:41:20Z</time>
      </trkpt>
      <trkpt lat="45.62561" lon="6.77785">
        <ele>862.9</ele>
        <time>2022-06-15T06:41:21Z</time>
      </trkpt>
      <trkpt lat="45.62563" lon="6.77784">
        <ele>863.3</ele>
        <time>2022-06-15T06:41:22Z</time>
      </trkpt>
      <trkpt lat="45.62565" lon="6.77784">
        <ele>863.7</ele>
        <time>2022-06-15T06:41:23Z</time>
      </trkpt>
      <trkpt lat="45.62566" lon="6.77783">
        <ele>864</ele>
        <time>2022-06-15T06:41:24Z</time>
      </trkpt>
      <trkpt lat="45.62568" lon="6.77783">
        <ele>864.1</ele>
        <time>2022-06-15T06:41:25Z</time>
      </trkpt>
      <trkpt lat="45.62571" lon="6.77783">
        <ele>864.3</ele>
        <time>2022-06-15T06:41:26Z</time>
      </trkpt>
      <trkpt lat="45.62573" lon="6.77783">
        <ele>864.4</ele>
        <time>2022-06-15T06:41:27Z</time>
      </trkpt>
      <trkpt lat="45.62575" lon="6.77783">
        <ele>864.6</ele>
        <time>2022-06-15T06:41:28Z</time>
      </trkpt>
      <trkpt lat="45.62577" lon="6.77783">
        <ele>864.6</ele>
        <time>2022-06-15T06:41:29Z</time>
      </trkpt>
      <trkpt lat="45.62579" lon="6.77783">
        <ele>864.6</ele>
        <time>2022-06-15T06:41:30Z</time>
      </trkpt>
      <trkpt lat="45.62581" lon="6.77783">
        <ele>864.7</ele>
        <time>2022-06-15T06:41:31Z</time>
      </trkpt>
      <trkpt lat="45.62584" lon="6.77783">
        <ele>864.8</ele>
        <time>2022-06-15T06:41:32Z</time>
      </trkpt>
      <trkpt lat="45.62586" lon="6.77783">
        <ele>865.1</ele>
        <time>2022-06-15T06:41:33Z</time>
      </trkpt>
      <trkpt lat="45.62588" lon="6.77783">
        <ele>865.3</ele>
        <time>2022-06-15T06:41:34Z</time>
      </trkpt>
      <trkpt lat="45.6259" lon="6.77783">
        <ele>865.5</ele>
        <time>2022-06-15T06:41:35Z</time>
      </trkpt>
      <trkpt lat="45.62593" lon="6.77783">
        <ele>865.7</ele>
        <time>2022-06-15T06:41:36Z</time>
      </trkpt>
      <trkpt lat="45.62595" lon="6.77784">
        <ele>866</ele>
        <time>2022-06-15T06:41:37Z</time>
      </trkpt>
      <trkpt lat="45.62597" lon="6.77784">
        <ele>866.2</ele>
        <time>2022-06-15T06:41:38Z</time>
      </trkpt>
      <trkpt lat="45.62599" lon="6.77785">
        <ele>866.2</ele>
        <time>2022-06-15T06:41:39Z</time>
      </trkpt>
      <trkpt lat="45.62602" lon="6.77786">
        <ele>866.3</ele>
        <time>2022-06-15T06:41:40Z</time>
      </trkpt>
      <trkpt lat="45.62604" lon="6.77787">
        <ele>866.3</ele>
        <time>2022-06-15T06:41:41Z</time>
      </trkpt>
      <trkpt lat="45.62607" lon="6.77789">
        <ele>866.3</ele>
        <time>2022-06-15T06:41:42Z</time>
      </trkpt>
      <trkpt lat="45.62609" lon="6.77791">
        <ele>866.2</ele>
        <time>2022-06-15T06:41:43Z</time>
      </trkpt>
      <trkpt lat="45.6261" lon="6.77793">
        <ele>866</ele>
        <time>2022-06-15T06:41:44Z</time>
      </trkpt>
      <trkpt lat="45.62612" lon="6.77796">
        <ele>866.2</ele>
        <time>2022-06-15T06:41:45Z</time>
      </trkpt>
      <trkpt lat="45.62614" lon="6.77798">
        <ele>866.8</ele>
        <time>2022-06-15T06:41:46Z</time>
      </trkpt>
      <trkpt lat="45.62616" lon="6.77801">
        <ele>867.3</ele>
        <time>2022-06-15T06:41:47Z</time>
      </trkpt>
      <trkpt lat="45.62617" lon="6.77804">
        <ele>867.3</ele>
        <time>2022-06-15T06:41:48Z</time>
      </trkpt>
      <trkpt lat="45.62617" lon="6.77807">
        <ele>867.6</ele>
        <time>2022-06-15T06:41:49Z</time>
      </trkpt>
      <trkpt lat="45.62618" lon="6.77811">
        <ele>868.3</ele>
        <time>2022-06-15T06:41:50Z</time>
      </trkpt>
      <trkpt lat="45.62618" lon="6.77814">
        <ele>869</ele>
        <time>2022-06-15T06:41:51Z</time>
      </trkpt>
      <trkpt lat="45.62618" lon="6.77817">
        <ele>869.3</ele>
        <time>2022-06-15T06:41:52Z</time>
      </trkpt>
      <trkpt lat="45.62618" lon="6.7782">
        <ele>869.7</ele>
        <time>2022-06-15T06:41:53Z</time>
      </trkpt>
      <trkpt lat="45.62618" lon="6.77823">
        <ele>869.8</ele>
        <time>2022-06-15T06:41:54Z</time>
      </trkpt>
      <trkpt lat="45.62618" lon="6.77827">
        <ele>870.1</ele>
        <time>2022-06-15T06:41:55Z</time>
      </trkpt>
      <trkpt lat="45.62617" lon="6.7783">
        <ele>870.2</ele>
        <time>2022-06-15T06:41:56Z</time>
      </trkpt>
      <trkpt lat="45.62616" lon="6.77833">
        <ele>870.2</ele>
        <time>2022-06-15T06:41:57Z</time>
      </trkpt>
      <trkpt lat="45.62616" lon="6.77837">
        <ele>870.3</ele>
        <time>2022-06-15T06:41:58Z</time>
      </trkpt>
      <trkpt lat="45.62615" lon="6.7784">
        <ele>870.5</ele>
        <time>2022-06-15T06:41:59Z</time>
      </trkpt>
      <trkpt lat="45.62615" lon="6.77843">
        <ele>870.6</ele>
        <time>2022-06-15T06:42:00Z</time>
      </trkpt>
      <trkpt lat="45.62614" lon="6.77846">
        <ele>870.5</ele>
        <time>2022-06-15T06:42:01Z</time>
      </trkpt>
      <trkpt lat="45.62613" lon="6.7785">
        <ele>870.4</ele>
        <time>2022-06-15T06:42:02Z</time>
      </trkpt>
      <trkpt lat="45.62612" lon="6.77852">
        <ele>870.3</ele>
        <time>2022-06-15T06:42:03Z</time>
      </trkpt>
      <trkpt lat="45.62611" lon="6.77856">
        <ele>870.1</ele>
        <time>2022-06-15T06:42:04Z</time>
      </trkpt>
      <trkpt lat="45.6261" lon="6.77859">
        <ele>870.1</ele>
        <time>2022-06-15T06:42:05Z</time>
      </trkpt>
      <trkpt lat="45.6261" lon="6.77862">
        <ele>870.4</ele>
        <time>2022-06-15T06:42:06Z</time>
      </trkpt>
      <trkpt lat="45.6261" lon="6.77865">
        <ele>870.4</ele>
        <time>2022-06-15T06:42:07Z</time>
      </trkpt>
      <trkpt lat="45.62609" lon="6.77869">
        <ele>870.4</ele>
        <time>2022-06-15T06:42:08Z</time>
      </trkpt>
      <trkpt lat="45.62609" lon="6.77872">
        <ele>870.4</ele>
        <time>2022-06-15T06:42:09Z</time>
      </trkpt>
      <trkpt lat="45.62608" lon="6.77875">
        <ele>870.5</ele>
        <time>2022-06-15T06:42:10Z</time>
      </trkpt>
      <trkpt lat="45.62608" lon="6.77878">
        <ele>870.6</ele>
        <time>2022-06-15T06:42:11Z</time>
      </trkpt>
      <trkpt lat="45.62608" lon="6.77881">
        <ele>870.7</ele>
        <time>2022-06-15T06:42:12Z</time>
      </trkpt>
      <trkpt lat="45.62608" lon="6.77884">
        <ele>870.8</ele>
        <time>2022-06-15T06:42:13Z</time>
      </trkpt>
      <trkpt lat="45.62608" lon="6.77887">
        <ele>871</ele>
        <time>2022-06-15T06:42:14Z</time>
      </trkpt>
      <trkpt lat="45.62607" lon="6.7789">
        <ele>871</ele>
        <time>2022-06-15T06:42:15Z</time>
      </trkpt>
      <trkpt lat="45.62607" lon="6.77893">
        <ele>871.1</ele>
        <time>2022-06-15T06:42:16Z</time>
      </trkpt>
      <trkpt lat="45.62607" lon="6.77896">
        <ele>871.3</ele>
        <time>2022-06-15T06:42:17Z</time>
      </trkpt>
      <trkpt lat="45.62607" lon="6.77899">
        <ele>871.5</ele>
        <time>2022-06-15T06:42:18Z</time>
      </trkpt>
      <trkpt lat="45.62607" lon="6.77902">
        <ele>871.9</ele>
        <time>2022-06-15T06:42:19Z</time>
      </trkpt>
      <trkpt lat="45.62608" lon="6.77905">
        <ele>872.3</ele>
        <time>2022-06-15T06:42:20Z</time>
      </trkpt>
      <trkpt lat="45.62608" lon="6.77908">
        <ele>872.7</ele>
        <time>2022-06-15T06:42:21Z</time>
      </trkpt>
      <trkpt lat="45.62609" lon="6.77911">
        <ele>873.4</ele>
        <time>2022-06-15T06:42:22Z</time>
      </trkpt>
      <trkpt lat="45.6261" lon="6.77913">
        <ele>874.2</ele>
        <time>2022-06-15T06:42:23Z</time>
      </trkpt>
      <trkpt lat="45.62611" lon="6.77916">
        <ele>875</ele>
        <time>2022-06-15T06:42:24Z</time>
      </trkpt>
      <trkpt lat="45.62613" lon="6.77918">
        <ele>875.4</ele>
        <time>2022-06-15T06:42:25Z</time>
      </trkpt>
      <trkpt lat="45.62615" lon="6.7792">
        <ele>875.5</ele>
        <time>2022-06-15T06:42:26Z</time>
      </trkpt>
      <trkpt lat="45.62616" lon="6.77922">
        <ele>875.7</ele>
        <time>2022-06-15T06:42:27Z</time>
      </trkpt>
      <trkpt lat="45.62618" lon="6.77924">
        <ele>875.9</ele>
        <time>2022-06-15T06:42:28Z</time>
      </trkpt>
      <trkpt lat="45.6262" lon="6.77926">
        <ele>876</ele>
        <time>2022-06-15T06:42:29Z</time>
      </trkpt>
      <trkpt lat="45.62621" lon="6.77927">
        <ele>876.2</ele>
        <time>2022-06-15T06:42:30Z</time>
      </trkpt>
      <trkpt lat="45.62623" lon="6.77929">
        <ele>876.3</ele>
        <time>2022-06-15T06:42:31Z</time>
      </trkpt>
      <trkpt lat="45.62625" lon="6.77931">
        <ele>876.4</ele>
        <time>2022-06-15T06:42:32Z</time>
      </trkpt>
      <trkpt lat="45.62626" lon="6.77934">
        <ele>876.4</ele>
        <time>2022-06-15T06:42:33Z</time>
      </trkpt>
      <trkpt lat="45.62628" lon="6.77936">
        <ele>876.5</ele>
        <time>2022-06-15T06:42:34Z</time>
      </trkpt>
      <trkpt lat="45.6263" lon="6.77937">
        <ele>876.6</ele>
        <time>2022-06-15T06:42:35Z</time>
      </trkpt>
      <trkpt lat="45.62632" lon="6.77939">
        <ele>876.8</ele>
        <time>2022-06-15T06:42:36Z</time>
      </trkpt>
      <trkpt lat="45.62633" lon="6.77941">
        <ele>876.9</ele>
        <time>2022-06-15T06:42:37Z</time>
      </trkpt>
      <trkpt lat="45.62635" lon="6.77943">
        <ele>876.9</ele>
        <time>2022-06-15T06:42:38Z</time>
      </trkpt>
      <trkpt lat="45.62637" lon="6.77945">
        <ele>876.9</ele>
        <time>2022-06-15T06:42:39Z</time>
      </trkpt>
      <trkpt lat="45.62638" lon="6.77948">
        <ele>876.9</ele>
        <time>2022-06-15T06:42:40Z</time>
      </trkpt>
      <trkpt lat="45.62639" lon="6.7795">
        <ele>876.9</ele>
        <time>2022-06-15T06:42:41Z</time>
      </trkpt>
      <trkpt lat="45.62641" lon="6.77953">
        <ele>877.1</ele>
        <time>2022-06-15T06:42:42Z</time>
      </trkpt>
      <trkpt lat="45.62642" lon="6.77955">
        <ele>877.4</ele>
        <time>2022-06-15T06:42:43Z</time>
      </trkpt>
      <trkpt lat="45.62644" lon="6.77957">
        <ele>877.6</ele>
        <time>2022-06-15T06:42:44Z</time>
      </trkpt>
      <trkpt lat="45.62645" lon="6.77959">
        <ele>877.8</ele>
        <time>2022-06-15T06:42:45Z</time>
      </trkpt>
      <trkpt lat="45.62647" lon="6.77962">
        <ele>878</ele>
        <time>2022-06-15T06:42:46Z</time>
      </trkpt>
      <trkpt lat="45.62649" lon="6.77964">
        <ele>878.3</ele>
        <time>2022-06-15T06:42:47Z</time>
      </trkpt>
      <trkpt lat="45.6265" lon="6.77967">
        <ele>878.4</ele>
        <time>2022-06-15T06:42:48Z</time>
      </trkpt>
      <trkpt lat="45.62651" lon="6.77969">
        <ele>878.5</ele>
        <time>2022-06-15T06:42:49Z</time>
      </trkpt>
      <trkpt lat="45.62653" lon="6.77971">
        <ele>878.6</ele>
        <time>2022-06-15T06:42:50Z</time>
      </trkpt>
      <trkpt lat="45.62654" lon="6.77974">
        <ele>878.9</ele>
        <time>2022-06-15T06:42:51Z</time>
      </trkpt>
      <trkpt lat="45.62655" lon="6.77976">
        <ele>879.1</ele>
        <time>2022-06-15T06:42:52Z</time>
      </trkpt>
      <trkpt lat="45.62656" lon="6.77979">
        <ele>879.4</ele>
        <time>2022-06-15T06:42:53Z</time>
      </trkpt>
      <trkpt lat="45.62658" lon="6.77981">
        <ele>879.7</ele>
        <time>2022-06-15T06:42:54Z</time>
      </trkpt>
      <trkpt lat="45.62659" lon="6.77984">
        <ele>880.1</ele>
        <time>2022-06-15T06:42:55Z</time>
      </trkpt>
      <trkpt lat="45.6266" lon="6.77986">
        <ele>880.4</ele>
        <time>2022-06-15T06:42:56Z</time>
      </trkpt>
      <trkpt lat="45.62662" lon="6.77988">
        <ele>880.9</ele>
        <time>2022-06-15T06:42:57Z</time>
      </trkpt>
      <trkpt lat="45.62663" lon="6.77991">
        <ele>881.3</ele>
        <time>2022-06-15T06:42:58Z</time>
      </trkpt>
      <trkpt lat="45.62665" lon="6.77994">
        <ele>881.6</ele>
        <time>2022-06-15T06:42:59Z</time>
      </trkpt>
      <trkpt lat="45.62665" lon="6.77996">
        <ele>881.7</ele>
        <time>2022-06-15T06:43:00Z</time>
      </trkpt>
      <trkpt lat="45.62666" lon="6.77999">
        <ele>881.8</ele>
        <time>2022-06-15T06:43:01Z</time>
      </trkpt>
      <trkpt lat="45.62667" lon="6.78002">
        <ele>882</ele>
        <time>2022-06-15T06:43:02Z</time>
      </trkpt>
      <trkpt lat="45.62668" lon="6.78005">
        <ele>882</ele>
        <time>2022-06-15T06:43:03Z</time>
      </trkpt>
      <trkpt lat="45.62668" lon="6.78008">
        <ele>882</ele>
        <time>2022-06-15T06:43:04Z</time>
      </trkpt>
      <trkpt lat="45.62669" lon="6.78011">
        <ele>882.2</ele>
        <time>2022-06-15T06:43:05Z</time>
      </trkpt>
      <trkpt lat="45.6267" lon="6.78014">
        <ele>882.3</ele>
        <time>2022-06-15T06:43:06Z</time>
      </trkpt>
      <trkpt lat="45.62671" lon="6.78017">
        <ele>882.5</ele>
        <time>2022-06-15T06:43:07Z</time>
      </trkpt>
      <trkpt lat="45.62672" lon="6.78019">
        <ele>882.6</ele>
        <time>2022-06-15T06:43:08Z</time>
      </trkpt>
      <trkpt lat="45.62673" lon="6.78022">
        <ele>882.7</ele>
        <time>2022-06-15T06:43:09Z</time>
      </trkpt>
      <trkpt lat="45.62674" lon="6.78025">
        <ele>882.8</ele>
        <time>2022-06-15T06:43:10Z</time>
      </trkpt>
      <trkpt lat="45.62675" lon="6.78028">
        <ele>882.8</ele>
        <time>2022-06-15T06:43:11Z</time>
      </trkpt>
      <trkpt lat="45.62675" lon="6.78032">
        <ele>883</ele>
        <time>2022-06-15T06:43:12Z</time>
      </trkpt>
      <trkpt lat="45.62677" lon="6.78035">
        <ele>883.3</ele>
        <time>2022-06-15T06:43:13Z</time>
      </trkpt>
      <trkpt lat="45.62678" lon="6.78038">
        <ele>883.5</ele>
        <time>2022-06-15T06:43:14Z</time>
      </trkpt>
      <trkpt lat="45.62679" lon="6.78041">
        <ele>883.8</ele>
        <time>2022-06-15T06:43:15Z</time>
      </trkpt>
      <trkpt lat="45.6268" lon="6.78044">
        <ele>884.1</ele>
        <time>2022-06-15T06:43:16Z</time>
      </trkpt>
      <trkpt lat="45.62681" lon="6.78047">
        <ele>884.3</ele>
        <time>2022-06-15T06:43:17Z</time>
      </trkpt>
      <trkpt lat="45.62682" lon="6.7805">
        <ele>884.6</ele>
        <time>2022-06-15T06:43:18Z</time>
      </trkpt>
      <trkpt lat="45.62683" lon="6.78052">
        <ele>884.8</ele>
        <time>2022-06-15T06:43:19Z</time>
      </trkpt>
      <trkpt lat="45.62683" lon="6.78055">
        <ele>884.9</ele>
        <time>2022-06-15T06:43:20Z</time>
      </trkpt>
      <trkpt lat="45.62684" lon="6.78058">
        <ele>885</ele>
        <time>2022-06-15T06:43:21Z</time>
      </trkpt>
      <trkpt lat="45.62685" lon="6.78061">
        <ele>885.3</ele>
        <time>2022-06-15T06:43:22Z</time>
      </trkpt>
      <trkpt lat="45.62687" lon="6.78064">
        <ele>885.5</ele>
        <time>2022-06-15T06:43:23Z</time>
      </trkpt>
      <trkpt lat="45.62688" lon="6.78066">
        <ele>885.8</ele>
        <time>2022-06-15T06:43:24Z</time>
      </trkpt>
      <trkpt lat="45.6269" lon="6.78069">
        <ele>886</ele>
        <time>2022-06-15T06:43:25Z</time>
      </trkpt>
      <trkpt lat="45.62691" lon="6.78072">
        <ele>886</ele>
        <time>2022-06-15T06:43:26Z</time>
      </trkpt>
      <trkpt lat="45.62691" lon="6.78074">
        <ele>886</ele>
        <time>2022-06-15T06:43:27Z</time>
      </trkpt>
      <trkpt lat="45.62692" lon="6.78077">
        <ele>886.1</ele>
        <time>2022-06-15T06:43:28Z</time>
      </trkpt>
      <trkpt lat="45.62694" lon="6.7808">
        <ele>886.1</ele>
        <time>2022-06-15T06:43:29Z</time>
      </trkpt>
      <trkpt lat="45.62695" lon="6.78082">
        <ele>886.2</ele>
        <time>2022-06-15T06:43:30Z</time>
      </trkpt>
      <trkpt lat="45.62696" lon="6.78085">
        <ele>886.5</ele>
        <time>2022-06-15T06:43:31Z</time>
      </trkpt>
      <trkpt lat="45.62697" lon="6.78088">
        <ele>887</ele>
        <time>2022-06-15T06:43:32Z</time>
      </trkpt>
      <trkpt lat="45.62698" lon="6.7809">
        <ele>887.4</ele>
        <time>2022-06-15T06:43:33Z</time>
      </trkpt>
      <trkpt lat="45.627" lon="6.78093">
        <ele>887.7</ele>
        <time>2022-06-15T06:43:34Z</time>
      </trkpt>
      <trkpt lat="45.62701" lon="6.78095">
        <ele>888.1</ele>
        <time>2022-06-15T06:43:35Z</time>
      </trkpt>
      <trkpt lat="45.62703" lon="6.78098">
        <ele>888.5</ele>
        <time>2022-06-15T06:43:36Z</time>
      </trkpt>
      <trkpt lat="45.62704" lon="6.781">
        <ele>888.7</ele>
        <time>2022-06-15T06:43:37Z</time>
      </trkpt>
      <trkpt lat="45.62705" lon="6.78102">
        <ele>888.9</ele>
        <time>2022-06-15T06:43:38Z</time>
      </trkpt>
      <trkpt lat="45.62707" lon="6.78105">
        <ele>889.1</ele>
        <time>2022-06-15T06:43:39Z</time>
      </trkpt>
      <trkpt lat="45.62708" lon="6.78107">
        <ele>889.2</ele>
        <time>2022-06-15T06:43:40Z</time>
      </trkpt>
      <trkpt lat="45.62709" lon="6.7811">
        <ele>889.3</ele>
        <time>2022-06-15T06:43:41Z</time>
      </trkpt>
      <trkpt lat="45.62711" lon="6.78112">
        <ele>889.4</ele>
        <time>2022-06-15T06:43:42Z</time>
      </trkpt>
      <trkpt lat="45.62712" lon="6.78114">
        <ele>889.5</ele>
        <time>2022-06-15T06:43:43Z</time>
      </trkpt>
      <trkpt lat="45.62713" lon="6.78117">
        <ele>889.5</ele>
        <time>2022-06-15T06:43:44Z</time>
      </trkpt>
      <trkpt lat="45.62714" lon="6.78119">
        <ele>889.6</ele>
        <time>2022-06-15T06:43:45Z</time>
      </trkpt>
      <trkpt lat="45.62716" lon="6.78122">
        <ele>889.7</ele>
        <time>2022-06-15T06:43:46Z</time>
      </trkpt>
      <trkpt lat="45.62717" lon="6.78125">
        <ele>889.7</ele>
        <time>2022-06-15T06:43:47Z</time>
      </trkpt>
      <trkpt lat="45.62718" lon="6.78127">
        <ele>889.8</ele>
        <time>2022-06-15T06:43:48Z</time>
      </trkpt>
      <trkpt lat="45.62719" lon="6.7813">
        <ele>890</ele>
        <time>2022-06-15T06:43:49Z</time>
      </trkpt>
      <trkpt lat="45.62721" lon="6.78132">
        <ele>890.1</ele>
        <time>2022-06-15T06:43:50Z</time>
      </trkpt>
      <trkpt lat="45.62722" lon="6.78135">
        <ele>890.2</ele>
        <time>2022-06-15T06:43:51Z</time>
      </trkpt>
      <trkpt lat="45.62723" lon="6.78138">
        <ele>890.5</ele>
        <time>2022-06-15T06:43:52Z</time>
      </trkpt>
      <trkpt lat="45.62725" lon="6.7814">
        <ele>890.9</ele>
        <time>2022-06-15T06:43:53Z</time>
      </trkpt>
      <trkpt lat="45.62726" lon="6.78143">
        <ele>891.4</ele>
        <time>2022-06-15T06:43:54Z</time>
      </trkpt>
      <trkpt lat="45.62727" lon="6.78145">
        <ele>891.8</ele>
        <time>2022-06-15T06:43:55Z</time>
      </trkpt>
      <trkpt lat="45.62729" lon="6.78147">
        <ele>892.2</ele>
        <time>2022-06-15T06:43:56Z</time>
      </trkpt>
      <trkpt lat="45.6273" lon="6.7815">
        <ele>892.6</ele>
        <time>2022-06-15T06:43:57Z</time>
      </trkpt>
      <trkpt lat="45.62731" lon="6.78152">
        <ele>892.9</ele>
        <time>2022-06-15T06:43:58Z</time>
      </trkpt>
      <trkpt lat="45.62732" lon="6.78155">
        <ele>893.2</ele>
        <time>2022-06-15T06:43:59Z</time>
      </trkpt>
      <trkpt lat="45.62734" lon="6.78157">
        <ele>893.4</ele>
        <time>2022-06-15T06:44:00Z</time>
      </trkpt>
      <trkpt lat="45.62735" lon="6.7816">
        <ele>893.7</ele>
        <time>2022-06-15T06:44:01Z</time>
      </trkpt>
      <trkpt lat="45.62736" lon="6.78163">
        <ele>893.9</ele>
        <time>2022-06-15T06:44:02Z</time>
      </trkpt>
      <trkpt lat="45.62738" lon="6.78165">
        <ele>894</ele>
        <time>2022-06-15T06:44:03Z</time>
      </trkpt>
      <trkpt lat="45.62739" lon="6.78168">
        <ele>894.2</ele>
        <time>2022-06-15T06:44:04Z</time>
      </trkpt>
      <trkpt lat="45.6274" lon="6.7817">
        <ele>894.4</ele>
        <time>2022-06-15T06:44:05Z</time>
      </trkpt>
      <trkpt lat="45.62742" lon="6.78173">
        <ele>894.5</ele>
        <time>2022-06-15T06:44:06Z</time>
      </trkpt>
      <trkpt lat="45.62743" lon="6.78175">
        <ele>894.6</ele>
        <time>2022-06-15T06:44:07Z</time>
      </trkpt>
      <trkpt lat="45.62744" lon="6.78178">
        <ele>894.7</ele>
        <time>2022-06-15T06:44:08Z</time>
      </trkpt>
      <trkpt lat="45.62744" lon="6.78181">
        <ele>894.7</ele>
        <time>2022-06-15T06:44:09Z</time>
      </trkpt>
      <trkpt lat="45.62745" lon="6.78183">
        <ele>894.7</ele>
        <time>2022-06-15T06:44:10Z</time>
      </trkpt>
      <trkpt lat="45.62746" lon="6.78186">
        <ele>894.7</ele>
        <time>2022-06-15T06:44:11Z</time>
      </trkpt>
      <trkpt lat="45.62747" lon="6.78189">
        <ele>894.7</ele>
        <time>2022-06-15T06:44:12Z</time>
      </trkpt>
      <trkpt lat="45.62747" lon="6.78192">
        <ele>894.6</ele>
        <time>2022-06-15T06:44:13Z</time>
      </trkpt>
      <trkpt lat="45.62748" lon="6.78195">
        <ele>894.6</ele>
        <time>2022-06-15T06:44:14Z</time>
      </trkpt>
      <trkpt lat="45.62749" lon="6.78198">
        <ele>894.8</ele>
        <time>2022-06-15T06:44:15Z</time>
      </trkpt>
      <trkpt lat="45.6275" lon="6.78201">
        <ele>895</ele>
        <time>2022-06-15T06:44:16Z</time>
      </trkpt>
      <trkpt lat="45.62751" lon="6.78204">
        <ele>895.5</ele>
        <time>2022-06-15T06:44:17Z</time>
      </trkpt>
      <trkpt lat="45.62752" lon="6.78206">
        <ele>895.9</ele>
        <time>2022-06-15T06:44:18Z</time>
      </trkpt>
      <trkpt lat="45.62752" lon="6.78209">
        <ele>896.1</ele>
        <time>2022-06-15T06:44:19Z</time>
      </trkpt>
      <trkpt lat="45.62753" lon="6.78212">
        <ele>896.3</ele>
        <time>2022-06-15T06:44:20Z</time>
      </trkpt>
      <trkpt lat="45.62754" lon="6.78215">
        <ele>896.6</ele>
        <time>2022-06-15T06:44:21Z</time>
      </trkpt>
      <trkpt lat="45.62754" lon="6.78218">
        <ele>896.7</ele>
        <time>2022-06-15T06:44:22Z</time>
      </trkpt>
      <trkpt lat="45.62755" lon="6.78221">
        <ele>897</ele>
        <time>2022-06-15T06:44:23Z</time>
      </trkpt>
      <trkpt lat="45.62755" lon="6.78224">
        <ele>897.1</ele>
        <time>2022-06-15T06:44:24Z</time>
      </trkpt>
      <trkpt lat="45.62756" lon="6.78227">
        <ele>897.2</ele>
        <time>2022-06-15T06:44:25Z</time>
      </trkpt>
      <trkpt lat="45.62756" lon="6.7823">
        <ele>897.3</ele>
        <time>2022-06-15T06:44:26Z</time>
      </trkpt>
      <trkpt lat="45.62756" lon="6.78234">
        <ele>897.2</ele>
        <time>2022-06-15T06:44:27Z</time>
      </trkpt>
      <trkpt lat="45.62756" lon="6.78237">
        <ele>897.2</ele>
        <time>2022-06-15T06:44:28Z</time>
      </trkpt>
      <trkpt lat="45.62757" lon="6.7824">
        <ele>897.2</ele>
        <time>2022-06-15T06:44:29Z</time>
      </trkpt>
      <trkpt lat="45.62757" lon="6.78243">
        <ele>897.3</ele>
        <time>2022-06-15T06:44:30Z</time>
      </trkpt>
      <trkpt lat="45.62758" lon="6.78246">
        <ele>897.4</ele>
        <time>2022-06-15T06:44:31Z</time>
      </trkpt>
      <trkpt lat="45.62758" lon="6.78249">
        <ele>897.6</ele>
        <time>2022-06-15T06:44:32Z</time>
      </trkpt>
      <trkpt lat="45.62759" lon="6.78252">
        <ele>897.7</ele>
        <time>2022-06-15T06:44:33Z</time>
      </trkpt>
      <trkpt lat="45.6276" lon="6.78255">
        <ele>897.9</ele>
        <time>2022-06-15T06:44:34Z</time>
      </trkpt>
      <trkpt lat="45.62761" lon="6.78258">
        <ele>898.1</ele>
        <time>2022-06-15T06:44:35Z</time>
      </trkpt>
      <trkpt lat="45.62761" lon="6.78261">
        <ele>898.2</ele>
        <time>2022-06-15T06:44:36Z</time>
      </trkpt>
      <trkpt lat="45.62762" lon="6.78264">
        <ele>898.3</ele>
        <time>2022-06-15T06:44:37Z</time>
      </trkpt>
      <trkpt lat="45.62762" lon="6.78267">
        <ele>898.3</ele>
        <time>2022-06-15T06:44:38Z</time>
      </trkpt>
      <trkpt lat="45.62763" lon="6.7827">
        <ele>898.4</ele>
        <time>2022-06-15T06:44:39Z</time>
      </trkpt>
      <trkpt lat="45.62763" lon="6.78273">
        <ele>898.3</ele>
        <time>2022-06-15T06:44:40Z</time>
      </trkpt>
      <trkpt lat="45.62763" lon="6.78277">
        <ele>898.3</ele>
        <time>2022-06-15T06:44:41Z</time>
      </trkpt>
      <trkpt lat="45.62764" lon="6.7828">
        <ele>898.3</ele>
        <time>2022-06-15T06:44:42Z</time>
      </trkpt>
      <trkpt lat="45.62764" lon="6.78283">
        <ele>898.3</ele>
        <time>2022-06-15T06:44:43Z</time>
      </trkpt>
      <trkpt lat="45.62765" lon="6.78286">
        <ele>898.4</ele>
        <time>2022-06-15T06:44:44Z</time>
      </trkpt>
      <trkpt lat="45.62765" lon="6.78289">
        <ele>898.4</ele>
        <time>2022-06-15T06:44:45Z</time>
      </trkpt>
      <trkpt lat="45.62765" lon="6.78292">
        <ele>898.3</ele>
        <time>2022-06-15T06:44:46Z</time>
      </trkpt>
      <trkpt lat="45.62766" lon="6.78295">
        <ele>898.2</ele>
        <time>2022-06-15T06:44:47Z</time>
      </trkpt>
      <trkpt lat="45.62766" lon="6.78297">
        <ele>898.1</ele>
        <time>2022-06-15T06:44:48Z</time>
      </trkpt>
      <trkpt lat="45.62766" lon="6.783">
        <ele>898.1</ele>
        <time>2022-06-15T06:44:49Z</time>
      </trkpt>
      <trkpt lat="45.62766" lon="6.78303">
        <ele>897.9</ele>
        <time>2022-06-15T06:44:50Z</time>
      </trkpt>
      <trkpt lat="45.62767" lon="6.78306">
        <ele>898</ele>
        <time>2022-06-15T06:44:51Z</time>
      </trkpt>
      <trkpt lat="45.62767" lon="6.7831">
        <ele>898.2</ele>
        <time>2022-06-15T06:44:52Z</time>
      </trkpt>
      <trkpt lat="45.62768" lon="6.78313">
        <ele>898.5</ele>
        <time>2022-06-15T06:44:53Z</time>
      </trkpt>
      <trkpt lat="45.62768" lon="6.78317">
        <ele>898.8</ele>
        <time>2022-06-15T06:44:54Z</time>
      </trkpt>
      <trkpt lat="45.62769" lon="6.7832">
        <ele>899</ele>
        <time>2022-06-15T06:44:55Z</time>
      </trkpt>
      <trkpt lat="45.62769" lon="6.78323">
        <ele>899.2</ele>
        <time>2022-06-15T06:44:56Z</time>
      </trkpt>
      <trkpt lat="45.62769" lon="6.78327">
        <ele>899.5</ele>
        <time>2022-06-15T06:44:57Z</time>
      </trkpt>
      <trkpt lat="45.6277" lon="6.7833">
        <ele>899.7</ele>
        <time>2022-06-15T06:44:58Z</time>
      </trkpt>
      <trkpt lat="45.6277" lon="6.78333">
        <ele>900</ele>
        <time>2022-06-15T06:44:59Z</time>
      </trkpt>
      <trkpt lat="45.62771" lon="6.78336">
        <ele>900.2</ele>
        <time>2022-06-15T06:45:00Z</time>
      </trkpt>
      <trkpt lat="45.62771" lon="6.78339">
        <ele>900.3</ele>
        <time>2022-06-15T06:45:01Z</time>
      </trkpt>
      <trkpt lat="45.62772" lon="6.78342">
        <ele>900.4</ele>
        <time>2022-06-15T06:45:02Z</time>
      </trkpt>
      <trkpt lat="45.62772" lon="6.78345">
        <ele>900.6</ele>
        <time>2022-06-15T06:45:03Z</time>
      </trkpt>
      <trkpt lat="45.62773" lon="6.78348">
        <ele>900.8</ele>
        <time>2022-06-15T06:45:04Z</time>
      </trkpt>
      <trkpt lat="45.62773" lon="6.78351">
        <ele>901</ele>
        <time>2022-06-15T06:45:05Z</time>
      </trkpt>
      <trkpt lat="45.62774" lon="6.78354">
        <ele>901.2</ele>
        <time>2022-06-15T06:45:06Z</time>
      </trkpt>
      <trkpt lat="45.62775" lon="6.78357">
        <ele>901.5</ele>
        <time>2022-06-15T06:45:07Z</time>
      </trkpt>
      <trkpt lat="45.62776" lon="6.7836">
        <ele>901.9</ele>
        <time>2022-06-15T06:45:08Z</time>
      </trkpt>
      <trkpt lat="45.62777" lon="6.78363">
        <ele>902</ele>
        <time>2022-06-15T06:45:09Z</time>
      </trkpt>
      <trkpt lat="45.62778" lon="6.78366">
        <ele>901.7</ele>
        <time>2022-06-15T06:45:10Z</time>
      </trkpt>
      <trkpt lat="45.62779" lon="6.78369">
        <ele>901.5</ele>
        <time>2022-06-15T06:45:11Z</time>
      </trkpt>
      <trkpt lat="45.6278" lon="6.78371">
        <ele>901.3</ele>
        <time>2022-06-15T06:45:12Z</time>
      </trkpt>
      <trkpt lat="45.62782" lon="6.78374">
        <ele>901.2</ele>
        <time>2022-06-15T06:45:13Z</time>
      </trkpt>
      <trkpt lat="45.62783" lon="6.78377">
        <ele>901.2</ele>
        <time>2022-06-15T06:45:14Z</time>
      </trkpt>
      <trkpt lat="45.62784" lon="6.78379">
        <ele>901.3</ele>
        <time>2022-06-15T06:45:15Z</time>
      </trkpt>
      <trkpt lat="45.62786" lon="6.78382">
        <ele>901.6</ele>
        <time>2022-06-15T06:45:16Z</time>
      </trkpt>
      <trkpt lat="45.62788" lon="6.78384">
        <ele>902.1</ele>
        <time>2022-06-15T06:45:17Z</time>
      </trkpt>
      <trkpt lat="45.62789" lon="6.78386">
        <ele>902.6</ele>
        <time>2022-06-15T06:45:18Z</time>
      </trkpt>
      <trkpt lat="45.62791" lon="6.78388">
        <ele>903.3</ele>
        <time>2022-06-15T06:45:19Z</time>
      </trkpt>
      <trkpt lat="45.62793" lon="6.7839">
        <ele>904.1</ele>
        <time>2022-06-15T06:45:20Z</time>
      </trkpt>
      <trkpt lat="45.62795" lon="6.78392">
        <ele>904.7</ele>
        <time>2022-06-15T06:45:21Z</time>
      </trkpt>
      <trkpt lat="45.62797" lon="6.78394">
        <ele>905</ele>
        <time>2022-06-15T06:45:22Z</time>
      </trkpt>
      <trkpt lat="45.62799" lon="6.78396">
        <ele>905.4</ele>
        <time>2022-06-15T06:45:23Z</time>
      </trkpt>
      <trkpt lat="45.62801" lon="6.78398">
        <ele>905.9</ele>
        <time>2022-06-15T06:45:24Z</time>
      </trkpt>
      <trkpt lat="45.62803" lon="6.784">
        <ele>906.4</ele>
        <time>2022-06-15T06:45:25Z</time>
      </trkpt>
      <trkpt lat="45.62805" lon="6.78402">
        <ele>907</ele>
        <time>2022-06-15T06:45:26Z</time>
      </trkpt>
      <trkpt lat="45.62807" lon="6.78404">
        <ele>907.2</ele>
        <time>2022-06-15T06:45:27Z</time>
      </trkpt>
      <trkpt lat="45.62809" lon="6.78406">
        <ele>907.2</ele>
        <time>2022-06-15T06:45:28Z</time>
      </trkpt>
      <trkpt lat="45.62811" lon="6.78409">
        <ele>907.3</ele>
        <time>2022-06-15T06:45:29Z</time>
      </trkpt>
      <trkpt lat="45.62813" lon="6.78411">
        <ele>907.4</ele>
        <time>2022-06-15T06:45:30Z</time>
      </trkpt>
      <trkpt lat="45.62814" lon="6.78413">
        <ele>907.4</ele>
        <time>2022-06-15T06:45:31Z</time>
      </trkpt>
      <trkpt lat="45.62816" lon="6.78416">
        <ele>907.4</ele>
        <time>2022-06-15T06:45:32Z</time>
      </trkpt>
      <trkpt lat="45.62818" lon="6.78419">
        <ele>907.6</ele>
        <time>2022-06-15T06:45:33Z</time>
      </trkpt>
      <trkpt lat="45.6282" lon="6.78421">
        <ele>907.8</ele>
        <time>2022-06-15T06:45:34Z</time>
      </trkpt>
      <trkpt lat="45.62821" lon="6.78424">
        <ele>908</ele>
        <time>2022-06-15T06:45:35Z</time>
      </trkpt>
      <trkpt lat="45.62823" lon="6.78427">
        <ele>908.2</ele>
        <time>2022-06-15T06:45:36Z</time>
      </trkpt>
      <trkpt lat="45.62824" lon="6.7843">
        <ele>908.3</ele>
        <time>2022-06-15T06:45:37Z</time>
      </trkpt>
      <trkpt lat="45.62825" lon="6.78432">
        <ele>908.4</ele>
        <time>2022-06-15T06:45:38Z</time>
      </trkpt>
      <trkpt lat="45.62827" lon="6.78435">
        <ele>908.5</ele>
        <time>2022-06-15T06:45:39Z</time>
      </trkpt>
      <trkpt lat="45.62828" lon="6.78438">
        <ele>908.5</ele>
        <time>2022-06-15T06:45:40Z</time>
      </trkpt>
      <trkpt lat="45.62829" lon="6.78441">
        <ele>908.7</ele>
        <time>2022-06-15T06:45:41Z</time>
      </trkpt>
      <trkpt lat="45.6283" lon="6.78443">
        <ele>908.9</ele>
        <time>2022-06-15T06:45:42Z</time>
      </trkpt>
      <trkpt lat="45.62832" lon="6.78446">
        <ele>909</ele>
        <time>2022-06-15T06:45:43Z</time>
      </trkpt>
      <trkpt lat="45.62833" lon="6.78449">
        <ele>909.1</ele>
        <time>2022-06-15T06:45:44Z</time>
      </trkpt>
      <trkpt lat="45.62834" lon="6.78452">
        <ele>909.1</ele>
        <time>2022-06-15T06:45:45Z</time>
      </trkpt>
      <trkpt lat="45.62836" lon="6.78455">
        <ele>909.1</ele>
        <time>2022-06-15T06:45:46Z</time>
      </trkpt>
      <trkpt lat="45.62837" lon="6.78457">
        <ele>909.2</ele>
        <time>2022-06-15T06:45:47Z</time>
      </trkpt>
      <trkpt lat="45.62838" lon="6.7846">
        <ele>909.2</ele>
        <time>2022-06-15T06:45:48Z</time>
      </trkpt>
      <trkpt lat="45.6284" lon="6.78463">
        <ele>909.3</ele>
        <time>2022-06-15T06:45:49Z</time>
      </trkpt>
      <trkpt lat="45.62842" lon="6.78465">
        <ele>909.6</ele>
        <time>2022-06-15T06:45:50Z</time>
      </trkpt>
      <trkpt lat="45.62843" lon="6.78468">
        <ele>909.6</ele>
        <time>2022-06-15T06:45:51Z</time>
      </trkpt>
      <trkpt lat="45.62844" lon="6.7847">
        <ele>909.7</ele>
        <time>2022-06-15T06:45:52Z</time>
      </trkpt>
      <trkpt lat="45.62846" lon="6.78473">
        <ele>909.8</ele>
        <time>2022-06-15T06:45:53Z</time>
      </trkpt>
      <trkpt lat="45.62847" lon="6.78475">
        <ele>909.9</ele>
        <time>2022-06-15T06:45:54Z</time>
      </trkpt>
      <trkpt lat="45.62849" lon="6.78477">
        <ele>910.1</ele>
        <time>2022-06-15T06:45:55Z</time>
      </trkpt>
      <trkpt lat="45.62851" lon="6.78479">
        <ele>910.3</ele>
        <time>2022-06-15T06:45:56Z</time>
      </trkpt>
      <trkpt lat="45.62853" lon="6.78482">
        <ele>910.5</ele>
        <time>2022-06-15T06:45:57Z</time>
      </trkpt>
      <trkpt lat="45.62854" lon="6.78484">
        <ele>910.5</ele>
        <time>2022-06-15T06:45:58Z</time>
      </trkpt>
      <trkpt lat="45.62856" lon="6.78486">
        <ele>910.7</ele>
        <time>2022-06-15T06:45:59Z</time>
      </trkpt>
      <trkpt lat="45.62858" lon="6.78488">
        <ele>910.8</ele>
        <time>2022-06-15T06:46:00Z</time>
      </trkpt>
      <trkpt lat="45.6286" lon="6.78491">
        <ele>910.9</ele>
        <time>2022-06-15T06:46:01Z</time>
      </trkpt>
      <trkpt lat="45.62862" lon="6.78493">
        <ele>911.2</ele>
        <time>2022-06-15T06:46:02Z</time>
      </trkpt>
      <trkpt lat="45.62864" lon="6.78495">
        <ele>911.6</ele>
        <time>2022-06-15T06:46:03Z</time>
      </trkpt>
      <trkpt lat="45.62866" lon="6.78497">
        <ele>911.9</ele>
        <time>2022-06-15T06:46:04Z</time>
      </trkpt>
      <trkpt lat="45.62868" lon="6.78499">
        <ele>912</ele>
        <time>2022-06-15T06:46:05Z</time>
      </trkpt>
      <trkpt lat="45.6287" lon="6.78501">
        <ele>912.2</ele>
        <time>2022-06-15T06:46:06Z</time>
      </trkpt>
      <trkpt lat="45.62872" lon="6.78503">
        <ele>912.5</ele>
        <time>2022-06-15T06:46:07Z</time>
      </trkpt>
      <trkpt lat="45.62874" lon="6.78505">
        <ele>913</ele>
        <time>2022-06-15T06:46:08Z</time>
      </trkpt>
      <trkpt lat="45.62876" lon="6.78507">
        <ele>913.3</ele>
        <time>2022-06-15T06:46:09Z</time>
      </trkpt>
      <trkpt lat="45.62878" lon="6.78509">
        <ele>913.4</ele>
        <time>2022-06-15T06:46:10Z</time>
      </trkpt>
      <trkpt lat="45.62879" lon="6.78511">
        <ele>913.6</ele>
        <time>2022-06-15T06:46:11Z</time>
      </trkpt>
      <trkpt lat="45.62881" lon="6.78513">
        <ele>913.7</ele>
        <time>2022-06-15T06:46:12Z</time>
      </trkpt>
      <trkpt lat="45.62883" lon="6.78515">
        <ele>913.7</ele>
        <time>2022-06-15T06:46:13Z</time>
      </trkpt>
      <trkpt lat="45.62885" lon="6.78517">
        <ele>913.9</ele>
        <time>2022-06-15T06:46:14Z</time>
      </trkpt>
      <trkpt lat="45.62887" lon="6.78519">
        <ele>914</ele>
        <time>2022-06-15T06:46:15Z</time>
      </trkpt>
      <trkpt lat="45.62889" lon="6.78521">
        <ele>913.9</ele>
        <time>2022-06-15T06:46:16Z</time>
      </trkpt>
      <trkpt lat="45.62891" lon="6.78523">
        <ele>913.7</ele>
        <time>2022-06-15T06:46:17Z</time>
      </trkpt>
      <trkpt lat="45.62893" lon="6.78525">
        <ele>913.6</ele>
        <time>2022-06-15T06:46:18Z</time>
      </trkpt>
      <trkpt lat="45.62895" lon="6.78527">
        <ele>913.5</ele>
        <time>2022-06-15T06:46:19Z</time>
      </trkpt>
      <trkpt lat="45.62897" lon="6.78529">
        <ele>913.6</ele>
        <time>2022-06-15T06:46:20Z</time>
      </trkpt>
      <trkpt lat="45.62899" lon="6.7853">
        <ele>913.7</ele>
        <time>2022-06-15T06:46:21Z</time>
      </trkpt>
      <trkpt lat="45.62901" lon="6.78531">
        <ele>914</ele>
        <time>2022-06-15T06:46:22Z</time>
      </trkpt>
      <trkpt lat="45.62904" lon="6.78533">
        <ele>914.2</ele>
        <time>2022-06-15T06:46:23Z</time>
      </trkpt>
      <trkpt lat="45.62906" lon="6.78534">
        <ele>914.4</ele>
        <time>2022-06-15T06:46:24Z</time>
      </trkpt>
      <trkpt lat="45.62909" lon="6.78535">
        <ele>914.8</ele>
        <time>2022-06-15T06:46:25Z</time>
      </trkpt>
      <trkpt lat="45.62911" lon="6.78535">
        <ele>915.2</ele>
        <time>2022-06-15T06:46:26Z</time>
      </trkpt>
      <trkpt lat="45.62913" lon="6.78536">
        <ele>915.4</ele>
        <time>2022-06-15T06:46:27Z</time>
      </trkpt>
      <trkpt lat="45.62916" lon="6.78537">
        <ele>915.9</ele>
        <time>2022-06-15T06:46:28Z</time>
      </trkpt>
      <trkpt lat="45.62918" lon="6.78537">
        <ele>916.2</ele>
        <time>2022-06-15T06:46:29Z</time>
      </trkpt>
      <trkpt lat="45.62921" lon="6.78538">
        <ele>916.3</ele>
        <time>2022-06-15T06:46:30Z</time>
      </trkpt>
      <trkpt lat="45.62923" lon="6.78538">
        <ele>916.5</ele>
        <time>2022-06-15T06:46:31Z</time>
      </trkpt>
      <trkpt lat="45.62925" lon="6.78539">
        <ele>916.6</ele>
        <time>2022-06-15T06:46:32Z</time>
      </trkpt>
      <trkpt lat="45.62928" lon="6.78539">
        <ele>916.8</ele>
        <time>2022-06-15T06:46:33Z</time>
      </trkpt>
      <trkpt lat="45.6293" lon="6.78539">
        <ele>917</ele>
        <time>2022-06-15T06:46:34Z</time>
      </trkpt>
      <trkpt lat="45.62933" lon="6.7854">
        <ele>917.1</ele>
        <time>2022-06-15T06:46:35Z</time>
      </trkpt>
      <trkpt lat="45.62935" lon="6.7854">
        <ele>917.3</ele>
        <time>2022-06-15T06:46:36Z</time>
      </trkpt>
      <trkpt lat="45.62937" lon="6.78541">
        <ele>917.5</ele>
        <time>2022-06-15T06:46:37Z</time>
      </trkpt>
      <trkpt lat="45.6294" lon="6.78541">
        <ele>917.7</ele>
        <time>2022-06-15T06:46:38Z</time>
      </trkpt>
      <trkpt lat="45.62942" lon="6.78541">
        <ele>917.9</ele>
        <time>2022-06-15T06:46:39Z</time>
      </trkpt>
      <trkpt lat="45.62944" lon="6.78542">
        <ele>918</ele>
        <time>2022-06-15T06:46:40Z</time>
      </trkpt>
      <trkpt lat="45.62947" lon="6.78542">
        <ele>918.2</ele>
        <time>2022-06-15T06:46:41Z</time>
      </trkpt>
      <trkpt lat="45.62949" lon="6.78543">
        <ele>918.5</ele>
        <time>2022-06-15T06:46:42Z</time>
      </trkpt>
      <trkpt lat="45.62951" lon="6.78544">
        <ele>918.5</ele>
        <time>2022-06-15T06:46:43Z</time>
      </trkpt>
      <trkpt lat="45.62954" lon="6.78545">
        <ele>918.6</ele>
        <time>2022-06-15T06:46:44Z</time>
      </trkpt>
      <trkpt lat="45.62956" lon="6.78546">
        <ele>918.7</ele>
        <time>2022-06-15T06:46:45Z</time>
      </trkpt>
      <trkpt lat="45.62958" lon="6.78547">
        <ele>918.9</ele>
        <time>2022-06-15T06:46:46Z</time>
      </trkpt>
      <trkpt lat="45.6296" lon="6.78548">
        <ele>918.9</ele>
        <time>2022-06-15T06:46:47Z</time>
      </trkpt>
      <trkpt lat="45.62963" lon="6.78549">
        <ele>919</ele>
        <time>2022-06-15T06:46:48Z</time>
      </trkpt>
      <trkpt lat="45.62965" lon="6.78551">
        <ele>919</ele>
        <time>2022-06-15T06:46:49Z</time>
      </trkpt>
      <trkpt lat="45.62967" lon="6.78552">
        <ele>919.1</ele>
        <time>2022-06-15T06:46:50Z</time>
      </trkpt>
      <trkpt lat="45.62969" lon="6.78553">
        <ele>919.1</ele>
        <time>2022-06-15T06:46:51Z</time>
      </trkpt>
      <trkpt lat="45.62971" lon="6.78554">
        <ele>919.1</ele>
        <time>2022-06-15T06:46:52Z</time>
      </trkpt>
      <trkpt lat="45.62973" lon="6.78555">
        <ele>919.2</ele>
        <time>2022-06-15T06:46:53Z</time>
      </trkpt>
      <trkpt lat="45.62975" lon="6.78557">
        <ele>919.2</ele>
        <time>2022-06-15T06:46:54Z</time>
      </trkpt>
      <trkpt lat="45.62977" lon="6.78558">
        <ele>919.2</ele>
        <time>2022-06-15T06:46:55Z</time>
      </trkpt>
      <trkpt lat="45.62979" lon="6.7856">
        <ele>919.3</ele>
        <time>2022-06-15T06:46:56Z</time>
      </trkpt>
      <trkpt lat="45.62981" lon="6.78561">
        <ele>919.3</ele>
        <time>2022-06-15T06:46:57Z</time>
      </trkpt>
      <trkpt lat="45.62983" lon="6.78562">
        <ele>919.4</ele>
        <time>2022-06-15T06:46:58Z</time>
      </trkpt>
      <trkpt lat="45.62985" lon="6.78563">
        <ele>919.5</ele>
        <time>2022-06-15T06:46:59Z</time>
      </trkpt>
      <trkpt lat="45.62987" lon="6.78565">
        <ele>919.6</ele>
        <time>2022-06-15T06:47:00Z</time>
      </trkpt>
      <trkpt lat="45.6299" lon="6.78566">
        <ele>919.7</ele>
        <time>2022-06-15T06:47:01Z</time>
      </trkpt>
      <trkpt lat="45.62992" lon="6.78566">
        <ele>919.9</ele>
        <time>2022-06-15T06:47:02Z</time>
      </trkpt>
      <trkpt lat="45.62994" lon="6.78566">
        <ele>920.2</ele>
        <time>2022-06-15T06:47:03Z</time>
      </trkpt>
      <trkpt lat="45.62997" lon="6.78566">
        <ele>920.7</ele>
        <time>2022-06-15T06:47:04Z</time>
      </trkpt>
      <trkpt lat="45.62999" lon="6.78564">
        <ele>921.3</ele>
        <time>2022-06-15T06:47:05Z</time>
      </trkpt>
      <trkpt lat="45.63001" lon="6.78563">
        <ele>921.8</ele>
        <time>2022-06-15T06:47:06Z</time>
      </trkpt>
      <trkpt lat="45.63002" lon="6.7856">
        <ele>922.3</ele>
        <time>2022-06-15T06:47:07Z</time>
      </trkpt>
      <trkpt lat="45.63003" lon="6.78557">
        <ele>923</ele>
        <time>2022-06-15T06:47:08Z</time>
      </trkpt>
      <trkpt lat="45.63003" lon="6.78554">
        <ele>923.7</ele>
        <time>2022-06-15T06:47:09Z</time>
      </trkpt>
      <trkpt lat="45.63003" lon="6.7855">
        <ele>924.6</ele>
        <time>2022-06-15T06:47:10Z</time>
      </trkpt>
      <trkpt lat="45.63002" lon="6.78547">
        <ele>925.3</ele>
        <time>2022-06-15T06:47:11Z</time>
      </trkpt>
      <trkpt lat="45.63001" lon="6.78545">
        <ele>925.8</ele>
        <time>2022-06-15T06:47:12Z</time>
      </trkpt>
      <trkpt lat="45.62998" lon="6.78542">
        <ele>926.1</ele>
        <time>2022-06-15T06:47:13Z</time>
      </trkpt>
      <trkpt lat="45.62996" lon="6.78541">
        <ele>926.2</ele>
        <time>2022-06-15T06:47:14Z</time>
      </trkpt>
      <trkpt lat="45.62994" lon="6.78539">
        <ele>926.2</ele>
        <time>2022-06-15T06:47:15Z</time>
      </trkpt>
      <trkpt lat="45.62992" lon="6.78537">
        <ele>926.2</ele>
        <time>2022-06-15T06:47:16Z</time>
      </trkpt>
      <trkpt lat="45.62989" lon="6.78536">
        <ele>926.1</ele>
        <time>2022-06-15T06:47:17Z</time>
      </trkpt>
      <trkpt lat="45.62987" lon="6.78535">
        <ele>926.1</ele>
        <time>2022-06-15T06:47:18Z</time>
      </trkpt>
      <trkpt lat="45.62985" lon="6.78534">
        <ele>925.9</ele>
        <time>2022-06-15T06:47:19Z</time>
      </trkpt>
      <trkpt lat="45.62982" lon="6.78533">
        <ele>925.7</ele>
        <time>2022-06-15T06:47:20Z</time>
      </trkpt>
      <trkpt lat="45.6298" lon="6.78531">
        <ele>925.6</ele>
        <time>2022-06-15T06:47:21Z</time>
      </trkpt>
      <trkpt lat="45.62978" lon="6.7853">
        <ele>925.6</ele>
        <time>2022-06-15T06:47:22Z</time>
      </trkpt>
      <trkpt lat="45.62975" lon="6.78528">
        <ele>925.4</ele>
        <time>2022-06-15T06:47:23Z</time>
      </trkpt>
      <trkpt lat="45.62973" lon="6.78527">
        <ele>925.5</ele>
        <time>2022-06-15T06:47:24Z</time>
      </trkpt>
      <trkpt lat="45.62971" lon="6.78525">
        <ele>925.6</ele>
        <time>2022-06-15T06:47:25Z</time>
      </trkpt>
      <trkpt lat="45.62968" lon="6.78524">
        <ele>925.7</ele>
        <time>2022-06-15T06:47:26Z</time>
      </trkpt>
      <trkpt lat="45.62966" lon="6.78523">
        <ele>925.7</ele>
        <time>2022-06-15T06:47:27Z</time>
      </trkpt>
      <trkpt lat="45.62964" lon="6.78522">
        <ele>925.8</ele>
        <time>2022-06-15T06:47:28Z</time>
      </trkpt>
      <trkpt lat="45.62962" lon="6.78521">
        <ele>925.8</ele>
        <time>2022-06-15T06:47:29Z</time>
      </trkpt>
      <trkpt lat="45.62959" lon="6.7852">
        <ele>925.8</ele>
        <time>2022-06-15T06:47:30Z</time>
      </trkpt>
      <trkpt lat="45.62957" lon="6.78519">
        <ele>925.8</ele>
        <time>2022-06-15T06:47:31Z</time>
      </trkpt>
      <trkpt lat="45.62955" lon="6.78518">
        <ele>925.9</ele>
        <time>2022-06-15T06:47:32Z</time>
      </trkpt>
      <trkpt lat="45.62953" lon="6.78516">
        <ele>926.2</ele>
        <time>2022-06-15T06:47:33Z</time>
      </trkpt>
      <trkpt lat="45.6295" lon="6.78514">
        <ele>926.3</ele>
        <time>2022-06-15T06:47:34Z</time>
      </trkpt>
      <trkpt lat="45.62948" lon="6.78513">
        <ele>926.5</ele>
        <time>2022-06-15T06:47:35Z</time>
      </trkpt>
      <trkpt lat="45.62946" lon="6.78511">
        <ele>926.8</ele>
        <time>2022-06-15T06:47:36Z</time>
      </trkpt>
      <trkpt lat="45.62944" lon="6.78509">
        <ele>927.2</ele>
        <time>2022-06-15T06:47:37Z</time>
      </trkpt>
      <trkpt lat="45.62941" lon="6.78507">
        <ele>927.5</ele>
        <time>2022-06-15T06:47:38Z</time>
      </trkpt>
      <trkpt lat="45.62939" lon="6.78505">
        <ele>927.7</ele>
        <time>2022-06-15T06:47:39Z</time>
      </trkpt>
      <trkpt lat="45.62937" lon="6.78504">
        <ele>927.9</ele>
        <time>2022-06-15T06:47:40Z</time>
      </trkpt>
      <trkpt lat="45.62934" lon="6.78502">
        <ele>928.1</ele>
        <time>2022-06-15T06:47:41Z</time>
      </trkpt>
      <trkpt lat="45.62932" lon="6.78501">
        <ele>928.4</ele>
        <time>2022-06-15T06:47:42Z</time>
      </trkpt>
      <trkpt lat="45.6293" lon="6.78499">
        <ele>928.6</ele>
        <time>2022-06-15T06:47:43Z</time>
      </trkpt>
      <trkpt lat="45.62927" lon="6.78498">
        <ele>928.7</ele>
        <time>2022-06-15T06:47:44Z</time>
      </trkpt>
      <trkpt lat="45.62925" lon="6.78496">
        <ele>928.9</ele>
        <time>2022-06-15T06:47:45Z</time>
      </trkpt>
      <trkpt lat="45.62923" lon="6.78495">
        <ele>929.2</ele>
        <time>2022-06-15T06:47:46Z</time>
      </trkpt>
      <trkpt lat="45.62921" lon="6.78493">
        <ele>929.4</ele>
        <time>2022-06-15T06:47:47Z</time>
      </trkpt>
      <trkpt lat="45.62919" lon="6.78492">
        <ele>929.6</ele>
        <time>2022-06-15T06:47:48Z</time>
      </trkpt>
      <trkpt lat="45.62916" lon="6.7849">
        <ele>929.8</ele>
        <time>2022-06-15T06:47:49Z</time>
      </trkpt>
      <trkpt lat="45.62914" lon="6.78489">
        <ele>929.6</ele>
        <time>2022-06-15T06:47:50Z</time>
      </trkpt>
      <trkpt lat="45.62912" lon="6.78487">
        <ele>929.6</ele>
        <time>2022-06-15T06:47:51Z</time>
      </trkpt>
      <trkpt lat="45.6291" lon="6.78485">
        <ele>929.5</ele>
        <time>2022-06-15T06:47:52Z</time>
      </trkpt>
      <trkpt lat="45.62908" lon="6.78483">
        <ele>929.7</ele>
        <time>2022-06-15T06:47:53Z</time>
      </trkpt>
      <trkpt lat="45.62906" lon="6.78481">
        <ele>929.7</ele>
        <time>2022-06-15T06:47:54Z</time>
      </trkpt>
      <trkpt lat="45.62903" lon="6.78479">
        <ele>929.8</ele>
        <time>2022-06-15T06:47:55Z</time>
      </trkpt>
      <trkpt lat="45.62902" lon="6.78476">
        <ele>930.1</ele>
        <time>2022-06-15T06:47:56Z</time>
      </trkpt>
      <trkpt lat="45.629" lon="6.78473">
        <ele>930.5</ele>
        <time>2022-06-15T06:47:57Z</time>
      </trkpt>
      <trkpt lat="45.62898" lon="6.78471">
        <ele>930.4</ele>
        <time>2022-06-15T06:47:58Z</time>
      </trkpt>
      <trkpt lat="45.62896" lon="6.78468">
        <ele>930.3</ele>
        <time>2022-06-15T06:47:59Z</time>
      </trkpt>
      <trkpt lat="45.62894" lon="6.78465">
        <ele>930.3</ele>
        <time>2022-06-15T06:48:00Z</time>
      </trkpt>
      <trkpt lat="45.62893" lon="6.78462">
        <ele>930.3</ele>
        <time>2022-06-15T06:48:01Z</time>
      </trkpt>
      <trkpt lat="45.62891" lon="6.78459">
        <ele>930.4</ele>
        <time>2022-06-15T06:48:02Z</time>
      </trkpt>
      <trkpt lat="45.6289" lon="6.78456">
        <ele>930.6</ele>
        <time>2022-06-15T06:48:03Z</time>
      </trkpt>
      <trkpt lat="45.62889" lon="6.78453">
        <ele>930.8</ele>
        <time>2022-06-15T06:48:04Z</time>
      </trkpt>
      <trkpt lat="45.62888" lon="6.7845">
        <ele>930.9</ele>
        <time>2022-06-15T06:48:05Z</time>
      </trkpt>
      <trkpt lat="45.62887" lon="6.78447">
        <ele>931</ele>
        <time>2022-06-15T06:48:06Z</time>
      </trkpt>
      <trkpt lat="45.62887" lon="6.78444">
        <ele>931.2</ele>
        <time>2022-06-15T06:48:07Z</time>
      </trkpt>
      <trkpt lat="45.62886" lon="6.78441">
        <ele>931.2</ele>
        <time>2022-06-15T06:48:08Z</time>
      </trkpt>
      <trkpt lat="45.62885" lon="6.78437">
        <ele>931.4</ele>
        <time>2022-06-15T06:48:09Z</time>
      </trkpt>
      <trkpt lat="45.62885" lon="6.78434">
        <ele>931.6</ele>
        <time>2022-06-15T06:48:10Z</time>
      </trkpt>
      <trkpt lat="45.62884" lon="6.78431">
        <ele>931.8</ele>
        <time>2022-06-15T06:48:11Z</time>
      </trkpt>
      <trkpt lat="45.62884" lon="6.78427">
        <ele>932</ele>
        <time>2022-06-15T06:48:12Z</time>
      </trkpt>
      <trkpt lat="45.62883" lon="6.78424">
        <ele>932.1</ele>
        <time>2022-06-15T06:48:13Z</time>
      </trkpt>
      <trkpt lat="45.62883" lon="6.78421">
        <ele>932.4</ele>
        <time>2022-06-15T06:48:14Z</time>
      </trkpt>
      <trkpt lat="45.62882" lon="6.78417">
        <ele>932.5</ele>
        <time>2022-06-15T06:48:15Z</time>
      </trkpt>
      <trkpt lat="45.62882" lon="6.78414">
        <ele>932.6</ele>
        <time>2022-06-15T06:48:16Z</time>
      </trkpt>
      <trkpt lat="45.62881" lon="6.7841">
        <ele>932.7</ele>
        <time>2022-06-15T06:48:17Z</time>
      </trkpt>
      <trkpt lat="45.62881" lon="6.78407">
        <ele>932.8</ele>
        <time>2022-06-15T06:48:18Z</time>
      </trkpt>
      <trkpt lat="45.62881" lon="6.78403">
        <ele>933.1</ele>
        <time>2022-06-15T06:48:19Z</time>
      </trkpt>
      <trkpt lat="45.62881" lon="6.784">
        <ele>933.2</ele>
        <time>2022-06-15T06:48:20Z</time>
      </trkpt>
      <trkpt lat="45.62881" lon="6.78396">
        <ele>933.4</ele>
        <time>2022-06-15T06:48:21Z</time>
      </trkpt>
      <trkpt lat="45.6288" lon="6.78393">
        <ele>933.4</ele>
        <time>2022-06-15T06:48:22Z</time>
      </trkpt>
      <trkpt lat="45.62879" lon="6.7839">
        <ele>933.5</ele>
        <time>2022-06-15T06:48:23Z</time>
      </trkpt>
      <trkpt lat="45.62879" lon="6.78387">
        <ele>933.7</ele>
        <time>2022-06-15T06:48:24Z</time>
      </trkpt>
      <trkpt lat="45.62878" lon="6.78383">
        <ele>934</ele>
        <time>2022-06-15T06:48:25Z</time>
      </trkpt>
      <trkpt lat="45.62878" lon="6.7838">
        <ele>934.3</ele>
        <time>2022-06-15T06:48:26Z</time>
      </trkpt>
      <trkpt lat="45.62877" lon="6.78377">
        <ele>934.6</ele>
        <time>2022-06-15T06:48:27Z</time>
      </trkpt>
      <trkpt lat="45.62877" lon="6.78373">
        <ele>935</ele>
        <time>2022-06-15T06:48:28Z</time>
      </trkpt>
      <trkpt lat="45.62876" lon="6.7837">
        <ele>935.3</ele>
        <time>2022-06-15T06:48:29Z</time>
      </trkpt>
      <trkpt lat="45.62876" lon="6.78367">
        <ele>935.7</ele>
        <time>2022-06-15T06:48:30Z</time>
      </trkpt>
      <trkpt lat="45.62876" lon="6.78364">
        <ele>936.1</ele>
        <time>2022-06-15T06:48:31Z</time>
      </trkpt>
      <trkpt lat="45.62876" lon="6.78361">
        <ele>936.5</ele>
        <time>2022-06-15T06:48:32Z</time>
      </trkpt>
      <trkpt lat="45.62876" lon="6.78358">
        <ele>936.6</ele>
        <time>2022-06-15T06:48:33Z</time>
      </trkpt>
      <trkpt lat="45.62876" lon="6.78354">
        <ele>936.6</ele>
        <time>2022-06-15T06:48:34Z</time>
      </trkpt>
      <trkpt lat="45.62875" lon="6.78351">
        <ele>936.7</ele>
        <time>2022-06-15T06:48:35Z</time>
      </trkpt>
      <trkpt lat="45.62875" lon="6.78348">
        <ele>936.8</ele>
        <time>2022-06-15T06:48:36Z</time>
      </trkpt>
      <trkpt lat="45.62875" lon="6.78344">
        <ele>936.8</ele>
        <time>2022-06-15T06:48:37Z</time>
      </trkpt>
      <trkpt lat="45.62876" lon="6.78341">
        <ele>936.9</ele>
        <time>2022-06-15T06:48:38Z</time>
      </trkpt>
      <trkpt lat="45.62876" lon="6.78338">
        <ele>936.9</ele>
        <time>2022-06-15T06:48:39Z</time>
      </trkpt>
      <trkpt lat="45.62877" lon="6.78335">
        <ele>937</ele>
        <time>2022-06-15T06:48:40Z</time>
      </trkpt>
      <trkpt lat="45.62878" lon="6.78332">
        <ele>937.1</ele>
        <time>2022-06-15T06:48:41Z</time>
      </trkpt>
      <trkpt lat="45.62878" lon="6.78329">
        <ele>937.2</ele>
        <time>2022-06-15T06:48:42Z</time>
      </trkpt>
      <trkpt lat="45.62879" lon="6.78326">
        <ele>937.3</ele>
        <time>2022-06-15T06:48:43Z</time>
      </trkpt>
      <trkpt lat="45.62881" lon="6.78324">
        <ele>937.5</ele>
        <time>2022-06-15T06:48:44Z</time>
      </trkpt>
      <trkpt lat="45.62882" lon="6.78321">
        <ele>937.7</ele>
        <time>2022-06-15T06:48:45Z</time>
      </trkpt>
      <trkpt lat="45.62884" lon="6.78319">
        <ele>937.9</ele>
        <time>2022-06-15T06:48:46Z</time>
      </trkpt>
      <trkpt lat="45.62885" lon="6.78316">
        <ele>938.1</ele>
        <time>2022-06-15T06:48:47Z</time>
      </trkpt>
      <trkpt lat="45.62887" lon="6.78314">
        <ele>938.3</ele>
        <time>2022-06-15T06:48:48Z</time>
      </trkpt>
      <trkpt lat="45.62889" lon="6.78313">
        <ele>938.5</ele>
        <time>2022-06-15T06:48:49Z</time>
      </trkpt>
      <trkpt lat="45.62891" lon="6.78311">
        <ele>938.8</ele>
        <time>2022-06-15T06:48:50Z</time>
      </trkpt>
      <trkpt lat="45.62894" lon="6.78309">
        <ele>939.1</ele>
        <time>2022-06-15T06:48:51Z</time>
      </trkpt>
      <trkpt lat="45.62896" lon="6.78307">
        <ele>939.4</ele>
        <time>2022-06-15T06:48:52Z</time>
      </trkpt>
      <trkpt lat="45.62898" lon="6.78305">
        <ele>939.6</ele>
        <time>2022-06-15T06:48:53Z</time>
      </trkpt>
      <trkpt lat="45.62899" lon="6.78304">
        <ele>939.9</ele>
        <time>2022-06-15T06:48:54Z</time>
      </trkpt>
      <trkpt lat="45.62901" lon="6.78302">
        <ele>940.1</ele>
        <time>2022-06-15T06:48:55Z</time>
      </trkpt>
      <trkpt lat="45.62904" lon="6.78301">
        <ele>940.5</ele>
        <time>2022-06-15T06:48:56Z</time>
      </trkpt>
      <trkpt lat="45.62906" lon="6.783">
        <ele>940.8</ele>
        <time>2022-06-15T06:48:57Z</time>
      </trkpt>
      <trkpt lat="45.62908" lon="6.783">
        <ele>941.1</ele>
        <time>2022-06-15T06:48:58Z</time>
      </trkpt>
      <trkpt lat="45.6291" lon="6.783">
        <ele>941.4</ele>
        <time>2022-06-15T06:48:59Z</time>
      </trkpt>
      <trkpt lat="45.62911" lon="6.783">
        <ele>941.5</ele>
        <time>2022-06-15T06:49:00Z</time>
      </trkpt>
      <trkpt lat="45.62913" lon="6.78301">
        <ele>941.7</ele>
        <time>2022-06-15T06:49:01Z</time>
      </trkpt>
      <trkpt lat="45.62915" lon="6.78301">
        <ele>941.8</ele>
        <time>2022-06-15T06:49:02Z</time>
      </trkpt>
      <trkpt lat="45.62917" lon="6.78302">
        <ele>941.9</ele>
        <time>2022-06-15T06:49:03Z</time>
      </trkpt>
      <trkpt lat="45.6292" lon="6.78303">
        <ele>942.3</ele>
        <time>2022-06-15T06:49:04Z</time>
      </trkpt>
      <trkpt lat="45.62922" lon="6.78304">
        <ele>942.6</ele>
        <time>2022-06-15T06:49:05Z</time>
      </trkpt>
      <trkpt lat="45.62924" lon="6.78306">
        <ele>942.7</ele>
        <time>2022-06-15T06:49:06Z</time>
      </trkpt>
      <trkpt lat="45.62925" lon="6.78308">
        <ele>943</ele>
        <time>2022-06-15T06:49:07Z</time>
      </trkpt>
      <trkpt lat="45.62927" lon="6.7831">
        <ele>943.2</ele>
        <time>2022-06-15T06:49:08Z</time>
      </trkpt>
      <trkpt lat="45.62929" lon="6.78312">
        <ele>943.4</ele>
        <time>2022-06-15T06:49:09Z</time>
      </trkpt>
      <trkpt lat="45.62931" lon="6.78313">
        <ele>943.7</ele>
        <time>2022-06-15T06:49:10Z</time>
      </trkpt>
      <trkpt lat="45.62933" lon="6.78315">
        <ele>943.9</ele>
        <time>2022-06-15T06:49:11Z</time>
      </trkpt>
      <trkpt lat="45.62935" lon="6.78317">
        <ele>944.2</ele>
        <time>2022-06-15T06:49:12Z</time>
      </trkpt>
      <trkpt lat="45.62937" lon="6.78318">
        <ele>944.5</ele>
        <time>2022-06-15T06:49:13Z</time>
      </trkpt>
      <trkpt lat="45.62938" lon="6.7832">
        <ele>944.7</ele>
        <time>2022-06-15T06:49:14Z</time>
      </trkpt>
      <trkpt lat="45.6294" lon="6.78321">
        <ele>944.9</ele>
        <time>2022-06-15T06:49:15Z</time>
      </trkpt>
      <trkpt lat="45.62942" lon="6.78323">
        <ele>945.1</ele>
        <time>2022-06-15T06:49:16Z</time>
      </trkpt>
      <trkpt lat="45.62944" lon="6.78324">
        <ele>945.3</ele>
        <time>2022-06-15T06:49:17Z</time>
      </trkpt>
      <trkpt lat="45.62946" lon="6.78326">
        <ele>945.4</ele>
        <time>2022-06-15T06:49:18Z</time>
      </trkpt>
      <trkpt lat="45.62948" lon="6.78328">
        <ele>945.7</ele>
        <time>2022-06-15T06:49:19Z</time>
      </trkpt>
      <trkpt lat="45.6295" lon="6.7833">
        <ele>946</ele>
        <time>2022-06-15T06:49:20Z</time>
      </trkpt>
      <trkpt lat="45.62952" lon="6.78331">
        <ele>946.2</ele>
        <time>2022-06-15T06:49:21Z</time>
      </trkpt>
      <trkpt lat="45.62954" lon="6.78333">
        <ele>946.6</ele>
        <time>2022-06-15T06:49:22Z</time>
      </trkpt>
      <trkpt lat="45.62956" lon="6.78334">
        <ele>946.9</ele>
        <time>2022-06-15T06:49:23Z</time>
      </trkpt>
      <trkpt lat="45.62958" lon="6.78336">
        <ele>947</ele>
        <time>2022-06-15T06:49:24Z</time>
      </trkpt>
      <trkpt lat="45.6296" lon="6.78338">
        <ele>947.2</ele>
        <time>2022-06-15T06:49:25Z</time>
      </trkpt>
      <trkpt lat="45.62962" lon="6.78341">
        <ele>947.2</ele>
        <time>2022-06-15T06:49:26Z</time>
      </trkpt>
      <trkpt lat="45.62963" lon="6.78343">
        <ele>947.2</ele>
        <time>2022-06-15T06:49:27Z</time>
      </trkpt>
      <trkpt lat="45.62965" lon="6.78345">
        <ele>947.2</ele>
        <time>2022-06-15T06:49:28Z</time>
      </trkpt>
      <trkpt lat="45.62966" lon="6.78347">
        <ele>947.1</ele>
        <time>2022-06-15T06:49:29Z</time>
      </trkpt>
      <trkpt lat="45.62968" lon="6.7835">
        <ele>947.1</ele>
        <time>2022-06-15T06:49:30Z</time>
      </trkpt>
      <trkpt lat="45.62969" lon="6.78352">
        <ele>947</ele>
        <time>2022-06-15T06:49:31Z</time>
      </trkpt>
      <trkpt lat="45.62971" lon="6.78354">
        <ele>947.1</ele>
        <time>2022-06-15T06:49:32Z</time>
      </trkpt>
      <trkpt lat="45.62973" lon="6.78356">
        <ele>947.1</ele>
        <time>2022-06-15T06:49:33Z</time>
      </trkpt>
      <trkpt lat="45.62975" lon="6.78358">
        <ele>947</ele>
        <time>2022-06-15T06:49:34Z</time>
      </trkpt>
      <trkpt lat="45.62977" lon="6.7836">
        <ele>947</ele>
        <time>2022-06-15T06:49:35Z</time>
      </trkpt>
      <trkpt lat="45.62978" lon="6.78362">
        <ele>947</ele>
        <time>2022-06-15T06:49:36Z</time>
      </trkpt>
      <trkpt lat="45.6298" lon="6.78364">
        <ele>947.1</ele>
        <time>2022-06-15T06:49:37Z</time>
      </trkpt>
      <trkpt lat="45.62982" lon="6.78366">
        <ele>947.2</ele>
        <time>2022-06-15T06:49:38Z</time>
      </trkpt>
      <trkpt lat="45.62984" lon="6.78368">
        <ele>947.3</ele>
        <time>2022-06-15T06:49:39Z</time>
      </trkpt>
      <trkpt lat="45.62986" lon="6.7837">
        <ele>947.4</ele>
        <time>2022-06-15T06:49:40Z</time>
      </trkpt>
      <trkpt lat="45.62988" lon="6.78371">
        <ele>947.5</ele>
        <time>2022-06-15T06:49:41Z</time>
      </trkpt>
      <trkpt lat="45.6299" lon="6.78373">
        <ele>947.7</ele>
        <time>2022-06-15T06:49:42Z</time>
      </trkpt>
      <trkpt lat="45.62993" lon="6.78374">
        <ele>947.9</ele>
        <time>2022-06-15T06:49:43Z</time>
      </trkpt>
      <trkpt lat="45.62995" lon="6.78376">
        <ele>948.1</ele>
        <time>2022-06-15T06:49:44Z</time>
      </trkpt>
      <trkpt lat="45.62997" lon="6.78377">
        <ele>948.2</ele>
        <time>2022-06-15T06:49:45Z</time>
      </trkpt>
      <trkpt lat="45.62999" lon="6.78379">
        <ele>948.3</ele>
        <time>2022-06-15T06:49:46Z</time>
      </trkpt>
      <trkpt lat="45.63002" lon="6.7838">
        <ele>948.5</ele>
        <time>2022-06-15T06:49:47Z</time>
      </trkpt>
      <trkpt lat="45.63004" lon="6.78382">
        <ele>948.6</ele>
        <time>2022-06-15T06:49:48Z</time>
      </trkpt>
      <trkpt lat="45.63007" lon="6.78383">
        <ele>948.7</ele>
        <time>2022-06-15T06:49:49Z</time>
      </trkpt>
      <trkpt lat="45.63009" lon="6.78385">
        <ele>948.9</ele>
        <time>2022-06-15T06:49:50Z</time>
      </trkpt>
      <trkpt lat="45.63012" lon="6.78386">
        <ele>949.1</ele>
        <time>2022-06-15T06:49:51Z</time>
      </trkpt>
      <trkpt lat="45.63014" lon="6.78387">
        <ele>949.3</ele>
        <time>2022-06-15T06:49:52Z</time>
      </trkpt>
      <trkpt lat="45.63017" lon="6.78389">
        <ele>949.4</ele>
        <time>2022-06-15T06:49:53Z</time>
      </trkpt>
      <trkpt lat="45.6302" lon="6.7839">
        <ele>949.7</ele>
        <time>2022-06-15T06:49:54Z</time>
      </trkpt>
      <trkpt lat="45.63022" lon="6.78392">
        <ele>949.9</ele>
        <time>2022-06-15T06:49:55Z</time>
      </trkpt>
      <trkpt lat="45.63025" lon="6.78393">
        <ele>950.1</ele>
        <time>2022-06-15T06:49:56Z</time>
      </trkpt>
      <trkpt lat="45.63027" lon="6.78395">
        <ele>950.3</ele>
        <time>2022-06-15T06:49:57Z</time>
      </trkpt>
      <trkpt lat="45.6303" lon="6.78396">
        <ele>950.5</ele>
        <time>2022-06-15T06:49:58Z</time>
      </trkpt>
      <trkpt lat="45.63033" lon="6.78397">
        <ele>950.6</ele>
        <time>2022-06-15T06:49:59Z</time>
      </trkpt>
      <trkpt lat="45.63036" lon="6.78399">
        <ele>950.7</ele>
        <time>2022-06-15T06:50:00Z</time>
      </trkpt>
      <trkpt lat="45.63039" lon="6.784">
        <ele>950.9</ele>
        <time>2022-06-15T06:50:01Z</time>
      </trkpt>
      <trkpt lat="45.63042" lon="6.78401">
        <ele>951</ele>
        <time>2022-06-15T06:50:02Z</time>
      </trkpt>
      <trkpt lat="45.63044" lon="6.78402">
        <ele>951.1</ele>
        <time>2022-06-15T06:50:03Z</time>
      </trkpt>
      <trkpt lat="45.63047" lon="6.78403">
        <ele>951.2</ele>
        <time>2022-06-15T06:50:04Z</time>
      </trkpt>
      <trkpt lat="45.6305" lon="6.78404">
        <ele>951.3</ele>
        <time>2022-06-15T06:50:05Z</time>
      </trkpt>
      <trkpt lat="45.63053" lon="6.78406">
        <ele>951.4</ele>
        <time>2022-06-15T06:50:06Z</time>
      </trkpt>
      <trkpt lat="45.63056" lon="6.78407">
        <ele>951.5</ele>
        <time>2022-06-15T06:50:07Z</time>
      </trkpt>
      <trkpt lat="45.63059" lon="6.78408">
        <ele>951.5</ele>
        <time>2022-06-15T06:50:08Z</time>
      </trkpt>
      <trkpt lat="45.63062" lon="6.78409">
        <ele>951.6</ele>
        <time>2022-06-15T06:50:09Z</time>
      </trkpt>
      <trkpt lat="45.63065" lon="6.7841">
        <ele>951.7</ele>
        <time>2022-06-15T06:50:10Z</time>
      </trkpt>
      <trkpt lat="45.63068" lon="6.78411">
        <ele>951.9</ele>
        <time>2022-06-15T06:50:11Z</time>
      </trkpt>
      <trkpt lat="45.63071" lon="6.78412">
        <ele>952.1</ele>
        <time>2022-06-15T06:50:12Z</time>
      </trkpt>
      <trkpt lat="45.63074" lon="6.78413">
        <ele>952.3</ele>
        <time>2022-06-15T06:50:13Z</time>
      </trkpt>
      <trkpt lat="45.63077" lon="6.78414">
        <ele>952.6</ele>
        <time>2022-06-15T06:50:14Z</time>
      </trkpt>
      <trkpt lat="45.6308" lon="6.78415">
        <ele>952.8</ele>
        <time>2022-06-15T06:50:15Z</time>
      </trkpt>
      <trkpt lat="45.63083" lon="6.78416">
        <ele>953.1</ele>
        <time>2022-06-15T06:50:16Z</time>
      </trkpt>
      <trkpt lat="45.63087" lon="6.78417">
        <ele>953.1</ele>
        <time>2022-06-15T06:50:17Z</time>
      </trkpt>
      <trkpt lat="45.6309" lon="6.78418">
        <ele>953</ele>
        <time>2022-06-15T06:50:18Z</time>
      </trkpt>
      <trkpt lat="45.63093" lon="6.7842">
        <ele>952.9</ele>
        <time>2022-06-15T06:50:19Z</time>
      </trkpt>
      <trkpt lat="45.63096" lon="6.78421">
        <ele>952.8</ele>
        <time>2022-06-15T06:50:20Z</time>
      </trkpt>
      <trkpt lat="45.63099" lon="6.78422">
        <ele>952.8</ele>
        <time>2022-06-15T06:50:21Z</time>
      </trkpt>
      <trkpt lat="45.63102" lon="6.78423">
        <ele>952.7</ele>
        <time>2022-06-15T06:50:22Z</time>
      </trkpt>
      <trkpt lat="45.63105" lon="6.78424">
        <ele>952.6</ele>
        <time>2022-06-15T06:50:23Z</time>
      </trkpt>
      <trkpt lat="45.63108" lon="6.78425">
        <ele>952.5</ele>
        <time>2022-06-15T06:50:24Z</time>
      </trkpt>
      <trkpt lat="45.63112" lon="6.78425">
        <ele>952.5</ele>
        <time>2022-06-15T06:50:25Z</time>
      </trkpt>
      <trkpt lat="45.63115" lon="6.78426">
        <ele>952.5</ele>
        <time>2022-06-15T06:50:26Z</time>
      </trkpt>
      <trkpt lat="45.63119" lon="6.78426">
        <ele>952.6</ele>
        <time>2022-06-15T06:50:27Z</time>
      </trkpt>
      <trkpt lat="45.63122" lon="6.78426">
        <ele>952.7</ele>
        <time>2022-06-15T06:50:28Z</time>
      </trkpt>
      <trkpt lat="45.63126" lon="6.78426">
        <ele>952.8</ele>
        <time>2022-06-15T06:50:29Z</time>
      </trkpt>
      <trkpt lat="45.6313" lon="6.78426">
        <ele>952.9</ele>
        <time>2022-06-15T06:50:30Z</time>
      </trkpt>
      <trkpt lat="45.63134" lon="6.78426">
        <ele>953.2</ele>
        <time>2022-06-15T06:50:31Z</time>
      </trkpt>
      <trkpt lat="45.63137" lon="6.78425">
        <ele>953.4</ele>
        <time>2022-06-15T06:50:32Z</time>
      </trkpt>
      <trkpt lat="45.63141" lon="6.78424">
        <ele>953.6</ele>
        <time>2022-06-15T06:50:33Z</time>
      </trkpt>
      <trkpt lat="45.63145" lon="6.78424">
        <ele>953.6</ele>
        <time>2022-06-15T06:50:34Z</time>
      </trkpt>
      <trkpt lat="45.63149" lon="6.78424">
        <ele>953.6</ele>
        <time>2022-06-15T06:50:35Z</time>
      </trkpt>
      <trkpt lat="45.63153" lon="6.78423">
        <ele>953.6</ele>
        <time>2022-06-15T06:50:36Z</time>
      </trkpt>
      <trkpt lat="45.63158" lon="6.78423">
        <ele>953.6</ele>
        <time>2022-06-15T06:50:37Z</time>
      </trkpt>
      <trkpt lat="45.63162" lon="6.78423">
        <ele>953.6</ele>
        <time>2022-06-15T06:50:38Z</time>
      </trkpt>
      <trkpt lat="45.63166" lon="6.78422">
        <ele>953.6</ele>
        <time>2022-06-15T06:50:39Z</time>
      </trkpt>
      <trkpt lat="45.63171" lon="6.78422">
        <ele>953.5</ele>
        <time>2022-06-15T06:50:40Z</time>
      </trkpt>
      <trkpt lat="45.63175" lon="6.78422">
        <ele>953.5</ele>
        <time>2022-06-15T06:50:41Z</time>
      </trkpt>
      <trkpt lat="45.63179" lon="6.78421">
        <ele>953.4</ele>
        <time>2022-06-15T06:50:42Z</time>
      </trkpt>
      <trkpt lat="45.63183" lon="6.78421">
        <ele>953.3</ele>
        <time>2022-06-15T06:50:43Z</time>
      </trkpt>
      <trkpt lat="45.63188" lon="6.78421">
        <ele>953.3</ele>
        <time>2022-06-15T06:50:44Z</time>
      </trkpt>
      <trkpt lat="45.63192" lon="6.78421">
        <ele>953.2</ele>
        <time>2022-06-15T06:50:45Z</time>
      </trkpt>
      <trkpt lat="45.63196" lon="6.78421">
        <ele>953.1</ele>
        <time>2022-06-15T06:50:46Z</time>
      </trkpt>
      <trkpt lat="45.632" lon="6.7842">
        <ele>953.3</ele>
        <time>2022-06-15T06:50:47Z</time>
      </trkpt>
      <trkpt lat="45.63204" lon="6.7842">
        <ele>953.4</ele>
        <time>2022-06-15T06:50:48Z</time>
      </trkpt>
      <trkpt lat="45.63208" lon="6.7842">
        <ele>953.4</ele>
        <time>2022-06-15T06:50:49Z</time>
      </trkpt>
      <trkpt lat="45.63213" lon="6.7842">
        <ele>953.4</ele>
        <time>2022-06-15T06:50:50Z</time>
      </trkpt>
      <trkpt lat="45.63216" lon="6.78419">
        <ele>953.7</ele>
        <time>2022-06-15T06:50:51Z</time>
      </trkpt>
      <trkpt lat="45.6322" lon="6.78419">
        <ele>953.8</ele>
        <time>2022-06-15T06:50:52Z</time>
      </trkpt>
      <trkpt lat="45.63225" lon="6.7842">
        <ele>954.2</ele>
        <time>2022-06-15T06:50:53Z</time>
      </trkpt>
      <trkpt lat="45.63229" lon="6.78421">
        <ele>954.7</ele>
        <time>2022-06-15T06:50:54Z</time>
      </trkpt>
      <trkpt lat="45.63233" lon="6.78422">
        <ele>955</ele>
        <time>2022-06-15T06:50:55Z</time>
      </trkpt>
      <trkpt lat="45.63237" lon="6.78425">
        <ele>954.7</ele>
        <time>2022-06-15T06:50:56Z</time>
      </trkpt>
      <trkpt lat="45.63241" lon="6.7843">
        <ele>953.7</ele>
        <time>2022-06-15T06:50:57Z</time>
      </trkpt>
      <trkpt lat="45.63245" lon="6.78434">
        <ele>952.8</ele>
        <time>2022-06-15T06:50:58Z</time>
      </trkpt>
      <trkpt lat="45.63249" lon="6.7844">
        <ele>951.8</ele>
        <time>2022-06-15T06:50:59Z</time>
      </trkpt>
      <trkpt lat="45.63253" lon="6.78445">
        <ele>950.9</ele>
        <time>2022-06-15T06:51:00Z</time>
      </trkpt>
      <trkpt lat="45.63258" lon="6.78451">
        <ele>950</ele>
        <time>2022-06-15T06:51:01Z</time>
      </trkpt>
      <trkpt lat="45.63263" lon="6.78456">
        <ele>949.5</ele>
        <time>2022-06-15T06:51:02Z</time>
      </trkpt>
      <trkpt lat="45.63268" lon="6.78461">
        <ele>950.1</ele>
        <time>2022-06-15T06:51:03Z</time>
      </trkpt>
      <trkpt lat="45.63272" lon="6.78466">
        <ele>951.2</ele>
        <time>2022-06-15T06:51:04Z</time>
      </trkpt>
      <trkpt lat="45.63278" lon="6.7847">
        <ele>953.4</ele>
        <time>2022-06-15T06:51:05Z</time>
      </trkpt>
      <trkpt lat="45.63283" lon="6.78474">
        <ele>954</ele>
        <time>2022-06-15T06:51:06Z</time>
      </trkpt>
      <trkpt lat="45.63288" lon="6.78477">
        <ele>953.8</ele>
        <time>2022-06-15T06:51:07Z</time>
      </trkpt>
      <trkpt lat="45.63293" lon="6.7848">
        <ele>953.7</ele>
        <time>2022-06-15T06:51:08Z</time>
      </trkpt>
      <trkpt lat="45.63298" lon="6.78483">
        <ele>953.6</ele>
        <time>2022-06-15T06:51:09Z</time>
      </trkpt>
      <trkpt lat="45.63303" lon="6.78487">
        <ele>953</ele>
        <time>2022-06-15T06:51:10Z</time>
      </trkpt>
      <trkpt lat="45.63308" lon="6.78491">
        <ele>952</ele>
        <time>2022-06-15T06:51:11Z</time>
      </trkpt>
      <trkpt lat="45.63312" lon="6.78495">
        <ele>950.9</ele>
        <time>2022-06-15T06:51:12Z</time>
      </trkpt>
      <trkpt lat="45.63317" lon="6.785">
        <ele>949.8</ele>
        <time>2022-06-15T06:51:13Z</time>
      </trkpt>
      <trkpt lat="45.63322" lon="6.78503">
        <ele>950</ele>
        <time>2022-06-15T06:51:14Z</time>
      </trkpt>
      <trkpt lat="45.63327" lon="6.78505">
        <ele>950.7</ele>
        <time>2022-06-15T06:51:15Z</time>
      </trkpt>
      <trkpt lat="45.63332" lon="6.78507">
        <ele>951.9</ele>
        <time>2022-06-15T06:51:16Z</time>
      </trkpt>
      <trkpt lat="45.63337" lon="6.78507">
        <ele>953.4</ele>
        <time>2022-06-15T06:51:17Z</time>
      </trkpt>
      <trkpt lat="45.63342" lon="6.78508">
        <ele>954.9</ele>
        <time>2022-06-15T06:51:18Z</time>
      </trkpt>
      <trkpt lat="45.63347" lon="6.78509">
        <ele>956.2</ele>
        <time>2022-06-15T06:51:19Z</time>
      </trkpt>
      <trkpt lat="45.63352" lon="6.78512">
        <ele>956.8</ele>
        <time>2022-06-15T06:51:20Z</time>
      </trkpt>
      <trkpt lat="45.63356" lon="6.78515">
        <ele>957.2</ele>
        <time>2022-06-15T06:51:21Z</time>
      </trkpt>
      <trkpt lat="45.6336" lon="6.78518">
        <ele>957.7</ele>
        <time>2022-06-15T06:51:22Z</time>
      </trkpt>
      <trkpt lat="45.63364" lon="6.78521">
        <ele>957.8</ele>
        <time>2022-06-15T06:51:23Z</time>
      </trkpt>
      <trkpt lat="45.63368" lon="6.78524">
        <ele>957.6</ele>
        <time>2022-06-15T06:51:24Z</time>
      </trkpt>
      <trkpt lat="45.63372" lon="6.78527">
        <ele>957.1</ele>
        <time>2022-06-15T06:51:25Z</time>
      </trkpt>
      <trkpt lat="45.63376" lon="6.78531">
        <ele>956.8</ele>
        <time>2022-06-15T06:51:26Z</time>
      </trkpt>
      <trkpt lat="45.63379" lon="6.78534">
        <ele>956.8</ele>
        <time>2022-06-15T06:51:27Z</time>
      </trkpt>
      <trkpt lat="45.63382" lon="6.78536">
        <ele>957.1</ele>
        <time>2022-06-15T06:51:28Z</time>
      </trkpt>
      <trkpt lat="45.63386" lon="6.78538">
        <ele>957.5</ele>
        <time>2022-06-15T06:51:29Z</time>
      </trkpt>
      <trkpt lat="45.63389" lon="6.78541">
        <ele>958.2</ele>
        <time>2022-06-15T06:51:30Z</time>
      </trkpt>
      <trkpt lat="45.63392" lon="6.78543">
        <ele>958.7</ele>
        <time>2022-06-15T06:51:31Z</time>
      </trkpt>
      <trkpt lat="45.63396" lon="6.78544">
        <ele>959.2</ele>
        <time>2022-06-15T06:51:32Z</time>
      </trkpt>
      <trkpt lat="45.63399" lon="6.78546">
        <ele>959.7</ele>
        <time>2022-06-15T06:51:33Z</time>
      </trkpt>
      <trkpt lat="45.63403" lon="6.78548">
        <ele>960.2</ele>
        <time>2022-06-15T06:51:34Z</time>
      </trkpt>
      <trkpt lat="45.63407" lon="6.78549">
        <ele>960.6</ele>
        <time>2022-06-15T06:51:35Z</time>
      </trkpt>
      <trkpt lat="45.63411" lon="6.7855">
        <ele>961.1</ele>
        <time>2022-06-15T06:51:36Z</time>
      </trkpt>
      <trkpt lat="45.63415" lon="6.7855">
        <ele>961.8</ele>
        <time>2022-06-15T06:51:37Z</time>
      </trkpt>
      <trkpt lat="45.63419" lon="6.78551">
        <ele>962.1</ele>
        <time>2022-06-15T06:51:38Z</time>
      </trkpt>
      <trkpt lat="45.63423" lon="6.7855">
        <ele>961.9</ele>
        <time>2022-06-15T06:51:39Z</time>
      </trkpt>
      <trkpt lat="45.63427" lon="6.7855">
        <ele>961.8</ele>
        <time>2022-06-15T06:51:40Z</time>
      </trkpt>
      <trkpt lat="45.63431" lon="6.78549">
        <ele>961.9</ele>
        <time>2022-06-15T06:51:41Z</time>
      </trkpt>
      <trkpt lat="45.63435" lon="6.78548">
        <ele>962.2</ele>
        <time>2022-06-15T06:51:42Z</time>
      </trkpt>
      <trkpt lat="45.63438" lon="6.78546">
        <ele>962.7</ele>
        <time>2022-06-15T06:51:43Z</time>
      </trkpt>
      <trkpt lat="45.63443" lon="6.78545">
        <ele>963.1</ele>
        <time>2022-06-15T06:51:44Z</time>
      </trkpt>
      <trkpt lat="45.63447" lon="6.78543">
        <ele>963.4</ele>
        <time>2022-06-15T06:51:45Z</time>
      </trkpt>
      <trkpt lat="45.63451" lon="6.78543">
        <ele>963</ele>
        <time>2022-06-15T06:51:46Z</time>
      </trkpt>
      <trkpt lat="45.63455" lon="6.78543">
        <ele>962.3</ele>
        <time>2022-06-15T06:51:47Z</time>
      </trkpt>
      <trkpt lat="45.6346" lon="6.78543">
        <ele>961.4</ele>
        <time>2022-06-15T06:51:48Z</time>
      </trkpt>
      <trkpt lat="45.63465" lon="6.78544">
        <ele>960.1</ele>
        <time>2022-06-15T06:51:49Z</time>
      </trkpt>
      <trkpt lat="45.6347" lon="6.78544">
        <ele>959</ele>
        <time>2022-06-15T06:51:50Z</time>
      </trkpt>
      <trkpt lat="45.63476" lon="6.78546">
        <ele>958.8</ele>
        <time>2022-06-15T06:51:51Z</time>
      </trkpt>
      <trkpt lat="45.63483" lon="6.78548">
        <ele>959.3</ele>
        <time>2022-06-15T06:51:52Z</time>
      </trkpt>
      <trkpt lat="45.63489" lon="6.78549">
        <ele>959.8</ele>
        <time>2022-06-15T06:51:53Z</time>
      </trkpt>
      <trkpt lat="45.63495" lon="6.7855">
        <ele>960.3</ele>
        <time>2022-06-15T06:51:54Z</time>
      </trkpt>
      <trkpt lat="45.63502" lon="6.78552">
        <ele>960.6</ele>
        <time>2022-06-15T06:51:55Z</time>
      </trkpt>
      <trkpt lat="45.63508" lon="6.78552">
        <ele>960.4</ele>
        <time>2022-06-15T06:51:56Z</time>
      </trkpt>
      <trkpt lat="45.63515" lon="6.78553">
        <ele>960.3</ele>
        <time>2022-06-15T06:51:57Z</time>
      </trkpt>
      <trkpt lat="45.63521" lon="6.78553">
        <ele>960</ele>
        <time>2022-06-15T06:51:58Z</time>
      </trkpt>
      <trkpt lat="45.63527" lon="6.78555">
        <ele>959.4</ele>
        <time>2022-06-15T06:51:59Z</time>
      </trkpt>
      <trkpt lat="45.63533" lon="6.78556">
        <ele>959</ele>
        <time>2022-06-15T06:52:00Z</time>
      </trkpt>
      <trkpt lat="45.63538" lon="6.78557">
        <ele>958.5</ele>
        <time>2022-06-15T06:52:01Z</time>
      </trkpt>
      <trkpt lat="45.63544" lon="6.78558">
        <ele>958.2</ele>
        <time>2022-06-15T06:52:02Z</time>
      </trkpt>
      <trkpt lat="45.6355" lon="6.78558">
        <ele>958.4</ele>
        <time>2022-06-15T06:52:03Z</time>
      </trkpt>
      <trkpt lat="45.63556" lon="6.78558">
        <ele>958.5</ele>
        <time>2022-06-15T06:52:04Z</time>
      </trkpt>
      <trkpt lat="45.63561" lon="6.78558">
        <ele>958.7</ele>
        <time>2022-06-15T06:52:05Z</time>
      </trkpt>
      <trkpt lat="45.63567" lon="6.78557">
        <ele>959.4</ele>
        <time>2022-06-15T06:52:06Z</time>
      </trkpt>
      <trkpt lat="45.63572" lon="6.78554">
        <ele>960.6</ele>
        <time>2022-06-15T06:52:07Z</time>
      </trkpt>
      <trkpt lat="45.63577" lon="6.78552">
        <ele>961.7</ele>
        <time>2022-06-15T06:52:08Z</time>
      </trkpt>
      <trkpt lat="45.63582" lon="6.7855">
        <ele>962.8</ele>
        <time>2022-06-15T06:52:09Z</time>
      </trkpt>
      <trkpt lat="45.63587" lon="6.78547">
        <ele>963.3</ele>
        <time>2022-06-15T06:52:10Z</time>
      </trkpt>
      <trkpt lat="45.63591" lon="6.78545">
        <ele>963.2</ele>
        <time>2022-06-15T06:52:11Z</time>
      </trkpt>
      <trkpt lat="45.63595" lon="6.78542">
        <ele>963.2</ele>
        <time>2022-06-15T06:52:12Z</time>
      </trkpt>
      <trkpt lat="45.63599" lon="6.7854">
        <ele>963.1</ele>
        <time>2022-06-15T06:52:13Z</time>
      </trkpt>
      <trkpt lat="45.63602" lon="6.78539">
        <ele>962.9</ele>
        <time>2022-06-15T06:52:14Z</time>
      </trkpt>
      <trkpt lat="45.63606" lon="6.78539">
        <ele>962.1</ele>
        <time>2022-06-15T06:52:15Z</time>
      </trkpt>
      <trkpt lat="45.63609" lon="6.78538">
        <ele>961.5</ele>
        <time>2022-06-15T06:52:16Z</time>
      </trkpt>
      <trkpt lat="45.63612" lon="6.78537">
        <ele>961.4</ele>
        <time>2022-06-15T06:52:17Z</time>
      </trkpt>
      <trkpt lat="45.63615" lon="6.78536">
        <ele>962</ele>
        <time>2022-06-15T06:52:18Z</time>
      </trkpt>
      <trkpt lat="45.63618" lon="6.78535">
        <ele>962.5</ele>
        <time>2022-06-15T06:52:19Z</time>
      </trkpt>
      <trkpt lat="45.63621" lon="6.78534">
        <ele>963.1</ele>
        <time>2022-06-15T06:52:20Z</time>
      </trkpt>
      <trkpt lat="45.63624" lon="6.78533">
        <ele>963.6</ele>
        <time>2022-06-15T06:52:21Z</time>
      </trkpt>
      <trkpt lat="45.63628" lon="6.78532">
        <ele>964.2</ele>
        <time>2022-06-15T06:52:22Z</time>
      </trkpt>
      <trkpt lat="45.63631" lon="6.78531">
        <ele>964.7</ele>
        <time>2022-06-15T06:52:23Z</time>
      </trkpt>
      <trkpt lat="45.63635" lon="6.78531">
        <ele>964.8</ele>
        <time>2022-06-15T06:52:24Z</time>
      </trkpt>
      <trkpt lat="45.63638" lon="6.78531">
        <ele>965.2</ele>
        <time>2022-06-15T06:52:25Z</time>
      </trkpt>
      <trkpt lat="45.63641" lon="6.7853">
        <ele>965.3</ele>
        <time>2022-06-15T06:52:26Z</time>
      </trkpt>
      <trkpt lat="45.63644" lon="6.78528">
        <ele>965.4</ele>
        <time>2022-06-15T06:52:27Z</time>
      </trkpt>
      <trkpt lat="45.63648" lon="6.78527">
        <ele>965.8</ele>
        <time>2022-06-15T06:52:28Z</time>
      </trkpt>
      <trkpt lat="45.63651" lon="6.78524">
        <ele>966.3</ele>
        <time>2022-06-15T06:52:29Z</time>
      </trkpt>
      <trkpt lat="45.63654" lon="6.78522">
        <ele>966.7</ele>
        <time>2022-06-15T06:52:30Z</time>
      </trkpt>
      <trkpt lat="45.63657" lon="6.78519">
        <ele>967.2</ele>
        <time>2022-06-15T06:52:31Z</time>
      </trkpt>
      <trkpt lat="45.6366" lon="6.78516">
        <ele>967.5</ele>
        <time>2022-06-15T06:52:32Z</time>
      </trkpt>
      <trkpt lat="45.63663" lon="6.78513">
        <ele>967.9</ele>
        <time>2022-06-15T06:52:33Z</time>
      </trkpt>
      <trkpt lat="45.63665" lon="6.7851">
        <ele>968.2</ele>
        <time>2022-06-15T06:52:34Z</time>
      </trkpt>
      <trkpt lat="45.63668" lon="6.78507">
        <ele>968.2</ele>
        <time>2022-06-15T06:52:35Z</time>
      </trkpt>
      <trkpt lat="45.63671" lon="6.78503">
        <ele>968.2</ele>
        <time>2022-06-15T06:52:36Z</time>
      </trkpt>
      <trkpt lat="45.63675" lon="6.785">
        <ele>968.1</ele>
        <time>2022-06-15T06:52:37Z</time>
      </trkpt>
      <trkpt lat="45.63679" lon="6.78497">
        <ele>968.5</ele>
        <time>2022-06-15T06:52:38Z</time>
      </trkpt>
      <trkpt lat="45.63682" lon="6.78493">
        <ele>969.2</ele>
        <time>2022-06-15T06:52:39Z</time>
      </trkpt>
      <trkpt lat="45.63686" lon="6.7849">
        <ele>969.2</ele>
        <time>2022-06-15T06:52:40Z</time>
      </trkpt>
      <trkpt lat="45.63691" lon="6.78487">
        <ele>969</ele>
        <time>2022-06-15T06:52:41Z</time>
      </trkpt>
      <trkpt lat="45.63695" lon="6.78484">
        <ele>968.6</ele>
        <time>2022-06-15T06:52:42Z</time>
      </trkpt>
      <trkpt lat="45.637" lon="6.78481">
        <ele>968.3</ele>
        <time>2022-06-15T06:52:43Z</time>
      </trkpt>
      <trkpt lat="45.63705" lon="6.78479">
        <ele>968</ele>
        <time>2022-06-15T06:52:44Z</time>
      </trkpt>
      <trkpt lat="45.63711" lon="6.78476">
        <ele>967.6</ele>
        <time>2022-06-15T06:52:45Z</time>
      </trkpt>
      <trkpt lat="45.63716" lon="6.78474">
        <ele>967.7</ele>
        <time>2022-06-15T06:52:46Z</time>
      </trkpt>
      <trkpt lat="45.63722" lon="6.78472">
        <ele>967.8</ele>
        <time>2022-06-15T06:52:47Z</time>
      </trkpt>
      <trkpt lat="45.63727" lon="6.7847">
        <ele>968.3</ele>
        <time>2022-06-15T06:52:48Z</time>
      </trkpt>
      <trkpt lat="45.63733" lon="6.78469">
        <ele>968.5</ele>
        <time>2022-06-15T06:52:49Z</time>
      </trkpt>
      <trkpt lat="45.63738" lon="6.78467">
        <ele>968.5</ele>
        <time>2022-06-15T06:52:50Z</time>
      </trkpt>
      <trkpt lat="45.63743" lon="6.78466">
        <ele>968.3</ele>
        <time>2022-06-15T06:52:51Z</time>
      </trkpt>
      <trkpt lat="45.63749" lon="6.78464">
        <ele>968.5</ele>
        <time>2022-06-15T06:52:52Z</time>
      </trkpt>
      <trkpt lat="45.63754" lon="6.78463">
        <ele>967.9</ele>
        <time>2022-06-15T06:52:53Z</time>
      </trkpt>
      <trkpt lat="45.6376" lon="6.78461">
        <ele>967.6</ele>
        <time>2022-06-15T06:52:54Z</time>
      </trkpt>
      <trkpt lat="45.63765" lon="6.78459">
        <ele>967.5</ele>
        <time>2022-06-15T06:52:55Z</time>
      </trkpt>
      <trkpt lat="45.63769" lon="6.78458">
        <ele>967.1</ele>
        <time>2022-06-15T06:52:56Z</time>
      </trkpt>
      <trkpt lat="45.63774" lon="6.78456">
        <ele>966.8</ele>
        <time>2022-06-15T06:52:57Z</time>
      </trkpt>
      <trkpt lat="45.63779" lon="6.78454">
        <ele>966.5</ele>
        <time>2022-06-15T06:52:58Z</time>
      </trkpt>
      <trkpt lat="45.63784" lon="6.78453">
        <ele>966.7</ele>
        <time>2022-06-15T06:52:59Z</time>
      </trkpt>
      <trkpt lat="45.63788" lon="6.78452">
        <ele>966.9</ele>
        <time>2022-06-15T06:53:00Z</time>
      </trkpt>
      <trkpt lat="45.63792" lon="6.78452">
        <ele>966.9</ele>
        <time>2022-06-15T06:53:01Z</time>
      </trkpt>
      <trkpt lat="45.63796" lon="6.78452">
        <ele>966.5</ele>
        <time>2022-06-15T06:53:02Z</time>
      </trkpt>
      <trkpt lat="45.638" lon="6.78454">
        <ele>965.7</ele>
        <time>2022-06-15T06:53:03Z</time>
      </trkpt>
      <trkpt lat="45.63804" lon="6.78455">
        <ele>964.9</ele>
        <time>2022-06-15T06:53:04Z</time>
      </trkpt>
      <trkpt lat="45.63808" lon="6.78456">
        <ele>964.9</ele>
        <time>2022-06-15T06:53:05Z</time>
      </trkpt>
      <trkpt lat="45.63812" lon="6.78456">
        <ele>965.7</ele>
        <time>2022-06-15T06:53:06Z</time>
      </trkpt>
      <trkpt lat="45.63816" lon="6.78457">
        <ele>966.3</ele>
        <time>2022-06-15T06:53:07Z</time>
      </trkpt>
      <trkpt lat="45.6382" lon="6.78458">
        <ele>967</ele>
        <time>2022-06-15T06:53:08Z</time>
      </trkpt>
      <trkpt lat="45.63825" lon="6.78458">
        <ele>967.9</ele>
        <time>2022-06-15T06:53:09Z</time>
      </trkpt>
      <trkpt lat="45.63829" lon="6.78458">
        <ele>968.6</ele>
        <time>2022-06-15T06:53:10Z</time>
      </trkpt>
      <trkpt lat="45.63834" lon="6.78459">
        <ele>969.4</ele>
        <time>2022-06-15T06:53:11Z</time>
      </trkpt>
      <trkpt lat="45.63838" lon="6.78458">
        <ele>969.5</ele>
        <time>2022-06-15T06:53:12Z</time>
      </trkpt>
      <trkpt lat="45.63842" lon="6.78457">
        <ele>969.5</ele>
        <time>2022-06-15T06:53:13Z</time>
      </trkpt>
      <trkpt lat="45.63845" lon="6.78456">
        <ele>969.7</ele>
        <time>2022-06-15T06:53:14Z</time>
      </trkpt>
      <trkpt lat="45.6385" lon="6.78455">
        <ele>969.7</ele>
        <time>2022-06-15T06:53:15Z</time>
      </trkpt>
      <trkpt lat="45.63853" lon="6.78455">
        <ele>969.6</ele>
        <time>2022-06-15T06:53:16Z</time>
      </trkpt>
      <trkpt lat="45.63857" lon="6.78453">
        <ele>969.8</ele>
        <time>2022-06-15T06:53:17Z</time>
      </trkpt>
      <trkpt lat="45.63861" lon="6.78452">
        <ele>970</ele>
        <time>2022-06-15T06:53:18Z</time>
      </trkpt>
      <trkpt lat="45.63865" lon="6.7845">
        <ele>970.2</ele>
        <time>2022-06-15T06:53:19Z</time>
      </trkpt>
      <trkpt lat="45.63868" lon="6.78449">
        <ele>970.5</ele>
        <time>2022-06-15T06:53:20Z</time>
      </trkpt>
      <trkpt lat="45.63872" lon="6.78448">
        <ele>970.6</ele>
        <time>2022-06-15T06:53:21Z</time>
      </trkpt>
      <trkpt lat="45.63877" lon="6.78446">
        <ele>970.9</ele>
        <time>2022-06-15T06:53:22Z</time>
      </trkpt>
      <trkpt lat="45.63881" lon="6.78445">
        <ele>971.1</ele>
        <time>2022-06-15T06:53:23Z</time>
      </trkpt>
      <trkpt lat="45.63885" lon="6.78444">
        <ele>971.4</ele>
        <time>2022-06-15T06:53:24Z</time>
      </trkpt>
      <trkpt lat="45.63889" lon="6.78443">
        <ele>971.6</ele>
        <time>2022-06-15T06:53:25Z</time>
      </trkpt>
      <trkpt lat="45.63894" lon="6.78443">
        <ele>972</ele>
        <time>2022-06-15T06:53:26Z</time>
      </trkpt>
      <trkpt lat="45.63898" lon="6.78443">
        <ele>972</ele>
        <time>2022-06-15T06:53:27Z</time>
      </trkpt>
      <trkpt lat="45.63901" lon="6.78444">
        <ele>971.7</ele>
        <time>2022-06-15T06:53:28Z</time>
      </trkpt>
      <trkpt lat="45.63905" lon="6.78445">
        <ele>971.2</ele>
        <time>2022-06-15T06:53:29Z</time>
      </trkpt>
      <trkpt lat="45.63909" lon="6.78448">
        <ele>970.6</ele>
        <time>2022-06-15T06:53:30Z</time>
      </trkpt>
      <trkpt lat="45.63913" lon="6.78451">
        <ele>969.5</ele>
        <time>2022-06-15T06:53:31Z</time>
      </trkpt>
      <trkpt lat="45.63916" lon="6.78455">
        <ele>968.1</ele>
        <time>2022-06-15T06:53:32Z</time>
      </trkpt>
      <trkpt lat="45.6392" lon="6.7846">
        <ele>967.8</ele>
        <time>2022-06-15T06:53:33Z</time>
      </trkpt>
      <trkpt lat="45.63923" lon="6.78465">
        <ele>967.4</ele>
        <time>2022-06-15T06:53:34Z</time>
      </trkpt>
      <trkpt lat="45.63927" lon="6.78469">
        <ele>967.4</ele>
        <time>2022-06-15T06:53:35Z</time>
      </trkpt>
      <trkpt lat="45.6393" lon="6.78472">
        <ele>967.4</ele>
        <time>2022-06-15T06:53:36Z</time>
      </trkpt>
      <trkpt lat="45.63935" lon="6.78476">
        <ele>967.5</ele>
        <time>2022-06-15T06:53:37Z</time>
      </trkpt>
      <trkpt lat="45.63939" lon="6.78479">
        <ele>967.9</ele>
        <time>2022-06-15T06:53:38Z</time>
      </trkpt>
      <trkpt lat="45.63944" lon="6.78483">
        <ele>967.9</ele>
        <time>2022-06-15T06:53:39Z</time>
      </trkpt>
      <trkpt lat="45.63949" lon="6.78486">
        <ele>966.8</ele>
        <time>2022-06-15T06:53:40Z</time>
      </trkpt>
      <trkpt lat="45.63954" lon="6.7849">
        <ele>965.4</ele>
        <time>2022-06-15T06:53:41Z</time>
      </trkpt>
      <trkpt lat="45.6396" lon="6.78493">
        <ele>964.1</ele>
        <time>2022-06-15T06:53:42Z</time>
      </trkpt>
      <trkpt lat="45.63966" lon="6.78497">
        <ele>962.5</ele>
        <time>2022-06-15T06:53:43Z</time>
      </trkpt>
      <trkpt lat="45.63971" lon="6.785">
        <ele>960.9</ele>
        <time>2022-06-15T06:53:44Z</time>
      </trkpt>
      <trkpt lat="45.63978" lon="6.78504">
        <ele>962.4</ele>
        <time>2022-06-15T06:53:45Z</time>
      </trkpt>
      <trkpt lat="45.63984" lon="6.78506">
        <ele>964.5</ele>
        <time>2022-06-15T06:53:46Z</time>
      </trkpt>
      <trkpt lat="45.6399" lon="6.78507">
        <ele>966.6</ele>
        <time>2022-06-15T06:53:47Z</time>
      </trkpt>
      <trkpt lat="45.63996" lon="6.78508">
        <ele>968.7</ele>
        <time>2022-06-15T06:53:48Z</time>
      </trkpt>
      <trkpt lat="45.64001" lon="6.78508">
        <ele>970.2</ele>
        <time>2022-06-15T06:53:49Z</time>
      </trkpt>
      <trkpt lat="45.64006" lon="6.78508">
        <ele>970.2</ele>
        <time>2022-06-15T06:53:50Z</time>
      </trkpt>
      <trkpt lat="45.64012" lon="6.78507">
        <ele>970.2</ele>
        <time>2022-06-15T06:53:51Z</time>
      </trkpt>
      <trkpt lat="45.64017" lon="6.78507">
        <ele>970.2</ele>
        <time>2022-06-15T06:53:52Z</time>
      </trkpt>
      <trkpt lat="45.64022" lon="6.78507">
        <ele>970.1</ele>
        <time>2022-06-15T06:53:53Z</time>
      </trkpt>
      <trkpt lat="45.64027" lon="6.78507">
        <ele>970</ele>
        <time>2022-06-15T06:53:54Z</time>
      </trkpt>
      <trkpt lat="45.64032" lon="6.78508">
        <ele>970.5</ele>
        <time>2022-06-15T06:53:55Z</time>
      </trkpt>
      <trkpt lat="45.64038" lon="6.7851">
        <ele>970.8</ele>
        <time>2022-06-15T06:53:56Z</time>
      </trkpt>
      <trkpt lat="45.64042" lon="6.78512">
        <ele>970.8</ele>
        <time>2022-06-15T06:53:57Z</time>
      </trkpt>
      <trkpt lat="45.64047" lon="6.78513">
        <ele>971</ele>
        <time>2022-06-15T06:53:58Z</time>
      </trkpt>
      <trkpt lat="45.64051" lon="6.78515">
        <ele>971</ele>
        <time>2022-06-15T06:53:59Z</time>
      </trkpt>
      <trkpt lat="45.64055" lon="6.78517">
        <ele>970.9</ele>
        <time>2022-06-15T06:54:00Z</time>
      </trkpt>
      <trkpt lat="45.6406" lon="6.78519">
        <ele>971</ele>
        <time>2022-06-15T06:54:01Z</time>
      </trkpt>
      <trkpt lat="45.64064" lon="6.78521">
        <ele>971.1</ele>
        <time>2022-06-15T06:54:02Z</time>
      </trkpt>
      <trkpt lat="45.64068" lon="6.78524">
        <ele>970.9</ele>
        <time>2022-06-15T06:54:03Z</time>
      </trkpt>
      <trkpt lat="45.64071" lon="6.78526">
        <ele>970.7</ele>
        <time>2022-06-15T06:54:04Z</time>
      </trkpt>
      <trkpt lat="45.64076" lon="6.78528">
        <ele>970.6</ele>
        <time>2022-06-15T06:54:05Z</time>
      </trkpt>
      <trkpt lat="45.6408" lon="6.78531">
        <ele>970.6</ele>
        <time>2022-06-15T06:54:06Z</time>
      </trkpt>
      <trkpt lat="45.64084" lon="6.78534">
        <ele>970.6</ele>
        <time>2022-06-15T06:54:07Z</time>
      </trkpt>
      <trkpt lat="45.64088" lon="6.78537">
        <ele>970.9</ele>
        <time>2022-06-15T06:54:08Z</time>
      </trkpt>
      <trkpt lat="45.64093" lon="6.7854">
        <ele>971.2</ele>
        <time>2022-06-15T06:54:09Z</time>
      </trkpt>
      <trkpt lat="45.64097" lon="6.78543">
        <ele>971.4</ele>
        <time>2022-06-15T06:54:10Z</time>
      </trkpt>
      <trkpt lat="45.64102" lon="6.78545">
        <ele>971.7</ele>
        <time>2022-06-15T06:54:11Z</time>
      </trkpt>
      <trkpt lat="45.64106" lon="6.78548">
        <ele>971.6</ele>
        <time>2022-06-15T06:54:12Z</time>
      </trkpt>
      <trkpt lat="45.6411" lon="6.78551">
        <ele>971.5</ele>
        <time>2022-06-15T06:54:13Z</time>
      </trkpt>
      <trkpt lat="45.64114" lon="6.78554">
        <ele>971.6</ele>
        <time>2022-06-15T06:54:14Z</time>
      </trkpt>
      <trkpt lat="45.64118" lon="6.78558">
        <ele>971.8</ele>
        <time>2022-06-15T06:54:15Z</time>
      </trkpt>
      <trkpt lat="45.64122" lon="6.78563">
        <ele>972</ele>
        <time>2022-06-15T06:54:16Z</time>
      </trkpt>
      <trkpt lat="45.64126" lon="6.78567">
        <ele>972.1</ele>
        <time>2022-06-15T06:54:17Z</time>
      </trkpt>
      <trkpt lat="45.6413" lon="6.78571">
        <ele>972.4</ele>
        <time>2022-06-15T06:54:18Z</time>
      </trkpt>
      <trkpt lat="45.64134" lon="6.78575">
        <ele>972.6</ele>
        <time>2022-06-15T06:54:19Z</time>
      </trkpt>
      <trkpt lat="45.64137" lon="6.78579">
        <ele>972.5</ele>
        <time>2022-06-15T06:54:20Z</time>
      </trkpt>
      <trkpt lat="45.64141" lon="6.78582">
        <ele>972.7</ele>
        <time>2022-06-15T06:54:21Z</time>
      </trkpt>
      <trkpt lat="45.64144" lon="6.78585">
        <ele>972.8</ele>
        <time>2022-06-15T06:54:22Z</time>
      </trkpt>
      <trkpt lat="45.64147" lon="6.78588">
        <ele>972.6</ele>
        <time>2022-06-15T06:54:23Z</time>
      </trkpt>
      <trkpt lat="45.64151" lon="6.78591">
        <ele>972.5</ele>
        <time>2022-06-15T06:54:24Z</time>
      </trkpt>
      <trkpt lat="45.64154" lon="6.78594">
        <ele>972.7</ele>
        <time>2022-06-15T06:54:25Z</time>
      </trkpt>
      <trkpt lat="45.64158" lon="6.78596">
        <ele>972.9</ele>
        <time>2022-06-15T06:54:26Z</time>
      </trkpt>
      <trkpt lat="45.64161" lon="6.78599">
        <ele>973</ele>
        <time>2022-06-15T06:54:27Z</time>
      </trkpt>
      <trkpt lat="45.64164" lon="6.786">
        <ele>973.3</ele>
        <time>2022-06-15T06:54:28Z</time>
      </trkpt>
      <trkpt lat="45.64167" lon="6.78602">
        <ele>973.7</ele>
        <time>2022-06-15T06:54:29Z</time>
      </trkpt>
      <trkpt lat="45.6417" lon="6.78603">
        <ele>974.1</ele>
        <time>2022-06-15T06:54:30Z</time>
      </trkpt>
      <trkpt lat="45.64173" lon="6.78605">
        <ele>974.1</ele>
        <time>2022-06-15T06:54:31Z</time>
      </trkpt>
      <trkpt lat="45.64177" lon="6.78607">
        <ele>974.3</ele>
        <time>2022-06-15T06:54:32Z</time>
      </trkpt>
      <trkpt lat="45.64181" lon="6.78609">
        <ele>974.4</ele>
        <time>2022-06-15T06:54:33Z</time>
      </trkpt>
      <trkpt lat="45.64184" lon="6.78611">
        <ele>974.3</ele>
        <time>2022-06-15T06:54:34Z</time>
      </trkpt>
      <trkpt lat="45.64187" lon="6.78612">
        <ele>974.2</ele>
        <time>2022-06-15T06:54:35Z</time>
      </trkpt>
      <trkpt lat="45.6419" lon="6.78613">
        <ele>974.3</ele>
        <time>2022-06-15T06:54:36Z</time>
      </trkpt>
      <trkpt lat="45.64194" lon="6.78614">
        <ele>974.5</ele>
        <time>2022-06-15T06:54:37Z</time>
      </trkpt>
      <trkpt lat="45.64197" lon="6.78615">
        <ele>974.7</ele>
        <time>2022-06-15T06:54:38Z</time>
      </trkpt>
      <trkpt lat="45.642" lon="6.78616">
        <ele>975</ele>
        <time>2022-06-15T06:54:39Z</time>
      </trkpt>
      <trkpt lat="45.64204" lon="6.78616">
        <ele>975.3</ele>
        <time>2022-06-15T06:54:40Z</time>
      </trkpt>
      <trkpt lat="45.64207" lon="6.78616">
        <ele>975.7</ele>
        <time>2022-06-15T06:54:41Z</time>
      </trkpt>
      <trkpt lat="45.6421" lon="6.78617">
        <ele>975.9</ele>
        <time>2022-06-15T06:54:42Z</time>
      </trkpt>
      <trkpt lat="45.64213" lon="6.78618">
        <ele>976</ele>
        <time>2022-06-15T06:54:43Z</time>
      </trkpt>
      <trkpt lat="45.64217" lon="6.78618">
        <ele>976.4</ele>
        <time>2022-06-15T06:54:44Z</time>
      </trkpt>
      <trkpt lat="45.6422" lon="6.78618">
        <ele>976.8</ele>
        <time>2022-06-15T06:54:45Z</time>
      </trkpt>
      <trkpt lat="45.64223" lon="6.78618">
        <ele>977.2</ele>
        <time>2022-06-15T06:54:46Z</time>
      </trkpt>
      <trkpt lat="45.64225" lon="6.78618">
        <ele>977.4</ele>
        <time>2022-06-15T06:54:47Z</time>
      </trkpt>
      <trkpt lat="45.64228" lon="6.78618">
        <ele>977.7</ele>
        <time>2022-06-15T06:54:48Z</time>
      </trkpt>
      <trkpt lat="45.64231" lon="6.78618">
        <ele>977.9</ele>
        <time>2022-06-15T06:54:49Z</time>
      </trkpt>
      <trkpt lat="45.64234" lon="6.78618">
        <ele>978</ele>
        <time>2022-06-15T06:54:50Z</time>
      </trkpt>
      <trkpt lat="45.64237" lon="6.78618">
        <ele>978.1</ele>
        <time>2022-06-15T06:54:51Z</time>
      </trkpt>
      <trkpt lat="45.6424" lon="6.78618">
        <ele>978.1</ele>
        <time>2022-06-15T06:54:52Z</time>
      </trkpt>
      <trkpt lat="45.64243" lon="6.78618">
        <ele>978.3</ele>
        <time>2022-06-15T06:54:53Z</time>
      </trkpt>
      <trkpt lat="45.64246" lon="6.78618">
        <ele>978.4</ele>
        <time>2022-06-15T06:54:54Z</time>
      </trkpt>
      <trkpt lat="45.64249" lon="6.78618">
        <ele>978.6</ele>
        <time>2022-06-15T06:54:55Z</time>
      </trkpt>
      <trkpt lat="45.64252" lon="6.78618">
        <ele>978.7</ele>
        <time>2022-06-15T06:54:56Z</time>
      </trkpt>
      <trkpt lat="45.64255" lon="6.78617">
        <ele>978.9</ele>
        <time>2022-06-15T06:54:57Z</time>
      </trkpt>
      <trkpt lat="45.64258" lon="6.78617">
        <ele>978.9</ele>
        <time>2022-06-15T06:54:58Z</time>
      </trkpt>
      <trkpt lat="45.64261" lon="6.78618">
        <ele>978.8</ele>
        <time>2022-06-15T06:54:59Z</time>
      </trkpt>
      <trkpt lat="45.64264" lon="6.78617">
        <ele>979</ele>
        <time>2022-06-15T06:55:00Z</time>
      </trkpt>
      <trkpt lat="45.64267" lon="6.78617">
        <ele>979.2</ele>
        <time>2022-06-15T06:55:01Z</time>
      </trkpt>
      <trkpt lat="45.64269" lon="6.78616">
        <ele>979.7</ele>
        <time>2022-06-15T06:55:02Z</time>
      </trkpt>
      <trkpt lat="45.64273" lon="6.78616">
        <ele>979.8</ele>
        <time>2022-06-15T06:55:03Z</time>
      </trkpt>
      <trkpt lat="45.64276" lon="6.78615">
        <ele>980</ele>
        <time>2022-06-15T06:55:04Z</time>
      </trkpt>
      <trkpt lat="45.64279" lon="6.78615">
        <ele>980.2</ele>
        <time>2022-06-15T06:55:05Z</time>
      </trkpt>
      <trkpt lat="45.64282" lon="6.78614">
        <ele>980.4</ele>
        <time>2022-06-15T06:55:06Z</time>
      </trkpt>
      <trkpt lat="45.64286" lon="6.78614">
        <ele>980.6</ele>
        <time>2022-06-15T06:55:07Z</time>
      </trkpt>
      <trkpt lat="45.6429" lon="6.78614">
        <ele>980.7</ele>
        <time>2022-06-15T06:55:08Z</time>
      </trkpt>
      <trkpt lat="45.64293" lon="6.78613">
        <ele>980.9</ele>
        <time>2022-06-15T06:55:09Z</time>
      </trkpt>
      <trkpt lat="45.64296" lon="6.78613">
        <ele>981.1</ele>
        <time>2022-06-15T06:55:10Z</time>
      </trkpt>
      <trkpt lat="45.64299" lon="6.78612">
        <ele>981.4</ele>
        <time>2022-06-15T06:55:11Z</time>
      </trkpt>
      <trkpt lat="45.64301" lon="6.78612">
        <ele>981.7</ele>
        <time>2022-06-15T06:55:12Z</time>
      </trkpt>
      <trkpt lat="45.64305" lon="6.78612">
        <ele>981.7</ele>
        <time>2022-06-15T06:55:13Z</time>
      </trkpt>
      <trkpt lat="45.64309" lon="6.78613">
        <ele>981.3</ele>
        <time>2022-06-15T06:55:14Z</time>
      </trkpt>
      <trkpt lat="45.64312" lon="6.78613">
        <ele>981</ele>
        <time>2022-06-15T06:55:15Z</time>
      </trkpt>
      <trkpt lat="45.64315" lon="6.78615">
        <ele>980.5</ele>
        <time>2022-06-15T06:55:16Z</time>
      </trkpt>
      <trkpt lat="45.64318" lon="6.78615">
        <ele>980.4</ele>
        <time>2022-06-15T06:55:17Z</time>
      </trkpt>
      <trkpt lat="45.64321" lon="6.78615">
        <ele>980.4</ele>
        <time>2022-06-15T06:55:18Z</time>
      </trkpt>
      <trkpt lat="45.64324" lon="6.78615">
        <ele>980.3</ele>
        <time>2022-06-15T06:55:19Z</time>
      </trkpt>
      <trkpt lat="45.64327" lon="6.78616">
        <ele>980.3</ele>
        <time>2022-06-15T06:55:20Z</time>
      </trkpt>
      <trkpt lat="45.64329" lon="6.78616">
        <ele>980.3</ele>
        <time>2022-06-15T06:55:21Z</time>
      </trkpt>
      <trkpt lat="45.64332" lon="6.78616">
        <ele>980.1</ele>
        <time>2022-06-15T06:55:22Z</time>
      </trkpt>
      <trkpt lat="45.64335" lon="6.78616">
        <ele>980.2</ele>
        <time>2022-06-15T06:55:23Z</time>
      </trkpt>
      <trkpt lat="45.64338" lon="6.78617">
        <ele>980.1</ele>
        <time>2022-06-15T06:55:24Z</time>
      </trkpt>
      <trkpt lat="45.64341" lon="6.78616">
        <ele>980.5</ele>
        <time>2022-06-15T06:55:25Z</time>
      </trkpt>
      <trkpt lat="45.64344" lon="6.78616">
        <ele>980.8</ele>
        <time>2022-06-15T06:55:26Z</time>
      </trkpt>
      <trkpt lat="45.64347" lon="6.78616">
        <ele>980.8</ele>
        <time>2022-06-15T06:55:27Z</time>
      </trkpt>
      <trkpt lat="45.6435" lon="6.78616">
        <ele>980.7</ele>
        <time>2022-06-15T06:55:28Z</time>
      </trkpt>
      <trkpt lat="45.64353" lon="6.78616">
        <ele>981.2</ele>
        <time>2022-06-15T06:55:29Z</time>
      </trkpt>
      <trkpt lat="45.64357" lon="6.78616">
        <ele>981.3</ele>
        <time>2022-06-15T06:55:30Z</time>
      </trkpt>
      <trkpt lat="45.6436" lon="6.78615">
        <ele>981.7</ele>
        <time>2022-06-15T06:55:31Z</time>
      </trkpt>
      <trkpt lat="45.64363" lon="6.78615">
        <ele>982</ele>
        <time>2022-06-15T06:55:32Z</time>
      </trkpt>
      <trkpt lat="45.64366" lon="6.78614">
        <ele>982.2</ele>
        <time>2022-06-15T06:55:33Z</time>
      </trkpt>
      <trkpt lat="45.64369" lon="6.78614">
        <ele>982.5</ele>
        <time>2022-06-15T06:55:34Z</time>
      </trkpt>
      <trkpt lat="45.64372" lon="6.78614">
        <ele>982.6</ele>
        <time>2022-06-15T06:55:35Z</time>
      </trkpt>
      <trkpt lat="45.64376" lon="6.78613">
        <ele>982.9</ele>
        <time>2022-06-15T06:55:36Z</time>
      </trkpt>
      <trkpt lat="45.64379" lon="6.78612">
        <ele>983.3</ele>
        <time>2022-06-15T06:55:37Z</time>
      </trkpt>
      <trkpt lat="45.64382" lon="6.78611">
        <ele>983.9</ele>
        <time>2022-06-15T06:55:38Z</time>
      </trkpt>
      <trkpt lat="45.64385" lon="6.78611">
        <ele>984.2</ele>
        <time>2022-06-15T06:55:39Z</time>
      </trkpt>
      <trkpt lat="45.64388" lon="6.7861">
        <ele>984.5</ele>
        <time>2022-06-15T06:55:40Z</time>
      </trkpt>
      <trkpt lat="45.6439" lon="6.7861">
        <ele>984.7</ele>
        <time>2022-06-15T06:55:41Z</time>
      </trkpt>
      <trkpt lat="45.64394" lon="6.78609">
        <ele>984.7</ele>
        <time>2022-06-15T06:55:42Z</time>
      </trkpt>
      <trkpt lat="45.64396" lon="6.78609">
        <ele>984.7</ele>
        <time>2022-06-15T06:55:43Z</time>
      </trkpt>
      <trkpt lat="45.64399" lon="6.78608">
        <ele>985</ele>
        <time>2022-06-15T06:55:44Z</time>
      </trkpt>
      <trkpt lat="45.64401" lon="6.78607">
        <ele>985.1</ele>
        <time>2022-06-15T06:55:45Z</time>
      </trkpt>
      <trkpt lat="45.64405" lon="6.78607">
        <ele>985.1</ele>
        <time>2022-06-15T06:55:46Z</time>
      </trkpt>
      <trkpt lat="45.64408" lon="6.78606">
        <ele>985.1</ele>
        <time>2022-06-15T06:55:47Z</time>
      </trkpt>
      <trkpt lat="45.64412" lon="6.78605">
        <ele>985.1</ele>
        <time>2022-06-15T06:55:48Z</time>
      </trkpt>
      <trkpt lat="45.64415" lon="6.78605">
        <ele>984.7</ele>
        <time>2022-06-15T06:55:49Z</time>
      </trkpt>
      <trkpt lat="45.64418" lon="6.78605">
        <ele>984.5</ele>
        <time>2022-06-15T06:55:50Z</time>
      </trkpt>
      <trkpt lat="45.64421" lon="6.78604">
        <ele>984.5</ele>
        <time>2022-06-15T06:55:51Z</time>
      </trkpt>
      <trkpt lat="45.64424" lon="6.78603">
        <ele>984.9</ele>
        <time>2022-06-15T06:55:52Z</time>
      </trkpt>
      <trkpt lat="45.64428" lon="6.78602">
        <ele>985.1</ele>
        <time>2022-06-15T06:55:53Z</time>
      </trkpt>
      <trkpt lat="45.64431" lon="6.78601">
        <ele>985.1</ele>
        <time>2022-06-15T06:55:54Z</time>
      </trkpt>
      <trkpt lat="45.64435" lon="6.786">
        <ele>985.6</ele>
        <time>2022-06-15T06:55:55Z</time>
      </trkpt>
      <trkpt lat="45.64438" lon="6.78598">
        <ele>986.3</ele>
        <time>2022-06-15T06:55:56Z</time>
      </trkpt>
      <trkpt lat="45.64441" lon="6.78597">
        <ele>986.9</ele>
        <time>2022-06-15T06:55:57Z</time>
      </trkpt>
      <trkpt lat="45.64443" lon="6.78595">
        <ele>987.4</ele>
        <time>2022-06-15T06:55:58Z</time>
      </trkpt>
      <trkpt lat="45.64446" lon="6.78594">
        <ele>988</ele>
        <time>2022-06-15T06:55:59Z</time>
      </trkpt>
      <trkpt lat="45.6445" lon="6.78594">
        <ele>988.1</ele>
        <time>2022-06-15T06:56:00Z</time>
      </trkpt>
      <trkpt lat="45.64453" lon="6.78593">
        <ele>988.4</ele>
        <time>2022-06-15T06:56:01Z</time>
      </trkpt>
      <trkpt lat="45.64455" lon="6.78593">
        <ele>988.6</ele>
        <time>2022-06-15T06:56:02Z</time>
      </trkpt>
      <trkpt lat="45.64458" lon="6.78593">
        <ele>988.4</ele>
        <time>2022-06-15T06:56:03Z</time>
      </trkpt>
      <trkpt lat="45.64461" lon="6.78594">
        <ele>988.1</ele>
        <time>2022-06-15T06:56:04Z</time>
      </trkpt>
      <trkpt lat="45.64464" lon="6.78595">
        <ele>987.5</ele>
        <time>2022-06-15T06:56:05Z</time>
      </trkpt>
      <trkpt lat="45.64467" lon="6.78595">
        <ele>987.2</ele>
        <time>2022-06-15T06:56:06Z</time>
      </trkpt>
      <trkpt lat="45.6447" lon="6.78595">
        <ele>987.1</ele>
        <time>2022-06-15T06:56:07Z</time>
      </trkpt>
      <trkpt lat="45.64473" lon="6.78595">
        <ele>987.1</ele>
        <time>2022-06-15T06:56:08Z</time>
      </trkpt>
      <trkpt lat="45.64476" lon="6.78595">
        <ele>987.5</ele>
        <time>2022-06-15T06:56:09Z</time>
      </trkpt>
      <trkpt lat="45.64479" lon="6.78594">
        <ele>987.8</ele>
        <time>2022-06-15T06:56:10Z</time>
      </trkpt>
      <trkpt lat="45.64482" lon="6.78593">
        <ele>988.4</ele>
        <time>2022-06-15T06:56:11Z</time>
      </trkpt>
      <trkpt lat="45.64485" lon="6.78592">
        <ele>988.8</ele>
        <time>2022-06-15T06:56:12Z</time>
      </trkpt>
      <trkpt lat="45.64488" lon="6.78593">
        <ele>988.7</ele>
        <time>2022-06-15T06:56:13Z</time>
      </trkpt>
      <trkpt lat="45.64492" lon="6.78593">
        <ele>988.8</ele>
        <time>2022-06-15T06:56:14Z</time>
      </trkpt>
      <trkpt lat="45.64495" lon="6.78592">
        <ele>989.2</ele>
        <time>2022-06-15T06:56:15Z</time>
      </trkpt>
      <trkpt lat="45.64497" lon="6.78592">
        <ele>989.5</ele>
        <time>2022-06-15T06:56:16Z</time>
      </trkpt>
      <trkpt lat="45.645" lon="6.78592">
        <ele>989.5</ele>
        <time>2022-06-15T06:56:17Z</time>
      </trkpt>
      <trkpt lat="45.64504" lon="6.78592">
        <ele>989.3</ele>
        <time>2022-06-15T06:56:18Z</time>
      </trkpt>
      <trkpt lat="45.64507" lon="6.78593">
        <ele>989.2</ele>
        <time>2022-06-15T06:56:19Z</time>
      </trkpt>
      <trkpt lat="45.6451" lon="6.78593">
        <ele>989.2</ele>
        <time>2022-06-15T06:56:20Z</time>
      </trkpt>
      <trkpt lat="45.64513" lon="6.78593">
        <ele>989.3</ele>
        <time>2022-06-15T06:56:21Z</time>
      </trkpt>
      <trkpt lat="45.64517" lon="6.78592">
        <ele>989.7</ele>
        <time>2022-06-15T06:56:22Z</time>
      </trkpt>
      <trkpt lat="45.6452" lon="6.78592">
        <ele>989.8</ele>
        <time>2022-06-15T06:56:23Z</time>
      </trkpt>
      <trkpt lat="45.64524" lon="6.78592">
        <ele>990</ele>
        <time>2022-06-15T06:56:24Z</time>
      </trkpt>
      <trkpt lat="45.64527" lon="6.78591">
        <ele>990.6</ele>
        <time>2022-06-15T06:56:25Z</time>
      </trkpt>
      <trkpt lat="45.6453" lon="6.7859">
        <ele>991</ele>
        <time>2022-06-15T06:56:26Z</time>
      </trkpt>
      <trkpt lat="45.64534" lon="6.78589">
        <ele>991.2</ele>
        <time>2022-06-15T06:56:27Z</time>
      </trkpt>
      <trkpt lat="45.64538" lon="6.78588">
        <ele>991.2</ele>
        <time>2022-06-15T06:56:28Z</time>
      </trkpt>
      <trkpt lat="45.64542" lon="6.78587">
        <ele>991</ele>
        <time>2022-06-15T06:56:29Z</time>
      </trkpt>
      <trkpt lat="45.64545" lon="6.78587">
        <ele>990.7</ele>
        <time>2022-06-15T06:56:30Z</time>
      </trkpt>
      <trkpt lat="45.64549" lon="6.78587">
        <ele>990.5</ele>
        <time>2022-06-15T06:56:31Z</time>
      </trkpt>
      <trkpt lat="45.64552" lon="6.78586">
        <ele>990.3</ele>
        <time>2022-06-15T06:56:32Z</time>
      </trkpt>
      <trkpt lat="45.64555" lon="6.78587">
        <ele>989.6</ele>
        <time>2022-06-15T06:56:33Z</time>
      </trkpt>
      <trkpt lat="45.64558" lon="6.78587">
        <ele>990.2</ele>
        <time>2022-06-15T06:56:34Z</time>
      </trkpt>
      <trkpt lat="45.64562" lon="6.78588">
        <ele>990.6</ele>
        <time>2022-06-15T06:56:35Z</time>
      </trkpt>
      <trkpt lat="45.64565" lon="6.78588">
        <ele>991</ele>
        <time>2022-06-15T06:56:36Z</time>
      </trkpt>
      <trkpt lat="45.64569" lon="6.78589">
        <ele>991.3</ele>
        <time>2022-06-15T06:56:37Z</time>
      </trkpt>
      <trkpt lat="45.64572" lon="6.7859">
        <ele>991.5</ele>
        <time>2022-06-15T06:56:38Z</time>
      </trkpt>
      <trkpt lat="45.64575" lon="6.78592">
        <ele>991.7</ele>
        <time>2022-06-15T06:56:39Z</time>
      </trkpt>
      <trkpt lat="45.64579" lon="6.78593">
        <ele>991.8</ele>
        <time>2022-06-15T06:56:40Z</time>
      </trkpt>
      <trkpt lat="45.64582" lon="6.78594">
        <ele>991.9</ele>
        <time>2022-06-15T06:56:41Z</time>
      </trkpt>
      <trkpt lat="45.64586" lon="6.78596">
        <ele>991.8</ele>
        <time>2022-06-15T06:56:42Z</time>
      </trkpt>
      <trkpt lat="45.64589" lon="6.78598">
        <ele>991.8</ele>
        <time>2022-06-15T06:56:43Z</time>
      </trkpt>
      <trkpt lat="45.64592" lon="6.78599">
        <ele>991.9</ele>
        <time>2022-06-15T06:56:44Z</time>
      </trkpt>
      <trkpt lat="45.64595" lon="6.78601">
        <ele>991.9</ele>
        <time>2022-06-15T06:56:45Z</time>
      </trkpt>
      <trkpt lat="45.64598" lon="6.78602">
        <ele>992.1</ele>
        <time>2022-06-15T06:56:46Z</time>
      </trkpt>
      <trkpt lat="45.64601" lon="6.78602">
        <ele>992.6</ele>
        <time>2022-06-15T06:56:47Z</time>
      </trkpt>
      <trkpt lat="45.64604" lon="6.78603">
        <ele>992.9</ele>
        <time>2022-06-15T06:56:48Z</time>
      </trkpt>
      <trkpt lat="45.64608" lon="6.78604">
        <ele>993.3</ele>
        <time>2022-06-15T06:56:49Z</time>
      </trkpt>
      <trkpt lat="45.64611" lon="6.78604">
        <ele>993.7</ele>
        <time>2022-06-15T06:56:50Z</time>
      </trkpt>
      <trkpt lat="45.64615" lon="6.78605">
        <ele>994</ele>
        <time>2022-06-15T06:56:51Z</time>
      </trkpt>
      <trkpt lat="45.64618" lon="6.78606">
        <ele>993.9</ele>
        <time>2022-06-15T06:56:52Z</time>
      </trkpt>
      <trkpt lat="45.64622" lon="6.78608">
        <ele>993.7</ele>
        <time>2022-06-15T06:56:53Z</time>
      </trkpt>
      <trkpt lat="45.64625" lon="6.7861">
        <ele>993.4</ele>
        <time>2022-06-15T06:56:54Z</time>
      </trkpt>
      <trkpt lat="45.64629" lon="6.78611">
        <ele>993.4</ele>
        <time>2022-06-15T06:56:55Z</time>
      </trkpt>
      <trkpt lat="45.64632" lon="6.78612">
        <ele>993.5</ele>
        <time>2022-06-15T06:56:56Z</time>
      </trkpt>
      <trkpt lat="45.64636" lon="6.78613">
        <ele>993.7</ele>
        <time>2022-06-15T06:56:57Z</time>
      </trkpt>
      <trkpt lat="45.64639" lon="6.78614">
        <ele>994</ele>
        <time>2022-06-15T06:56:58Z</time>
      </trkpt>
      <trkpt lat="45.64643" lon="6.78614">
        <ele>993.9</ele>
        <time>2022-06-15T06:56:59Z</time>
      </trkpt>
      <trkpt lat="45.64647" lon="6.78614">
        <ele>994.1</ele>
        <time>2022-06-15T06:57:00Z</time>
      </trkpt>
      <trkpt lat="45.64651" lon="6.78614">
        <ele>994.4</ele>
        <time>2022-06-15T06:57:01Z</time>
      </trkpt>
      <trkpt lat="45.64655" lon="6.78613">
        <ele>994.6</ele>
        <time>2022-06-15T06:57:02Z</time>
      </trkpt>
      <trkpt lat="45.64659" lon="6.78613">
        <ele>994.9</ele>
        <time>2022-06-15T06:57:03Z</time>
      </trkpt>
      <trkpt lat="45.64663" lon="6.78612">
        <ele>995.6</ele>
        <time>2022-06-15T06:57:04Z</time>
      </trkpt>
      <trkpt lat="45.64666" lon="6.78611">
        <ele>996</ele>
        <time>2022-06-15T06:57:05Z</time>
      </trkpt>
      <trkpt lat="45.6467" lon="6.7861">
        <ele>996.5</ele>
        <time>2022-06-15T06:57:06Z</time>
      </trkpt>
      <trkpt lat="45.64674" lon="6.78609">
        <ele>996.8</ele>
        <time>2022-06-15T06:57:07Z</time>
      </trkpt>
      <trkpt lat="45.64678" lon="6.78608">
        <ele>996.9</ele>
        <time>2022-06-15T06:57:08Z</time>
      </trkpt>
      <trkpt lat="45.64681" lon="6.78608">
        <ele>996.8</ele>
        <time>2022-06-15T06:57:09Z</time>
      </trkpt>
      <trkpt lat="45.64685" lon="6.78608">
        <ele>996.7</ele>
        <time>2022-06-15T06:57:10Z</time>
      </trkpt>
      <trkpt lat="45.64688" lon="6.78608">
        <ele>996.5</ele>
        <time>2022-06-15T06:57:11Z</time>
      </trkpt>
      <trkpt lat="45.64692" lon="6.78608">
        <ele>996.1</ele>
        <time>2022-06-15T06:57:12Z</time>
      </trkpt>
      <trkpt lat="45.64695" lon="6.78608">
        <ele>995.8</ele>
        <time>2022-06-15T06:57:13Z</time>
      </trkpt>
      <trkpt lat="45.64699" lon="6.78608">
        <ele>996.3</ele>
        <time>2022-06-15T06:57:14Z</time>
      </trkpt>
      <trkpt lat="45.64702" lon="6.78608">
        <ele>996.4</ele>
        <time>2022-06-15T06:57:15Z</time>
      </trkpt>
      <trkpt lat="45.64705" lon="6.78608">
        <ele>996.5</ele>
        <time>2022-06-15T06:57:16Z</time>
      </trkpt>
      <trkpt lat="45.64709" lon="6.78609">
        <ele>996.4</ele>
        <time>2022-06-15T06:57:17Z</time>
      </trkpt>
      <trkpt lat="45.64712" lon="6.78609">
        <ele>996.4</ele>
        <time>2022-06-15T06:57:18Z</time>
      </trkpt>
      <trkpt lat="45.64716" lon="6.7861">
        <ele>996.1</ele>
        <time>2022-06-15T06:57:19Z</time>
      </trkpt>
      <trkpt lat="45.64719" lon="6.78611">
        <ele>995.9</ele>
        <time>2022-06-15T06:57:20Z</time>
      </trkpt>
      <trkpt lat="45.64722" lon="6.78612">
        <ele>995.8</ele>
        <time>2022-06-15T06:57:21Z</time>
      </trkpt>
      <trkpt lat="45.64725" lon="6.78613">
        <ele>996.3</ele>
        <time>2022-06-15T06:57:22Z</time>
      </trkpt>
      <trkpt lat="45.64728" lon="6.78613">
        <ele>997.2</ele>
        <time>2022-06-15T06:57:23Z</time>
      </trkpt>
      <trkpt lat="45.64731" lon="6.78613">
        <ele>997.8</ele>
        <time>2022-06-15T06:57:24Z</time>
      </trkpt>
      <trkpt lat="45.64734" lon="6.78614">
        <ele>998.1</ele>
        <time>2022-06-15T06:57:25Z</time>
      </trkpt>
      <trkpt lat="45.64737" lon="6.78616">
        <ele>998.4</ele>
        <time>2022-06-15T06:57:26Z</time>
      </trkpt>
      <trkpt lat="45.64739" lon="6.78616">
        <ele>998.9</ele>
        <time>2022-06-15T06:57:27Z</time>
      </trkpt>
      <trkpt lat="45.64742" lon="6.78617">
        <ele>999.4</ele>
        <time>2022-06-15T06:57:28Z</time>
      </trkpt>
      <trkpt lat="45.64745" lon="6.78618">
        <ele>999.6</ele>
        <time>2022-06-15T06:57:29Z</time>
      </trkpt>
      <trkpt lat="45.64748" lon="6.7862">
        <ele>999.7</ele>
        <time>2022-06-15T06:57:30Z</time>
      </trkpt>
      <trkpt lat="45.6475" lon="6.78621">
        <ele>999.9</ele>
        <time>2022-06-15T06:57:31Z</time>
      </trkpt>
      <trkpt lat="45.64752" lon="6.78621">
        <ele>1000</ele>
        <time>2022-06-15T06:57:32Z</time>
      </trkpt>
      <trkpt lat="45.64755" lon="6.78622">
        <ele>1000.1</ele>
        <time>2022-06-15T06:57:33Z</time>
      </trkpt>
      <trkpt lat="45.64757" lon="6.78624">
        <ele>1000.1</ele>
        <time>2022-06-15T06:57:34Z</time>
      </trkpt>
      <trkpt lat="45.6476" lon="6.78625">
        <ele>1000.1</ele>
        <time>2022-06-15T06:57:35Z</time>
      </trkpt>
      <trkpt lat="45.64762" lon="6.78626">
        <ele>1000.2</ele>
        <time>2022-06-15T06:57:36Z</time>
      </trkpt>
      <trkpt lat="45.64765" lon="6.78627">
        <ele>1000.3</ele>
        <time>2022-06-15T06:57:37Z</time>
      </trkpt>
      <trkpt lat="45.64767" lon="6.78629">
        <ele>1000.4</ele>
        <time>2022-06-15T06:57:38Z</time>
      </trkpt>
      <trkpt lat="45.6477" lon="6.7863">
        <ele>1000.4</ele>
        <time>2022-06-15T06:57:39Z</time>
      </trkpt>
      <trkpt lat="45.64772" lon="6.78632">
        <ele>1000.5</ele>
        <time>2022-06-15T06:57:40Z</time>
      </trkpt>
      <trkpt lat="45.64775" lon="6.78633">
        <ele>1000.6</ele>
        <time>2022-06-15T06:57:41Z</time>
      </trkpt>
      <trkpt lat="45.64777" lon="6.78635">
        <ele>1000.7</ele>
        <time>2022-06-15T06:57:42Z</time>
      </trkpt>
      <trkpt lat="45.6478" lon="6.78637">
        <ele>1000.9</ele>
        <time>2022-06-15T06:57:43Z</time>
      </trkpt>
      <trkpt lat="45.64783" lon="6.78638">
        <ele>1000.9</ele>
        <time>2022-06-15T06:57:44Z</time>
      </trkpt>
      <trkpt lat="45.64786" lon="6.7864">
        <ele>1000.9</ele>
        <time>2022-06-15T06:57:45Z</time>
      </trkpt>
      <trkpt lat="45.64789" lon="6.78642">
        <ele>1001</ele>
        <time>2022-06-15T06:57:46Z</time>
      </trkpt>
      <trkpt lat="45.64791" lon="6.78643">
        <ele>1001</ele>
        <time>2022-06-15T06:57:47Z</time>
      </trkpt>
      <trkpt lat="45.64793" lon="6.78645">
        <ele>1001.1</ele>
        <time>2022-06-15T06:57:48Z</time>
      </trkpt>
      <trkpt lat="45.64796" lon="6.78647">
        <ele>1001.3</ele>
        <time>2022-06-15T06:57:49Z</time>
      </trkpt>
      <trkpt lat="45.64798" lon="6.78648">
        <ele>1001.4</ele>
        <time>2022-06-15T06:57:50Z</time>
      </trkpt>
      <trkpt lat="45.64801" lon="6.78649">
        <ele>1001.7</ele>
        <time>2022-06-15T06:57:51Z</time>
      </trkpt>
      <trkpt lat="45.64804" lon="6.78651">
        <ele>1002</ele>
        <time>2022-06-15T06:57:52Z</time>
      </trkpt>
      <trkpt lat="45.64807" lon="6.78653">
        <ele>1002.1</ele>
        <time>2022-06-15T06:57:53Z</time>
      </trkpt>
      <trkpt lat="45.64809" lon="6.78654">
        <ele>1002.2</ele>
        <time>2022-06-15T06:57:54Z</time>
      </trkpt>
      <trkpt lat="45.64812" lon="6.78656">
        <ele>1002.2</ele>
        <time>2022-06-15T06:57:55Z</time>
      </trkpt>
      <trkpt lat="45.64815" lon="6.78658">
        <ele>1002.4</ele>
        <time>2022-06-15T06:57:56Z</time>
      </trkpt>
      <trkpt lat="45.64817" lon="6.78659">
        <ele>1002.5</ele>
        <time>2022-06-15T06:57:57Z</time>
      </trkpt>
      <trkpt lat="45.64819" lon="6.78661">
        <ele>1002.6</ele>
        <time>2022-06-15T06:57:58Z</time>
      </trkpt>
      <trkpt lat="45.64822" lon="6.78662">
        <ele>1002.8</ele>
        <time>2022-06-15T06:57:59Z</time>
      </trkpt>
      <trkpt lat="45.64824" lon="6.78663">
        <ele>1003</ele>
        <time>2022-06-15T06:58:00Z</time>
      </trkpt>
      <trkpt lat="45.64826" lon="6.78665">
        <ele>1003.1</ele>
        <time>2022-06-15T06:58:01Z</time>
      </trkpt>
      <trkpt lat="45.64828" lon="6.78667">
        <ele>1003.3</ele>
        <time>2022-06-15T06:58:02Z</time>
      </trkpt>
      <trkpt lat="45.64831" lon="6.78668">
        <ele>1003.2</ele>
        <time>2022-06-15T06:58:03Z</time>
      </trkpt>
      <trkpt lat="45.64834" lon="6.7867">
        <ele>1003</ele>
        <time>2022-06-15T06:58:04Z</time>
      </trkpt>
      <trkpt lat="45.64836" lon="6.78672">
        <ele>1002.6</ele>
        <time>2022-06-15T06:58:05Z</time>
      </trkpt>
      <trkpt lat="45.64838" lon="6.78674">
        <ele>1002.3</ele>
        <time>2022-06-15T06:58:06Z</time>
      </trkpt>
      <trkpt lat="45.64841" lon="6.78675">
        <ele>1002.3</ele>
        <time>2022-06-15T06:58:07Z</time>
      </trkpt>
      <trkpt lat="45.64844" lon="6.78677">
        <ele>1002.3</ele>
        <time>2022-06-15T06:58:08Z</time>
      </trkpt>
      <trkpt lat="45.64846" lon="6.78679">
        <ele>1002.4</ele>
        <time>2022-06-15T06:58:09Z</time>
      </trkpt>
      <trkpt lat="45.64849" lon="6.7868">
        <ele>1002.6</ele>
        <time>2022-06-15T06:58:10Z</time>
      </trkpt>
      <trkpt lat="45.64851" lon="6.78682">
        <ele>1002.7</ele>
        <time>2022-06-15T06:58:11Z</time>
      </trkpt>
      <trkpt lat="45.64853" lon="6.78684">
        <ele>1002.9</ele>
        <time>2022-06-15T06:58:12Z</time>
      </trkpt>
      <trkpt lat="45.64855" lon="6.78686">
        <ele>1003.3</ele>
        <time>2022-06-15T06:58:13Z</time>
      </trkpt>
      <trkpt lat="45.64857" lon="6.78689">
        <ele>1003.7</ele>
        <time>2022-06-15T06:58:14Z</time>
      </trkpt>
      <trkpt lat="45.64859" lon="6.78691">
        <ele>1004.2</ele>
        <time>2022-06-15T06:58:15Z</time>
      </trkpt>
      <trkpt lat="45.64861" lon="6.78692">
        <ele>1004.8</ele>
        <time>2022-06-15T06:58:16Z</time>
      </trkpt>
      <trkpt lat="45.64863" lon="6.78694">
        <ele>1005.3</ele>
        <time>2022-06-15T06:58:17Z</time>
      </trkpt>
      <trkpt lat="45.64865" lon="6.78695">
        <ele>1005.6</ele>
        <time>2022-06-15T06:58:18Z</time>
      </trkpt>
      <trkpt lat="45.64868" lon="6.78696">
        <ele>1005.7</ele>
        <time>2022-06-15T06:58:19Z</time>
      </trkpt>
      <trkpt lat="45.6487" lon="6.78698">
        <ele>1005.8</ele>
        <time>2022-06-15T06:58:20Z</time>
      </trkpt>
      <trkpt lat="45.64872" lon="6.787">
        <ele>1005.7</ele>
        <time>2022-06-15T06:58:21Z</time>
      </trkpt>
      <trkpt lat="45.64875" lon="6.78702">
        <ele>1005.8</ele>
        <time>2022-06-15T06:58:22Z</time>
      </trkpt>
      <trkpt lat="45.64877" lon="6.78704">
        <ele>1005.8</ele>
        <time>2022-06-15T06:58:23Z</time>
      </trkpt>
      <trkpt lat="45.64879" lon="6.78706">
        <ele>1005.9</ele>
        <time>2022-06-15T06:58:24Z</time>
      </trkpt>
      <trkpt lat="45.64881" lon="6.78708">
        <ele>1006.1</ele>
        <time>2022-06-15T06:58:25Z</time>
      </trkpt>
      <trkpt lat="45.64883" lon="6.7871">
        <ele>1006.3</ele>
        <time>2022-06-15T06:58:26Z</time>
      </trkpt>
      <trkpt lat="45.64885" lon="6.78711">
        <ele>1006.6</ele>
        <time>2022-06-15T06:58:27Z</time>
      </trkpt>
      <trkpt lat="45.64887" lon="6.78713">
        <ele>1006.9</ele>
        <time>2022-06-15T06:58:28Z</time>
      </trkpt>
      <trkpt lat="45.6489" lon="6.78714">
        <ele>1007.3</ele>
        <time>2022-06-15T06:58:29Z</time>
      </trkpt>
      <trkpt lat="45.64891" lon="6.78716">
        <ele>1007.5</ele>
        <time>2022-06-15T06:58:30Z</time>
      </trkpt>
      <trkpt lat="45.64894" lon="6.78718">
        <ele>1007.7</ele>
        <time>2022-06-15T06:58:31Z</time>
      </trkpt>
      <trkpt lat="45.64896" lon="6.7872">
        <ele>1007.8</ele>
        <time>2022-06-15T06:58:32Z</time>
      </trkpt>
      <trkpt lat="45.64898" lon="6.78722">
        <ele>1007.8</ele>
        <time>2022-06-15T06:58:33Z</time>
      </trkpt>
      <trkpt lat="45.649" lon="6.78723">
        <ele>1007.9</ele>
        <time>2022-06-15T06:58:34Z</time>
      </trkpt>
      <trkpt lat="45.64902" lon="6.78725">
        <ele>1008</ele>
        <time>2022-06-15T06:58:35Z</time>
      </trkpt>
      <trkpt lat="45.64904" lon="6.78727">
        <ele>1008.1</ele>
        <time>2022-06-15T06:58:36Z</time>
      </trkpt>
      <trkpt lat="45.64907" lon="6.78728">
        <ele>1008.4</ele>
        <time>2022-06-15T06:58:37Z</time>
      </trkpt>
      <trkpt lat="45.64909" lon="6.78729">
        <ele>1008.6</ele>
        <time>2022-06-15T06:58:38Z</time>
      </trkpt>
      <trkpt lat="45.64911" lon="6.7873">
        <ele>1008.8</ele>
        <time>2022-06-15T06:58:39Z</time>
      </trkpt>
      <trkpt lat="45.64913" lon="6.78732">
        <ele>1009</ele>
        <time>2022-06-15T06:58:40Z</time>
      </trkpt>
      <trkpt lat="45.64916" lon="6.78733">
        <ele>1009.3</ele>
        <time>2022-06-15T06:58:41Z</time>
      </trkpt>
      <trkpt lat="45.64918" lon="6.78734">
        <ele>1009.4</ele>
        <time>2022-06-15T06:58:42Z</time>
      </trkpt>
      <trkpt lat="45.6492" lon="6.78736">
        <ele>1009.5</ele>
        <time>2022-06-15T06:58:43Z</time>
      </trkpt>
      <trkpt lat="45.64922" lon="6.78737">
        <ele>1009.5</ele>
        <time>2022-06-15T06:58:44Z</time>
      </trkpt>
      <trkpt lat="45.64924" lon="6.78738">
        <ele>1009.6</ele>
        <time>2022-06-15T06:58:45Z</time>
      </trkpt>
      <trkpt lat="45.64926" lon="6.7874">
        <ele>1009.6</ele>
        <time>2022-06-15T06:58:46Z</time>
      </trkpt>
      <trkpt lat="45.64928" lon="6.78741">
        <ele>1009.7</ele>
        <time>2022-06-15T06:58:47Z</time>
      </trkpt>
      <trkpt lat="45.6493" lon="6.78742">
        <ele>1009.7</ele>
        <time>2022-06-15T06:58:48Z</time>
      </trkpt>
      <trkpt lat="45.64932" lon="6.78744">
        <ele>1009.7</ele>
        <time>2022-06-15T06:58:49Z</time>
      </trkpt>
      <trkpt lat="45.64935" lon="6.78746">
        <ele>1009.6</ele>
        <time>2022-06-15T06:58:50Z</time>
      </trkpt>
      <trkpt lat="45.64936" lon="6.78748">
        <ele>1009.5</ele>
        <time>2022-06-15T06:58:51Z</time>
      </trkpt>
      <trkpt lat="45.64938" lon="6.7875">
        <ele>1009.4</ele>
        <time>2022-06-15T06:58:52Z</time>
      </trkpt>
      <trkpt lat="45.6494" lon="6.78751">
        <ele>1009.4</ele>
        <time>2022-06-15T06:58:53Z</time>
      </trkpt>
      <trkpt lat="45.64942" lon="6.78753">
        <ele>1009.4</ele>
        <time>2022-06-15T06:58:54Z</time>
      </trkpt>
      <trkpt lat="45.64944" lon="6.78755">
        <ele>1009.4</ele>
        <time>2022-06-15T06:58:55Z</time>
      </trkpt>
      <trkpt lat="45.64946" lon="6.78756">
        <ele>1009.3</ele>
        <time>2022-06-15T06:58:56Z</time>
      </trkpt>
      <trkpt lat="45.64948" lon="6.78758">
        <ele>1009.2</ele>
        <time>2022-06-15T06:58:57Z</time>
      </trkpt>
      <trkpt lat="45.64951" lon="6.78759">
        <ele>1009.1</ele>
        <time>2022-06-15T06:58:58Z</time>
      </trkpt>
      <trkpt lat="45.64953" lon="6.78761">
        <ele>1009.2</ele>
        <time>2022-06-15T06:58:59Z</time>
      </trkpt>
      <trkpt lat="45.64955" lon="6.78762">
        <ele>1009.2</ele>
        <time>2022-06-15T06:59:00Z</time>
      </trkpt>
      <trkpt lat="45.64957" lon="6.78764">
        <ele>1009.4</ele>
        <time>2022-06-15T06:59:01Z</time>
      </trkpt>
      <trkpt lat="45.64959" lon="6.78766">
        <ele>1009.6</ele>
        <time>2022-06-15T06:59:02Z</time>
      </trkpt>
      <trkpt lat="45.64961" lon="6.78767">
        <ele>1009.9</ele>
        <time>2022-06-15T06:59:03Z</time>
      </trkpt>
      <trkpt lat="45.64963" lon="6.78768">
        <ele>1010.2</ele>
        <time>2022-06-15T06:59:04Z</time>
      </trkpt>
      <trkpt lat="45.64965" lon="6.7877">
        <ele>1010.6</ele>
        <time>2022-06-15T06:59:05Z</time>
      </trkpt>
      <trkpt lat="45.64967" lon="6.78771">
        <ele>1011</ele>
        <time>2022-06-15T06:59:06Z</time>
      </trkpt>
      <trkpt lat="45.64969" lon="6.78772">
        <ele>1011.5</ele>
        <time>2022-06-15T06:59:07Z</time>
      </trkpt>
      <trkpt lat="45.64972" lon="6.78774">
        <ele>1012.1</ele>
        <time>2022-06-15T06:59:08Z</time>
      </trkpt>
      <trkpt lat="45.64974" lon="6.78775">
        <ele>1012.7</ele>
        <time>2022-06-15T06:59:09Z</time>
      </trkpt>
      <trkpt lat="45.64975" lon="6.78776">
        <ele>1013.1</ele>
        <time>2022-06-15T06:59:10Z</time>
      </trkpt>
      <trkpt lat="45.64978" lon="6.78776">
        <ele>1013.6</ele>
        <time>2022-06-15T06:59:11Z</time>
      </trkpt>
      <trkpt lat="45.6498" lon="6.78777">
        <ele>1014.2</ele>
        <time>2022-06-15T06:59:12Z</time>
      </trkpt>
      <trkpt lat="45.64982" lon="6.78778">
        <ele>1014.7</ele>
        <time>2022-06-15T06:59:13Z</time>
      </trkpt>
      <trkpt lat="45.64984" lon="6.78779">
        <ele>1015.2</ele>
        <time>2022-06-15T06:59:14Z</time>
      </trkpt>
      <trkpt lat="45.64985" lon="6.7878">
        <ele>1015.6</ele>
        <time>2022-06-15T06:59:15Z</time>
      </trkpt>
      <trkpt lat="45.64988" lon="6.78781">
        <ele>1016.1</ele>
        <time>2022-06-15T06:59:16Z</time>
      </trkpt>
      <trkpt lat="45.6499" lon="6.78781">
        <ele>1016.5</ele>
        <time>2022-06-15T06:59:17Z</time>
      </trkpt>
      <trkpt lat="45.64992" lon="6.78782">
        <ele>1016.9</ele>
        <time>2022-06-15T06:59:18Z</time>
      </trkpt>
      <trkpt lat="45.64994" lon="6.78782">
        <ele>1017.2</ele>
        <time>2022-06-15T06:59:19Z</time>
      </trkpt>
      <trkpt lat="45.64996" lon="6.78782">
        <ele>1017.6</ele>
        <time>2022-06-15T06:59:20Z</time>
      </trkpt>
      <trkpt lat="45.64998" lon="6.78782">
        <ele>1017.8</ele>
        <time>2022-06-15T06:59:21Z</time>
      </trkpt>
      <trkpt lat="45.65" lon="6.78782">
        <ele>1018.1</ele>
        <time>2022-06-15T06:59:22Z</time>
      </trkpt>
      <trkpt lat="45.65002" lon="6.78782">
        <ele>1018.4</ele>
        <time>2022-06-15T06:59:23Z</time>
      </trkpt>
      <trkpt lat="45.65004" lon="6.78782">
        <ele>1018.7</ele>
        <time>2022-06-15T06:59:24Z</time>
      </trkpt>
      <trkpt lat="45.65006" lon="6.78782">
        <ele>1019</ele>
        <time>2022-06-15T06:59:25Z</time>
      </trkpt>
      <trkpt lat="45.65009" lon="6.78782">
        <ele>1019.4</ele>
        <time>2022-06-15T06:59:26Z</time>
      </trkpt>
      <trkpt lat="45.65011" lon="6.78783">
        <ele>1019.7</ele>
        <time>2022-06-15T06:59:27Z</time>
      </trkpt>
      <trkpt lat="45.65013" lon="6.78783">
        <ele>1020</ele>
        <time>2022-06-15T06:59:28Z</time>
      </trkpt>
      <trkpt lat="45.65015" lon="6.78783">
        <ele>1020.4</ele>
        <time>2022-06-15T06:59:29Z</time>
      </trkpt>
      <trkpt lat="45.65017" lon="6.78783">
        <ele>1020.7</ele>
        <time>2022-06-15T06:59:30Z</time>
      </trkpt>
      <trkpt lat="45.65019" lon="6.78783">
        <ele>1020.9</ele>
        <time>2022-06-15T06:59:31Z</time>
      </trkpt>
      <trkpt lat="45.65021" lon="6.78783">
        <ele>1021.2</ele>
        <time>2022-06-15T06:59:32Z</time>
      </trkpt>
      <trkpt lat="45.65024" lon="6.78783">
        <ele>1021.6</ele>
        <time>2022-06-15T06:59:33Z</time>
      </trkpt>
      <trkpt lat="45.65026" lon="6.78782">
        <ele>1021.8</ele>
        <time>2022-06-15T06:59:34Z</time>
      </trkpt>
      <trkpt lat="45.65028" lon="6.78782">
        <ele>1021.9</ele>
        <time>2022-06-15T06:59:35Z</time>
      </trkpt>
      <trkpt lat="45.65029" lon="6.78781">
        <ele>1022</ele>
        <time>2022-06-15T06:59:36Z</time>
      </trkpt>
      <trkpt lat="45.65031" lon="6.78782">
        <ele>1022.2</ele>
        <time>2022-06-15T06:59:37Z</time>
      </trkpt>
      <trkpt lat="45.65033" lon="6.78782">
        <ele>1022.4</ele>
        <time>2022-06-15T06:59:38Z</time>
      </trkpt>
      <trkpt lat="45.65035" lon="6.78782">
        <ele>1022.6</ele>
        <time>2022-06-15T06:59:39Z</time>
      </trkpt>
      <trkpt lat="45.65037" lon="6.78781">
        <ele>1022.7</ele>
        <time>2022-06-15T06:59:40Z</time>
      </trkpt>
      <trkpt lat="45.6504" lon="6.78782">
        <ele>1023</ele>
        <time>2022-06-15T06:59:41Z</time>
      </trkpt>
      <trkpt lat="45.65042" lon="6.78781">
        <ele>1023.1</ele>
        <time>2022-06-15T06:59:42Z</time>
      </trkpt>
      <trkpt lat="45.65044" lon="6.78781">
        <ele>1023.1</ele>
        <time>2022-06-15T06:59:43Z</time>
      </trkpt>
      <trkpt lat="45.65046" lon="6.7878">
        <ele>1023.1</ele>
        <time>2022-06-15T06:59:44Z</time>
      </trkpt>
      <trkpt lat="45.65048" lon="6.7878">
        <ele>1023.3</ele>
        <time>2022-06-15T06:59:45Z</time>
      </trkpt>
      <trkpt lat="45.6505" lon="6.7878">
        <ele>1023.4</ele>
        <time>2022-06-15T06:59:46Z</time>
      </trkpt>
      <trkpt lat="45.65053" lon="6.7878">
        <ele>1023.5</ele>
        <time>2022-06-15T06:59:47Z</time>
      </trkpt>
      <trkpt lat="45.65055" lon="6.7878">
        <ele>1023.6</ele>
        <time>2022-06-15T06:59:48Z</time>
      </trkpt>
      <trkpt lat="45.65056" lon="6.78779">
        <ele>1023.6</ele>
        <time>2022-06-15T06:59:49Z</time>
      </trkpt>
      <trkpt lat="45.65058" lon="6.78779">
        <ele>1023.9</ele>
        <time>2022-06-15T06:59:50Z</time>
      </trkpt>
      <trkpt lat="45.6506" lon="6.7878">
        <ele>1024.2</ele>
        <time>2022-06-15T06:59:51Z</time>
      </trkpt>
      <trkpt lat="45.65062" lon="6.78779">
        <ele>1024.4</ele>
        <time>2022-06-15T06:59:52Z</time>
      </trkpt>
      <trkpt lat="45.65064" lon="6.7878">
        <ele>1024.9</ele>
        <time>2022-06-15T06:59:53Z</time>
      </trkpt>
      <trkpt lat="45.65066" lon="6.7878">
        <ele>1025.1</ele>
        <time>2022-06-15T06:59:54Z</time>
      </trkpt>
      <trkpt lat="45.65068" lon="6.78779">
        <ele>1025.1</ele>
        <time>2022-06-15T06:59:55Z</time>
      </trkpt>
      <trkpt lat="45.6507" lon="6.78778">
        <ele>1025</ele>
        <time>2022-06-15T06:59:56Z</time>
      </trkpt>
      <trkpt lat="45.65072" lon="6.78777">
        <ele>1025.2</ele>
        <time>2022-06-15T06:59:57Z</time>
      </trkpt>
      <trkpt lat="45.65074" lon="6.78777">
        <ele>1025.5</ele>
        <time>2022-06-15T06:59:58Z</time>
      </trkpt>
      <trkpt lat="45.65076" lon="6.78777">
        <ele>1025.8</ele>
        <time>2022-06-15T06:59:59Z</time>
      </trkpt>
      <trkpt lat="45.65078" lon="6.78777">
        <ele>1026.1</ele>
        <time>2022-06-15T07:00:00Z</time>
      </trkpt>
      <trkpt lat="45.6508" lon="6.78777">
        <ele>1026.3</ele>
        <time>2022-06-15T07:00:01Z</time>
      </trkpt>
      <trkpt lat="45.65082" lon="6.78776">
        <ele>1026.4</ele>
        <time>2022-06-15T07:00:02Z</time>
      </trkpt>
      <trkpt lat="45.65084" lon="6.78776">
        <ele>1026.7</ele>
        <time>2022-06-15T07:00:03Z</time>
      </trkpt>
      <trkpt lat="45.65086" lon="6.78776">
        <ele>1026.9</ele>
        <time>2022-06-15T07:00:04Z</time>
      </trkpt>
      <trkpt lat="45.65088" lon="6.78777">
        <ele>1027.2</ele>
        <time>2022-06-15T07:00:05Z</time>
      </trkpt>
      <trkpt lat="45.6509" lon="6.78777">
        <ele>1027.5</ele>
        <time>2022-06-15T07:00:06Z</time>
      </trkpt>
      <trkpt lat="45.65093" lon="6.78776">
        <ele>1027.6</ele>
        <time>2022-06-15T07:00:07Z</time>
      </trkpt>
      <trkpt lat="45.65095" lon="6.78776">
        <ele>1027.9</ele>
        <time>2022-06-15T07:00:08Z</time>
      </trkpt>
      <trkpt lat="45.65097" lon="6.78775">
        <ele>1027.9</ele>
        <time>2022-06-15T07:00:09Z</time>
      </trkpt>
      <trkpt lat="45.65099" lon="6.78775">
        <ele>1028</ele>
        <time>2022-06-15T07:00:10Z</time>
      </trkpt>
      <trkpt lat="45.65101" lon="6.78774">
        <ele>1028.2</ele>
        <time>2022-06-15T07:00:11Z</time>
      </trkpt>
      <trkpt lat="45.65104" lon="6.78774">
        <ele>1028.3</ele>
        <time>2022-06-15T07:00:12Z</time>
      </trkpt>
      <trkpt lat="45.65106" lon="6.78773">
        <ele>1028.3</ele>
        <time>2022-06-15T07:00:13Z</time>
      </trkpt>
      <trkpt lat="45.65107" lon="6.78772">
        <ele>1028.2</ele>
        <time>2022-06-15T07:00:14Z</time>
      </trkpt>
      <trkpt lat="45.65109" lon="6.78771">
        <ele>1028.3</ele>
        <time>2022-06-15T07:00:15Z</time>
      </trkpt>
      <trkpt lat="45.65111" lon="6.78771">
        <ele>1028.5</ele>
        <time>2022-06-15T07:00:16Z</time>
      </trkpt>
      <trkpt lat="45.65113" lon="6.78771">
        <ele>1028.7</ele>
        <time>2022-06-15T07:00:17Z</time>
      </trkpt>
      <trkpt lat="45.65115" lon="6.78772">
        <ele>1029.1</ele>
        <time>2022-06-15T07:00:18Z</time>
      </trkpt>
      <trkpt lat="45.65117" lon="6.78772">
        <ele>1029.5</ele>
        <time>2022-06-15T07:00:19Z</time>
      </trkpt>
      <trkpt lat="45.65119" lon="6.78772">
        <ele>1029.7</ele>
        <time>2022-06-15T07:00:20Z</time>
      </trkpt>
      <trkpt lat="45.65122" lon="6.78772">
        <ele>1030</ele>
        <time>2022-06-15T07:00:21Z</time>
      </trkpt>
      <trkpt lat="45.65124" lon="6.78772">
        <ele>1030.2</ele>
        <time>2022-06-15T07:00:22Z</time>
      </trkpt>
      <trkpt lat="45.65126" lon="6.78771">
        <ele>1030.3</ele>
        <time>2022-06-15T07:00:23Z</time>
      </trkpt>
      <trkpt lat="45.65128" lon="6.7877">
        <ele>1030.3</ele>
        <time>2022-06-15T07:00:24Z</time>
      </trkpt>
      <trkpt lat="45.6513" lon="6.78769">
        <ele>1030.3</ele>
        <time>2022-06-15T07:00:25Z</time>
      </trkpt>
      <trkpt lat="45.65132" lon="6.78768">
        <ele>1030.3</ele>
        <time>2022-06-15T07:00:26Z</time>
      </trkpt>
      <trkpt lat="45.65134" lon="6.78766">
        <ele>1030.2</ele>
        <time>2022-06-15T07:00:27Z</time>
      </trkpt>
      <trkpt lat="45.65136" lon="6.78765">
        <ele>1030.2</ele>
        <time>2022-06-15T07:00:28Z</time>
      </trkpt>
      <trkpt lat="45.65138" lon="6.78764">
        <ele>1030.3</ele>
        <time>2022-06-15T07:00:29Z</time>
      </trkpt>
      <trkpt lat="45.6514" lon="6.78763">
        <ele>1030.5</ele>
        <time>2022-06-15T07:00:30Z</time>
      </trkpt>
      <trkpt lat="45.65141" lon="6.78762">
        <ele>1030.9</ele>
        <time>2022-06-15T07:00:31Z</time>
      </trkpt>
      <trkpt lat="45.65143" lon="6.7876">
        <ele>1031.4</ele>
        <time>2022-06-15T07:00:32Z</time>
      </trkpt>
      <trkpt lat="45.65145" lon="6.78759">
        <ele>1031.7</ele>
        <time>2022-06-15T07:00:33Z</time>
      </trkpt>
      <trkpt lat="45.65147" lon="6.78758">
        <ele>1032.3</ele>
        <time>2022-06-15T07:00:34Z</time>
      </trkpt>
      <trkpt lat="45.65149" lon="6.78757">
        <ele>1032.8</ele>
        <time>2022-06-15T07:00:35Z</time>
      </trkpt>
      <trkpt lat="45.65151" lon="6.78756">
        <ele>1033.1</ele>
        <time>2022-06-15T07:00:36Z</time>
      </trkpt>
      <trkpt lat="45.65153" lon="6.78755">
        <ele>1033.4</ele>
        <time>2022-06-15T07:00:37Z</time>
      </trkpt>
      <trkpt lat="45.65155" lon="6.78754">
        <ele>1033.7</ele>
        <time>2022-06-15T07:00:38Z</time>
      </trkpt>
      <trkpt lat="45.65157" lon="6.78752">
        <ele>1033.8</ele>
        <time>2022-06-15T07:00:39Z</time>
      </trkpt>
      <trkpt lat="45.65158" lon="6.78751">
        <ele>1033.7</ele>
        <time>2022-06-15T07:00:40Z</time>
      </trkpt>
      <trkpt lat="45.65159" lon="6.78749">
        <ele>1033.7</ele>
        <time>2022-06-15T07:00:41Z</time>
      </trkpt>
      <trkpt lat="45.65161" lon="6.78748">
        <ele>1033.9</ele>
        <time>2022-06-15T07:00:42Z</time>
      </trkpt>
      <trkpt lat="45.65162" lon="6.78746">
        <ele>1033.8</ele>
        <time>2022-06-15T07:00:43Z</time>
      </trkpt>
      <trkpt lat="45.65164" lon="6.78745">
        <ele>1034.1</ele>
        <time>2022-06-15T07:00:44Z</time>
      </trkpt>
      <trkpt lat="45.65165" lon="6.78743">
        <ele>1034.2</ele>
        <time>2022-06-15T07:00:45Z</time>
      </trkpt>
      <trkpt lat="45.65167" lon="6.78742">
        <ele>1034.5</ele>
        <time>2022-06-15T07:00:46Z</time>
      </trkpt>
      <trkpt lat="45.65169" lon="6.78741">
        <ele>1035.1</ele>
        <time>2022-06-15T07:00:47Z</time>
      </trkpt>
      <trkpt lat="45.65171" lon="6.7874">
        <ele>1035.6</ele>
        <time>2022-06-15T07:00:48Z</time>
      </trkpt>
      <trkpt lat="45.65173" lon="6.78738">
        <ele>1035.7</ele>
        <time>2022-06-15T07:00:49Z</time>
      </trkpt>
      <trkpt lat="45.65174" lon="6.78736">
        <ele>1036</ele>
        <time>2022-06-15T07:00:50Z</time>
      </trkpt>
      <trkpt lat="45.65176" lon="6.78735">
        <ele>1036.2</ele>
        <time>2022-06-15T07:00:51Z</time>
      </trkpt>
      <trkpt lat="45.65178" lon="6.78733">
        <ele>1036.5</ele>
        <time>2022-06-15T07:00:52Z</time>
      </trkpt>
      <trkpt lat="45.6518" lon="6.78732">
        <ele>1037</ele>
        <time>2022-06-15T07:00:53Z</time>
      </trkpt>
      <trkpt lat="45.65183" lon="6.78731">
        <ele>1037.6</ele>
        <time>2022-06-15T07:00:54Z</time>
      </trkpt>
      <trkpt lat="45.65185" lon="6.7873">
        <ele>1037.9</ele>
        <time>2022-06-15T07:00:55Z</time>
      </trkpt>
      <trkpt lat="45.65186" lon="6.78729">
        <ele>1037.9</ele>
        <time>2022-06-15T07:00:56Z</time>
      </trkpt>
      <trkpt lat="45.65188" lon="6.78728">
        <ele>1038.1</ele>
        <time>2022-06-15T07:00:57Z</time>
      </trkpt>
      <trkpt lat="45.6519" lon="6.78727">
        <ele>1038.4</ele>
        <time>2022-06-15T07:00:58Z</time>
      </trkpt>
      <trkpt lat="45.65192" lon="6.78726">
        <ele>1038.6</ele>
        <time>2022-06-15T07:00:59Z</time>
      </trkpt>
      <trkpt lat="45.65194" lon="6.78725">
        <ele>1038.7</ele>
        <time>2022-06-15T07:01:00Z</time>
      </trkpt>
      <trkpt lat="45.65195" lon="6.78724">
        <ele>1038.7</ele>
        <time>2022-06-15T07:01:01Z</time>
      </trkpt>
      <trkpt lat="45.65197" lon="6.78722">
        <ele>1038.4</ele>
        <time>2022-06-15T07:01:02Z</time>
      </trkpt>
      <trkpt lat="45.65199" lon="6.78721">
        <ele>1038.8</ele>
        <time>2022-06-15T07:01:03Z</time>
      </trkpt>
      <trkpt lat="45.65201" lon="6.7872">
        <ele>1039.1</ele>
        <time>2022-06-15T07:01:04Z</time>
      </trkpt>
      <trkpt lat="45.65202" lon="6.7872">
        <ele>1039.3</ele>
        <time>2022-06-15T07:01:05Z</time>
      </trkpt>
      <trkpt lat="45.65204" lon="6.78719">
        <ele>1039.7</ele>
        <time>2022-06-15T07:01:06Z</time>
      </trkpt>
      <trkpt lat="45.65206" lon="6.78719">
        <ele>1040</ele>
        <time>2022-06-15T07:01:07Z</time>
      </trkpt>
      <trkpt lat="45.65208" lon="6.78718">
        <ele>1040.3</ele>
        <time>2022-06-15T07:01:08Z</time>
      </trkpt>
      <trkpt lat="45.65209" lon="6.78716">
        <ele>1040.3</ele>
        <time>2022-06-15T07:01:09Z</time>
      </trkpt>
      <trkpt lat="45.65211" lon="6.78716">
        <ele>1040.7</ele>
        <time>2022-06-15T07:01:10Z</time>
      </trkpt>
      <trkpt lat="45.65213" lon="6.78715">
        <ele>1040.8</ele>
        <time>2022-06-15T07:01:11Z</time>
      </trkpt>
      <trkpt lat="45.65215" lon="6.78714">
        <ele>1041</ele>
        <time>2022-06-15T07:01:12Z</time>
      </trkpt>
      <trkpt lat="45.65217" lon="6.78713">
        <ele>1041.3</ele>
        <time>2022-06-15T07:01:13Z</time>
      </trkpt>
      <trkpt lat="45.65219" lon="6.78712">
        <ele>1041.5</ele>
        <time>2022-06-15T07:01:14Z</time>
      </trkpt>
      <trkpt lat="45.65221" lon="6.78711">
        <ele>1041.8</ele>
        <time>2022-06-15T07:01:15Z</time>
      </trkpt>
      <trkpt lat="45.65223" lon="6.7871">
        <ele>1041.9</ele>
        <time>2022-06-15T07:01:16Z</time>
      </trkpt>
      <trkpt lat="45.65226" lon="6.7871">
        <ele>1042.1</ele>
        <time>2022-06-15T07:01:17Z</time>
      </trkpt>
      <trkpt lat="45.65227" lon="6.78709">
        <ele>1042.2</ele>
        <time>2022-06-15T07:01:18Z</time>
      </trkpt>
      <trkpt lat="45.6523" lon="6.78708">
        <ele>1042.4</ele>
        <time>2022-06-15T07:01:19Z</time>
      </trkpt>
      <trkpt lat="45.65232" lon="6.78707">
        <ele>1042.6</ele>
        <time>2022-06-15T07:01:20Z</time>
      </trkpt>
      <trkpt lat="45.65234" lon="6.78706">
        <ele>1042.7</ele>
        <time>2022-06-15T07:01:21Z</time>
      </trkpt>
      <trkpt lat="45.65236" lon="6.78705">
        <ele>1042.9</ele>
        <time>2022-06-15T07:01:22Z</time>
      </trkpt>
      <trkpt lat="45.65238" lon="6.78704">
        <ele>1043.2</ele>
        <time>2022-06-15T07:01:23Z</time>
      </trkpt>
      <trkpt lat="45.65241" lon="6.78703">
        <ele>1043.5</ele>
        <time>2022-06-15T07:01:24Z</time>
      </trkpt>
      <trkpt lat="45.65243" lon="6.78702">
        <ele>1043.8</ele>
        <time>2022-06-15T07:01:25Z</time>
      </trkpt>
      <trkpt lat="45.65245" lon="6.78702">
        <ele>1044.2</ele>
        <time>2022-06-15T07:01:26Z</time>
      </trkpt>
      <trkpt lat="45.65247" lon="6.78701">
        <ele>1044.4</ele>
        <time>2022-06-15T07:01:27Z</time>
      </trkpt>
      <trkpt lat="45.65249" lon="6.787">
        <ele>1044.7</ele>
        <time>2022-06-15T07:01:28Z</time>
      </trkpt>
      <trkpt lat="45.65251" lon="6.787">
        <ele>1045.1</ele>
        <time>2022-06-15T07:01:29Z</time>
      </trkpt>
      <trkpt lat="45.65253" lon="6.78699">
        <ele>1045.3</ele>
        <time>2022-06-15T07:01:30Z</time>
      </trkpt>
      <trkpt lat="45.65255" lon="6.78699">
        <ele>1045.5</ele>
        <time>2022-06-15T07:01:31Z</time>
      </trkpt>
      <trkpt lat="45.65257" lon="6.78698">
        <ele>1045.7</ele>
        <time>2022-06-15T07:01:32Z</time>
      </trkpt>
      <trkpt lat="45.65259" lon="6.78698">
        <ele>1045.9</ele>
        <time>2022-06-15T07:01:33Z</time>
      </trkpt>
      <trkpt lat="45.65261" lon="6.78698">
        <ele>1046</ele>
        <time>2022-06-15T07:01:34Z</time>
      </trkpt>
      <trkpt lat="45.65263" lon="6.78697">
        <ele>1046.2</ele>
        <time>2022-06-15T07:01:35Z</time>
      </trkpt>
      <trkpt lat="45.65265" lon="6.78698">
        <ele>1046.4</ele>
        <time>2022-06-15T07:01:36Z</time>
      </trkpt>
      <trkpt lat="45.65267" lon="6.78698">
        <ele>1046.6</ele>
        <time>2022-06-15T07:01:37Z</time>
      </trkpt>
      <trkpt lat="45.65269" lon="6.78697">
        <ele>1046.7</ele>
        <time>2022-06-15T07:01:38Z</time>
      </trkpt>
      <trkpt lat="45.65271" lon="6.78697">
        <ele>1046.9</ele>
        <time>2022-06-15T07:01:39Z</time>
      </trkpt>
      <trkpt lat="45.65273" lon="6.78698">
        <ele>1047.1</ele>
        <time>2022-06-15T07:01:40Z</time>
      </trkpt>
      <trkpt lat="45.65275" lon="6.78698">
        <ele>1047.3</ele>
        <time>2022-06-15T07:01:41Z</time>
      </trkpt>
      <trkpt lat="45.65277" lon="6.78697">
        <ele>1047.4</ele>
        <time>2022-06-15T07:01:42Z</time>
      </trkpt>
      <trkpt lat="45.6528" lon="6.78697">
        <ele>1047.6</ele>
        <time>2022-06-15T07:01:43Z</time>
      </trkpt>
      <trkpt lat="45.65282" lon="6.78697">
        <ele>1047.7</ele>
        <time>2022-06-15T07:01:44Z</time>
      </trkpt>
      <trkpt lat="45.65284" lon="6.78697">
        <ele>1048</ele>
        <time>2022-06-15T07:01:45Z</time>
      </trkpt>
      <trkpt lat="45.65286" lon="6.78697">
        <ele>1048.2</ele>
        <time>2022-06-15T07:01:46Z</time>
      </trkpt>
      <trkpt lat="45.65287" lon="6.78697">
        <ele>1048.2</ele>
        <time>2022-06-15T07:01:47Z</time>
      </trkpt>
      <trkpt lat="45.65289" lon="6.78697">
        <ele>1048.3</ele>
        <time>2022-06-15T07:01:48Z</time>
      </trkpt>
      <trkpt lat="45.65291" lon="6.78697">
        <ele>1048.5</ele>
        <time>2022-06-15T07:01:49Z</time>
      </trkpt>
      <trkpt lat="45.65293" lon="6.78696">
        <ele>1048.6</ele>
        <time>2022-06-15T07:01:50Z</time>
      </trkpt>
      <trkpt lat="45.65294" lon="6.78697">
        <ele>1048.8</ele>
        <time>2022-06-15T07:01:51Z</time>
      </trkpt>
      <trkpt lat="45.65296" lon="6.78697">
        <ele>1048.9</ele>
        <time>2022-06-15T07:01:52Z</time>
      </trkpt>
      <trkpt lat="45.65298" lon="6.78696">
        <ele>1049</ele>
        <time>2022-06-15T07:01:53Z</time>
      </trkpt>
      <trkpt lat="45.653" lon="6.78695">
        <ele>1048.9</ele>
        <time>2022-06-15T07:01:54Z</time>
      </trkpt>
      <trkpt lat="45.65303" lon="6.78695">
        <ele>1049</ele>
        <time>2022-06-15T07:01:55Z</time>
      </trkpt>
      <trkpt lat="45.65305" lon="6.78694">
        <ele>1048.9</ele>
        <time>2022-06-15T07:01:56Z</time>
      </trkpt>
      <trkpt lat="45.65307" lon="6.78693">
        <ele>1048.9</ele>
        <time>2022-06-15T07:01:57Z</time>
      </trkpt>
      <trkpt lat="45.65309" lon="6.78694">
        <ele>1049.1</ele>
        <time>2022-06-15T07:01:58Z</time>
      </trkpt>
      <trkpt lat="45.65311" lon="6.78693">
        <ele>1049.2</ele>
        <time>2022-06-15T07:01:59Z</time>
      </trkpt>
      <trkpt lat="45.65313" lon="6.78692">
        <ele>1049.1</ele>
        <time>2022-06-15T07:02:00Z</time>
      </trkpt>
      <trkpt lat="45.65315" lon="6.78691">
        <ele>1049.1</ele>
        <time>2022-06-15T07:02:01Z</time>
      </trkpt>
      <trkpt lat="45.65317" lon="6.7869">
        <ele>1049</ele>
        <time>2022-06-15T07:02:02Z</time>
      </trkpt>
      <trkpt lat="45.65318" lon="6.78688">
        <ele>1048.8</ele>
        <time>2022-06-15T07:02:03Z</time>
      </trkpt>
      <trkpt lat="45.65321" lon="6.78688">
        <ele>1049</ele>
        <time>2022-06-15T07:02:04Z</time>
      </trkpt>
      <trkpt lat="45.65324" lon="6.78688">
        <ele>1049.3</ele>
        <time>2022-06-15T07:02:05Z</time>
      </trkpt>
      <trkpt lat="45.65326" lon="6.78687">
        <ele>1049.3</ele>
        <time>2022-06-15T07:02:06Z</time>
      </trkpt>
      <trkpt lat="45.65328" lon="6.78687">
        <ele>1049.5</ele>
        <time>2022-06-15T07:02:07Z</time>
      </trkpt>
      <trkpt lat="45.6533" lon="6.78687">
        <ele>1049.6</ele>
        <time>2022-06-15T07:02:08Z</time>
      </trkpt>
      <trkpt lat="45.65332" lon="6.78685">
        <ele>1049.5</ele>
        <time>2022-06-15T07:02:09Z</time>
      </trkpt>
      <trkpt lat="45.65334" lon="6.78684">
        <ele>1049.5</ele>
        <time>2022-06-15T07:02:10Z</time>
      </trkpt>
      <trkpt lat="45.65336" lon="6.78683">
        <ele>1049.9</ele>
        <time>2022-06-15T07:02:11Z</time>
      </trkpt>
      <trkpt lat="45.65339" lon="6.78682">
        <ele>1050.5</ele>
        <time>2022-06-15T07:02:12Z</time>
      </trkpt>
      <trkpt lat="45.65341" lon="6.78681">
        <ele>1050.7</ele>
        <time>2022-06-15T07:02:13Z</time>
      </trkpt>
      <trkpt lat="45.65343" lon="6.78679">
        <ele>1050.9</ele>
        <time>2022-06-15T07:02:14Z</time>
      </trkpt>
      <trkpt lat="45.65346" lon="6.78678">
        <ele>1051</ele>
        <time>2022-06-15T07:02:15Z</time>
      </trkpt>
      <trkpt lat="45.65349" lon="6.78677">
        <ele>1051.3</ele>
        <time>2022-06-15T07:02:16Z</time>
      </trkpt>
      <trkpt lat="45.65351" lon="6.78675">
        <ele>1051.2</ele>
        <time>2022-06-15T07:02:17Z</time>
      </trkpt>
      <trkpt lat="45.65353" lon="6.78673">
        <ele>1050.8</ele>
        <time>2022-06-15T07:02:18Z</time>
      </trkpt>
      <trkpt lat="45.65355" lon="6.78672">
        <ele>1050.6</ele>
        <time>2022-06-15T07:02:19Z</time>
      </trkpt>
      <trkpt lat="45.65356" lon="6.78671">
        <ele>1050.2</ele>
        <time>2022-06-15T07:02:20Z</time>
      </trkpt>
      <trkpt lat="45.65358" lon="6.78669">
        <ele>1049.8</ele>
        <time>2022-06-15T07:02:21Z</time>
      </trkpt>
      <trkpt lat="45.6536" lon="6.78666">
        <ele>1049</ele>
        <time>2022-06-15T07:02:22Z</time>
      </trkpt>
      <trkpt lat="45.65362" lon="6.78664">
        <ele>1049.3</ele>
        <time>2022-06-15T07:02:23Z</time>
      </trkpt>
      <trkpt lat="45.65364" lon="6.78664">
        <ele>1049.9</ele>
        <time>2022-06-15T07:02:24Z</time>
      </trkpt>
      <trkpt lat="45.65367" lon="6.78663">
        <ele>1050.6</ele>
        <time>2022-06-15T07:02:25Z</time>
      </trkpt>
      <trkpt lat="45.65369" lon="6.78662">
        <ele>1051.1</ele>
        <time>2022-06-15T07:02:26Z</time>
      </trkpt>
      <trkpt lat="45.65371" lon="6.7866">
        <ele>1051.6</ele>
        <time>2022-06-15T07:02:27Z</time>
      </trkpt>
      <trkpt lat="45.65373" lon="6.78658">
        <ele>1051.8</ele>
        <time>2022-06-15T07:02:28Z</time>
      </trkpt>
      <trkpt lat="45.65375" lon="6.78656">
        <ele>1052</ele>
        <time>2022-06-15T07:02:29Z</time>
      </trkpt>
      <trkpt lat="45.65377" lon="6.78654">
        <ele>1052.1</ele>
        <time>2022-06-15T07:02:30Z</time>
      </trkpt>
      <trkpt lat="45.65379" lon="6.78653">
        <ele>1052.3</ele>
        <time>2022-06-15T07:02:31Z</time>
      </trkpt>
      <trkpt lat="45.65381" lon="6.78651">
        <ele>1052.2</ele>
        <time>2022-06-15T07:02:32Z</time>
      </trkpt>
      <trkpt lat="45.65383" lon="6.78649">
        <ele>1052.1</ele>
        <time>2022-06-15T07:02:33Z</time>
      </trkpt>
      <trkpt lat="45.65384" lon="6.78648">
        <ele>1052</ele>
        <time>2022-06-15T07:02:34Z</time>
      </trkpt>
      <trkpt lat="45.65387" lon="6.78647">
        <ele>1051.9</ele>
        <time>2022-06-15T07:02:35Z</time>
      </trkpt>
      <trkpt lat="45.65388" lon="6.78645">
        <ele>1051.5</ele>
        <time>2022-06-15T07:02:36Z</time>
      </trkpt>
      <trkpt lat="45.6539" lon="6.78643">
        <ele>1051.2</ele>
        <time>2022-06-15T07:02:37Z</time>
      </trkpt>
      <trkpt lat="45.65392" lon="6.78642">
        <ele>1051.5</ele>
        <time>2022-06-15T07:02:38Z</time>
      </trkpt>
      <trkpt lat="45.65393" lon="6.78641">
        <ele>1051.7</ele>
        <time>2022-06-15T07:02:39Z</time>
      </trkpt>
      <trkpt lat="45.65396" lon="6.78639">
        <ele>1052</ele>
        <time>2022-06-15T07:02:40Z</time>
      </trkpt>
      <trkpt lat="45.65398" lon="6.78638">
        <ele>1052.6</ele>
        <time>2022-06-15T07:02:41Z</time>
      </trkpt>
      <trkpt lat="45.654" lon="6.78637">
        <ele>1053.3</ele>
        <time>2022-06-15T07:02:42Z</time>
      </trkpt>
      <trkpt lat="45.65403" lon="6.78636">
        <ele>1054.1</ele>
        <time>2022-06-15T07:02:43Z</time>
      </trkpt>
      <trkpt lat="45.65406" lon="6.78635">
        <ele>1054.7</ele>
        <time>2022-06-15T07:02:44Z</time>
      </trkpt>
      <trkpt lat="45.65408" lon="6.78634">
        <ele>1055.1</ele>
        <time>2022-06-15T07:02:45Z</time>
      </trkpt>
      <trkpt lat="45.6541" lon="6.78632">
        <ele>1055.3</ele>
        <time>2022-06-15T07:02:46Z</time>
      </trkpt>
      <trkpt lat="45.65412" lon="6.7863">
        <ele>1055.5</ele>
        <time>2022-06-15T07:02:47Z</time>
      </trkpt>
      <trkpt lat="45.65414" lon="6.78629">
        <ele>1055.6</ele>
        <time>2022-06-15T07:02:48Z</time>
      </trkpt>
      <trkpt lat="45.65416" lon="6.78628">
        <ele>1055.8</ele>
        <time>2022-06-15T07:02:49Z</time>
      </trkpt>
      <trkpt lat="45.65418" lon="6.78627">
        <ele>1056.3</ele>
        <time>2022-06-15T07:02:50Z</time>
      </trkpt>
      <trkpt lat="45.65421" lon="6.78626">
        <ele>1057.1</ele>
        <time>2022-06-15T07:02:51Z</time>
      </trkpt>
      <trkpt lat="45.65423" lon="6.78625">
        <ele>1057.7</ele>
        <time>2022-06-15T07:02:52Z</time>
      </trkpt>
      <trkpt lat="45.65425" lon="6.78624">
        <ele>1058.2</ele>
        <time>2022-06-15T07:02:53Z</time>
      </trkpt>
      <trkpt lat="45.65426" lon="6.78622">
        <ele>1058.4</ele>
        <time>2022-06-15T07:02:54Z</time>
      </trkpt>
      <trkpt lat="45.65428" lon="6.7862">
        <ele>1058.6</ele>
        <time>2022-06-15T07:02:55Z</time>
      </trkpt>
      <trkpt lat="45.65431" lon="6.78619">
        <ele>1059</ele>
        <time>2022-06-15T07:02:56Z</time>
      </trkpt>
      <trkpt lat="45.65433" lon="6.78616">
        <ele>1059</ele>
        <time>2022-06-15T07:02:57Z</time>
      </trkpt>
      <trkpt lat="45.65435" lon="6.78614">
        <ele>1059.2</ele>
        <time>2022-06-15T07:02:58Z</time>
      </trkpt>
      <trkpt lat="45.65437" lon="6.78612">
        <ele>1059</ele>
        <time>2022-06-15T07:02:59Z</time>
      </trkpt>
      <trkpt lat="45.65439" lon="6.78609">
        <ele>1059.2</ele>
        <time>2022-06-15T07:03:00Z</time>
      </trkpt>
      <trkpt lat="45.65441" lon="6.78608">
        <ele>1059.7</ele>
        <time>2022-06-15T07:03:01Z</time>
      </trkpt>
      <trkpt lat="45.65443" lon="6.78606">
        <ele>1060</ele>
        <time>2022-06-15T07:03:02Z</time>
      </trkpt>
      <trkpt lat="45.65445" lon="6.78604">
        <ele>1060.1</ele>
        <time>2022-06-15T07:03:03Z</time>
      </trkpt>
      <trkpt lat="45.65447" lon="6.78602">
        <ele>1060.5</ele>
        <time>2022-06-15T07:03:04Z</time>
      </trkpt>
      <trkpt lat="45.65449" lon="6.786">
        <ele>1060.9</ele>
        <time>2022-06-15T07:03:05Z</time>
      </trkpt>
      <trkpt lat="45.65451" lon="6.78598">
        <ele>1061.6</ele>
        <time>2022-06-15T07:03:06Z</time>
      </trkpt>
      <trkpt lat="45.65454" lon="6.78597">
        <ele>1062.4</ele>
        <time>2022-06-15T07:03:07Z</time>
      </trkpt>
      <trkpt lat="45.65456" lon="6.78595">
        <ele>1062.5</ele>
        <time>2022-06-15T07:03:08Z</time>
      </trkpt>
      <trkpt lat="45.65458" lon="6.78593">
        <ele>1062.5</ele>
        <time>2022-06-15T07:03:09Z</time>
      </trkpt>
      <trkpt lat="45.6546" lon="6.78592">
        <ele>1062.8</ele>
        <time>2022-06-15T07:03:10Z</time>
      </trkpt>
      <trkpt lat="45.65462" lon="6.7859">
        <ele>1062.9</ele>
        <time>2022-06-15T07:03:11Z</time>
      </trkpt>
      <trkpt lat="45.65463" lon="6.78588">
        <ele>1062.4</ele>
        <time>2022-06-15T07:03:12Z</time>
      </trkpt>
      <trkpt lat="45.65465" lon="6.78586">
        <ele>1062.2</ele>
        <time>2022-06-15T07:03:13Z</time>
      </trkpt>
      <trkpt lat="45.65467" lon="6.78583">
        <ele>1061.8</ele>
        <time>2022-06-15T07:03:14Z</time>
      </trkpt>
      <trkpt lat="45.65469" lon="6.78581">
        <ele>1062.3</ele>
        <time>2022-06-15T07:03:15Z</time>
      </trkpt>
      <trkpt lat="45.6547" lon="6.78579">
        <ele>1062.6</ele>
        <time>2022-06-15T07:03:16Z</time>
      </trkpt>
      <trkpt lat="45.65472" lon="6.78577">
        <ele>1063</ele>
        <time>2022-06-15T07:03:17Z</time>
      </trkpt>
      <trkpt lat="45.65474" lon="6.78575">
        <ele>1063.5</ele>
        <time>2022-06-15T07:03:18Z</time>
      </trkpt>
      <trkpt lat="45.65476" lon="6.78572">
        <ele>1063.8</ele>
        <time>2022-06-15T07:03:19Z</time>
      </trkpt>
      <trkpt lat="45.65478" lon="6.78569">
        <ele>1064.2</ele>
        <time>2022-06-15T07:03:20Z</time>
      </trkpt>
      <trkpt lat="45.6548" lon="6.78567">
        <ele>1064.4</ele>
        <time>2022-06-15T07:03:21Z</time>
      </trkpt>
      <trkpt lat="45.65482" lon="6.78566">
        <ele>1064.6</ele>
        <time>2022-06-15T07:03:22Z</time>
      </trkpt>
      <trkpt lat="45.65484" lon="6.78564">
        <ele>1064.8</ele>
        <time>2022-06-15T07:03:23Z</time>
      </trkpt>
      <trkpt lat="45.65486" lon="6.78562">
        <ele>1065</ele>
        <time>2022-06-15T07:03:24Z</time>
      </trkpt>
      <trkpt lat="45.65488" lon="6.78561">
        <ele>1064.9</ele>
        <time>2022-06-15T07:03:25Z</time>
      </trkpt>
      <trkpt lat="45.6549" lon="6.78559">
        <ele>1064.8</ele>
        <time>2022-06-15T07:03:26Z</time>
      </trkpt>
      <trkpt lat="45.65493" lon="6.78556">
        <ele>1064.6</ele>
        <time>2022-06-15T07:03:27Z</time>
      </trkpt>
      <trkpt lat="45.65495" lon="6.78554">
        <ele>1064.6</ele>
        <time>2022-06-15T07:03:28Z</time>
      </trkpt>
      <trkpt lat="45.65497" lon="6.78552">
        <ele>1064.7</ele>
        <time>2022-06-15T07:03:29Z</time>
      </trkpt>
      <trkpt lat="45.65499" lon="6.7855">
        <ele>1064.9</ele>
        <time>2022-06-15T07:03:30Z</time>
      </trkpt>
      <trkpt lat="45.65502" lon="6.78549">
        <ele>1065.8</ele>
        <time>2022-06-15T07:03:31Z</time>
      </trkpt>
      <trkpt lat="45.65503" lon="6.78547">
        <ele>1066.7</ele>
        <time>2022-06-15T07:03:32Z</time>
      </trkpt>
      <trkpt lat="45.65505" lon="6.78545">
        <ele>1067.5</ele>
        <time>2022-06-15T07:03:33Z</time>
      </trkpt>
      <trkpt lat="45.65507" lon="6.78544">
        <ele>1068</ele>
        <time>2022-06-15T07:03:34Z</time>
      </trkpt>
      <trkpt lat="45.65509" lon="6.78542">
        <ele>1068.6</ele>
        <time>2022-06-15T07:03:35Z</time>
      </trkpt>
      <trkpt lat="45.65511" lon="6.7854">
        <ele>1068.9</ele>
        <time>2022-06-15T07:03:36Z</time>
      </trkpt>
      <trkpt lat="45.65513" lon="6.78538">
        <ele>1068.9</ele>
        <time>2022-06-15T07:03:37Z</time>
      </trkpt>
      <trkpt lat="45.65515" lon="6.78535">
        <ele>1068.8</ele>
        <time>2022-06-15T07:03:38Z</time>
      </trkpt>
      <trkpt lat="45.65516" lon="6.78533">
        <ele>1068.5</ele>
        <time>2022-06-15T07:03:39Z</time>
      </trkpt>
      <trkpt lat="45.65518" lon="6.78531">
        <ele>1068.2</ele>
        <time>2022-06-15T07:03:40Z</time>
      </trkpt>
      <trkpt lat="45.6552" lon="6.7853">
        <ele>1067.9</ele>
        <time>2022-06-15T07:03:41Z</time>
      </trkpt>
      <trkpt lat="45.65521" lon="6.78527">
        <ele>1067.2</ele>
        <time>2022-06-15T07:03:42Z</time>
      </trkpt>
      <trkpt lat="45.65522" lon="6.78525">
        <ele>1067</ele>
        <time>2022-06-15T07:03:43Z</time>
      </trkpt>
      <trkpt lat="45.65524" lon="6.78523">
        <ele>1066.9</ele>
        <time>2022-06-15T07:03:44Z</time>
      </trkpt>
      <trkpt lat="45.65525" lon="6.78521">
        <ele>1066.8</ele>
        <time>2022-06-15T07:03:45Z</time>
      </trkpt>
      <trkpt lat="45.65527" lon="6.78519">
        <ele>1066.6</ele>
        <time>2022-06-15T07:03:46Z</time>
      </trkpt>
      <trkpt lat="45.65529" lon="6.78517">
        <ele>1066.6</ele>
        <time>2022-06-15T07:03:47Z</time>
      </trkpt>
      <trkpt lat="45.65531" lon="6.78515">
        <ele>1066.9</ele>
        <time>2022-06-15T07:03:48Z</time>
      </trkpt>
      <trkpt lat="45.65533" lon="6.78513">
        <ele>1067.1</ele>
        <time>2022-06-15T07:03:49Z</time>
      </trkpt>
      <trkpt lat="45.65534" lon="6.7851">
        <ele>1067.1</ele>
        <time>2022-06-15T07:03:50Z</time>
      </trkpt>
      <trkpt lat="45.65535" lon="6.78508">
        <ele>1067.1</ele>
        <time>2022-06-15T07:03:51Z</time>
      </trkpt>
      <trkpt lat="45.65537" lon="6.78507">
        <ele>1067.2</ele>
        <time>2022-06-15T07:03:52Z</time>
      </trkpt>
      <trkpt lat="45.65539" lon="6.78505">
        <ele>1067.2</ele>
        <time>2022-06-15T07:03:53Z</time>
      </trkpt>
      <trkpt lat="45.6554" lon="6.78503">
        <ele>1067.2</ele>
        <time>2022-06-15T07:03:54Z</time>
      </trkpt>
      <trkpt lat="45.65542" lon="6.78501">
        <ele>1067.2</ele>
        <time>2022-06-15T07:03:55Z</time>
      </trkpt>
      <trkpt lat="45.65543" lon="6.78498">
        <ele>1067.4</ele>
        <time>2022-06-15T07:03:56Z</time>
      </trkpt>
      <trkpt lat="45.65545" lon="6.78496">
        <ele>1067.8</ele>
        <time>2022-06-15T07:03:57Z</time>
      </trkpt>
      <trkpt lat="45.65547" lon="6.78495">
        <ele>1068.1</ele>
        <time>2022-06-15T07:03:58Z</time>
      </trkpt>
      <trkpt lat="45.65549" lon="6.78494">
        <ele>1068.5</ele>
        <time>2022-06-15T07:03:59Z</time>
      </trkpt>
      <trkpt lat="45.65551" lon="6.78492">
        <ele>1068.7</ele>
        <time>2022-06-15T07:04:00Z</time>
      </trkpt>
      <trkpt lat="45.65553" lon="6.78491">
        <ele>1068.9</ele>
        <time>2022-06-15T07:04:01Z</time>
      </trkpt>
      <trkpt lat="45.65555" lon="6.7849">
        <ele>1069.2</ele>
        <time>2022-06-15T07:04:02Z</time>
      </trkpt>
      <trkpt lat="45.65557" lon="6.78488">
        <ele>1069.4</ele>
        <time>2022-06-15T07:04:03Z</time>
      </trkpt>
      <trkpt lat="45.65558" lon="6.78487">
        <ele>1069.6</ele>
        <time>2022-06-15T07:04:04Z</time>
      </trkpt>
      <trkpt lat="45.6556" lon="6.78485">
        <ele>1069.8</ele>
        <time>2022-06-15T07:04:05Z</time>
      </trkpt>
      <trkpt lat="45.65562" lon="6.78484">
        <ele>1070.1</ele>
        <time>2022-06-15T07:04:06Z</time>
      </trkpt>
      <trkpt lat="45.65564" lon="6.78482">
        <ele>1070.3</ele>
        <time>2022-06-15T07:04:07Z</time>
      </trkpt>
      <trkpt lat="45.65566" lon="6.7848">
        <ele>1070.5</ele>
        <time>2022-06-15T07:04:08Z</time>
      </trkpt>
      <trkpt lat="45.65568" lon="6.78478">
        <ele>1070.7</ele>
        <time>2022-06-15T07:04:09Z</time>
      </trkpt>
      <trkpt lat="45.65569" lon="6.78476">
        <ele>1070.8</ele>
        <time>2022-06-15T07:04:10Z</time>
      </trkpt>
      <trkpt lat="45.65571" lon="6.78474">
        <ele>1070.9</ele>
        <time>2022-06-15T07:04:11Z</time>
      </trkpt>
      <trkpt lat="45.65573" lon="6.78472">
        <ele>1071.2</ele>
        <time>2022-06-15T07:04:12Z</time>
      </trkpt>
      <trkpt lat="45.65575" lon="6.7847">
        <ele>1071.6</ele>
        <time>2022-06-15T07:04:13Z</time>
      </trkpt>
      <trkpt lat="45.65577" lon="6.78468">
        <ele>1071.9</ele>
        <time>2022-06-15T07:04:14Z</time>
      </trkpt>
      <trkpt lat="45.65579" lon="6.78466">
        <ele>1072.3</ele>
        <time>2022-06-15T07:04:15Z</time>
      </trkpt>
      <trkpt lat="45.65581" lon="6.78464">
        <ele>1072.8</ele>
        <time>2022-06-15T07:04:16Z</time>
      </trkpt>
      <trkpt lat="45.65582" lon="6.78462">
        <ele>1073.2</ele>
        <time>2022-06-15T07:04:17Z</time>
      </trkpt>
      <trkpt lat="45.65584" lon="6.7846">
        <ele>1073.7</ele>
        <time>2022-06-15T07:04:18Z</time>
      </trkpt>
      <trkpt lat="45.65587" lon="6.78459">
        <ele>1074.6</ele>
        <time>2022-06-15T07:04:19Z</time>
      </trkpt>
      <trkpt lat="45.65589" lon="6.78457">
        <ele>1075.3</ele>
        <time>2022-06-15T07:04:20Z</time>
      </trkpt>
      <trkpt lat="45.65591" lon="6.78455">
        <ele>1075.9</ele>
        <time>2022-06-15T07:04:21Z</time>
      </trkpt>
      <trkpt lat="45.65592" lon="6.78453">
        <ele>1076.4</ele>
        <time>2022-06-15T07:04:22Z</time>
      </trkpt>
      <trkpt lat="45.65595" lon="6.78451">
        <ele>1077</ele>
        <time>2022-06-15T07:04:23Z</time>
      </trkpt>
      <trkpt lat="45.65596" lon="6.78449">
        <ele>1077.4</ele>
        <time>2022-06-15T07:04:24Z</time>
      </trkpt>
      <trkpt lat="45.65597" lon="6.78446">
        <ele>1077.6</ele>
        <time>2022-06-15T07:04:25Z</time>
      </trkpt>
      <trkpt lat="45.65599" lon="6.78444">
        <ele>1077.8</ele>
        <time>2022-06-15T07:04:26Z</time>
      </trkpt>
      <trkpt lat="45.656" lon="6.78442">
        <ele>1077.9</ele>
        <time>2022-06-15T07:04:27Z</time>
      </trkpt>
      <trkpt lat="45.65602" lon="6.7844">
        <ele>1077.8</ele>
        <time>2022-06-15T07:04:28Z</time>
      </trkpt>
      <trkpt lat="45.65602" lon="6.78438">
        <ele>1077.7</ele>
        <time>2022-06-15T07:04:29Z</time>
      </trkpt>
      <trkpt lat="45.65604" lon="6.78436">
        <ele>1077.6</ele>
        <time>2022-06-15T07:04:30Z</time>
      </trkpt>
      <trkpt lat="45.65605" lon="6.78435">
        <ele>1077.6</ele>
        <time>2022-06-15T07:04:31Z</time>
      </trkpt>
      <trkpt lat="45.65606" lon="6.78433">
        <ele>1077.5</ele>
        <time>2022-06-15T07:04:32Z</time>
      </trkpt>
      <trkpt lat="45.65608" lon="6.78431">
        <ele>1077.4</ele>
        <time>2022-06-15T07:04:33Z</time>
      </trkpt>
      <trkpt lat="45.65609" lon="6.78428">
        <ele>1076.9</ele>
        <time>2022-06-15T07:04:34Z</time>
      </trkpt>
      <trkpt lat="45.6561" lon="6.78425">
        <ele>1076.6</ele>
        <time>2022-06-15T07:04:35Z</time>
      </trkpt>
      <trkpt lat="45.65612" lon="6.78423">
        <ele>1076.7</ele>
        <time>2022-06-15T07:04:36Z</time>
      </trkpt>
      <trkpt lat="45.65613" lon="6.78421">
        <ele>1076.8</ele>
        <time>2022-06-15T07:04:37Z</time>
      </trkpt>
      <trkpt lat="45.65615" lon="6.78418">
        <ele>1077.1</ele>
        <time>2022-06-15T07:04:38Z</time>
      </trkpt>
      <trkpt lat="45.65616" lon="6.78416">
        <ele>1077.4</ele>
        <time>2022-06-15T07:04:39Z</time>
      </trkpt>
      <trkpt lat="45.65618" lon="6.78414">
        <ele>1078.1</ele>
        <time>2022-06-15T07:04:40Z</time>
      </trkpt>
      <trkpt lat="45.65619" lon="6.78413">
        <ele>1078.6</ele>
        <time>2022-06-15T07:04:41Z</time>
      </trkpt>
      <trkpt lat="45.6562" lon="6.78411">
        <ele>1079.1</ele>
        <time>2022-06-15T07:04:42Z</time>
      </trkpt>
      <trkpt lat="45.65622" lon="6.78409">
        <ele>1079.5</ele>
        <time>2022-06-15T07:04:43Z</time>
      </trkpt>
      <trkpt lat="45.65624" lon="6.78407">
        <ele>1079.8</ele>
        <time>2022-06-15T07:04:44Z</time>
      </trkpt>
      <trkpt lat="45.65625" lon="6.78405">
        <ele>1079.7</ele>
        <time>2022-06-15T07:04:45Z</time>
      </trkpt>
      <trkpt lat="45.65627" lon="6.78402">
        <ele>1079.8</ele>
        <time>2022-06-15T07:04:46Z</time>
      </trkpt>
      <trkpt lat="45.65628" lon="6.784">
        <ele>1079.6</ele>
        <time>2022-06-15T07:04:47Z</time>
      </trkpt>
      <trkpt lat="45.6563" lon="6.78397">
        <ele>1079.2</ele>
        <time>2022-06-15T07:04:48Z</time>
      </trkpt>
      <trkpt lat="45.65631" lon="6.78395">
        <ele>1078.8</ele>
        <time>2022-06-15T07:04:49Z</time>
      </trkpt>
      <trkpt lat="45.65633" lon="6.78393">
        <ele>1078.5</ele>
        <time>2022-06-15T07:04:50Z</time>
      </trkpt>
      <trkpt lat="45.65635" lon="6.78391">
        <ele>1077.9</ele>
        <time>2022-06-15T07:04:51Z</time>
      </trkpt>
      <trkpt lat="45.65636" lon="6.78389">
        <ele>1077.1</ele>
        <time>2022-06-15T07:04:52Z</time>
      </trkpt>
      <trkpt lat="45.65638" lon="6.78387">
        <ele>1077.1</ele>
        <time>2022-06-15T07:04:53Z</time>
      </trkpt>
      <trkpt lat="45.65639" lon="6.78385">
        <ele>1077.3</ele>
        <time>2022-06-15T07:04:54Z</time>
      </trkpt>
      <trkpt lat="45.65641" lon="6.78383">
        <ele>1077.9</ele>
        <time>2022-06-15T07:04:55Z</time>
      </trkpt>
      <trkpt lat="45.65642" lon="6.78382">
        <ele>1078.4</ele>
        <time>2022-06-15T07:04:56Z</time>
      </trkpt>
      <trkpt lat="45.65644" lon="6.7838">
        <ele>1079</ele>
        <time>2022-06-15T07:04:57Z</time>
      </trkpt>
      <trkpt lat="45.65646" lon="6.78379">
        <ele>1079.5</ele>
        <time>2022-06-15T07:04:58Z</time>
      </trkpt>
      <trkpt lat="45.65648" lon="6.78378">
        <ele>1080</ele>
        <time>2022-06-15T07:04:59Z</time>
      </trkpt>
      <trkpt lat="45.6565" lon="6.78376">
        <ele>1080.3</ele>
        <time>2022-06-15T07:05:00Z</time>
      </trkpt>
      <trkpt lat="45.65651" lon="6.78374">
        <ele>1080.6</ele>
        <time>2022-06-15T07:05:01Z</time>
      </trkpt>
      <trkpt lat="45.65653" lon="6.78373">
        <ele>1080.9</ele>
        <time>2022-06-15T07:05:02Z</time>
      </trkpt>
      <trkpt lat="45.65655" lon="6.78372">
        <ele>1081.1</ele>
        <time>2022-06-15T07:05:03Z</time>
      </trkpt>
      <trkpt lat="45.65657" lon="6.78371">
        <ele>1081.3</ele>
        <time>2022-06-15T07:05:04Z</time>
      </trkpt>
      <trkpt lat="45.65659" lon="6.78369">
        <ele>1081.4</ele>
        <time>2022-06-15T07:05:05Z</time>
      </trkpt>
      <trkpt lat="45.6566" lon="6.78367">
        <ele>1081.4</ele>
        <time>2022-06-15T07:05:06Z</time>
      </trkpt>
      <trkpt lat="45.65661" lon="6.78366">
        <ele>1081.3</ele>
        <time>2022-06-15T07:05:07Z</time>
      </trkpt>
      <trkpt lat="45.65664" lon="6.78365">
        <ele>1081.5</ele>
        <time>2022-06-15T07:05:08Z</time>
      </trkpt>
      <trkpt lat="45.65666" lon="6.78364">
        <ele>1081.4</ele>
        <time>2022-06-15T07:05:09Z</time>
      </trkpt>
      <trkpt lat="45.65668" lon="6.78362">
        <ele>1081.4</ele>
        <time>2022-06-15T07:05:10Z</time>
      </trkpt>
      <trkpt lat="45.6567" lon="6.78361">
        <ele>1081.7</ele>
        <time>2022-06-15T07:05:11Z</time>
      </trkpt>
      <trkpt lat="45.65672" lon="6.7836">
        <ele>1082.1</ele>
        <time>2022-06-15T07:05:12Z</time>
      </trkpt>
      <trkpt lat="45.65673" lon="6.78358">
        <ele>1082.3</ele>
        <time>2022-06-15T07:05:13Z</time>
      </trkpt>
      <trkpt lat="45.65675" lon="6.78357">
        <ele>1082.8</ele>
        <time>2022-06-15T07:05:14Z</time>
      </trkpt>
      <trkpt lat="45.65678" lon="6.78357">
        <ele>1083.2</ele>
        <time>2022-06-15T07:05:15Z</time>
      </trkpt>
      <trkpt lat="45.65679" lon="6.78355">
        <ele>1083.5</ele>
        <time>2022-06-15T07:05:16Z</time>
      </trkpt>
      <trkpt lat="45.65681" lon="6.78354">
        <ele>1083.8</ele>
        <time>2022-06-15T07:05:17Z</time>
      </trkpt>
      <trkpt lat="45.65683" lon="6.78353">
        <ele>1084.1</ele>
        <time>2022-06-15T07:05:18Z</time>
      </trkpt>
      <trkpt lat="45.65685" lon="6.78352">
        <ele>1084.4</ele>
        <time>2022-06-15T07:05:19Z</time>
      </trkpt>
      <trkpt lat="45.65687" lon="6.7835">
        <ele>1084.7</ele>
        <time>2022-06-15T07:05:20Z</time>
      </trkpt>
      <trkpt lat="45.65689" lon="6.78349">
        <ele>1085</ele>
        <time>2022-06-15T07:05:21Z</time>
      </trkpt>
      <trkpt lat="45.6569" lon="6.78348">
        <ele>1085.3</ele>
        <time>2022-06-15T07:05:22Z</time>
      </trkpt>
      <trkpt lat="45.65692" lon="6.78346">
        <ele>1085.4</ele>
        <time>2022-06-15T07:05:23Z</time>
      </trkpt>
      <trkpt lat="45.65694" lon="6.78344">
        <ele>1085.6</ele>
        <time>2022-06-15T07:05:24Z</time>
      </trkpt>
      <trkpt lat="45.65696" lon="6.78343">
        <ele>1085.9</ele>
        <time>2022-06-15T07:05:25Z</time>
      </trkpt>
      <trkpt lat="45.65698" lon="6.78341">
        <ele>1086.3</ele>
        <time>2022-06-15T07:05:26Z</time>
      </trkpt>
      <trkpt lat="45.657" lon="6.7834">
        <ele>1086.7</ele>
        <time>2022-06-15T07:05:27Z</time>
      </trkpt>
      <trkpt lat="45.65703" lon="6.7834">
        <ele>1087.2</ele>
        <time>2022-06-15T07:05:28Z</time>
      </trkpt>
      <trkpt lat="45.65705" lon="6.7834">
        <ele>1087.6</ele>
        <time>2022-06-15T07:05:29Z</time>
      </trkpt>
      <trkpt lat="45.65707" lon="6.78338">
        <ele>1087.8</ele>
        <time>2022-06-15T07:05:30Z</time>
      </trkpt>
      <trkpt lat="45.65709" lon="6.78337">
        <ele>1088.2</ele>
        <time>2022-06-15T07:05:31Z</time>
      </trkpt>
      <trkpt lat="45.65711" lon="6.78336">
        <ele>1088.4</ele>
        <time>2022-06-15T07:05:32Z</time>
      </trkpt>
      <trkpt lat="45.65713" lon="6.78335">
        <ele>1088.5</ele>
        <time>2022-06-15T07:05:33Z</time>
      </trkpt>
      <trkpt lat="45.65714" lon="6.78333">
        <ele>1088.5</ele>
        <time>2022-06-15T07:05:34Z</time>
      </trkpt>
      <trkpt lat="45.65715" lon="6.78332">
        <ele>1088.6</ele>
        <time>2022-06-15T07:05:35Z</time>
      </trkpt>
      <trkpt lat="45.65717" lon="6.7833">
        <ele>1088.7</ele>
        <time>2022-06-15T07:05:36Z</time>
      </trkpt>
      <trkpt lat="45.65719" lon="6.78328">
        <ele>1089</ele>
        <time>2022-06-15T07:05:37Z</time>
      </trkpt>
      <trkpt lat="45.65721" lon="6.78327">
        <ele>1089.2</ele>
        <time>2022-06-15T07:05:38Z</time>
      </trkpt>
      <trkpt lat="45.65723" lon="6.78325">
        <ele>1089.5</ele>
        <time>2022-06-15T07:05:39Z</time>
      </trkpt>
      <trkpt lat="45.65724" lon="6.78324">
        <ele>1089.6</ele>
        <time>2022-06-15T07:05:40Z</time>
      </trkpt>
      <trkpt lat="45.65727" lon="6.78323">
        <ele>1090</ele>
        <time>2022-06-15T07:05:41Z</time>
      </trkpt>
      <trkpt lat="45.6573" lon="6.78323">
        <ele>1090.5</ele>
        <time>2022-06-15T07:05:42Z</time>
      </trkpt>
      <trkpt lat="45.65731" lon="6.78322">
        <ele>1090.7</ele>
        <time>2022-06-15T07:05:43Z</time>
      </trkpt>
      <trkpt lat="45.65733" lon="6.78321">
        <ele>1090.9</ele>
        <time>2022-06-15T07:05:44Z</time>
      </trkpt>
      <trkpt lat="45.65735" lon="6.78319">
        <ele>1091.1</ele>
        <time>2022-06-15T07:05:45Z</time>
      </trkpt>
      <trkpt lat="45.65737" lon="6.78319">
        <ele>1091.3</ele>
        <time>2022-06-15T07:05:46Z</time>
      </trkpt>
      <trkpt lat="45.65739" lon="6.78318">
        <ele>1091.5</ele>
        <time>2022-06-15T07:05:47Z</time>
      </trkpt>
      <trkpt lat="45.65741" lon="6.78317">
        <ele>1091.8</ele>
        <time>2022-06-15T07:05:48Z</time>
      </trkpt>
      <trkpt lat="45.65743" lon="6.78315">
        <ele>1091.9</ele>
        <time>2022-06-15T07:05:49Z</time>
      </trkpt>
      <trkpt lat="45.65745" lon="6.78314">
        <ele>1092.1</ele>
        <time>2022-06-15T07:05:50Z</time>
      </trkpt>
      <trkpt lat="45.65747" lon="6.78312">
        <ele>1092.2</ele>
        <time>2022-06-15T07:05:51Z</time>
      </trkpt>
      <trkpt lat="45.65749" lon="6.78311">
        <ele>1092.4</ele>
        <time>2022-06-15T07:05:52Z</time>
      </trkpt>
      <trkpt lat="45.6575" lon="6.7831">
        <ele>1092.5</ele>
        <time>2022-06-15T07:05:53Z</time>
      </trkpt>
      <trkpt lat="45.65752" lon="6.78309">
        <ele>1092.7</ele>
        <time>2022-06-15T07:05:54Z</time>
      </trkpt>
      <trkpt lat="45.65754" lon="6.78308">
        <ele>1092.7</ele>
        <time>2022-06-15T07:05:55Z</time>
      </trkpt>
      <trkpt lat="45.65756" lon="6.78306">
        <ele>1092.8</ele>
        <time>2022-06-15T07:05:56Z</time>
      </trkpt>
      <trkpt lat="45.65758" lon="6.78305">
        <ele>1092.8</ele>
        <time>2022-06-15T07:05:57Z</time>
      </trkpt>
      <trkpt lat="45.6576" lon="6.78304">
        <ele>1093</ele>
        <time>2022-06-15T07:05:58Z</time>
      </trkpt>
      <trkpt lat="45.65761" lon="6.78303">
        <ele>1093.2</ele>
        <time>2022-06-15T07:05:59Z</time>
      </trkpt>
      <trkpt lat="45.65763" lon="6.78302">
        <ele>1093.4</ele>
        <time>2022-06-15T07:06:00Z</time>
      </trkpt>
      <trkpt lat="45.65764" lon="6.78301">
        <ele>1093.5</ele>
        <time>2022-06-15T07:06:01Z</time>
      </trkpt>
      <trkpt lat="45.65765" lon="6.78301">
        <ele>1093.7</ele>
        <time>2022-06-15T07:06:02Z</time>
      </trkpt>
      <trkpt lat="45.65767" lon="6.783">
        <ele>1093.8</ele>
        <time>2022-06-15T07:06:03Z</time>
      </trkpt>
      <trkpt lat="45.65768" lon="6.78299">
        <ele>1093.9</ele>
        <time>2022-06-15T07:06:04Z</time>
      </trkpt>
      <trkpt lat="45.65771" lon="6.78299">
        <ele>1094.2</ele>
        <time>2022-06-15T07:06:05Z</time>
      </trkpt>
      <trkpt lat="45.65772" lon="6.78297">
        <ele>1094.4</ele>
        <time>2022-06-15T07:06:06Z</time>
      </trkpt>
      <trkpt lat="45.65774" lon="6.78296">
        <ele>1094.6</ele>
        <time>2022-06-15T07:06:07Z</time>
      </trkpt>
      <trkpt lat="45.65777" lon="6.78295">
        <ele>1094.9</ele>
        <time>2022-06-15T07:06:08Z</time>
      </trkpt>
      <trkpt lat="45.65777" lon="6.78294">
        <ele>1094.9</ele>
        <time>2022-06-15T07:06:09Z</time>
      </trkpt>
      <trkpt lat="45.65779" lon="6.78293">
        <ele>1095.2</ele>
        <time>2022-06-15T07:06:10Z</time>
      </trkpt>
      <trkpt lat="45.6578" lon="6.78292">
        <ele>1095.5</ele>
        <time>2022-06-15T07:06:11Z</time>
      </trkpt>
      <trkpt lat="45.65782" lon="6.78291">
        <ele>1095.7</ele>
        <time>2022-06-15T07:06:12Z</time>
      </trkpt>
      <trkpt lat="45.65783" lon="6.7829">
        <ele>1095.9</ele>
        <time>2022-06-15T07:06:13Z</time>
      </trkpt>
      <trkpt lat="45.65785" lon="6.7829">
        <ele>1096.2</ele>
        <time>2022-06-15T07:06:14Z</time>
      </trkpt>
      <trkpt lat="45.65787" lon="6.78289">
        <ele>1096.4</ele>
        <time>2022-06-15T07:06:15Z</time>
      </trkpt>
      <trkpt lat="45.65788" lon="6.78288">
        <ele>1096.7</ele>
        <time>2022-06-15T07:06:16Z</time>
      </trkpt>
      <trkpt lat="45.6579" lon="6.78288">
        <ele>1097</ele>
        <time>2022-06-15T07:06:17Z</time>
      </trkpt>
      <trkpt lat="45.65793" lon="6.78287">
        <ele>1097.3</ele>
        <time>2022-06-15T07:06:18Z</time>
      </trkpt>
      <trkpt lat="45.65796" lon="6.78287">
        <ele>1097.8</ele>
        <time>2022-06-15T07:06:19Z</time>
      </trkpt>
      <trkpt lat="45.65798" lon="6.78286">
        <ele>1098</ele>
        <time>2022-06-15T07:06:20Z</time>
      </trkpt>
      <trkpt lat="45.65801" lon="6.78285">
        <ele>1098.4</ele>
        <time>2022-06-15T07:06:21Z</time>
      </trkpt>
      <trkpt lat="45.65803" lon="6.78285">
        <ele>1098.6</ele>
        <time>2022-06-15T07:06:22Z</time>
      </trkpt>
      <trkpt lat="45.65806" lon="6.78284">
        <ele>1098.9</ele>
        <time>2022-06-15T07:06:23Z</time>
      </trkpt>
      <trkpt lat="45.65808" lon="6.78283">
        <ele>1099.1</ele>
        <time>2022-06-15T07:06:24Z</time>
      </trkpt>
      <trkpt lat="45.65811" lon="6.78283">
        <ele>1099.4</ele>
        <time>2022-06-15T07:06:25Z</time>
      </trkpt>
      <trkpt lat="45.65813" lon="6.78282">
        <ele>1099.7</ele>
        <time>2022-06-15T07:06:26Z</time>
      </trkpt>
      <trkpt lat="45.65815" lon="6.78282">
        <ele>1100</ele>
        <time>2022-06-15T07:06:27Z</time>
      </trkpt>
      <trkpt lat="45.65818" lon="6.78281">
        <ele>1100.1</ele>
        <time>2022-06-15T07:06:28Z</time>
      </trkpt>
      <trkpt lat="45.6582" lon="6.78281">
        <ele>1100.3</ele>
        <time>2022-06-15T07:06:29Z</time>
      </trkpt>
      <trkpt lat="45.65822" lon="6.78281">
        <ele>1100.5</ele>
        <time>2022-06-15T07:06:30Z</time>
      </trkpt>
      <trkpt lat="45.65824" lon="6.7828">
        <ele>1100.6</ele>
        <time>2022-06-15T07:06:31Z</time>
      </trkpt>
      <trkpt lat="45.65827" lon="6.78279">
        <ele>1100.7</ele>
        <time>2022-06-15T07:06:32Z</time>
      </trkpt>
      <trkpt lat="45.65829" lon="6.78278">
        <ele>1100.7</ele>
        <time>2022-06-15T07:06:33Z</time>
      </trkpt>
      <trkpt lat="45.65831" lon="6.78277">
        <ele>1100.7</ele>
        <time>2022-06-15T07:06:34Z</time>
      </trkpt>
      <trkpt lat="45.65833" lon="6.78276">
        <ele>1100.9</ele>
        <time>2022-06-15T07:06:35Z</time>
      </trkpt>
      <trkpt lat="45.65836" lon="6.78276">
        <ele>1101.3</ele>
        <time>2022-06-15T07:06:36Z</time>
      </trkpt>
      <trkpt lat="45.65837" lon="6.78275">
        <ele>1101.5</ele>
        <time>2022-06-15T07:06:37Z</time>
      </trkpt>
      <trkpt lat="45.65839" lon="6.78274">
        <ele>1101.7</ele>
        <time>2022-06-15T07:06:38Z</time>
      </trkpt>
      <trkpt lat="45.65841" lon="6.78274">
        <ele>1102.1</ele>
        <time>2022-06-15T07:06:39Z</time>
      </trkpt>
      <trkpt lat="45.65843" lon="6.78273">
        <ele>1102.5</ele>
        <time>2022-06-15T07:06:40Z</time>
      </trkpt>
      <trkpt lat="45.65845" lon="6.78272">
        <ele>1102.7</ele>
        <time>2022-06-15T07:06:41Z</time>
      </trkpt>
      <trkpt lat="45.65847" lon="6.78271">
        <ele>1102.9</ele>
        <time>2022-06-15T07:06:42Z</time>
      </trkpt>
      <trkpt lat="45.65849" lon="6.7827">
        <ele>1103.2</ele>
        <time>2022-06-15T07:06:43Z</time>
      </trkpt>
      <trkpt lat="45.65851" lon="6.78269">
        <ele>1103.3</ele>
        <time>2022-06-15T07:06:44Z</time>
      </trkpt>
      <trkpt lat="45.65853" lon="6.78268">
        <ele>1103.5</ele>
        <time>2022-06-15T07:06:45Z</time>
      </trkpt>
      <trkpt lat="45.65855" lon="6.78267">
        <ele>1103.7</ele>
        <time>2022-06-15T07:06:46Z</time>
      </trkpt>
      <trkpt lat="45.65858" lon="6.78266">
        <ele>1104</ele>
        <time>2022-06-15T07:06:47Z</time>
      </trkpt>
      <trkpt lat="45.6586" lon="6.78265">
        <ele>1104</ele>
        <time>2022-06-15T07:06:48Z</time>
      </trkpt>
      <trkpt lat="45.65862" lon="6.78263">
        <ele>1104</ele>
        <time>2022-06-15T07:06:49Z</time>
      </trkpt>
      <trkpt lat="45.65864" lon="6.78262">
        <ele>1104.6</ele>
        <time>2022-06-15T07:06:50Z</time>
      </trkpt>
      <trkpt lat="45.65866" lon="6.78259">
        <ele>1104.7</ele>
        <time>2022-06-15T07:06:51Z</time>
      </trkpt>
      <trkpt lat="45.65868" lon="6.78257">
        <ele>1104.9</ele>
        <time>2022-06-15T07:06:52Z</time>
      </trkpt>
      <trkpt lat="45.6587" lon="6.78255">
        <ele>1104.9</ele>
        <time>2022-06-15T07:06:53Z</time>
      </trkpt>
      <trkpt lat="45.65872" lon="6.78253">
        <ele>1105</ele>
        <time>2022-06-15T07:06:54Z</time>
      </trkpt>
      <trkpt lat="45.65874" lon="6.78251">
        <ele>1105.2</ele>
        <time>2022-06-15T07:06:55Z</time>
      </trkpt>
      <trkpt lat="45.65876" lon="6.78249">
        <ele>1105.7</ele>
        <time>2022-06-15T07:06:56Z</time>
      </trkpt>
      <trkpt lat="45.65877" lon="6.78247">
        <ele>1106.2</ele>
        <time>2022-06-15T07:06:57Z</time>
      </trkpt>
      <trkpt lat="45.65879" lon="6.78245">
        <ele>1106.7</ele>
        <time>2022-06-15T07:06:58Z</time>
      </trkpt>
      <trkpt lat="45.6588" lon="6.78242">
        <ele>1106.9</ele>
        <time>2022-06-15T07:06:59Z</time>
      </trkpt>
      <trkpt lat="45.65882" lon="6.7824">
        <ele>1107.3</ele>
        <time>2022-06-15T07:07:00Z</time>
      </trkpt>
      <trkpt lat="45.65884" lon="6.78238">
        <ele>1107.6</ele>
        <time>2022-06-15T07:07:01Z</time>
      </trkpt>
      <trkpt lat="45.65885" lon="6.78236">
        <ele>1107.7</ele>
        <time>2022-06-15T07:07:02Z</time>
      </trkpt>
      <trkpt lat="45.65887" lon="6.78235">
        <ele>1108</ele>
        <time>2022-06-15T07:07:03Z</time>
      </trkpt>
      <trkpt lat="45.65889" lon="6.78233">
        <ele>1108.1</ele>
        <time>2022-06-15T07:07:04Z</time>
      </trkpt>
      <trkpt lat="45.6589" lon="6.78231">
        <ele>1108.4</ele>
        <time>2022-06-15T07:07:05Z</time>
      </trkpt>
      <trkpt lat="45.65892" lon="6.78229">
        <ele>1108.7</ele>
        <time>2022-06-15T07:07:06Z</time>
      </trkpt>
      <trkpt lat="45.65894" lon="6.78227">
        <ele>1108.9</ele>
        <time>2022-06-15T07:07:07Z</time>
      </trkpt>
      <trkpt lat="45.65896" lon="6.78225">
        <ele>1109.2</ele>
        <time>2022-06-15T07:07:08Z</time>
      </trkpt>
      <trkpt lat="45.65897" lon="6.78223">
        <ele>1109.3</ele>
        <time>2022-06-15T07:07:09Z</time>
      </trkpt>
      <trkpt lat="45.65899" lon="6.78221">
        <ele>1109.4</ele>
        <time>2022-06-15T07:07:10Z</time>
      </trkpt>
      <trkpt lat="45.659" lon="6.78219">
        <ele>1109.6</ele>
        <time>2022-06-15T07:07:11Z</time>
      </trkpt>
      <trkpt lat="45.65902" lon="6.78217">
        <ele>1110</ele>
        <time>2022-06-15T07:07:12Z</time>
      </trkpt>
      <trkpt lat="45.65904" lon="6.78215">
        <ele>1110.3</ele>
        <time>2022-06-15T07:07:13Z</time>
      </trkpt>
      <trkpt lat="45.65906" lon="6.78213">
        <ele>1110.6</ele>
        <time>2022-06-15T07:07:14Z</time>
      </trkpt>
      <trkpt lat="45.65907" lon="6.78211">
        <ele>1110.9</ele>
        <time>2022-06-15T07:07:15Z</time>
      </trkpt>
      <trkpt lat="45.65908" lon="6.78208">
        <ele>1111</ele>
        <time>2022-06-15T07:07:16Z</time>
      </trkpt>
      <trkpt lat="45.6591" lon="6.78206">
        <ele>1111.3</ele>
        <time>2022-06-15T07:07:17Z</time>
      </trkpt>
      <trkpt lat="45.65912" lon="6.78204">
        <ele>1111.5</ele>
        <time>2022-06-15T07:07:18Z</time>
      </trkpt>
      <trkpt lat="45.65913" lon="6.78202">
        <ele>1111.7</ele>
        <time>2022-06-15T07:07:19Z</time>
      </trkpt>
      <trkpt lat="45.65914" lon="6.782">
        <ele>1111.8</ele>
        <time>2022-06-15T07:07:20Z</time>
      </trkpt>
      <trkpt lat="45.65915" lon="6.78197">
        <ele>1111.8</ele>
        <time>2022-06-15T07:07:21Z</time>
      </trkpt>
      <trkpt lat="45.65917" lon="6.78195">
        <ele>1112.1</ele>
        <time>2022-06-15T07:07:22Z</time>
      </trkpt>
      <trkpt lat="45.65918" lon="6.78193">
        <ele>1112.5</ele>
        <time>2022-06-15T07:07:23Z</time>
      </trkpt>
      <trkpt lat="45.6592" lon="6.78191">
        <ele>1112.8</ele>
        <time>2022-06-15T07:07:24Z</time>
      </trkpt>
      <trkpt lat="45.65921" lon="6.78189">
        <ele>1113</ele>
        <time>2022-06-15T07:07:25Z</time>
      </trkpt>
      <trkpt lat="45.65922" lon="6.78187">
        <ele>1113.1</ele>
        <time>2022-06-15T07:07:26Z</time>
      </trkpt>
      <trkpt lat="45.65924" lon="6.78185">
        <ele>1113.2</ele>
        <time>2022-06-15T07:07:27Z</time>
      </trkpt>
      <trkpt lat="45.65926" lon="6.78182">
        <ele>1113.3</ele>
        <time>2022-06-15T07:07:28Z</time>
      </trkpt>
      <trkpt lat="45.65927" lon="6.78181">
        <ele>1113.3</ele>
        <time>2022-06-15T07:07:29Z</time>
      </trkpt>
      <trkpt lat="45.65929" lon="6.78179">
        <ele>1113.4</ele>
        <time>2022-06-15T07:07:30Z</time>
      </trkpt>
      <trkpt lat="45.65931" lon="6.78178">
        <ele>1113.5</ele>
        <time>2022-06-15T07:07:31Z</time>
      </trkpt>
      <trkpt lat="45.65932" lon="6.78177">
        <ele>1113.5</ele>
        <time>2022-06-15T07:07:32Z</time>
      </trkpt>
      <trkpt lat="45.65934" lon="6.78176">
        <ele>1113.6</ele>
        <time>2022-06-15T07:07:33Z</time>
      </trkpt>
      <trkpt lat="45.65935" lon="6.78175">
        <ele>1113.7</ele>
        <time>2022-06-15T07:07:34Z</time>
      </trkpt>
      <trkpt lat="45.65937" lon="6.78174">
        <ele>1113.7</ele>
        <time>2022-06-15T07:07:35Z</time>
      </trkpt>
      <trkpt lat="45.65939" lon="6.78173">
        <ele>1113.7</ele>
        <time>2022-06-15T07:07:36Z</time>
      </trkpt>
      <trkpt lat="45.65941" lon="6.78172">
        <ele>1113.5</ele>
        <time>2022-06-15T07:07:37Z</time>
      </trkpt>
      <trkpt lat="45.65943" lon="6.7817">
        <ele>1113.3</ele>
        <time>2022-06-15T07:07:38Z</time>
      </trkpt>
      <trkpt lat="45.65945" lon="6.7817">
        <ele>1113.3</ele>
        <time>2022-06-15T07:07:39Z</time>
      </trkpt>
      <trkpt lat="45.65947" lon="6.78169">
        <ele>1113.2</ele>
        <time>2022-06-15T07:07:40Z</time>
      </trkpt>
      <trkpt lat="45.6595" lon="6.78169">
        <ele>1114.1</ele>
        <time>2022-06-15T07:07:41Z</time>
      </trkpt>
      <trkpt lat="45.65952" lon="6.78169">
        <ele>1114.4</ele>
        <time>2022-06-15T07:07:42Z</time>
      </trkpt>
      <trkpt lat="45.65954" lon="6.78169">
        <ele>1114.6</ele>
        <time>2022-06-15T07:07:43Z</time>
      </trkpt>
      <trkpt lat="45.65955" lon="6.78169">
        <ele>1114.7</ele>
        <time>2022-06-15T07:07:44Z</time>
      </trkpt>
      <trkpt lat="45.65957" lon="6.78168">
        <ele>1115</ele>
        <time>2022-06-15T07:07:45Z</time>
      </trkpt>
      <trkpt lat="45.65959" lon="6.78168">
        <ele>1115.1</ele>
        <time>2022-06-15T07:07:46Z</time>
      </trkpt>
      <trkpt lat="45.65961" lon="6.78167">
        <ele>1115.2</ele>
        <time>2022-06-15T07:07:47Z</time>
      </trkpt>
      <trkpt lat="45.65963" lon="6.78167">
        <ele>1115.4</ele>
        <time>2022-06-15T07:07:48Z</time>
      </trkpt>
      <trkpt lat="45.65964" lon="6.78167">
        <ele>1115.6</ele>
        <time>2022-06-15T07:07:49Z</time>
      </trkpt>
      <trkpt lat="45.65966" lon="6.78167">
        <ele>1115.8</ele>
        <time>2022-06-15T07:07:50Z</time>
      </trkpt>
      <trkpt lat="45.65968" lon="6.78166">
        <ele>1116.1</ele>
        <time>2022-06-15T07:07:51Z</time>
      </trkpt>
      <trkpt lat="45.6597" lon="6.78166">
        <ele>1116.5</ele>
        <time>2022-06-15T07:07:52Z</time>
      </trkpt>
      <trkpt lat="45.65972" lon="6.78166">
        <ele>1116.8</ele>
        <time>2022-06-15T07:07:53Z</time>
      </trkpt>
      <trkpt lat="45.65973" lon="6.78167">
        <ele>1117.1</ele>
        <time>2022-06-15T07:07:54Z</time>
      </trkpt>
      <trkpt lat="45.65975" lon="6.78167">
        <ele>1117.4</ele>
        <time>2022-06-15T07:07:55Z</time>
      </trkpt>
      <trkpt lat="45.65976" lon="6.78167">
        <ele>1117.4</ele>
        <time>2022-06-15T07:07:56Z</time>
      </trkpt>
      <trkpt lat="45.65978" lon="6.78167">
        <ele>1117.7</ele>
        <time>2022-06-15T07:07:57Z</time>
      </trkpt>
      <trkpt lat="45.65979" lon="6.78167">
        <ele>1117.9</ele>
        <time>2022-06-15T07:07:58Z</time>
      </trkpt>
      <trkpt lat="45.65981" lon="6.78167">
        <ele>1118</ele>
        <time>2022-06-15T07:07:59Z</time>
      </trkpt>
      <trkpt lat="45.65983" lon="6.78167">
        <ele>1118.3</ele>
        <time>2022-06-15T07:08:00Z</time>
      </trkpt>
      <trkpt lat="45.65985" lon="6.78167">
        <ele>1118.5</ele>
        <time>2022-06-15T07:08:01Z</time>
      </trkpt>
      <trkpt lat="45.65987" lon="6.78167">
        <ele>1118.7</ele>
        <time>2022-06-15T07:08:02Z</time>
      </trkpt>
      <trkpt lat="45.65989" lon="6.78167">
        <ele>1118.9</ele>
        <time>2022-06-15T07:08:03Z</time>
      </trkpt>
      <trkpt lat="45.65992" lon="6.78167">
        <ele>1119.2</ele>
        <time>2022-06-15T07:08:04Z</time>
      </trkpt>
      <trkpt lat="45.65994" lon="6.78167">
        <ele>1119.5</ele>
        <time>2022-06-15T07:08:05Z</time>
      </trkpt>
      <trkpt lat="45.65996" lon="6.78168">
        <ele>1119.8</ele>
        <time>2022-06-15T07:08:06Z</time>
      </trkpt>
      <trkpt lat="45.65998" lon="6.78168">
        <ele>1120.2</ele>
        <time>2022-06-15T07:08:07Z</time>
      </trkpt>
      <trkpt lat="45.66001" lon="6.78168">
        <ele>1120.4</ele>
        <time>2022-06-15T07:08:08Z</time>
      </trkpt>
      <trkpt lat="45.66003" lon="6.78168">
        <ele>1120.5</ele>
        <time>2022-06-15T07:08:09Z</time>
      </trkpt>
      <trkpt lat="45.66005" lon="6.78167">
        <ele>1120.5</ele>
        <time>2022-06-15T07:08:10Z</time>
      </trkpt>
      <trkpt lat="45.66008" lon="6.78167">
        <ele>1120.7</ele>
        <time>2022-06-15T07:08:11Z</time>
      </trkpt>
      <trkpt lat="45.6601" lon="6.78167">
        <ele>1120.7</ele>
        <time>2022-06-15T07:08:12Z</time>
      </trkpt>
      <trkpt lat="45.66013" lon="6.78167">
        <ele>1120.9</ele>
        <time>2022-06-15T07:08:13Z</time>
      </trkpt>
      <trkpt lat="45.66016" lon="6.78166">
        <ele>1121.1</ele>
        <time>2022-06-15T07:08:14Z</time>
      </trkpt>
      <trkpt lat="45.66018" lon="6.78165">
        <ele>1121.2</ele>
        <time>2022-06-15T07:08:15Z</time>
      </trkpt>
      <trkpt lat="45.6602" lon="6.78163">
        <ele>1121.2</ele>
        <time>2022-06-15T07:08:16Z</time>
      </trkpt>
      <trkpt lat="45.66023" lon="6.78162">
        <ele>1121.3</ele>
        <time>2022-06-15T07:08:17Z</time>
      </trkpt>
      <trkpt lat="45.66025" lon="6.78161">
        <ele>1121.4</ele>
        <time>2022-06-15T07:08:18Z</time>
      </trkpt>
      <trkpt lat="45.66027" lon="6.78159">
        <ele>1121.4</ele>
        <time>2022-06-15T07:08:19Z</time>
      </trkpt>
      <trkpt lat="45.6603" lon="6.78158">
        <ele>1122</ele>
        <time>2022-06-15T07:08:20Z</time>
      </trkpt>
      <trkpt lat="45.66031" lon="6.78156">
        <ele>1122.3</ele>
        <time>2022-06-15T07:08:21Z</time>
      </trkpt>
      <trkpt lat="45.66033" lon="6.78155">
        <ele>1122.9</ele>
        <time>2022-06-15T07:08:22Z</time>
      </trkpt>
      <trkpt lat="45.66035" lon="6.78154">
        <ele>1123.5</ele>
        <time>2022-06-15T07:08:23Z</time>
      </trkpt>
      <trkpt lat="45.66038" lon="6.78151">
        <ele>1124.1</ele>
        <time>2022-06-15T07:08:24Z</time>
      </trkpt>
      <trkpt lat="45.6604" lon="6.78149">
        <ele>1124.2</ele>
        <time>2022-06-15T07:08:25Z</time>
      </trkpt>
      <trkpt lat="45.66042" lon="6.78147">
        <ele>1124.4</ele>
        <time>2022-06-15T07:08:26Z</time>
      </trkpt>
      <trkpt lat="45.66044" lon="6.78144">
        <ele>1124.6</ele>
        <time>2022-06-15T07:08:27Z</time>
      </trkpt>
      <trkpt lat="45.66047" lon="6.78143">
        <ele>1124.9</ele>
        <time>2022-06-15T07:08:28Z</time>
      </trkpt>
      <trkpt lat="45.66049" lon="6.78141">
        <ele>1124.9</ele>
        <time>2022-06-15T07:08:29Z</time>
      </trkpt>
      <trkpt lat="45.66051" lon="6.78139">
        <ele>1125</ele>
        <time>2022-06-15T07:08:30Z</time>
      </trkpt>
      <trkpt lat="45.66053" lon="6.78137">
        <ele>1125.2</ele>
        <time>2022-06-15T07:08:31Z</time>
      </trkpt>
      <trkpt lat="45.66055" lon="6.78134">
        <ele>1125.3</ele>
        <time>2022-06-15T07:08:32Z</time>
      </trkpt>
      <trkpt lat="45.66057" lon="6.78131">
        <ele>1125.4</ele>
        <time>2022-06-15T07:08:33Z</time>
      </trkpt>
      <trkpt lat="45.66059" lon="6.78128">
        <ele>1126.1</ele>
        <time>2022-06-15T07:08:34Z</time>
      </trkpt>
      <trkpt lat="45.6606" lon="6.78126">
        <ele>1126.5</ele>
        <time>2022-06-15T07:08:35Z</time>
      </trkpt>
      <trkpt lat="45.66062" lon="6.78124">
        <ele>1127.4</ele>
        <time>2022-06-15T07:08:36Z</time>
      </trkpt>
      <trkpt lat="45.66064" lon="6.78122">
        <ele>1128.1</ele>
        <time>2022-06-15T07:08:37Z</time>
      </trkpt>
      <trkpt lat="45.66067" lon="6.78121">
        <ele>1128.9</ele>
        <time>2022-06-15T07:08:38Z</time>
      </trkpt>
      <trkpt lat="45.66068" lon="6.78118">
        <ele>1129.1</ele>
        <time>2022-06-15T07:08:39Z</time>
      </trkpt>
      <trkpt lat="45.6607" lon="6.78116">
        <ele>1129.4</ele>
        <time>2022-06-15T07:08:40Z</time>
      </trkpt>
      <trkpt lat="45.66072" lon="6.78114">
        <ele>1129.7</ele>
        <time>2022-06-15T07:08:41Z</time>
      </trkpt>
      <trkpt lat="45.66074" lon="6.78112">
        <ele>1130.1</ele>
        <time>2022-06-15T07:08:42Z</time>
      </trkpt>
      <trkpt lat="45.66076" lon="6.78109">
        <ele>1130.4</ele>
        <time>2022-06-15T07:08:43Z</time>
      </trkpt>
      <trkpt lat="45.66077" lon="6.78106">
        <ele>1130.6</ele>
        <time>2022-06-15T07:08:44Z</time>
      </trkpt>
      <trkpt lat="45.66079" lon="6.78104">
        <ele>1130.9</ele>
        <time>2022-06-15T07:08:45Z</time>
      </trkpt>
      <trkpt lat="45.6608" lon="6.78102">
        <ele>1131</ele>
        <time>2022-06-15T07:08:46Z</time>
      </trkpt>
      <trkpt lat="45.66082" lon="6.781">
        <ele>1131</ele>
        <time>2022-06-15T07:08:47Z</time>
      </trkpt>
      <trkpt lat="45.66084" lon="6.78097">
        <ele>1131.1</ele>
        <time>2022-06-15T07:08:48Z</time>
      </trkpt>
      <trkpt lat="45.66085" lon="6.78095">
        <ele>1131.4</ele>
        <time>2022-06-15T07:08:49Z</time>
      </trkpt>
      <trkpt lat="45.66086" lon="6.78093">
        <ele>1131.8</ele>
        <time>2022-06-15T07:08:50Z</time>
      </trkpt>
      <trkpt lat="45.66088" lon="6.7809">
        <ele>1132.2</ele>
        <time>2022-06-15T07:08:51Z</time>
      </trkpt>
      <trkpt lat="45.6609" lon="6.78088">
        <ele>1132.7</ele>
        <time>2022-06-15T07:08:52Z</time>
      </trkpt>
      <trkpt lat="45.66092" lon="6.78086">
        <ele>1133</ele>
        <time>2022-06-15T07:08:53Z</time>
      </trkpt>
      <trkpt lat="45.66094" lon="6.78084">
        <ele>1133.4</ele>
        <time>2022-06-15T07:08:54Z</time>
      </trkpt>
      <trkpt lat="45.66095" lon="6.78082">
        <ele>1133.6</ele>
        <time>2022-06-15T07:08:55Z</time>
      </trkpt>
      <trkpt lat="45.66096" lon="6.7808">
        <ele>1133.8</ele>
        <time>2022-06-15T07:08:56Z</time>
      </trkpt>
      <trkpt lat="45.66098" lon="6.78079">
        <ele>1134.4</ele>
        <time>2022-06-15T07:08:57Z</time>
      </trkpt>
      <trkpt lat="45.661" lon="6.78077">
        <ele>1134.9</ele>
        <time>2022-06-15T07:08:58Z</time>
      </trkpt>
      <trkpt lat="45.66102" lon="6.78076">
        <ele>1135.3</ele>
        <time>2022-06-15T07:08:59Z</time>
      </trkpt>
      <trkpt lat="45.66103" lon="6.78074">
        <ele>1135.2</ele>
        <time>2022-06-15T07:09:00Z</time>
      </trkpt>
      <trkpt lat="45.66105" lon="6.78072">
        <ele>1135.2</ele>
        <time>2022-06-15T07:09:01Z</time>
      </trkpt>
      <trkpt lat="45.66105" lon="6.78069">
        <ele>1134.7</ele>
        <time>2022-06-15T07:09:02Z</time>
      </trkpt>
      <trkpt lat="45.66107" lon="6.78067">
        <ele>1134.6</ele>
        <time>2022-06-15T07:09:03Z</time>
      </trkpt>
      <trkpt lat="45.66109" lon="6.78065">
        <ele>1134.7</ele>
        <time>2022-06-15T07:09:04Z</time>
      </trkpt>
      <trkpt lat="45.6611" lon="6.78064">
        <ele>1134.6</ele>
        <time>2022-06-15T07:09:05Z</time>
      </trkpt>
      <trkpt lat="45.66112" lon="6.78063">
        <ele>1134.9</ele>
        <time>2022-06-15T07:09:06Z</time>
      </trkpt>
      <trkpt lat="45.66114" lon="6.78061">
        <ele>1134.5</ele>
        <time>2022-06-15T07:09:07Z</time>
      </trkpt>
      <trkpt lat="45.66116" lon="6.78059">
        <ele>1134.7</ele>
        <time>2022-06-15T07:09:08Z</time>
      </trkpt>
      <trkpt lat="45.66118" lon="6.78057">
        <ele>1134.4</ele>
        <time>2022-06-15T07:09:09Z</time>
      </trkpt>
      <trkpt lat="45.6612" lon="6.78056">
        <ele>1134.4</ele>
        <time>2022-06-15T07:09:10Z</time>
      </trkpt>
      <trkpt lat="45.66122" lon="6.78055">
        <ele>1134.7</ele>
        <time>2022-06-15T07:09:11Z</time>
      </trkpt>
      <trkpt lat="45.66124" lon="6.78054">
        <ele>1134.9</ele>
        <time>2022-06-15T07:09:12Z</time>
      </trkpt>
      <trkpt lat="45.66125" lon="6.78052">
        <ele>1134.6</ele>
        <time>2022-06-15T07:09:13Z</time>
      </trkpt>
      <trkpt lat="45.66127" lon="6.78049">
        <ele>1134.5</ele>
        <time>2022-06-15T07:09:14Z</time>
      </trkpt>
      <trkpt lat="45.66129" lon="6.78047">
        <ele>1134.3</ele>
        <time>2022-06-15T07:09:15Z</time>
      </trkpt>
      <trkpt lat="45.66131" lon="6.78045">
        <ele>1134.6</ele>
        <time>2022-06-15T07:09:16Z</time>
      </trkpt>
      <trkpt lat="45.66133" lon="6.78045">
        <ele>1134.8</ele>
        <time>2022-06-15T07:09:17Z</time>
      </trkpt>
      <trkpt lat="45.66135" lon="6.78044">
        <ele>1135</ele>
        <time>2022-06-15T07:09:18Z</time>
      </trkpt>
      <trkpt lat="45.66136" lon="6.78042">
        <ele>1135.1</ele>
        <time>2022-06-15T07:09:19Z</time>
      </trkpt>
      <trkpt lat="45.66139" lon="6.78042">
        <ele>1135.5</ele>
        <time>2022-06-15T07:09:20Z</time>
      </trkpt>
      <trkpt lat="45.66142" lon="6.78041">
        <ele>1136.4</ele>
        <time>2022-06-15T07:09:21Z</time>
      </trkpt>
      <trkpt lat="45.66145" lon="6.78039">
        <ele>1136.9</ele>
        <time>2022-06-15T07:09:22Z</time>
      </trkpt>
      <trkpt lat="45.66148" lon="6.78038">
        <ele>1137.5</ele>
        <time>2022-06-15T07:09:23Z</time>
      </trkpt>
      <trkpt lat="45.6615" lon="6.78036">
        <ele>1137.8</ele>
        <time>2022-06-15T07:09:24Z</time>
      </trkpt>
      <trkpt lat="45.66153" lon="6.78035">
        <ele>1138.2</ele>
        <time>2022-06-15T07:09:25Z</time>
      </trkpt>
      <trkpt lat="45.66155" lon="6.78034">
        <ele>1138.6</ele>
        <time>2022-06-15T07:09:26Z</time>
      </trkpt>
      <trkpt lat="45.66157" lon="6.78032">
        <ele>1138.2</ele>
        <time>2022-06-15T07:09:27Z</time>
      </trkpt>
      <trkpt lat="45.66158" lon="6.78031">
        <ele>1138.3</ele>
        <time>2022-06-15T07:09:28Z</time>
      </trkpt>
      <trkpt lat="45.6616" lon="6.7803">
        <ele>1138.1</ele>
        <time>2022-06-15T07:09:29Z</time>
      </trkpt>
      <trkpt lat="45.66163" lon="6.78028">
        <ele>1138.2</ele>
        <time>2022-06-15T07:09:30Z</time>
      </trkpt>
      <trkpt lat="45.66165" lon="6.78027">
        <ele>1138.3</ele>
        <time>2022-06-15T07:09:31Z</time>
      </trkpt>
      <trkpt lat="45.66168" lon="6.78025">
        <ele>1138.5</ele>
        <time>2022-06-15T07:09:32Z</time>
      </trkpt>
      <trkpt lat="45.66169" lon="6.78023">
        <ele>1138.7</ele>
        <time>2022-06-15T07:09:33Z</time>
      </trkpt>
      <trkpt lat="45.66172" lon="6.78021">
        <ele>1139.2</ele>
        <time>2022-06-15T07:09:34Z</time>
      </trkpt>
      <trkpt lat="45.66173" lon="6.7802">
        <ele>1139.6</ele>
        <time>2022-06-15T07:09:35Z</time>
      </trkpt>
      <trkpt lat="45.66175" lon="6.78019">
        <ele>1139.8</ele>
        <time>2022-06-15T07:09:36Z</time>
      </trkpt>
      <trkpt lat="45.66175" lon="6.78017">
        <ele>1139.6</ele>
        <time>2022-06-15T07:09:37Z</time>
      </trkpt>
      <trkpt lat="45.66177" lon="6.78016">
        <ele>1140</ele>
        <time>2022-06-15T07:09:38Z</time>
      </trkpt>
      <trkpt lat="45.66178" lon="6.78015">
        <ele>1139.9</ele>
        <time>2022-06-15T07:09:39Z</time>
      </trkpt>
      <trkpt lat="45.66179" lon="6.78013">
        <ele>1139.9</ele>
        <time>2022-06-15T07:09:40Z</time>
      </trkpt>
      <trkpt lat="45.66182" lon="6.78012">
        <ele>1140.3</ele>
        <time>2022-06-15T07:09:41Z</time>
      </trkpt>
      <trkpt lat="45.66183" lon="6.7801">
        <ele>1140.1</ele>
        <time>2022-06-15T07:09:42Z</time>
      </trkpt>
      <trkpt lat="45.66186" lon="6.78009">
        <ele>1140.6</ele>
        <time>2022-06-15T07:09:43Z</time>
      </trkpt>
      <trkpt lat="45.66188" lon="6.78007">
        <ele>1140.8</ele>
        <time>2022-06-15T07:09:44Z</time>
      </trkpt>
      <trkpt lat="45.66191" lon="6.78005">
        <ele>1140.8</ele>
        <time>2022-06-15T07:09:45Z</time>
      </trkpt>
      <trkpt lat="45.66193" lon="6.78003">
        <ele>1140.7</ele>
        <time>2022-06-15T07:09:46Z</time>
      </trkpt>
      <trkpt lat="45.66195" lon="6.78002">
        <ele>1141.2</ele>
        <time>2022-06-15T07:09:47Z</time>
      </trkpt>
      <trkpt lat="45.66197" lon="6.78001">
        <ele>1141.7</ele>
        <time>2022-06-15T07:09:48Z</time>
      </trkpt>
      <trkpt lat="45.66199" lon="6.77999">
        <ele>1142.1</ele>
        <time>2022-06-15T07:09:49Z</time>
      </trkpt>
      <trkpt lat="45.66201" lon="6.77997">
        <ele>1142.6</ele>
        <time>2022-06-15T07:09:50Z</time>
      </trkpt>
      <trkpt lat="45.66203" lon="6.77995">
        <ele>1143.1</ele>
        <time>2022-06-15T07:09:51Z</time>
      </trkpt>
      <trkpt lat="45.66205" lon="6.77992">
        <ele>1142.8</ele>
        <time>2022-06-15T07:09:52Z</time>
      </trkpt>
      <trkpt lat="45.66206" lon="6.77989">
        <ele>1142.5</ele>
        <time>2022-06-15T07:09:53Z</time>
      </trkpt>
      <trkpt lat="45.66206" lon="6.77986">
        <ele>1141.7</ele>
        <time>2022-06-15T07:09:54Z</time>
      </trkpt>
      <trkpt lat="45.66208" lon="6.77983">
        <ele>1141.7</ele>
        <time>2022-06-15T07:09:55Z</time>
      </trkpt>
      <trkpt lat="45.66209" lon="6.77981">
        <ele>1141.8</ele>
        <time>2022-06-15T07:09:56Z</time>
      </trkpt>
      <trkpt lat="45.66211" lon="6.77979">
        <ele>1142.3</ele>
        <time>2022-06-15T07:09:57Z</time>
      </trkpt>
      <trkpt lat="45.66214" lon="6.77978">
        <ele>1143.6</ele>
        <time>2022-06-15T07:09:58Z</time>
      </trkpt>
      <trkpt lat="45.66217" lon="6.77976">
        <ele>1144.4</ele>
        <time>2022-06-15T07:09:59Z</time>
      </trkpt>
      <trkpt lat="45.66219" lon="6.77973">
        <ele>1144.4</ele>
        <time>2022-06-15T07:10:00Z</time>
      </trkpt>
      <trkpt lat="45.6622" lon="6.7797">
        <ele>1144.4</ele>
        <time>2022-06-15T07:10:01Z</time>
      </trkpt>
      <trkpt lat="45.66221" lon="6.77966">
        <ele>1144.1</ele>
        <time>2022-06-15T07:10:02Z</time>
      </trkpt>
      <trkpt lat="45.66222" lon="6.77962">
        <ele>1143.8</ele>
        <time>2022-06-15T07:10:03Z</time>
      </trkpt>
      <trkpt lat="45.66225" lon="6.77959">
        <ele>1144</ele>
        <time>2022-06-15T07:10:04Z</time>
      </trkpt>
      <trkpt lat="45.66226" lon="6.77956">
        <ele>1143.9</ele>
        <time>2022-06-15T07:10:05Z</time>
      </trkpt>
      <trkpt lat="45.66228" lon="6.77953">
        <ele>1143.9</ele>
        <time>2022-06-15T07:10:06Z</time>
      </trkpt>
      <trkpt lat="45.6623" lon="6.7795">
        <ele>1143.8</ele>
        <time>2022-06-15T07:10:07Z</time>
      </trkpt>
      <trkpt lat="45.66231" lon="6.77947">
        <ele>1143.4</ele>
        <time>2022-06-15T07:10:08Z</time>
      </trkpt>
      <trkpt lat="45.66232" lon="6.77944">
        <ele>1143.5</ele>
        <time>2022-06-15T07:10:09Z</time>
      </trkpt>
      <trkpt lat="45.66233" lon="6.77941">
        <ele>1143.5</ele>
        <time>2022-06-15T07:10:10Z</time>
      </trkpt>
      <trkpt lat="45.66235" lon="6.77939">
        <ele>1143.5</ele>
        <time>2022-06-15T07:10:11Z</time>
      </trkpt>
      <trkpt lat="45.66236" lon="6.77937">
        <ele>1143.9</ele>
        <time>2022-06-15T07:10:12Z</time>
      </trkpt>
      <trkpt lat="45.66238" lon="6.77935">
        <ele>1144.1</ele>
        <time>2022-06-15T07:10:13Z</time>
      </trkpt>
      <trkpt lat="45.6624" lon="6.77934">
        <ele>1144.5</ele>
        <time>2022-06-15T07:10:14Z</time>
      </trkpt>
      <trkpt lat="45.66242" lon="6.77932">
        <ele>1144.7</ele>
        <time>2022-06-15T07:10:15Z</time>
      </trkpt>
      <trkpt lat="45.66244" lon="6.77929">
        <ele>1144.8</ele>
        <time>2022-06-15T07:10:16Z</time>
      </trkpt>
      <trkpt lat="45.66247" lon="6.77928">
        <ele>1145.3</ele>
        <time>2022-06-15T07:10:17Z</time>
      </trkpt>
      <trkpt lat="45.66249" lon="6.77926">
        <ele>1145.8</ele>
        <time>2022-06-15T07:10:18Z</time>
      </trkpt>
      <trkpt lat="45.66251" lon="6.77924">
        <ele>1145.8</ele>
        <time>2022-06-15T07:10:19Z</time>
      </trkpt>
      <trkpt lat="45.66252" lon="6.77923">
        <ele>1145.6</ele>
        <time>2022-06-15T07:10:20Z</time>
      </trkpt>
      <trkpt lat="45.66254" lon="6.77922">
        <ele>1145.7</ele>
        <time>2022-06-15T07:10:21Z</time>
      </trkpt>
      <trkpt lat="45.66256" lon="6.77922">
        <ele>1145.9</ele>
        <time>2022-06-15T07:10:22Z</time>
      </trkpt>
      <trkpt lat="45.66259" lon="6.77922">
        <ele>1146.1</ele>
        <time>2022-06-15T07:10:23Z</time>
      </trkpt>
      <trkpt lat="45.66262" lon="6.77923">
        <ele>1146.8</ele>
        <time>2022-06-15T07:10:24Z</time>
      </trkpt>
      <trkpt lat="45.66264" lon="6.77924">
        <ele>1147.2</ele>
        <time>2022-06-15T07:10:25Z</time>
      </trkpt>
      <trkpt lat="45.66265" lon="6.77924">
        <ele>1147.4</ele>
        <time>2022-06-15T07:10:26Z</time>
      </trkpt>
      <trkpt lat="45.66267" lon="6.77924">
        <ele>1147.6</ele>
        <time>2022-06-15T07:10:27Z</time>
      </trkpt>
      <trkpt lat="45.6627" lon="6.77924">
        <ele>1148</ele>
        <time>2022-06-15T07:10:28Z</time>
      </trkpt>
      <trkpt lat="45.66272" lon="6.77924">
        <ele>1148.5</ele>
        <time>2022-06-15T07:10:29Z</time>
      </trkpt>
      <trkpt lat="45.66274" lon="6.77924">
        <ele>1148.5</ele>
        <time>2022-06-15T07:10:30Z</time>
      </trkpt>
      <trkpt lat="45.66276" lon="6.77924">
        <ele>1148.9</ele>
        <time>2022-06-15T07:10:31Z</time>
      </trkpt>
      <trkpt lat="45.66277" lon="6.77924">
        <ele>1149.1</ele>
        <time>2022-06-15T07:10:32Z</time>
      </trkpt>
      <trkpt lat="45.66279" lon="6.77924">
        <ele>1149.3</ele>
        <time>2022-06-15T07:10:33Z</time>
      </trkpt>
      <trkpt lat="45.66281" lon="6.77924">
        <ele>1149.9</ele>
        <time>2022-06-15T07:10:34Z</time>
      </trkpt>
      <trkpt lat="45.66283" lon="6.77923">
        <ele>1149.6</ele>
        <time>2022-06-15T07:10:35Z</time>
      </trkpt>
      <trkpt lat="45.66285" lon="6.77922">
        <ele>1149.6</ele>
        <time>2022-06-15T07:10:36Z</time>
      </trkpt>
      <trkpt lat="45.66287" lon="6.77921">
        <ele>1149.7</ele>
        <time>2022-06-15T07:10:37Z</time>
      </trkpt>
      <trkpt lat="45.66289" lon="6.7792">
        <ele>1149.8</ele>
        <time>2022-06-15T07:10:38Z</time>
      </trkpt>
      <trkpt lat="45.66291" lon="6.7792">
        <ele>1149.8</ele>
        <time>2022-06-15T07:10:39Z</time>
      </trkpt>
      <trkpt lat="45.66293" lon="6.7792">
        <ele>1150.3</ele>
        <time>2022-06-15T07:10:40Z</time>
      </trkpt>
      <trkpt lat="45.66296" lon="6.7792">
        <ele>1151</ele>
        <time>2022-06-15T07:10:41Z</time>
      </trkpt>
      <trkpt lat="45.66298" lon="6.7792">
        <ele>1151.1</ele>
        <time>2022-06-15T07:10:42Z</time>
      </trkpt>
      <trkpt lat="45.663" lon="6.77918">
        <ele>1150.9</ele>
        <time>2022-06-15T07:10:43Z</time>
      </trkpt>
      <trkpt lat="45.66303" lon="6.77917">
        <ele>1150.7</ele>
        <time>2022-06-15T07:10:44Z</time>
      </trkpt>
      <trkpt lat="45.66305" lon="6.77916">
        <ele>1150.6</ele>
        <time>2022-06-15T07:10:45Z</time>
      </trkpt>
      <trkpt lat="45.66307" lon="6.77914">
        <ele>1151</ele>
        <time>2022-06-15T07:10:46Z</time>
      </trkpt>
      <trkpt lat="45.66308" lon="6.77912">
        <ele>1151.1</ele>
        <time>2022-06-15T07:10:47Z</time>
      </trkpt>
      <trkpt lat="45.6631" lon="6.7791">
        <ele>1151.7</ele>
        <time>2022-06-15T07:10:48Z</time>
      </trkpt>
      <trkpt lat="45.66312" lon="6.77908">
        <ele>1151.9</ele>
        <time>2022-06-15T07:10:49Z</time>
      </trkpt>
      <trkpt lat="45.66314" lon="6.77906">
        <ele>1152.5</ele>
        <time>2022-06-15T07:10:50Z</time>
      </trkpt>
      <trkpt lat="45.66316" lon="6.77905">
        <ele>1153.1</ele>
        <time>2022-06-15T07:10:51Z</time>
      </trkpt>
      <trkpt lat="45.66318" lon="6.77903">
        <ele>1153.5</ele>
        <time>2022-06-15T07:10:52Z</time>
      </trkpt>
      <trkpt lat="45.66319" lon="6.77901">
        <ele>1153.7</ele>
        <time>2022-06-15T07:10:53Z</time>
      </trkpt>
      <trkpt lat="45.66321" lon="6.77898">
        <ele>1153.7</ele>
        <time>2022-06-15T07:10:54Z</time>
      </trkpt>
      <trkpt lat="45.66323" lon="6.77896">
        <ele>1153.6</ele>
        <time>2022-06-15T07:10:55Z</time>
      </trkpt>
      <trkpt lat="45.66324" lon="6.77893">
        <ele>1153.3</ele>
        <time>2022-06-15T07:10:56Z</time>
      </trkpt>
      <trkpt lat="45.66325" lon="6.77889">
        <ele>1152.6</ele>
        <time>2022-06-15T07:10:57Z</time>
      </trkpt>
      <trkpt lat="45.66327" lon="6.77887">
        <ele>1152.9</ele>
        <time>2022-06-15T07:10:58Z</time>
      </trkpt>
      <trkpt lat="45.66328" lon="6.77885">
        <ele>1153.3</ele>
        <time>2022-06-15T07:10:59Z</time>
      </trkpt>
      <trkpt lat="45.66329" lon="6.77882">
        <ele>1153.3</ele>
        <time>2022-06-15T07:11:00Z</time>
      </trkpt>
      <trkpt lat="45.6633" lon="6.7788">
        <ele>1153.4</ele>
        <time>2022-06-15T07:11:01Z</time>
      </trkpt>
      <trkpt lat="45.66332" lon="6.77877">
        <ele>1153.4</ele>
        <time>2022-06-15T07:11:02Z</time>
      </trkpt>
      <trkpt lat="45.66332" lon="6.77874">
        <ele>1153.1</ele>
        <time>2022-06-15T07:11:03Z</time>
      </trkpt>
      <trkpt lat="45.66334" lon="6.77871">
        <ele>1152.9</ele>
        <time>2022-06-15T07:11:04Z</time>
      </trkpt>
      <trkpt lat="45.66335" lon="6.77869">
        <ele>1153.1</ele>
        <time>2022-06-15T07:11:05Z</time>
      </trkpt>
      <trkpt lat="45.66336" lon="6.77866">
        <ele>1153.4</ele>
        <time>2022-06-15T07:11:06Z</time>
      </trkpt>
      <trkpt lat="45.66338" lon="6.77864">
        <ele>1153.9</ele>
        <time>2022-06-15T07:11:07Z</time>
      </trkpt>
      <trkpt lat="45.6634" lon="6.77861">
        <ele>1154.4</ele>
        <time>2022-06-15T07:11:08Z</time>
      </trkpt>
      <trkpt lat="45.66342" lon="6.77859">
        <ele>1154.8</ele>
        <time>2022-06-15T07:11:09Z</time>
      </trkpt>
      <trkpt lat="45.66343" lon="6.77857">
        <ele>1155.2</ele>
        <time>2022-06-15T07:11:10Z</time>
      </trkpt>
      <trkpt lat="45.66345" lon="6.77854">
        <ele>1155.5</ele>
        <time>2022-06-15T07:11:11Z</time>
      </trkpt>
      <trkpt lat="45.66347" lon="6.77852">
        <ele>1156.2</ele>
        <time>2022-06-15T07:11:12Z</time>
      </trkpt>
      <trkpt lat="45.66348" lon="6.7785">
        <ele>1156.5</ele>
        <time>2022-06-15T07:11:13Z</time>
      </trkpt>
      <trkpt lat="45.6635" lon="6.77848">
        <ele>1156.5</ele>
        <time>2022-06-15T07:11:14Z</time>
      </trkpt>
      <trkpt lat="45.66351" lon="6.77845">
        <ele>1156.7</ele>
        <time>2022-06-15T07:11:15Z</time>
      </trkpt>
      <trkpt lat="45.66353" lon="6.77844">
        <ele>1157.2</ele>
        <time>2022-06-15T07:11:16Z</time>
      </trkpt>
      <trkpt lat="45.66355" lon="6.77841">
        <ele>1157.3</ele>
        <time>2022-06-15T07:11:17Z</time>
      </trkpt>
      <trkpt lat="45.66356" lon="6.77839">
        <ele>1157.4</ele>
        <time>2022-06-15T07:11:18Z</time>
      </trkpt>
      <trkpt lat="45.66358" lon="6.77837">
        <ele>1157.5</ele>
        <time>2022-06-15T07:11:19Z</time>
      </trkpt>
      <trkpt lat="45.66359" lon="6.77835">
        <ele>1157.7</ele>
        <time>2022-06-15T07:11:20Z</time>
      </trkpt>
      <trkpt lat="45.66361" lon="6.77833">
        <ele>1157.8</ele>
        <time>2022-06-15T07:11:21Z</time>
      </trkpt>
      <trkpt lat="45.66363" lon="6.77831">
        <ele>1157.9</ele>
        <time>2022-06-15T07:11:22Z</time>
      </trkpt>
      <trkpt lat="45.66364" lon="6.77829">
        <ele>1158</ele>
        <time>2022-06-15T07:11:23Z</time>
      </trkpt>
      <trkpt lat="45.66365" lon="6.77827">
        <ele>1157.7</ele>
        <time>2022-06-15T07:11:24Z</time>
      </trkpt>
      <trkpt lat="45.66367" lon="6.77826">
        <ele>1158</ele>
        <time>2022-06-15T07:11:25Z</time>
      </trkpt>
      <trkpt lat="45.66369" lon="6.77824">
        <ele>1158</ele>
        <time>2022-06-15T07:11:26Z</time>
      </trkpt>
      <trkpt lat="45.6637" lon="6.77822">
        <ele>1158.3</ele>
        <time>2022-06-15T07:11:27Z</time>
      </trkpt>
      <trkpt lat="45.66372" lon="6.7782">
        <ele>1158.4</ele>
        <time>2022-06-15T07:11:28Z</time>
      </trkpt>
      <trkpt lat="45.66374" lon="6.77818">
        <ele>1158.6</ele>
        <time>2022-06-15T07:11:29Z</time>
      </trkpt>
      <trkpt lat="45.66376" lon="6.77817">
        <ele>1158.8</ele>
        <time>2022-06-15T07:11:30Z</time>
      </trkpt>
      <trkpt lat="45.66378" lon="6.77815">
        <ele>1159.1</ele>
        <time>2022-06-15T07:11:31Z</time>
      </trkpt>
      <trkpt lat="45.66379" lon="6.77813">
        <ele>1159.2</ele>
        <time>2022-06-15T07:11:32Z</time>
      </trkpt>
      <trkpt lat="45.66381" lon="6.77811">
        <ele>1159.3</ele>
        <time>2022-06-15T07:11:33Z</time>
      </trkpt>
      <trkpt lat="45.66383" lon="6.77809">
        <ele>1159.7</ele>
        <time>2022-06-15T07:11:34Z</time>
      </trkpt>
      <trkpt lat="45.66385" lon="6.77808">
        <ele>1160</ele>
        <time>2022-06-15T07:11:35Z</time>
      </trkpt>
      <trkpt lat="45.66387" lon="6.77806">
        <ele>1160.1</ele>
        <time>2022-06-15T07:11:36Z</time>
      </trkpt>
      <trkpt lat="45.66388" lon="6.77803">
        <ele>1160.3</ele>
        <time>2022-06-15T07:11:37Z</time>
      </trkpt>
      <trkpt lat="45.66391" lon="6.77801">
        <ele>1160.5</ele>
        <time>2022-06-15T07:11:38Z</time>
      </trkpt>
      <trkpt lat="45.66393" lon="6.778">
        <ele>1160.8</ele>
        <time>2022-06-15T07:11:39Z</time>
      </trkpt>
      <trkpt lat="45.66395" lon="6.77798">
        <ele>1161</ele>
        <time>2022-06-15T07:11:40Z</time>
      </trkpt>
      <trkpt lat="45.66396" lon="6.77796">
        <ele>1161.1</ele>
        <time>2022-06-15T07:11:41Z</time>
      </trkpt>
      <trkpt lat="45.66398" lon="6.77794">
        <ele>1161</ele>
        <time>2022-06-15T07:11:42Z</time>
      </trkpt>
      <trkpt lat="45.66399" lon="6.77792">
        <ele>1160.9</ele>
        <time>2022-06-15T07:11:43Z</time>
      </trkpt>
      <trkpt lat="45.66401" lon="6.77791">
        <ele>1161.1</ele>
        <time>2022-06-15T07:11:44Z</time>
      </trkpt>
      <trkpt lat="45.66403" lon="6.77789">
        <ele>1161.3</ele>
        <time>2022-06-15T07:11:45Z</time>
      </trkpt>
      <trkpt lat="45.66404" lon="6.77787">
        <ele>1161.4</ele>
        <time>2022-06-15T07:11:46Z</time>
      </trkpt>
      <trkpt lat="45.66405" lon="6.77785">
        <ele>1161.2</ele>
        <time>2022-06-15T07:11:47Z</time>
      </trkpt>
      <trkpt lat="45.66408" lon="6.77784">
        <ele>1161.7</ele>
        <time>2022-06-15T07:11:48Z</time>
      </trkpt>
      <trkpt lat="45.6641" lon="6.77782">
        <ele>1162.1</ele>
        <time>2022-06-15T07:11:49Z</time>
      </trkpt>
      <trkpt lat="45.66413" lon="6.77781">
        <ele>1162.5</ele>
        <time>2022-06-15T07:11:50Z</time>
      </trkpt>
      <trkpt lat="45.66415" lon="6.77779">
        <ele>1162.7</ele>
        <time>2022-06-15T07:11:51Z</time>
      </trkpt>
      <trkpt lat="45.66417" lon="6.77778">
        <ele>1163</ele>
        <time>2022-06-15T07:11:52Z</time>
      </trkpt>
      <trkpt lat="45.66419" lon="6.77776">
        <ele>1163.4</ele>
        <time>2022-06-15T07:11:53Z</time>
      </trkpt>
      <trkpt lat="45.66421" lon="6.77775">
        <ele>1163.7</ele>
        <time>2022-06-15T07:11:54Z</time>
      </trkpt>
      <trkpt lat="45.66423" lon="6.77773">
        <ele>1164</ele>
        <time>2022-06-15T07:11:55Z</time>
      </trkpt>
      <trkpt lat="45.66425" lon="6.77771">
        <ele>1164.3</ele>
        <time>2022-06-15T07:11:56Z</time>
      </trkpt>
      <trkpt lat="45.66427" lon="6.7777">
        <ele>1164.5</ele>
        <time>2022-06-15T07:11:57Z</time>
      </trkpt>
      <trkpt lat="45.66429" lon="6.77768">
        <ele>1165</ele>
        <time>2022-06-15T07:11:58Z</time>
      </trkpt>
      <trkpt lat="45.66431" lon="6.77767">
        <ele>1165.2</ele>
        <time>2022-06-15T07:11:59Z</time>
      </trkpt>
      <trkpt lat="45.66433" lon="6.77764">
        <ele>1165.4</ele>
        <time>2022-06-15T07:12:00Z</time>
      </trkpt>
      <trkpt lat="45.66435" lon="6.77762">
        <ele>1165.6</ele>
        <time>2022-06-15T07:12:01Z</time>
      </trkpt>
      <trkpt lat="45.66437" lon="6.7776">
        <ele>1165.8</ele>
        <time>2022-06-15T07:12:02Z</time>
      </trkpt>
      <trkpt lat="45.66439" lon="6.77758">
        <ele>1165.9</ele>
        <time>2022-06-15T07:12:03Z</time>
      </trkpt>
      <trkpt lat="45.6644" lon="6.77756">
        <ele>1166</ele>
        <time>2022-06-15T07:12:04Z</time>
      </trkpt>
      <trkpt lat="45.66442" lon="6.77755">
        <ele>1166.2</ele>
        <time>2022-06-15T07:12:05Z</time>
      </trkpt>
      <trkpt lat="45.66445" lon="6.77753">
        <ele>1166.6</ele>
        <time>2022-06-15T07:12:06Z</time>
      </trkpt>
      <trkpt lat="45.66447" lon="6.77751">
        <ele>1166.7</ele>
        <time>2022-06-15T07:12:07Z</time>
      </trkpt>
      <trkpt lat="45.66449" lon="6.7775">
        <ele>1167</ele>
        <time>2022-06-15T07:12:08Z</time>
      </trkpt>
      <trkpt lat="45.66451" lon="6.77748">
        <ele>1167.3</ele>
        <time>2022-06-15T07:12:09Z</time>
      </trkpt>
      <trkpt lat="45.66453" lon="6.77746">
        <ele>1167.6</ele>
        <time>2022-06-15T07:12:10Z</time>
      </trkpt>
      <trkpt lat="45.66455" lon="6.77744">
        <ele>1167.9</ele>
        <time>2022-06-15T07:12:11Z</time>
      </trkpt>
      <trkpt lat="45.66457" lon="6.77743">
        <ele>1168.2</ele>
        <time>2022-06-15T07:12:12Z</time>
      </trkpt>
      <trkpt lat="45.66459" lon="6.77741">
        <ele>1168.4</ele>
        <time>2022-06-15T07:12:13Z</time>
      </trkpt>
      <trkpt lat="45.66461" lon="6.7774">
        <ele>1168.7</ele>
        <time>2022-06-15T07:12:14Z</time>
      </trkpt>
      <trkpt lat="45.66463" lon="6.77738">
        <ele>1168.9</ele>
        <time>2022-06-15T07:12:15Z</time>
      </trkpt>
      <trkpt lat="45.66465" lon="6.77737">
        <ele>1169.2</ele>
        <time>2022-06-15T07:12:16Z</time>
      </trkpt>
      <trkpt lat="45.66467" lon="6.77736">
        <ele>1169.6</ele>
        <time>2022-06-15T07:12:17Z</time>
      </trkpt>
      <trkpt lat="45.66469" lon="6.77735">
        <ele>1169.7</ele>
        <time>2022-06-15T07:12:18Z</time>
      </trkpt>
      <trkpt lat="45.66471" lon="6.77733">
        <ele>1169.7</ele>
        <time>2022-06-15T07:12:19Z</time>
      </trkpt>
      <trkpt lat="45.66474" lon="6.7773">
        <ele>1169.6</ele>
        <time>2022-06-15T07:12:20Z</time>
      </trkpt>
      <trkpt lat="45.66476" lon="6.77728">
        <ele>1169.5</ele>
        <time>2022-06-15T07:12:21Z</time>
      </trkpt>
      <trkpt lat="45.66478" lon="6.77726">
        <ele>1169.4</ele>
        <time>2022-06-15T07:12:22Z</time>
      </trkpt>
      <trkpt lat="45.6648" lon="6.77724">
        <ele>1169.3</ele>
        <time>2022-06-15T07:12:23Z</time>
      </trkpt>
      <trkpt lat="45.66482" lon="6.77722">
        <ele>1169.3</ele>
        <time>2022-06-15T07:12:24Z</time>
      </trkpt>
      <trkpt lat="45.66484" lon="6.7772">
        <ele>1169.6</ele>
        <time>2022-06-15T07:12:25Z</time>
      </trkpt>
      <trkpt lat="45.66486" lon="6.77718">
        <ele>1169.8</ele>
        <time>2022-06-15T07:12:26Z</time>
      </trkpt>
      <trkpt lat="45.66488" lon="6.77716">
        <ele>1170.1</ele>
        <time>2022-06-15T07:12:27Z</time>
      </trkpt>
      <trkpt lat="45.6649" lon="6.77713">
        <ele>1170.3</ele>
        <time>2022-06-15T07:12:28Z</time>
      </trkpt>
      <trkpt lat="45.66492" lon="6.77711">
        <ele>1170.5</ele>
        <time>2022-06-15T07:12:29Z</time>
      </trkpt>
      <trkpt lat="45.66493" lon="6.77708">
        <ele>1170.8</ele>
        <time>2022-06-15T07:12:30Z</time>
      </trkpt>
      <trkpt lat="45.66495" lon="6.77705">
        <ele>1171</ele>
        <time>2022-06-15T07:12:31Z</time>
      </trkpt>
      <trkpt lat="45.66496" lon="6.77702">
        <ele>1171.2</ele>
        <time>2022-06-15T07:12:32Z</time>
      </trkpt>
      <trkpt lat="45.66498" lon="6.777">
        <ele>1171.5</ele>
        <time>2022-06-15T07:12:33Z</time>
      </trkpt>
      <trkpt lat="45.66499" lon="6.77697">
        <ele>1171.8</ele>
        <time>2022-06-15T07:12:34Z</time>
      </trkpt>
      <trkpt lat="45.665" lon="6.77694">
        <ele>1172</ele>
        <time>2022-06-15T07:12:35Z</time>
      </trkpt>
      <trkpt lat="45.66501" lon="6.77691">
        <ele>1172.1</ele>
        <time>2022-06-15T07:12:36Z</time>
      </trkpt>
      <trkpt lat="45.66501" lon="6.77687">
        <ele>1172.3</ele>
        <time>2022-06-15T07:12:37Z</time>
      </trkpt>
      <trkpt lat="45.66502" lon="6.77684">
        <ele>1172.4</ele>
        <time>2022-06-15T07:12:38Z</time>
      </trkpt>
      <trkpt lat="45.66502" lon="6.7768">
        <ele>1172.5</ele>
        <time>2022-06-15T07:12:39Z</time>
      </trkpt>
      <trkpt lat="45.66503" lon="6.77677">
        <ele>1172.6</ele>
        <time>2022-06-15T07:12:40Z</time>
      </trkpt>
      <trkpt lat="45.66503" lon="6.77673">
        <ele>1172.7</ele>
        <time>2022-06-15T07:12:41Z</time>
      </trkpt>
      <trkpt lat="45.66504" lon="6.77671">
        <ele>1172.9</ele>
        <time>2022-06-15T07:12:42Z</time>
      </trkpt>
      <trkpt lat="45.66505" lon="6.77667">
        <ele>1173</ele>
        <time>2022-06-15T07:12:43Z</time>
      </trkpt>
      <trkpt lat="45.66506" lon="6.77664">
        <ele>1173.2</ele>
        <time>2022-06-15T07:12:44Z</time>
      </trkpt>
      <trkpt lat="45.66507" lon="6.77661">
        <ele>1173.4</ele>
        <time>2022-06-15T07:12:45Z</time>
      </trkpt>
      <trkpt lat="45.66508" lon="6.77658">
        <ele>1173.5</ele>
        <time>2022-06-15T07:12:46Z</time>
      </trkpt>
      <trkpt lat="45.66509" lon="6.77656">
        <ele>1173.7</ele>
        <time>2022-06-15T07:12:47Z</time>
      </trkpt>
      <trkpt lat="45.6651" lon="6.77653">
        <ele>1173.9</ele>
        <time>2022-06-15T07:12:48Z</time>
      </trkpt>
      <trkpt lat="45.66511" lon="6.7765">
        <ele>1174.1</ele>
        <time>2022-06-15T07:12:49Z</time>
      </trkpt>
      <trkpt lat="45.66512" lon="6.77647">
        <ele>1174.2</ele>
        <time>2022-06-15T07:12:50Z</time>
      </trkpt>
      <trkpt lat="45.66513" lon="6.77644">
        <ele>1174.4</ele>
        <time>2022-06-15T07:12:51Z</time>
      </trkpt>
      <trkpt lat="45.66514" lon="6.77641">
        <ele>1174.5</ele>
        <time>2022-06-15T07:12:52Z</time>
      </trkpt>
      <trkpt lat="45.66515" lon="6.77638">
        <ele>1174.6</ele>
        <time>2022-06-15T07:12:53Z</time>
      </trkpt>
      <trkpt lat="45.66516" lon="6.77636">
        <ele>1174.7</ele>
        <time>2022-06-15T07:12:54Z</time>
      </trkpt>
      <trkpt lat="45.66517" lon="6.77633">
        <ele>1174.8</ele>
        <time>2022-06-15T07:12:55Z</time>
      </trkpt>
      <trkpt lat="45.66517" lon="6.7763">
        <ele>1174.8</ele>
        <time>2022-06-15T07:12:56Z</time>
      </trkpt>
      <trkpt lat="45.66518" lon="6.77627">
        <ele>1174.9</ele>
        <time>2022-06-15T07:12:57Z</time>
      </trkpt>
      <trkpt lat="45.66519" lon="6.77623">
        <ele>1174.9</ele>
        <time>2022-06-15T07:12:58Z</time>
      </trkpt>
      <trkpt lat="45.66519" lon="6.7762">
        <ele>1175</ele>
        <time>2022-06-15T07:12:59Z</time>
      </trkpt>
      <trkpt lat="45.6652" lon="6.77616">
        <ele>1175.1</ele>
        <time>2022-06-15T07:13:00Z</time>
      </trkpt>
      <trkpt lat="45.66521" lon="6.77613">
        <ele>1175.2</ele>
        <time>2022-06-15T07:13:01Z</time>
      </trkpt>
      <trkpt lat="45.66522" lon="6.7761">
        <ele>1175.4</ele>
        <time>2022-06-15T07:13:02Z</time>
      </trkpt>
      <trkpt lat="45.66523" lon="6.77607">
        <ele>1175.7</ele>
        <time>2022-06-15T07:13:03Z</time>
      </trkpt>
      <trkpt lat="45.66524" lon="6.77604">
        <ele>1176.1</ele>
        <time>2022-06-15T07:13:04Z</time>
      </trkpt>
      <trkpt lat="45.66525" lon="6.77601">
        <ele>1176.4</ele>
        <time>2022-06-15T07:13:05Z</time>
      </trkpt>
      <trkpt lat="45.66526" lon="6.77598">
        <ele>1176.8</ele>
        <time>2022-06-15T07:13:06Z</time>
      </trkpt>
      <trkpt lat="45.66526" lon="6.77595">
        <ele>1177.1</ele>
        <time>2022-06-15T07:13:07Z</time>
      </trkpt>
      <trkpt lat="45.66527" lon="6.77592">
        <ele>1177.5</ele>
        <time>2022-06-15T07:13:08Z</time>
      </trkpt>
      <trkpt lat="45.66528" lon="6.77588">
        <ele>1177.9</ele>
        <time>2022-06-15T07:13:09Z</time>
      </trkpt>
      <trkpt lat="45.66529" lon="6.77585">
        <ele>1178.1</ele>
        <time>2022-06-15T07:13:10Z</time>
      </trkpt>
      <trkpt lat="45.6653" lon="6.77583">
        <ele>1178.2</ele>
        <time>2022-06-15T07:13:11Z</time>
      </trkpt>
      <trkpt lat="45.66531" lon="6.77581">
        <ele>1178.4</ele>
        <time>2022-06-15T07:13:12Z</time>
      </trkpt>
      <trkpt lat="45.66533" lon="6.77579">
        <ele>1178.6</ele>
        <time>2022-06-15T07:13:13Z</time>
      </trkpt>
      <trkpt lat="45.66534" lon="6.77575">
        <ele>1178.7</ele>
        <time>2022-06-15T07:13:14Z</time>
      </trkpt>
      <trkpt lat="45.66535" lon="6.77571">
        <ele>1178.9</ele>
        <time>2022-06-15T07:13:15Z</time>
      </trkpt>
      <trkpt lat="45.66537" lon="6.77568">
        <ele>1179.2</ele>
        <time>2022-06-15T07:13:16Z</time>
      </trkpt>
      <trkpt lat="45.66539" lon="6.77564">
        <ele>1179.4</ele>
        <time>2022-06-15T07:13:17Z</time>
      </trkpt>
      <trkpt lat="45.6654" lon="6.77561">
        <ele>1179.7</ele>
        <time>2022-06-15T07:13:18Z</time>
      </trkpt>
      <trkpt lat="45.66541" lon="6.77556">
        <ele>1179.9</ele>
        <time>2022-06-15T07:13:19Z</time>
      </trkpt>
      <trkpt lat="45.66542" lon="6.77552">
        <ele>1179.7</ele>
        <time>2022-06-15T07:13:20Z</time>
      </trkpt>
      <trkpt lat="45.66544" lon="6.77548">
        <ele>1179.7</ele>
        <time>2022-06-15T07:13:21Z</time>
      </trkpt>
      <trkpt lat="45.66545" lon="6.77544">
        <ele>1179.8</ele>
        <time>2022-06-15T07:13:22Z</time>
      </trkpt>
      <trkpt lat="45.66546" lon="6.77541">
        <ele>1180.1</ele>
        <time>2022-06-15T07:13:23Z</time>
      </trkpt>
      <trkpt lat="45.66547" lon="6.77537">
        <ele>1180.3</ele>
        <time>2022-06-15T07:13:24Z</time>
      </trkpt>
      <trkpt lat="45.66549" lon="6.77534">
        <ele>1180.8</ele>
        <time>2022-06-15T07:13:25Z</time>
      </trkpt>
      <trkpt lat="45.6655" lon="6.77531">
        <ele>1181.5</ele>
        <time>2022-06-15T07:13:26Z</time>
      </trkpt>
      <trkpt lat="45.66552" lon="6.77528">
        <ele>1182.1</ele>
        <time>2022-06-15T07:13:27Z</time>
      </trkpt>
      <trkpt lat="45.66553" lon="6.77525">
        <ele>1182.6</ele>
        <time>2022-06-15T07:13:28Z</time>
      </trkpt>
      <trkpt lat="45.66555" lon="6.77522">
        <ele>1183.1</ele>
        <time>2022-06-15T07:13:29Z</time>
      </trkpt>
      <trkpt lat="45.66556" lon="6.77519">
        <ele>1183.4</ele>
        <time>2022-06-15T07:13:30Z</time>
      </trkpt>
      <trkpt lat="45.66558" lon="6.77516">
        <ele>1183.4</ele>
        <time>2022-06-15T07:13:31Z</time>
      </trkpt>
      <trkpt lat="45.66559" lon="6.77513">
        <ele>1183.4</ele>
        <time>2022-06-15T07:13:32Z</time>
      </trkpt>
      <trkpt lat="45.66561" lon="6.77511">
        <ele>1183.6</ele>
        <time>2022-06-15T07:13:33Z</time>
      </trkpt>
      <trkpt lat="45.66562" lon="6.77508">
        <ele>1183.6</ele>
        <time>2022-06-15T07:13:34Z</time>
      </trkpt>
      <trkpt lat="45.66564" lon="6.77505">
        <ele>1183.8</ele>
        <time>2022-06-15T07:13:35Z</time>
      </trkpt>
      <trkpt lat="45.66566" lon="6.77503">
        <ele>1183.9</ele>
        <time>2022-06-15T07:13:36Z</time>
      </trkpt>
      <trkpt lat="45.66568" lon="6.775">
        <ele>1184.2</ele>
        <time>2022-06-15T07:13:37Z</time>
      </trkpt>
      <trkpt lat="45.66569" lon="6.77498">
        <ele>1184</ele>
        <time>2022-06-15T07:13:38Z</time>
      </trkpt>
      <trkpt lat="45.66571" lon="6.77495">
        <ele>1183.9</ele>
        <time>2022-06-15T07:13:39Z</time>
      </trkpt>
      <trkpt lat="45.66572" lon="6.77492">
        <ele>1183.8</ele>
        <time>2022-06-15T07:13:40Z</time>
      </trkpt>
      <trkpt lat="45.66573" lon="6.77489">
        <ele>1183.7</ele>
        <time>2022-06-15T07:13:41Z</time>
      </trkpt>
      <trkpt lat="45.66575" lon="6.77487">
        <ele>1183.7</ele>
        <time>2022-06-15T07:13:42Z</time>
      </trkpt>
      <trkpt lat="45.66576" lon="6.77484">
        <ele>1183.7</ele>
        <time>2022-06-15T07:13:43Z</time>
      </trkpt>
      <trkpt lat="45.66577" lon="6.77481">
        <ele>1183.7</ele>
        <time>2022-06-15T07:13:44Z</time>
      </trkpt>
      <trkpt lat="45.66579" lon="6.77478">
        <ele>1183.8</ele>
        <time>2022-06-15T07:13:45Z</time>
      </trkpt>
      <trkpt lat="45.6658" lon="6.77475">
        <ele>1183.9</ele>
        <time>2022-06-15T07:13:46Z</time>
      </trkpt>
      <trkpt lat="45.66581" lon="6.77472">
        <ele>1184</ele>
        <time>2022-06-15T07:13:47Z</time>
      </trkpt>
      <trkpt lat="45.66582" lon="6.77468">
        <ele>1184.2</ele>
        <time>2022-06-15T07:13:48Z</time>
      </trkpt>
      <trkpt lat="45.66583" lon="6.77465">
        <ele>1184.4</ele>
        <time>2022-06-15T07:13:49Z</time>
      </trkpt>
      <trkpt lat="45.66584" lon="6.77462">
        <ele>1184.6</ele>
        <time>2022-06-15T07:13:50Z</time>
      </trkpt>
      <trkpt lat="45.66585" lon="6.77459">
        <ele>1184.7</ele>
        <time>2022-06-15T07:13:51Z</time>
      </trkpt>
      <trkpt lat="45.66586" lon="6.77456">
        <ele>1184.8</ele>
        <time>2022-06-15T07:13:52Z</time>
      </trkpt>
      <trkpt lat="45.66587" lon="6.77453">
        <ele>1184.8</ele>
        <time>2022-06-15T07:13:53Z</time>
      </trkpt>
      <trkpt lat="45.66588" lon="6.7745">
        <ele>1184.9</ele>
        <time>2022-06-15T07:13:54Z</time>
      </trkpt>
      <trkpt lat="45.6659" lon="6.77447">
        <ele>1185</ele>
        <time>2022-06-15T07:13:55Z</time>
      </trkpt>
      <trkpt lat="45.66591" lon="6.77445">
        <ele>1185.1</ele>
        <time>2022-06-15T07:13:56Z</time>
      </trkpt>
      <trkpt lat="45.66593" lon="6.77443">
        <ele>1185.1</ele>
        <time>2022-06-15T07:13:57Z</time>
      </trkpt>
      <trkpt lat="45.66595" lon="6.7744">
        <ele>1184.9</ele>
        <time>2022-06-15T07:13:58Z</time>
      </trkpt>
      <trkpt lat="45.66597" lon="6.77438">
        <ele>1184.9</ele>
        <time>2022-06-15T07:13:59Z</time>
      </trkpt>
      <trkpt lat="45.66598" lon="6.77436">
        <ele>1185</ele>
        <time>2022-06-15T07:14:00Z</time>
      </trkpt>
      <trkpt lat="45.666" lon="6.77434">
        <ele>1185.1</ele>
        <time>2022-06-15T07:14:01Z</time>
      </trkpt>
      <trkpt lat="45.66602" lon="6.77433">
        <ele>1185.4</ele>
        <time>2022-06-15T07:14:02Z</time>
      </trkpt>
      <trkpt lat="45.66604" lon="6.77431">
        <ele>1185.8</ele>
        <time>2022-06-15T07:14:03Z</time>
      </trkpt>
      <trkpt lat="45.66607" lon="6.7743">
        <ele>1186.3</ele>
        <time>2022-06-15T07:14:04Z</time>
      </trkpt>
      <trkpt lat="45.66609" lon="6.7743">
        <ele>1186.9</ele>
        <time>2022-06-15T07:14:05Z</time>
      </trkpt>
      <trkpt lat="45.66611" lon="6.7743">
        <ele>1187.5</ele>
        <time>2022-06-15T07:14:06Z</time>
      </trkpt>
      <trkpt lat="45.66613" lon="6.77431">
        <ele>1188.2</ele>
        <time>2022-06-15T07:14:07Z</time>
      </trkpt>
      <trkpt lat="45.66615" lon="6.77433">
        <ele>1188.9</ele>
        <time>2022-06-15T07:14:08Z</time>
      </trkpt>
      <trkpt lat="45.66616" lon="6.77436">
        <ele>1189.6</ele>
        <time>2022-06-15T07:14:09Z</time>
      </trkpt>
      <trkpt lat="45.66617" lon="6.77439">
        <ele>1189.9</ele>
        <time>2022-06-15T07:14:10Z</time>
      </trkpt>
      <trkpt lat="45.66618" lon="6.77443">
        <ele>1190.3</ele>
        <time>2022-06-15T07:14:11Z</time>
      </trkpt>
      <trkpt lat="45.66618" lon="6.77446">
        <ele>1190.6</ele>
        <time>2022-06-15T07:14:12Z</time>
      </trkpt>
      <trkpt lat="45.66619" lon="6.7745">
        <ele>1190.9</ele>
        <time>2022-06-15T07:14:13Z</time>
      </trkpt>
      <trkpt lat="45.66619" lon="6.77454">
        <ele>1191.1</ele>
        <time>2022-06-15T07:14:14Z</time>
      </trkpt>
      <trkpt lat="45.66619" lon="6.77457">
        <ele>1191.2</ele>
        <time>2022-06-15T07:14:15Z</time>
      </trkpt>
      <trkpt lat="45.66618" lon="6.7746">
        <ele>1191.1</ele>
        <time>2022-06-15T07:14:16Z</time>
      </trkpt>
      <trkpt lat="45.66617" lon="6.77463">
        <ele>1191</ele>
        <time>2022-06-15T07:14:17Z</time>
      </trkpt>
      <trkpt lat="45.66616" lon="6.77466">
        <ele>1190.8</ele>
        <time>2022-06-15T07:14:18Z</time>
      </trkpt>
      <trkpt lat="45.66615" lon="6.7747">
        <ele>1190.7</ele>
        <time>2022-06-15T07:14:19Z</time>
      </trkpt>
      <trkpt lat="45.66614" lon="6.77473">
        <ele>1190.6</ele>
        <time>2022-06-15T07:14:20Z</time>
      </trkpt>
      <trkpt lat="45.66613" lon="6.77475">
        <ele>1190.5</ele>
        <time>2022-06-15T07:14:21Z</time>
      </trkpt>
      <trkpt lat="45.66611" lon="6.77478">
        <ele>1190.5</ele>
        <time>2022-06-15T07:14:22Z</time>
      </trkpt>
      <trkpt lat="45.6661" lon="6.77481">
        <ele>1190.4</ele>
        <time>2022-06-15T07:14:23Z</time>
      </trkpt>
      <trkpt lat="45.66609" lon="6.77484">
        <ele>1190.5</ele>
        <time>2022-06-15T07:14:24Z</time>
      </trkpt>
      <trkpt lat="45.66609" lon="6.77487">
        <ele>1190.6</ele>
        <time>2022-06-15T07:14:25Z</time>
      </trkpt>
      <trkpt lat="45.66608" lon="6.77491">
        <ele>1190.8</ele>
        <time>2022-06-15T07:14:26Z</time>
      </trkpt>
      <trkpt lat="45.66608" lon="6.77494">
        <ele>1191</ele>
        <time>2022-06-15T07:14:27Z</time>
      </trkpt>
      <trkpt lat="45.66608" lon="6.77498">
        <ele>1191.2</ele>
        <time>2022-06-15T07:14:28Z</time>
      </trkpt>
      <trkpt lat="45.66608" lon="6.77501">
        <ele>1191.4</ele>
        <time>2022-06-15T07:14:29Z</time>
      </trkpt>
      <trkpt lat="45.66608" lon="6.77504">
        <ele>1191.3</ele>
        <time>2022-06-15T07:14:30Z</time>
      </trkpt>
      <trkpt lat="45.66609" lon="6.77508">
        <ele>1191.3</ele>
        <time>2022-06-15T07:14:31Z</time>
      </trkpt>
      <trkpt lat="45.6661" lon="6.77511">
        <ele>1191.3</ele>
        <time>2022-06-15T07:14:32Z</time>
      </trkpt>
      <trkpt lat="45.6661" lon="6.77514">
        <ele>1191.4</ele>
        <time>2022-06-15T07:14:33Z</time>
      </trkpt>
      <trkpt lat="45.66612" lon="6.77517">
        <ele>1191.5</ele>
        <time>2022-06-15T07:14:34Z</time>
      </trkpt>
      <trkpt lat="45.66614" lon="6.7752">
        <ele>1191.5</ele>
        <time>2022-06-15T07:14:35Z</time>
      </trkpt>
      <trkpt lat="45.66616" lon="6.77523">
        <ele>1191.7</ele>
        <time>2022-06-15T07:14:36Z</time>
      </trkpt>
      <trkpt lat="45.66617" lon="6.77525">
        <ele>1191.8</ele>
        <time>2022-06-15T07:14:37Z</time>
      </trkpt>
      <trkpt lat="45.66619" lon="6.77528">
        <ele>1191.8</ele>
        <time>2022-06-15T07:14:38Z</time>
      </trkpt>
      <trkpt lat="45.66621" lon="6.77531">
        <ele>1192</ele>
        <time>2022-06-15T07:14:39Z</time>
      </trkpt>
      <trkpt lat="45.66623" lon="6.77533">
        <ele>1192.1</ele>
        <time>2022-06-15T07:14:40Z</time>
      </trkpt>
      <trkpt lat="45.66624" lon="6.77536">
        <ele>1192.2</ele>
        <time>2022-06-15T07:14:41Z</time>
      </trkpt>
      <trkpt lat="45.66625" lon="6.77539">
        <ele>1192.3</ele>
        <time>2022-06-15T07:14:42Z</time>
      </trkpt>
      <trkpt lat="45.66627" lon="6.77541">
        <ele>1192.6</ele>
        <time>2022-06-15T07:14:43Z</time>
      </trkpt>
      <trkpt lat="45.66629" lon="6.77544">
        <ele>1192.9</ele>
        <time>2022-06-15T07:14:44Z</time>
      </trkpt>
      <trkpt lat="45.6663" lon="6.77547">
        <ele>1193.1</ele>
        <time>2022-06-15T07:14:45Z</time>
      </trkpt>
      <trkpt lat="45.66632" lon="6.77549">
        <ele>1193.4</ele>
        <time>2022-06-15T07:14:46Z</time>
      </trkpt>
      <trkpt lat="45.66633" lon="6.77551">
        <ele>1193.7</ele>
        <time>2022-06-15T07:14:47Z</time>
      </trkpt>
      <trkpt lat="45.66635" lon="6.77554">
        <ele>1194.1</ele>
        <time>2022-06-15T07:14:48Z</time>
      </trkpt>
      <trkpt lat="45.66636" lon="6.77557">
        <ele>1194.3</ele>
        <time>2022-06-15T07:14:49Z</time>
      </trkpt>
      <trkpt lat="45.66637" lon="6.7756">
        <ele>1194.4</ele>
        <time>2022-06-15T07:14:50Z</time>
      </trkpt>
      <trkpt lat="45.66638" lon="6.77564">
        <ele>1194.5</ele>
        <time>2022-06-15T07:14:51Z</time>
      </trkpt>
      <trkpt lat="45.66639" lon="6.77567">
        <ele>1194.6</ele>
        <time>2022-06-15T07:14:52Z</time>
      </trkpt>
      <trkpt lat="45.66639" lon="6.7757">
        <ele>1194.5</ele>
        <time>2022-06-15T07:14:53Z</time>
      </trkpt>
      <trkpt lat="45.6664" lon="6.77573">
        <ele>1194.6</ele>
        <time>2022-06-15T07:14:54Z</time>
      </trkpt>
      <trkpt lat="45.6664" lon="6.77577">
        <ele>1194.6</ele>
        <time>2022-06-15T07:14:55Z</time>
      </trkpt>
      <trkpt lat="45.6664" lon="6.7758">
        <ele>1194.5</ele>
        <time>2022-06-15T07:14:56Z</time>
      </trkpt>
      <trkpt lat="45.6664" lon="6.77583">
        <ele>1194.3</ele>
        <time>2022-06-15T07:14:57Z</time>
      </trkpt>
      <trkpt lat="45.66639" lon="6.77586">
        <ele>1194.4</ele>
        <time>2022-06-15T07:14:58Z</time>
      </trkpt>
      <trkpt lat="45.66639" lon="6.77589">
        <ele>1194.6</ele>
        <time>2022-06-15T07:14:59Z</time>
      </trkpt>
      <trkpt lat="45.66638" lon="6.77592">
        <ele>1194.7</ele>
        <time>2022-06-15T07:15:00Z</time>
      </trkpt>
      <trkpt lat="45.66638" lon="6.77595">
        <ele>1194.9</ele>
        <time>2022-06-15T07:15:01Z</time>
      </trkpt>
      <trkpt lat="45.66637" lon="6.77598">
        <ele>1195.2</ele>
        <time>2022-06-15T07:15:02Z</time>
      </trkpt>
      <trkpt lat="45.66638" lon="6.77601">
        <ele>1195.6</ele>
        <time>2022-06-15T07:15:03Z</time>
      </trkpt>
      <trkpt lat="45.66638" lon="6.77605">
        <ele>1196.1</ele>
        <time>2022-06-15T07:15:04Z</time>
      </trkpt>
      <trkpt lat="45.6664" lon="6.77607">
        <ele>1196.9</ele>
        <time>2022-06-15T07:15:05Z</time>
      </trkpt>
      <trkpt lat="45.66642" lon="6.77609">
        <ele>1197.9</ele>
        <time>2022-06-15T07:15:06Z</time>
      </trkpt>
      <trkpt lat="45.66645" lon="6.77609">
        <ele>1199</ele>
        <time>2022-06-15T07:15:07Z</time>
      </trkpt>
      <trkpt lat="45.66647" lon="6.77609">
        <ele>1199.9</ele>
        <time>2022-06-15T07:15:08Z</time>
      </trkpt>
      <trkpt lat="45.66649" lon="6.77609">
        <ele>1200.8</ele>
        <time>2022-06-15T07:15:09Z</time>
      </trkpt>
      <trkpt lat="45.66651" lon="6.77607">
        <ele>1201</ele>
        <time>2022-06-15T07:15:10Z</time>
      </trkpt>
      <trkpt lat="45.66653" lon="6.77606">
        <ele>1201.6</ele>
        <time>2022-06-15T07:15:11Z</time>
      </trkpt>
      <trkpt lat="45.66654" lon="6.77603">
        <ele>1201.7</ele>
        <time>2022-06-15T07:15:12Z</time>
      </trkpt>
      <trkpt lat="45.66655" lon="6.77601">
        <ele>1201.8</ele>
        <time>2022-06-15T07:15:13Z</time>
      </trkpt>
      <trkpt lat="45.66656" lon="6.77598">
        <ele>1201.6</ele>
        <time>2022-06-15T07:15:14Z</time>
      </trkpt>
      <trkpt lat="45.66657" lon="6.77594">
        <ele>1201.6</ele>
        <time>2022-06-15T07:15:15Z</time>
      </trkpt>
      <trkpt lat="45.66658" lon="6.77591">
        <ele>1201.3</ele>
        <time>2022-06-15T07:15:16Z</time>
      </trkpt>
      <trkpt lat="45.66659" lon="6.77588">
        <ele>1201.2</ele>
        <time>2022-06-15T07:15:17Z</time>
      </trkpt>
      <trkpt lat="45.66659" lon="6.77585">
        <ele>1200.9</ele>
        <time>2022-06-15T07:15:18Z</time>
      </trkpt>
      <trkpt lat="45.6666" lon="6.77582">
        <ele>1200.8</ele>
        <time>2022-06-15T07:15:19Z</time>
      </trkpt>
      <trkpt lat="45.66661" lon="6.77579">
        <ele>1201.1</ele>
        <time>2022-06-15T07:15:20Z</time>
      </trkpt>
      <trkpt lat="45.66662" lon="6.77576">
        <ele>1201.2</ele>
        <time>2022-06-15T07:15:21Z</time>
      </trkpt>
      <trkpt lat="45.66662" lon="6.77573">
        <ele>1201.3</ele>
        <time>2022-06-15T07:15:22Z</time>
      </trkpt>
      <trkpt lat="45.66663" lon="6.7757">
        <ele>1201.5</ele>
        <time>2022-06-15T07:15:23Z</time>
      </trkpt>
      <trkpt lat="45.66664" lon="6.77568">
        <ele>1201.7</ele>
        <time>2022-06-15T07:15:24Z</time>
      </trkpt>
      <trkpt lat="45.66665" lon="6.77566">
        <ele>1201.9</ele>
        <time>2022-06-15T07:15:25Z</time>
      </trkpt>
      <trkpt lat="45.66666" lon="6.77563">
        <ele>1202.1</ele>
        <time>2022-06-15T07:15:26Z</time>
      </trkpt>
      <trkpt lat="45.66668" lon="6.77561">
        <ele>1202.5</ele>
        <time>2022-06-15T07:15:27Z</time>
      </trkpt>
      <trkpt lat="45.66669" lon="6.7756">
        <ele>1203.1</ele>
        <time>2022-06-15T07:15:28Z</time>
      </trkpt>
      <trkpt lat="45.6667" lon="6.77557">
        <ele>1203.3</ele>
        <time>2022-06-15T07:15:29Z</time>
      </trkpt>
      <trkpt lat="45.66671" lon="6.77554">
        <ele>1203.4</ele>
        <time>2022-06-15T07:15:30Z</time>
      </trkpt>
      <trkpt lat="45.66671" lon="6.77551">
        <ele>1203.2</ele>
        <time>2022-06-15T07:15:31Z</time>
      </trkpt>
      <trkpt lat="45.66671" lon="6.77548">
        <ele>1203.1</ele>
        <time>2022-06-15T07:15:32Z</time>
      </trkpt>
      <trkpt lat="45.66672" lon="6.77545">
        <ele>1203.4</ele>
        <time>2022-06-15T07:15:33Z</time>
      </trkpt>
      <trkpt lat="45.66673" lon="6.77542">
        <ele>1203.4</ele>
        <time>2022-06-15T07:15:34Z</time>
      </trkpt>
      <trkpt lat="45.66674" lon="6.77539">
        <ele>1203.6</ele>
        <time>2022-06-15T07:15:35Z</time>
      </trkpt>
      <trkpt lat="45.66676" lon="6.77537">
        <ele>1204.2</ele>
        <time>2022-06-15T07:15:36Z</time>
      </trkpt>
      <trkpt lat="45.66677" lon="6.77535">
        <ele>1204.4</ele>
        <time>2022-06-15T07:15:37Z</time>
      </trkpt>
      <trkpt lat="45.66678" lon="6.77532">
        <ele>1204.4</ele>
        <time>2022-06-15T07:15:38Z</time>
      </trkpt>
      <trkpt lat="45.66678" lon="6.77529">
        <ele>1204.3</ele>
        <time>2022-06-15T07:15:39Z</time>
      </trkpt>
      <trkpt lat="45.66679" lon="6.77526">
        <ele>1204.5</ele>
        <time>2022-06-15T07:15:40Z</time>
      </trkpt>
      <trkpt lat="45.6668" lon="6.77524">
        <ele>1204.6</ele>
        <time>2022-06-15T07:15:41Z</time>
      </trkpt>
      <trkpt lat="45.66681" lon="6.7752">
        <ele>1204.9</ele>
        <time>2022-06-15T07:15:42Z</time>
      </trkpt>
      <trkpt lat="45.66682" lon="6.77517">
        <ele>1204.8</ele>
        <time>2022-06-15T07:15:43Z</time>
      </trkpt>
      <trkpt lat="45.66682" lon="6.77514">
        <ele>1204.7</ele>
        <time>2022-06-15T07:15:44Z</time>
      </trkpt>
      <trkpt lat="45.66683" lon="6.77511">
        <ele>1204.8</ele>
        <time>2022-06-15T07:15:45Z</time>
      </trkpt>
      <trkpt lat="45.66684" lon="6.77509">
        <ele>1205</ele>
        <time>2022-06-15T07:15:46Z</time>
      </trkpt>
      <trkpt lat="45.66685" lon="6.77506">
        <ele>1205.2</ele>
        <time>2022-06-15T07:15:47Z</time>
      </trkpt>
      <trkpt lat="45.66685" lon="6.77504">
        <ele>1205.3</ele>
        <time>2022-06-15T07:15:48Z</time>
      </trkpt>
      <trkpt lat="45.66686" lon="6.77502">
        <ele>1205.4</ele>
        <time>2022-06-15T07:15:49Z</time>
      </trkpt>
      <trkpt lat="45.66686" lon="6.77499">
        <ele>1205.1</ele>
        <time>2022-06-15T07:15:50Z</time>
      </trkpt>
      <trkpt lat="45.66687" lon="6.77497">
        <ele>1205.2</ele>
        <time>2022-06-15T07:15:51Z</time>
      </trkpt>
      <trkpt lat="45.66687" lon="6.77495">
        <ele>1205.4</ele>
        <time>2022-06-15T07:15:52Z</time>
      </trkpt>
      <trkpt lat="45.66689" lon="6.77493">
        <ele>1205.7</ele>
        <time>2022-06-15T07:15:53Z</time>
      </trkpt>
      <trkpt lat="45.6669" lon="6.77491">
        <ele>1205.9</ele>
        <time>2022-06-15T07:15:54Z</time>
      </trkpt>
      <trkpt lat="45.66691" lon="6.77489">
        <ele>1206</ele>
        <time>2022-06-15T07:15:55Z</time>
      </trkpt>
      <trkpt lat="45.66691" lon="6.77487">
        <ele>1206.2</ele>
        <time>2022-06-15T07:15:56Z</time>
      </trkpt>
      <trkpt lat="45.66692" lon="6.77485">
        <ele>1206.3</ele>
        <time>2022-06-15T07:15:57Z</time>
      </trkpt>
      <trkpt lat="45.66693" lon="6.77483">
        <ele>1206.3</ele>
        <time>2022-06-15T07:15:58Z</time>
      </trkpt>
      <trkpt lat="45.66694" lon="6.77481">
        <ele>1206.5</ele>
        <time>2022-06-15T07:15:59Z</time>
      </trkpt>
      <trkpt lat="45.66695" lon="6.77478">
        <ele>1206.6</ele>
        <time>2022-06-15T07:16:00Z</time>
      </trkpt>
      <trkpt lat="45.66696" lon="6.77475">
        <ele>1206.8</ele>
        <time>2022-06-15T07:16:01Z</time>
      </trkpt>
      <trkpt lat="45.66697" lon="6.77473">
        <ele>1207</ele>
        <time>2022-06-15T07:16:02Z</time>
      </trkpt>
      <trkpt lat="45.66699" lon="6.7747">
        <ele>1207.5</ele>
        <time>2022-06-15T07:16:03Z</time>
      </trkpt>
      <trkpt lat="45.667" lon="6.77467">
        <ele>1207.9</ele>
        <time>2022-06-15T07:16:04Z</time>
      </trkpt>
      <trkpt lat="45.66701" lon="6.77464">
        <ele>1208.3</ele>
        <time>2022-06-15T07:16:05Z</time>
      </trkpt>
      <trkpt lat="45.66702" lon="6.7746">
        <ele>1208.8</ele>
        <time>2022-06-15T07:16:06Z</time>
      </trkpt>
      <trkpt lat="45.66704" lon="6.77457">
        <ele>1209.6</ele>
        <time>2022-06-15T07:16:07Z</time>
      </trkpt>
      <trkpt lat="45.66705" lon="6.77454">
        <ele>1210.5</ele>
        <time>2022-06-15T07:16:08Z</time>
      </trkpt>
      <trkpt lat="45.66706" lon="6.7745">
        <ele>1211.2</ele>
        <time>2022-06-15T07:16:09Z</time>
      </trkpt>
      <trkpt lat="45.66706" lon="6.77447">
        <ele>1211.5</ele>
        <time>2022-06-15T07:16:10Z</time>
      </trkpt>
      <trkpt lat="45.66707" lon="6.77445">
        <ele>1212.1</ele>
        <time>2022-06-15T07:16:11Z</time>
      </trkpt>
      <trkpt lat="45.66707" lon="6.77443">
        <ele>1211.9</ele>
        <time>2022-06-15T07:16:12Z</time>
      </trkpt>
      <trkpt lat="45.66706" lon="6.7744">
        <ele>1212</ele>
        <time>2022-06-15T07:16:13Z</time>
      </trkpt>
      <trkpt lat="45.66707" lon="6.77438">
        <ele>1212.6</ele>
        <time>2022-06-15T07:16:14Z</time>
      </trkpt>
      <trkpt lat="45.66707" lon="6.77435">
        <ele>1212.7</ele>
        <time>2022-06-15T07:16:15Z</time>
      </trkpt>
      <trkpt lat="45.66706" lon="6.77432">
        <ele>1212.5</ele>
        <time>2022-06-15T07:16:16Z</time>
      </trkpt>
      <trkpt lat="45.66705" lon="6.77427">
        <ele>1211.8</ele>
        <time>2022-06-15T07:16:17Z</time>
      </trkpt>
      <trkpt lat="45.66704" lon="6.77424">
        <ele>1211.4</ele>
        <time>2022-06-15T07:16:18Z</time>
      </trkpt>
      <trkpt lat="45.66703" lon="6.77421">
        <ele>1211</ele>
        <time>2022-06-15T07:16:19Z</time>
      </trkpt>
      <trkpt lat="45.66702" lon="6.77418">
        <ele>1210.7</ele>
        <time>2022-06-15T07:16:20Z</time>
      </trkpt>
      <trkpt lat="45.66702" lon="6.77415">
        <ele>1211.3</ele>
        <time>2022-06-15T07:16:21Z</time>
      </trkpt>
      <trkpt lat="45.66702" lon="6.77412">
        <ele>1211.6</ele>
        <time>2022-06-15T07:16:22Z</time>
      </trkpt>
      <trkpt lat="45.66701" lon="6.7741">
        <ele>1211.8</ele>
        <time>2022-06-15T07:16:23Z</time>
      </trkpt>
      <trkpt lat="45.66701" lon="6.77407">
        <ele>1212</ele>
        <time>2022-06-15T07:16:24Z</time>
      </trkpt>
      <trkpt lat="45.66701" lon="6.77404">
        <ele>1212.5</ele>
        <time>2022-06-15T07:16:25Z</time>
      </trkpt>
      <trkpt lat="45.667" lon="6.77402">
        <ele>1212.8</ele>
        <time>2022-06-15T07:16:26Z</time>
      </trkpt>
      <trkpt lat="45.66699" lon="6.77399">
        <ele>1212.6</ele>
        <time>2022-06-15T07:16:27Z</time>
      </trkpt>
      <trkpt lat="45.66698" lon="6.77397">
        <ele>1212.6</ele>
        <time>2022-06-15T07:16:28Z</time>
      </trkpt>
      <trkpt lat="45.66697" lon="6.77394">
        <ele>1212.4</ele>
        <time>2022-06-15T07:16:29Z</time>
      </trkpt>
      <trkpt lat="45.66698" lon="6.77389">
        <ele>1214</ele>
        <time>2022-06-15T07:16:30Z</time>
      </trkpt>
      <trkpt lat="45.66697" lon="6.77385">
        <ele>1214.3</ele>
        <time>2022-06-15T07:16:31Z</time>
      </trkpt>
      <trkpt lat="45.66695" lon="6.77382">
        <ele>1213.6</ele>
        <time>2022-06-15T07:16:32Z</time>
      </trkpt>
      <trkpt lat="45.66693" lon="6.7738">
        <ele>1213.2</ele>
        <time>2022-06-15T07:16:33Z</time>
      </trkpt>
      <trkpt lat="45.66692" lon="6.77377">
        <ele>1213.4</ele>
        <time>2022-06-15T07:16:34Z</time>
      </trkpt>
      <trkpt lat="45.6669" lon="6.77375">
        <ele>1213.4</ele>
        <time>2022-06-15T07:16:35Z</time>
      </trkpt>
      <trkpt lat="45.66688" lon="6.77372">
        <ele>1213.3</ele>
        <time>2022-06-15T07:16:36Z</time>
      </trkpt>
      <trkpt lat="45.66687" lon="6.77369">
        <ele>1213.5</ele>
        <time>2022-06-15T07:16:37Z</time>
      </trkpt>
      <trkpt lat="45.66686" lon="6.77367">
        <ele>1213.7</ele>
        <time>2022-06-15T07:16:38Z</time>
      </trkpt>
      <trkpt lat="45.66685" lon="6.77364">
        <ele>1213.8</ele>
        <time>2022-06-15T07:16:39Z</time>
      </trkpt>
      <trkpt lat="45.66684" lon="6.77361">
        <ele>1213.9</ele>
        <time>2022-06-15T07:16:40Z</time>
      </trkpt>
      <trkpt lat="45.66683" lon="6.77359">
        <ele>1214</ele>
        <time>2022-06-15T07:16:41Z</time>
      </trkpt>
      <trkpt lat="45.66682" lon="6.77356">
        <ele>1214</ele>
        <time>2022-06-15T07:16:42Z</time>
      </trkpt>
      <trkpt lat="45.66681" lon="6.77353">
        <ele>1214</ele>
        <time>2022-06-15T07:16:43Z</time>
      </trkpt>
      <trkpt lat="45.6668" lon="6.7735">
        <ele>1213.9</ele>
        <time>2022-06-15T07:16:44Z</time>
      </trkpt>
      <trkpt lat="45.66679" lon="6.77347">
        <ele>1214</ele>
        <time>2022-06-15T07:16:45Z</time>
      </trkpt>
      <trkpt lat="45.6668" lon="6.77344">
        <ele>1214.6</ele>
        <time>2022-06-15T07:16:46Z</time>
      </trkpt>
      <trkpt lat="45.6668" lon="6.77341">
        <ele>1214.9</ele>
        <time>2022-06-15T07:16:47Z</time>
      </trkpt>
      <trkpt lat="45.6668" lon="6.77337">
        <ele>1215.2</ele>
        <time>2022-06-15T07:16:48Z</time>
      </trkpt>
      <trkpt lat="45.66679" lon="6.77335">
        <ele>1215.2</ele>
        <time>2022-06-15T07:16:49Z</time>
      </trkpt>
      <trkpt lat="45.66678" lon="6.77332">
        <ele>1214.9</ele>
        <time>2022-06-15T07:16:50Z</time>
      </trkpt>
      <trkpt lat="45.66679" lon="6.77329">
        <ele>1214.9</ele>
        <time>2022-06-15T07:16:51Z</time>
      </trkpt>
      <trkpt lat="45.6668" lon="6.77327">
        <ele>1215.4</ele>
        <time>2022-06-15T07:16:52Z</time>
      </trkpt>
      <trkpt lat="45.66681" lon="6.77323">
        <ele>1215.6</ele>
        <time>2022-06-15T07:16:53Z</time>
      </trkpt>
      <trkpt lat="45.66681" lon="6.7732">
        <ele>1215.6</ele>
        <time>2022-06-15T07:16:54Z</time>
      </trkpt>
      <trkpt lat="45.66681" lon="6.77315">
        <ele>1215.3</ele>
        <time>2022-06-15T07:16:55Z</time>
      </trkpt>
      <trkpt lat="45.66681" lon="6.77312">
        <ele>1215.3</ele>
        <time>2022-06-15T07:16:56Z</time>
      </trkpt>
      <trkpt lat="45.66681" lon="6.77309">
        <ele>1215.4</ele>
        <time>2022-06-15T07:16:57Z</time>
      </trkpt>
      <trkpt lat="45.66682" lon="6.77306">
        <ele>1216</ele>
        <time>2022-06-15T07:16:58Z</time>
      </trkpt>
      <trkpt lat="45.66683" lon="6.77303">
        <ele>1216.4</ele>
        <time>2022-06-15T07:16:59Z</time>
      </trkpt>
      <trkpt lat="45.66684" lon="6.773">
        <ele>1216.9</ele>
        <time>2022-06-15T07:17:00Z</time>
      </trkpt>
      <trkpt lat="45.66685" lon="6.77297">
        <ele>1217.2</ele>
        <time>2022-06-15T07:17:01Z</time>
      </trkpt>
      <trkpt lat="45.66686" lon="6.77294">
        <ele>1217.6</ele>
        <time>2022-06-15T07:17:02Z</time>
      </trkpt>
      <trkpt lat="45.66687" lon="6.77291">
        <ele>1218.1</ele>
        <time>2022-06-15T07:17:03Z</time>
      </trkpt>
      <trkpt lat="45.66688" lon="6.77289">
        <ele>1218.6</ele>
        <time>2022-06-15T07:17:04Z</time>
      </trkpt>
      <trkpt lat="45.66689" lon="6.77286">
        <ele>1219.3</ele>
        <time>2022-06-15T07:17:05Z</time>
      </trkpt>
      <trkpt lat="45.6669" lon="6.77283">
        <ele>1219.9</ele>
        <time>2022-06-15T07:17:06Z</time>
      </trkpt>
      <trkpt lat="45.66691" lon="6.7728">
        <ele>1220.4</ele>
        <time>2022-06-15T07:17:07Z</time>
      </trkpt>
      <trkpt lat="45.66692" lon="6.77277">
        <ele>1220.7</ele>
        <time>2022-06-15T07:17:08Z</time>
      </trkpt>
      <trkpt lat="45.66693" lon="6.77274">
        <ele>1221.3</ele>
        <time>2022-06-15T07:17:09Z</time>
      </trkpt>
      <trkpt lat="45.66694" lon="6.77271">
        <ele>1221.7</ele>
        <time>2022-06-15T07:17:10Z</time>
      </trkpt>
      <trkpt lat="45.66694" lon="6.77267">
        <ele>1222.1</ele>
        <time>2022-06-15T07:17:11Z</time>
      </trkpt>
      <trkpt lat="45.66695" lon="6.77264">
        <ele>1222.2</ele>
        <time>2022-06-15T07:17:12Z</time>
      </trkpt>
      <trkpt lat="45.66695" lon="6.77261">
        <ele>1222.2</ele>
        <time>2022-06-15T07:17:13Z</time>
      </trkpt>
      <trkpt lat="45.66696" lon="6.77258">
        <ele>1222.4</ele>
        <time>2022-06-15T07:17:14Z</time>
      </trkpt>
      <trkpt lat="45.66696" lon="6.77254">
        <ele>1222.2</ele>
        <time>2022-06-15T07:17:15Z</time>
      </trkpt>
      <trkpt lat="45.66696" lon="6.77251">
        <ele>1222</ele>
        <time>2022-06-15T07:17:16Z</time>
      </trkpt>
      <trkpt lat="45.66697" lon="6.77248">
        <ele>1222.2</ele>
        <time>2022-06-15T07:17:17Z</time>
      </trkpt>
      <trkpt lat="45.66697" lon="6.77245">
        <ele>1222.3</ele>
        <time>2022-06-15T07:17:18Z</time>
      </trkpt>
      <trkpt lat="45.66697" lon="6.77241">
        <ele>1222.5</ele>
        <time>2022-06-15T07:17:19Z</time>
      </trkpt>
      <trkpt lat="45.66698" lon="6.77238">
        <ele>1222.7</ele>
        <time>2022-06-15T07:17:20Z</time>
      </trkpt>
      <trkpt lat="45.66698" lon="6.77235">
        <ele>1222.8</ele>
        <time>2022-06-15T07:17:21Z</time>
      </trkpt>
      <trkpt lat="45.66698" lon="6.77232">
        <ele>1223</ele>
        <time>2022-06-15T07:17:22Z</time>
      </trkpt>
      <trkpt lat="45.66698" lon="6.77229">
        <ele>1223.1</ele>
        <time>2022-06-15T07:17:23Z</time>
      </trkpt>
      <trkpt lat="45.66699" lon="6.77226">
        <ele>1223.4</ele>
        <time>2022-06-15T07:17:24Z</time>
      </trkpt>
      <trkpt lat="45.66699" lon="6.77223">
        <ele>1223.6</ele>
        <time>2022-06-15T07:17:25Z</time>
      </trkpt>
      <trkpt lat="45.667" lon="6.77219">
        <ele>1223.9</ele>
        <time>2022-06-15T07:17:26Z</time>
      </trkpt>
      <trkpt lat="45.667" lon="6.77216">
        <ele>1224.2</ele>
        <time>2022-06-15T07:17:27Z</time>
      </trkpt>
      <trkpt lat="45.66701" lon="6.77213">
        <ele>1225.1</ele>
        <time>2022-06-15T07:17:28Z</time>
      </trkpt>
      <trkpt lat="45.66703" lon="6.77212">
        <ele>1226.2</ele>
        <time>2022-06-15T07:17:29Z</time>
      </trkpt>
      <trkpt lat="45.66704" lon="6.77212">
        <ele>1226.8</ele>
        <time>2022-06-15T07:17:30Z</time>
      </trkpt>
      <trkpt lat="45.66706" lon="6.77214">
        <ele>1227.5</ele>
        <time>2022-06-15T07:17:31Z</time>
      </trkpt>
      <trkpt lat="45.66707" lon="6.77216">
        <ele>1228</ele>
        <time>2022-06-15T07:17:32Z</time>
      </trkpt>
      <trkpt lat="45.66707" lon="6.7722">
        <ele>1227.7</ele>
        <time>2022-06-15T07:17:33Z</time>
      </trkpt>
      <trkpt lat="45.66707" lon="6.77223">
        <ele>1227.6</ele>
        <time>2022-06-15T07:17:34Z</time>
      </trkpt>
      <trkpt lat="45.66707" lon="6.77226">
        <ele>1227.6</ele>
        <time>2022-06-15T07:17:35Z</time>
      </trkpt>
      <trkpt lat="45.66706" lon="6.77229">
        <ele>1227.3</ele>
        <time>2022-06-15T07:17:36Z</time>
      </trkpt>
      <trkpt lat="45.66706" lon="6.77232">
        <ele>1227.2</ele>
        <time>2022-06-15T07:17:37Z</time>
      </trkpt>
      <trkpt lat="45.66706" lon="6.77235">
        <ele>1227.3</ele>
        <time>2022-06-15T07:17:38Z</time>
      </trkpt>
      <trkpt lat="45.66706" lon="6.77238">
        <ele>1227.2</ele>
        <time>2022-06-15T07:17:39Z</time>
      </trkpt>
      <trkpt lat="45.66705" lon="6.77241">
        <ele>1227.1</ele>
        <time>2022-06-15T07:17:40Z</time>
      </trkpt>
      <trkpt lat="45.66705" lon="6.77244">
        <ele>1227</ele>
        <time>2022-06-15T07:17:41Z</time>
      </trkpt>
      <trkpt lat="45.66705" lon="6.77247">
        <ele>1226.8</ele>
        <time>2022-06-15T07:17:42Z</time>
      </trkpt>
      <trkpt lat="45.66704" lon="6.7725">
        <ele>1226.5</ele>
        <time>2022-06-15T07:17:43Z</time>
      </trkpt>
      <trkpt lat="45.66704" lon="6.77253">
        <ele>1226.5</ele>
        <time>2022-06-15T07:17:44Z</time>
      </trkpt>
      <trkpt lat="45.66704" lon="6.77256">
        <ele>1226.7</ele>
        <time>2022-06-15T07:17:45Z</time>
      </trkpt>
      <trkpt lat="45.66704" lon="6.77259">
        <ele>1226.8</ele>
        <time>2022-06-15T07:17:46Z</time>
      </trkpt>
      <trkpt lat="45.66705" lon="6.77263">
        <ele>1227.1</ele>
        <time>2022-06-15T07:17:47Z</time>
      </trkpt>
      <trkpt lat="45.66705" lon="6.77266">
        <ele>1227.1</ele>
        <time>2022-06-15T07:17:48Z</time>
      </trkpt>
      <trkpt lat="45.66705" lon="6.77269">
        <ele>1227.2</ele>
        <time>2022-06-15T07:17:49Z</time>
      </trkpt>
      <trkpt lat="45.66706" lon="6.77272">
        <ele>1227.6</ele>
        <time>2022-06-15T07:17:50Z</time>
      </trkpt>
      <trkpt lat="45.66707" lon="6.77275">
        <ele>1228</ele>
        <time>2022-06-15T07:17:51Z</time>
      </trkpt>
      <trkpt lat="45.66709" lon="6.77277">
        <ele>1228.6</ele>
        <time>2022-06-15T07:17:52Z</time>
      </trkpt>
      <trkpt lat="45.6671" lon="6.7728">
        <ele>1229</ele>
        <time>2022-06-15T07:17:53Z</time>
      </trkpt>
      <trkpt lat="45.66711" lon="6.77282">
        <ele>1229.4</ele>
        <time>2022-06-15T07:17:54Z</time>
      </trkpt>
      <trkpt lat="45.66713" lon="6.77285">
        <ele>1229.7</ele>
        <time>2022-06-15T07:17:55Z</time>
      </trkpt>
      <trkpt lat="45.66714" lon="6.77287">
        <ele>1230.1</ele>
        <time>2022-06-15T07:17:56Z</time>
      </trkpt>
      <trkpt lat="45.66715" lon="6.77289">
        <ele>1230.4</ele>
        <time>2022-06-15T07:17:57Z</time>
      </trkpt>
      <trkpt lat="45.66717" lon="6.77291">
        <ele>1230.7</ele>
        <time>2022-06-15T07:17:58Z</time>
      </trkpt>
      <trkpt lat="45.66718" lon="6.77293">
        <ele>1230.9</ele>
        <time>2022-06-15T07:17:59Z</time>
      </trkpt>
      <trkpt lat="45.6672" lon="6.77295">
        <ele>1231.3</ele>
        <time>2022-06-15T07:18:00Z</time>
      </trkpt>
      <trkpt lat="45.66721" lon="6.77297">
        <ele>1231.5</ele>
        <time>2022-06-15T07:18:01Z</time>
      </trkpt>
      <trkpt lat="45.66723" lon="6.77299">
        <ele>1231.9</ele>
        <time>2022-06-15T07:18:02Z</time>
      </trkpt>
      <trkpt lat="45.66724" lon="6.77301">
        <ele>1232.5</ele>
        <time>2022-06-15T07:18:03Z</time>
      </trkpt>
      <trkpt lat="45.66726" lon="6.77303">
        <ele>1233.1</ele>
        <time>2022-06-15T07:18:04Z</time>
      </trkpt>
      <trkpt lat="45.66728" lon="6.77304">
        <ele>1233.6</ele>
        <time>2022-06-15T07:18:05Z</time>
      </trkpt>
      <trkpt lat="45.6673" lon="6.77306">
        <ele>1234.4</ele>
        <time>2022-06-15T07:18:06Z</time>
      </trkpt>
      <trkpt lat="45.66731" lon="6.77309">
        <ele>1234.8</ele>
        <time>2022-06-15T07:18:07Z</time>
      </trkpt>
      <trkpt lat="45.66732" lon="6.77312">
        <ele>1235.3</ele>
        <time>2022-06-15T07:18:08Z</time>
      </trkpt>
      <trkpt lat="45.66733" lon="6.77314">
        <ele>1235.4</ele>
        <time>2022-06-15T07:18:09Z</time>
      </trkpt>
      <trkpt lat="45.66733" lon="6.77317">
        <ele>1235.3</ele>
        <time>2022-06-15T07:18:10Z</time>
      </trkpt>
      <trkpt lat="45.66733" lon="6.7732">
        <ele>1235</ele>
        <time>2022-06-15T07:18:11Z</time>
      </trkpt>
      <trkpt lat="45.66733" lon="6.77323">
        <ele>1234.9</ele>
        <time>2022-06-15T07:18:12Z</time>
      </trkpt>
      <trkpt lat="45.66733" lon="6.77326">
        <ele>1234.7</ele>
        <time>2022-06-15T07:18:13Z</time>
      </trkpt>
      <trkpt lat="45.66733" lon="6.7733">
        <ele>1234.5</ele>
        <time>2022-06-15T07:18:14Z</time>
      </trkpt>
      <trkpt lat="45.66733" lon="6.77333">
        <ele>1234.3</ele>
        <time>2022-06-15T07:18:15Z</time>
      </trkpt>
      <trkpt lat="45.66732" lon="6.77335">
        <ele>1234.2</ele>
        <time>2022-06-15T07:18:16Z</time>
      </trkpt>
      <trkpt lat="45.66732" lon="6.77338">
        <ele>1234</ele>
        <time>2022-06-15T07:18:17Z</time>
      </trkpt>
      <trkpt lat="45.66731" lon="6.77341">
        <ele>1233.9</ele>
        <time>2022-06-15T07:18:18Z</time>
      </trkpt>
      <trkpt lat="45.66731" lon="6.77344">
        <ele>1233.8</ele>
        <time>2022-06-15T07:18:19Z</time>
      </trkpt>
      <trkpt lat="45.6673" lon="6.77347">
        <ele>1233.7</ele>
        <time>2022-06-15T07:18:20Z</time>
      </trkpt>
      <trkpt lat="45.6673" lon="6.7735">
        <ele>1233.8</ele>
        <time>2022-06-15T07:18:21Z</time>
      </trkpt>
      <trkpt lat="45.6673" lon="6.77353">
        <ele>1234</ele>
        <time>2022-06-15T07:18:22Z</time>
      </trkpt>
      <trkpt lat="45.6673" lon="6.77356">
        <ele>1234</ele>
        <time>2022-06-15T07:18:23Z</time>
      </trkpt>
      <trkpt lat="45.6673" lon="6.77359">
        <ele>1234.3</ele>
        <time>2022-06-15T07:18:24Z</time>
      </trkpt>
      <trkpt lat="45.6673" lon="6.77362">
        <ele>1234.3</ele>
        <time>2022-06-15T07:18:25Z</time>
      </trkpt>
      <trkpt lat="45.6673" lon="6.77365">
        <ele>1234.2</ele>
        <time>2022-06-15T07:18:26Z</time>
      </trkpt>
      <trkpt lat="45.66731" lon="6.77368">
        <ele>1234.5</ele>
        <time>2022-06-15T07:18:27Z</time>
      </trkpt>
      <trkpt lat="45.66731" lon="6.77371">
        <ele>1234.6</ele>
        <time>2022-06-15T07:18:28Z</time>
      </trkpt>
      <trkpt lat="45.66732" lon="6.77373">
        <ele>1234.8</ele>
        <time>2022-06-15T07:18:29Z</time>
      </trkpt>
      <trkpt lat="45.66733" lon="6.77376">
        <ele>1234.9</ele>
        <time>2022-06-15T07:18:30Z</time>
      </trkpt>
      <trkpt lat="45.66734" lon="6.77379">
        <ele>1235.1</ele>
        <time>2022-06-15T07:18:31Z</time>
      </trkpt>
      <trkpt lat="45.66735" lon="6.77381">
        <ele>1235.4</ele>
        <time>2022-06-15T07:18:32Z</time>
      </trkpt>
      <trkpt lat="45.66735" lon="6.77383">
        <ele>1235.6</ele>
        <time>2022-06-15T07:18:33Z</time>
      </trkpt>
      <trkpt lat="45.66737" lon="6.77386">
        <ele>1235.9</ele>
        <time>2022-06-15T07:18:34Z</time>
      </trkpt>
      <trkpt lat="45.66738" lon="6.77388">
        <ele>1236.4</ele>
        <time>2022-06-15T07:18:35Z</time>
      </trkpt>
      <trkpt lat="45.66739" lon="6.77389">
        <ele>1236.4</ele>
        <time>2022-06-15T07:18:36Z</time>
      </trkpt>
      <trkpt lat="45.6674" lon="6.77392">
        <ele>1236.4</ele>
        <time>2022-06-15T07:18:37Z</time>
      </trkpt>
      <trkpt lat="45.66741" lon="6.77395">
        <ele>1236.7</ele>
        <time>2022-06-15T07:18:38Z</time>
      </trkpt>
      <trkpt lat="45.66743" lon="6.77397">
        <ele>1236.9</ele>
        <time>2022-06-15T07:18:39Z</time>
      </trkpt>
      <trkpt lat="45.66744" lon="6.77399">
        <ele>1237.2</ele>
        <time>2022-06-15T07:18:40Z</time>
      </trkpt>
      <trkpt lat="45.66744" lon="6.77401">
        <ele>1237</ele>
        <time>2022-06-15T07:18:41Z</time>
      </trkpt>
      <trkpt lat="45.66746" lon="6.77403">
        <ele>1237.2</ele>
        <time>2022-06-15T07:18:42Z</time>
      </trkpt>
      <trkpt lat="45.66747" lon="6.77406">
        <ele>1237.2</ele>
        <time>2022-06-15T07:18:43Z</time>
      </trkpt>
      <trkpt lat="45.66748" lon="6.77408">
        <ele>1237.5</ele>
        <time>2022-06-15T07:18:44Z</time>
      </trkpt>
      <trkpt lat="45.6675" lon="6.77411">
        <ele>1237.9</ele>
        <time>2022-06-15T07:18:45Z</time>
      </trkpt>
      <trkpt lat="45.66751" lon="6.77413">
        <ele>1238.2</ele>
        <time>2022-06-15T07:18:46Z</time>
      </trkpt>
      <trkpt lat="45.66753" lon="6.77415">
        <ele>1238.4</ele>
        <time>2022-06-15T07:18:47Z</time>
      </trkpt>
      <trkpt lat="45.66754" lon="6.77417">
        <ele>1238.7</ele>
        <time>2022-06-15T07:18:48Z</time>
      </trkpt>
      <trkpt lat="45.66756" lon="6.77421">
        <ele>1239.4</ele>
        <time>2022-06-15T07:18:49Z</time>
      </trkpt>
      <trkpt lat="45.66757" lon="6.77423">
        <ele>1239.5</ele>
        <time>2022-06-15T07:18:50Z</time>
      </trkpt>
      <trkpt lat="45.66758" lon="6.77426">
        <ele>1239.8</ele>
        <time>2022-06-15T07:18:51Z</time>
      </trkpt>
      <trkpt lat="45.66759" lon="6.77428">
        <ele>1240.1</ele>
        <time>2022-06-15T07:18:52Z</time>
      </trkpt>
      <trkpt lat="45.66761" lon="6.77431">
        <ele>1240.6</ele>
        <time>2022-06-15T07:18:53Z</time>
      </trkpt>
      <trkpt lat="45.66761" lon="6.77434">
        <ele>1240.7</ele>
        <time>2022-06-15T07:18:54Z</time>
      </trkpt>
      <trkpt lat="45.66762" lon="6.77436">
        <ele>1240.9</ele>
        <time>2022-06-15T07:18:55Z</time>
      </trkpt>
      <trkpt lat="45.66764" lon="6.77439">
        <ele>1241.3</ele>
        <time>2022-06-15T07:18:56Z</time>
      </trkpt>
      <trkpt lat="45.66765" lon="6.77443">
        <ele>1241.5</ele>
        <time>2022-06-15T07:18:57Z</time>
      </trkpt>
      <trkpt lat="45.66766" lon="6.77445">
        <ele>1241.7</ele>
        <time>2022-06-15T07:18:58Z</time>
      </trkpt>
      <trkpt lat="45.66767" lon="6.77448">
        <ele>1241.8</ele>
        <time>2022-06-15T07:18:59Z</time>
      </trkpt>
      <trkpt lat="45.66768" lon="6.7745">
        <ele>1241.9</ele>
        <time>2022-06-15T07:19:00Z</time>
      </trkpt>
      <trkpt lat="45.66768" lon="6.77453">
        <ele>1241.9</ele>
        <time>2022-06-15T07:19:01Z</time>
      </trkpt>
      <trkpt lat="45.66769" lon="6.77455">
        <ele>1241.8</ele>
        <time>2022-06-15T07:19:02Z</time>
      </trkpt>
      <trkpt lat="45.66769" lon="6.77458">
        <ele>1241.6</ele>
        <time>2022-06-15T07:19:03Z</time>
      </trkpt>
      <trkpt lat="45.6677" lon="6.77461">
        <ele>1241.5</ele>
        <time>2022-06-15T07:19:04Z</time>
      </trkpt>
      <trkpt lat="45.66771" lon="6.77464">
        <ele>1241.3</ele>
        <time>2022-06-15T07:19:05Z</time>
      </trkpt>
      <trkpt lat="45.66771" lon="6.77467">
        <ele>1241.3</ele>
        <time>2022-06-15T07:19:06Z</time>
      </trkpt>
      <trkpt lat="45.66772" lon="6.7747">
        <ele>1241.1</ele>
        <time>2022-06-15T07:19:07Z</time>
      </trkpt>
      <trkpt lat="45.66772" lon="6.77473">
        <ele>1241.1</ele>
        <time>2022-06-15T07:19:08Z</time>
      </trkpt>
      <trkpt lat="45.66773" lon="6.77476">
        <ele>1241.6</ele>
        <time>2022-06-15T07:19:09Z</time>
      </trkpt>
      <trkpt lat="45.66774" lon="6.77479">
        <ele>1242.2</ele>
        <time>2022-06-15T07:19:10Z</time>
      </trkpt>
      <trkpt lat="45.66775" lon="6.77481">
        <ele>1242.7</ele>
        <time>2022-06-15T07:19:11Z</time>
      </trkpt>
      <trkpt lat="45.66776" lon="6.77484">
        <ele>1243.5</ele>
        <time>2022-06-15T07:19:12Z</time>
      </trkpt>
      <trkpt lat="45.66778" lon="6.77486">
        <ele>1244.4</ele>
        <time>2022-06-15T07:19:13Z</time>
      </trkpt>
      <trkpt lat="45.6678" lon="6.77488">
        <ele>1245.5</ele>
        <time>2022-06-15T07:19:14Z</time>
      </trkpt>
      <trkpt lat="45.66782" lon="6.77489">
        <ele>1246.6</ele>
        <time>2022-06-15T07:19:15Z</time>
      </trkpt>
      <trkpt lat="45.66784" lon="6.77489">
        <ele>1247.8</ele>
        <time>2022-06-15T07:19:16Z</time>
      </trkpt>
      <trkpt lat="45.66786" lon="6.77488">
        <ele>1248.7</ele>
        <time>2022-06-15T07:19:17Z</time>
      </trkpt>
      <trkpt lat="45.66788" lon="6.77486">
        <ele>1249.4</ele>
        <time>2022-06-15T07:19:18Z</time>
      </trkpt>
      <trkpt lat="45.66789" lon="6.77483">
        <ele>1249.9</ele>
        <time>2022-06-15T07:19:19Z</time>
      </trkpt>
      <trkpt lat="45.6679" lon="6.7748">
        <ele>1250.2</ele>
        <time>2022-06-15T07:19:20Z</time>
      </trkpt>
      <trkpt lat="45.66789" lon="6.77477">
        <ele>1249.7</ele>
        <time>2022-06-15T07:19:21Z</time>
      </trkpt>
      <trkpt lat="45.66788" lon="6.77474">
        <ele>1249.1</ele>
        <time>2022-06-15T07:19:22Z</time>
      </trkpt>
      <trkpt lat="45.66787" lon="6.77471">
        <ele>1249</ele>
        <time>2022-06-15T07:19:23Z</time>
      </trkpt>
      <trkpt lat="45.66786" lon="6.77467">
        <ele>1249.1</ele>
        <time>2022-06-15T07:19:24Z</time>
      </trkpt>
      <trkpt lat="45.66786" lon="6.77464">
        <ele>1249.5</ele>
        <time>2022-06-15T07:19:25Z</time>
      </trkpt>
      <trkpt lat="45.66785" lon="6.77461">
        <ele>1249.5</ele>
        <time>2022-06-15T07:19:26Z</time>
      </trkpt>
      <trkpt lat="45.66784" lon="6.77458">
        <ele>1249.5</ele>
        <time>2022-06-15T07:19:27Z</time>
      </trkpt>
      <trkpt lat="45.66783" lon="6.77454">
        <ele>1249.6</ele>
        <time>2022-06-15T07:19:28Z</time>
      </trkpt>
      <trkpt lat="45.66782" lon="6.77452">
        <ele>1249.3</ele>
        <time>2022-06-15T07:19:29Z</time>
      </trkpt>
      <trkpt lat="45.66781" lon="6.77449">
        <ele>1249.5</ele>
        <time>2022-06-15T07:19:30Z</time>
      </trkpt>
      <trkpt lat="45.66781" lon="6.77446">
        <ele>1249.6</ele>
        <time>2022-06-15T07:19:31Z</time>
      </trkpt>
      <trkpt lat="45.6678" lon="6.77444">
        <ele>1249.7</ele>
        <time>2022-06-15T07:19:32Z</time>
      </trkpt>
      <trkpt lat="45.6678" lon="6.7744">
        <ele>1249.6</ele>
        <time>2022-06-15T07:19:33Z</time>
      </trkpt>
      <trkpt lat="45.6678" lon="6.77438">
        <ele>1250</ele>
        <time>2022-06-15T07:19:34Z</time>
      </trkpt>
      <trkpt lat="45.6678" lon="6.77436">
        <ele>1249.8</ele>
        <time>2022-06-15T07:19:35Z</time>
      </trkpt>
      <trkpt lat="45.6678" lon="6.77432">
        <ele>1250</ele>
        <time>2022-06-15T07:19:36Z</time>
      </trkpt>
      <trkpt lat="45.66779" lon="6.7743">
        <ele>1249.6</ele>
        <time>2022-06-15T07:19:37Z</time>
      </trkpt>
      <trkpt lat="45.66778" lon="6.77427">
        <ele>1249.2</ele>
        <time>2022-06-15T07:19:38Z</time>
      </trkpt>
      <trkpt lat="45.66777" lon="6.77424">
        <ele>1249.2</ele>
        <time>2022-06-15T07:19:39Z</time>
      </trkpt>
      <trkpt lat="45.66776" lon="6.77421">
        <ele>1249</ele>
        <time>2022-06-15T07:19:40Z</time>
      </trkpt>
      <trkpt lat="45.66777" lon="6.77419">
        <ele>1249.2</ele>
        <time>2022-06-15T07:19:41Z</time>
      </trkpt>
      <trkpt lat="45.66776" lon="6.77417">
        <ele>1249.3</ele>
        <time>2022-06-15T07:19:42Z</time>
      </trkpt>
      <trkpt lat="45.66776" lon="6.77413">
        <ele>1249.6</ele>
        <time>2022-06-15T07:19:43Z</time>
      </trkpt>
      <trkpt lat="45.66775" lon="6.7741">
        <ele>1250</ele>
        <time>2022-06-15T07:19:44Z</time>
      </trkpt>
      <trkpt lat="45.66774" lon="6.77408">
        <ele>1250</ele>
        <time>2022-06-15T07:19:45Z</time>
      </trkpt>
      <trkpt lat="45.66773" lon="6.77405">
        <ele>1249.9</ele>
        <time>2022-06-15T07:19:46Z</time>
      </trkpt>
      <trkpt lat="45.66772" lon="6.77401">
        <ele>1249.9</ele>
        <time>2022-06-15T07:19:47Z</time>
      </trkpt>
      <trkpt lat="45.66771" lon="6.77397">
        <ele>1250.3</ele>
        <time>2022-06-15T07:19:48Z</time>
      </trkpt>
      <trkpt lat="45.6677" lon="6.77393">
        <ele>1250.5</ele>
        <time>2022-06-15T07:19:49Z</time>
      </trkpt>
      <trkpt lat="45.6677" lon="6.7739">
        <ele>1251</ele>
        <time>2022-06-15T07:19:50Z</time>
      </trkpt>
      <trkpt lat="45.66769" lon="6.77386">
        <ele>1250.9</ele>
        <time>2022-06-15T07:19:51Z</time>
      </trkpt>
      <trkpt lat="45.66769" lon="6.77383">
        <ele>1251.1</ele>
        <time>2022-06-15T07:19:52Z</time>
      </trkpt>
      <trkpt lat="45.66769" lon="6.7738">
        <ele>1251.4</ele>
        <time>2022-06-15T07:19:53Z</time>
      </trkpt>
      <trkpt lat="45.66768" lon="6.77376">
        <ele>1251.2</ele>
        <time>2022-06-15T07:19:54Z</time>
      </trkpt>
      <trkpt lat="45.66768" lon="6.77372">
        <ele>1251.4</ele>
        <time>2022-06-15T07:19:55Z</time>
      </trkpt>
      <trkpt lat="45.66767" lon="6.77369">
        <ele>1251.3</ele>
        <time>2022-06-15T07:19:56Z</time>
      </trkpt>
      <trkpt lat="45.66766" lon="6.77365">
        <ele>1251</ele>
        <time>2022-06-15T07:19:57Z</time>
      </trkpt>
      <trkpt lat="45.66766" lon="6.77362">
        <ele>1251.3</ele>
        <time>2022-06-15T07:19:58Z</time>
      </trkpt>
      <trkpt lat="45.66766" lon="6.77359">
        <ele>1251.7</ele>
        <time>2022-06-15T07:19:59Z</time>
      </trkpt>
      <trkpt lat="45.66766" lon="6.77356">
        <ele>1252</ele>
        <time>2022-06-15T07:20:00Z</time>
      </trkpt>
      <trkpt lat="45.66766" lon="6.77353">
        <ele>1252.2</ele>
        <time>2022-06-15T07:20:01Z</time>
      </trkpt>
      <trkpt lat="45.66766" lon="6.77349">
        <ele>1252.7</ele>
        <time>2022-06-15T07:20:02Z</time>
      </trkpt>
      <trkpt lat="45.66765" lon="6.77346">
        <ele>1252.9</ele>
        <time>2022-06-15T07:20:03Z</time>
      </trkpt>
      <trkpt lat="45.66765" lon="6.77343">
        <ele>1253.1</ele>
        <time>2022-06-15T07:20:04Z</time>
      </trkpt>
      <trkpt lat="45.66765" lon="6.7734">
        <ele>1253.2</ele>
        <time>2022-06-15T07:20:05Z</time>
      </trkpt>
      <trkpt lat="45.66765" lon="6.77337">
        <ele>1253.6</ele>
        <time>2022-06-15T07:20:06Z</time>
      </trkpt>
      <trkpt lat="45.66764" lon="6.77333">
        <ele>1253.8</ele>
        <time>2022-06-15T07:20:07Z</time>
      </trkpt>
      <trkpt lat="45.66764" lon="6.7733">
        <ele>1253.6</ele>
        <time>2022-06-15T07:20:08Z</time>
      </trkpt>
      <trkpt lat="45.66764" lon="6.77327">
        <ele>1253.8</ele>
        <time>2022-06-15T07:20:09Z</time>
      </trkpt>
      <trkpt lat="45.66763" lon="6.77324">
        <ele>1253.8</ele>
        <time>2022-06-15T07:20:10Z</time>
      </trkpt>
      <trkpt lat="45.66764" lon="6.77321">
        <ele>1254.4</ele>
        <time>2022-06-15T07:20:11Z</time>
      </trkpt>
      <trkpt lat="45.66764" lon="6.77317">
        <ele>1255.1</ele>
        <time>2022-06-15T07:20:12Z</time>
      </trkpt>
      <trkpt lat="45.66764" lon="6.77315">
        <ele>1255.4</ele>
        <time>2022-06-15T07:20:13Z</time>
      </trkpt>
      <trkpt lat="45.66764" lon="6.77311">
        <ele>1255.7</ele>
        <time>2022-06-15T07:20:14Z</time>
      </trkpt>
      <trkpt lat="45.66765" lon="6.77308">
        <ele>1256.3</ele>
        <time>2022-06-15T07:20:15Z</time>
      </trkpt>
      <trkpt lat="45.66765" lon="6.77305">
        <ele>1256.5</ele>
        <time>2022-06-15T07:20:16Z</time>
      </trkpt>
      <trkpt lat="45.66764" lon="6.77302">
        <ele>1256.3</ele>
        <time>2022-06-15T07:20:17Z</time>
      </trkpt>
      <trkpt lat="45.66764" lon="6.77298">
        <ele>1255.9</ele>
        <time>2022-06-15T07:20:18Z</time>
      </trkpt>
      <trkpt lat="45.66764" lon="6.77295">
        <ele>1256.4</ele>
        <time>2022-06-15T07:20:19Z</time>
      </trkpt>
      <trkpt lat="45.66765" lon="6.77292">
        <ele>1257</ele>
        <time>2022-06-15T07:20:20Z</time>
      </trkpt>
      <trkpt lat="45.66766" lon="6.77289">
        <ele>1257.8</ele>
        <time>2022-06-15T07:20:21Z</time>
      </trkpt>
      <trkpt lat="45.66766" lon="6.77285">
        <ele>1257.9</ele>
        <time>2022-06-15T07:20:22Z</time>
      </trkpt>
      <trkpt lat="45.66766" lon="6.77282">
        <ele>1258.1</ele>
        <time>2022-06-15T07:20:23Z</time>
      </trkpt>
      <trkpt lat="45.66767" lon="6.77279">
        <ele>1258.5</ele>
        <time>2022-06-15T07:20:24Z</time>
      </trkpt>
      <trkpt lat="45.66767" lon="6.77276">
        <ele>1258.7</ele>
        <time>2022-06-15T07:20:25Z</time>
      </trkpt>
      <trkpt lat="45.66766" lon="6.77273">
        <ele>1258.8</ele>
        <time>2022-06-15T07:20:26Z</time>
      </trkpt>
      <trkpt lat="45.66766" lon="6.7727">
        <ele>1258.8</ele>
        <time>2022-06-15T07:20:27Z</time>
      </trkpt>
      <trkpt lat="45.66765" lon="6.77266">
        <ele>1258.8</ele>
        <time>2022-06-15T07:20:28Z</time>
      </trkpt>
      <trkpt lat="45.66763" lon="6.77262">
        <ele>1258.4</ele>
        <time>2022-06-15T07:20:29Z</time>
      </trkpt>
      <trkpt lat="45.66762" lon="6.77259">
        <ele>1258.3</ele>
        <time>2022-06-15T07:20:30Z</time>
      </trkpt>
      <trkpt lat="45.66761" lon="6.77256">
        <ele>1258.3</ele>
        <time>2022-06-15T07:20:31Z</time>
      </trkpt>
      <trkpt lat="45.66761" lon="6.77253">
        <ele>1258.7</ele>
        <time>2022-06-15T07:20:32Z</time>
      </trkpt>
      <trkpt lat="45.66761" lon="6.77249">
        <ele>1259</ele>
        <time>2022-06-15T07:20:33Z</time>
      </trkpt>
      <trkpt lat="45.66761" lon="6.77246">
        <ele>1258.6</ele>
        <time>2022-06-15T07:20:34Z</time>
      </trkpt>
      <trkpt lat="45.66761" lon="6.77243">
        <ele>1258.4</ele>
        <time>2022-06-15T07:20:35Z</time>
      </trkpt>
      <trkpt lat="45.66762" lon="6.7724">
        <ele>1258.1</ele>
        <time>2022-06-15T07:20:36Z</time>
      </trkpt>
      <trkpt lat="45.66762" lon="6.77237">
        <ele>1258</ele>
        <time>2022-06-15T07:20:37Z</time>
      </trkpt>
      <trkpt lat="45.66764" lon="6.77234">
        <ele>1258</ele>
        <time>2022-06-15T07:20:38Z</time>
      </trkpt>
      <trkpt lat="45.66765" lon="6.77231">
        <ele>1258.1</ele>
        <time>2022-06-15T07:20:39Z</time>
      </trkpt>
      <trkpt lat="45.66767" lon="6.7723">
        <ele>1258.4</ele>
        <time>2022-06-15T07:20:40Z</time>
      </trkpt>
      <trkpt lat="45.66769" lon="6.77229">
        <ele>1258.7</ele>
        <time>2022-06-15T07:20:41Z</time>
      </trkpt>
      <trkpt lat="45.66771" lon="6.77228">
        <ele>1259</ele>
        <time>2022-06-15T07:20:42Z</time>
      </trkpt>
      <trkpt lat="45.66772" lon="6.77228">
        <ele>1259.1</ele>
        <time>2022-06-15T07:20:43Z</time>
      </trkpt>
      <trkpt lat="45.66773" lon="6.77229">
        <ele>1259.5</ele>
        <time>2022-06-15T07:20:44Z</time>
      </trkpt>
      <trkpt lat="45.66775" lon="6.77229">
        <ele>1260.2</ele>
        <time>2022-06-15T07:20:45Z</time>
      </trkpt>
      <trkpt lat="45.66777" lon="6.7723">
        <ele>1261</ele>
        <time>2022-06-15T07:20:46Z</time>
      </trkpt>
      <trkpt lat="45.66779" lon="6.77231">
        <ele>1261.8</ele>
        <time>2022-06-15T07:20:47Z</time>
      </trkpt>
      <trkpt lat="45.66781" lon="6.77231">
        <ele>1262.3</ele>
        <time>2022-06-15T07:20:48Z</time>
      </trkpt>
      <trkpt lat="45.66783" lon="6.77231">
        <ele>1262.8</ele>
        <time>2022-06-15T07:20:49Z</time>
      </trkpt>
      <trkpt lat="45.66786" lon="6.77231">
        <ele>1263.3</ele>
        <time>2022-06-15T07:20:50Z</time>
      </trkpt>
      <trkpt lat="45.66788" lon="6.7723">
        <ele>1263.8</ele>
        <time>2022-06-15T07:20:51Z</time>
      </trkpt>
      <trkpt lat="45.6679" lon="6.7723">
        <ele>1264.2</ele>
        <time>2022-06-15T07:20:52Z</time>
      </trkpt>
      <trkpt lat="45.66793" lon="6.77229">
        <ele>1264.5</ele>
        <time>2022-06-15T07:20:53Z</time>
      </trkpt>
      <trkpt lat="45.66795" lon="6.77227">
        <ele>1264.5</ele>
        <time>2022-06-15T07:20:54Z</time>
      </trkpt>
      <trkpt lat="45.66797" lon="6.77225">
        <ele>1264.6</ele>
        <time>2022-06-15T07:20:55Z</time>
      </trkpt>
      <trkpt lat="45.66799" lon="6.77223">
        <ele>1264.5</ele>
        <time>2022-06-15T07:20:56Z</time>
      </trkpt>
      <trkpt lat="45.668" lon="6.77221">
        <ele>1264.6</ele>
        <time>2022-06-15T07:20:57Z</time>
      </trkpt>
      <trkpt lat="45.66801" lon="6.77218">
        <ele>1264.9</ele>
        <time>2022-06-15T07:20:58Z</time>
      </trkpt>
      <trkpt lat="45.66802" lon="6.77215">
        <ele>1265</ele>
        <time>2022-06-15T07:20:59Z</time>
      </trkpt>
      <trkpt lat="45.66802" lon="6.77212">
        <ele>1265</ele>
        <time>2022-06-15T07:21:00Z</time>
      </trkpt>
      <trkpt lat="45.66803" lon="6.77209">
        <ele>1265.1</ele>
        <time>2022-06-15T07:21:01Z</time>
      </trkpt>
      <trkpt lat="45.66803" lon="6.77206">
        <ele>1265</ele>
        <time>2022-06-15T07:21:02Z</time>
      </trkpt>
      <trkpt lat="45.66803" lon="6.77203">
        <ele>1265</ele>
        <time>2022-06-15T07:21:03Z</time>
      </trkpt>
      <trkpt lat="45.66803" lon="6.772">
        <ele>1265</ele>
        <time>2022-06-15T07:21:04Z</time>
      </trkpt>
      <trkpt lat="45.66803" lon="6.77196">
        <ele>1265</ele>
        <time>2022-06-15T07:21:05Z</time>
      </trkpt>
      <trkpt lat="45.66803" lon="6.77193">
        <ele>1265.1</ele>
        <time>2022-06-15T07:21:06Z</time>
      </trkpt>
      <trkpt lat="45.66803" lon="6.7719">
        <ele>1264.9</ele>
        <time>2022-06-15T07:21:07Z</time>
      </trkpt>
      <trkpt lat="45.66802" lon="6.77187">
        <ele>1264.7</ele>
        <time>2022-06-15T07:21:08Z</time>
      </trkpt>
      <trkpt lat="45.66802" lon="6.77184">
        <ele>1264.6</ele>
        <time>2022-06-15T07:21:09Z</time>
      </trkpt>
      <trkpt lat="45.66802" lon="6.77181">
        <ele>1264.5</ele>
        <time>2022-06-15T07:21:10Z</time>
      </trkpt>
      <trkpt lat="45.66802" lon="6.77178">
        <ele>1264.5</ele>
        <time>2022-06-15T07:21:11Z</time>
      </trkpt>
      <trkpt lat="45.66802" lon="6.77175">
        <ele>1264.6</ele>
        <time>2022-06-15T07:21:12Z</time>
      </trkpt>
      <trkpt lat="45.66803" lon="6.77172">
        <ele>1264.8</ele>
        <time>2022-06-15T07:21:13Z</time>
      </trkpt>
      <trkpt lat="45.66804" lon="6.77169">
        <ele>1265.3</ele>
        <time>2022-06-15T07:21:14Z</time>
      </trkpt>
      <trkpt lat="45.66805" lon="6.77167">
        <ele>1265.9</ele>
        <time>2022-06-15T07:21:15Z</time>
      </trkpt>
      <trkpt lat="45.66808" lon="6.77167">
        <ele>1267.3</ele>
        <time>2022-06-15T07:21:16Z</time>
      </trkpt>
      <trkpt lat="45.6681" lon="6.77167">
        <ele>1268.5</ele>
        <time>2022-06-15T07:21:17Z</time>
      </trkpt>
      <trkpt lat="45.66812" lon="6.77168">
        <ele>1269.7</ele>
        <time>2022-06-15T07:21:18Z</time>
      </trkpt>
      <trkpt lat="45.66813" lon="6.77169">
        <ele>1270.6</ele>
        <time>2022-06-15T07:21:19Z</time>
      </trkpt>
      <trkpt lat="45.66814" lon="6.77171">
        <ele>1271</ele>
        <time>2022-06-15T07:21:20Z</time>
      </trkpt>
      <trkpt lat="45.66814" lon="6.77173">
        <ele>1271.3</ele>
        <time>2022-06-15T07:21:21Z</time>
      </trkpt>
      <trkpt lat="45.66814" lon="6.77177">
        <ele>1271.5</ele>
        <time>2022-06-15T07:21:22Z</time>
      </trkpt>
      <trkpt lat="45.66814" lon="6.7718">
        <ele>1271.3</ele>
        <time>2022-06-15T07:21:23Z</time>
      </trkpt>
      <trkpt lat="45.66814" lon="6.77184">
        <ele>1271.4</ele>
        <time>2022-06-15T07:21:24Z</time>
      </trkpt>
      <trkpt lat="45.66813" lon="6.77186">
        <ele>1271.1</ele>
        <time>2022-06-15T07:21:25Z</time>
      </trkpt>
      <trkpt lat="45.66813" lon="6.77189">
        <ele>1270.9</ele>
        <time>2022-06-15T07:21:26Z</time>
      </trkpt>
      <trkpt lat="45.66813" lon="6.77192">
        <ele>1270.9</ele>
        <time>2022-06-15T07:21:27Z</time>
      </trkpt>
      <trkpt lat="45.66812" lon="6.77196">
        <ele>1270.9</ele>
        <time>2022-06-15T07:21:28Z</time>
      </trkpt>
      <trkpt lat="45.66812" lon="6.77199">
        <ele>1270.4</ele>
        <time>2022-06-15T07:21:29Z</time>
      </trkpt>
      <trkpt lat="45.66812" lon="6.77202">
        <ele>1270.3</ele>
        <time>2022-06-15T07:21:30Z</time>
      </trkpt>
      <trkpt lat="45.66812" lon="6.77205">
        <ele>1270.6</ele>
        <time>2022-06-15T07:21:31Z</time>
      </trkpt>
      <trkpt lat="45.66812" lon="6.77208">
        <ele>1270.6</ele>
        <time>2022-06-15T07:21:32Z</time>
      </trkpt>
      <trkpt lat="45.66812" lon="6.77211">
        <ele>1270.7</ele>
        <time>2022-06-15T07:21:33Z</time>
      </trkpt>
      <trkpt lat="45.66812" lon="6.77214">
        <ele>1270.6</ele>
        <time>2022-06-15T07:21:34Z</time>
      </trkpt>
      <trkpt lat="45.66812" lon="6.77216">
        <ele>1270.4</ele>
        <time>2022-06-15T07:21:35Z</time>
      </trkpt>
      <trkpt lat="45.66812" lon="6.77219">
        <ele>1270.4</ele>
        <time>2022-06-15T07:21:36Z</time>
      </trkpt>
      <trkpt lat="45.66812" lon="6.77222">
        <ele>1270.3</ele>
        <time>2022-06-15T07:21:37Z</time>
      </trkpt>
      <trkpt lat="45.66811" lon="6.77225">
        <ele>1270.4</ele>
        <time>2022-06-15T07:21:38Z</time>
      </trkpt>
      <trkpt lat="45.6681" lon="6.77227">
        <ele>1270.2</ele>
        <time>2022-06-15T07:21:39Z</time>
      </trkpt>
      <trkpt lat="45.66809" lon="6.7723">
        <ele>1270.2</ele>
        <time>2022-06-15T07:21:40Z</time>
      </trkpt>
      <trkpt lat="45.66808" lon="6.77232">
        <ele>1270.2</ele>
        <time>2022-06-15T07:21:41Z</time>
      </trkpt>
      <trkpt lat="45.66807" lon="6.77235">
        <ele>1270</ele>
        <time>2022-06-15T07:21:42Z</time>
      </trkpt>
      <trkpt lat="45.66806" lon="6.77237">
        <ele>1269.7</ele>
        <time>2022-06-15T07:21:43Z</time>
      </trkpt>
      <trkpt lat="45.66804" lon="6.77239">
        <ele>1269.8</ele>
        <time>2022-06-15T07:21:44Z</time>
      </trkpt>
      <trkpt lat="45.66802" lon="6.77241">
        <ele>1269.9</ele>
        <time>2022-06-15T07:21:45Z</time>
      </trkpt>
      <trkpt lat="45.66801" lon="6.77243">
        <ele>1270.2</ele>
        <time>2022-06-15T07:21:46Z</time>
      </trkpt>
      <trkpt lat="45.668" lon="6.77245">
        <ele>1270.6</ele>
        <time>2022-06-15T07:21:47Z</time>
      </trkpt>
      <trkpt lat="45.66799" lon="6.77247">
        <ele>1270.7</ele>
        <time>2022-06-15T07:21:48Z</time>
      </trkpt>
      <trkpt lat="45.66797" lon="6.77249">
        <ele>1270.8</ele>
        <time>2022-06-15T07:21:49Z</time>
      </trkpt>
      <trkpt lat="45.66796" lon="6.77251">
        <ele>1271</ele>
        <time>2022-06-15T07:21:50Z</time>
      </trkpt>
      <trkpt lat="45.66795" lon="6.77254">
        <ele>1271.1</ele>
        <time>2022-06-15T07:21:51Z</time>
      </trkpt>
      <trkpt lat="45.66794" lon="6.77257">
        <ele>1271.2</ele>
        <time>2022-06-15T07:21:52Z</time>
      </trkpt>
      <trkpt lat="45.66794" lon="6.77261">
        <ele>1271.5</ele>
        <time>2022-06-15T07:21:53Z</time>
      </trkpt>
      <trkpt lat="45.66795" lon="6.77264">
        <ele>1271.9</ele>
        <time>2022-06-15T07:21:54Z</time>
      </trkpt>
      <trkpt lat="45.66794" lon="6.77269">
        <ele>1272.2</ele>
        <time>2022-06-15T07:21:55Z</time>
      </trkpt>
      <trkpt lat="45.66795" lon="6.77272">
        <ele>1272.6</ele>
        <time>2022-06-15T07:21:56Z</time>
      </trkpt>
      <trkpt lat="45.66796" lon="6.77277">
        <ele>1273.3</ele>
        <time>2022-06-15T07:21:57Z</time>
      </trkpt>
      <trkpt lat="45.66796" lon="6.77278">
        <ele>1273.6</ele>
        <time>2022-06-15T07:21:58Z</time>
      </trkpt>
      <trkpt lat="45.66797" lon="6.77281">
        <ele>1273.8</ele>
        <time>2022-06-15T07:21:59Z</time>
      </trkpt>
      <trkpt lat="45.66798" lon="6.77284">
        <ele>1274</ele>
        <time>2022-06-15T07:22:00Z</time>
      </trkpt>
      <trkpt lat="45.66798" lon="6.77287">
        <ele>1274.1</ele>
        <time>2022-06-15T07:22:01Z</time>
      </trkpt>
      <trkpt lat="45.66799" lon="6.7729">
        <ele>1274.5</ele>
        <time>2022-06-15T07:22:02Z</time>
      </trkpt>
      <trkpt lat="45.668" lon="6.77292">
        <ele>1274.8</ele>
        <time>2022-06-15T07:22:03Z</time>
      </trkpt>
      <trkpt lat="45.66801" lon="6.77294">
        <ele>1275.1</ele>
        <time>2022-06-15T07:22:04Z</time>
      </trkpt>
      <trkpt lat="45.66802" lon="6.77298">
        <ele>1275.3</ele>
        <time>2022-06-15T07:22:05Z</time>
      </trkpt>
      <trkpt lat="45.66803" lon="6.773">
        <ele>1275.5</ele>
        <time>2022-06-15T07:22:06Z</time>
      </trkpt>
      <trkpt lat="45.66804" lon="6.77303">
        <ele>1275.7</ele>
        <time>2022-06-15T07:22:07Z</time>
      </trkpt>
      <trkpt lat="45.66806" lon="6.77305">
        <ele>1276</ele>
        <time>2022-06-15T07:22:08Z</time>
      </trkpt>
      <trkpt lat="45.66807" lon="6.77308">
        <ele>1276.2</ele>
        <time>2022-06-15T07:22:09Z</time>
      </trkpt>
      <trkpt lat="45.66808" lon="6.7731">
        <ele>1276.3</ele>
        <time>2022-06-15T07:22:10Z</time>
      </trkpt>
      <trkpt lat="45.66809" lon="6.77313">
        <ele>1276.3</ele>
        <time>2022-06-15T07:22:11Z</time>
      </trkpt>
      <trkpt lat="45.6681" lon="6.77315">
        <ele>1276.4</ele>
        <time>2022-06-15T07:22:12Z</time>
      </trkpt>
      <trkpt lat="45.66811" lon="6.77318">
        <ele>1276.5</ele>
        <time>2022-06-15T07:22:13Z</time>
      </trkpt>
      <trkpt lat="45.66812" lon="6.77321">
        <ele>1276.8</ele>
        <time>2022-06-15T07:22:14Z</time>
      </trkpt>
      <trkpt lat="45.66813" lon="6.77324">
        <ele>1277</ele>
        <time>2022-06-15T07:22:15Z</time>
      </trkpt>
      <trkpt lat="45.66815" lon="6.77326">
        <ele>1277.4</ele>
        <time>2022-06-15T07:22:16Z</time>
      </trkpt>
      <trkpt lat="45.66816" lon="6.77329">
        <ele>1277.6</ele>
        <time>2022-06-15T07:22:17Z</time>
      </trkpt>
      <trkpt lat="45.66817" lon="6.77331">
        <ele>1277.8</ele>
        <time>2022-06-15T07:22:18Z</time>
      </trkpt>
      <trkpt lat="45.66817" lon="6.77334">
        <ele>1277.9</ele>
        <time>2022-06-15T07:22:19Z</time>
      </trkpt>
      <trkpt lat="45.66817" lon="6.77337">
        <ele>1277.8</ele>
        <time>2022-06-15T07:22:20Z</time>
      </trkpt>
      <trkpt lat="45.66818" lon="6.7734">
        <ele>1278.5</ele>
        <time>2022-06-15T07:22:21Z</time>
      </trkpt>
      <trkpt lat="45.66819" lon="6.77343">
        <ele>1278.7</ele>
        <time>2022-06-15T07:22:22Z</time>
      </trkpt>
      <trkpt lat="45.66818" lon="6.77345">
        <ele>1278.4</ele>
        <time>2022-06-15T07:22:23Z</time>
      </trkpt>
      <trkpt lat="45.66818" lon="6.77348">
        <ele>1278.6</ele>
        <time>2022-06-15T07:22:24Z</time>
      </trkpt>
      <trkpt lat="45.66819" lon="6.77351">
        <ele>1279.1</ele>
        <time>2022-06-15T07:22:25Z</time>
      </trkpt>
      <trkpt lat="45.66819" lon="6.77354">
        <ele>1279</ele>
        <time>2022-06-15T07:22:26Z</time>
      </trkpt>
      <trkpt lat="45.66819" lon="6.77356">
        <ele>1279.2</ele>
        <time>2022-06-15T07:22:27Z</time>
      </trkpt>
      <trkpt lat="45.6682" lon="6.77359">
        <ele>1279.5</ele>
        <time>2022-06-15T07:22:28Z</time>
      </trkpt>
      <trkpt lat="45.6682" lon="6.77361">
        <ele>1279.6</ele>
        <time>2022-06-15T07:22:29Z</time>
      </trkpt>
      <trkpt lat="45.6682" lon="6.77364">
        <ele>1279.9</ele>
        <time>2022-06-15T07:22:30Z</time>
      </trkpt>
      <trkpt lat="45.6682" lon="6.77368">
        <ele>1279.8</ele>
        <time>2022-06-15T07:22:31Z</time>
      </trkpt>
      <trkpt lat="45.6682" lon="6.77371">
        <ele>1279.7</ele>
        <time>2022-06-15T07:22:32Z</time>
      </trkpt>
      <trkpt lat="45.6682" lon="6.77374">
        <ele>1279.6</ele>
        <time>2022-06-15T07:22:33Z</time>
      </trkpt>
      <trkpt lat="45.6682" lon="6.77377">
        <ele>1279.8</ele>
        <time>2022-06-15T07:22:34Z</time>
      </trkpt>
      <trkpt lat="45.66821" lon="6.77379">
        <ele>1280.2</ele>
        <time>2022-06-15T07:22:35Z</time>
      </trkpt>
      <trkpt lat="45.66821" lon="6.77382">
        <ele>1280.3</ele>
        <time>2022-06-15T07:22:36Z</time>
      </trkpt>
      <trkpt lat="45.66821" lon="6.77385">
        <ele>1280.4</ele>
        <time>2022-06-15T07:22:37Z</time>
      </trkpt>
      <trkpt lat="45.66822" lon="6.77388">
        <ele>1280.6</ele>
        <time>2022-06-15T07:22:38Z</time>
      </trkpt>
      <trkpt lat="45.66822" lon="6.77392">
        <ele>1280.7</ele>
        <time>2022-06-15T07:22:39Z</time>
      </trkpt>
      <trkpt lat="45.66822" lon="6.77395">
        <ele>1280.8</ele>
        <time>2022-06-15T07:22:40Z</time>
      </trkpt>
      <trkpt lat="45.66822" lon="6.77399">
        <ele>1280.6</ele>
        <time>2022-06-15T07:22:41Z</time>
      </trkpt>
      <trkpt lat="45.66823" lon="6.77402">
        <ele>1280.7</ele>
        <time>2022-06-15T07:22:42Z</time>
      </trkpt>
      <trkpt lat="45.66823" lon="6.77405">
        <ele>1280.6</ele>
        <time>2022-06-15T07:22:43Z</time>
      </trkpt>
      <trkpt lat="45.66823" lon="6.77407">
        <ele>1280.6</ele>
        <time>2022-06-15T07:22:44Z</time>
      </trkpt>
      <trkpt lat="45.66824" lon="6.7741">
        <ele>1281.1</ele>
        <time>2022-06-15T07:22:45Z</time>
      </trkpt>
      <trkpt lat="45.66825" lon="6.77413">
        <ele>1281.5</ele>
        <time>2022-06-15T07:22:46Z</time>
      </trkpt>
      <trkpt lat="45.66825" lon="6.77416">
        <ele>1281.6</ele>
        <time>2022-06-15T07:22:47Z</time>
      </trkpt>
      <trkpt lat="45.66826" lon="6.77418">
        <ele>1281.7</ele>
        <time>2022-06-15T07:22:48Z</time>
      </trkpt>
      <trkpt lat="45.66827" lon="6.7742">
        <ele>1282.2</ele>
        <time>2022-06-15T07:22:49Z</time>
      </trkpt>
      <trkpt lat="45.66828" lon="6.77422">
        <ele>1282.8</ele>
        <time>2022-06-15T07:22:50Z</time>
      </trkpt>
      <trkpt lat="45.6683" lon="6.77424">
        <ele>1283.6</ele>
        <time>2022-06-15T07:22:51Z</time>
      </trkpt>
      <trkpt lat="45.66831" lon="6.77426">
        <ele>1284</ele>
        <time>2022-06-15T07:22:52Z</time>
      </trkpt>
      <trkpt lat="45.66833" lon="6.77428">
        <ele>1284.6</ele>
        <time>2022-06-15T07:22:53Z</time>
      </trkpt>
      <trkpt lat="45.66834" lon="6.7743">
        <ele>1285.1</ele>
        <time>2022-06-15T07:22:54Z</time>
      </trkpt>
      <trkpt lat="45.66835" lon="6.77433">
        <ele>1285.1</ele>
        <time>2022-06-15T07:22:55Z</time>
      </trkpt>
      <trkpt lat="45.66837" lon="6.77435">
        <ele>1285.4</ele>
        <time>2022-06-15T07:22:56Z</time>
      </trkpt>
      <trkpt lat="45.66839" lon="6.77437">
        <ele>1285.9</ele>
        <time>2022-06-15T07:22:57Z</time>
      </trkpt>
      <trkpt lat="45.66839" lon="6.77438">
        <ele>1286.2</ele>
        <time>2022-06-15T07:22:58Z</time>
      </trkpt>
      <trkpt lat="45.66841" lon="6.7744">
        <ele>1286.4</ele>
        <time>2022-06-15T07:22:59Z</time>
      </trkpt>
      <trkpt lat="45.66841" lon="6.77442">
        <ele>1286.1</ele>
        <time>2022-06-15T07:23:00Z</time>
      </trkpt>
      <trkpt lat="45.66843" lon="6.77445">
        <ele>1286.6</ele>
        <time>2022-06-15T07:23:01Z</time>
      </trkpt>
      <trkpt lat="45.66844" lon="6.77446">
        <ele>1287</ele>
        <time>2022-06-15T07:23:02Z</time>
      </trkpt>
      <trkpt lat="45.66845" lon="6.77448">
        <ele>1286.9</ele>
        <time>2022-06-15T07:23:03Z</time>
      </trkpt>
      <trkpt lat="45.66847" lon="6.77449">
        <ele>1287.5</ele>
        <time>2022-06-15T07:23:04Z</time>
      </trkpt>
      <trkpt lat="45.66849" lon="6.77452">
        <ele>1288</ele>
        <time>2022-06-15T07:23:05Z</time>
      </trkpt>
      <trkpt lat="45.66852" lon="6.77454">
        <ele>1288.8</ele>
        <time>2022-06-15T07:23:06Z</time>
      </trkpt>
      <trkpt lat="45.66854" lon="6.77457">
        <ele>1289</ele>
        <time>2022-06-15T07:23:07Z</time>
      </trkpt>
      <trkpt lat="45.66856" lon="6.7746">
        <ele>1289.2</ele>
        <time>2022-06-15T07:23:08Z</time>
      </trkpt>
      <trkpt lat="45.66857" lon="6.77463">
        <ele>1289.1</ele>
        <time>2022-06-15T07:23:09Z</time>
      </trkpt>
      <trkpt lat="45.66858" lon="6.77466">
        <ele>1288.7</ele>
        <time>2022-06-15T07:23:10Z</time>
      </trkpt>
      <trkpt lat="45.66858" lon="6.77469">
        <ele>1288.2</ele>
        <time>2022-06-15T07:23:11Z</time>
      </trkpt>
      <trkpt lat="45.66859" lon="6.77473">
        <ele>1288</ele>
        <time>2022-06-15T07:23:12Z</time>
      </trkpt>
      <trkpt lat="45.6686" lon="6.77476">
        <ele>1288.7</ele>
        <time>2022-06-15T07:23:13Z</time>
      </trkpt>
      <trkpt lat="45.66859" lon="6.77479">
        <ele>1289</ele>
        <time>2022-06-15T07:23:14Z</time>
      </trkpt>
      <trkpt lat="45.6686" lon="6.77483">
        <ele>1290.1</ele>
        <time>2022-06-15T07:23:15Z</time>
      </trkpt>
      <trkpt lat="45.6686" lon="6.77487">
        <ele>1290.3</ele>
        <time>2022-06-15T07:23:16Z</time>
      </trkpt>
      <trkpt lat="45.6686" lon="6.7749">
        <ele>1290.6</ele>
        <time>2022-06-15T07:23:17Z</time>
      </trkpt>
      <trkpt lat="45.66859" lon="6.77493">
        <ele>1290.9</ele>
        <time>2022-06-15T07:23:18Z</time>
      </trkpt>
      <trkpt lat="45.66859" lon="6.77496">
        <ele>1291</ele>
        <time>2022-06-15T07:23:19Z</time>
      </trkpt>
      <trkpt lat="45.66858" lon="6.77499">
        <ele>1290.9</ele>
        <time>2022-06-15T07:23:20Z</time>
      </trkpt>
      <trkpt lat="45.66857" lon="6.77502">
        <ele>1290.5</ele>
        <time>2022-06-15T07:23:21Z</time>
      </trkpt>
      <trkpt lat="45.66856" lon="6.77505">
        <ele>1290</ele>
        <time>2022-06-15T07:23:22Z</time>
      </trkpt>
      <trkpt lat="45.66855" lon="6.77507">
        <ele>1289.6</ele>
        <time>2022-06-15T07:23:23Z</time>
      </trkpt>
      <trkpt lat="45.66854" lon="6.7751">
        <ele>1289.2</ele>
        <time>2022-06-15T07:23:24Z</time>
      </trkpt>
      <trkpt lat="45.66853" lon="6.77513">
        <ele>1288.9</ele>
        <time>2022-06-15T07:23:25Z</time>
      </trkpt>
      <trkpt lat="45.66852" lon="6.77516">
        <ele>1288.6</ele>
        <time>2022-06-15T07:23:26Z</time>
      </trkpt>
      <trkpt lat="45.6685" lon="6.7752">
        <ele>1287.9</ele>
        <time>2022-06-15T07:23:27Z</time>
      </trkpt>
      <trkpt lat="45.66848" lon="6.77523">
        <ele>1287.5</ele>
        <time>2022-06-15T07:23:28Z</time>
      </trkpt>
      <trkpt lat="45.66847" lon="6.77526">
        <ele>1287.6</ele>
        <time>2022-06-15T07:23:29Z</time>
      </trkpt>
      <trkpt lat="45.66847" lon="6.77529">
        <ele>1288</ele>
        <time>2022-06-15T07:23:30Z</time>
      </trkpt>
      <trkpt lat="45.66846" lon="6.77532">
        <ele>1288.4</ele>
        <time>2022-06-15T07:23:31Z</time>
      </trkpt>
      <trkpt lat="45.66845" lon="6.77535">
        <ele>1288.6</ele>
        <time>2022-06-15T07:23:32Z</time>
      </trkpt>
      <trkpt lat="45.66846" lon="6.77538">
        <ele>1289.6</ele>
        <time>2022-06-15T07:23:33Z</time>
      </trkpt>
      <trkpt lat="45.66847" lon="6.7754">
        <ele>1291</ele>
        <time>2022-06-15T07:23:34Z</time>
      </trkpt>
      <trkpt lat="45.6685" lon="6.77542">
        <ele>1292.3</ele>
        <time>2022-06-15T07:23:35Z</time>
      </trkpt>
      <trkpt lat="45.66852" lon="6.77542">
        <ele>1293.4</ele>
        <time>2022-06-15T07:23:36Z</time>
      </trkpt>
      <trkpt lat="45.66854" lon="6.77541">
        <ele>1294.2</ele>
        <time>2022-06-15T07:23:37Z</time>
      </trkpt>
      <trkpt lat="45.66857" lon="6.77539">
        <ele>1294.8</ele>
        <time>2022-06-15T07:23:38Z</time>
      </trkpt>
      <trkpt lat="45.66859" lon="6.77537">
        <ele>1295.2</ele>
        <time>2022-06-15T07:23:39Z</time>
      </trkpt>
      <trkpt lat="45.6686" lon="6.77535">
        <ele>1295.3</ele>
        <time>2022-06-15T07:23:40Z</time>
      </trkpt>
      <trkpt lat="45.66861" lon="6.77533">
        <ele>1295.3</ele>
        <time>2022-06-15T07:23:41Z</time>
      </trkpt>
      <trkpt lat="45.66862" lon="6.7753">
        <ele>1295.4</ele>
        <time>2022-06-15T07:23:42Z</time>
      </trkpt>
      <trkpt lat="45.66863" lon="6.77528">
        <ele>1295.5</ele>
        <time>2022-06-15T07:23:43Z</time>
      </trkpt>
      <trkpt lat="45.66864" lon="6.77524">
        <ele>1296.2</ele>
        <time>2022-06-15T07:23:44Z</time>
      </trkpt>
      <trkpt lat="45.66865" lon="6.77521">
        <ele>1296.7</ele>
        <time>2022-06-15T07:23:45Z</time>
      </trkpt>
      <trkpt lat="45.66866" lon="6.77517">
        <ele>1297.2</ele>
        <time>2022-06-15T07:23:46Z</time>
      </trkpt>
      <trkpt lat="45.66868" lon="6.77514">
        <ele>1298</ele>
        <time>2022-06-15T07:23:47Z</time>
      </trkpt>
      <trkpt lat="45.66869" lon="6.77511">
        <ele>1298.5</ele>
        <time>2022-06-15T07:23:48Z</time>
      </trkpt>
      <trkpt lat="45.6687" lon="6.77507">
        <ele>1298.8</ele>
        <time>2022-06-15T07:23:49Z</time>
      </trkpt>
      <trkpt lat="45.66872" lon="6.77504">
        <ele>1299.4</ele>
        <time>2022-06-15T07:23:50Z</time>
      </trkpt>
      <trkpt lat="45.66873" lon="6.77501">
        <ele>1300.1</ele>
        <time>2022-06-15T07:23:51Z</time>
      </trkpt>
      <trkpt lat="45.66875" lon="6.77497">
        <ele>1300.1</ele>
        <time>2022-06-15T07:23:52Z</time>
      </trkpt>
      <trkpt lat="45.66875" lon="6.77493">
        <ele>1299.8</ele>
        <time>2022-06-15T07:23:53Z</time>
      </trkpt>
      <trkpt lat="45.66876" lon="6.77489">
        <ele>1299.9</ele>
        <time>2022-06-15T07:23:54Z</time>
      </trkpt>
      <trkpt lat="45.66878" lon="6.77487">
        <ele>1300.6</ele>
        <time>2022-06-15T07:23:55Z</time>
      </trkpt>
      <trkpt lat="45.66879" lon="6.77484">
        <ele>1300.3</ele>
        <time>2022-06-15T07:23:56Z</time>
      </trkpt>
      <trkpt lat="45.66879" lon="6.7748">
        <ele>1300.1</ele>
        <time>2022-06-15T07:23:57Z</time>
      </trkpt>
      <trkpt lat="45.6688" lon="6.77477">
        <ele>1300.2</ele>
        <time>2022-06-15T07:23:58Z</time>
      </trkpt>
      <trkpt lat="45.66881" lon="6.77474">
        <ele>1299.9</ele>
        <time>2022-06-15T07:23:59Z</time>
      </trkpt>
      <trkpt lat="45.66881" lon="6.7747">
        <ele>1300</ele>
        <time>2022-06-15T07:24:00Z</time>
      </trkpt>
      <trkpt lat="45.66881" lon="6.77467">
        <ele>1300.7</ele>
        <time>2022-06-15T07:24:01Z</time>
      </trkpt>
      <trkpt lat="45.66881" lon="6.77464">
        <ele>1301.6</ele>
        <time>2022-06-15T07:24:02Z</time>
      </trkpt>
      <trkpt lat="45.66881" lon="6.77462">
        <ele>1301.8</ele>
        <time>2022-06-15T07:24:03Z</time>
      </trkpt>
      <trkpt lat="45.66879" lon="6.77459">
        <ele>1301.9</ele>
        <time>2022-06-15T07:24:04Z</time>
      </trkpt>
      <trkpt lat="45.66877" lon="6.77455">
        <ele>1301.5</ele>
        <time>2022-06-15T07:24:05Z</time>
      </trkpt>
      <trkpt lat="45.66875" lon="6.77452">
        <ele>1301.3</ele>
        <time>2022-06-15T07:24:06Z</time>
      </trkpt>
      <trkpt lat="45.66873" lon="6.7745">
        <ele>1300.9</ele>
        <time>2022-06-15T07:24:07Z</time>
      </trkpt>
      <trkpt lat="45.66872" lon="6.77448">
        <ele>1300.5</ele>
        <time>2022-06-15T07:24:08Z</time>
      </trkpt>
      <trkpt lat="45.6687" lon="6.77445">
        <ele>1300.3</ele>
        <time>2022-06-15T07:24:09Z</time>
      </trkpt>
      <trkpt lat="45.66868" lon="6.77443">
        <ele>1299.6</ele>
        <time>2022-06-15T07:24:10Z</time>
      </trkpt>
      <trkpt lat="45.66866" lon="6.77439">
        <ele>1299.5</ele>
        <time>2022-06-15T07:24:11Z</time>
      </trkpt>
      <trkpt lat="45.66864" lon="6.77437">
        <ele>1299</ele>
        <time>2022-06-15T07:24:12Z</time>
      </trkpt>
      <trkpt lat="45.66863" lon="6.77434">
        <ele>1298.9</ele>
        <time>2022-06-15T07:24:13Z</time>
      </trkpt>
      <trkpt lat="45.66861" lon="6.77431">
        <ele>1298.8</ele>
        <time>2022-06-15T07:24:14Z</time>
      </trkpt>
      <trkpt lat="45.66859" lon="6.77428">
        <ele>1298.3</ele>
        <time>2022-06-15T07:24:15Z</time>
      </trkpt>
      <trkpt lat="45.66859" lon="6.77424">
        <ele>1299.1</ele>
        <time>2022-06-15T07:24:16Z</time>
      </trkpt>
      <trkpt lat="45.66859" lon="6.77421">
        <ele>1299.9</ele>
        <time>2022-06-15T07:24:17Z</time>
      </trkpt>
      <trkpt lat="45.66859" lon="6.77418">
        <ele>1300.8</ele>
        <time>2022-06-15T07:24:18Z</time>
      </trkpt>
      <trkpt lat="45.6686" lon="6.77414">
        <ele>1301.2</ele>
        <time>2022-06-15T07:24:19Z</time>
      </trkpt>
      <trkpt lat="45.6686" lon="6.77411">
        <ele>1301.3</ele>
        <time>2022-06-15T07:24:20Z</time>
      </trkpt>
      <trkpt lat="45.66861" lon="6.77408">
        <ele>1301.4</ele>
        <time>2022-06-15T07:24:21Z</time>
      </trkpt>
      <trkpt lat="45.66861" lon="6.77405">
        <ele>1301.4</ele>
        <time>2022-06-15T07:24:22Z</time>
      </trkpt>
      <trkpt lat="45.66861" lon="6.77403">
        <ele>1301.6</ele>
        <time>2022-06-15T07:24:23Z</time>
      </trkpt>
      <trkpt lat="45.66862" lon="6.77399">
        <ele>1301.6</ele>
        <time>2022-06-15T07:24:24Z</time>
      </trkpt>
      <trkpt lat="45.66862" lon="6.77396">
        <ele>1301.5</ele>
        <time>2022-06-15T07:24:25Z</time>
      </trkpt>
      <trkpt lat="45.66862" lon="6.77393">
        <ele>1301.6</ele>
        <time>2022-06-15T07:24:26Z</time>
      </trkpt>
      <trkpt lat="45.66862" lon="6.77389">
        <ele>1301.5</ele>
        <time>2022-06-15T07:24:27Z</time>
      </trkpt>
      <trkpt lat="45.66863" lon="6.77386">
        <ele>1301.8</ele>
        <time>2022-06-15T07:24:28Z</time>
      </trkpt>
      <trkpt lat="45.66863" lon="6.77382">
        <ele>1302</ele>
        <time>2022-06-15T07:24:29Z</time>
      </trkpt>
      <trkpt lat="45.66864" lon="6.77379">
        <ele>1302.3</ele>
        <time>2022-06-15T07:24:30Z</time>
      </trkpt>
      <trkpt lat="45.66864" lon="6.77376">
        <ele>1302.6</ele>
        <time>2022-06-15T07:24:31Z</time>
      </trkpt>
      <trkpt lat="45.66865" lon="6.77373">
        <ele>1302.9</ele>
        <time>2022-06-15T07:24:32Z</time>
      </trkpt>
      <trkpt lat="45.66865" lon="6.77369">
        <ele>1303</ele>
        <time>2022-06-15T07:24:33Z</time>
      </trkpt>
      <trkpt lat="45.66865" lon="6.77366">
        <ele>1303.2</ele>
        <time>2022-06-15T07:24:34Z</time>
      </trkpt>
      <trkpt lat="45.66866" lon="6.77363">
        <ele>1303.5</ele>
        <time>2022-06-15T07:24:35Z</time>
      </trkpt>
      <trkpt lat="45.66866" lon="6.7736">
        <ele>1304</ele>
        <time>2022-06-15T07:24:36Z</time>
      </trkpt>
      <trkpt lat="45.66866" lon="6.77357">
        <ele>1304.4</ele>
        <time>2022-06-15T07:24:37Z</time>
      </trkpt>
      <trkpt lat="45.66866" lon="6.77354">
        <ele>1304.8</ele>
        <time>2022-06-15T07:24:38Z</time>
      </trkpt>
      <trkpt lat="45.66867" lon="6.77351">
        <ele>1305.3</ele>
        <time>2022-06-15T07:24:39Z</time>
      </trkpt>
      <trkpt lat="45.66867" lon="6.77348">
        <ele>1305.6</ele>
        <time>2022-06-15T07:24:40Z</time>
      </trkpt>
      <trkpt lat="45.66866" lon="6.77344">
        <ele>1305.5</ele>
        <time>2022-06-15T07:24:41Z</time>
      </trkpt>
      <trkpt lat="45.66865" lon="6.77341">
        <ele>1305.6</ele>
        <time>2022-06-15T07:24:42Z</time>
      </trkpt>
      <trkpt lat="45.66865" lon="6.77337">
        <ele>1305.7</ele>
        <time>2022-06-15T07:24:43Z</time>
      </trkpt>
      <trkpt lat="45.66865" lon="6.77334">
        <ele>1305.9</ele>
        <time>2022-06-15T07:24:44Z</time>
      </trkpt>
      <trkpt lat="45.66864" lon="6.77331">
        <ele>1306.2</ele>
        <time>2022-06-15T07:24:45Z</time>
      </trkpt>
      <trkpt lat="45.66864" lon="6.77327">
        <ele>1306.4</ele>
        <time>2022-06-15T07:24:46Z</time>
      </trkpt>
      <trkpt lat="45.66864" lon="6.77324">
        <ele>1307</ele>
        <time>2022-06-15T07:24:47Z</time>
      </trkpt>
      <trkpt lat="45.66864" lon="6.77321">
        <ele>1307.4</ele>
        <time>2022-06-15T07:24:48Z</time>
      </trkpt>
      <trkpt lat="45.66864" lon="6.77318">
        <ele>1307.8</ele>
        <time>2022-06-15T07:24:49Z</time>
      </trkpt>
      <trkpt lat="45.66864" lon="6.77315">
        <ele>1308.1</ele>
        <time>2022-06-15T07:24:50Z</time>
      </trkpt>
      <trkpt lat="45.66864" lon="6.77311">
        <ele>1308.5</ele>
        <time>2022-06-15T07:24:51Z</time>
      </trkpt>
      <trkpt lat="45.66864" lon="6.77308">
        <ele>1309.1</ele>
        <time>2022-06-15T07:24:52Z</time>
      </trkpt>
      <trkpt lat="45.66865" lon="6.77305">
        <ele>1309.6</ele>
        <time>2022-06-15T07:24:53Z</time>
      </trkpt>
      <trkpt lat="45.66865" lon="6.77302">
        <ele>1309.6</ele>
        <time>2022-06-15T07:24:54Z</time>
      </trkpt>
      <trkpt lat="45.66865" lon="6.77299">
        <ele>1309.5</ele>
        <time>2022-06-15T07:24:55Z</time>
      </trkpt>
      <trkpt lat="45.66865" lon="6.77297">
        <ele>1309.5</ele>
        <time>2022-06-15T07:24:56Z</time>
      </trkpt>
      <trkpt lat="45.66865" lon="6.77294">
        <ele>1309.6</ele>
        <time>2022-06-15T07:24:57Z</time>
      </trkpt>
      <trkpt lat="45.66866" lon="6.77291">
        <ele>1309.8</ele>
        <time>2022-06-15T07:24:58Z</time>
      </trkpt>
      <trkpt lat="45.66867" lon="6.77288">
        <ele>1310</ele>
        <time>2022-06-15T07:24:59Z</time>
      </trkpt>
      <trkpt lat="45.66867" lon="6.77285">
        <ele>1310.2</ele>
        <time>2022-06-15T07:25:00Z</time>
      </trkpt>
      <trkpt lat="45.66868" lon="6.77282">
        <ele>1310.5</ele>
        <time>2022-06-15T07:25:01Z</time>
      </trkpt>
      <trkpt lat="45.66869" lon="6.77278">
        <ele>1310.7</ele>
        <time>2022-06-15T07:25:02Z</time>
      </trkpt>
      <trkpt lat="45.6687" lon="6.77276">
        <ele>1311.2</ele>
        <time>2022-06-15T07:25:03Z</time>
      </trkpt>
      <trkpt lat="45.6687" lon="6.77273">
        <ele>1311.5</ele>
        <time>2022-06-15T07:25:04Z</time>
      </trkpt>
      <trkpt lat="45.66871" lon="6.7727">
        <ele>1311.8</ele>
        <time>2022-06-15T07:25:05Z</time>
      </trkpt>
      <trkpt lat="45.66872" lon="6.77267">
        <ele>1311.8</ele>
        <time>2022-06-15T07:25:06Z</time>
      </trkpt>
      <trkpt lat="45.66872" lon="6.77264">
        <ele>1312</ele>
        <time>2022-06-15T07:25:07Z</time>
      </trkpt>
      <trkpt lat="45.66872" lon="6.77261">
        <ele>1311.9</ele>
        <time>2022-06-15T07:25:08Z</time>
      </trkpt>
      <trkpt lat="45.66873" lon="6.77258">
        <ele>1312.3</ele>
        <time>2022-06-15T07:25:09Z</time>
      </trkpt>
      <trkpt lat="45.66874" lon="6.77254">
        <ele>1312.4</ele>
        <time>2022-06-15T07:25:10Z</time>
      </trkpt>
      <trkpt lat="45.66874" lon="6.77251">
        <ele>1312.6</ele>
        <time>2022-06-15T07:25:11Z</time>
      </trkpt>
      <trkpt lat="45.66875" lon="6.77248">
        <ele>1312.7</ele>
        <time>2022-06-15T07:25:12Z</time>
      </trkpt>
      <trkpt lat="45.66875" lon="6.77245">
        <ele>1312.6</ele>
        <time>2022-06-15T07:25:13Z</time>
      </trkpt>
      <trkpt lat="45.66875" lon="6.77242">
        <ele>1312.7</ele>
        <time>2022-06-15T07:25:14Z</time>
      </trkpt>
      <trkpt lat="45.66876" lon="6.77238">
        <ele>1312.8</ele>
        <time>2022-06-15T07:25:15Z</time>
      </trkpt>
      <trkpt lat="45.66876" lon="6.77235">
        <ele>1312.8</ele>
        <time>2022-06-15T07:25:16Z</time>
      </trkpt>
      <trkpt lat="45.66876" lon="6.77232">
        <ele>1312.7</ele>
        <time>2022-06-15T07:25:17Z</time>
      </trkpt>
      <trkpt lat="45.66876" lon="6.77229">
        <ele>1312.6</ele>
        <time>2022-06-15T07:25:18Z</time>
      </trkpt>
      <trkpt lat="45.66876" lon="6.77226">
        <ele>1312.6</ele>
        <time>2022-06-15T07:25:19Z</time>
      </trkpt>
      <trkpt lat="45.66876" lon="6.77223">
        <ele>1312.6</ele>
        <time>2022-06-15T07:25:20Z</time>
      </trkpt>
      <trkpt lat="45.66877" lon="6.7722">
        <ele>1312.6</ele>
        <time>2022-06-15T07:25:21Z</time>
      </trkpt>
      <trkpt lat="45.66877" lon="6.77217">
        <ele>1312.9</ele>
        <time>2022-06-15T07:25:22Z</time>
      </trkpt>
      <trkpt lat="45.66878" lon="6.77214">
        <ele>1313.1</ele>
        <time>2022-06-15T07:25:23Z</time>
      </trkpt>
      <trkpt lat="45.66878" lon="6.7721">
        <ele>1313</ele>
        <time>2022-06-15T07:25:24Z</time>
      </trkpt>
      <trkpt lat="45.66878" lon="6.77207">
        <ele>1313</ele>
        <time>2022-06-15T07:25:25Z</time>
      </trkpt>
      <trkpt lat="45.66878" lon="6.77204">
        <ele>1313</ele>
        <time>2022-06-15T07:25:26Z</time>
      </trkpt>
      <trkpt lat="45.66879" lon="6.77201">
        <ele>1313.1</ele>
        <time>2022-06-15T07:25:27Z</time>
      </trkpt>
      <trkpt lat="45.66879" lon="6.77197">
        <ele>1313.2</ele>
        <time>2022-06-15T07:25:28Z</time>
      </trkpt>
      <trkpt lat="45.6688" lon="6.77194">
        <ele>1313.3</ele>
        <time>2022-06-15T07:25:29Z</time>
      </trkpt>
      <trkpt lat="45.6688" lon="6.77191">
        <ele>1313.3</ele>
        <time>2022-06-15T07:25:30Z</time>
      </trkpt>
      <trkpt lat="45.66881" lon="6.77188">
        <ele>1313.2</ele>
        <time>2022-06-15T07:25:31Z</time>
      </trkpt>
      <trkpt lat="45.66882" lon="6.77184">
        <ele>1313.5</ele>
        <time>2022-06-15T07:25:32Z</time>
      </trkpt>
      <trkpt lat="45.66884" lon="6.77182">
        <ele>1314.1</ele>
        <time>2022-06-15T07:25:33Z</time>
      </trkpt>
      <trkpt lat="45.66886" lon="6.7718">
        <ele>1315</ele>
        <time>2022-06-15T07:25:34Z</time>
      </trkpt>
      <trkpt lat="45.66888" lon="6.77179">
        <ele>1316</ele>
        <time>2022-06-15T07:25:35Z</time>
      </trkpt>
      <trkpt lat="45.66889" lon="6.7718">
        <ele>1316.7</ele>
        <time>2022-06-15T07:25:36Z</time>
      </trkpt>
      <trkpt lat="45.6689" lon="6.77183">
        <ele>1317.2</ele>
        <time>2022-06-15T07:25:37Z</time>
      </trkpt>
      <trkpt lat="45.6689" lon="6.77186">
        <ele>1317.3</ele>
        <time>2022-06-15T07:25:38Z</time>
      </trkpt>
      <trkpt lat="45.6689" lon="6.77189">
        <ele>1317.2</ele>
        <time>2022-06-15T07:25:39Z</time>
      </trkpt>
      <trkpt lat="45.66889" lon="6.77193">
        <ele>1317.2</ele>
        <time>2022-06-15T07:25:40Z</time>
      </trkpt>
      <trkpt lat="45.6689" lon="6.77196">
        <ele>1317.6</ele>
        <time>2022-06-15T07:25:41Z</time>
      </trkpt>
      <trkpt lat="45.6689" lon="6.772">
        <ele>1317.9</ele>
        <time>2022-06-15T07:25:42Z</time>
      </trkpt>
      <trkpt lat="45.6689" lon="6.77203">
        <ele>1318.1</ele>
        <time>2022-06-15T07:25:43Z</time>
      </trkpt>
      <trkpt lat="45.66891" lon="6.77207">
        <ele>1318.5</ele>
        <time>2022-06-15T07:25:44Z</time>
      </trkpt>
      <trkpt lat="45.6689" lon="6.7721">
        <ele>1318.5</ele>
        <time>2022-06-15T07:25:45Z</time>
      </trkpt>
      <trkpt lat="45.6689" lon="6.77213">
        <ele>1318.1</ele>
        <time>2022-06-15T07:25:46Z</time>
      </trkpt>
      <trkpt lat="45.6689" lon="6.77216">
        <ele>1318.2</ele>
        <time>2022-06-15T07:25:47Z</time>
      </trkpt>
      <trkpt lat="45.66889" lon="6.77219">
        <ele>1318</ele>
        <time>2022-06-15T07:25:48Z</time>
      </trkpt>
      <trkpt lat="45.66889" lon="6.77222">
        <ele>1318.1</ele>
        <time>2022-06-15T07:25:49Z</time>
      </trkpt>
      <trkpt lat="45.6689" lon="6.77225">
        <ele>1318.6</ele>
        <time>2022-06-15T07:25:50Z</time>
      </trkpt>
      <trkpt lat="45.6689" lon="6.77228">
        <ele>1318.8</ele>
        <time>2022-06-15T07:25:51Z</time>
      </trkpt>
      <trkpt lat="45.6689" lon="6.77231">
        <ele>1319.3</ele>
        <time>2022-06-15T07:25:52Z</time>
      </trkpt>
      <trkpt lat="45.6689" lon="6.77234">
        <ele>1319.5</ele>
        <time>2022-06-15T07:25:53Z</time>
      </trkpt>
      <trkpt lat="45.66891" lon="6.77237">
        <ele>1320.1</ele>
        <time>2022-06-15T07:25:54Z</time>
      </trkpt>
      <trkpt lat="45.66891" lon="6.7724">
        <ele>1320.6</ele>
        <time>2022-06-15T07:25:55Z</time>
      </trkpt>
      <trkpt lat="45.66892" lon="6.77243">
        <ele>1320.9</ele>
        <time>2022-06-15T07:25:56Z</time>
      </trkpt>
      <trkpt lat="45.66892" lon="6.77246">
        <ele>1321.5</ele>
        <time>2022-06-15T07:25:57Z</time>
      </trkpt>
      <trkpt lat="45.66893" lon="6.77249">
        <ele>1322</ele>
        <time>2022-06-15T07:25:58Z</time>
      </trkpt>
      <trkpt lat="45.66893" lon="6.77253">
        <ele>1322.3</ele>
        <time>2022-06-15T07:25:59Z</time>
      </trkpt>
      <trkpt lat="45.66893" lon="6.77256">
        <ele>1322.4</ele>
        <time>2022-06-15T07:26:00Z</time>
      </trkpt>
      <trkpt lat="45.66894" lon="6.77258">
        <ele>1322.6</ele>
        <time>2022-06-15T07:26:01Z</time>
      </trkpt>
      <trkpt lat="45.66894" lon="6.77261">
        <ele>1322.9</ele>
        <time>2022-06-15T07:26:02Z</time>
      </trkpt>
      <trkpt lat="45.66895" lon="6.77265">
        <ele>1323.4</ele>
        <time>2022-06-15T07:26:03Z</time>
      </trkpt>
      <trkpt lat="45.66895" lon="6.77268">
        <ele>1323.7</ele>
        <time>2022-06-15T07:26:04Z</time>
      </trkpt>
      <trkpt lat="45.66895" lon="6.7727">
        <ele>1323.8</ele>
        <time>2022-06-15T07:26:05Z</time>
      </trkpt>
      <trkpt lat="45.66895" lon="6.77273">
        <ele>1323.8</ele>
        <time>2022-06-15T07:26:06Z</time>
      </trkpt>
      <trkpt lat="45.66896" lon="6.77276">
        <ele>1324</ele>
        <time>2022-06-15T07:26:07Z</time>
      </trkpt>
      <trkpt lat="45.66896" lon="6.77279">
        <ele>1324.3</ele>
        <time>2022-06-15T07:26:08Z</time>
      </trkpt>
      <trkpt lat="45.66897" lon="6.77282">
        <ele>1324.5</ele>
        <time>2022-06-15T07:26:09Z</time>
      </trkpt>
      <trkpt lat="45.66897" lon="6.77285">
        <ele>1324.7</ele>
        <time>2022-06-15T07:26:10Z</time>
      </trkpt>
      <trkpt lat="45.66898" lon="6.77288">
        <ele>1325</ele>
        <time>2022-06-15T07:26:11Z</time>
      </trkpt>
      <trkpt lat="45.66898" lon="6.77291">
        <ele>1325.2</ele>
        <time>2022-06-15T07:26:12Z</time>
      </trkpt>
      <trkpt lat="45.66899" lon="6.77294">
        <ele>1325.3</ele>
        <time>2022-06-15T07:26:13Z</time>
      </trkpt>
      <trkpt lat="45.66899" lon="6.77297">
        <ele>1325.5</ele>
        <time>2022-06-15T07:26:14Z</time>
      </trkpt>
      <trkpt lat="45.669" lon="6.773">
        <ele>1325.7</ele>
        <time>2022-06-15T07:26:15Z</time>
      </trkpt>
      <trkpt lat="45.669" lon="6.77303">
        <ele>1326</ele>
        <time>2022-06-15T07:26:16Z</time>
      </trkpt>
      <trkpt lat="45.66901" lon="6.77305">
        <ele>1326.3</ele>
        <time>2022-06-15T07:26:17Z</time>
      </trkpt>
      <trkpt lat="45.66902" lon="6.77308">
        <ele>1326.5</ele>
        <time>2022-06-15T07:26:18Z</time>
      </trkpt>
      <trkpt lat="45.66902" lon="6.77311">
        <ele>1326.5</ele>
        <time>2022-06-15T07:26:19Z</time>
      </trkpt>
      <trkpt lat="45.66902" lon="6.77314">
        <ele>1326.4</ele>
        <time>2022-06-15T07:26:20Z</time>
      </trkpt>
      <trkpt lat="45.66903" lon="6.77317">
        <ele>1326.5</ele>
        <time>2022-06-15T07:26:21Z</time>
      </trkpt>
      <trkpt lat="45.66904" lon="6.7732">
        <ele>1326.8</ele>
        <time>2022-06-15T07:26:22Z</time>
      </trkpt>
      <trkpt lat="45.66904" lon="6.77323">
        <ele>1327</ele>
        <time>2022-06-15T07:26:23Z</time>
      </trkpt>
      <trkpt lat="45.66905" lon="6.77326">
        <ele>1327.2</ele>
        <time>2022-06-15T07:26:24Z</time>
      </trkpt>
      <trkpt lat="45.66906" lon="6.77329">
        <ele>1327.3</ele>
        <time>2022-06-15T07:26:25Z</time>
      </trkpt>
      <trkpt lat="45.66906" lon="6.77333">
        <ele>1327.4</ele>
        <time>2022-06-15T07:26:26Z</time>
      </trkpt>
      <trkpt lat="45.66907" lon="6.77337">
        <ele>1327.4</ele>
        <time>2022-06-15T07:26:27Z</time>
      </trkpt>
      <trkpt lat="45.66907" lon="6.7734">
        <ele>1327.3</ele>
        <time>2022-06-15T07:26:28Z</time>
      </trkpt>
      <trkpt lat="45.66908" lon="6.77343">
        <ele>1327.3</ele>
        <time>2022-06-15T07:26:29Z</time>
      </trkpt>
      <trkpt lat="45.66909" lon="6.77345">
        <ele>1327.5</ele>
        <time>2022-06-15T07:26:30Z</time>
      </trkpt>
      <trkpt lat="45.6691" lon="6.77348">
        <ele>1327.8</ele>
        <time>2022-06-15T07:26:31Z</time>
      </trkpt>
      <trkpt lat="45.66911" lon="6.77351">
        <ele>1328</ele>
        <time>2022-06-15T07:26:32Z</time>
      </trkpt>
      <trkpt lat="45.66912" lon="6.77354">
        <ele>1328.2</ele>
        <time>2022-06-15T07:26:33Z</time>
      </trkpt>
      <trkpt lat="45.66913" lon="6.77356">
        <ele>1328.5</ele>
        <time>2022-06-15T07:26:34Z</time>
      </trkpt>
      <trkpt lat="45.66914" lon="6.77359">
        <ele>1328.7</ele>
        <time>2022-06-15T07:26:35Z</time>
      </trkpt>
      <trkpt lat="45.66915" lon="6.77363">
        <ele>1328.9</ele>
        <time>2022-06-15T07:26:36Z</time>
      </trkpt>
      <trkpt lat="45.66916" lon="6.77365">
        <ele>1329.2</ele>
        <time>2022-06-15T07:26:37Z</time>
      </trkpt>
      <trkpt lat="45.66917" lon="6.77368">
        <ele>1329.6</ele>
        <time>2022-06-15T07:26:38Z</time>
      </trkpt>
      <trkpt lat="45.66918" lon="6.77371">
        <ele>1329.8</ele>
        <time>2022-06-15T07:26:39Z</time>
      </trkpt>
      <trkpt lat="45.66919" lon="6.77375">
        <ele>1329.9</ele>
        <time>2022-06-15T07:26:40Z</time>
      </trkpt>
      <trkpt lat="45.66919" lon="6.77378">
        <ele>1330</ele>
        <time>2022-06-15T07:26:41Z</time>
      </trkpt>
      <trkpt lat="45.6692" lon="6.77381">
        <ele>1330</ele>
        <time>2022-06-15T07:26:42Z</time>
      </trkpt>
      <trkpt lat="45.6692" lon="6.77384">
        <ele>1329.8</ele>
        <time>2022-06-15T07:26:43Z</time>
      </trkpt>
      <trkpt lat="45.6692" lon="6.77387">
        <ele>1329.6</ele>
        <time>2022-06-15T07:26:44Z</time>
      </trkpt>
      <trkpt lat="45.6692" lon="6.77391">
        <ele>1329.5</ele>
        <time>2022-06-15T07:26:45Z</time>
      </trkpt>
      <trkpt lat="45.66919" lon="6.77394">
        <ele>1329.4</ele>
        <time>2022-06-15T07:26:46Z</time>
      </trkpt>
      <trkpt lat="45.66919" lon="6.77398">
        <ele>1329.3</ele>
        <time>2022-06-15T07:26:47Z</time>
      </trkpt>
      <trkpt lat="45.66918" lon="6.77401">
        <ele>1329.2</ele>
        <time>2022-06-15T07:26:48Z</time>
      </trkpt>
      <trkpt lat="45.66918" lon="6.77404">
        <ele>1329.3</ele>
        <time>2022-06-15T07:26:49Z</time>
      </trkpt>
      <trkpt lat="45.66918" lon="6.77408">
        <ele>1329.2</ele>
        <time>2022-06-15T07:26:50Z</time>
      </trkpt>
      <trkpt lat="45.66918" lon="6.77411">
        <ele>1329.4</ele>
        <time>2022-06-15T07:26:51Z</time>
      </trkpt>
      <trkpt lat="45.66919" lon="6.77414">
        <ele>1330.1</ele>
        <time>2022-06-15T07:26:52Z</time>
      </trkpt>
      <trkpt lat="45.6692" lon="6.77417">
        <ele>1330.8</ele>
        <time>2022-06-15T07:26:53Z</time>
      </trkpt>
      <trkpt lat="45.66922" lon="6.77418">
        <ele>1331.7</ele>
        <time>2022-06-15T07:26:54Z</time>
      </trkpt>
      <trkpt lat="45.66923" lon="6.77419">
        <ele>1332.5</ele>
        <time>2022-06-15T07:26:55Z</time>
      </trkpt>
      <trkpt lat="45.66925" lon="6.77419">
        <ele>1333.2</ele>
        <time>2022-06-15T07:26:56Z</time>
      </trkpt>
      <trkpt lat="45.66927" lon="6.77418">
        <ele>1334.3</ele>
        <time>2022-06-15T07:26:57Z</time>
      </trkpt>
      <trkpt lat="45.66929" lon="6.77417">
        <ele>1335.7</ele>
        <time>2022-06-15T07:26:58Z</time>
      </trkpt>
      <trkpt lat="45.66931" lon="6.77414">
        <ele>1336.3</ele>
        <time>2022-06-15T07:26:59Z</time>
      </trkpt>
      <trkpt lat="45.66931" lon="6.77411">
        <ele>1336.6</ele>
        <time>2022-06-15T07:27:00Z</time>
      </trkpt>
      <trkpt lat="45.66932" lon="6.77408">
        <ele>1336.6</ele>
        <time>2022-06-15T07:27:01Z</time>
      </trkpt>
      <trkpt lat="45.66932" lon="6.77405">
        <ele>1336.5</ele>
        <time>2022-06-15T07:27:02Z</time>
      </trkpt>
      <trkpt lat="45.66932" lon="6.77401">
        <ele>1336.3</ele>
        <time>2022-06-15T07:27:03Z</time>
      </trkpt>
      <trkpt lat="45.66932" lon="6.77398">
        <ele>1336</ele>
        <time>2022-06-15T07:27:04Z</time>
      </trkpt>
      <trkpt lat="45.66931" lon="6.77394">
        <ele>1335.6</ele>
        <time>2022-06-15T07:27:05Z</time>
      </trkpt>
      <trkpt lat="45.66931" lon="6.77391">
        <ele>1335.2</ele>
        <time>2022-06-15T07:27:06Z</time>
      </trkpt>
      <trkpt lat="45.66931" lon="6.77388">
        <ele>1335.2</ele>
        <time>2022-06-15T07:27:07Z</time>
      </trkpt>
      <trkpt lat="45.66931" lon="6.77384">
        <ele>1335.4</ele>
        <time>2022-06-15T07:27:08Z</time>
      </trkpt>
      <trkpt lat="45.66931" lon="6.77381">
        <ele>1335.6</ele>
        <time>2022-06-15T07:27:09Z</time>
      </trkpt>
      <trkpt lat="45.66931" lon="6.77378">
        <ele>1335.7</ele>
        <time>2022-06-15T07:27:10Z</time>
      </trkpt>
      <trkpt lat="45.66931" lon="6.77375">
        <ele>1335.8</ele>
        <time>2022-06-15T07:27:11Z</time>
      </trkpt>
      <trkpt lat="45.66931" lon="6.77372">
        <ele>1336</ele>
        <time>2022-06-15T07:27:12Z</time>
      </trkpt>
      <trkpt lat="45.66932" lon="6.77369">
        <ele>1336.1</ele>
        <time>2022-06-15T07:27:13Z</time>
      </trkpt>
      <trkpt lat="45.66931" lon="6.77366">
        <ele>1336.1</ele>
        <time>2022-06-15T07:27:14Z</time>
      </trkpt>
      <trkpt lat="45.66931" lon="6.77363">
        <ele>1336.1</ele>
        <time>2022-06-15T07:27:15Z</time>
      </trkpt>
      <trkpt lat="45.66931" lon="6.7736">
        <ele>1336.3</ele>
        <time>2022-06-15T07:27:16Z</time>
      </trkpt>
      <trkpt lat="45.66931" lon="6.77357">
        <ele>1336.6</ele>
        <time>2022-06-15T07:27:17Z</time>
      </trkpt>
      <trkpt lat="45.66931" lon="6.77354">
        <ele>1336.8</ele>
        <time>2022-06-15T07:27:18Z</time>
      </trkpt>
      <trkpt lat="45.66932" lon="6.77351">
        <ele>1337.3</ele>
        <time>2022-06-15T07:27:19Z</time>
      </trkpt>
      <trkpt lat="45.66932" lon="6.77348">
        <ele>1337.7</ele>
        <time>2022-06-15T07:27:20Z</time>
      </trkpt>
      <trkpt lat="45.66933" lon="6.77345">
        <ele>1338.3</ele>
        <time>2022-06-15T07:27:21Z</time>
      </trkpt>
      <trkpt lat="45.66933" lon="6.77343">
        <ele>1338.6</ele>
        <time>2022-06-15T07:27:22Z</time>
      </trkpt>
      <trkpt lat="45.66933" lon="6.7734">
        <ele>1338.9</ele>
        <time>2022-06-15T07:27:23Z</time>
      </trkpt>
      <trkpt lat="45.66933" lon="6.77337">
        <ele>1339.1</ele>
        <time>2022-06-15T07:27:24Z</time>
      </trkpt>
      <trkpt lat="45.66933" lon="6.77334">
        <ele>1339.6</ele>
        <time>2022-06-15T07:27:25Z</time>
      </trkpt>
      <trkpt lat="45.66933" lon="6.77331">
        <ele>1339.7</ele>
        <time>2022-06-15T07:27:26Z</time>
      </trkpt>
      <trkpt lat="45.66933" lon="6.77328">
        <ele>1339.9</ele>
        <time>2022-06-15T07:27:27Z</time>
      </trkpt>
      <trkpt lat="45.66934" lon="6.77325">
        <ele>1340.2</ele>
        <time>2022-06-15T07:27:28Z</time>
      </trkpt>
      <trkpt lat="45.66935" lon="6.77322">
        <ele>1340.5</ele>
        <time>2022-06-15T07:27:29Z</time>
      </trkpt>
      <trkpt lat="45.66935" lon="6.77319">
        <ele>1340.5</ele>
        <time>2022-06-15T07:27:30Z</time>
      </trkpt>
      <trkpt lat="45.66934" lon="6.77316">
        <ele>1340.3</ele>
        <time>2022-06-15T07:27:31Z</time>
      </trkpt>
      <trkpt lat="45.66934" lon="6.77313">
        <ele>1340.4</ele>
        <time>2022-06-15T07:27:32Z</time>
      </trkpt>
      <trkpt lat="45.66934" lon="6.7731">
        <ele>1340.5</ele>
        <time>2022-06-15T07:27:33Z</time>
      </trkpt>
      <trkpt lat="45.66934" lon="6.77307">
        <ele>1340.6</ele>
        <time>2022-06-15T07:27:34Z</time>
      </trkpt>
      <trkpt lat="45.66934" lon="6.77304">
        <ele>1340.7</ele>
        <time>2022-06-15T07:27:35Z</time>
      </trkpt>
      <trkpt lat="45.66935" lon="6.77301">
        <ele>1340.9</ele>
        <time>2022-06-15T07:27:36Z</time>
      </trkpt>
      <trkpt lat="45.66935" lon="6.77298">
        <ele>1341</ele>
        <time>2022-06-15T07:27:37Z</time>
      </trkpt>
      <trkpt lat="45.66935" lon="6.77295">
        <ele>1341.1</ele>
        <time>2022-06-15T07:27:38Z</time>
      </trkpt>
      <trkpt lat="45.66935" lon="6.77291">
        <ele>1341.3</ele>
        <time>2022-06-15T07:27:39Z</time>
      </trkpt>
      <trkpt lat="45.66935" lon="6.77288">
        <ele>1341.4</ele>
        <time>2022-06-15T07:27:40Z</time>
      </trkpt>
      <trkpt lat="45.66935" lon="6.77284">
        <ele>1341.5</ele>
        <time>2022-06-15T07:27:41Z</time>
      </trkpt>
      <trkpt lat="45.66935" lon="6.77281">
        <ele>1341.8</ele>
        <time>2022-06-15T07:27:42Z</time>
      </trkpt>
      <trkpt lat="45.66935" lon="6.77278">
        <ele>1341.9</ele>
        <time>2022-06-15T07:27:43Z</time>
      </trkpt>
      <trkpt lat="45.66936" lon="6.77275">
        <ele>1342.2</ele>
        <time>2022-06-15T07:27:44Z</time>
      </trkpt>
      <trkpt lat="45.66936" lon="6.77272">
        <ele>1342.5</ele>
        <time>2022-06-15T07:27:45Z</time>
      </trkpt>
      <trkpt lat="45.66937" lon="6.77269">
        <ele>1342.8</ele>
        <time>2022-06-15T07:27:46Z</time>
      </trkpt>
      <trkpt lat="45.66937" lon="6.77266">
        <ele>1343</ele>
        <time>2022-06-15T07:27:47Z</time>
      </trkpt>
      <trkpt lat="45.66937" lon="6.77263">
        <ele>1343.2</ele>
        <time>2022-06-15T07:27:48Z</time>
      </trkpt>
      <trkpt lat="45.66938" lon="6.7726">
        <ele>1343.5</ele>
        <time>2022-06-15T07:27:49Z</time>
      </trkpt>
      <trkpt lat="45.66938" lon="6.77257">
        <ele>1343.8</ele>
        <time>2022-06-15T07:27:50Z</time>
      </trkpt>
      <trkpt lat="45.66939" lon="6.77254">
        <ele>1344.2</ele>
        <time>2022-06-15T07:27:51Z</time>
      </trkpt>
      <trkpt lat="45.66939" lon="6.77251">
        <ele>1344.4</ele>
        <time>2022-06-15T07:27:52Z</time>
      </trkpt>
      <trkpt lat="45.6694" lon="6.77248">
        <ele>1344.7</ele>
        <time>2022-06-15T07:27:53Z</time>
      </trkpt>
      <trkpt lat="45.66941" lon="6.77245">
        <ele>1344.9</ele>
        <time>2022-06-15T07:27:54Z</time>
      </trkpt>
      <trkpt lat="45.66943" lon="6.77243">
        <ele>1345.4</ele>
        <time>2022-06-15T07:27:55Z</time>
      </trkpt>
      <trkpt lat="45.66944" lon="6.77239">
        <ele>1345.7</ele>
        <time>2022-06-15T07:27:56Z</time>
      </trkpt>
      <trkpt lat="45.66945" lon="6.77236">
        <ele>1345.8</ele>
        <time>2022-06-15T07:27:57Z</time>
      </trkpt>
      <trkpt lat="45.66944" lon="6.77233">
        <ele>1345.1</ele>
        <time>2022-06-15T07:27:58Z</time>
      </trkpt>
      <trkpt lat="45.66946" lon="6.77231">
        <ele>1345.3</ele>
        <time>2022-06-15T07:27:59Z</time>
      </trkpt>
      <trkpt lat="45.66947" lon="6.77228">
        <ele>1345.5</ele>
        <time>2022-06-15T07:28:00Z</time>
      </trkpt>
      <trkpt lat="45.66948" lon="6.77226">
        <ele>1345.7</ele>
        <time>2022-06-15T07:28:01Z</time>
      </trkpt>
      <trkpt lat="45.66948" lon="6.77224">
        <ele>1345.8</ele>
        <time>2022-06-15T07:28:02Z</time>
      </trkpt>
      <trkpt lat="45.66949" lon="6.77222">
        <ele>1346</ele>
        <time>2022-06-15T07:28:03Z</time>
      </trkpt>
      <trkpt lat="45.6695" lon="6.77219">
        <ele>1346.1</ele>
        <time>2022-06-15T07:28:04Z</time>
      </trkpt>
      <trkpt lat="45.6695" lon="6.77216">
        <ele>1346.2</ele>
        <time>2022-06-15T07:28:05Z</time>
      </trkpt>
      <trkpt lat="45.66951" lon="6.77213">
        <ele>1346.4</ele>
        <time>2022-06-15T07:28:06Z</time>
      </trkpt>
      <trkpt lat="45.66951" lon="6.7721">
        <ele>1346.4</ele>
        <time>2022-06-15T07:28:07Z</time>
      </trkpt>
      <trkpt lat="45.66952" lon="6.77207">
        <ele>1346.5</ele>
        <time>2022-06-15T07:28:08Z</time>
      </trkpt>
      <trkpt lat="45.66953" lon="6.77204">
        <ele>1346.7</ele>
        <time>2022-06-15T07:28:09Z</time>
      </trkpt>
      <trkpt lat="45.66953" lon="6.772">
        <ele>1346.8</ele>
        <time>2022-06-15T07:28:10Z</time>
      </trkpt>
      <trkpt lat="45.66954" lon="6.77197">
        <ele>1346.8</ele>
        <time>2022-06-15T07:28:11Z</time>
      </trkpt>
      <trkpt lat="45.66954" lon="6.77193">
        <ele>1346.6</ele>
        <time>2022-06-15T07:28:12Z</time>
      </trkpt>
      <trkpt lat="45.66955" lon="6.7719">
        <ele>1346.6</ele>
        <time>2022-06-15T07:28:13Z</time>
      </trkpt>
      <trkpt lat="45.66956" lon="6.77186">
        <ele>1346.4</ele>
        <time>2022-06-15T07:28:14Z</time>
      </trkpt>
      <trkpt lat="45.66957" lon="6.77183">
        <ele>1346.2</ele>
        <time>2022-06-15T07:28:15Z</time>
      </trkpt>
      <trkpt lat="45.66957" lon="6.7718">
        <ele>1345.9</ele>
        <time>2022-06-15T07:28:16Z</time>
      </trkpt>
      <trkpt lat="45.66957" lon="6.77176">
        <ele>1345.4</ele>
        <time>2022-06-15T07:28:17Z</time>
      </trkpt>
      <trkpt lat="45.66957" lon="6.77173">
        <ele>1344.9</ele>
        <time>2022-06-15T07:28:18Z</time>
      </trkpt>
      <trkpt lat="45.66958" lon="6.77169">
        <ele>1344.6</ele>
        <time>2022-06-15T07:28:19Z</time>
      </trkpt>
      <trkpt lat="45.66959" lon="6.77166">
        <ele>1344.5</ele>
        <time>2022-06-15T07:28:20Z</time>
      </trkpt>
      <trkpt lat="45.6696" lon="6.77164">
        <ele>1344.7</ele>
        <time>2022-06-15T07:28:21Z</time>
      </trkpt>
      <trkpt lat="45.66962" lon="6.77162">
        <ele>1345.1</ele>
        <time>2022-06-15T07:28:22Z</time>
      </trkpt>
      <trkpt lat="45.66964" lon="6.77161">
        <ele>1345.8</ele>
        <time>2022-06-15T07:28:23Z</time>
      </trkpt>
      <trkpt lat="45.66966" lon="6.7716">
        <ele>1346.5</ele>
        <time>2022-06-15T07:28:24Z</time>
      </trkpt>
      <trkpt lat="45.66968" lon="6.77162">
        <ele>1347.1</ele>
        <time>2022-06-15T07:28:25Z</time>
      </trkpt>
      <trkpt lat="45.66968" lon="6.77164">
        <ele>1347.6</ele>
        <time>2022-06-15T07:28:26Z</time>
      </trkpt>
      <trkpt lat="45.66969" lon="6.77167">
        <ele>1347.8</ele>
        <time>2022-06-15T07:28:27Z</time>
      </trkpt>
      <trkpt lat="45.66969" lon="6.7717">
        <ele>1348.4</ele>
        <time>2022-06-15T07:28:28Z</time>
      </trkpt>
      <trkpt lat="45.66968" lon="6.77173">
        <ele>1348.7</ele>
        <time>2022-06-15T07:28:29Z</time>
      </trkpt>
      <trkpt lat="45.66967" lon="6.77176">
        <ele>1348.9</ele>
        <time>2022-06-15T07:28:30Z</time>
      </trkpt>
      <trkpt lat="45.66967" lon="6.77179">
        <ele>1349.2</ele>
        <time>2022-06-15T07:28:31Z</time>
      </trkpt>
      <trkpt lat="45.66966" lon="6.77182">
        <ele>1349.5</ele>
        <time>2022-06-15T07:28:32Z</time>
      </trkpt>
      <trkpt lat="45.66966" lon="6.77185">
        <ele>1349.8</ele>
        <time>2022-06-15T07:28:33Z</time>
      </trkpt>
      <trkpt lat="45.66965" lon="6.77188">
        <ele>1350.1</ele>
        <time>2022-06-15T07:28:34Z</time>
      </trkpt>
      <trkpt lat="45.66965" lon="6.77191">
        <ele>1350.3</ele>
        <time>2022-06-15T07:28:35Z</time>
      </trkpt>
      <trkpt lat="45.66964" lon="6.77194">
        <ele>1350.6</ele>
        <time>2022-06-15T07:28:36Z</time>
      </trkpt>
      <trkpt lat="45.66964" lon="6.77197">
        <ele>1350.7</ele>
        <time>2022-06-15T07:28:37Z</time>
      </trkpt>
      <trkpt lat="45.66963" lon="6.772">
        <ele>1350.8</ele>
        <time>2022-06-15T07:28:38Z</time>
      </trkpt>
      <trkpt lat="45.66963" lon="6.77203">
        <ele>1350.8</ele>
        <time>2022-06-15T07:28:39Z</time>
      </trkpt>
      <trkpt lat="45.66963" lon="6.77206">
        <ele>1350.9</ele>
        <time>2022-06-15T07:28:40Z</time>
      </trkpt>
      <trkpt lat="45.66963" lon="6.77209">
        <ele>1351.2</ele>
        <time>2022-06-15T07:28:41Z</time>
      </trkpt>
      <trkpt lat="45.66963" lon="6.77213">
        <ele>1351.4</ele>
        <time>2022-06-15T07:28:42Z</time>
      </trkpt>
      <trkpt lat="45.66963" lon="6.77216">
        <ele>1351.8</ele>
        <time>2022-06-15T07:28:43Z</time>
      </trkpt>
      <trkpt lat="45.66963" lon="6.77219">
        <ele>1351.7</ele>
        <time>2022-06-15T07:28:44Z</time>
      </trkpt>
      <trkpt lat="45.66963" lon="6.77222">
        <ele>1352</ele>
        <time>2022-06-15T07:28:45Z</time>
      </trkpt>
      <trkpt lat="45.66963" lon="6.77225">
        <ele>1352.2</ele>
        <time>2022-06-15T07:28:46Z</time>
      </trkpt>
      <trkpt lat="45.66963" lon="6.77228">
        <ele>1352.3</ele>
        <time>2022-06-15T07:28:47Z</time>
      </trkpt>
      <trkpt lat="45.66963" lon="6.77231">
        <ele>1352.5</ele>
        <time>2022-06-15T07:28:48Z</time>
      </trkpt>
      <trkpt lat="45.66964" lon="6.77235">
        <ele>1352.7</ele>
        <time>2022-06-15T07:28:49Z</time>
      </trkpt>
      <trkpt lat="45.66963" lon="6.77237">
        <ele>1352.7</ele>
        <time>2022-06-15T07:28:50Z</time>
      </trkpt>
      <trkpt lat="45.66964" lon="6.7724">
        <ele>1352.9</ele>
        <time>2022-06-15T07:28:51Z</time>
      </trkpt>
      <trkpt lat="45.66965" lon="6.77243">
        <ele>1353.3</ele>
        <time>2022-06-15T07:28:52Z</time>
      </trkpt>
      <trkpt lat="45.66965" lon="6.77246">
        <ele>1353.5</ele>
        <time>2022-06-15T07:28:53Z</time>
      </trkpt>
      <trkpt lat="45.66965" lon="6.77249">
        <ele>1353.6</ele>
        <time>2022-06-15T07:28:54Z</time>
      </trkpt>
      <trkpt lat="45.66965" lon="6.77252">
        <ele>1353.6</ele>
        <time>2022-06-15T07:28:55Z</time>
      </trkpt>
      <trkpt lat="45.66965" lon="6.77254">
        <ele>1353.6</ele>
        <time>2022-06-15T07:28:56Z</time>
      </trkpt>
      <trkpt lat="45.66965" lon="6.77257">
        <ele>1353.6</ele>
        <time>2022-06-15T07:28:57Z</time>
      </trkpt>
      <trkpt lat="45.66965" lon="6.7726">
        <ele>1353.5</ele>
        <time>2022-06-15T07:28:58Z</time>
      </trkpt>
      <trkpt lat="45.66965" lon="6.77263">
        <ele>1353.6</ele>
        <time>2022-06-15T07:28:59Z</time>
      </trkpt>
      <trkpt lat="45.66966" lon="6.77267">
        <ele>1353.7</ele>
        <time>2022-06-15T07:29:00Z</time>
      </trkpt>
      <trkpt lat="45.66966" lon="6.7727">
        <ele>1353.6</ele>
        <time>2022-06-15T07:29:01Z</time>
      </trkpt>
      <trkpt lat="45.66966" lon="6.77273">
        <ele>1353.7</ele>
        <time>2022-06-15T07:29:02Z</time>
      </trkpt>
      <trkpt lat="45.66966" lon="6.77276">
        <ele>1353.8</ele>
        <time>2022-06-15T07:29:03Z</time>
      </trkpt>
      <trkpt lat="45.66966" lon="6.77279">
        <ele>1353.7</ele>
        <time>2022-06-15T07:29:04Z</time>
      </trkpt>
      <trkpt lat="45.66966" lon="6.77282">
        <ele>1353.9</ele>
        <time>2022-06-15T07:29:05Z</time>
      </trkpt>
      <trkpt lat="45.66967" lon="6.77285">
        <ele>1354.1</ele>
        <time>2022-06-15T07:29:06Z</time>
      </trkpt>
      <trkpt lat="45.66967" lon="6.77288">
        <ele>1354.5</ele>
        <time>2022-06-15T07:29:07Z</time>
      </trkpt>
      <trkpt lat="45.66968" lon="6.77291">
        <ele>1354.7</ele>
        <time>2022-06-15T07:29:08Z</time>
      </trkpt>
      <trkpt lat="45.66968" lon="6.77294">
        <ele>1355</ele>
        <time>2022-06-15T07:29:09Z</time>
      </trkpt>
      <trkpt lat="45.66968" lon="6.77297">
        <ele>1355.1</ele>
        <time>2022-06-15T07:29:10Z</time>
      </trkpt>
      <trkpt lat="45.66969" lon="6.77301">
        <ele>1355.5</ele>
        <time>2022-06-15T07:29:11Z</time>
      </trkpt>
      <trkpt lat="45.6697" lon="6.77304">
        <ele>1355.8</ele>
        <time>2022-06-15T07:29:12Z</time>
      </trkpt>
      <trkpt lat="45.6697" lon="6.77307">
        <ele>1356.1</ele>
        <time>2022-06-15T07:29:13Z</time>
      </trkpt>
      <trkpt lat="45.66971" lon="6.7731">
        <ele>1356.4</ele>
        <time>2022-06-15T07:29:14Z</time>
      </trkpt>
      <trkpt lat="45.66971" lon="6.77314">
        <ele>1356.7</ele>
        <time>2022-06-15T07:29:15Z</time>
      </trkpt>
      <trkpt lat="45.66972" lon="6.77317">
        <ele>1357.1</ele>
        <time>2022-06-15T07:29:16Z</time>
      </trkpt>
      <trkpt lat="45.66972" lon="6.7732">
        <ele>1357.6</ele>
        <time>2022-06-15T07:29:17Z</time>
      </trkpt>
      <trkpt lat="45.66973" lon="6.77324">
        <ele>1357.8</ele>
        <time>2022-06-15T07:29:18Z</time>
      </trkpt>
      <trkpt lat="45.66973" lon="6.77328">
        <ele>1358.3</ele>
        <time>2022-06-15T07:29:19Z</time>
      </trkpt>
      <trkpt lat="45.66974" lon="6.77332">
        <ele>1358.8</ele>
        <time>2022-06-15T07:29:20Z</time>
      </trkpt>
      <trkpt lat="45.66975" lon="6.77337">
        <ele>1359.1</ele>
        <time>2022-06-15T07:29:21Z</time>
      </trkpt>
      <trkpt lat="45.66976" lon="6.77341">
        <ele>1359</ele>
        <time>2022-06-15T07:29:22Z</time>
      </trkpt>
      <trkpt lat="45.66976" lon="6.77346">
        <ele>1359</ele>
        <time>2022-06-15T07:29:23Z</time>
      </trkpt>
      <trkpt lat="45.66976" lon="6.77351">
        <ele>1358.9</ele>
        <time>2022-06-15T07:29:24Z</time>
      </trkpt>
      <trkpt lat="45.66976" lon="6.77356">
        <ele>1358.8</ele>
        <time>2022-06-15T07:29:25Z</time>
      </trkpt>
      <trkpt lat="45.66976" lon="6.7736">
        <ele>1358.8</ele>
        <time>2022-06-15T07:29:26Z</time>
      </trkpt>
      <trkpt lat="45.66977" lon="6.77364">
        <ele>1359.1</ele>
        <time>2022-06-15T07:29:27Z</time>
      </trkpt>
      <trkpt lat="45.66977" lon="6.77367">
        <ele>1359.4</ele>
        <time>2022-06-15T07:29:28Z</time>
      </trkpt>
      <trkpt lat="45.66977" lon="6.77371">
        <ele>1359.7</ele>
        <time>2022-06-15T07:29:29Z</time>
      </trkpt>
      <trkpt lat="45.66977" lon="6.77374">
        <ele>1360</ele>
        <time>2022-06-15T07:29:30Z</time>
      </trkpt>
      <trkpt lat="45.66977" lon="6.77378">
        <ele>1360.4</ele>
        <time>2022-06-15T07:29:31Z</time>
      </trkpt>
      <trkpt lat="45.66978" lon="6.77381">
        <ele>1360.9</ele>
        <time>2022-06-15T07:29:32Z</time>
      </trkpt>
      <trkpt lat="45.66978" lon="6.77385">
        <ele>1361.2</ele>
        <time>2022-06-15T07:29:33Z</time>
      </trkpt>
      <trkpt lat="45.66978" lon="6.77388">
        <ele>1361.5</ele>
        <time>2022-06-15T07:29:34Z</time>
      </trkpt>
      <trkpt lat="45.66978" lon="6.77392">
        <ele>1361.9</ele>
        <time>2022-06-15T07:29:35Z</time>
      </trkpt>
      <trkpt lat="45.66978" lon="6.77395">
        <ele>1362.2</ele>
        <time>2022-06-15T07:29:36Z</time>
      </trkpt>
      <trkpt lat="45.66978" lon="6.77399">
        <ele>1362.4</ele>
        <time>2022-06-15T07:29:37Z</time>
      </trkpt>
      <trkpt lat="45.66978" lon="6.77402">
        <ele>1362.4</ele>
        <time>2022-06-15T07:29:38Z</time>
      </trkpt>
      <trkpt lat="45.66978" lon="6.77405">
        <ele>1362.7</ele>
        <time>2022-06-15T07:29:39Z</time>
      </trkpt>
      <trkpt lat="45.66977" lon="6.77409">
        <ele>1362.7</ele>
        <time>2022-06-15T07:29:40Z</time>
      </trkpt>
      <trkpt lat="45.66977" lon="6.77412">
        <ele>1362.7</ele>
        <time>2022-06-15T07:29:41Z</time>
      </trkpt>
      <trkpt lat="45.66976" lon="6.77415">
        <ele>1362.6</ele>
        <time>2022-06-15T07:29:42Z</time>
      </trkpt>
      <trkpt lat="45.66975" lon="6.77418">
        <ele>1362.4</ele>
        <time>2022-06-15T07:29:43Z</time>
      </trkpt>
      <trkpt lat="45.66974" lon="6.77421">
        <ele>1362.3</ele>
        <time>2022-06-15T07:29:44Z</time>
      </trkpt>
      <trkpt lat="45.66974" lon="6.77424">
        <ele>1362.2</ele>
        <time>2022-06-15T07:29:45Z</time>
      </trkpt>
      <trkpt lat="45.66973" lon="6.77427">
        <ele>1362.2</ele>
        <time>2022-06-15T07:29:46Z</time>
      </trkpt>
      <trkpt lat="45.66973" lon="6.7743">
        <ele>1362.3</ele>
        <time>2022-06-15T07:29:47Z</time>
      </trkpt>
      <trkpt lat="45.66973" lon="6.77434">
        <ele>1362.3</ele>
        <time>2022-06-15T07:29:48Z</time>
      </trkpt>
      <trkpt lat="45.66972" lon="6.77437">
        <ele>1362.5</ele>
        <time>2022-06-15T07:29:49Z</time>
      </trkpt>
      <trkpt lat="45.66973" lon="6.7744">
        <ele>1362.8</ele>
        <time>2022-06-15T07:29:50Z</time>
      </trkpt>
      <trkpt lat="45.66974" lon="6.77444">
        <ele>1363.5</ele>
        <time>2022-06-15T07:29:51Z</time>
      </trkpt>
      <trkpt lat="45.66975" lon="6.77446">
        <ele>1363.9</ele>
        <time>2022-06-15T07:29:52Z</time>
      </trkpt>
      <trkpt lat="45.66977" lon="6.77447">
        <ele>1364.5</ele>
        <time>2022-06-15T07:29:53Z</time>
      </trkpt>
      <trkpt lat="45.6698" lon="6.77448">
        <ele>1365.4</ele>
        <time>2022-06-15T07:29:54Z</time>
      </trkpt>
      <trkpt lat="45.66982" lon="6.77448">
        <ele>1366.6</ele>
        <time>2022-06-15T07:29:55Z</time>
      </trkpt>
      <trkpt lat="45.66984" lon="6.77447">
        <ele>1367.8</ele>
        <time>2022-06-15T07:29:56Z</time>
      </trkpt>
      <trkpt lat="45.66985" lon="6.77445">
        <ele>1368.9</ele>
        <time>2022-06-15T07:29:57Z</time>
      </trkpt>
      <trkpt lat="45.66986" lon="6.77442">
        <ele>1369.1</ele>
        <time>2022-06-15T07:29:58Z</time>
      </trkpt>
      <trkpt lat="45.66986" lon="6.77438">
        <ele>1369</ele>
        <time>2022-06-15T07:29:59Z</time>
      </trkpt>
      <trkpt lat="45.66986" lon="6.77435">
        <ele>1368.9</ele>
        <time>2022-06-15T07:30:00Z</time>
      </trkpt>
      <trkpt lat="45.66986" lon="6.77431">
        <ele>1368.6</ele>
        <time>2022-06-15T07:30:01Z</time>
      </trkpt>
      <trkpt lat="45.66986" lon="6.77427">
        <ele>1368.4</ele>
        <time>2022-06-15T07:30:02Z</time>
      </trkpt>
      <trkpt lat="45.66987" lon="6.77424">
        <ele>1368.2</ele>
        <time>2022-06-15T07:30:03Z</time>
      </trkpt>
      <trkpt lat="45.66987" lon="6.7742">
        <ele>1368.1</ele>
        <time>2022-06-15T07:30:04Z</time>
      </trkpt>
      <trkpt lat="45.66987" lon="6.77417">
        <ele>1368.1</ele>
        <time>2022-06-15T07:30:05Z</time>
      </trkpt>
      <trkpt lat="45.66988" lon="6.77414">
        <ele>1368.1</ele>
        <time>2022-06-15T07:30:06Z</time>
      </trkpt>
      <trkpt lat="45.66989" lon="6.77411">
        <ele>1368.2</ele>
        <time>2022-06-15T07:30:07Z</time>
      </trkpt>
      <trkpt lat="45.6699" lon="6.77408">
        <ele>1368.4</ele>
        <time>2022-06-15T07:30:08Z</time>
      </trkpt>
      <trkpt lat="45.66991" lon="6.77405">
        <ele>1368.7</ele>
        <time>2022-06-15T07:30:09Z</time>
      </trkpt>
      <trkpt lat="45.66992" lon="6.77402">
        <ele>1369.1</ele>
        <time>2022-06-15T07:30:10Z</time>
      </trkpt>
      <trkpt lat="45.66993" lon="6.77399">
        <ele>1369.4</ele>
        <time>2022-06-15T07:30:11Z</time>
      </trkpt>
      <trkpt lat="45.66994" lon="6.77397">
        <ele>1369.6</ele>
        <time>2022-06-15T07:30:12Z</time>
      </trkpt>
      <trkpt lat="45.66995" lon="6.77394">
        <ele>1369.8</ele>
        <time>2022-06-15T07:30:13Z</time>
      </trkpt>
      <trkpt lat="45.66996" lon="6.77391">
        <ele>1370.1</ele>
        <time>2022-06-15T07:30:14Z</time>
      </trkpt>
      <trkpt lat="45.66997" lon="6.77388">
        <ele>1370.3</ele>
        <time>2022-06-15T07:30:15Z</time>
      </trkpt>
      <trkpt lat="45.66998" lon="6.77385">
        <ele>1370.5</ele>
        <time>2022-06-15T07:30:16Z</time>
      </trkpt>
      <trkpt lat="45.66999" lon="6.77382">
        <ele>1370.6</ele>
        <time>2022-06-15T07:30:17Z</time>
      </trkpt>
      <trkpt lat="45.66999" lon="6.7738">
        <ele>1370.7</ele>
        <time>2022-06-15T07:30:18Z</time>
      </trkpt>
      <trkpt lat="45.67" lon="6.77377">
        <ele>1370.8</ele>
        <time>2022-06-15T07:30:19Z</time>
      </trkpt>
      <trkpt lat="45.67002" lon="6.77374">
        <ele>1371.1</ele>
        <time>2022-06-15T07:30:20Z</time>
      </trkpt>
      <trkpt lat="45.67003" lon="6.77371">
        <ele>1371.3</ele>
        <time>2022-06-15T07:30:21Z</time>
      </trkpt>
      <trkpt lat="45.67004" lon="6.77369">
        <ele>1371.6</ele>
        <time>2022-06-15T07:30:22Z</time>
      </trkpt>
      <trkpt lat="45.67005" lon="6.77366">
        <ele>1371.8</ele>
        <time>2022-06-15T07:30:23Z</time>
      </trkpt>
      <trkpt lat="45.67006" lon="6.77363">
        <ele>1371.7</ele>
        <time>2022-06-15T07:30:24Z</time>
      </trkpt>
      <trkpt lat="45.67006" lon="6.7736">
        <ele>1371.9</ele>
        <time>2022-06-15T07:30:25Z</time>
      </trkpt>
      <trkpt lat="45.67007" lon="6.77357">
        <ele>1372.2</ele>
        <time>2022-06-15T07:30:26Z</time>
      </trkpt>
      <trkpt lat="45.67007" lon="6.77354">
        <ele>1372.4</ele>
        <time>2022-06-15T07:30:27Z</time>
      </trkpt>
      <trkpt lat="45.67008" lon="6.77351">
        <ele>1372.7</ele>
        <time>2022-06-15T07:30:28Z</time>
      </trkpt>
      <trkpt lat="45.67009" lon="6.77348">
        <ele>1373</ele>
        <time>2022-06-15T07:30:29Z</time>
      </trkpt>
      <trkpt lat="45.67009" lon="6.77345">
        <ele>1373.3</ele>
        <time>2022-06-15T07:30:30Z</time>
      </trkpt>
      <trkpt lat="45.6701" lon="6.77342">
        <ele>1373.7</ele>
        <time>2022-06-15T07:30:31Z</time>
      </trkpt>
      <trkpt lat="45.67011" lon="6.77339">
        <ele>1374</ele>
        <time>2022-06-15T07:30:32Z</time>
      </trkpt>
      <trkpt lat="45.67011" lon="6.77336">
        <ele>1374.1</ele>
        <time>2022-06-15T07:30:33Z</time>
      </trkpt>
      <trkpt lat="45.67011" lon="6.77333">
        <ele>1374</ele>
        <time>2022-06-15T07:30:34Z</time>
      </trkpt>
      <trkpt lat="45.67011" lon="6.7733">
        <ele>1374.2</ele>
        <time>2022-06-15T07:30:35Z</time>
      </trkpt>
      <trkpt lat="45.67011" lon="6.77328">
        <ele>1374.4</ele>
        <time>2022-06-15T07:30:36Z</time>
      </trkpt>
      <trkpt lat="45.67011" lon="6.77324">
        <ele>1374.7</ele>
        <time>2022-06-15T07:30:37Z</time>
      </trkpt>
      <trkpt lat="45.6701" lon="6.77321">
        <ele>1374.9</ele>
        <time>2022-06-15T07:30:38Z</time>
      </trkpt>
      <trkpt lat="45.6701" lon="6.77318">
        <ele>1375</ele>
        <time>2022-06-15T07:30:39Z</time>
      </trkpt>
      <trkpt lat="45.6701" lon="6.77315">
        <ele>1375.4</ele>
        <time>2022-06-15T07:30:40Z</time>
      </trkpt>
      <trkpt lat="45.67011" lon="6.77312">
        <ele>1375.7</ele>
        <time>2022-06-15T07:30:41Z</time>
      </trkpt>
      <trkpt lat="45.67011" lon="6.77309">
        <ele>1376</ele>
        <time>2022-06-15T07:30:42Z</time>
      </trkpt>
      <trkpt lat="45.67011" lon="6.77306">
        <ele>1376.4</ele>
        <time>2022-06-15T07:30:43Z</time>
      </trkpt>
      <trkpt lat="45.67011" lon="6.77303">
        <ele>1376.4</ele>
        <time>2022-06-15T07:30:44Z</time>
      </trkpt>
      <trkpt lat="45.67011" lon="6.773">
        <ele>1376.5</ele>
        <time>2022-06-15T07:30:45Z</time>
      </trkpt>
      <trkpt lat="45.67012" lon="6.77297">
        <ele>1376.8</ele>
        <time>2022-06-15T07:30:46Z</time>
      </trkpt>
      <trkpt lat="45.67012" lon="6.77294">
        <ele>1376.8</ele>
        <time>2022-06-15T07:30:47Z</time>
      </trkpt>
      <trkpt lat="45.67012" lon="6.77291">
        <ele>1376.8</ele>
        <time>2022-06-15T07:30:48Z</time>
      </trkpt>
      <trkpt lat="45.67012" lon="6.77289">
        <ele>1376.8</ele>
        <time>2022-06-15T07:30:49Z</time>
      </trkpt>
      <trkpt lat="45.67012" lon="6.77286">
        <ele>1376.8</ele>
        <time>2022-06-15T07:30:50Z</time>
      </trkpt>
      <trkpt lat="45.67011" lon="6.77283">
        <ele>1376.5</ele>
        <time>2022-06-15T07:30:51Z</time>
      </trkpt>
      <trkpt lat="45.67011" lon="6.77279">
        <ele>1376.3</ele>
        <time>2022-06-15T07:30:52Z</time>
      </trkpt>
      <trkpt lat="45.67011" lon="6.77277">
        <ele>1376.5</ele>
        <time>2022-06-15T07:30:53Z</time>
      </trkpt>
      <trkpt lat="45.67011" lon="6.77274">
        <ele>1376.7</ele>
        <time>2022-06-15T07:30:54Z</time>
      </trkpt>
      <trkpt lat="45.67011" lon="6.77271">
        <ele>1376.8</ele>
        <time>2022-06-15T07:30:55Z</time>
      </trkpt>
      <trkpt lat="45.67011" lon="6.77268">
        <ele>1376.9</ele>
        <time>2022-06-15T07:30:56Z</time>
      </trkpt>
      <trkpt lat="45.67011" lon="6.77265">
        <ele>1376.9</ele>
        <time>2022-06-15T07:30:57Z</time>
      </trkpt>
      <trkpt lat="45.67011" lon="6.77262">
        <ele>1377</ele>
        <time>2022-06-15T07:30:58Z</time>
      </trkpt>
      <trkpt lat="45.67011" lon="6.77259">
        <ele>1377.2</ele>
        <time>2022-06-15T07:30:59Z</time>
      </trkpt>
      <trkpt lat="45.67011" lon="6.77256">
        <ele>1377.5</ele>
        <time>2022-06-15T07:31:00Z</time>
      </trkpt>
      <trkpt lat="45.67011" lon="6.77254">
        <ele>1377.6</ele>
        <time>2022-06-15T07:31:01Z</time>
      </trkpt>
      <trkpt lat="45.67011" lon="6.77251">
        <ele>1377.8</ele>
        <time>2022-06-15T07:31:02Z</time>
      </trkpt>
      <trkpt lat="45.67011" lon="6.77249">
        <ele>1378.1</ele>
        <time>2022-06-15T07:31:03Z</time>
      </trkpt>
      <trkpt lat="45.67011" lon="6.77245">
        <ele>1378.4</ele>
        <time>2022-06-15T07:31:04Z</time>
      </trkpt>
      <trkpt lat="45.67011" lon="6.77243">
        <ele>1378.6</ele>
        <time>2022-06-15T07:31:05Z</time>
      </trkpt>
      <trkpt lat="45.67011" lon="6.77239">
        <ele>1379</ele>
        <time>2022-06-15T07:31:06Z</time>
      </trkpt>
      <trkpt lat="45.67011" lon="6.77236">
        <ele>1379.2</ele>
        <time>2022-06-15T07:31:07Z</time>
      </trkpt>
      <trkpt lat="45.6701" lon="6.77233">
        <ele>1379.3</ele>
        <time>2022-06-15T07:31:08Z</time>
      </trkpt>
      <trkpt lat="45.67009" lon="6.7723">
        <ele>1379.4</ele>
        <time>2022-06-15T07:31:09Z</time>
      </trkpt>
      <trkpt lat="45.67009" lon="6.77227">
        <ele>1379.8</ele>
        <time>2022-06-15T07:31:10Z</time>
      </trkpt>
      <trkpt lat="45.6701" lon="6.77223">
        <ele>1380.3</ele>
        <time>2022-06-15T07:31:11Z</time>
      </trkpt>
      <trkpt lat="45.6701" lon="6.7722">
        <ele>1380.5</ele>
        <time>2022-06-15T07:31:12Z</time>
      </trkpt>
      <trkpt lat="45.6701" lon="6.77217">
        <ele>1380.7</ele>
        <time>2022-06-15T07:31:13Z</time>
      </trkpt>
      <trkpt lat="45.6701" lon="6.77214">
        <ele>1380.7</ele>
        <time>2022-06-15T07:31:14Z</time>
      </trkpt>
      <trkpt lat="45.6701" lon="6.77211">
        <ele>1380.7</ele>
        <time>2022-06-15T07:31:15Z</time>
      </trkpt>
      <trkpt lat="45.6701" lon="6.77208">
        <ele>1380.7</ele>
        <time>2022-06-15T07:31:16Z</time>
      </trkpt>
      <trkpt lat="45.67009" lon="6.77204">
        <ele>1380.6</ele>
        <time>2022-06-15T07:31:17Z</time>
      </trkpt>
      <trkpt lat="45.67009" lon="6.77201">
        <ele>1380.6</ele>
        <time>2022-06-15T07:31:18Z</time>
      </trkpt>
      <trkpt lat="45.6701" lon="6.77198">
        <ele>1381.1</ele>
        <time>2022-06-15T07:31:19Z</time>
      </trkpt>
      <trkpt lat="45.67011" lon="6.77195">
        <ele>1381.7</ele>
        <time>2022-06-15T07:31:20Z</time>
      </trkpt>
      <trkpt lat="45.67012" lon="6.77192">
        <ele>1382.1</ele>
        <time>2022-06-15T07:31:21Z</time>
      </trkpt>
      <trkpt lat="45.67012" lon="6.77189">
        <ele>1382.4</ele>
        <time>2022-06-15T07:31:22Z</time>
      </trkpt>
      <trkpt lat="45.67012" lon="6.77186">
        <ele>1382.7</ele>
        <time>2022-06-15T07:31:23Z</time>
      </trkpt>
      <trkpt lat="45.67013" lon="6.77183">
        <ele>1383</ele>
        <time>2022-06-15T07:31:24Z</time>
      </trkpt>
      <trkpt lat="45.67013" lon="6.7718">
        <ele>1383.5</ele>
        <time>2022-06-15T07:31:25Z</time>
      </trkpt>
      <trkpt lat="45.67014" lon="6.77178">
        <ele>1383.9</ele>
        <time>2022-06-15T07:31:26Z</time>
      </trkpt>
      <trkpt lat="45.67015" lon="6.77175">
        <ele>1384.6</ele>
        <time>2022-06-15T07:31:27Z</time>
      </trkpt>
      <trkpt lat="45.67015" lon="6.77173">
        <ele>1384.9</ele>
        <time>2022-06-15T07:31:28Z</time>
      </trkpt>
      <trkpt lat="45.67016" lon="6.7717">
        <ele>1385.5</ele>
        <time>2022-06-15T07:31:29Z</time>
      </trkpt>
      <trkpt lat="45.67016" lon="6.77168">
        <ele>1386</ele>
        <time>2022-06-15T07:31:30Z</time>
      </trkpt>
      <trkpt lat="45.67017" lon="6.77164">
        <ele>1386.2</ele>
        <time>2022-06-15T07:31:31Z</time>
      </trkpt>
      <trkpt lat="45.67016" lon="6.77161">
        <ele>1385.9</ele>
        <time>2022-06-15T07:31:32Z</time>
      </trkpt>
      <trkpt lat="45.67017" lon="6.77158">
        <ele>1386</ele>
        <time>2022-06-15T07:31:33Z</time>
      </trkpt>
      <trkpt lat="45.67018" lon="6.77157">
        <ele>1386.7</ele>
        <time>2022-06-15T07:31:34Z</time>
      </trkpt>
      <trkpt lat="45.67019" lon="6.77154">
        <ele>1387.4</ele>
        <time>2022-06-15T07:31:35Z</time>
      </trkpt>
      <trkpt lat="45.67019" lon="6.77151">
        <ele>1387.7</ele>
        <time>2022-06-15T07:31:36Z</time>
      </trkpt>
      <trkpt lat="45.6702" lon="6.77148">
        <ele>1388.4</ele>
        <time>2022-06-15T07:31:37Z</time>
      </trkpt>
      <trkpt lat="45.67021" lon="6.77146">
        <ele>1389</ele>
        <time>2022-06-15T07:31:38Z</time>
      </trkpt>
      <trkpt lat="45.67022" lon="6.77143">
        <ele>1389.6</ele>
        <time>2022-06-15T07:31:39Z</time>
      </trkpt>
      <trkpt lat="45.67022" lon="6.7714">
        <ele>1390</ele>
        <time>2022-06-15T07:31:40Z</time>
      </trkpt>
      <trkpt lat="45.67023" lon="6.77137">
        <ele>1390.1</ele>
        <time>2022-06-15T07:31:41Z</time>
      </trkpt>
      <trkpt lat="45.67023" lon="6.77134">
        <ele>1390</ele>
        <time>2022-06-15T07:31:42Z</time>
      </trkpt>
      <trkpt lat="45.67024" lon="6.77131">
        <ele>1389.9</ele>
        <time>2022-06-15T07:31:43Z</time>
      </trkpt>
      <trkpt lat="45.67024" lon="6.77128">
        <ele>1389.5</ele>
        <time>2022-06-15T07:31:44Z</time>
      </trkpt>
      <trkpt lat="45.67024" lon="6.77125">
        <ele>1389.5</ele>
        <time>2022-06-15T07:31:45Z</time>
      </trkpt>
      <trkpt lat="45.67025" lon="6.77122">
        <ele>1389.6</ele>
        <time>2022-06-15T07:31:46Z</time>
      </trkpt>
      <trkpt lat="45.67026" lon="6.7712">
        <ele>1390</ele>
        <time>2022-06-15T07:31:47Z</time>
      </trkpt>
      <trkpt lat="45.67028" lon="6.77117">
        <ele>1390.8</ele>
        <time>2022-06-15T07:31:48Z</time>
      </trkpt>
      <trkpt lat="45.67029" lon="6.77115">
        <ele>1391.3</ele>
        <time>2022-06-15T07:31:49Z</time>
      </trkpt>
      <trkpt lat="45.67031" lon="6.77112">
        <ele>1392</ele>
        <time>2022-06-15T07:31:50Z</time>
      </trkpt>
      <trkpt lat="45.67032" lon="6.7711">
        <ele>1392.4</ele>
        <time>2022-06-15T07:31:51Z</time>
      </trkpt>
      <trkpt lat="45.67033" lon="6.77108">
        <ele>1392.9</ele>
        <time>2022-06-15T07:31:52Z</time>
      </trkpt>
      <trkpt lat="45.67035" lon="6.77106">
        <ele>1393.6</ele>
        <time>2022-06-15T07:31:53Z</time>
      </trkpt>
      <trkpt lat="45.67036" lon="6.77104">
        <ele>1394.2</ele>
        <time>2022-06-15T07:31:54Z</time>
      </trkpt>
      <trkpt lat="45.67037" lon="6.77101">
        <ele>1394.3</ele>
        <time>2022-06-15T07:31:55Z</time>
      </trkpt>
      <trkpt lat="45.67037" lon="6.77098">
        <ele>1394</ele>
        <time>2022-06-15T07:31:56Z</time>
      </trkpt>
      <trkpt lat="45.67037" lon="6.77095">
        <ele>1393.7</ele>
        <time>2022-06-15T07:31:57Z</time>
      </trkpt>
      <trkpt lat="45.67037" lon="6.77092">
        <ele>1392.7</ele>
        <time>2022-06-15T07:31:58Z</time>
      </trkpt>
      <trkpt lat="45.67036" lon="6.77088">
        <ele>1391.5</ele>
        <time>2022-06-15T07:31:59Z</time>
      </trkpt>
      <trkpt lat="45.67036" lon="6.77085">
        <ele>1390.9</ele>
        <time>2022-06-15T07:32:00Z</time>
      </trkpt>
      <trkpt lat="45.67035" lon="6.77081">
        <ele>1391.4</ele>
        <time>2022-06-15T07:32:01Z</time>
      </trkpt>
      <trkpt lat="45.67034" lon="6.77078">
        <ele>1392.4</ele>
        <time>2022-06-15T07:32:02Z</time>
      </trkpt>
      <trkpt lat="45.67034" lon="6.77075">
        <ele>1393.3</ele>
        <time>2022-06-15T07:32:03Z</time>
      </trkpt>
      <trkpt lat="45.67032" lon="6.77073">
        <ele>1393.4</ele>
        <time>2022-06-15T07:32:04Z</time>
      </trkpt>
      <trkpt lat="45.6703" lon="6.7707">
        <ele>1393.3</ele>
        <time>2022-06-15T07:32:05Z</time>
      </trkpt>
      <trkpt lat="45.67029" lon="6.77068">
        <ele>1393.4</ele>
        <time>2022-06-15T07:32:06Z</time>
      </trkpt>
      <trkpt lat="45.67027" lon="6.77065">
        <ele>1393.6</ele>
        <time>2022-06-15T07:32:07Z</time>
      </trkpt>
      <trkpt lat="45.67025" lon="6.77062">
        <ele>1393.7</ele>
        <time>2022-06-15T07:32:08Z</time>
      </trkpt>
      <trkpt lat="45.67024" lon="6.7706">
        <ele>1394</ele>
        <time>2022-06-15T07:32:09Z</time>
      </trkpt>
      <trkpt lat="45.67022" lon="6.77057">
        <ele>1394.4</ele>
        <time>2022-06-15T07:32:10Z</time>
      </trkpt>
      <trkpt lat="45.67021" lon="6.77054">
        <ele>1394.3</ele>
        <time>2022-06-15T07:32:11Z</time>
      </trkpt>
      <trkpt lat="45.6702" lon="6.77051">
        <ele>1393.7</ele>
        <time>2022-06-15T07:32:12Z</time>
      </trkpt>
      <trkpt lat="45.67019" lon="6.77048">
        <ele>1393.5</ele>
        <time>2022-06-15T07:32:13Z</time>
      </trkpt>
      <trkpt lat="45.67019" lon="6.77044">
        <ele>1393.4</ele>
        <time>2022-06-15T07:32:14Z</time>
      </trkpt>
      <trkpt lat="45.67019" lon="6.77041">
        <ele>1393.8</ele>
        <time>2022-06-15T07:32:15Z</time>
      </trkpt>
      <trkpt lat="45.6702" lon="6.77037">
        <ele>1394.1</ele>
        <time>2022-06-15T07:32:16Z</time>
      </trkpt>
      <trkpt lat="45.6702" lon="6.77034">
        <ele>1394.6</ele>
        <time>2022-06-15T07:32:17Z</time>
      </trkpt>
      <trkpt lat="45.67021" lon="6.7703">
        <ele>1395.2</ele>
        <time>2022-06-15T07:32:18Z</time>
      </trkpt>
      <trkpt lat="45.67021" lon="6.77027">
        <ele>1395.7</ele>
        <time>2022-06-15T07:32:19Z</time>
      </trkpt>
      <trkpt lat="45.67022" lon="6.77024">
        <ele>1395.2</ele>
        <time>2022-06-15T07:32:20Z</time>
      </trkpt>
      <trkpt lat="45.67023" lon="6.77021">
        <ele>1395.3</ele>
        <time>2022-06-15T07:32:21Z</time>
      </trkpt>
      <trkpt lat="45.67024" lon="6.77018">
        <ele>1395.3</ele>
        <time>2022-06-15T07:32:22Z</time>
      </trkpt>
      <trkpt lat="45.67025" lon="6.77015">
        <ele>1395.5</ele>
        <time>2022-06-15T07:32:23Z</time>
      </trkpt>
      <trkpt lat="45.67027" lon="6.77012">
        <ele>1395.7</ele>
        <time>2022-06-15T07:32:24Z</time>
      </trkpt>
      <trkpt lat="45.67028" lon="6.7701">
        <ele>1396.1</ele>
        <time>2022-06-15T07:32:25Z</time>
      </trkpt>
      <trkpt lat="45.6703" lon="6.77008">
        <ele>1397</ele>
        <time>2022-06-15T07:32:26Z</time>
      </trkpt>
      <trkpt lat="45.67032" lon="6.77006">
        <ele>1397.7</ele>
        <time>2022-06-15T07:32:27Z</time>
      </trkpt>
      <trkpt lat="45.67033" lon="6.77003">
        <ele>1398.3</ele>
        <time>2022-06-15T07:32:28Z</time>
      </trkpt>
      <trkpt lat="45.67035" lon="6.77001">
        <ele>1399.4</ele>
        <time>2022-06-15T07:32:29Z</time>
      </trkpt>
      <trkpt lat="45.67036" lon="6.76999">
        <ele>1399.9</ele>
        <time>2022-06-15T07:32:30Z</time>
      </trkpt>
      <trkpt lat="45.67038" lon="6.76996">
        <ele>1399.9</ele>
        <time>2022-06-15T07:32:31Z</time>
      </trkpt>
      <trkpt lat="45.67039" lon="6.76993">
        <ele>1400</ele>
        <time>2022-06-15T07:32:32Z</time>
      </trkpt>
      <trkpt lat="45.67041" lon="6.76991">
        <ele>1400.6</ele>
        <time>2022-06-15T07:32:33Z</time>
      </trkpt>
      <trkpt lat="45.67042" lon="6.76989">
        <ele>1400.8</ele>
        <time>2022-06-15T07:32:34Z</time>
      </trkpt>
      <trkpt lat="45.67044" lon="6.76986">
        <ele>1401.1</ele>
        <time>2022-06-15T07:32:35Z</time>
      </trkpt>
      <trkpt lat="45.67046" lon="6.76984">
        <ele>1401.4</ele>
        <time>2022-06-15T07:32:36Z</time>
      </trkpt>
      <trkpt lat="45.67047" lon="6.76982">
        <ele>1401.3</ele>
        <time>2022-06-15T07:32:37Z</time>
      </trkpt>
      <trkpt lat="45.67048" lon="6.7698">
        <ele>1401.4</ele>
        <time>2022-06-15T07:32:38Z</time>
      </trkpt>
      <trkpt lat="45.6705" lon="6.76977">
        <ele>1401</ele>
        <time>2022-06-15T07:32:39Z</time>
      </trkpt>
      <trkpt lat="45.67051" lon="6.76974">
        <ele>1400.9</ele>
        <time>2022-06-15T07:32:40Z</time>
      </trkpt>
      <trkpt lat="45.67053" lon="6.76972">
        <ele>1400.8</ele>
        <time>2022-06-15T07:32:41Z</time>
      </trkpt>
      <trkpt lat="45.67054" lon="6.7697">
        <ele>1400.8</ele>
        <time>2022-06-15T07:32:42Z</time>
      </trkpt>
      <trkpt lat="45.67055" lon="6.76967">
        <ele>1400.7</ele>
        <time>2022-06-15T07:32:43Z</time>
      </trkpt>
      <trkpt lat="45.67057" lon="6.76965">
        <ele>1401.3</ele>
        <time>2022-06-15T07:32:44Z</time>
      </trkpt>
      <trkpt lat="45.67058" lon="6.76963">
        <ele>1401.8</ele>
        <time>2022-06-15T07:32:45Z</time>
      </trkpt>
      <trkpt lat="45.67059" lon="6.7696">
        <ele>1402.3</ele>
        <time>2022-06-15T07:32:46Z</time>
      </trkpt>
      <trkpt lat="45.67061" lon="6.76958">
        <ele>1402.7</ele>
        <time>2022-06-15T07:32:47Z</time>
      </trkpt>
      <trkpt lat="45.67063" lon="6.76956">
        <ele>1403.3</ele>
        <time>2022-06-15T07:32:48Z</time>
      </trkpt>
      <trkpt lat="45.67064" lon="6.76953">
        <ele>1403.2</ele>
        <time>2022-06-15T07:32:49Z</time>
      </trkpt>
      <trkpt lat="45.67065" lon="6.76951">
        <ele>1403.6</ele>
        <time>2022-06-15T07:32:50Z</time>
      </trkpt>
      <trkpt lat="45.67066" lon="6.76949">
        <ele>1403.8</ele>
        <time>2022-06-15T07:32:51Z</time>
      </trkpt>
      <trkpt lat="45.67068" lon="6.76947">
        <ele>1403.8</ele>
        <time>2022-06-15T07:32:52Z</time>
      </trkpt>
      <trkpt lat="45.67069" lon="6.76944">
        <ele>1403.7</ele>
        <time>2022-06-15T07:32:53Z</time>
      </trkpt>
      <trkpt lat="45.6707" lon="6.76942">
        <ele>1403.8</ele>
        <time>2022-06-15T07:32:54Z</time>
      </trkpt>
      <trkpt lat="45.67071" lon="6.76939">
        <ele>1404.1</ele>
        <time>2022-06-15T07:32:55Z</time>
      </trkpt>
      <trkpt lat="45.67073" lon="6.76937">
        <ele>1404.3</ele>
        <time>2022-06-15T07:32:56Z</time>
      </trkpt>
      <trkpt lat="45.67074" lon="6.76935">
        <ele>1404.9</ele>
        <time>2022-06-15T07:32:57Z</time>
      </trkpt>
      <trkpt lat="45.67075" lon="6.76932">
        <ele>1404.7</ele>
        <time>2022-06-15T07:32:58Z</time>
      </trkpt>
      <trkpt lat="45.67077" lon="6.7693">
        <ele>1404.8</ele>
        <time>2022-06-15T07:32:59Z</time>
      </trkpt>
      <trkpt lat="45.67078" lon="6.76928">
        <ele>1405</ele>
        <time>2022-06-15T07:33:00Z</time>
      </trkpt>
      <trkpt lat="45.67079" lon="6.76925">
        <ele>1405</ele>
        <time>2022-06-15T07:33:01Z</time>
      </trkpt>
      <trkpt lat="45.6708" lon="6.76923">
        <ele>1404.7</ele>
        <time>2022-06-15T07:33:02Z</time>
      </trkpt>
      <trkpt lat="45.6708" lon="6.76921">
        <ele>1404.1</ele>
        <time>2022-06-15T07:33:03Z</time>
      </trkpt>
      <trkpt lat="45.67081" lon="6.76918">
        <ele>1403.4</ele>
        <time>2022-06-15T07:33:04Z</time>
      </trkpt>
      <trkpt lat="45.67081" lon="6.76915">
        <ele>1403.1</ele>
        <time>2022-06-15T07:33:05Z</time>
      </trkpt>
      <trkpt lat="45.67082" lon="6.76913">
        <ele>1403.7</ele>
        <time>2022-06-15T07:33:06Z</time>
      </trkpt>
      <trkpt lat="45.67083" lon="6.7691">
        <ele>1404</ele>
        <time>2022-06-15T07:33:07Z</time>
      </trkpt>
      <trkpt lat="45.67084" lon="6.76907">
        <ele>1404.4</ele>
        <time>2022-06-15T07:33:08Z</time>
      </trkpt>
      <trkpt lat="45.67085" lon="6.76905">
        <ele>1405</ele>
        <time>2022-06-15T07:33:09Z</time>
      </trkpt>
      <trkpt lat="45.67086" lon="6.76902">
        <ele>1405.5</ele>
        <time>2022-06-15T07:33:10Z</time>
      </trkpt>
      <trkpt lat="45.67086" lon="6.76899">
        <ele>1405.8</ele>
        <time>2022-06-15T07:33:11Z</time>
      </trkpt>
      <trkpt lat="45.67087" lon="6.76896">
        <ele>1406.3</ele>
        <time>2022-06-15T07:33:12Z</time>
      </trkpt>
      <trkpt lat="45.67088" lon="6.76893">
        <ele>1406.3</ele>
        <time>2022-06-15T07:33:13Z</time>
      </trkpt>
      <trkpt lat="45.67088" lon="6.76891">
        <ele>1406.2</ele>
        <time>2022-06-15T07:33:14Z</time>
      </trkpt>
      <trkpt lat="45.67089" lon="6.76888">
        <ele>1406.5</ele>
        <time>2022-06-15T07:33:15Z</time>
      </trkpt>
      <trkpt lat="45.6709" lon="6.76885">
        <ele>1407.1</ele>
        <time>2022-06-15T07:33:16Z</time>
      </trkpt>
      <trkpt lat="45.6709" lon="6.76882">
        <ele>1407</ele>
        <time>2022-06-15T07:33:17Z</time>
      </trkpt>
      <trkpt lat="45.6709" lon="6.76879">
        <ele>1406.9</ele>
        <time>2022-06-15T07:33:18Z</time>
      </trkpt>
      <trkpt lat="45.6709" lon="6.76876">
        <ele>1406.7</ele>
        <time>2022-06-15T07:33:19Z</time>
      </trkpt>
      <trkpt lat="45.6709" lon="6.76873">
        <ele>1406.7</ele>
        <time>2022-06-15T07:33:20Z</time>
      </trkpt>
      <trkpt lat="45.6709" lon="6.7687">
        <ele>1406.7</ele>
        <time>2022-06-15T07:33:21Z</time>
      </trkpt>
      <trkpt lat="45.6709" lon="6.76867">
        <ele>1406.3</ele>
        <time>2022-06-15T07:33:22Z</time>
      </trkpt>
      <trkpt lat="45.67091" lon="6.76865">
        <ele>1407</ele>
        <time>2022-06-15T07:33:23Z</time>
      </trkpt>
      <trkpt lat="45.67092" lon="6.76863">
        <ele>1407.5</ele>
        <time>2022-06-15T07:33:24Z</time>
      </trkpt>
      <trkpt lat="45.67092" lon="6.7686">
        <ele>1407.6</ele>
        <time>2022-06-15T07:33:25Z</time>
      </trkpt>
      <trkpt lat="45.67093" lon="6.76857">
        <ele>1407.7</ele>
        <time>2022-06-15T07:33:26Z</time>
      </trkpt>
      <trkpt lat="45.67093" lon="6.76854">
        <ele>1407.8</ele>
        <time>2022-06-15T07:33:27Z</time>
      </trkpt>
      <trkpt lat="45.67093" lon="6.76851">
        <ele>1407.7</ele>
        <time>2022-06-15T07:33:28Z</time>
      </trkpt>
      <trkpt lat="45.67093" lon="6.76848">
        <ele>1407.8</ele>
        <time>2022-06-15T07:33:29Z</time>
      </trkpt>
      <trkpt lat="45.67093" lon="6.76845">
        <ele>1407.8</ele>
        <time>2022-06-15T07:33:30Z</time>
      </trkpt>
      <trkpt lat="45.67094" lon="6.76842">
        <ele>1408</ele>
        <time>2022-06-15T07:33:31Z</time>
      </trkpt>
      <trkpt lat="45.67095" lon="6.7684">
        <ele>1408.6</ele>
        <time>2022-06-15T07:33:32Z</time>
      </trkpt>
      <trkpt lat="45.67095" lon="6.76837">
        <ele>1408.6</ele>
        <time>2022-06-15T07:33:33Z</time>
      </trkpt>
      <trkpt lat="45.67095" lon="6.76834">
        <ele>1408.5</ele>
        <time>2022-06-15T07:33:34Z</time>
      </trkpt>
      <trkpt lat="45.67095" lon="6.76831">
        <ele>1408.6</ele>
        <time>2022-06-15T07:33:35Z</time>
      </trkpt>
      <trkpt lat="45.67096" lon="6.76828">
        <ele>1408.7</ele>
        <time>2022-06-15T07:33:36Z</time>
      </trkpt>
      <trkpt lat="45.67097" lon="6.76825">
        <ele>1409.4</ele>
        <time>2022-06-15T07:33:37Z</time>
      </trkpt>
      <trkpt lat="45.67098" lon="6.76822">
        <ele>1409.9</ele>
        <time>2022-06-15T07:33:38Z</time>
      </trkpt>
      <trkpt lat="45.67099" lon="6.76819">
        <ele>1410.8</ele>
        <time>2022-06-15T07:33:39Z</time>
      </trkpt>
      <trkpt lat="45.67101" lon="6.76818">
        <ele>1412.2</ele>
        <time>2022-06-15T07:33:40Z</time>
      </trkpt>
      <trkpt lat="45.67102" lon="6.76816">
        <ele>1412.8</ele>
        <time>2022-06-15T07:33:41Z</time>
      </trkpt>
      <trkpt lat="45.67103" lon="6.76815">
        <ele>1413.8</ele>
        <time>2022-06-15T07:33:42Z</time>
      </trkpt>
      <trkpt lat="45.67105" lon="6.76812">
        <ele>1415</ele>
        <time>2022-06-15T07:33:43Z</time>
      </trkpt>
      <trkpt lat="45.67105" lon="6.7681">
        <ele>1415.5</ele>
        <time>2022-06-15T07:33:44Z</time>
      </trkpt>
      <trkpt lat="45.67106" lon="6.76806">
        <ele>1415.8</ele>
        <time>2022-06-15T07:33:45Z</time>
      </trkpt>
      <trkpt lat="45.67107" lon="6.76803">
        <ele>1416.1</ele>
        <time>2022-06-15T07:33:46Z</time>
      </trkpt>
      <trkpt lat="45.67107" lon="6.768">
        <ele>1416</ele>
        <time>2022-06-15T07:33:47Z</time>
      </trkpt>
      <trkpt lat="45.67108" lon="6.76796">
        <ele>1416.1</ele>
        <time>2022-06-15T07:33:48Z</time>
      </trkpt>
      <trkpt lat="45.67108" lon="6.76793">
        <ele>1415.9</ele>
        <time>2022-06-15T07:33:49Z</time>
      </trkpt>
      <trkpt lat="45.67109" lon="6.7679">
        <ele>1415.8</ele>
        <time>2022-06-15T07:33:50Z</time>
      </trkpt>
      <trkpt lat="45.6711" lon="6.76787">
        <ele>1416</ele>
        <time>2022-06-15T07:33:51Z</time>
      </trkpt>
      <trkpt lat="45.6711" lon="6.76784">
        <ele>1415.8</ele>
        <time>2022-06-15T07:33:52Z</time>
      </trkpt>
      <trkpt lat="45.6711" lon="6.76781">
        <ele>1415.6</ele>
        <time>2022-06-15T07:33:53Z</time>
      </trkpt>
      <trkpt lat="45.67109" lon="6.76778">
        <ele>1414.6</ele>
        <time>2022-06-15T07:33:54Z</time>
      </trkpt>
      <trkpt lat="45.67109" lon="6.76775">
        <ele>1414.7</ele>
        <time>2022-06-15T07:33:55Z</time>
      </trkpt>
      <trkpt lat="45.67108" lon="6.76772">
        <ele>1414.2</ele>
        <time>2022-06-15T07:33:56Z</time>
      </trkpt>
      <trkpt lat="45.67107" lon="6.76769">
        <ele>1414.3</ele>
        <time>2022-06-15T07:33:57Z</time>
      </trkpt>
      <trkpt lat="45.67108" lon="6.76766">
        <ele>1415</ele>
        <time>2022-06-15T07:33:58Z</time>
      </trkpt>
      <trkpt lat="45.67107" lon="6.76762">
        <ele>1415.4</ele>
        <time>2022-06-15T07:33:59Z</time>
      </trkpt>
      <trkpt lat="45.67107" lon="6.76758">
        <ele>1415.9</ele>
        <time>2022-06-15T07:34:00Z</time>
      </trkpt>
      <trkpt lat="45.67106" lon="6.76755">
        <ele>1415.9</ele>
        <time>2022-06-15T07:34:01Z</time>
      </trkpt>
      <trkpt lat="45.67105" lon="6.76751">
        <ele>1415.9</ele>
        <time>2022-06-15T07:34:02Z</time>
      </trkpt>
      <trkpt lat="45.67105" lon="6.76748">
        <ele>1416.2</ele>
        <time>2022-06-15T07:34:03Z</time>
      </trkpt>
      <trkpt lat="45.67105" lon="6.76745">
        <ele>1416.5</ele>
        <time>2022-06-15T07:34:04Z</time>
      </trkpt>
      <trkpt lat="45.67105" lon="6.76742">
        <ele>1416.6</ele>
        <time>2022-06-15T07:34:05Z</time>
      </trkpt>
      <trkpt lat="45.67105" lon="6.76739">
        <ele>1416.6</ele>
        <time>2022-06-15T07:34:06Z</time>
      </trkpt>
      <trkpt lat="45.67104" lon="6.76737">
        <ele>1416.5</ele>
        <time>2022-06-15T07:34:07Z</time>
      </trkpt>
      <trkpt lat="45.67104" lon="6.76733">
        <ele>1416.5</ele>
        <time>2022-06-15T07:34:08Z</time>
      </trkpt>
      <trkpt lat="45.67103" lon="6.7673">
        <ele>1416.5</ele>
        <time>2022-06-15T07:34:09Z</time>
      </trkpt>
      <trkpt lat="45.67103" lon="6.76727">
        <ele>1416.7</ele>
        <time>2022-06-15T07:34:10Z</time>
      </trkpt>
      <trkpt lat="45.67103" lon="6.76725">
        <ele>1416.9</ele>
        <time>2022-06-15T07:34:11Z</time>
      </trkpt>
      <trkpt lat="45.67103" lon="6.76721">
        <ele>1417.3</ele>
        <time>2022-06-15T07:34:12Z</time>
      </trkpt>
      <trkpt lat="45.67104" lon="6.76718">
        <ele>1417.9</ele>
        <time>2022-06-15T07:34:13Z</time>
      </trkpt>
      <trkpt lat="45.67104" lon="6.76715">
        <ele>1418</ele>
        <time>2022-06-15T07:34:14Z</time>
      </trkpt>
      <trkpt lat="45.67104" lon="6.76712">
        <ele>1418.3</ele>
        <time>2022-06-15T07:34:15Z</time>
      </trkpt>
      <trkpt lat="45.67104" lon="6.76709">
        <ele>1418.6</ele>
        <time>2022-06-15T07:34:16Z</time>
      </trkpt>
      <trkpt lat="45.67104" lon="6.76706">
        <ele>1419.1</ele>
        <time>2022-06-15T07:34:17Z</time>
      </trkpt>
      <trkpt lat="45.67104" lon="6.76703">
        <ele>1419.4</ele>
        <time>2022-06-15T07:34:18Z</time>
      </trkpt>
      <trkpt lat="45.67104" lon="6.767">
        <ele>1419.7</ele>
        <time>2022-06-15T07:34:19Z</time>
      </trkpt>
      <trkpt lat="45.67105" lon="6.76697">
        <ele>1420.2</ele>
        <time>2022-06-15T07:34:20Z</time>
      </trkpt>
      <trkpt lat="45.67105" lon="6.76694">
        <ele>1420.7</ele>
        <time>2022-06-15T07:34:21Z</time>
      </trkpt>
      <trkpt lat="45.67105" lon="6.76691">
        <ele>1420.8</ele>
        <time>2022-06-15T07:34:22Z</time>
      </trkpt>
      <trkpt lat="45.67105" lon="6.76688">
        <ele>1420.8</ele>
        <time>2022-06-15T07:34:23Z</time>
      </trkpt>
      <trkpt lat="45.67106" lon="6.76685">
        <ele>1421.1</ele>
        <time>2022-06-15T07:34:24Z</time>
      </trkpt>
      <trkpt lat="45.67106" lon="6.76682">
        <ele>1421.1</ele>
        <time>2022-06-15T07:34:25Z</time>
      </trkpt>
      <trkpt lat="45.67107" lon="6.7668">
        <ele>1421.7</ele>
        <time>2022-06-15T07:34:26Z</time>
      </trkpt>
      <trkpt lat="45.67107" lon="6.76677">
        <ele>1421.9</ele>
        <time>2022-06-15T07:34:27Z</time>
      </trkpt>
      <trkpt lat="45.67107" lon="6.76674">
        <ele>1421.9</ele>
        <time>2022-06-15T07:34:28Z</time>
      </trkpt>
      <trkpt lat="45.67108" lon="6.76671">
        <ele>1422.3</ele>
        <time>2022-06-15T07:34:29Z</time>
      </trkpt>
      <trkpt lat="45.67108" lon="6.76668">
        <ele>1422.3</ele>
        <time>2022-06-15T07:34:30Z</time>
      </trkpt>
      <trkpt lat="45.67109" lon="6.76665">
        <ele>1422.8</ele>
        <time>2022-06-15T07:34:31Z</time>
      </trkpt>
      <trkpt lat="45.6711" lon="6.76662">
        <ele>1423.1</ele>
        <time>2022-06-15T07:34:32Z</time>
      </trkpt>
      <trkpt lat="45.67111" lon="6.76659">
        <ele>1423.4</ele>
        <time>2022-06-15T07:34:33Z</time>
      </trkpt>
      <trkpt lat="45.67111" lon="6.76656">
        <ele>1423.4</ele>
        <time>2022-06-15T07:34:34Z</time>
      </trkpt>
      <trkpt lat="45.67111" lon="6.76653">
        <ele>1423.7</ele>
        <time>2022-06-15T07:34:35Z</time>
      </trkpt>
      <trkpt lat="45.67111" lon="6.7665">
        <ele>1423.5</ele>
        <time>2022-06-15T07:34:36Z</time>
      </trkpt>
      <trkpt lat="45.67111" lon="6.76647">
        <ele>1423.4</ele>
        <time>2022-06-15T07:34:37Z</time>
      </trkpt>
      <trkpt lat="45.67111" lon="6.76644">
        <ele>1422.9</ele>
        <time>2022-06-15T07:34:38Z</time>
      </trkpt>
      <trkpt lat="45.67111" lon="6.76641">
        <ele>1422.8</ele>
        <time>2022-06-15T07:34:39Z</time>
      </trkpt>
      <trkpt lat="45.6711" lon="6.76639">
        <ele>1422.7</ele>
        <time>2022-06-15T07:34:40Z</time>
      </trkpt>
      <trkpt lat="45.6711" lon="6.76636">
        <ele>1422.8</ele>
        <time>2022-06-15T07:34:41Z</time>
      </trkpt>
      <trkpt lat="45.67111" lon="6.76633">
        <ele>1423</ele>
        <time>2022-06-15T07:34:42Z</time>
      </trkpt>
      <trkpt lat="45.67111" lon="6.7663">
        <ele>1423.2</ele>
        <time>2022-06-15T07:34:43Z</time>
      </trkpt>
      <trkpt lat="45.67111" lon="6.76627">
        <ele>1423.6</ele>
        <time>2022-06-15T07:34:44Z</time>
      </trkpt>
      <trkpt lat="45.67112" lon="6.76624">
        <ele>1424.1</ele>
        <time>2022-06-15T07:34:45Z</time>
      </trkpt>
      <trkpt lat="45.67112" lon="6.76621">
        <ele>1424.4</ele>
        <time>2022-06-15T07:34:46Z</time>
      </trkpt>
      <trkpt lat="45.67112" lon="6.76618">
        <ele>1424.4</ele>
        <time>2022-06-15T07:34:47Z</time>
      </trkpt>
      <trkpt lat="45.67113" lon="6.76615">
        <ele>1424.7</ele>
        <time>2022-06-15T07:34:48Z</time>
      </trkpt>
      <trkpt lat="45.67113" lon="6.76612">
        <ele>1424.8</ele>
        <time>2022-06-15T07:34:49Z</time>
      </trkpt>
      <trkpt lat="45.67113" lon="6.76609">
        <ele>1425.1</ele>
        <time>2022-06-15T07:34:50Z</time>
      </trkpt>
      <trkpt lat="45.67113" lon="6.76606">
        <ele>1425.4</ele>
        <time>2022-06-15T07:34:51Z</time>
      </trkpt>
      <trkpt lat="45.67113" lon="6.76603">
        <ele>1425.7</ele>
        <time>2022-06-15T07:34:52Z</time>
      </trkpt>
      <trkpt lat="45.67113" lon="6.76599">
        <ele>1425.9</ele>
        <time>2022-06-15T07:34:53Z</time>
      </trkpt>
      <trkpt lat="45.67113" lon="6.76596">
        <ele>1425.9</ele>
        <time>2022-06-15T07:34:54Z</time>
      </trkpt>
      <trkpt lat="45.67113" lon="6.76593">
        <ele>1426.2</ele>
        <time>2022-06-15T07:34:55Z</time>
      </trkpt>
      <trkpt lat="45.67113" lon="6.7659">
        <ele>1426.3</ele>
        <time>2022-06-15T07:34:56Z</time>
      </trkpt>
      <trkpt lat="45.67112" lon="6.76586">
        <ele>1426.3</ele>
        <time>2022-06-15T07:34:57Z</time>
      </trkpt>
      <trkpt lat="45.67111" lon="6.76583">
        <ele>1426</ele>
        <time>2022-06-15T07:34:58Z</time>
      </trkpt>
      <trkpt lat="45.67112" lon="6.76581">
        <ele>1426.3</ele>
        <time>2022-06-15T07:34:59Z</time>
      </trkpt>
      <trkpt lat="45.67111" lon="6.76577">
        <ele>1426.1</ele>
        <time>2022-06-15T07:35:00Z</time>
      </trkpt>
      <trkpt lat="45.6711" lon="6.76573">
        <ele>1425.9</ele>
        <time>2022-06-15T07:35:01Z</time>
      </trkpt>
      <trkpt lat="45.67109" lon="6.76569">
        <ele>1425.9</ele>
        <time>2022-06-15T07:35:02Z</time>
      </trkpt>
      <trkpt lat="45.67109" lon="6.76565">
        <ele>1425.9</ele>
        <time>2022-06-15T07:35:03Z</time>
      </trkpt>
      <trkpt lat="45.67109" lon="6.76561">
        <ele>1425.9</ele>
        <time>2022-06-15T07:35:04Z</time>
      </trkpt>
      <trkpt lat="45.67108" lon="6.76558">
        <ele>1425.9</ele>
        <time>2022-06-15T07:35:05Z</time>
      </trkpt>
      <trkpt lat="45.67108" lon="6.76554">
        <ele>1426</ele>
        <time>2022-06-15T07:35:06Z</time>
      </trkpt>
      <trkpt lat="45.67109" lon="6.76549">
        <ele>1426.6</ele>
        <time>2022-06-15T07:35:07Z</time>
      </trkpt>
      <trkpt lat="45.67109" lon="6.76545">
        <ele>1426.9</ele>
        <time>2022-06-15T07:35:08Z</time>
      </trkpt>
      <trkpt lat="45.67109" lon="6.76542">
        <ele>1427</ele>
        <time>2022-06-15T07:35:09Z</time>
      </trkpt>
      <trkpt lat="45.6711" lon="6.76539">
        <ele>1427.6</ele>
        <time>2022-06-15T07:35:10Z</time>
      </trkpt>
      <trkpt lat="45.67111" lon="6.76536">
        <ele>1428.2</ele>
        <time>2022-06-15T07:35:11Z</time>
      </trkpt>
      <trkpt lat="45.67111" lon="6.76533">
        <ele>1428.7</ele>
        <time>2022-06-15T07:35:12Z</time>
      </trkpt>
      <trkpt lat="45.67113" lon="6.7653">
        <ele>1429.5</ele>
        <time>2022-06-15T07:35:13Z</time>
      </trkpt>
      <trkpt lat="45.67114" lon="6.76527">
        <ele>1430.1</ele>
        <time>2022-06-15T07:35:14Z</time>
      </trkpt>
      <trkpt lat="45.67115" lon="6.76525">
        <ele>1430.6</ele>
        <time>2022-06-15T07:35:15Z</time>
      </trkpt>
      <trkpt lat="45.67116" lon="6.76521">
        <ele>1430.9</ele>
        <time>2022-06-15T07:35:16Z</time>
      </trkpt>
      <trkpt lat="45.67117" lon="6.76518">
        <ele>1431.3</ele>
        <time>2022-06-15T07:35:17Z</time>
      </trkpt>
      <trkpt lat="45.67118" lon="6.76516">
        <ele>1431.6</ele>
        <time>2022-06-15T07:35:18Z</time>
      </trkpt>
      <trkpt lat="45.67119" lon="6.76513">
        <ele>1432</ele>
        <time>2022-06-15T07:35:19Z</time>
      </trkpt>
      <trkpt lat="45.67121" lon="6.7651">
        <ele>1432.5</ele>
        <time>2022-06-15T07:35:20Z</time>
      </trkpt>
      <trkpt lat="45.67122" lon="6.76507">
        <ele>1432.8</ele>
        <time>2022-06-15T07:35:21Z</time>
      </trkpt>
      <trkpt lat="45.67123" lon="6.76504">
        <ele>1432.7</ele>
        <time>2022-06-15T07:35:22Z</time>
      </trkpt>
      <trkpt lat="45.67123" lon="6.765">
        <ele>1432.6</ele>
        <time>2022-06-15T07:35:23Z</time>
      </trkpt>
      <trkpt lat="45.67123" lon="6.76498">
        <ele>1432.8</ele>
        <time>2022-06-15T07:35:24Z</time>
      </trkpt>
      <trkpt lat="45.67124" lon="6.76494">
        <ele>1433.2</ele>
        <time>2022-06-15T07:35:25Z</time>
      </trkpt>
      <trkpt lat="45.67125" lon="6.76491">
        <ele>1433.6</ele>
        <time>2022-06-15T07:35:26Z</time>
      </trkpt>
      <trkpt lat="45.67124" lon="6.76486">
        <ele>1433.3</ele>
        <time>2022-06-15T07:35:27Z</time>
      </trkpt>
      <trkpt lat="45.67125" lon="6.76481">
        <ele>1433.6</ele>
        <time>2022-06-15T07:35:28Z</time>
      </trkpt>
      <trkpt lat="45.67124" lon="6.76476">
        <ele>1433.5</ele>
        <time>2022-06-15T07:35:29Z</time>
      </trkpt>
      <trkpt lat="45.67123" lon="6.76472">
        <ele>1433.2</ele>
        <time>2022-06-15T07:35:30Z</time>
      </trkpt>
      <trkpt lat="45.67123" lon="6.76468">
        <ele>1433.7</ele>
        <time>2022-06-15T07:35:31Z</time>
      </trkpt>
      <trkpt lat="45.67122" lon="6.76465">
        <ele>1433.9</ele>
        <time>2022-06-15T07:35:32Z</time>
      </trkpt>
      <trkpt lat="45.67122" lon="6.76462">
        <ele>1434.3</ele>
        <time>2022-06-15T07:35:33Z</time>
      </trkpt>
      <trkpt lat="45.67121" lon="6.76458">
        <ele>1434.7</ele>
        <time>2022-06-15T07:35:34Z</time>
      </trkpt>
      <trkpt lat="45.67121" lon="6.76455">
        <ele>1435.2</ele>
        <time>2022-06-15T07:35:35Z</time>
      </trkpt>
      <trkpt lat="45.6712" lon="6.76452">
        <ele>1435.6</ele>
        <time>2022-06-15T07:35:36Z</time>
      </trkpt>
      <trkpt lat="45.67119" lon="6.76449">
        <ele>1435.4</ele>
        <time>2022-06-15T07:35:37Z</time>
      </trkpt>
      <trkpt lat="45.67118" lon="6.76446">
        <ele>1435.4</ele>
        <time>2022-06-15T07:35:38Z</time>
      </trkpt>
      <trkpt lat="45.67117" lon="6.76443">
        <ele>1435.4</ele>
        <time>2022-06-15T07:35:39Z</time>
      </trkpt>
      <trkpt lat="45.67116" lon="6.7644">
        <ele>1435.4</ele>
        <time>2022-06-15T07:35:40Z</time>
      </trkpt>
      <trkpt lat="45.67117" lon="6.76437">
        <ele>1435.7</ele>
        <time>2022-06-15T07:35:41Z</time>
      </trkpt>
      <trkpt lat="45.67117" lon="6.76434">
        <ele>1436.1</ele>
        <time>2022-06-15T07:35:42Z</time>
      </trkpt>
      <trkpt lat="45.67117" lon="6.76431">
        <ele>1436.5</ele>
        <time>2022-06-15T07:35:43Z</time>
      </trkpt>
      <trkpt lat="45.67117" lon="6.76427">
        <ele>1436.9</ele>
        <time>2022-06-15T07:35:44Z</time>
      </trkpt>
      <trkpt lat="45.67117" lon="6.76424">
        <ele>1437.2</ele>
        <time>2022-06-15T07:35:45Z</time>
      </trkpt>
      <trkpt lat="45.67117" lon="6.76421">
        <ele>1437.6</ele>
        <time>2022-06-15T07:35:46Z</time>
      </trkpt>
      <trkpt lat="45.67117" lon="6.76418">
        <ele>1437.7</ele>
        <time>2022-06-15T07:35:47Z</time>
      </trkpt>
      <trkpt lat="45.67117" lon="6.76415">
        <ele>1438</ele>
        <time>2022-06-15T07:35:48Z</time>
      </trkpt>
      <trkpt lat="45.67117" lon="6.76412">
        <ele>1438.2</ele>
        <time>2022-06-15T07:35:49Z</time>
      </trkpt>
      <trkpt lat="45.67117" lon="6.76409">
        <ele>1438.6</ele>
        <time>2022-06-15T07:35:50Z</time>
      </trkpt>
      <trkpt lat="45.67116" lon="6.76405">
        <ele>1438.7</ele>
        <time>2022-06-15T07:35:51Z</time>
      </trkpt>
      <trkpt lat="45.67116" lon="6.76402">
        <ele>1439.1</ele>
        <time>2022-06-15T07:35:52Z</time>
      </trkpt>
      <trkpt lat="45.67116" lon="6.76399">
        <ele>1439.5</ele>
        <time>2022-06-15T07:35:53Z</time>
      </trkpt>
      <trkpt lat="45.67116" lon="6.76397">
        <ele>1439.6</ele>
        <time>2022-06-15T07:35:54Z</time>
      </trkpt>
      <trkpt lat="45.67116" lon="6.76394">
        <ele>1440</ele>
        <time>2022-06-15T07:35:55Z</time>
      </trkpt>
      <trkpt lat="45.67115" lon="6.76391">
        <ele>1440.2</ele>
        <time>2022-06-15T07:35:56Z</time>
      </trkpt>
      <trkpt lat="45.67115" lon="6.76387">
        <ele>1440.4</ele>
        <time>2022-06-15T07:35:57Z</time>
      </trkpt>
      <trkpt lat="45.67114" lon="6.76384">
        <ele>1440.4</ele>
        <time>2022-06-15T07:35:58Z</time>
      </trkpt>
      <trkpt lat="45.67114" lon="6.76381">
        <ele>1440.5</ele>
        <time>2022-06-15T07:35:59Z</time>
      </trkpt>
      <trkpt lat="45.67113" lon="6.76378">
        <ele>1440.6</ele>
        <time>2022-06-15T07:36:00Z</time>
      </trkpt>
      <trkpt lat="45.67112" lon="6.76375">
        <ele>1440.6</ele>
        <time>2022-06-15T07:36:01Z</time>
      </trkpt>
      <trkpt lat="45.67111" lon="6.76372">
        <ele>1440.4</ele>
        <time>2022-06-15T07:36:02Z</time>
      </trkpt>
      <trkpt lat="45.6711" lon="6.76369">
        <ele>1440.2</ele>
        <time>2022-06-15T07:36:03Z</time>
      </trkpt>
      <trkpt lat="45.6711" lon="6.76367">
        <ele>1440.4</ele>
        <time>2022-06-15T07:36:04Z</time>
      </trkpt>
      <trkpt lat="45.67109" lon="6.76364">
        <ele>1440.5</ele>
        <time>2022-06-15T07:36:05Z</time>
      </trkpt>
      <trkpt lat="45.67109" lon="6.76361">
        <ele>1440.6</ele>
        <time>2022-06-15T07:36:06Z</time>
      </trkpt>
      <trkpt lat="45.67108" lon="6.76358">
        <ele>1440.5</ele>
        <time>2022-06-15T07:36:07Z</time>
      </trkpt>
      <trkpt lat="45.67108" lon="6.76355">
        <ele>1440.4</ele>
        <time>2022-06-15T07:36:08Z</time>
      </trkpt>
      <trkpt lat="45.67109" lon="6.76352">
        <ele>1440.7</ele>
        <time>2022-06-15T07:36:09Z</time>
      </trkpt>
      <trkpt lat="45.67109" lon="6.76349">
        <ele>1441.3</ele>
        <time>2022-06-15T07:36:10Z</time>
      </trkpt>
      <trkpt lat="45.6711" lon="6.76346">
        <ele>1441.8</ele>
        <time>2022-06-15T07:36:11Z</time>
      </trkpt>
      <trkpt lat="45.67111" lon="6.76343">
        <ele>1442.2</ele>
        <time>2022-06-15T07:36:12Z</time>
      </trkpt>
      <trkpt lat="45.67111" lon="6.76339">
        <ele>1442.6</ele>
        <time>2022-06-15T07:36:13Z</time>
      </trkpt>
      <trkpt lat="45.67111" lon="6.76336">
        <ele>1443</ele>
        <time>2022-06-15T07:36:14Z</time>
      </trkpt>
      <trkpt lat="45.67112" lon="6.76333">
        <ele>1443.2</ele>
        <time>2022-06-15T07:36:15Z</time>
      </trkpt>
      <trkpt lat="45.67113" lon="6.76331">
        <ele>1443.4</ele>
        <time>2022-06-15T07:36:16Z</time>
      </trkpt>
      <trkpt lat="45.67114" lon="6.76328">
        <ele>1443.7</ele>
        <time>2022-06-15T07:36:17Z</time>
      </trkpt>
      <trkpt lat="45.67115" lon="6.76325">
        <ele>1443.9</ele>
        <time>2022-06-15T07:36:18Z</time>
      </trkpt>
      <trkpt lat="45.67115" lon="6.76322">
        <ele>1444</ele>
        <time>2022-06-15T07:36:19Z</time>
      </trkpt>
      <trkpt lat="45.67116" lon="6.76319">
        <ele>1444.1</ele>
        <time>2022-06-15T07:36:20Z</time>
      </trkpt>
      <trkpt lat="45.67117" lon="6.76316">
        <ele>1444.3</ele>
        <time>2022-06-15T07:36:21Z</time>
      </trkpt>
      <trkpt lat="45.67118" lon="6.76313">
        <ele>1444.4</ele>
        <time>2022-06-15T07:36:22Z</time>
      </trkpt>
      <trkpt lat="45.67119" lon="6.7631">
        <ele>1444.6</ele>
        <time>2022-06-15T07:36:23Z</time>
      </trkpt>
      <trkpt lat="45.67119" lon="6.76307">
        <ele>1444.7</ele>
        <time>2022-06-15T07:36:24Z</time>
      </trkpt>
      <trkpt lat="45.6712" lon="6.76304">
        <ele>1444.9</ele>
        <time>2022-06-15T07:36:25Z</time>
      </trkpt>
      <trkpt lat="45.67121" lon="6.76301">
        <ele>1445.2</ele>
        <time>2022-06-15T07:36:26Z</time>
      </trkpt>
      <trkpt lat="45.67122" lon="6.76298">
        <ele>1445.6</ele>
        <time>2022-06-15T07:36:27Z</time>
      </trkpt>
      <trkpt lat="45.67122" lon="6.76295">
        <ele>1445.8</ele>
        <time>2022-06-15T07:36:28Z</time>
      </trkpt>
      <trkpt lat="45.67123" lon="6.76292">
        <ele>1446.1</ele>
        <time>2022-06-15T07:36:29Z</time>
      </trkpt>
      <trkpt lat="45.67124" lon="6.76289">
        <ele>1446.3</ele>
        <time>2022-06-15T07:36:30Z</time>
      </trkpt>
      <trkpt lat="45.67124" lon="6.76286">
        <ele>1446.5</ele>
        <time>2022-06-15T07:36:31Z</time>
      </trkpt>
      <trkpt lat="45.67125" lon="6.76283">
        <ele>1446.8</ele>
        <time>2022-06-15T07:36:32Z</time>
      </trkpt>
      <trkpt lat="45.67124" lon="6.7628">
        <ele>1446.8</ele>
        <time>2022-06-15T07:36:33Z</time>
      </trkpt>
      <trkpt lat="45.67124" lon="6.76277">
        <ele>1446.8</ele>
        <time>2022-06-15T07:36:34Z</time>
      </trkpt>
      <trkpt lat="45.67124" lon="6.76274">
        <ele>1447</ele>
        <time>2022-06-15T07:36:35Z</time>
      </trkpt>
      <trkpt lat="45.67125" lon="6.76272">
        <ele>1447.2</ele>
        <time>2022-06-15T07:36:36Z</time>
      </trkpt>
      <trkpt lat="45.67125" lon="6.76269">
        <ele>1447.4</ele>
        <time>2022-06-15T07:36:37Z</time>
      </trkpt>
      <trkpt lat="45.67125" lon="6.76266">
        <ele>1447.5</ele>
        <time>2022-06-15T07:36:38Z</time>
      </trkpt>
      <trkpt lat="45.67125" lon="6.76262">
        <ele>1447.7</ele>
        <time>2022-06-15T07:36:39Z</time>
      </trkpt>
      <trkpt lat="45.67125" lon="6.7626">
        <ele>1447.9</ele>
        <time>2022-06-15T07:36:40Z</time>
      </trkpt>
      <trkpt lat="45.67126" lon="6.76257">
        <ele>1448.3</ele>
        <time>2022-06-15T07:36:41Z</time>
      </trkpt>
      <trkpt lat="45.67127" lon="6.76254">
        <ele>1448.8</ele>
        <time>2022-06-15T07:36:42Z</time>
      </trkpt>
      <trkpt lat="45.67127" lon="6.76252">
        <ele>1449.1</ele>
        <time>2022-06-15T07:36:43Z</time>
      </trkpt>
      <trkpt lat="45.67127" lon="6.76249">
        <ele>1449.2</ele>
        <time>2022-06-15T07:36:44Z</time>
      </trkpt>
      <trkpt lat="45.67127" lon="6.76246">
        <ele>1449.3</ele>
        <time>2022-06-15T07:36:45Z</time>
      </trkpt>
      <trkpt lat="45.67127" lon="6.76243">
        <ele>1449.5</ele>
        <time>2022-06-15T07:36:46Z</time>
      </trkpt>
      <trkpt lat="45.67127" lon="6.7624">
        <ele>1449.8</ele>
        <time>2022-06-15T07:36:47Z</time>
      </trkpt>
      <trkpt lat="45.67127" lon="6.76237">
        <ele>1450.1</ele>
        <time>2022-06-15T07:36:48Z</time>
      </trkpt>
      <trkpt lat="45.67128" lon="6.76234">
        <ele>1450.4</ele>
        <time>2022-06-15T07:36:49Z</time>
      </trkpt>
      <trkpt lat="45.67128" lon="6.76232">
        <ele>1450.7</ele>
        <time>2022-06-15T07:36:50Z</time>
      </trkpt>
      <trkpt lat="45.67128" lon="6.76229">
        <ele>1450.7</ele>
        <time>2022-06-15T07:36:51Z</time>
      </trkpt>
      <trkpt lat="45.67128" lon="6.76226">
        <ele>1451</ele>
        <time>2022-06-15T07:36:52Z</time>
      </trkpt>
      <trkpt lat="45.67128" lon="6.76223">
        <ele>1451.3</ele>
        <time>2022-06-15T07:36:53Z</time>
      </trkpt>
      <trkpt lat="45.67128" lon="6.7622">
        <ele>1451.4</ele>
        <time>2022-06-15T07:36:54Z</time>
      </trkpt>
      <trkpt lat="45.67129" lon="6.76217">
        <ele>1451.6</ele>
        <time>2022-06-15T07:36:55Z</time>
      </trkpt>
      <trkpt lat="45.67129" lon="6.76214">
        <ele>1451.7</ele>
        <time>2022-06-15T07:36:56Z</time>
      </trkpt>
      <trkpt lat="45.67129" lon="6.76211">
        <ele>1451.7</ele>
        <time>2022-06-15T07:36:57Z</time>
      </trkpt>
      <trkpt lat="45.67129" lon="6.76208">
        <ele>1451.8</ele>
        <time>2022-06-15T07:36:58Z</time>
      </trkpt>
      <trkpt lat="45.67129" lon="6.76205">
        <ele>1451.9</ele>
        <time>2022-06-15T07:36:59Z</time>
      </trkpt>
      <trkpt lat="45.67129" lon="6.76202">
        <ele>1452</ele>
        <time>2022-06-15T07:37:00Z</time>
      </trkpt>
      <trkpt lat="45.67129" lon="6.76199">
        <ele>1452.1</ele>
        <time>2022-06-15T07:37:01Z</time>
      </trkpt>
      <trkpt lat="45.67129" lon="6.76196">
        <ele>1452.1</ele>
        <time>2022-06-15T07:37:02Z</time>
      </trkpt>
      <trkpt lat="45.67129" lon="6.76193">
        <ele>1452.2</ele>
        <time>2022-06-15T07:37:03Z</time>
      </trkpt>
      <trkpt lat="45.67129" lon="6.7619">
        <ele>1452.2</ele>
        <time>2022-06-15T07:37:04Z</time>
      </trkpt>
      <trkpt lat="45.67129" lon="6.76187">
        <ele>1452.4</ele>
        <time>2022-06-15T07:37:05Z</time>
      </trkpt>
      <trkpt lat="45.67129" lon="6.76184">
        <ele>1452.7</ele>
        <time>2022-06-15T07:37:06Z</time>
      </trkpt>
      <trkpt lat="45.67129" lon="6.76181">
        <ele>1452.8</ele>
        <time>2022-06-15T07:37:07Z</time>
      </trkpt>
      <trkpt lat="45.67129" lon="6.76179">
        <ele>1453.1</ele>
        <time>2022-06-15T07:37:08Z</time>
      </trkpt>
      <trkpt lat="45.67129" lon="6.76176">
        <ele>1453.2</ele>
        <time>2022-06-15T07:37:09Z</time>
      </trkpt>
      <trkpt lat="45.6713" lon="6.76173">
        <ele>1453.5</ele>
        <time>2022-06-15T07:37:10Z</time>
      </trkpt>
      <trkpt lat="45.6713" lon="6.76172">
        <ele>1453.8</ele>
        <time>2022-06-15T07:37:11Z</time>
      </trkpt>
      <trkpt lat="45.6713" lon="6.76169">
        <ele>1453.8</ele>
        <time>2022-06-15T07:37:12Z</time>
      </trkpt>
      <trkpt lat="45.67129" lon="6.76167">
        <ele>1453.8</ele>
        <time>2022-06-15T07:37:13Z</time>
      </trkpt>
      <trkpt lat="45.67129" lon="6.76163">
        <ele>1454.1</ele>
        <time>2022-06-15T07:37:14Z</time>
      </trkpt>
      <trkpt lat="45.67129" lon="6.76161">
        <ele>1454.4</ele>
        <time>2022-06-15T07:37:15Z</time>
      </trkpt>
      <trkpt lat="45.67129" lon="6.76158">
        <ele>1454.9</ele>
        <time>2022-06-15T07:37:16Z</time>
      </trkpt>
      <trkpt lat="45.67129" lon="6.76155">
        <ele>1455.1</ele>
        <time>2022-06-15T07:37:17Z</time>
      </trkpt>
      <trkpt lat="45.67128" lon="6.76152">
        <ele>1455.3</ele>
        <time>2022-06-15T07:37:18Z</time>
      </trkpt>
      <trkpt lat="45.67128" lon="6.76149">
        <ele>1455.7</ele>
        <time>2022-06-15T07:37:19Z</time>
      </trkpt>
      <trkpt lat="45.67128" lon="6.76146">
        <ele>1456.2</ele>
        <time>2022-06-15T07:37:20Z</time>
      </trkpt>
      <trkpt lat="45.67128" lon="6.76143">
        <ele>1456.7</ele>
        <time>2022-06-15T07:37:21Z</time>
      </trkpt>
      <trkpt lat="45.67129" lon="6.7614">
        <ele>1457.3</ele>
        <time>2022-06-15T07:37:22Z</time>
      </trkpt>
      <trkpt lat="45.67128" lon="6.76137">
        <ele>1457.7</ele>
        <time>2022-06-15T07:37:23Z</time>
      </trkpt>
      <trkpt lat="45.67129" lon="6.76134">
        <ele>1458.3</ele>
        <time>2022-06-15T07:37:24Z</time>
      </trkpt>
      <trkpt lat="45.67129" lon="6.76131">
        <ele>1458.8</ele>
        <time>2022-06-15T07:37:25Z</time>
      </trkpt>
      <trkpt lat="45.67129" lon="6.76128">
        <ele>1459.2</ele>
        <time>2022-06-15T07:37:26Z</time>
      </trkpt>
      <trkpt lat="45.67129" lon="6.76125">
        <ele>1459.6</ele>
        <time>2022-06-15T07:37:27Z</time>
      </trkpt>
      <trkpt lat="45.67129" lon="6.76122">
        <ele>1460.2</ele>
        <time>2022-06-15T07:37:28Z</time>
      </trkpt>
      <trkpt lat="45.67129" lon="6.76119">
        <ele>1460.7</ele>
        <time>2022-06-15T07:37:29Z</time>
      </trkpt>
      <trkpt lat="45.67129" lon="6.76116">
        <ele>1461.1</ele>
        <time>2022-06-15T07:37:30Z</time>
      </trkpt>
      <trkpt lat="45.67129" lon="6.76113">
        <ele>1461.6</ele>
        <time>2022-06-15T07:37:31Z</time>
      </trkpt>
      <trkpt lat="45.67129" lon="6.76109">
        <ele>1462.1</ele>
        <time>2022-06-15T07:37:32Z</time>
      </trkpt>
      <trkpt lat="45.67128" lon="6.76106">
        <ele>1462.1</ele>
        <time>2022-06-15T07:37:33Z</time>
      </trkpt>
      <trkpt lat="45.67128" lon="6.76103">
        <ele>1462.1</ele>
        <time>2022-06-15T07:37:34Z</time>
      </trkpt>
      <trkpt lat="45.67128" lon="6.761">
        <ele>1462.3</ele>
        <time>2022-06-15T07:37:35Z</time>
      </trkpt>
      <trkpt lat="45.67127" lon="6.76097">
        <ele>1462.5</ele>
        <time>2022-06-15T07:37:36Z</time>
      </trkpt>
      <trkpt lat="45.67127" lon="6.76094">
        <ele>1462.9</ele>
        <time>2022-06-15T07:37:37Z</time>
      </trkpt>
      <trkpt lat="45.67127" lon="6.76091">
        <ele>1463.1</ele>
        <time>2022-06-15T07:37:38Z</time>
      </trkpt>
      <trkpt lat="45.67127" lon="6.76087">
        <ele>1463.4</ele>
        <time>2022-06-15T07:37:39Z</time>
      </trkpt>
      <trkpt lat="45.67127" lon="6.76084">
        <ele>1463.6</ele>
        <time>2022-06-15T07:37:40Z</time>
      </trkpt>
      <trkpt lat="45.67126" lon="6.76081">
        <ele>1464.1</ele>
        <time>2022-06-15T07:37:41Z</time>
      </trkpt>
      <trkpt lat="45.67125" lon="6.76077">
        <ele>1464</ele>
        <time>2022-06-15T07:37:42Z</time>
      </trkpt>
      <trkpt lat="45.67125" lon="6.76074">
        <ele>1464.3</ele>
        <time>2022-06-15T07:37:43Z</time>
      </trkpt>
      <trkpt lat="45.67123" lon="6.76071">
        <ele>1464.1</ele>
        <time>2022-06-15T07:37:44Z</time>
      </trkpt>
      <trkpt lat="45.67123" lon="6.76068">
        <ele>1464.3</ele>
        <time>2022-06-15T07:37:45Z</time>
      </trkpt>
      <trkpt lat="45.67122" lon="6.76066">
        <ele>1464.6</ele>
        <time>2022-06-15T07:37:46Z</time>
      </trkpt>
      <trkpt lat="45.67121" lon="6.76064">
        <ele>1464.5</ele>
        <time>2022-06-15T07:37:47Z</time>
      </trkpt>
      <trkpt lat="45.6712" lon="6.76062">
        <ele>1464.1</ele>
        <time>2022-06-15T07:37:48Z</time>
      </trkpt>
      <trkpt lat="45.67118" lon="6.76059">
        <ele>1463.7</ele>
        <time>2022-06-15T07:37:49Z</time>
      </trkpt>
      <trkpt lat="45.67117" lon="6.76057">
        <ele>1463.3</ele>
        <time>2022-06-15T07:37:50Z</time>
      </trkpt>
      <trkpt lat="45.67116" lon="6.76055">
        <ele>1463</ele>
        <time>2022-06-15T07:37:51Z</time>
      </trkpt>
      <trkpt lat="45.67114" lon="6.76053">
        <ele>1462.6</ele>
        <time>2022-06-15T07:37:52Z</time>
      </trkpt>
      <trkpt lat="45.67113" lon="6.76051">
        <ele>1462.6</ele>
        <time>2022-06-15T07:37:53Z</time>
      </trkpt>
      <trkpt lat="45.67112" lon="6.76049">
        <ele>1462.4</ele>
        <time>2022-06-15T07:37:54Z</time>
      </trkpt>
      <trkpt lat="45.67111" lon="6.76046">
        <ele>1462.6</ele>
        <time>2022-06-15T07:37:55Z</time>
      </trkpt>
      <trkpt lat="45.67111" lon="6.76044">
        <ele>1463</ele>
        <time>2022-06-15T07:37:56Z</time>
      </trkpt>
      <trkpt lat="45.6711" lon="6.76041">
        <ele>1463.2</ele>
        <time>2022-06-15T07:37:57Z</time>
      </trkpt>
      <trkpt lat="45.67109" lon="6.76038">
        <ele>1463.6</ele>
        <time>2022-06-15T07:37:58Z</time>
      </trkpt>
      <trkpt lat="45.67109" lon="6.76035">
        <ele>1464.2</ele>
        <time>2022-06-15T07:37:59Z</time>
      </trkpt>
      <trkpt lat="45.67109" lon="6.76032">
        <ele>1465.2</ele>
        <time>2022-06-15T07:38:00Z</time>
      </trkpt>
      <trkpt lat="45.6711" lon="6.7603">
        <ele>1466.1</ele>
        <time>2022-06-15T07:38:01Z</time>
      </trkpt>
      <trkpt lat="45.6711" lon="6.76027">
        <ele>1466.6</ele>
        <time>2022-06-15T07:38:02Z</time>
      </trkpt>
      <trkpt lat="45.6711" lon="6.76024">
        <ele>1467.2</ele>
        <time>2022-06-15T07:38:03Z</time>
      </trkpt>
      <trkpt lat="45.6711" lon="6.76021">
        <ele>1467.4</ele>
        <time>2022-06-15T07:38:04Z</time>
      </trkpt>
      <trkpt lat="45.6711" lon="6.76018">
        <ele>1467.9</ele>
        <time>2022-06-15T07:38:05Z</time>
      </trkpt>
      <trkpt lat="45.6711" lon="6.76015">
        <ele>1468.3</ele>
        <time>2022-06-15T07:38:06Z</time>
      </trkpt>
      <trkpt lat="45.67111" lon="6.76012">
        <ele>1468.7</ele>
        <time>2022-06-15T07:38:07Z</time>
      </trkpt>
      <trkpt lat="45.67111" lon="6.76009">
        <ele>1468.9</ele>
        <time>2022-06-15T07:38:08Z</time>
      </trkpt>
      <trkpt lat="45.6711" lon="6.76006">
        <ele>1468.9</ele>
        <time>2022-06-15T07:38:09Z</time>
      </trkpt>
      <trkpt lat="45.6711" lon="6.76003">
        <ele>1468.8</ele>
        <time>2022-06-15T07:38:10Z</time>
      </trkpt>
      <trkpt lat="45.6711" lon="6.76001">
        <ele>1468.8</ele>
        <time>2022-06-15T07:38:11Z</time>
      </trkpt>
      <trkpt lat="45.67109" lon="6.75998">
        <ele>1469.4</ele>
        <time>2022-06-15T07:38:12Z</time>
      </trkpt>
      <trkpt lat="45.67109" lon="6.75995">
        <ele>1470.2</ele>
        <time>2022-06-15T07:38:13Z</time>
      </trkpt>
      <trkpt lat="45.67109" lon="6.75992">
        <ele>1471</ele>
        <time>2022-06-15T07:38:14Z</time>
      </trkpt>
      <trkpt lat="45.67107" lon="6.75989">
        <ele>1471.1</ele>
        <time>2022-06-15T07:38:15Z</time>
      </trkpt>
      <trkpt lat="45.67106" lon="6.75987">
        <ele>1471.4</ele>
        <time>2022-06-15T07:38:16Z</time>
      </trkpt>
      <trkpt lat="45.67105" lon="6.75984">
        <ele>1471.6</ele>
        <time>2022-06-15T07:38:17Z</time>
      </trkpt>
      <trkpt lat="45.67104" lon="6.75982">
        <ele>1471.7</ele>
        <time>2022-06-15T07:38:18Z</time>
      </trkpt>
      <trkpt lat="45.67103" lon="6.75979">
        <ele>1472</ele>
        <time>2022-06-15T07:38:19Z</time>
      </trkpt>
      <trkpt lat="45.67102" lon="6.75977">
        <ele>1471.9</ele>
        <time>2022-06-15T07:38:20Z</time>
      </trkpt>
      <trkpt lat="45.671" lon="6.75975">
        <ele>1471.9</ele>
        <time>2022-06-15T07:38:21Z</time>
      </trkpt>
      <trkpt lat="45.67099" lon="6.75972">
        <ele>1471.9</ele>
        <time>2022-06-15T07:38:22Z</time>
      </trkpt>
      <trkpt lat="45.67097" lon="6.7597">
        <ele>1471.8</ele>
        <time>2022-06-15T07:38:23Z</time>
      </trkpt>
      <trkpt lat="45.67096" lon="6.75968">
        <ele>1472</ele>
        <time>2022-06-15T07:38:24Z</time>
      </trkpt>
      <trkpt lat="45.67094" lon="6.75966">
        <ele>1472.3</ele>
        <time>2022-06-15T07:38:25Z</time>
      </trkpt>
      <trkpt lat="45.67093" lon="6.75963">
        <ele>1472.7</ele>
        <time>2022-06-15T07:38:26Z</time>
      </trkpt>
      <trkpt lat="45.67092" lon="6.75961">
        <ele>1473</ele>
        <time>2022-06-15T07:38:27Z</time>
      </trkpt>
      <trkpt lat="45.67091" lon="6.75959">
        <ele>1473.4</ele>
        <time>2022-06-15T07:38:28Z</time>
      </trkpt>
      <trkpt lat="45.67089" lon="6.75957">
        <ele>1473.4</ele>
        <time>2022-06-15T07:38:29Z</time>
      </trkpt>
      <trkpt lat="45.67087" lon="6.75955">
        <ele>1473.4</ele>
        <time>2022-06-15T07:38:30Z</time>
      </trkpt>
      <trkpt lat="45.67086" lon="6.75954">
        <ele>1473.4</ele>
        <time>2022-06-15T07:38:31Z</time>
      </trkpt>
      <trkpt lat="45.67084" lon="6.75952">
        <ele>1473.6</ele>
        <time>2022-06-15T07:38:32Z</time>
      </trkpt>
      <trkpt lat="45.67083" lon="6.7595">
        <ele>1473.7</ele>
        <time>2022-06-15T07:38:33Z</time>
      </trkpt>
      <trkpt lat="45.67081" lon="6.75949">
        <ele>1473.9</ele>
        <time>2022-06-15T07:38:34Z</time>
      </trkpt>
      <trkpt lat="45.6708" lon="6.75947">
        <ele>1474.1</ele>
        <time>2022-06-15T07:38:35Z</time>
      </trkpt>
      <trkpt lat="45.67078" lon="6.75945">
        <ele>1474.3</ele>
        <time>2022-06-15T07:38:36Z</time>
      </trkpt>
      <trkpt lat="45.67076" lon="6.75943">
        <ele>1474.4</ele>
        <time>2022-06-15T07:38:37Z</time>
      </trkpt>
      <trkpt lat="45.67075" lon="6.75942">
        <ele>1474.3</ele>
        <time>2022-06-15T07:38:38Z</time>
      </trkpt>
      <trkpt lat="45.67073" lon="6.7594">
        <ele>1474.2</ele>
        <time>2022-06-15T07:38:39Z</time>
      </trkpt>
      <trkpt lat="45.67072" lon="6.75938">
        <ele>1474.2</ele>
        <time>2022-06-15T07:38:40Z</time>
      </trkpt>
      <trkpt lat="45.6707" lon="6.75936">
        <ele>1474.3</ele>
        <time>2022-06-15T07:38:41Z</time>
      </trkpt>
      <trkpt lat="45.67068" lon="6.75934">
        <ele>1474.2</ele>
        <time>2022-06-15T07:38:42Z</time>
      </trkpt>
      <trkpt lat="45.67067" lon="6.75932">
        <ele>1474.3</ele>
        <time>2022-06-15T07:38:43Z</time>
      </trkpt>
      <trkpt lat="45.67065" lon="6.7593">
        <ele>1474.4</ele>
        <time>2022-06-15T07:38:44Z</time>
      </trkpt>
      <trkpt lat="45.67063" lon="6.75928">
        <ele>1474.5</ele>
        <time>2022-06-15T07:38:45Z</time>
      </trkpt>
      <trkpt lat="45.67062" lon="6.75926">
        <ele>1474.7</ele>
        <time>2022-06-15T07:38:46Z</time>
      </trkpt>
      <trkpt lat="45.6706" lon="6.75924">
        <ele>1474.8</ele>
        <time>2022-06-15T07:38:47Z</time>
      </trkpt>
      <trkpt lat="45.67059" lon="6.75922">
        <ele>1474.9</ele>
        <time>2022-06-15T07:38:48Z</time>
      </trkpt>
      <trkpt lat="45.67057" lon="6.7592">
        <ele>1475.1</ele>
        <time>2022-06-15T07:38:49Z</time>
      </trkpt>
      <trkpt lat="45.67056" lon="6.75918">
        <ele>1475.3</ele>
        <time>2022-06-15T07:38:50Z</time>
      </trkpt>
      <trkpt lat="45.67054" lon="6.75916">
        <ele>1475.4</ele>
        <time>2022-06-15T07:38:51Z</time>
      </trkpt>
      <trkpt lat="45.67053" lon="6.75914">
        <ele>1474.9</ele>
        <time>2022-06-15T07:38:52Z</time>
      </trkpt>
      <trkpt lat="45.67052" lon="6.75911">
        <ele>1474.7</ele>
        <time>2022-06-15T07:38:53Z</time>
      </trkpt>
      <trkpt lat="45.67051" lon="6.75908">
        <ele>1474.6</ele>
        <time>2022-06-15T07:38:54Z</time>
      </trkpt>
      <trkpt lat="45.67051" lon="6.75905">
        <ele>1474.7</ele>
        <time>2022-06-15T07:38:55Z</time>
      </trkpt>
      <trkpt lat="45.67051" lon="6.75901">
        <ele>1474.9</ele>
        <time>2022-06-15T07:38:56Z</time>
      </trkpt>
      <trkpt lat="45.67051" lon="6.75898">
        <ele>1475.1</ele>
        <time>2022-06-15T07:38:57Z</time>
      </trkpt>
      <trkpt lat="45.67051" lon="6.75895">
        <ele>1475.5</ele>
        <time>2022-06-15T07:38:58Z</time>
      </trkpt>
      <trkpt lat="45.67052" lon="6.75892">
        <ele>1476.2</ele>
        <time>2022-06-15T07:38:59Z</time>
      </trkpt>
      <trkpt lat="45.67053" lon="6.75888">
        <ele>1476.7</ele>
        <time>2022-06-15T07:39:00Z</time>
      </trkpt>
      <trkpt lat="45.67055" lon="6.75885">
        <ele>1476.8</ele>
        <time>2022-06-15T07:39:01Z</time>
      </trkpt>
      <trkpt lat="45.67056" lon="6.75882">
        <ele>1476.8</ele>
        <time>2022-06-15T07:39:02Z</time>
      </trkpt>
      <trkpt lat="45.67058" lon="6.75878">
        <ele>1476.5</ele>
        <time>2022-06-15T07:39:03Z</time>
      </trkpt>
      <trkpt lat="45.6706" lon="6.75875">
        <ele>1476.6</ele>
        <time>2022-06-15T07:39:04Z</time>
      </trkpt>
      <trkpt lat="45.67062" lon="6.75872">
        <ele>1476.6</ele>
        <time>2022-06-15T07:39:05Z</time>
      </trkpt>
      <trkpt lat="45.67064" lon="6.75868">
        <ele>1476.6</ele>
        <time>2022-06-15T07:39:06Z</time>
      </trkpt>
      <trkpt lat="45.67066" lon="6.75865">
        <ele>1476.6</ele>
        <time>2022-06-15T07:39:07Z</time>
      </trkpt>
      <trkpt lat="45.67068" lon="6.75861">
        <ele>1476.5</ele>
        <time>2022-06-15T07:39:08Z</time>
      </trkpt>
      <trkpt lat="45.6707" lon="6.75857">
        <ele>1476.5</ele>
        <time>2022-06-15T07:39:09Z</time>
      </trkpt>
      <trkpt lat="45.67072" lon="6.75852">
        <ele>1476.4</ele>
        <time>2022-06-15T07:39:10Z</time>
      </trkpt>
      <trkpt lat="45.67075" lon="6.75848">
        <ele>1476.5</ele>
        <time>2022-06-15T07:39:11Z</time>
      </trkpt>
      <trkpt lat="45.67077" lon="6.75844">
        <ele>1476.8</ele>
        <time>2022-06-15T07:39:12Z</time>
      </trkpt>
      <trkpt lat="45.6708" lon="6.75839">
        <ele>1477.2</ele>
        <time>2022-06-15T07:39:13Z</time>
      </trkpt>
      <trkpt lat="45.67082" lon="6.75834">
        <ele>1477.6</ele>
        <time>2022-06-15T07:39:14Z</time>
      </trkpt>
      <trkpt lat="45.67085" lon="6.75828">
        <ele>1477.8</ele>
        <time>2022-06-15T07:39:15Z</time>
      </trkpt>
      <trkpt lat="45.67087" lon="6.75823">
        <ele>1477.8</ele>
        <time>2022-06-15T07:39:16Z</time>
      </trkpt>
      <trkpt lat="45.67089" lon="6.75817">
        <ele>1477.8</ele>
        <time>2022-06-15T07:39:17Z</time>
      </trkpt>
      <trkpt lat="45.67091" lon="6.75812">
        <ele>1478</ele>
        <time>2022-06-15T07:39:18Z</time>
      </trkpt>
      <trkpt lat="45.67093" lon="6.75806">
        <ele>1478</ele>
        <time>2022-06-15T07:39:19Z</time>
      </trkpt>
      <trkpt lat="45.67094" lon="6.75801">
        <ele>1477.4</ele>
        <time>2022-06-15T07:39:20Z</time>
      </trkpt>
      <trkpt lat="45.67096" lon="6.75796">
        <ele>1476.9</ele>
        <time>2022-06-15T07:39:21Z</time>
      </trkpt>
      <trkpt lat="45.67098" lon="6.75791">
        <ele>1476.7</ele>
        <time>2022-06-15T07:39:22Z</time>
      </trkpt>
      <trkpt lat="45.67101" lon="6.75787">
        <ele>1476.8</ele>
        <time>2022-06-15T07:39:23Z</time>
      </trkpt>
      <trkpt lat="45.67103" lon="6.75782">
        <ele>1476.9</ele>
        <time>2022-06-15T07:39:24Z</time>
      </trkpt>
      <trkpt lat="45.67104" lon="6.75778">
        <ele>1477.1</ele>
        <time>2022-06-15T07:39:25Z</time>
      </trkpt>
      <trkpt lat="45.67106" lon="6.75775">
        <ele>1477.2</ele>
        <time>2022-06-15T07:39:26Z</time>
      </trkpt>
      <trkpt lat="45.67108" lon="6.75771">
        <ele>1477.2</ele>
        <time>2022-06-15T07:39:27Z</time>
      </trkpt>
      <trkpt lat="45.6711" lon="6.75768">
        <ele>1477.7</ele>
        <time>2022-06-15T07:39:28Z</time>
      </trkpt>
      <trkpt lat="45.67113" lon="6.75765">
        <ele>1477.7</ele>
        <time>2022-06-15T07:39:29Z</time>
      </trkpt>
      <trkpt lat="45.67115" lon="6.75762">
        <ele>1477.4</ele>
        <time>2022-06-15T07:39:30Z</time>
      </trkpt>
      <trkpt lat="45.67117" lon="6.75759">
        <ele>1477</ele>
        <time>2022-06-15T07:39:31Z</time>
      </trkpt>
      <trkpt lat="45.67119" lon="6.75756">
        <ele>1476.7</ele>
        <time>2022-06-15T07:39:32Z</time>
      </trkpt>
      <trkpt lat="45.6712" lon="6.75754">
        <ele>1476.3</ele>
        <time>2022-06-15T07:39:33Z</time>
      </trkpt>
      <trkpt lat="45.67122" lon="6.75751">
        <ele>1476</ele>
        <time>2022-06-15T07:39:34Z</time>
      </trkpt>
      <trkpt lat="45.67124" lon="6.7575">
        <ele>1475.7</ele>
        <time>2022-06-15T07:39:35Z</time>
      </trkpt>
      <trkpt lat="45.67125" lon="6.75748">
        <ele>1475.5</ele>
        <time>2022-06-15T07:39:36Z</time>
      </trkpt>
      <trkpt lat="45.67127" lon="6.75748">
        <ele>1475.5</ele>
        <time>2022-06-15T07:39:37Z</time>
      </trkpt>
      <trkpt lat="45.67129" lon="6.75748">
        <ele>1475.6</ele>
        <time>2022-06-15T07:39:38Z</time>
      </trkpt>
      <trkpt lat="45.67131" lon="6.75747">
        <ele>1475.8</ele>
        <time>2022-06-15T07:39:39Z</time>
      </trkpt>
      <trkpt lat="45.67133" lon="6.75747">
        <ele>1476</ele>
        <time>2022-06-15T07:39:40Z</time>
      </trkpt>
      <trkpt lat="45.67135" lon="6.75747">
        <ele>1476.1</ele>
        <time>2022-06-15T07:39:41Z</time>
      </trkpt>
      <trkpt lat="45.67137" lon="6.75746">
        <ele>1476.1</ele>
        <time>2022-06-15T07:39:42Z</time>
      </trkpt>
      <trkpt lat="45.67139" lon="6.75746">
        <ele>1476.3</ele>
        <time>2022-06-15T07:39:43Z</time>
      </trkpt>
      <trkpt lat="45.67141" lon="6.75747">
        <ele>1476.4</ele>
        <time>2022-06-15T07:39:44Z</time>
      </trkpt>
      <trkpt lat="45.67143" lon="6.75747">
        <ele>1476.5</ele>
        <time>2022-06-15T07:39:45Z</time>
      </trkpt>
      <trkpt lat="45.67145" lon="6.75748">
        <ele>1476.5</ele>
        <time>2022-06-15T07:39:46Z</time>
      </trkpt>
      <trkpt lat="45.67147" lon="6.75748">
        <ele>1476.7</ele>
        <time>2022-06-15T07:39:47Z</time>
      </trkpt>
      <trkpt lat="45.67149" lon="6.75749">
        <ele>1476.8</ele>
        <time>2022-06-15T07:39:48Z</time>
      </trkpt>
      <trkpt lat="45.6715" lon="6.7575">
        <ele>1477</ele>
        <time>2022-06-15T07:39:49Z</time>
      </trkpt>
      <trkpt lat="45.67151" lon="6.7575">
        <ele>1477</ele>
        <time>2022-06-15T07:39:50Z</time>
      </trkpt>
      <trkpt lat="45.67153" lon="6.75751">
        <ele>1477.1</ele>
        <time>2022-06-15T07:39:51Z</time>
      </trkpt>
      <trkpt lat="45.67155" lon="6.75752">
        <ele>1477.2</ele>
        <time>2022-06-15T07:39:52Z</time>
      </trkpt>
      <trkpt lat="45.67157" lon="6.75753">
        <ele>1477.3</ele>
        <time>2022-06-15T07:39:53Z</time>
      </trkpt>
      <trkpt lat="45.6716" lon="6.75754">
        <ele>1477.4</ele>
        <time>2022-06-15T07:39:54Z</time>
      </trkpt>
      <trkpt lat="45.67162" lon="6.75755">
        <ele>1477.4</ele>
        <time>2022-06-15T07:39:55Z</time>
      </trkpt>
      <trkpt lat="45.67164" lon="6.75757">
        <ele>1477.5</ele>
        <time>2022-06-15T07:39:56Z</time>
      </trkpt>
      <trkpt lat="45.67166" lon="6.75758">
        <ele>1477.6</ele>
        <time>2022-06-15T07:39:57Z</time>
      </trkpt>
      <trkpt lat="45.67168" lon="6.7576">
        <ele>1477.8</ele>
        <time>2022-06-15T07:39:58Z</time>
      </trkpt>
      <trkpt lat="45.6717" lon="6.7576">
        <ele>1478.1</ele>
        <time>2022-06-15T07:39:59Z</time>
      </trkpt>
      <trkpt lat="45.67172" lon="6.75759">
        <ele>1478.2</ele>
        <time>2022-06-15T07:40:00Z</time>
      </trkpt>
      <trkpt lat="45.67174" lon="6.75758">
        <ele>1478.3</ele>
        <time>2022-06-15T07:40:01Z</time>
      </trkpt>
      <trkpt lat="45.67176" lon="6.75757">
        <ele>1478.4</ele>
        <time>2022-06-15T07:40:02Z</time>
      </trkpt>
      <trkpt lat="45.67179" lon="6.75756">
        <ele>1478.5</ele>
        <time>2022-06-15T07:40:03Z</time>
      </trkpt>
      <trkpt lat="45.67182" lon="6.75754">
        <ele>1478.6</ele>
        <time>2022-06-15T07:40:04Z</time>
      </trkpt>
      <trkpt lat="45.67185" lon="6.75752">
        <ele>1478.6</ele>
        <time>2022-06-15T07:40:05Z</time>
      </trkpt>
      <trkpt lat="45.67188" lon="6.7575">
        <ele>1478.5</ele>
        <time>2022-06-15T07:40:06Z</time>
      </trkpt>
      <trkpt lat="45.67191" lon="6.75748">
        <ele>1478.3</ele>
        <time>2022-06-15T07:40:07Z</time>
      </trkpt>
      <trkpt lat="45.67194" lon="6.75746">
        <ele>1478.1</ele>
        <time>2022-06-15T07:40:08Z</time>
      </trkpt>
      <trkpt lat="45.67197" lon="6.75745">
        <ele>1478.1</ele>
        <time>2022-06-15T07:40:09Z</time>
      </trkpt>
      <trkpt lat="45.67201" lon="6.75743">
        <ele>1478</ele>
        <time>2022-06-15T07:40:10Z</time>
      </trkpt>
      <trkpt lat="45.67204" lon="6.75741">
        <ele>1478</ele>
        <time>2022-06-15T07:40:11Z</time>
      </trkpt>
      <trkpt lat="45.67208" lon="6.7574">
        <ele>1478</ele>
        <time>2022-06-15T07:40:12Z</time>
      </trkpt>
      <trkpt lat="45.67212" lon="6.75738">
        <ele>1478.1</ele>
        <time>2022-06-15T07:40:13Z</time>
      </trkpt>
      <trkpt lat="45.67216" lon="6.75737">
        <ele>1478.2</ele>
        <time>2022-06-15T07:40:14Z</time>
      </trkpt>
      <trkpt lat="45.6722" lon="6.75736">
        <ele>1478.2</ele>
        <time>2022-06-15T07:40:15Z</time>
      </trkpt>
      <trkpt lat="45.67224" lon="6.75733">
        <ele>1478.3</ele>
        <time>2022-06-15T07:40:16Z</time>
      </trkpt>
      <trkpt lat="45.67228" lon="6.75731">
        <ele>1478.8</ele>
        <time>2022-06-15T07:40:17Z</time>
      </trkpt>
      <trkpt lat="45.67231" lon="6.75727">
        <ele>1479.2</ele>
        <time>2022-06-15T07:40:18Z</time>
      </trkpt>
      <trkpt lat="45.67235" lon="6.75723">
        <ele>1479.7</ele>
        <time>2022-06-15T07:40:19Z</time>
      </trkpt>
      <trkpt lat="45.67238" lon="6.7572">
        <ele>1480.1</ele>
        <time>2022-06-15T07:40:20Z</time>
      </trkpt>
      <trkpt lat="45.67242" lon="6.75715">
        <ele>1480.1</ele>
        <time>2022-06-15T07:40:21Z</time>
      </trkpt>
      <trkpt lat="45.67245" lon="6.7571">
        <ele>1479.9</ele>
        <time>2022-06-15T07:40:22Z</time>
      </trkpt>
      <trkpt lat="45.67248" lon="6.75705">
        <ele>1479.7</ele>
        <time>2022-06-15T07:40:23Z</time>
      </trkpt>
      <trkpt lat="45.67251" lon="6.75699">
        <ele>1479.6</ele>
        <time>2022-06-15T07:40:24Z</time>
      </trkpt>
      <trkpt lat="45.67254" lon="6.75694">
        <ele>1479.4</ele>
        <time>2022-06-15T07:40:25Z</time>
      </trkpt>
      <trkpt lat="45.67257" lon="6.75689">
        <ele>1478.8</ele>
        <time>2022-06-15T07:40:26Z</time>
      </trkpt>
      <trkpt lat="45.6726" lon="6.75684">
        <ele>1478.2</ele>
        <time>2022-06-15T07:40:27Z</time>
      </trkpt>
      <trkpt lat="45.67264" lon="6.7568">
        <ele>1478.2</ele>
        <time>2022-06-15T07:40:28Z</time>
      </trkpt>
      <trkpt lat="45.67267" lon="6.75676">
        <ele>1478.2</ele>
        <time>2022-06-15T07:40:29Z</time>
      </trkpt>
      <trkpt lat="45.6727" lon="6.75672">
        <ele>1478.2</ele>
        <time>2022-06-15T07:40:30Z</time>
      </trkpt>
      <trkpt lat="45.67274" lon="6.75668">
        <ele>1478.5</ele>
        <time>2022-06-15T07:40:31Z</time>
      </trkpt>
      <trkpt lat="45.67277" lon="6.75665">
        <ele>1479.1</ele>
        <time>2022-06-15T07:40:32Z</time>
      </trkpt>
      <trkpt lat="45.6728" lon="6.75661">
        <ele>1479.3</ele>
        <time>2022-06-15T07:40:33Z</time>
      </trkpt>
      <trkpt lat="45.67283" lon="6.75658">
        <ele>1479.3</ele>
        <time>2022-06-15T07:40:34Z</time>
      </trkpt>
      <trkpt lat="45.67286" lon="6.75654">
        <ele>1479.1</ele>
        <time>2022-06-15T07:40:35Z</time>
      </trkpt>
      <trkpt lat="45.6729" lon="6.7565">
        <ele>1479</ele>
        <time>2022-06-15T07:40:36Z</time>
      </trkpt>
      <trkpt lat="45.67293" lon="6.75646">
        <ele>1478.9</ele>
        <time>2022-06-15T07:40:37Z</time>
      </trkpt>
      <trkpt lat="45.67296" lon="6.75641">
        <ele>1478.6</ele>
        <time>2022-06-15T07:40:38Z</time>
      </trkpt>
      <trkpt lat="45.67298" lon="6.75636">
        <ele>1478.5</ele>
        <time>2022-06-15T07:40:39Z</time>
      </trkpt>
      <trkpt lat="45.67301" lon="6.7563">
        <ele>1478.4</ele>
        <time>2022-06-15T07:40:40Z</time>
      </trkpt>
      <trkpt lat="45.67303" lon="6.75624">
        <ele>1478.1</ele>
        <time>2022-06-15T07:40:41Z</time>
      </trkpt>
      <trkpt lat="45.67305" lon="6.75618">
        <ele>1477.8</ele>
        <time>2022-06-15T07:40:42Z</time>
      </trkpt>
      <trkpt lat="45.67307" lon="6.75612">
        <ele>1477.6</ele>
        <time>2022-06-15T07:40:43Z</time>
      </trkpt>
      <trkpt lat="45.67308" lon="6.75605">
        <ele>1478.1</ele>
        <time>2022-06-15T07:40:44Z</time>
      </trkpt>
      <trkpt lat="45.6731" lon="6.75599">
        <ele>1478.6</ele>
        <time>2022-06-15T07:40:45Z</time>
      </trkpt>
      <trkpt lat="45.67312" lon="6.75593">
        <ele>1479</ele>
        <time>2022-06-15T07:40:46Z</time>
      </trkpt>
      <trkpt lat="45.67313" lon="6.75587">
        <ele>1479.2</ele>
        <time>2022-06-15T07:40:47Z</time>
      </trkpt>
      <trkpt lat="45.67314" lon="6.75581">
        <ele>1479.2</ele>
        <time>2022-06-15T07:40:48Z</time>
      </trkpt>
      <trkpt lat="45.67316" lon="6.75575">
        <ele>1479</ele>
        <time>2022-06-15T07:40:49Z</time>
      </trkpt>
      <trkpt lat="45.67318" lon="6.75568">
        <ele>1478.7</ele>
        <time>2022-06-15T07:40:50Z</time>
      </trkpt>
      <trkpt lat="45.67319" lon="6.75561">
        <ele>1478.5</ele>
        <time>2022-06-15T07:40:51Z</time>
      </trkpt>
      <trkpt lat="45.67322" lon="6.75555">
        <ele>1478.6</ele>
        <time>2022-06-15T07:40:52Z</time>
      </trkpt>
      <trkpt lat="45.67324" lon="6.75549">
        <ele>1478.7</ele>
        <time>2022-06-15T07:40:53Z</time>
      </trkpt>
      <trkpt lat="45.67327" lon="6.75542">
        <ele>1478.7</ele>
        <time>2022-06-15T07:40:54Z</time>
      </trkpt>
      <trkpt lat="45.6733" lon="6.75536">
        <ele>1478.8</ele>
        <time>2022-06-15T07:40:55Z</time>
      </trkpt>
      <trkpt lat="45.67333" lon="6.75529">
        <ele>1479</ele>
        <time>2022-06-15T07:40:56Z</time>
      </trkpt>
      <trkpt lat="45.67337" lon="6.75523">
        <ele>1478.8</ele>
        <time>2022-06-15T07:40:57Z</time>
      </trkpt>
      <trkpt lat="45.67341" lon="6.75517">
        <ele>1478.7</ele>
        <time>2022-06-15T07:40:58Z</time>
      </trkpt>
      <trkpt lat="45.67345" lon="6.75512">
        <ele>1478.7</ele>
        <time>2022-06-15T07:40:59Z</time>
      </trkpt>
      <trkpt lat="45.67349" lon="6.75507">
        <ele>1478.5</ele>
        <time>2022-06-15T07:41:00Z</time>
      </trkpt>
      <trkpt lat="45.67354" lon="6.75501">
        <ele>1478.4</ele>
        <time>2022-06-15T07:41:01Z</time>
      </trkpt>
      <trkpt lat="45.67358" lon="6.75497">
        <ele>1478.6</ele>
        <time>2022-06-15T07:41:02Z</time>
      </trkpt>
      <trkpt lat="45.67363" lon="6.75491">
        <ele>1478.8</ele>
        <time>2022-06-15T07:41:03Z</time>
      </trkpt>
      <trkpt lat="45.67367" lon="6.75486">
        <ele>1479</ele>
        <time>2022-06-15T07:41:04Z</time>
      </trkpt>
      <trkpt lat="45.67372" lon="6.75481">
        <ele>1479.1</ele>
        <time>2022-06-15T07:41:05Z</time>
      </trkpt>
      <trkpt lat="45.67376" lon="6.75475">
        <ele>1479.3</ele>
        <time>2022-06-15T07:41:06Z</time>
      </trkpt>
      <trkpt lat="45.6738" lon="6.7547">
        <ele>1479.3</ele>
        <time>2022-06-15T07:41:07Z</time>
      </trkpt>
      <trkpt lat="45.67384" lon="6.75464">
        <ele>1479.1</ele>
        <time>2022-06-15T07:41:08Z</time>
      </trkpt>
      <trkpt lat="45.67387" lon="6.75458">
        <ele>1479</ele>
        <time>2022-06-15T07:41:09Z</time>
      </trkpt>
      <trkpt lat="45.6739" lon="6.75452">
        <ele>1479.2</ele>
        <time>2022-06-15T07:41:10Z</time>
      </trkpt>
      <trkpt lat="45.67393" lon="6.75446">
        <ele>1480.1</ele>
        <time>2022-06-15T07:41:11Z</time>
      </trkpt>
      <trkpt lat="45.67396" lon="6.75441">
        <ele>1481.3</ele>
        <time>2022-06-15T07:41:12Z</time>
      </trkpt>
      <trkpt lat="45.67398" lon="6.75435">
        <ele>1482.2</ele>
        <time>2022-06-15T07:41:13Z</time>
      </trkpt>
      <trkpt lat="45.67401" lon="6.75428">
        <ele>1482.5</ele>
        <time>2022-06-15T07:41:14Z</time>
      </trkpt>
      <trkpt lat="45.67403" lon="6.75422">
        <ele>1482.8</ele>
        <time>2022-06-15T07:41:15Z</time>
      </trkpt>
      <trkpt lat="45.67405" lon="6.75415">
        <ele>1482.6</ele>
        <time>2022-06-15T07:41:16Z</time>
      </trkpt>
      <trkpt lat="45.67407" lon="6.75409">
        <ele>1482.1</ele>
        <time>2022-06-15T07:41:17Z</time>
      </trkpt>
      <trkpt lat="45.6741" lon="6.75402">
        <ele>1481.7</ele>
        <time>2022-06-15T07:41:18Z</time>
      </trkpt>
      <trkpt lat="45.67413" lon="6.75396">
        <ele>1481.4</ele>
        <time>2022-06-15T07:41:19Z</time>
      </trkpt>
      <trkpt lat="45.67415" lon="6.75389">
        <ele>1480.1</ele>
        <time>2022-06-15T07:41:20Z</time>
      </trkpt>
      <trkpt lat="45.67416" lon="6.75382">
        <ele>1480</ele>
        <time>2022-06-15T07:41:21Z</time>
      </trkpt>
      <trkpt lat="45.67417" lon="6.75374">
        <ele>1479.6</ele>
        <time>2022-06-15T07:41:22Z</time>
      </trkpt>
      <trkpt lat="45.67418" lon="6.75366">
        <ele>1479.2</ele>
        <time>2022-06-15T07:41:23Z</time>
      </trkpt>
      <trkpt lat="45.6742" lon="6.75357">
        <ele>1479.1</ele>
        <time>2022-06-15T07:41:24Z</time>
      </trkpt>
      <trkpt lat="45.6742" lon="6.75349">
        <ele>1479.3</ele>
        <time>2022-06-15T07:41:25Z</time>
      </trkpt>
      <trkpt lat="45.6742" lon="6.7534">
        <ele>1479.3</ele>
        <time>2022-06-15T07:41:26Z</time>
      </trkpt>
      <trkpt lat="45.6742" lon="6.75332">
        <ele>1479.2</ele>
        <time>2022-06-15T07:41:27Z</time>
      </trkpt>
      <trkpt lat="45.6742" lon="6.75324">
        <ele>1479.1</ele>
        <time>2022-06-15T07:41:28Z</time>
      </trkpt>
      <trkpt lat="45.67419" lon="6.75316">
        <ele>1478.8</ele>
        <time>2022-06-15T07:41:29Z</time>
      </trkpt>
      <trkpt lat="45.67418" lon="6.75308">
        <ele>1478.5</ele>
        <time>2022-06-15T07:41:30Z</time>
      </trkpt>
      <trkpt lat="45.67417" lon="6.753">
        <ele>1478.2</ele>
        <time>2022-06-15T07:41:31Z</time>
      </trkpt>
      <trkpt lat="45.67417" lon="6.75293">
        <ele>1478</ele>
        <time>2022-06-15T07:41:32Z</time>
      </trkpt>
      <trkpt lat="45.67416" lon="6.75285">
        <ele>1477.8</ele>
        <time>2022-06-15T07:41:33Z</time>
      </trkpt>
      <trkpt lat="45.67416" lon="6.75278">
        <ele>1477.7</ele>
        <time>2022-06-15T07:41:34Z</time>
      </trkpt>
      <trkpt lat="45.67416" lon="6.7527">
        <ele>1477.5</ele>
        <time>2022-06-15T07:41:35Z</time>
      </trkpt>
      <trkpt lat="45.67415" lon="6.75263">
        <ele>1477.2</ele>
        <time>2022-06-15T07:41:36Z</time>
      </trkpt>
      <trkpt lat="45.67415" lon="6.75255">
        <ele>1477</ele>
        <time>2022-06-15T07:41:37Z</time>
      </trkpt>
      <trkpt lat="45.67415" lon="6.75248">
        <ele>1476.9</ele>
        <time>2022-06-15T07:41:38Z</time>
      </trkpt>
      <trkpt lat="45.67416" lon="6.75241">
        <ele>1477.2</ele>
        <time>2022-06-15T07:41:39Z</time>
      </trkpt>
      <trkpt lat="45.67416" lon="6.75234">
        <ele>1477.4</ele>
        <time>2022-06-15T07:41:40Z</time>
      </trkpt>
      <trkpt lat="45.67416" lon="6.75226">
        <ele>1477.7</ele>
        <time>2022-06-15T07:41:41Z</time>
      </trkpt>
      <trkpt lat="45.67417" lon="6.75219">
        <ele>1478</ele>
        <time>2022-06-15T07:41:42Z</time>
      </trkpt>
      <trkpt lat="45.67417" lon="6.75211">
        <ele>1478.1</ele>
        <time>2022-06-15T07:41:43Z</time>
      </trkpt>
      <trkpt lat="45.67418" lon="6.75203">
        <ele>1478.4</ele>
        <time>2022-06-15T07:41:44Z</time>
      </trkpt>
      <trkpt lat="45.67419" lon="6.75195">
        <ele>1478.6</ele>
        <time>2022-06-15T07:41:45Z</time>
      </trkpt>
      <trkpt lat="45.6742" lon="6.75187">
        <ele>1478.5</ele>
        <time>2022-06-15T07:41:46Z</time>
      </trkpt>
      <trkpt lat="45.67421" lon="6.75179">
        <ele>1478.6</ele>
        <time>2022-06-15T07:41:47Z</time>
      </trkpt>
      <trkpt lat="45.67423" lon="6.75171">
        <ele>1478.8</ele>
        <time>2022-06-15T07:41:48Z</time>
      </trkpt>
      <trkpt lat="45.67425" lon="6.75163">
        <ele>1478.7</ele>
        <time>2022-06-15T07:41:49Z</time>
      </trkpt>
      <trkpt lat="45.67428" lon="6.75156">
        <ele>1478.5</ele>
        <time>2022-06-15T07:41:50Z</time>
      </trkpt>
      <trkpt lat="45.67431" lon="6.7515">
        <ele>1478.4</ele>
        <time>2022-06-15T07:41:51Z</time>
      </trkpt>
      <trkpt lat="45.67435" lon="6.75143">
        <ele>1478.4</ele>
        <time>2022-06-15T07:41:52Z</time>
      </trkpt>
      <trkpt lat="45.67438" lon="6.75137">
        <ele>1478.4</ele>
        <time>2022-06-15T07:41:53Z</time>
      </trkpt>
      <trkpt lat="45.67442" lon="6.75131">
        <ele>1478.4</ele>
        <time>2022-06-15T07:41:54Z</time>
      </trkpt>
      <trkpt lat="45.67446" lon="6.75125">
        <ele>1478.4</ele>
        <time>2022-06-15T07:41:55Z</time>
      </trkpt>
      <trkpt lat="45.6745" lon="6.75119">
        <ele>1478.6</ele>
        <time>2022-06-15T07:41:56Z</time>
      </trkpt>
      <trkpt lat="45.67454" lon="6.75113">
        <ele>1478.7</ele>
        <time>2022-06-15T07:41:57Z</time>
      </trkpt>
      <trkpt lat="45.67458" lon="6.75107">
        <ele>1478.9</ele>
        <time>2022-06-15T07:41:58Z</time>
      </trkpt>
      <trkpt lat="45.67462" lon="6.75101">
        <ele>1479</ele>
        <time>2022-06-15T07:41:59Z</time>
      </trkpt>
      <trkpt lat="45.67466" lon="6.75095">
        <ele>1479.1</ele>
        <time>2022-06-15T07:42:00Z</time>
      </trkpt>
      <trkpt lat="45.6747" lon="6.75089">
        <ele>1479.2</ele>
        <time>2022-06-15T07:42:01Z</time>
      </trkpt>
      <trkpt lat="45.67474" lon="6.75083">
        <ele>1479.4</ele>
        <time>2022-06-15T07:42:02Z</time>
      </trkpt>
      <trkpt lat="45.67478" lon="6.75078">
        <ele>1479.4</ele>
        <time>2022-06-15T07:42:03Z</time>
      </trkpt>
      <trkpt lat="45.67483" lon="6.75072">
        <ele>1479.3</ele>
        <time>2022-06-15T07:42:04Z</time>
      </trkpt>
      <trkpt lat="45.67487" lon="6.75067">
        <ele>1479.2</ele>
        <time>2022-06-15T07:42:05Z</time>
      </trkpt>
      <trkpt lat="45.67491" lon="6.75062">
        <ele>1478.9</ele>
        <time>2022-06-15T07:42:06Z</time>
      </trkpt>
      <trkpt lat="45.67496" lon="6.75057">
        <ele>1478.7</ele>
        <time>2022-06-15T07:42:07Z</time>
      </trkpt>
      <trkpt lat="45.67501" lon="6.75053">
        <ele>1478.6</ele>
        <time>2022-06-15T07:42:08Z</time>
      </trkpt>
      <trkpt lat="45.67505" lon="6.75048">
        <ele>1478.9</ele>
        <time>2022-06-15T07:42:09Z</time>
      </trkpt>
      <trkpt lat="45.6751" lon="6.75044">
        <ele>1479.1</ele>
        <time>2022-06-15T07:42:10Z</time>
      </trkpt>
      <trkpt lat="45.67515" lon="6.75039">
        <ele>1479.1</ele>
        <time>2022-06-15T07:42:11Z</time>
      </trkpt>
      <trkpt lat="45.6752" lon="6.75034">
        <ele>1479</ele>
        <time>2022-06-15T07:42:12Z</time>
      </trkpt>
      <trkpt lat="45.67524" lon="6.75029">
        <ele>1478.7</ele>
        <time>2022-06-15T07:42:13Z</time>
      </trkpt>
      <trkpt lat="45.67528" lon="6.75024">
        <ele>1478.9</ele>
        <time>2022-06-15T07:42:14Z</time>
      </trkpt>
      <trkpt lat="45.67532" lon="6.75018">
        <ele>1479.8</ele>
        <time>2022-06-15T07:42:15Z</time>
      </trkpt>
      <trkpt lat="45.67536" lon="6.75012">
        <ele>1480.2</ele>
        <time>2022-06-15T07:42:16Z</time>
      </trkpt>
      <trkpt lat="45.67539" lon="6.75006">
        <ele>1480.6</ele>
        <time>2022-06-15T07:42:17Z</time>
      </trkpt>
      <trkpt lat="45.67543" lon="6.75">
        <ele>1480.7</ele>
        <time>2022-06-15T07:42:18Z</time>
      </trkpt>
      <trkpt lat="45.67546" lon="6.74993">
        <ele>1481</ele>
        <time>2022-06-15T07:42:19Z</time>
      </trkpt>
      <trkpt lat="45.67549" lon="6.74987">
        <ele>1481.1</ele>
        <time>2022-06-15T07:42:20Z</time>
      </trkpt>
      <trkpt lat="45.67552" lon="6.7498">
        <ele>1481</ele>
        <time>2022-06-15T07:42:21Z</time>
      </trkpt>
      <trkpt lat="45.67554" lon="6.74973">
        <ele>1480.8</ele>
        <time>2022-06-15T07:42:22Z</time>
      </trkpt>
      <trkpt lat="45.67556" lon="6.74966">
        <ele>1480.7</ele>
        <time>2022-06-15T07:42:23Z</time>
      </trkpt>
      <trkpt lat="45.67558" lon="6.7496">
        <ele>1481.3</ele>
        <time>2022-06-15T07:42:24Z</time>
      </trkpt>
      <trkpt lat="45.6756" lon="6.74953">
        <ele>1481.6</ele>
        <time>2022-06-15T07:42:25Z</time>
      </trkpt>
      <trkpt lat="45.67561" lon="6.74947">
        <ele>1481.9</ele>
        <time>2022-06-15T07:42:26Z</time>
      </trkpt>
      <trkpt lat="45.67563" lon="6.74941">
        <ele>1482.3</ele>
        <time>2022-06-15T07:42:27Z</time>
      </trkpt>
      <trkpt lat="45.67565" lon="6.74934">
        <ele>1482.7</ele>
        <time>2022-06-15T07:42:28Z</time>
      </trkpt>
      <trkpt lat="45.67567" lon="6.74928">
        <ele>1483</ele>
        <time>2022-06-15T07:42:29Z</time>
      </trkpt>
      <trkpt lat="45.67568" lon="6.74922">
        <ele>1483</ele>
        <time>2022-06-15T07:42:30Z</time>
      </trkpt>
      <trkpt lat="45.67569" lon="6.74915">
        <ele>1482.9</ele>
        <time>2022-06-15T07:42:31Z</time>
      </trkpt>
      <trkpt lat="45.67569" lon="6.74909">
        <ele>1483.2</ele>
        <time>2022-06-15T07:42:32Z</time>
      </trkpt>
      <trkpt lat="45.67569" lon="6.74902">
        <ele>1483.5</ele>
        <time>2022-06-15T07:42:33Z</time>
      </trkpt>
      <trkpt lat="45.6757" lon="6.74896">
        <ele>1483.8</ele>
        <time>2022-06-15T07:42:34Z</time>
      </trkpt>
      <trkpt lat="45.6757" lon="6.7489">
        <ele>1484</ele>
        <time>2022-06-15T07:42:35Z</time>
      </trkpt>
      <trkpt lat="45.6757" lon="6.74883">
        <ele>1484.6</ele>
        <time>2022-06-15T07:42:36Z</time>
      </trkpt>
      <trkpt lat="45.67571" lon="6.74877">
        <ele>1485.2</ele>
        <time>2022-06-15T07:42:37Z</time>
      </trkpt>
      <trkpt lat="45.67571" lon="6.74871">
        <ele>1485.7</ele>
        <time>2022-06-15T07:42:38Z</time>
      </trkpt>
      <trkpt lat="45.67572" lon="6.74865">
        <ele>1486.3</ele>
        <time>2022-06-15T07:42:39Z</time>
      </trkpt>
      <trkpt lat="45.67572" lon="6.7486">
        <ele>1486.6</ele>
        <time>2022-06-15T07:42:40Z</time>
      </trkpt>
      <trkpt lat="45.67573" lon="6.74855">
        <ele>1486.6</ele>
        <time>2022-06-15T07:42:41Z</time>
      </trkpt>
      <trkpt lat="45.67574" lon="6.7485">
        <ele>1486.5</ele>
        <time>2022-06-15T07:42:42Z</time>
      </trkpt>
      <trkpt lat="45.67575" lon="6.74845">
        <ele>1486.4</ele>
        <time>2022-06-15T07:42:43Z</time>
      </trkpt>
      <trkpt lat="45.67576" lon="6.74841">
        <ele>1486.5</ele>
        <time>2022-06-15T07:42:44Z</time>
      </trkpt>
      <trkpt lat="45.67578" lon="6.74837">
        <ele>1486.6</ele>
        <time>2022-06-15T07:42:45Z</time>
      </trkpt>
      <trkpt lat="45.67579" lon="6.74834">
        <ele>1486.8</ele>
        <time>2022-06-15T07:42:46Z</time>
      </trkpt>
      <trkpt lat="45.67581" lon="6.7483">
        <ele>1486.9</ele>
        <time>2022-06-15T07:42:47Z</time>
      </trkpt>
      <trkpt lat="45.67582" lon="6.74827">
        <ele>1486.8</ele>
        <time>2022-06-15T07:42:48Z</time>
      </trkpt>
      <trkpt lat="45.67584" lon="6.74823">
        <ele>1486.7</ele>
        <time>2022-06-15T07:42:49Z</time>
      </trkpt>
      <trkpt lat="45.67585" lon="6.7482">
        <ele>1487.2</ele>
        <time>2022-06-15T07:42:50Z</time>
      </trkpt>
      <trkpt lat="45.67587" lon="6.74817">
        <ele>1487.6</ele>
        <time>2022-06-15T07:42:51Z</time>
      </trkpt>
      <trkpt lat="45.67589" lon="6.74813">
        <ele>1488</ele>
        <time>2022-06-15T07:42:52Z</time>
      </trkpt>
      <trkpt lat="45.67591" lon="6.7481">
        <ele>1488.6</ele>
        <time>2022-06-15T07:42:53Z</time>
      </trkpt>
      <trkpt lat="45.67592" lon="6.74807">
        <ele>1488.9</ele>
        <time>2022-06-15T07:42:54Z</time>
      </trkpt>
      <trkpt lat="45.67593" lon="6.74804">
        <ele>1489.2</ele>
        <time>2022-06-15T07:42:55Z</time>
      </trkpt>
      <trkpt lat="45.67595" lon="6.748">
        <ele>1489.7</ele>
        <time>2022-06-15T07:42:56Z</time>
      </trkpt>
      <trkpt lat="45.67596" lon="6.74797">
        <ele>1489.9</ele>
        <time>2022-06-15T07:42:57Z</time>
      </trkpt>
      <trkpt lat="45.67598" lon="6.74794">
        <ele>1490.1</ele>
        <time>2022-06-15T07:42:58Z</time>
      </trkpt>
      <trkpt lat="45.67599" lon="6.7479">
        <ele>1490.2</ele>
        <time>2022-06-15T07:42:59Z</time>
      </trkpt>
      <trkpt lat="45.676" lon="6.74787">
        <ele>1490</ele>
        <time>2022-06-15T07:43:00Z</time>
      </trkpt>
      <trkpt lat="45.67601" lon="6.74783">
        <ele>1489.7</ele>
        <time>2022-06-15T07:43:01Z</time>
      </trkpt>
      <trkpt lat="45.67602" lon="6.74779">
        <ele>1489.4</ele>
        <time>2022-06-15T07:43:02Z</time>
      </trkpt>
      <trkpt lat="45.67604" lon="6.74776">
        <ele>1489.1</ele>
        <time>2022-06-15T07:43:03Z</time>
      </trkpt>
      <trkpt lat="45.67605" lon="6.74773">
        <ele>1488.9</ele>
        <time>2022-06-15T07:43:04Z</time>
      </trkpt>
      <trkpt lat="45.67606" lon="6.74769">
        <ele>1488.7</ele>
        <time>2022-06-15T07:43:05Z</time>
      </trkpt>
      <trkpt lat="45.67607" lon="6.74766">
        <ele>1488.4</ele>
        <time>2022-06-15T07:43:06Z</time>
      </trkpt>
      <trkpt lat="45.67608" lon="6.74762">
        <ele>1488.1</ele>
        <time>2022-06-15T07:43:07Z</time>
      </trkpt>
      <trkpt lat="45.67609" lon="6.74758">
        <ele>1487.8</ele>
        <time>2022-06-15T07:43:08Z</time>
      </trkpt>
      <trkpt lat="45.67611" lon="6.74755">
        <ele>1487.6</ele>
        <time>2022-06-15T07:43:09Z</time>
      </trkpt>
      <trkpt lat="45.67612" lon="6.74751">
        <ele>1487.5</ele>
        <time>2022-06-15T07:43:10Z</time>
      </trkpt>
      <trkpt lat="45.67613" lon="6.74748">
        <ele>1487.8</ele>
        <time>2022-06-15T07:43:11Z</time>
      </trkpt>
      <trkpt lat="45.67615" lon="6.74744">
        <ele>1488.2</ele>
        <time>2022-06-15T07:43:12Z</time>
      </trkpt>
      <trkpt lat="45.67616" lon="6.74741">
        <ele>1488.7</ele>
        <time>2022-06-15T07:43:13Z</time>
      </trkpt>
      <trkpt lat="45.67618" lon="6.74737">
        <ele>1489</ele>
        <time>2022-06-15T07:43:14Z</time>
      </trkpt>
      <trkpt lat="45.67619" lon="6.74734">
        <ele>1489.3</ele>
        <time>2022-06-15T07:43:15Z</time>
      </trkpt>
      <trkpt lat="45.67621" lon="6.7473">
        <ele>1489.6</ele>
        <time>2022-06-15T07:43:16Z</time>
      </trkpt>
      <trkpt lat="45.67623" lon="6.74727">
        <ele>1489.8</ele>
        <time>2022-06-15T07:43:17Z</time>
      </trkpt>
      <trkpt lat="45.67625" lon="6.74724">
        <ele>1490</ele>
        <time>2022-06-15T07:43:18Z</time>
      </trkpt>
      <trkpt lat="45.67626" lon="6.74721">
        <ele>1490.1</ele>
        <time>2022-06-15T07:43:19Z</time>
      </trkpt>
      <trkpt lat="45.67628" lon="6.74717">
        <ele>1490.3</ele>
        <time>2022-06-15T07:43:20Z</time>
      </trkpt>
      <trkpt lat="45.6763" lon="6.74714">
        <ele>1490.4</ele>
        <time>2022-06-15T07:43:21Z</time>
      </trkpt>
      <trkpt lat="45.67632" lon="6.74712">
        <ele>1490.5</ele>
        <time>2022-06-15T07:43:22Z</time>
      </trkpt>
      <trkpt lat="45.67634" lon="6.74709">
        <ele>1490.7</ele>
        <time>2022-06-15T07:43:23Z</time>
      </trkpt>
      <trkpt lat="45.67637" lon="6.74706">
        <ele>1490.7</ele>
        <time>2022-06-15T07:43:24Z</time>
      </trkpt>
      <trkpt lat="45.67639" lon="6.74704">
        <ele>1490.6</ele>
        <time>2022-06-15T07:43:25Z</time>
      </trkpt>
      <trkpt lat="45.67641" lon="6.74701">
        <ele>1490.6</ele>
        <time>2022-06-15T07:43:26Z</time>
      </trkpt>
      <trkpt lat="45.67644" lon="6.74699">
        <ele>1490.8</ele>
        <time>2022-06-15T07:43:27Z</time>
      </trkpt>
      <trkpt lat="45.67647" lon="6.74698">
        <ele>1490.8</ele>
        <time>2022-06-15T07:43:28Z</time>
      </trkpt>
      <trkpt lat="45.67649" lon="6.74696">
        <ele>1490.8</ele>
        <time>2022-06-15T07:43:29Z</time>
      </trkpt>
      <trkpt lat="45.67652" lon="6.74694">
        <ele>1490.8</ele>
        <time>2022-06-15T07:43:30Z</time>
      </trkpt>
      <trkpt lat="45.67655" lon="6.74692">
        <ele>1491</ele>
        <time>2022-06-15T07:43:31Z</time>
      </trkpt>
      <trkpt lat="45.67657" lon="6.74691">
        <ele>1491.1</ele>
        <time>2022-06-15T07:43:32Z</time>
      </trkpt>
      <trkpt lat="45.6766" lon="6.74689">
        <ele>1491.2</ele>
        <time>2022-06-15T07:43:33Z</time>
      </trkpt>
      <trkpt lat="45.67662" lon="6.74687">
        <ele>1491.2</ele>
        <time>2022-06-15T07:43:34Z</time>
      </trkpt>
      <trkpt lat="45.67664" lon="6.74685">
        <ele>1491.3</ele>
        <time>2022-06-15T07:43:35Z</time>
      </trkpt>
      <trkpt lat="45.67667" lon="6.74684">
        <ele>1491.4</ele>
        <time>2022-06-15T07:43:36Z</time>
      </trkpt>
      <trkpt lat="45.67669" lon="6.74682">
        <ele>1491.5</ele>
        <time>2022-06-15T07:43:37Z</time>
      </trkpt>
      <trkpt lat="45.67672" lon="6.74681">
        <ele>1491.7</ele>
        <time>2022-06-15T07:43:38Z</time>
      </trkpt>
      <trkpt lat="45.67675" lon="6.74679">
        <ele>1491.7</ele>
        <time>2022-06-15T07:43:39Z</time>
      </trkpt>
      <trkpt lat="45.67677" lon="6.74677">
        <ele>1491.8</ele>
        <time>2022-06-15T07:43:40Z</time>
      </trkpt>
      <trkpt lat="45.6768" lon="6.74675">
        <ele>1491.8</ele>
        <time>2022-06-15T07:43:41Z</time>
      </trkpt>
      <trkpt lat="45.67683" lon="6.74673">
        <ele>1491.7</ele>
        <time>2022-06-15T07:43:42Z</time>
      </trkpt>
      <trkpt lat="45.67685" lon="6.7467">
        <ele>1491.5</ele>
        <time>2022-06-15T07:43:43Z</time>
      </trkpt>
      <trkpt lat="45.67687" lon="6.74667">
        <ele>1491.3</ele>
        <time>2022-06-15T07:43:44Z</time>
      </trkpt>
      <trkpt lat="45.6769" lon="6.74665">
        <ele>1491.3</ele>
        <time>2022-06-15T07:43:45Z</time>
      </trkpt>
      <trkpt lat="45.67692" lon="6.74661">
        <ele>1491.3</ele>
        <time>2022-06-15T07:43:46Z</time>
      </trkpt>
      <trkpt lat="45.67694" lon="6.74659">
        <ele>1491.4</ele>
        <time>2022-06-15T07:43:47Z</time>
      </trkpt>
      <trkpt lat="45.67697" lon="6.74656">
        <ele>1491.7</ele>
        <time>2022-06-15T07:43:48Z</time>
      </trkpt>
      <trkpt lat="45.67699" lon="6.74653">
        <ele>1492</ele>
        <time>2022-06-15T07:43:49Z</time>
      </trkpt>
      <trkpt lat="45.67701" lon="6.7465">
        <ele>1492.3</ele>
        <time>2022-06-15T07:43:50Z</time>
      </trkpt>
      <trkpt lat="45.67703" lon="6.74647">
        <ele>1492.4</ele>
        <time>2022-06-15T07:43:51Z</time>
      </trkpt>
      <trkpt lat="45.67705" lon="6.74644">
        <ele>1492.5</ele>
        <time>2022-06-15T07:43:52Z</time>
      </trkpt>
      <trkpt lat="45.67708" lon="6.74641">
        <ele>1492.6</ele>
        <time>2022-06-15T07:43:53Z</time>
      </trkpt>
      <trkpt lat="45.6771" lon="6.74638">
        <ele>1492.7</ele>
        <time>2022-06-15T07:43:54Z</time>
      </trkpt>
      <trkpt lat="45.67713" lon="6.74633">
        <ele>1493.1</ele>
        <time>2022-06-15T07:43:55Z</time>
      </trkpt>
      <trkpt lat="45.67714" lon="6.74632">
        <ele>1493.2</ele>
        <time>2022-06-15T07:43:56Z</time>
      </trkpt>
      <trkpt lat="45.67716" lon="6.74629">
        <ele>1493.5</ele>
        <time>2022-06-15T07:43:57Z</time>
      </trkpt>
      <trkpt lat="45.67718" lon="6.74625">
        <ele>1493.7</ele>
        <time>2022-06-15T07:43:58Z</time>
      </trkpt>
      <trkpt lat="45.6772" lon="6.74622">
        <ele>1493.9</ele>
        <time>2022-06-15T07:43:59Z</time>
      </trkpt>
      <trkpt lat="45.67722" lon="6.74618">
        <ele>1494.2</ele>
        <time>2022-06-15T07:44:00Z</time>
      </trkpt>
      <trkpt lat="45.67724" lon="6.74615">
        <ele>1494.3</ele>
        <time>2022-06-15T07:44:01Z</time>
      </trkpt>
      <trkpt lat="45.67725" lon="6.74612">
        <ele>1494.3</ele>
        <time>2022-06-15T07:44:02Z</time>
      </trkpt>
      <trkpt lat="45.67727" lon="6.74608">
        <ele>1494.3</ele>
        <time>2022-06-15T07:44:03Z</time>
      </trkpt>
      <trkpt lat="45.67729" lon="6.74605">
        <ele>1494.3</ele>
        <time>2022-06-15T07:44:04Z</time>
      </trkpt>
      <trkpt lat="45.6773" lon="6.74601">
        <ele>1494.3</ele>
        <time>2022-06-15T07:44:05Z</time>
      </trkpt>
      <trkpt lat="45.67732" lon="6.74598">
        <ele>1494.2</ele>
        <time>2022-06-15T07:44:06Z</time>
      </trkpt>
      <trkpt lat="45.67733" lon="6.74594">
        <ele>1494</ele>
        <time>2022-06-15T07:44:07Z</time>
      </trkpt>
      <trkpt lat="45.67734" lon="6.7459">
        <ele>1493.9</ele>
        <time>2022-06-15T07:44:08Z</time>
      </trkpt>
      <trkpt lat="45.67736" lon="6.74587">
        <ele>1493.7</ele>
        <time>2022-06-15T07:44:09Z</time>
      </trkpt>
      <trkpt lat="45.67737" lon="6.74583">
        <ele>1493.5</ele>
        <time>2022-06-15T07:44:10Z</time>
      </trkpt>
      <trkpt lat="45.67738" lon="6.74579">
        <ele>1493.6</ele>
        <time>2022-06-15T07:44:11Z</time>
      </trkpt>
      <trkpt lat="45.67739" lon="6.74575">
        <ele>1493.7</ele>
        <time>2022-06-15T07:44:12Z</time>
      </trkpt>
      <trkpt lat="45.6774" lon="6.74572">
        <ele>1493.9</ele>
        <time>2022-06-15T07:44:13Z</time>
      </trkpt>
      <trkpt lat="45.67742" lon="6.74568">
        <ele>1494.1</ele>
        <time>2022-06-15T07:44:14Z</time>
      </trkpt>
      <trkpt lat="45.67743" lon="6.74565">
        <ele>1494.4</ele>
        <time>2022-06-15T07:44:15Z</time>
      </trkpt>
      <trkpt lat="45.67744" lon="6.74561">
        <ele>1494.8</ele>
        <time>2022-06-15T07:44:16Z</time>
      </trkpt>
      <trkpt lat="45.67746" lon="6.74557">
        <ele>1495.2</ele>
        <time>2022-06-15T07:44:17Z</time>
      </trkpt>
      <trkpt lat="45.67747" lon="6.74554">
        <ele>1495.5</ele>
        <time>2022-06-15T07:44:18Z</time>
      </trkpt>
      <trkpt lat="45.67749" lon="6.7455">
        <ele>1495.9</ele>
        <time>2022-06-15T07:44:19Z</time>
      </trkpt>
      <trkpt lat="45.6775" lon="6.74546">
        <ele>1496.3</ele>
        <time>2022-06-15T07:44:20Z</time>
      </trkpt>
      <trkpt lat="45.67752" lon="6.74543">
        <ele>1496.5</ele>
        <time>2022-06-15T07:44:21Z</time>
      </trkpt>
      <trkpt lat="45.67753" lon="6.7454">
        <ele>1496.6</ele>
        <time>2022-06-15T07:44:22Z</time>
      </trkpt>
      <trkpt lat="45.67754" lon="6.74536">
        <ele>1496.7</ele>
        <time>2022-06-15T07:44:23Z</time>
      </trkpt>
      <trkpt lat="45.67756" lon="6.74533">
        <ele>1496.7</ele>
        <time>2022-06-15T07:44:24Z</time>
      </trkpt>
      <trkpt lat="45.67757" lon="6.74529">
        <ele>1496.7</ele>
        <time>2022-06-15T07:44:25Z</time>
      </trkpt>
      <trkpt lat="45.67759" lon="6.74525">
        <ele>1496.2</ele>
        <time>2022-06-15T07:44:26Z</time>
      </trkpt>
      <trkpt lat="45.6776" lon="6.74522">
        <ele>1495.4</ele>
        <time>2022-06-15T07:44:27Z</time>
      </trkpt>
      <trkpt lat="45.67762" lon="6.74518">
        <ele>1494.7</ele>
        <time>2022-06-15T07:44:28Z</time>
      </trkpt>
      <trkpt lat="45.67763" lon="6.74514">
        <ele>1494</ele>
        <time>2022-06-15T07:44:29Z</time>
      </trkpt>
      <trkpt lat="45.67764" lon="6.7451">
        <ele>1493.3</ele>
        <time>2022-06-15T07:44:30Z</time>
      </trkpt>
      <trkpt lat="45.67766" lon="6.74507">
        <ele>1492.7</ele>
        <time>2022-06-15T07:44:31Z</time>
      </trkpt>
      <trkpt lat="45.67767" lon="6.74502">
        <ele>1492</ele>
        <time>2022-06-15T07:44:32Z</time>
      </trkpt>
      <trkpt lat="45.67768" lon="6.74499">
        <ele>1491.9</ele>
        <time>2022-06-15T07:44:33Z</time>
      </trkpt>
      <trkpt lat="45.6777" lon="6.74495">
        <ele>1492.6</ele>
        <time>2022-06-15T07:44:34Z</time>
      </trkpt>
      <trkpt lat="45.67771" lon="6.74491">
        <ele>1493.4</ele>
        <time>2022-06-15T07:44:35Z</time>
      </trkpt>
      <trkpt lat="45.67773" lon="6.74487">
        <ele>1494.2</ele>
        <time>2022-06-15T07:44:36Z</time>
      </trkpt>
      <trkpt lat="45.67774" lon="6.74483">
        <ele>1495.1</ele>
        <time>2022-06-15T07:44:37Z</time>
      </trkpt>
      <trkpt lat="45.67775" lon="6.7448">
        <ele>1496</ele>
        <time>2022-06-15T07:44:38Z</time>
      </trkpt>
      <trkpt lat="45.67777" lon="6.74476">
        <ele>1497</ele>
        <time>2022-06-15T07:44:39Z</time>
      </trkpt>
      <trkpt lat="45.67778" lon="6.74472">
        <ele>1498</ele>
        <time>2022-06-15T07:44:40Z</time>
      </trkpt>
      <trkpt lat="45.6778" lon="6.74468">
        <ele>1498</ele>
        <time>2022-06-15T07:44:41Z</time>
      </trkpt>
      <trkpt lat="45.67781" lon="6.74464">
        <ele>1498.1</ele>
        <time>2022-06-15T07:44:42Z</time>
      </trkpt>
      <trkpt lat="45.67783" lon="6.74461">
        <ele>1498.1</ele>
        <time>2022-06-15T07:44:43Z</time>
      </trkpt>
      <trkpt lat="45.67784" lon="6.74457">
        <ele>1498.1</ele>
        <time>2022-06-15T07:44:44Z</time>
      </trkpt>
      <trkpt lat="45.67786" lon="6.74453">
        <ele>1498.1</ele>
        <time>2022-06-15T07:44:45Z</time>
      </trkpt>
      <trkpt lat="45.67787" lon="6.7445">
        <ele>1498.1</ele>
        <time>2022-06-15T07:44:46Z</time>
      </trkpt>
      <trkpt lat="45.67788" lon="6.74446">
        <ele>1498.1</ele>
        <time>2022-06-15T07:44:47Z</time>
      </trkpt>
      <trkpt lat="45.67789" lon="6.74442">
        <ele>1498.2</ele>
        <time>2022-06-15T07:44:48Z</time>
      </trkpt>
      <trkpt lat="45.67791" lon="6.74438">
        <ele>1498.3</ele>
        <time>2022-06-15T07:44:49Z</time>
      </trkpt>
      <trkpt lat="45.67792" lon="6.74435">
        <ele>1498.5</ele>
        <time>2022-06-15T07:44:50Z</time>
      </trkpt>
      <trkpt lat="45.67793" lon="6.74431">
        <ele>1498.8</ele>
        <time>2022-06-15T07:44:51Z</time>
      </trkpt>
      <trkpt lat="45.67795" lon="6.74427">
        <ele>1499.1</ele>
        <time>2022-06-15T07:44:52Z</time>
      </trkpt>
      <trkpt lat="45.67796" lon="6.74424">
        <ele>1499.5</ele>
        <time>2022-06-15T07:44:53Z</time>
      </trkpt>
      <trkpt lat="45.67797" lon="6.7442">
        <ele>1499.9</ele>
        <time>2022-06-15T07:44:54Z</time>
      </trkpt>
      <trkpt lat="45.67799" lon="6.74416">
        <ele>1500.3</ele>
        <time>2022-06-15T07:44:55Z</time>
      </trkpt>
      <trkpt lat="45.678" lon="6.74413">
        <ele>1500.8</ele>
        <time>2022-06-15T07:44:56Z</time>
      </trkpt>
      <trkpt lat="45.67801" lon="6.74409">
        <ele>1501.4</ele>
        <time>2022-06-15T07:44:57Z</time>
      </trkpt>
      <trkpt lat="45.67802" lon="6.74406">
        <ele>1501.9</ele>
        <time>2022-06-15T07:44:58Z</time>
      </trkpt>
      <trkpt lat="45.67804" lon="6.74402">
        <ele>1502.6</ele>
        <time>2022-06-15T07:44:59Z</time>
      </trkpt>
      <trkpt lat="45.67805" lon="6.74399">
        <ele>1503.2</ele>
        <time>2022-06-15T07:45:00Z</time>
      </trkpt>
      <trkpt lat="45.67806" lon="6.74395">
        <ele>1503.7</ele>
        <time>2022-06-15T07:45:01Z</time>
      </trkpt>
      <trkpt lat="45.67808" lon="6.74392">
        <ele>1504.1</ele>
        <time>2022-06-15T07:45:02Z</time>
      </trkpt>
      <trkpt lat="45.67809" lon="6.74388">
        <ele>1504.3</ele>
        <time>2022-06-15T07:45:03Z</time>
      </trkpt>
      <trkpt lat="45.6781" lon="6.74385">
        <ele>1504.1</ele>
        <time>2022-06-15T07:45:04Z</time>
      </trkpt>
      <trkpt lat="45.67812" lon="6.74382">
        <ele>1503.9</ele>
        <time>2022-06-15T07:45:05Z</time>
      </trkpt>
      <trkpt lat="45.67813" lon="6.74378">
        <ele>1503.8</ele>
        <time>2022-06-15T07:45:06Z</time>
      </trkpt>
      <trkpt lat="45.67815" lon="6.74374">
        <ele>1503.7</ele>
        <time>2022-06-15T07:45:07Z</time>
      </trkpt>
      <trkpt lat="45.67817" lon="6.74371">
        <ele>1503.7</ele>
        <time>2022-06-15T07:45:08Z</time>
      </trkpt>
      <trkpt lat="45.67818" lon="6.74368">
        <ele>1503.7</ele>
        <time>2022-06-15T07:45:09Z</time>
      </trkpt>
      <trkpt lat="45.6782" lon="6.74364">
        <ele>1503.8</ele>
        <time>2022-06-15T07:45:10Z</time>
      </trkpt>
      <trkpt lat="45.67821" lon="6.74361">
        <ele>1503.9</ele>
        <time>2022-06-15T07:45:11Z</time>
      </trkpt>
      <trkpt lat="45.67823" lon="6.74358">
        <ele>1504.2</ele>
        <time>2022-06-15T07:45:12Z</time>
      </trkpt>
      <trkpt lat="45.67825" lon="6.74354">
        <ele>1504.6</ele>
        <time>2022-06-15T07:45:13Z</time>
      </trkpt>
      <trkpt lat="45.67826" lon="6.74351">
        <ele>1504.9</ele>
        <time>2022-06-15T07:45:14Z</time>
      </trkpt>
      <trkpt lat="45.67828" lon="6.74348">
        <ele>1505.3</ele>
        <time>2022-06-15T07:45:15Z</time>
      </trkpt>
      <trkpt lat="45.67829" lon="6.74345">
        <ele>1505.6</ele>
        <time>2022-06-15T07:45:16Z</time>
      </trkpt>
      <trkpt lat="45.67831" lon="6.74341">
        <ele>1506</ele>
        <time>2022-06-15T07:45:17Z</time>
      </trkpt>
      <trkpt lat="45.67833" lon="6.74338">
        <ele>1506.3</ele>
        <time>2022-06-15T07:45:18Z</time>
      </trkpt>
      <trkpt lat="45.67835" lon="6.74335">
        <ele>1506.5</ele>
        <time>2022-06-15T07:45:19Z</time>
      </trkpt>
      <trkpt lat="45.67837" lon="6.74332">
        <ele>1506.6</ele>
        <time>2022-06-15T07:45:20Z</time>
      </trkpt>
      <trkpt lat="45.67838" lon="6.74329">
        <ele>1506.5</ele>
        <time>2022-06-15T07:45:21Z</time>
      </trkpt>
      <trkpt lat="45.6784" lon="6.74326">
        <ele>1506.4</ele>
        <time>2022-06-15T07:45:22Z</time>
      </trkpt>
      <trkpt lat="45.67842" lon="6.74323">
        <ele>1506.4</ele>
        <time>2022-06-15T07:45:23Z</time>
      </trkpt>
      <trkpt lat="45.67843" lon="6.7432">
        <ele>1506.4</ele>
        <time>2022-06-15T07:45:24Z</time>
      </trkpt>
      <trkpt lat="45.67845" lon="6.74317">
        <ele>1506.4</ele>
        <time>2022-06-15T07:45:25Z</time>
      </trkpt>
      <trkpt lat="45.67847" lon="6.74315">
        <ele>1506.4</ele>
        <time>2022-06-15T07:45:26Z</time>
      </trkpt>
      <trkpt lat="45.67849" lon="6.74312">
        <ele>1506.4</ele>
        <time>2022-06-15T07:45:27Z</time>
      </trkpt>
      <trkpt lat="45.67851" lon="6.74309">
        <ele>1506.5</ele>
        <time>2022-06-15T07:45:28Z</time>
      </trkpt>
      <trkpt lat="45.67852" lon="6.74307">
        <ele>1506.5</ele>
        <time>2022-06-15T07:45:29Z</time>
      </trkpt>
      <trkpt lat="45.67854" lon="6.74304">
        <ele>1506.8</ele>
        <time>2022-06-15T07:45:30Z</time>
      </trkpt>
      <trkpt lat="45.67856" lon="6.74302">
        <ele>1507.2</ele>
        <time>2022-06-15T07:45:31Z</time>
      </trkpt>
      <trkpt lat="45.67857" lon="6.74299">
        <ele>1507.7</ele>
        <time>2022-06-15T07:45:32Z</time>
      </trkpt>
      <trkpt lat="45.67859" lon="6.74297">
        <ele>1508.1</ele>
        <time>2022-06-15T07:45:33Z</time>
      </trkpt>
      <trkpt lat="45.67861" lon="6.74294">
        <ele>1508.5</ele>
        <time>2022-06-15T07:45:34Z</time>
      </trkpt>
      <trkpt lat="45.67862" lon="6.74292">
        <ele>1508.9</ele>
        <time>2022-06-15T07:45:35Z</time>
      </trkpt>
      <trkpt lat="45.67864" lon="6.74289">
        <ele>1509.3</ele>
        <time>2022-06-15T07:45:36Z</time>
      </trkpt>
      <trkpt lat="45.67866" lon="6.74287">
        <ele>1509.6</ele>
        <time>2022-06-15T07:45:37Z</time>
      </trkpt>
      <trkpt lat="45.67868" lon="6.74285">
        <ele>1509.9</ele>
        <time>2022-06-15T07:45:38Z</time>
      </trkpt>
      <trkpt lat="45.6787" lon="6.74283">
        <ele>1510.1</ele>
        <time>2022-06-15T07:45:39Z</time>
      </trkpt>
      <trkpt lat="45.67872" lon="6.7428">
        <ele>1510.3</ele>
        <time>2022-06-15T07:45:40Z</time>
      </trkpt>
      <trkpt lat="45.67874" lon="6.74278">
        <ele>1510.5</ele>
        <time>2022-06-15T07:45:41Z</time>
      </trkpt>
      <trkpt lat="45.67876" lon="6.74276">
        <ele>1510.8</ele>
        <time>2022-06-15T07:45:42Z</time>
      </trkpt>
      <trkpt lat="45.67878" lon="6.74274">
        <ele>1511</ele>
        <time>2022-06-15T07:45:43Z</time>
      </trkpt>
      <trkpt lat="45.6788" lon="6.74272">
        <ele>1511.1</ele>
        <time>2022-06-15T07:45:44Z</time>
      </trkpt>
      <trkpt lat="45.67882" lon="6.7427">
        <ele>1511.3</ele>
        <time>2022-06-15T07:45:45Z</time>
      </trkpt>
      <trkpt lat="45.67884" lon="6.74268">
        <ele>1511.5</ele>
        <time>2022-06-15T07:45:46Z</time>
      </trkpt>
      <trkpt lat="45.67886" lon="6.74266">
        <ele>1511.7</ele>
        <time>2022-06-15T07:45:47Z</time>
      </trkpt>
      <trkpt lat="45.67887" lon="6.74264">
        <ele>1511.8</ele>
        <time>2022-06-15T07:45:48Z</time>
      </trkpt>
      <trkpt lat="45.67889" lon="6.74261">
        <ele>1512</ele>
        <time>2022-06-15T07:45:49Z</time>
      </trkpt>
      <trkpt lat="45.67891" lon="6.74259">
        <ele>1512.1</ele>
        <time>2022-06-15T07:45:50Z</time>
      </trkpt>
      <trkpt lat="45.67893" lon="6.74257">
        <ele>1512.3</ele>
        <time>2022-06-15T07:45:51Z</time>
      </trkpt>
      <trkpt lat="45.67895" lon="6.74255">
        <ele>1512.5</ele>
        <time>2022-06-15T07:45:52Z</time>
      </trkpt>
      <trkpt lat="45.67897" lon="6.74252">
        <ele>1512.8</ele>
        <time>2022-06-15T07:45:53Z</time>
      </trkpt>
      <trkpt lat="45.67899" lon="6.74249">
        <ele>1513.1</ele>
        <time>2022-06-15T07:45:54Z</time>
      </trkpt>
      <trkpt lat="45.67901" lon="6.74247">
        <ele>1513.4</ele>
        <time>2022-06-15T07:45:55Z</time>
      </trkpt>
      <trkpt lat="45.67903" lon="6.74245">
        <ele>1513.7</ele>
        <time>2022-06-15T07:45:56Z</time>
      </trkpt>
      <trkpt lat="45.67905" lon="6.74242">
        <ele>1513.9</ele>
        <time>2022-06-15T07:45:57Z</time>
      </trkpt>
      <trkpt lat="45.67907" lon="6.7424">
        <ele>1514.1</ele>
        <time>2022-06-15T07:45:58Z</time>
      </trkpt>
      <trkpt lat="45.67908" lon="6.74237">
        <ele>1514.3</ele>
        <time>2022-06-15T07:45:59Z</time>
      </trkpt>
      <trkpt lat="45.6791" lon="6.74235">
        <ele>1514.3</ele>
        <time>2022-06-15T07:46:00Z</time>
      </trkpt>
      <trkpt lat="45.67912" lon="6.74233">
        <ele>1514.3</ele>
        <time>2022-06-15T07:46:01Z</time>
      </trkpt>
      <trkpt lat="45.67914" lon="6.74231">
        <ele>1514.3</ele>
        <time>2022-06-15T07:46:02Z</time>
      </trkpt>
      <trkpt lat="45.67916" lon="6.74229">
        <ele>1514.2</ele>
        <time>2022-06-15T07:46:03Z</time>
      </trkpt>
      <trkpt lat="45.67918" lon="6.74226">
        <ele>1514.3</ele>
        <time>2022-06-15T07:46:04Z</time>
      </trkpt>
      <trkpt lat="45.6792" lon="6.74224">
        <ele>1514.4</ele>
        <time>2022-06-15T07:46:05Z</time>
      </trkpt>
      <trkpt lat="45.67922" lon="6.74222">
        <ele>1514.6</ele>
        <time>2022-06-15T07:46:06Z</time>
      </trkpt>
      <trkpt lat="45.67924" lon="6.74219">
        <ele>1515</ele>
        <time>2022-06-15T07:46:07Z</time>
      </trkpt>
      <trkpt lat="45.67926" lon="6.74217">
        <ele>1515.3</ele>
        <time>2022-06-15T07:46:08Z</time>
      </trkpt>
      <trkpt lat="45.67928" lon="6.74215">
        <ele>1515.6</ele>
        <time>2022-06-15T07:46:09Z</time>
      </trkpt>
      <trkpt lat="45.6793" lon="6.74212">
        <ele>1515.9</ele>
        <time>2022-06-15T07:46:10Z</time>
      </trkpt>
      <trkpt lat="45.67932" lon="6.7421">
        <ele>1516.1</ele>
        <time>2022-06-15T07:46:11Z</time>
      </trkpt>
      <trkpt lat="45.67934" lon="6.74208">
        <ele>1516.2</ele>
        <time>2022-06-15T07:46:12Z</time>
      </trkpt>
      <trkpt lat="45.67937" lon="6.74206">
        <ele>1516.4</ele>
        <time>2022-06-15T07:46:13Z</time>
      </trkpt>
      <trkpt lat="45.67938" lon="6.74203">
        <ele>1516.6</ele>
        <time>2022-06-15T07:46:14Z</time>
      </trkpt>
      <trkpt lat="45.6794" lon="6.74201">
        <ele>1516.7</ele>
        <time>2022-06-15T07:46:15Z</time>
      </trkpt>
      <trkpt lat="45.67942" lon="6.74198">
        <ele>1516.8</ele>
        <time>2022-06-15T07:46:16Z</time>
      </trkpt>
      <trkpt lat="45.67944" lon="6.74196">
        <ele>1516.9</ele>
        <time>2022-06-15T07:46:17Z</time>
      </trkpt>
      <trkpt lat="45.67946" lon="6.74194">
        <ele>1516.8</ele>
        <time>2022-06-15T07:46:18Z</time>
      </trkpt>
      <trkpt lat="45.67948" lon="6.74191">
        <ele>1517</ele>
        <time>2022-06-15T07:46:19Z</time>
      </trkpt>
      <trkpt lat="45.6795" lon="6.74188">
        <ele>1517.2</ele>
        <time>2022-06-15T07:46:20Z</time>
      </trkpt>
      <trkpt lat="45.67953" lon="6.74186">
        <ele>1517.2</ele>
        <time>2022-06-15T07:46:21Z</time>
      </trkpt>
      <trkpt lat="45.67954" lon="6.74184">
        <ele>1517.3</ele>
        <time>2022-06-15T07:46:22Z</time>
      </trkpt>
      <trkpt lat="45.67957" lon="6.74182">
        <ele>1517.4</ele>
        <time>2022-06-15T07:46:23Z</time>
      </trkpt>
      <trkpt lat="45.67959" lon="6.74179">
        <ele>1517.6</ele>
        <time>2022-06-15T07:46:24Z</time>
      </trkpt>
      <trkpt lat="45.67961" lon="6.74177">
        <ele>1517.7</ele>
        <time>2022-06-15T07:46:25Z</time>
      </trkpt>
      <trkpt lat="45.67962" lon="6.74174">
        <ele>1518</ele>
        <time>2022-06-15T07:46:26Z</time>
      </trkpt>
      <trkpt lat="45.67964" lon="6.74172">
        <ele>1518.2</ele>
        <time>2022-06-15T07:46:27Z</time>
      </trkpt>
      <trkpt lat="45.67966" lon="6.7417">
        <ele>1518.4</ele>
        <time>2022-06-15T07:46:28Z</time>
      </trkpt>
      <trkpt lat="45.67968" lon="6.74167">
        <ele>1518.6</ele>
        <time>2022-06-15T07:46:29Z</time>
      </trkpt>
      <trkpt lat="45.6797" lon="6.74165">
        <ele>1518.6</ele>
        <time>2022-06-15T07:46:30Z</time>
      </trkpt>
      <trkpt lat="45.67972" lon="6.74162">
        <ele>1518.5</ele>
        <time>2022-06-15T07:46:31Z</time>
      </trkpt>
      <trkpt lat="45.67974" lon="6.7416">
        <ele>1518.3</ele>
        <time>2022-06-15T07:46:32Z</time>
      </trkpt>
      <trkpt lat="45.67976" lon="6.74157">
        <ele>1518.1</ele>
        <time>2022-06-15T07:46:33Z</time>
      </trkpt>
      <trkpt lat="45.67978" lon="6.74154">
        <ele>1517.9</ele>
        <time>2022-06-15T07:46:34Z</time>
      </trkpt>
      <trkpt lat="45.67981" lon="6.74152">
        <ele>1517.8</ele>
        <time>2022-06-15T07:46:35Z</time>
      </trkpt>
      <trkpt lat="45.67983" lon="6.74149">
        <ele>1517.7</ele>
        <time>2022-06-15T07:46:36Z</time>
      </trkpt>
      <trkpt lat="45.67985" lon="6.74147">
        <ele>1517.7</ele>
        <time>2022-06-15T07:46:37Z</time>
      </trkpt>
      <trkpt lat="45.67987" lon="6.74144">
        <ele>1517.8</ele>
        <time>2022-06-15T07:46:38Z</time>
      </trkpt>
      <trkpt lat="45.67989" lon="6.74142">
        <ele>1518</ele>
        <time>2022-06-15T07:46:39Z</time>
      </trkpt>
      <trkpt lat="45.67991" lon="6.74139">
        <ele>1518.3</ele>
        <time>2022-06-15T07:46:40Z</time>
      </trkpt>
      <trkpt lat="45.67993" lon="6.74136">
        <ele>1518.6</ele>
        <time>2022-06-15T07:46:41Z</time>
      </trkpt>
      <trkpt lat="45.67995" lon="6.74133">
        <ele>1518.8</ele>
        <time>2022-06-15T07:46:42Z</time>
      </trkpt>
      <trkpt lat="45.67997" lon="6.74131">
        <ele>1518.9</ele>
        <time>2022-06-15T07:46:43Z</time>
      </trkpt>
      <trkpt lat="45.67999" lon="6.74129">
        <ele>1519</ele>
        <time>2022-06-15T07:46:44Z</time>
      </trkpt>
      <trkpt lat="45.68001" lon="6.74126">
        <ele>1519.1</ele>
        <time>2022-06-15T07:46:45Z</time>
      </trkpt>
      <trkpt lat="45.68003" lon="6.74123">
        <ele>1519.3</ele>
        <time>2022-06-15T07:46:46Z</time>
      </trkpt>
      <trkpt lat="45.68005" lon="6.74121">
        <ele>1519.4</ele>
        <time>2022-06-15T07:46:47Z</time>
      </trkpt>
      <trkpt lat="45.68007" lon="6.74119">
        <ele>1519.4</ele>
        <time>2022-06-15T07:46:48Z</time>
      </trkpt>
      <trkpt lat="45.68009" lon="6.74116">
        <ele>1519.5</ele>
        <time>2022-06-15T07:46:49Z</time>
      </trkpt>
      <trkpt lat="45.68011" lon="6.74114">
        <ele>1519.6</ele>
        <time>2022-06-15T07:46:50Z</time>
      </trkpt>
      <trkpt lat="45.68013" lon="6.74111">
        <ele>1519.6</ele>
        <time>2022-06-15T07:46:51Z</time>
      </trkpt>
      <trkpt lat="45.68016" lon="6.74109">
        <ele>1519.7</ele>
        <time>2022-06-15T07:46:52Z</time>
      </trkpt>
      <trkpt lat="45.68018" lon="6.74106">
        <ele>1519.7</ele>
        <time>2022-06-15T07:46:53Z</time>
      </trkpt>
      <trkpt lat="45.6802" lon="6.74104">
        <ele>1520</ele>
        <time>2022-06-15T07:46:54Z</time>
      </trkpt>
      <trkpt lat="45.68022" lon="6.74102">
        <ele>1520.3</ele>
        <time>2022-06-15T07:46:55Z</time>
      </trkpt>
      <trkpt lat="45.68024" lon="6.74099">
        <ele>1520.7</ele>
        <time>2022-06-15T07:46:56Z</time>
      </trkpt>
      <trkpt lat="45.68026" lon="6.74097">
        <ele>1521.2</ele>
        <time>2022-06-15T07:46:57Z</time>
      </trkpt>
      <trkpt lat="45.68028" lon="6.74094">
        <ele>1521.8</ele>
        <time>2022-06-15T07:46:58Z</time>
      </trkpt>
      <trkpt lat="45.6803" lon="6.74092">
        <ele>1522.3</ele>
        <time>2022-06-15T07:46:59Z</time>
      </trkpt>
      <trkpt lat="45.68032" lon="6.7409">
        <ele>1522.8</ele>
        <time>2022-06-15T07:47:00Z</time>
      </trkpt>
      <trkpt lat="45.68034" lon="6.74087">
        <ele>1523.4</ele>
        <time>2022-06-15T07:47:01Z</time>
      </trkpt>
      <trkpt lat="45.68036" lon="6.74085">
        <ele>1523.9</ele>
        <time>2022-06-15T07:47:02Z</time>
      </trkpt>
      <trkpt lat="45.68038" lon="6.74083">
        <ele>1524.3</ele>
        <time>2022-06-15T07:47:03Z</time>
      </trkpt>
      <trkpt lat="45.6804" lon="6.74081">
        <ele>1524.5</ele>
        <time>2022-06-15T07:47:04Z</time>
      </trkpt>
      <trkpt lat="45.68042" lon="6.74079">
        <ele>1524.7</ele>
        <time>2022-06-15T07:47:05Z</time>
      </trkpt>
      <trkpt lat="45.68045" lon="6.74077">
        <ele>1524.8</ele>
        <time>2022-06-15T07:47:06Z</time>
      </trkpt>
      <trkpt lat="45.68047" lon="6.74075">
        <ele>1525</ele>
        <time>2022-06-15T07:47:07Z</time>
      </trkpt>
      <trkpt lat="45.68049" lon="6.74073">
        <ele>1525.3</ele>
        <time>2022-06-15T07:47:08Z</time>
      </trkpt>
      <trkpt lat="45.68051" lon="6.74071">
        <ele>1525.5</ele>
        <time>2022-06-15T07:47:09Z</time>
      </trkpt>
      <trkpt lat="45.68053" lon="6.74069">
        <ele>1525.8</ele>
        <time>2022-06-15T07:47:10Z</time>
      </trkpt>
      <trkpt lat="45.68055" lon="6.74067">
        <ele>1526</ele>
        <time>2022-06-15T07:47:11Z</time>
      </trkpt>
      <trkpt lat="45.68057" lon="6.74065">
        <ele>1526.3</ele>
        <time>2022-06-15T07:47:12Z</time>
      </trkpt>
      <trkpt lat="45.68059" lon="6.74063">
        <ele>1526.6</ele>
        <time>2022-06-15T07:47:13Z</time>
      </trkpt>
      <trkpt lat="45.68061" lon="6.74061">
        <ele>1526.8</ele>
        <time>2022-06-15T07:47:14Z</time>
      </trkpt>
      <trkpt lat="45.68063" lon="6.7406">
        <ele>1527</ele>
        <time>2022-06-15T07:47:15Z</time>
      </trkpt>
      <trkpt lat="45.68065" lon="6.74058">
        <ele>1527.2</ele>
        <time>2022-06-15T07:47:16Z</time>
      </trkpt>
      <trkpt lat="45.68067" lon="6.74056">
        <ele>1527.5</ele>
        <time>2022-06-15T07:47:17Z</time>
      </trkpt>
      <trkpt lat="45.68069" lon="6.74054">
        <ele>1527.8</ele>
        <time>2022-06-15T07:47:18Z</time>
      </trkpt>
      <trkpt lat="45.68071" lon="6.74051">
        <ele>1528.1</ele>
        <time>2022-06-15T07:47:19Z</time>
      </trkpt>
      <trkpt lat="45.68073" lon="6.74049">
        <ele>1528.4</ele>
        <time>2022-06-15T07:47:20Z</time>
      </trkpt>
      <trkpt lat="45.68075" lon="6.74047">
        <ele>1528.6</ele>
        <time>2022-06-15T07:47:21Z</time>
      </trkpt>
      <trkpt lat="45.68077" lon="6.74045">
        <ele>1528.8</ele>
        <time>2022-06-15T07:47:22Z</time>
      </trkpt>
      <trkpt lat="45.68079" lon="6.74043">
        <ele>1529</ele>
        <time>2022-06-15T07:47:23Z</time>
      </trkpt>
      <trkpt lat="45.68081" lon="6.74041">
        <ele>1529.2</ele>
        <time>2022-06-15T07:47:24Z</time>
      </trkpt>
      <trkpt lat="45.68083" lon="6.74039">
        <ele>1529.4</ele>
        <time>2022-06-15T07:47:25Z</time>
      </trkpt>
      <trkpt lat="45.68085" lon="6.74036">
        <ele>1529.6</ele>
        <time>2022-06-15T07:47:26Z</time>
      </trkpt>
      <trkpt lat="45.68087" lon="6.74034">
        <ele>1529.6</ele>
        <time>2022-06-15T07:47:27Z</time>
      </trkpt>
      <trkpt lat="45.68089" lon="6.74032">
        <ele>1529.7</ele>
        <time>2022-06-15T07:47:28Z</time>
      </trkpt>
      <trkpt lat="45.68091" lon="6.7403">
        <ele>1529.7</ele>
        <time>2022-06-15T07:47:29Z</time>
      </trkpt>
      <trkpt lat="45.68093" lon="6.74027">
        <ele>1529.7</ele>
        <time>2022-06-15T07:47:30Z</time>
      </trkpt>
      <trkpt lat="45.68095" lon="6.74025">
        <ele>1529.8</ele>
        <time>2022-06-15T07:47:31Z</time>
      </trkpt>
      <trkpt lat="45.68097" lon="6.74023">
        <ele>1529.9</ele>
        <time>2022-06-15T07:47:32Z</time>
      </trkpt>
      <trkpt lat="45.68099" lon="6.74021">
        <ele>1530</ele>
        <time>2022-06-15T07:47:33Z</time>
      </trkpt>
      <trkpt lat="45.68101" lon="6.74018">
        <ele>1530.1</ele>
        <time>2022-06-15T07:47:34Z</time>
      </trkpt>
      <trkpt lat="45.68104" lon="6.74016">
        <ele>1530.2</ele>
        <time>2022-06-15T07:47:35Z</time>
      </trkpt>
      <trkpt lat="45.68106" lon="6.74014">
        <ele>1530.3</ele>
        <time>2022-06-15T07:47:36Z</time>
      </trkpt>
      <trkpt lat="45.68108" lon="6.74012">
        <ele>1530.4</ele>
        <time>2022-06-15T07:47:37Z</time>
      </trkpt>
      <trkpt lat="45.6811" lon="6.7401">
        <ele>1530.5</ele>
        <time>2022-06-15T07:47:38Z</time>
      </trkpt>
      <trkpt lat="45.68112" lon="6.74007">
        <ele>1530.6</ele>
        <time>2022-06-15T07:47:39Z</time>
      </trkpt>
      <trkpt lat="45.68114" lon="6.74005">
        <ele>1530.9</ele>
        <time>2022-06-15T07:47:40Z</time>
      </trkpt>
      <trkpt lat="45.68116" lon="6.74002">
        <ele>1531.2</ele>
        <time>2022-06-15T07:47:41Z</time>
      </trkpt>
      <trkpt lat="45.68118" lon="6.74">
        <ele>1531.5</ele>
        <time>2022-06-15T07:47:42Z</time>
      </trkpt>
      <trkpt lat="45.6812" lon="6.73998">
        <ele>1531.8</ele>
        <time>2022-06-15T07:47:43Z</time>
      </trkpt>
      <trkpt lat="45.68122" lon="6.73995">
        <ele>1532.1</ele>
        <time>2022-06-15T07:47:44Z</time>
      </trkpt>
      <trkpt lat="45.68124" lon="6.73993">
        <ele>1532.2</ele>
        <time>2022-06-15T07:47:45Z</time>
      </trkpt>
      <trkpt lat="45.68127" lon="6.73991">
        <ele>1532.3</ele>
        <time>2022-06-15T07:47:46Z</time>
      </trkpt>
      <trkpt lat="45.68129" lon="6.73989">
        <ele>1532.4</ele>
        <time>2022-06-15T07:47:47Z</time>
      </trkpt>
      <trkpt lat="45.68131" lon="6.73986">
        <ele>1532.5</ele>
        <time>2022-06-15T07:47:48Z</time>
      </trkpt>
      <trkpt lat="45.68133" lon="6.73984">
        <ele>1532.5</ele>
        <time>2022-06-15T07:47:49Z</time>
      </trkpt>
      <trkpt lat="45.68136" lon="6.73983">
        <ele>1532.3</ele>
        <time>2022-06-15T07:47:50Z</time>
      </trkpt>
      <trkpt lat="45.68138" lon="6.73982">
        <ele>1532.1</ele>
        <time>2022-06-15T07:47:51Z</time>
      </trkpt>
      <trkpt lat="45.68141" lon="6.73981">
        <ele>1532.1</ele>
        <time>2022-06-15T07:47:52Z</time>
      </trkpt>
      <trkpt lat="45.68144" lon="6.7398">
        <ele>1532.3</ele>
        <time>2022-06-15T07:47:53Z</time>
      </trkpt>
      <trkpt lat="45.68147" lon="6.73978">
        <ele>1532.6</ele>
        <time>2022-06-15T07:47:54Z</time>
      </trkpt>
      <trkpt lat="45.68149" lon="6.73978">
        <ele>1532.8</ele>
        <time>2022-06-15T07:47:55Z</time>
      </trkpt>
      <trkpt lat="45.68152" lon="6.73977">
        <ele>1533.1</ele>
        <time>2022-06-15T07:47:56Z</time>
      </trkpt>
      <trkpt lat="45.68155" lon="6.73975">
        <ele>1533.5</ele>
        <time>2022-06-15T07:47:57Z</time>
      </trkpt>
      <trkpt lat="45.68157" lon="6.73974">
        <ele>1533.9</ele>
        <time>2022-06-15T07:47:58Z</time>
      </trkpt>
      <trkpt lat="45.68159" lon="6.73973">
        <ele>1534.4</ele>
        <time>2022-06-15T07:47:59Z</time>
      </trkpt>
      <trkpt lat="45.68162" lon="6.73972">
        <ele>1534.8</ele>
        <time>2022-06-15T07:48:00Z</time>
      </trkpt>
      <trkpt lat="45.68165" lon="6.73971">
        <ele>1535.1</ele>
        <time>2022-06-15T07:48:01Z</time>
      </trkpt>
      <trkpt lat="45.68167" lon="6.7397">
        <ele>1535.4</ele>
        <time>2022-06-15T07:48:02Z</time>
      </trkpt>
      <trkpt lat="45.6817" lon="6.73968">
        <ele>1535.5</ele>
        <time>2022-06-15T07:48:03Z</time>
      </trkpt>
      <trkpt lat="45.68172" lon="6.73967">
        <ele>1535.6</ele>
        <time>2022-06-15T07:48:04Z</time>
      </trkpt>
      <trkpt lat="45.68175" lon="6.73965">
        <ele>1535.7</ele>
        <time>2022-06-15T07:48:05Z</time>
      </trkpt>
      <trkpt lat="45.68178" lon="6.73964">
        <ele>1535.7</ele>
        <time>2022-06-15T07:48:06Z</time>
      </trkpt>
      <trkpt lat="45.68181" lon="6.73963">
        <ele>1535.7</ele>
        <time>2022-06-15T07:48:07Z</time>
      </trkpt>
      <trkpt lat="45.68183" lon="6.73961">
        <ele>1535.8</ele>
        <time>2022-06-15T07:48:08Z</time>
      </trkpt>
      <trkpt lat="45.68186" lon="6.7396">
        <ele>1535.8</ele>
        <time>2022-06-15T07:48:09Z</time>
      </trkpt>
      <trkpt lat="45.68189" lon="6.73958">
        <ele>1535.8</ele>
        <time>2022-06-15T07:48:10Z</time>
      </trkpt>
      <trkpt lat="45.68191" lon="6.73957">
        <ele>1535.8</ele>
        <time>2022-06-15T07:48:11Z</time>
      </trkpt>
      <trkpt lat="45.68194" lon="6.73957">
        <ele>1535.7</ele>
        <time>2022-06-15T07:48:12Z</time>
      </trkpt>
      <trkpt lat="45.68196" lon="6.73956">
        <ele>1535.6</ele>
        <time>2022-06-15T07:48:13Z</time>
      </trkpt>
      <trkpt lat="45.68198" lon="6.73955">
        <ele>1535.5</ele>
        <time>2022-06-15T07:48:14Z</time>
      </trkpt>
      <trkpt lat="45.68201" lon="6.73953">
        <ele>1535.4</ele>
        <time>2022-06-15T07:48:15Z</time>
      </trkpt>
      <trkpt lat="45.68203" lon="6.7395">
        <ele>1535.4</ele>
        <time>2022-06-15T07:48:16Z</time>
      </trkpt>
      <trkpt lat="45.68206" lon="6.73948">
        <ele>1535.3</ele>
        <time>2022-06-15T07:48:17Z</time>
      </trkpt>
      <trkpt lat="45.68208" lon="6.73946">
        <ele>1535.3</ele>
        <time>2022-06-15T07:48:18Z</time>
      </trkpt>
      <trkpt lat="45.68211" lon="6.73944">
        <ele>1535.4</ele>
        <time>2022-06-15T07:48:19Z</time>
      </trkpt>
      <trkpt lat="45.68213" lon="6.73941">
        <ele>1535.5</ele>
        <time>2022-06-15T07:48:20Z</time>
      </trkpt>
      <trkpt lat="45.68216" lon="6.73938">
        <ele>1535.7</ele>
        <time>2022-06-15T07:48:21Z</time>
      </trkpt>
      <trkpt lat="45.68218" lon="6.73935">
        <ele>1535.9</ele>
        <time>2022-06-15T07:48:22Z</time>
      </trkpt>
      <trkpt lat="45.6822" lon="6.73932">
        <ele>1536.1</ele>
        <time>2022-06-15T07:48:23Z</time>
      </trkpt>
      <trkpt lat="45.68222" lon="6.73929">
        <ele>1536.3</ele>
        <time>2022-06-15T07:48:24Z</time>
      </trkpt>
      <trkpt lat="45.68224" lon="6.73926">
        <ele>1536.4</ele>
        <time>2022-06-15T07:48:25Z</time>
      </trkpt>
      <trkpt lat="45.68226" lon="6.73923">
        <ele>1536.6</ele>
        <time>2022-06-15T07:48:26Z</time>
      </trkpt>
      <trkpt lat="45.68228" lon="6.73919">
        <ele>1536.8</ele>
        <time>2022-06-15T07:48:27Z</time>
      </trkpt>
      <trkpt lat="45.6823" lon="6.73916">
        <ele>1537</ele>
        <time>2022-06-15T07:48:28Z</time>
      </trkpt>
      <trkpt lat="45.68232" lon="6.73912">
        <ele>1537.1</ele>
        <time>2022-06-15T07:48:29Z</time>
      </trkpt>
      <trkpt lat="45.68235" lon="6.73909">
        <ele>1537.2</ele>
        <time>2022-06-15T07:48:30Z</time>
      </trkpt>
      <trkpt lat="45.68237" lon="6.73905">
        <ele>1537.4</ele>
        <time>2022-06-15T07:48:31Z</time>
      </trkpt>
      <trkpt lat="45.68239" lon="6.73901">
        <ele>1537.7</ele>
        <time>2022-06-15T07:48:32Z</time>
      </trkpt>
      <trkpt lat="45.68241" lon="6.73897">
        <ele>1538</ele>
        <time>2022-06-15T07:48:33Z</time>
      </trkpt>
      <trkpt lat="45.68243" lon="6.73893">
        <ele>1538.3</ele>
        <time>2022-06-15T07:48:34Z</time>
      </trkpt>
      <trkpt lat="45.68245" lon="6.73888">
        <ele>1538.6</ele>
        <time>2022-06-15T07:48:35Z</time>
      </trkpt>
      <trkpt lat="45.68247" lon="6.73884">
        <ele>1538.6</ele>
        <time>2022-06-15T07:48:36Z</time>
      </trkpt>
      <trkpt lat="45.6825" lon="6.7388">
        <ele>1538.4</ele>
        <time>2022-06-15T07:48:37Z</time>
      </trkpt>
      <trkpt lat="45.68252" lon="6.73875">
        <ele>1538.3</ele>
        <time>2022-06-15T07:48:38Z</time>
      </trkpt>
      <trkpt lat="45.68254" lon="6.73871">
        <ele>1538.2</ele>
        <time>2022-06-15T07:48:39Z</time>
      </trkpt>
      <trkpt lat="45.68255" lon="6.73867">
        <ele>1538.1</ele>
        <time>2022-06-15T07:48:40Z</time>
      </trkpt>
      <trkpt lat="45.68257" lon="6.73864">
        <ele>1538.1</ele>
        <time>2022-06-15T07:48:41Z</time>
      </trkpt>
      <trkpt lat="45.68259" lon="6.73861">
        <ele>1538.1</ele>
        <time>2022-06-15T07:48:42Z</time>
      </trkpt>
      <trkpt lat="45.68261" lon="6.73857">
        <ele>1538.2</ele>
        <time>2022-06-15T07:48:43Z</time>
      </trkpt>
      <trkpt lat="45.68263" lon="6.73854">
        <ele>1538.3</ele>
        <time>2022-06-15T07:48:44Z</time>
      </trkpt>
      <trkpt lat="45.68265" lon="6.73851">
        <ele>1538.3</ele>
        <time>2022-06-15T07:48:45Z</time>
      </trkpt>
      <trkpt lat="45.68267" lon="6.7385">
        <ele>1538.2</ele>
        <time>2022-06-15T07:48:46Z</time>
      </trkpt>
      <trkpt lat="45.68268" lon="6.73848">
        <ele>1538.1</ele>
        <time>2022-06-15T07:48:47Z</time>
      </trkpt>
      <trkpt lat="45.68269" lon="6.73847">
        <ele>1538.2</ele>
        <time>2022-06-15T07:48:48Z</time>
      </trkpt>
      <trkpt lat="45.68269" lon="6.73847">
        <ele>1538.2</ele>
        <time>2022-06-15T07:48:49Z</time>
      </trkpt>
      <trkpt lat="45.6827" lon="6.73842">
        <ele>1538.4</ele>
        <time>2022-06-15T07:50:56Z</time>
      </trkpt>
      <trkpt lat="45.68271" lon="6.73839">
        <ele>1538.5</ele>
        <time>2022-06-15T07:50:57Z</time>
      </trkpt>
      <trkpt lat="45.68273" lon="6.73837">
        <ele>1538.5</ele>
        <time>2022-06-15T07:50:58Z</time>
      </trkpt>
      <trkpt lat="45.68275" lon="6.73834">
        <ele>1538.4</ele>
        <time>2022-06-15T07:50:59Z</time>
      </trkpt>
      <trkpt lat="45.68277" lon="6.73831">
        <ele>1538.3</ele>
        <time>2022-06-15T07:51:00Z</time>
      </trkpt>
      <trkpt lat="45.68279" lon="6.73827">
        <ele>1538.3</ele>
        <time>2022-06-15T07:51:01Z</time>
      </trkpt>
      <trkpt lat="45.68281" lon="6.73823">
        <ele>1538.1</ele>
        <time>2022-06-15T07:51:02Z</time>
      </trkpt>
      <trkpt lat="45.68283" lon="6.73819">
        <ele>1538.1</ele>
        <time>2022-06-15T07:51:03Z</time>
      </trkpt>
      <trkpt lat="45.68286" lon="6.73814">
        <ele>1538.1</ele>
        <time>2022-06-15T07:51:04Z</time>
      </trkpt>
      <trkpt lat="45.68288" lon="6.7381">
        <ele>1538.1</ele>
        <time>2022-06-15T07:51:05Z</time>
      </trkpt>
      <trkpt lat="45.68291" lon="6.73805">
        <ele>1538.1</ele>
        <time>2022-06-15T07:51:06Z</time>
      </trkpt>
      <trkpt lat="45.68294" lon="6.73801">
        <ele>1538.1</ele>
        <time>2022-06-15T07:51:07Z</time>
      </trkpt>
      <trkpt lat="45.68297" lon="6.73797">
        <ele>1538.2</ele>
        <time>2022-06-15T07:51:08Z</time>
      </trkpt>
      <trkpt lat="45.683" lon="6.73793">
        <ele>1538.3</ele>
        <time>2022-06-15T07:51:09Z</time>
      </trkpt>
      <trkpt lat="45.68303" lon="6.73789">
        <ele>1538.6</ele>
        <time>2022-06-15T07:51:10Z</time>
      </trkpt>
      <trkpt lat="45.68307" lon="6.73785">
        <ele>1538.8</ele>
        <time>2022-06-15T07:51:11Z</time>
      </trkpt>
      <trkpt lat="45.6831" lon="6.73782">
        <ele>1538.9</ele>
        <time>2022-06-15T07:51:12Z</time>
      </trkpt>
      <trkpt lat="45.68313" lon="6.73779">
        <ele>1538.9</ele>
        <time>2022-06-15T07:51:13Z</time>
      </trkpt>
      <trkpt lat="45.68316" lon="6.73776">
        <ele>1538.6</ele>
        <time>2022-06-15T07:51:14Z</time>
      </trkpt>
      <trkpt lat="45.6832" lon="6.73774">
        <ele>1538.2</ele>
        <time>2022-06-15T07:51:15Z</time>
      </trkpt>
      <trkpt lat="45.68323" lon="6.73771">
        <ele>1537.9</ele>
        <time>2022-06-15T07:51:16Z</time>
      </trkpt>
      <trkpt lat="45.68327" lon="6.73768">
        <ele>1537.7</ele>
        <time>2022-06-15T07:51:17Z</time>
      </trkpt>
      <trkpt lat="45.68332" lon="6.73766">
        <ele>1537.5</ele>
        <time>2022-06-15T07:51:18Z</time>
      </trkpt>
      <trkpt lat="45.68337" lon="6.73763">
        <ele>1537.7</ele>
        <time>2022-06-15T07:51:19Z</time>
      </trkpt>
      <trkpt lat="45.68341" lon="6.73761">
        <ele>1538.1</ele>
        <time>2022-06-15T07:51:20Z</time>
      </trkpt>
      <trkpt lat="45.68346" lon="6.73759">
        <ele>1538.5</ele>
        <time>2022-06-15T07:51:21Z</time>
      </trkpt>
      <trkpt lat="45.68351" lon="6.73757">
        <ele>1539</ele>
        <time>2022-06-15T07:51:22Z</time>
      </trkpt>
      <trkpt lat="45.68355" lon="6.73756">
        <ele>1539.5</ele>
        <time>2022-06-15T07:51:23Z</time>
      </trkpt>
      <trkpt lat="45.68361" lon="6.73754">
        <ele>1540</ele>
        <time>2022-06-15T07:51:24Z</time>
      </trkpt>
      <trkpt lat="45.68366" lon="6.73753">
        <ele>1540.2</ele>
        <time>2022-06-15T07:51:25Z</time>
      </trkpt>
      <trkpt lat="45.68371" lon="6.73751">
        <ele>1540.4</ele>
        <time>2022-06-15T07:51:26Z</time>
      </trkpt>
      <trkpt lat="45.68376" lon="6.7375">
        <ele>1540.5</ele>
        <time>2022-06-15T07:51:27Z</time>
      </trkpt>
      <trkpt lat="45.68382" lon="6.73748">
        <ele>1540.4</ele>
        <time>2022-06-15T07:51:28Z</time>
      </trkpt>
      <trkpt lat="45.68387" lon="6.73746">
        <ele>1540.3</ele>
        <time>2022-06-15T07:51:29Z</time>
      </trkpt>
      <trkpt lat="45.68392" lon="6.73745">
        <ele>1540.3</ele>
        <time>2022-06-15T07:51:30Z</time>
      </trkpt>
      <trkpt lat="45.68397" lon="6.73744">
        <ele>1540.2</ele>
        <time>2022-06-15T07:51:31Z</time>
      </trkpt>
      <trkpt lat="45.68402" lon="6.73743">
        <ele>1540.2</ele>
        <time>2022-06-15T07:51:32Z</time>
      </trkpt>
      <trkpt lat="45.68407" lon="6.73741">
        <ele>1540.2</ele>
        <time>2022-06-15T07:51:33Z</time>
      </trkpt>
      <trkpt lat="45.68412" lon="6.7374">
        <ele>1540.2</ele>
        <time>2022-06-15T07:51:34Z</time>
      </trkpt>
      <trkpt lat="45.68417" lon="6.73738">
        <ele>1540.3</ele>
        <time>2022-06-15T07:51:35Z</time>
      </trkpt>
      <trkpt lat="45.68422" lon="6.73737">
        <ele>1540.3</ele>
        <time>2022-06-15T07:51:36Z</time>
      </trkpt>
      <trkpt lat="45.68426" lon="6.73735">
        <ele>1540.4</ele>
        <time>2022-06-15T07:51:37Z</time>
      </trkpt>
      <trkpt lat="45.68431" lon="6.73734">
        <ele>1540.6</ele>
        <time>2022-06-15T07:51:38Z</time>
      </trkpt>
      <trkpt lat="45.68436" lon="6.73732">
        <ele>1540.7</ele>
        <time>2022-06-15T07:51:39Z</time>
      </trkpt>
      <trkpt lat="45.68441" lon="6.7373">
        <ele>1541</ele>
        <time>2022-06-15T07:51:40Z</time>
      </trkpt>
      <trkpt lat="45.68445" lon="6.73728">
        <ele>1541.2</ele>
        <time>2022-06-15T07:51:41Z</time>
      </trkpt>
      <trkpt lat="45.6845" lon="6.73726">
        <ele>1541.2</ele>
        <time>2022-06-15T07:51:42Z</time>
      </trkpt>
      <trkpt lat="45.68454" lon="6.73724">
        <ele>1541.4</ele>
        <time>2022-06-15T07:51:43Z</time>
      </trkpt>
      <trkpt lat="45.68459" lon="6.73722">
        <ele>1541.5</ele>
        <time>2022-06-15T07:51:44Z</time>
      </trkpt>
      <trkpt lat="45.68463" lon="6.73719">
        <ele>1541.6</ele>
        <time>2022-06-15T07:51:45Z</time>
      </trkpt>
      <trkpt lat="45.68468" lon="6.73717">
        <ele>1541.6</ele>
        <time>2022-06-15T07:51:46Z</time>
      </trkpt>
      <trkpt lat="45.68472" lon="6.73714">
        <ele>1541.6</ele>
        <time>2022-06-15T07:51:47Z</time>
      </trkpt>
      <trkpt lat="45.68477" lon="6.73711">
        <ele>1541.5</ele>
        <time>2022-06-15T07:51:48Z</time>
      </trkpt>
      <trkpt lat="45.68481" lon="6.73709">
        <ele>1541.5</ele>
        <time>2022-06-15T07:51:49Z</time>
      </trkpt>
      <trkpt lat="45.68485" lon="6.73706">
        <ele>1541.6</ele>
        <time>2022-06-15T07:51:50Z</time>
      </trkpt>
      <trkpt lat="45.68489" lon="6.73703">
        <ele>1541.9</ele>
        <time>2022-06-15T07:51:51Z</time>
      </trkpt>
      <trkpt lat="45.68493" lon="6.737">
        <ele>1542.2</ele>
        <time>2022-06-15T07:51:52Z</time>
      </trkpt>
      <trkpt lat="45.68497" lon="6.73696">
        <ele>1542.7</ele>
        <time>2022-06-15T07:51:53Z</time>
      </trkpt>
      <trkpt lat="45.68501" lon="6.73692">
        <ele>1542.9</ele>
        <time>2022-06-15T07:51:54Z</time>
      </trkpt>
      <trkpt lat="45.68505" lon="6.73688">
        <ele>1542.5</ele>
        <time>2022-06-15T07:51:55Z</time>
      </trkpt>
      <trkpt lat="45.68509" lon="6.73684">
        <ele>1542.3</ele>
        <time>2022-06-15T07:51:56Z</time>
      </trkpt>
      <trkpt lat="45.68512" lon="6.7368">
        <ele>1542.4</ele>
        <time>2022-06-15T07:51:57Z</time>
      </trkpt>
      <trkpt lat="45.68515" lon="6.73675">
        <ele>1542.7</ele>
        <time>2022-06-15T07:51:58Z</time>
      </trkpt>
      <trkpt lat="45.68519" lon="6.73671">
        <ele>1543.2</ele>
        <time>2022-06-15T07:51:59Z</time>
      </trkpt>
      <trkpt lat="45.68522" lon="6.73666">
        <ele>1543.8</ele>
        <time>2022-06-15T07:52:00Z</time>
      </trkpt>
      <trkpt lat="45.68525" lon="6.73661">
        <ele>1544</ele>
        <time>2022-06-15T07:52:01Z</time>
      </trkpt>
      <trkpt lat="45.68528" lon="6.73657">
        <ele>1544</ele>
        <time>2022-06-15T07:52:02Z</time>
      </trkpt>
      <trkpt lat="45.68531" lon="6.73652">
        <ele>1543.6</ele>
        <time>2022-06-15T07:52:03Z</time>
      </trkpt>
      <trkpt lat="45.68533" lon="6.73648">
        <ele>1543.3</ele>
        <time>2022-06-15T07:52:04Z</time>
      </trkpt>
      <trkpt lat="45.68536" lon="6.73643">
        <ele>1543</ele>
        <time>2022-06-15T07:52:05Z</time>
      </trkpt>
      <trkpt lat="45.68539" lon="6.73638">
        <ele>1542.9</ele>
        <time>2022-06-15T07:52:06Z</time>
      </trkpt>
      <trkpt lat="45.68542" lon="6.73634">
        <ele>1543.3</ele>
        <time>2022-06-15T07:52:07Z</time>
      </trkpt>
      <trkpt lat="45.68545" lon="6.73629">
        <ele>1543.7</ele>
        <time>2022-06-15T07:52:08Z</time>
      </trkpt>
      <trkpt lat="45.68547" lon="6.73624">
        <ele>1544.2</ele>
        <time>2022-06-15T07:52:09Z</time>
      </trkpt>
      <trkpt lat="45.6855" lon="6.7362">
        <ele>1544.6</ele>
        <time>2022-06-15T07:52:10Z</time>
      </trkpt>
      <trkpt lat="45.68552" lon="6.73615">
        <ele>1545</ele>
        <time>2022-06-15T07:52:11Z</time>
      </trkpt>
      <trkpt lat="45.68555" lon="6.7361">
        <ele>1545.2</ele>
        <time>2022-06-15T07:52:12Z</time>
      </trkpt>
      <trkpt lat="45.68557" lon="6.73606">
        <ele>1544.9</ele>
        <time>2022-06-15T07:52:13Z</time>
      </trkpt>
      <trkpt lat="45.68559" lon="6.73602">
        <ele>1544.8</ele>
        <time>2022-06-15T07:52:14Z</time>
      </trkpt>
      <trkpt lat="45.68561" lon="6.73597">
        <ele>1544.7</ele>
        <time>2022-06-15T07:52:15Z</time>
      </trkpt>
      <trkpt lat="45.68563" lon="6.73593">
        <ele>1544.7</ele>
        <time>2022-06-15T07:52:16Z</time>
      </trkpt>
      <trkpt lat="45.68565" lon="6.73588">
        <ele>1544.7</ele>
        <time>2022-06-15T07:52:17Z</time>
      </trkpt>
      <trkpt lat="45.68567" lon="6.73583">
        <ele>1544.8</ele>
        <time>2022-06-15T07:52:18Z</time>
      </trkpt>
      <trkpt lat="45.68569" lon="6.73579">
        <ele>1545.2</ele>
        <time>2022-06-15T07:52:19Z</time>
      </trkpt>
      <trkpt lat="45.6857" lon="6.73574">
        <ele>1545.6</ele>
        <time>2022-06-15T07:52:20Z</time>
      </trkpt>
      <trkpt lat="45.68572" lon="6.73569">
        <ele>1546</ele>
        <time>2022-06-15T07:52:21Z</time>
      </trkpt>
      <trkpt lat="45.68574" lon="6.73565">
        <ele>1546.3</ele>
        <time>2022-06-15T07:52:22Z</time>
      </trkpt>
      <trkpt lat="45.68575" lon="6.7356">
        <ele>1546.7</ele>
        <time>2022-06-15T07:52:23Z</time>
      </trkpt>
      <trkpt lat="45.68577" lon="6.73556">
        <ele>1547</ele>
        <time>2022-06-15T07:52:24Z</time>
      </trkpt>
      <trkpt lat="45.68578" lon="6.73551">
        <ele>1547.3</ele>
        <time>2022-06-15T07:52:25Z</time>
      </trkpt>
      <trkpt lat="45.68579" lon="6.73546">
        <ele>1547.6</ele>
        <time>2022-06-15T07:52:26Z</time>
      </trkpt>
      <trkpt lat="45.6858" lon="6.73542">
        <ele>1547.9</ele>
        <time>2022-06-15T07:52:27Z</time>
      </trkpt>
      <trkpt lat="45.68581" lon="6.73538">
        <ele>1548.2</ele>
        <time>2022-06-15T07:52:28Z</time>
      </trkpt>
      <trkpt lat="45.68582" lon="6.73533">
        <ele>1548.6</ele>
        <time>2022-06-15T07:52:29Z</time>
      </trkpt>
      <trkpt lat="45.68584" lon="6.73529">
        <ele>1548.9</ele>
        <time>2022-06-15T07:52:30Z</time>
      </trkpt>
      <trkpt lat="45.68584" lon="6.73524">
        <ele>1548.9</ele>
        <time>2022-06-15T07:52:31Z</time>
      </trkpt>
      <trkpt lat="45.68585" lon="6.73519">
        <ele>1548.9</ele>
        <time>2022-06-15T07:52:32Z</time>
      </trkpt>
      <trkpt lat="45.68586" lon="6.73515">
        <ele>1548.9</ele>
        <time>2022-06-15T07:52:33Z</time>
      </trkpt>
      <trkpt lat="45.68586" lon="6.7351">
        <ele>1549</ele>
        <time>2022-06-15T07:52:34Z</time>
      </trkpt>
      <trkpt lat="45.68587" lon="6.73505">
        <ele>1549.1</ele>
        <time>2022-06-15T07:52:35Z</time>
      </trkpt>
      <trkpt lat="45.68587" lon="6.73501">
        <ele>1549.2</ele>
        <time>2022-06-15T07:52:36Z</time>
      </trkpt>
      <trkpt lat="45.68587" lon="6.73496">
        <ele>1549.4</ele>
        <time>2022-06-15T07:52:37Z</time>
      </trkpt>
      <trkpt lat="45.68587" lon="6.73491">
        <ele>1549.5</ele>
        <time>2022-06-15T07:52:38Z</time>
      </trkpt>
      <trkpt lat="45.68588" lon="6.73487">
        <ele>1549.7</ele>
        <time>2022-06-15T07:52:39Z</time>
      </trkpt>
      <trkpt lat="45.68588" lon="6.73483">
        <ele>1549.9</ele>
        <time>2022-06-15T07:52:40Z</time>
      </trkpt>
      <trkpt lat="45.68588" lon="6.73478">
        <ele>1550.1</ele>
        <time>2022-06-15T07:52:41Z</time>
      </trkpt>
      <trkpt lat="45.68588" lon="6.73474">
        <ele>1550.3</ele>
        <time>2022-06-15T07:52:42Z</time>
      </trkpt>
      <trkpt lat="45.68588" lon="6.7347">
        <ele>1550.5</ele>
        <time>2022-06-15T07:52:43Z</time>
      </trkpt>
      <trkpt lat="45.68588" lon="6.73465">
        <ele>1550.7</ele>
        <time>2022-06-15T07:52:44Z</time>
      </trkpt>
      <trkpt lat="45.68588" lon="6.73461">
        <ele>1550.8</ele>
        <time>2022-06-15T07:52:45Z</time>
      </trkpt>
      <trkpt lat="45.68588" lon="6.73456">
        <ele>1551</ele>
        <time>2022-06-15T07:52:46Z</time>
      </trkpt>
      <trkpt lat="45.68588" lon="6.73452">
        <ele>1551.2</ele>
        <time>2022-06-15T07:52:47Z</time>
      </trkpt>
      <trkpt lat="45.68588" lon="6.73447">
        <ele>1551.4</ele>
        <time>2022-06-15T07:52:48Z</time>
      </trkpt>
      <trkpt lat="45.68588" lon="6.73443">
        <ele>1551.5</ele>
        <time>2022-06-15T07:52:49Z</time>
      </trkpt>
      <trkpt lat="45.68588" lon="6.73439">
        <ele>1551.6</ele>
        <time>2022-06-15T07:52:50Z</time>
      </trkpt>
      <trkpt lat="45.68588" lon="6.73434">
        <ele>1551.7</ele>
        <time>2022-06-15T07:52:51Z</time>
      </trkpt>
      <trkpt lat="45.68588" lon="6.7343">
        <ele>1551.8</ele>
        <time>2022-06-15T07:52:52Z</time>
      </trkpt>
      <trkpt lat="45.68588" lon="6.73425">
        <ele>1551.9</ele>
        <time>2022-06-15T07:52:53Z</time>
      </trkpt>
      <trkpt lat="45.68589" lon="6.7342">
        <ele>1552</ele>
        <time>2022-06-15T07:52:54Z</time>
      </trkpt>
      <trkpt lat="45.68589" lon="6.73416">
        <ele>1552.1</ele>
        <time>2022-06-15T07:52:55Z</time>
      </trkpt>
      <trkpt lat="45.6859" lon="6.73411">
        <ele>1552.4</ele>
        <time>2022-06-15T07:52:56Z</time>
      </trkpt>
      <trkpt lat="45.68591" lon="6.73406">
        <ele>1552.8</ele>
        <time>2022-06-15T07:52:57Z</time>
      </trkpt>
      <trkpt lat="45.68591" lon="6.73402">
        <ele>1553.2</ele>
        <time>2022-06-15T07:52:58Z</time>
      </trkpt>
      <trkpt lat="45.68592" lon="6.73397">
        <ele>1553.6</ele>
        <time>2022-06-15T07:52:59Z</time>
      </trkpt>
      <trkpt lat="45.68592" lon="6.73393">
        <ele>1554</ele>
        <time>2022-06-15T07:53:00Z</time>
      </trkpt>
      <trkpt lat="45.68593" lon="6.73388">
        <ele>1554.4</ele>
        <time>2022-06-15T07:53:01Z</time>
      </trkpt>
      <trkpt lat="45.68594" lon="6.73384">
        <ele>1554.5</ele>
        <time>2022-06-15T07:53:02Z</time>
      </trkpt>
      <trkpt lat="45.68595" lon="6.7338">
        <ele>1554.7</ele>
        <time>2022-06-15T07:53:03Z</time>
      </trkpt>
      <trkpt lat="45.68596" lon="6.73376">
        <ele>1554.8</ele>
        <time>2022-06-15T07:53:04Z</time>
      </trkpt>
      <trkpt lat="45.68598" lon="6.73373">
        <ele>1554.9</ele>
        <time>2022-06-15T07:53:05Z</time>
      </trkpt>
      <trkpt lat="45.68599" lon="6.73369">
        <ele>1554.9</ele>
        <time>2022-06-15T07:53:06Z</time>
      </trkpt>
      <trkpt lat="45.68601" lon="6.73366">
        <ele>1554.9</ele>
        <time>2022-06-15T07:53:07Z</time>
      </trkpt>
      <trkpt lat="45.68602" lon="6.73363">
        <ele>1554.9</ele>
        <time>2022-06-15T07:53:08Z</time>
      </trkpt>
      <trkpt lat="45.68604" lon="6.7336">
        <ele>1555</ele>
        <time>2022-06-15T07:53:09Z</time>
      </trkpt>
      <trkpt lat="45.68606" lon="6.73357">
        <ele>1555.5</ele>
        <time>2022-06-15T07:53:10Z</time>
      </trkpt>
      <trkpt lat="45.68608" lon="6.73354">
        <ele>1555.8</ele>
        <time>2022-06-15T07:53:11Z</time>
      </trkpt>
      <trkpt lat="45.68609" lon="6.73351">
        <ele>1556.2</ele>
        <time>2022-06-15T07:53:12Z</time>
      </trkpt>
      <trkpt lat="45.68611" lon="6.73348">
        <ele>1556.4</ele>
        <time>2022-06-15T07:53:13Z</time>
      </trkpt>
      <trkpt lat="45.68613" lon="6.73346">
        <ele>1556.5</ele>
        <time>2022-06-15T07:53:14Z</time>
      </trkpt>
      <trkpt lat="45.68615" lon="6.73343">
        <ele>1556.5</ele>
        <time>2022-06-15T07:53:15Z</time>
      </trkpt>
      <trkpt lat="45.68617" lon="6.73341">
        <ele>1556.6</ele>
        <time>2022-06-15T07:53:16Z</time>
      </trkpt>
      <trkpt lat="45.68619" lon="6.73339">
        <ele>1556.6</ele>
        <time>2022-06-15T07:53:17Z</time>
      </trkpt>
      <trkpt lat="45.68621" lon="6.73337">
        <ele>1556.7</ele>
        <time>2022-06-15T07:53:18Z</time>
      </trkpt>
      <trkpt lat="45.68623" lon="6.73335">
        <ele>1556.8</ele>
        <time>2022-06-15T07:53:19Z</time>
      </trkpt>
      <trkpt lat="45.68625" lon="6.73333">
        <ele>1557</ele>
        <time>2022-06-15T07:53:20Z</time>
      </trkpt>
      <trkpt lat="45.68627" lon="6.73331">
        <ele>1557.3</ele>
        <time>2022-06-15T07:53:21Z</time>
      </trkpt>
      <trkpt lat="45.68629" lon="6.7333">
        <ele>1557.6</ele>
        <time>2022-06-15T07:53:22Z</time>
      </trkpt>
      <trkpt lat="45.68631" lon="6.73328">
        <ele>1557.8</ele>
        <time>2022-06-15T07:53:23Z</time>
      </trkpt>
      <trkpt lat="45.68633" lon="6.73326">
        <ele>1557.9</ele>
        <time>2022-06-15T07:53:24Z</time>
      </trkpt>
      <trkpt lat="45.68635" lon="6.73325">
        <ele>1558</ele>
        <time>2022-06-15T07:53:25Z</time>
      </trkpt>
      <trkpt lat="45.68638" lon="6.73324">
        <ele>1557.9</ele>
        <time>2022-06-15T07:53:26Z</time>
      </trkpt>
      <trkpt lat="45.6864" lon="6.73323">
        <ele>1558</ele>
        <time>2022-06-15T07:53:27Z</time>
      </trkpt>
      <trkpt lat="45.68642" lon="6.73321">
        <ele>1558.3</ele>
        <time>2022-06-15T07:53:28Z</time>
      </trkpt>
      <trkpt lat="45.68644" lon="6.7332">
        <ele>1558.6</ele>
        <time>2022-06-15T07:53:29Z</time>
      </trkpt>
      <trkpt lat="45.68646" lon="6.73319">
        <ele>1558.7</ele>
        <time>2022-06-15T07:53:30Z</time>
      </trkpt>
      <trkpt lat="45.68648" lon="6.73318">
        <ele>1558.8</ele>
        <time>2022-06-15T07:53:31Z</time>
      </trkpt>
      <trkpt lat="45.68651" lon="6.73318">
        <ele>1558.8</ele>
        <time>2022-06-15T07:53:32Z</time>
      </trkpt>
      <trkpt lat="45.68653" lon="6.73317">
        <ele>1558.8</ele>
        <time>2022-06-15T07:53:33Z</time>
      </trkpt>
      <trkpt lat="45.68655" lon="6.73316">
        <ele>1558.9</ele>
        <time>2022-06-15T07:53:34Z</time>
      </trkpt>
      <trkpt lat="45.68657" lon="6.73316">
        <ele>1559</ele>
        <time>2022-06-15T07:53:35Z</time>
      </trkpt>
      <trkpt lat="45.6866" lon="6.73315">
        <ele>1559</ele>
        <time>2022-06-15T07:53:36Z</time>
      </trkpt>
      <trkpt lat="45.68662" lon="6.73314">
        <ele>1559.1</ele>
        <time>2022-06-15T07:53:37Z</time>
      </trkpt>
      <trkpt lat="45.68664" lon="6.73314">
        <ele>1559.2</ele>
        <time>2022-06-15T07:53:38Z</time>
      </trkpt>
      <trkpt lat="45.68667" lon="6.73313">
        <ele>1559.2</ele>
        <time>2022-06-15T07:53:39Z</time>
      </trkpt>
      <trkpt lat="45.68669" lon="6.73313">
        <ele>1559.5</ele>
        <time>2022-06-15T07:53:40Z</time>
      </trkpt>
      <trkpt lat="45.68672" lon="6.73313">
        <ele>1559.7</ele>
        <time>2022-06-15T07:53:41Z</time>
      </trkpt>
      <trkpt lat="45.68674" lon="6.73312">
        <ele>1560</ele>
        <time>2022-06-15T07:53:42Z</time>
      </trkpt>
      <trkpt lat="45.68676" lon="6.73312">
        <ele>1560.3</ele>
        <time>2022-06-15T07:53:43Z</time>
      </trkpt>
      <trkpt lat="45.68678" lon="6.73311">
        <ele>1560.7</ele>
        <time>2022-06-15T07:53:44Z</time>
      </trkpt>
      <trkpt lat="45.68681" lon="6.73311">
        <ele>1561.1</ele>
        <time>2022-06-15T07:53:45Z</time>
      </trkpt>
      <trkpt lat="45.68683" lon="6.7331">
        <ele>1561.6</ele>
        <time>2022-06-15T07:53:46Z</time>
      </trkpt>
      <trkpt lat="45.68685" lon="6.73309">
        <ele>1562.1</ele>
        <time>2022-06-15T07:53:47Z</time>
      </trkpt>
      <trkpt lat="45.68687" lon="6.73308">
        <ele>1562.6</ele>
        <time>2022-06-15T07:53:48Z</time>
      </trkpt>
      <trkpt lat="45.6869" lon="6.73307">
        <ele>1563</ele>
        <time>2022-06-15T07:53:49Z</time>
      </trkpt>
      <trkpt lat="45.68692" lon="6.73307">
        <ele>1563.3</ele>
        <time>2022-06-15T07:53:50Z</time>
      </trkpt>
      <trkpt lat="45.68694" lon="6.73307">
        <ele>1563.6</ele>
        <time>2022-06-15T07:53:51Z</time>
      </trkpt>
      <trkpt lat="45.68697" lon="6.73306">
        <ele>1563.8</ele>
        <time>2022-06-15T07:53:52Z</time>
      </trkpt>
      <trkpt lat="45.68699" lon="6.73306">
        <ele>1563.9</ele>
        <time>2022-06-15T07:53:53Z</time>
      </trkpt>
      <trkpt lat="45.68701" lon="6.73305">
        <ele>1564</ele>
        <time>2022-06-15T07:53:54Z</time>
      </trkpt>
      <trkpt lat="45.68704" lon="6.73305">
        <ele>1564.1</ele>
        <time>2022-06-15T07:53:55Z</time>
      </trkpt>
      <trkpt lat="45.68706" lon="6.73304">
        <ele>1564.3</ele>
        <time>2022-06-15T07:53:56Z</time>
      </trkpt>
      <trkpt lat="45.68708" lon="6.73303">
        <ele>1564.5</ele>
        <time>2022-06-15T07:53:57Z</time>
      </trkpt>
      <trkpt lat="45.6871" lon="6.73302">
        <ele>1564.7</ele>
        <time>2022-06-15T07:53:58Z</time>
      </trkpt>
      <trkpt lat="45.68712" lon="6.73302">
        <ele>1564.9</ele>
        <time>2022-06-15T07:53:59Z</time>
      </trkpt>
      <trkpt lat="45.68714" lon="6.73301">
        <ele>1564.9</ele>
        <time>2022-06-15T07:54:00Z</time>
      </trkpt>
      <trkpt lat="45.68716" lon="6.73301">
        <ele>1564.8</ele>
        <time>2022-06-15T07:54:01Z</time>
      </trkpt>
      <trkpt lat="45.68718" lon="6.73301">
        <ele>1564.9</ele>
        <time>2022-06-15T07:54:02Z</time>
      </trkpt>
      <trkpt lat="45.6872" lon="6.733">
        <ele>1565.1</ele>
        <time>2022-06-15T07:54:03Z</time>
      </trkpt>
      <trkpt lat="45.68722" lon="6.73299">
        <ele>1565.3</ele>
        <time>2022-06-15T07:54:04Z</time>
      </trkpt>
      <trkpt lat="45.68724" lon="6.73298">
        <ele>1565.7</ele>
        <time>2022-06-15T07:54:05Z</time>
      </trkpt>
      <trkpt lat="45.68726" lon="6.73298">
        <ele>1566.1</ele>
        <time>2022-06-15T07:54:06Z</time>
      </trkpt>
      <trkpt lat="45.68729" lon="6.73297">
        <ele>1566.3</ele>
        <time>2022-06-15T07:54:07Z</time>
      </trkpt>
      <trkpt lat="45.68731" lon="6.73297">
        <ele>1566.5</ele>
        <time>2022-06-15T07:54:08Z</time>
      </trkpt>
      <trkpt lat="45.68733" lon="6.73297">
        <ele>1566.7</ele>
        <time>2022-06-15T07:54:09Z</time>
      </trkpt>
      <trkpt lat="45.68735" lon="6.73297">
        <ele>1566.7</ele>
        <time>2022-06-15T07:54:10Z</time>
      </trkpt>
      <trkpt lat="45.68737" lon="6.73297">
        <ele>1566.8</ele>
        <time>2022-06-15T07:54:11Z</time>
      </trkpt>
      <trkpt lat="45.68738" lon="6.73297">
        <ele>1567</ele>
        <time>2022-06-15T07:54:12Z</time>
      </trkpt>
      <trkpt lat="45.6874" lon="6.73296">
        <ele>1567.4</ele>
        <time>2022-06-15T07:54:13Z</time>
      </trkpt>
      <trkpt lat="45.68742" lon="6.73295">
        <ele>1567.7</ele>
        <time>2022-06-15T07:54:14Z</time>
      </trkpt>
      <trkpt lat="45.68744" lon="6.73294">
        <ele>1568</ele>
        <time>2022-06-15T07:54:15Z</time>
      </trkpt>
      <trkpt lat="45.68746" lon="6.73294">
        <ele>1568.2</ele>
        <time>2022-06-15T07:54:16Z</time>
      </trkpt>
      <trkpt lat="45.68747" lon="6.73294">
        <ele>1568.4</ele>
        <time>2022-06-15T07:54:17Z</time>
      </trkpt>
      <trkpt lat="45.68749" lon="6.73293">
        <ele>1568.6</ele>
        <time>2022-06-15T07:54:18Z</time>
      </trkpt>
      <trkpt lat="45.68751" lon="6.73292">
        <ele>1568.8</ele>
        <time>2022-06-15T07:54:19Z</time>
      </trkpt>
      <trkpt lat="45.68753" lon="6.73291">
        <ele>1568.8</ele>
        <time>2022-06-15T07:54:20Z</time>
      </trkpt>
      <trkpt lat="45.68755" lon="6.7329">
        <ele>1568.9</ele>
        <time>2022-06-15T07:54:21Z</time>
      </trkpt>
      <trkpt lat="45.68757" lon="6.7329">
        <ele>1568.8</ele>
        <time>2022-06-15T07:54:22Z</time>
      </trkpt>
      <trkpt lat="45.68759" lon="6.73289">
        <ele>1568.7</ele>
        <time>2022-06-15T07:54:23Z</time>
      </trkpt>
      <trkpt lat="45.68761" lon="6.73288">
        <ele>1568.8</ele>
        <time>2022-06-15T07:54:24Z</time>
      </trkpt>
      <trkpt lat="45.68762" lon="6.73287">
        <ele>1569</ele>
        <time>2022-06-15T07:54:25Z</time>
      </trkpt>
      <trkpt lat="45.68764" lon="6.73286">
        <ele>1569.1</ele>
        <time>2022-06-15T07:54:26Z</time>
      </trkpt>
      <trkpt lat="45.68766" lon="6.73286">
        <ele>1569.1</ele>
        <time>2022-06-15T07:54:27Z</time>
      </trkpt>
      <trkpt lat="45.68768" lon="6.73285">
        <ele>1569.2</ele>
        <time>2022-06-15T07:54:28Z</time>
      </trkpt>
      <trkpt lat="45.6877" lon="6.73284">
        <ele>1569.1</ele>
        <time>2022-06-15T07:54:29Z</time>
      </trkpt>
      <trkpt lat="45.68772" lon="6.73284">
        <ele>1569.1</ele>
        <time>2022-06-15T07:54:30Z</time>
      </trkpt>
      <trkpt lat="45.68774" lon="6.73284">
        <ele>1569</ele>
        <time>2022-06-15T07:54:31Z</time>
      </trkpt>
      <trkpt lat="45.68776" lon="6.73284">
        <ele>1568.8</ele>
        <time>2022-06-15T07:54:32Z</time>
      </trkpt>
      <trkpt lat="45.68778" lon="6.73284">
        <ele>1568.7</ele>
        <time>2022-06-15T07:54:33Z</time>
      </trkpt>
      <trkpt lat="45.6878" lon="6.73283">
        <ele>1569</ele>
        <time>2022-06-15T07:54:34Z</time>
      </trkpt>
      <trkpt lat="45.68782" lon="6.73283">
        <ele>1569.4</ele>
        <time>2022-06-15T07:54:35Z</time>
      </trkpt>
      <trkpt lat="45.68784" lon="6.73282">
        <ele>1569.9</ele>
        <time>2022-06-15T07:54:36Z</time>
      </trkpt>
      <trkpt lat="45.68786" lon="6.73282">
        <ele>1570.3</ele>
        <time>2022-06-15T07:54:37Z</time>
      </trkpt>
      <trkpt lat="45.68788" lon="6.73282">
        <ele>1570.5</ele>
        <time>2022-06-15T07:54:38Z</time>
      </trkpt>
      <trkpt lat="45.6879" lon="6.73281">
        <ele>1570.9</ele>
        <time>2022-06-15T07:54:39Z</time>
      </trkpt>
      <trkpt lat="45.68792" lon="6.73281">
        <ele>1571.2</ele>
        <time>2022-06-15T07:54:40Z</time>
      </trkpt>
      <trkpt lat="45.68794" lon="6.7328">
        <ele>1571.7</ele>
        <time>2022-06-15T07:54:41Z</time>
      </trkpt>
      <trkpt lat="45.68796" lon="6.7328">
        <ele>1572</ele>
        <time>2022-06-15T07:54:42Z</time>
      </trkpt>
      <trkpt lat="45.68798" lon="6.7328">
        <ele>1572.3</ele>
        <time>2022-06-15T07:54:43Z</time>
      </trkpt>
      <trkpt lat="45.68801" lon="6.7328">
        <ele>1572.4</ele>
        <time>2022-06-15T07:54:44Z</time>
      </trkpt>
      <trkpt lat="45.68803" lon="6.73281">
        <ele>1572.5</ele>
        <time>2022-06-15T07:54:45Z</time>
      </trkpt>
      <trkpt lat="45.68805" lon="6.73281">
        <ele>1572.6</ele>
        <time>2022-06-15T07:54:46Z</time>
      </trkpt>
      <trkpt lat="45.68807" lon="6.73281">
        <ele>1573</ele>
        <time>2022-06-15T07:54:47Z</time>
      </trkpt>
      <trkpt lat="45.6881" lon="6.73281">
        <ele>1573.5</ele>
        <time>2022-06-15T07:54:48Z</time>
      </trkpt>
      <trkpt lat="45.68812" lon="6.73281">
        <ele>1573.8</ele>
        <time>2022-06-15T07:54:49Z</time>
      </trkpt>
      <trkpt lat="45.68814" lon="6.73281">
        <ele>1574.2</ele>
        <time>2022-06-15T07:54:50Z</time>
      </trkpt>
      <trkpt lat="45.68816" lon="6.73282">
        <ele>1574.3</ele>
        <time>2022-06-15T07:54:51Z</time>
      </trkpt>
      <trkpt lat="45.68818" lon="6.73283">
        <ele>1574.3</ele>
        <time>2022-06-15T07:54:52Z</time>
      </trkpt>
      <trkpt lat="45.6882" lon="6.73284">
        <ele>1574.4</ele>
        <time>2022-06-15T07:54:53Z</time>
      </trkpt>
      <trkpt lat="45.68822" lon="6.73286">
        <ele>1574.3</ele>
        <time>2022-06-15T07:54:54Z</time>
      </trkpt>
      <trkpt lat="45.68825" lon="6.73286">
        <ele>1574.6</ele>
        <time>2022-06-15T07:54:55Z</time>
      </trkpt>
      <trkpt lat="45.68827" lon="6.73287">
        <ele>1574.9</ele>
        <time>2022-06-15T07:54:56Z</time>
      </trkpt>
      <trkpt lat="45.68829" lon="6.73288">
        <ele>1575.2</ele>
        <time>2022-06-15T07:54:57Z</time>
      </trkpt>
      <trkpt lat="45.68831" lon="6.73288">
        <ele>1575.5</ele>
        <time>2022-06-15T07:54:58Z</time>
      </trkpt>
      <trkpt lat="45.68834" lon="6.73289">
        <ele>1575.9</ele>
        <time>2022-06-15T07:54:59Z</time>
      </trkpt>
      <trkpt lat="45.68836" lon="6.73289">
        <ele>1576.3</ele>
        <time>2022-06-15T07:55:00Z</time>
      </trkpt>
      <trkpt lat="45.68838" lon="6.7329">
        <ele>1576.7</ele>
        <time>2022-06-15T07:55:01Z</time>
      </trkpt>
      <trkpt lat="45.6884" lon="6.73291">
        <ele>1577</ele>
        <time>2022-06-15T07:55:02Z</time>
      </trkpt>
      <trkpt lat="45.68842" lon="6.73292">
        <ele>1577.4</ele>
        <time>2022-06-15T07:55:03Z</time>
      </trkpt>
      <trkpt lat="45.68844" lon="6.73292">
        <ele>1577.7</ele>
        <time>2022-06-15T07:55:04Z</time>
      </trkpt>
      <trkpt lat="45.68846" lon="6.73293">
        <ele>1577.9</ele>
        <time>2022-06-15T07:55:05Z</time>
      </trkpt>
      <trkpt lat="45.68848" lon="6.73294">
        <ele>1578.2</ele>
        <time>2022-06-15T07:55:06Z</time>
      </trkpt>
      <trkpt lat="45.6885" lon="6.73295">
        <ele>1578.5</ele>
        <time>2022-06-15T07:55:07Z</time>
      </trkpt>
      <trkpt lat="45.68852" lon="6.73296">
        <ele>1578.7</ele>
        <time>2022-06-15T07:55:08Z</time>
      </trkpt>
      <trkpt lat="45.68854" lon="6.73297">
        <ele>1578.9</ele>
        <time>2022-06-15T07:55:09Z</time>
      </trkpt>
      <trkpt lat="45.68856" lon="6.73298">
        <ele>1579.2</ele>
        <time>2022-06-15T07:55:10Z</time>
      </trkpt>
      <trkpt lat="45.68858" lon="6.733">
        <ele>1579.2</ele>
        <time>2022-06-15T07:55:11Z</time>
      </trkpt>
      <trkpt lat="45.6886" lon="6.733">
        <ele>1579.4</ele>
        <time>2022-06-15T07:55:12Z</time>
      </trkpt>
      <trkpt lat="45.68862" lon="6.73301">
        <ele>1579.7</ele>
        <time>2022-06-15T07:55:13Z</time>
      </trkpt>
      <trkpt lat="45.68864" lon="6.73302">
        <ele>1579.8</ele>
        <time>2022-06-15T07:55:14Z</time>
      </trkpt>
      <trkpt lat="45.68866" lon="6.73303">
        <ele>1579.7</ele>
        <time>2022-06-15T07:55:15Z</time>
      </trkpt>
      <trkpt lat="45.68868" lon="6.73305">
        <ele>1579.6</ele>
        <time>2022-06-15T07:55:16Z</time>
      </trkpt>
      <trkpt lat="45.6887" lon="6.73306">
        <ele>1579.4</ele>
        <time>2022-06-15T07:55:17Z</time>
      </trkpt>
      <trkpt lat="45.68872" lon="6.73307">
        <ele>1579.2</ele>
        <time>2022-06-15T07:55:18Z</time>
      </trkpt>
      <trkpt lat="45.68874" lon="6.73308">
        <ele>1579.1</ele>
        <time>2022-06-15T07:55:19Z</time>
      </trkpt>
      <trkpt lat="45.68877" lon="6.73309">
        <ele>1579.1</ele>
        <time>2022-06-15T07:55:20Z</time>
      </trkpt>
      <trkpt lat="45.68879" lon="6.7331">
        <ele>1579.2</ele>
        <time>2022-06-15T07:55:21Z</time>
      </trkpt>
      <trkpt lat="45.68881" lon="6.7331">
        <ele>1579.4</ele>
        <time>2022-06-15T07:55:22Z</time>
      </trkpt>
      <trkpt lat="45.68883" lon="6.73311">
        <ele>1579.5</ele>
        <time>2022-06-15T07:55:23Z</time>
      </trkpt>
      <trkpt lat="45.68885" lon="6.73311">
        <ele>1579.5</ele>
        <time>2022-06-15T07:55:24Z</time>
      </trkpt>
      <trkpt lat="45.68887" lon="6.73311">
        <ele>1579.8</ele>
        <time>2022-06-15T07:55:25Z</time>
      </trkpt>
      <trkpt lat="45.68889" lon="6.73311">
        <ele>1580.1</ele>
        <time>2022-06-15T07:55:26Z</time>
      </trkpt>
      <trkpt lat="45.68891" lon="6.73311">
        <ele>1580.4</ele>
        <time>2022-06-15T07:55:27Z</time>
      </trkpt>
      <trkpt lat="45.68893" lon="6.73311">
        <ele>1580.5</ele>
        <time>2022-06-15T07:55:28Z</time>
      </trkpt>
      <trkpt lat="45.68895" lon="6.73311">
        <ele>1580.7</ele>
        <time>2022-06-15T07:55:29Z</time>
      </trkpt>
      <trkpt lat="45.68897" lon="6.73311">
        <ele>1581</ele>
        <time>2022-06-15T07:55:30Z</time>
      </trkpt>
      <trkpt lat="45.689" lon="6.73311">
        <ele>1581.2</ele>
        <time>2022-06-15T07:55:31Z</time>
      </trkpt>
      <trkpt lat="45.68902" lon="6.73311">
        <ele>1581.4</ele>
        <time>2022-06-15T07:55:32Z</time>
      </trkpt>
      <trkpt lat="45.68904" lon="6.73311">
        <ele>1581.5</ele>
        <time>2022-06-15T07:55:33Z</time>
      </trkpt>
      <trkpt lat="45.68906" lon="6.73311">
        <ele>1581.7</ele>
        <time>2022-06-15T07:55:34Z</time>
      </trkpt>
      <trkpt lat="45.68908" lon="6.7331">
        <ele>1582</ele>
        <time>2022-06-15T07:55:35Z</time>
      </trkpt>
      <trkpt lat="45.6891" lon="6.7331">
        <ele>1582.3</ele>
        <time>2022-06-15T07:55:36Z</time>
      </trkpt>
      <trkpt lat="45.68912" lon="6.7331">
        <ele>1582.5</ele>
        <time>2022-06-15T07:55:37Z</time>
      </trkpt>
      <trkpt lat="45.68915" lon="6.73309">
        <ele>1583</ele>
        <time>2022-06-15T07:55:38Z</time>
      </trkpt>
      <trkpt lat="45.68917" lon="6.73309">
        <ele>1583.4</ele>
        <time>2022-06-15T07:55:39Z</time>
      </trkpt>
      <trkpt lat="45.68919" lon="6.73309">
        <ele>1583.4</ele>
        <time>2022-06-15T07:55:40Z</time>
      </trkpt>
      <trkpt lat="45.68921" lon="6.73309">
        <ele>1583.5</ele>
        <time>2022-06-15T07:55:41Z</time>
      </trkpt>
      <trkpt lat="45.68923" lon="6.73308">
        <ele>1583.7</ele>
        <time>2022-06-15T07:55:42Z</time>
      </trkpt>
      <trkpt lat="45.68925" lon="6.73308">
        <ele>1583.9</ele>
        <time>2022-06-15T07:55:43Z</time>
      </trkpt>
      <trkpt lat="45.68928" lon="6.73307">
        <ele>1584.2</ele>
        <time>2022-06-15T07:55:44Z</time>
      </trkpt>
      <trkpt lat="45.6893" lon="6.73306">
        <ele>1584.6</ele>
        <time>2022-06-15T07:55:45Z</time>
      </trkpt>
      <trkpt lat="45.68932" lon="6.73306">
        <ele>1584.7</ele>
        <time>2022-06-15T07:55:46Z</time>
      </trkpt>
      <trkpt lat="45.68934" lon="6.73305">
        <ele>1585.2</ele>
        <time>2022-06-15T07:55:47Z</time>
      </trkpt>
      <trkpt lat="45.68936" lon="6.73304">
        <ele>1585.7</ele>
        <time>2022-06-15T07:55:48Z</time>
      </trkpt>
      <trkpt lat="45.68938" lon="6.73303">
        <ele>1586.2</ele>
        <time>2022-06-15T07:55:49Z</time>
      </trkpt>
      <trkpt lat="45.6894" lon="6.73303">
        <ele>1586.4</ele>
        <time>2022-06-15T07:55:50Z</time>
      </trkpt>
      <trkpt lat="45.68943" lon="6.73302">
        <ele>1586.7</ele>
        <time>2022-06-15T07:55:51Z</time>
      </trkpt>
      <trkpt lat="45.68945" lon="6.73301">
        <ele>1587</ele>
        <time>2022-06-15T07:55:52Z</time>
      </trkpt>
      <trkpt lat="45.68947" lon="6.73301">
        <ele>1587.1</ele>
        <time>2022-06-15T07:55:53Z</time>
      </trkpt>
      <trkpt lat="45.6895" lon="6.733">
        <ele>1587.2</ele>
        <time>2022-06-15T07:55:54Z</time>
      </trkpt>
      <trkpt lat="45.68952" lon="6.733">
        <ele>1587.4</ele>
        <time>2022-06-15T07:55:55Z</time>
      </trkpt>
      <trkpt lat="45.68955" lon="6.73299">
        <ele>1587.6</ele>
        <time>2022-06-15T07:55:56Z</time>
      </trkpt>
      <trkpt lat="45.68957" lon="6.73299">
        <ele>1587.6</ele>
        <time>2022-06-15T07:55:57Z</time>
      </trkpt>
      <trkpt lat="45.68959" lon="6.73298">
        <ele>1587.7</ele>
        <time>2022-06-15T07:55:58Z</time>
      </trkpt>
      <trkpt lat="45.68961" lon="6.73298">
        <ele>1587.7</ele>
        <time>2022-06-15T07:55:59Z</time>
      </trkpt>
      <trkpt lat="45.68964" lon="6.73297">
        <ele>1587.9</ele>
        <time>2022-06-15T07:56:00Z</time>
      </trkpt>
      <trkpt lat="45.68966" lon="6.73296">
        <ele>1588.1</ele>
        <time>2022-06-15T07:56:01Z</time>
      </trkpt>
      <trkpt lat="45.68968" lon="6.73296">
        <ele>1588.2</ele>
        <time>2022-06-15T07:56:02Z</time>
      </trkpt>
      <trkpt lat="45.6897" lon="6.73295">
        <ele>1588.4</ele>
        <time>2022-06-15T07:56:03Z</time>
      </trkpt>
      <trkpt lat="45.68972" lon="6.73295">
        <ele>1588.4</ele>
        <time>2022-06-15T07:56:04Z</time>
      </trkpt>
      <trkpt lat="45.68975" lon="6.73294">
        <ele>1588.6</ele>
        <time>2022-06-15T07:56:05Z</time>
      </trkpt>
      <trkpt lat="45.68977" lon="6.73294">
        <ele>1588.8</ele>
        <time>2022-06-15T07:56:06Z</time>
      </trkpt>
      <trkpt lat="45.68979" lon="6.73293">
        <ele>1589</ele>
        <time>2022-06-15T07:56:07Z</time>
      </trkpt>
      <trkpt lat="45.68981" lon="6.73293">
        <ele>1589.2</ele>
        <time>2022-06-15T07:56:08Z</time>
      </trkpt>
      <trkpt lat="45.68984" lon="6.73292">
        <ele>1589.4</ele>
        <time>2022-06-15T07:56:09Z</time>
      </trkpt>
      <trkpt lat="45.68986" lon="6.73292">
        <ele>1589.5</ele>
        <time>2022-06-15T07:56:10Z</time>
      </trkpt>
      <trkpt lat="45.68988" lon="6.73292">
        <ele>1589.5</ele>
        <time>2022-06-15T07:56:11Z</time>
      </trkpt>
      <trkpt lat="45.6899" lon="6.73292">
        <ele>1589.6</ele>
        <time>2022-06-15T07:56:12Z</time>
      </trkpt>
      <trkpt lat="45.68993" lon="6.73291">
        <ele>1589.7</ele>
        <time>2022-06-15T07:56:13Z</time>
      </trkpt>
      <trkpt lat="45.68995" lon="6.73291">
        <ele>1589.7</ele>
        <time>2022-06-15T07:56:14Z</time>
      </trkpt>
      <trkpt lat="45.68998" lon="6.73291">
        <ele>1589.8</ele>
        <time>2022-06-15T07:56:15Z</time>
      </trkpt>
      <trkpt lat="45.69" lon="6.73291">
        <ele>1589.8</ele>
        <time>2022-06-15T07:56:16Z</time>
      </trkpt>
      <trkpt lat="45.69002" lon="6.73291">
        <ele>1590</ele>
        <time>2022-06-15T07:56:17Z</time>
      </trkpt>
      <trkpt lat="45.69004" lon="6.73291">
        <ele>1590</ele>
        <time>2022-06-15T07:56:18Z</time>
      </trkpt>
      <trkpt lat="45.69007" lon="6.73291">
        <ele>1590.1</ele>
        <time>2022-06-15T07:56:19Z</time>
      </trkpt>
      <trkpt lat="45.69009" lon="6.73291">
        <ele>1590.2</ele>
        <time>2022-06-15T07:56:20Z</time>
      </trkpt>
      <trkpt lat="45.69011" lon="6.73291">
        <ele>1590.5</ele>
        <time>2022-06-15T07:56:21Z</time>
      </trkpt>
      <trkpt lat="45.69013" lon="6.73291">
        <ele>1590.8</ele>
        <time>2022-06-15T07:56:22Z</time>
      </trkpt>
      <trkpt lat="45.69016" lon="6.7329">
        <ele>1591.1</ele>
        <time>2022-06-15T07:56:23Z</time>
      </trkpt>
      <trkpt lat="45.69018" lon="6.73289">
        <ele>1591.6</ele>
        <time>2022-06-15T07:56:24Z</time>
      </trkpt>
      <trkpt lat="45.6902" lon="6.73288">
        <ele>1591.9</ele>
        <time>2022-06-15T07:56:25Z</time>
      </trkpt>
      <trkpt lat="45.69022" lon="6.73287">
        <ele>1592.3</ele>
        <time>2022-06-15T07:56:26Z</time>
      </trkpt>
      <trkpt lat="45.69024" lon="6.73286">
        <ele>1592.7</ele>
        <time>2022-06-15T07:56:27Z</time>
      </trkpt>
      <trkpt lat="45.69027" lon="6.73286">
        <ele>1593</ele>
        <time>2022-06-15T07:56:28Z</time>
      </trkpt>
      <trkpt lat="45.69029" lon="6.73284">
        <ele>1593.4</ele>
        <time>2022-06-15T07:56:29Z</time>
      </trkpt>
      <trkpt lat="45.69031" lon="6.73283">
        <ele>1593.7</ele>
        <time>2022-06-15T07:56:30Z</time>
      </trkpt>
      <trkpt lat="45.69033" lon="6.73282">
        <ele>1594</ele>
        <time>2022-06-15T07:56:31Z</time>
      </trkpt>
      <trkpt lat="45.69035" lon="6.73281">
        <ele>1594.3</ele>
        <time>2022-06-15T07:56:32Z</time>
      </trkpt>
      <trkpt lat="45.69037" lon="6.7328">
        <ele>1594.6</ele>
        <time>2022-06-15T07:56:33Z</time>
      </trkpt>
      <trkpt lat="45.69039" lon="6.73279">
        <ele>1594.8</ele>
        <time>2022-06-15T07:56:34Z</time>
      </trkpt>
      <trkpt lat="45.69041" lon="6.73278">
        <ele>1595</ele>
        <time>2022-06-15T07:56:35Z</time>
      </trkpt>
      <trkpt lat="45.69043" lon="6.73277">
        <ele>1595.3</ele>
        <time>2022-06-15T07:56:36Z</time>
      </trkpt>
      <trkpt lat="45.69045" lon="6.73276">
        <ele>1595.5</ele>
        <time>2022-06-15T07:56:37Z</time>
      </trkpt>
      <trkpt lat="45.69047" lon="6.73275">
        <ele>1595.7</ele>
        <time>2022-06-15T07:56:38Z</time>
      </trkpt>
      <trkpt lat="45.6905" lon="6.73274">
        <ele>1595.8</ele>
        <time>2022-06-15T07:56:39Z</time>
      </trkpt>
      <trkpt lat="45.69052" lon="6.73273">
        <ele>1595.9</ele>
        <time>2022-06-15T07:56:40Z</time>
      </trkpt>
      <trkpt lat="45.69054" lon="6.73273">
        <ele>1595.9</ele>
        <time>2022-06-15T07:56:41Z</time>
      </trkpt>
      <trkpt lat="45.69056" lon="6.73272">
        <ele>1596</ele>
        <time>2022-06-15T07:56:42Z</time>
      </trkpt>
      <trkpt lat="45.69058" lon="6.73271">
        <ele>1596.3</ele>
        <time>2022-06-15T07:56:43Z</time>
      </trkpt>
      <trkpt lat="45.6906" lon="6.7327">
        <ele>1596.5</ele>
        <time>2022-06-15T07:56:44Z</time>
      </trkpt>
      <trkpt lat="45.69062" lon="6.73269">
        <ele>1596.7</ele>
        <time>2022-06-15T07:56:45Z</time>
      </trkpt>
      <trkpt lat="45.69064" lon="6.73269">
        <ele>1597</ele>
        <time>2022-06-15T07:56:46Z</time>
      </trkpt>
      <trkpt lat="45.69066" lon="6.73268">
        <ele>1597.1</ele>
        <time>2022-06-15T07:56:47Z</time>
      </trkpt>
      <trkpt lat="45.69068" lon="6.73267">
        <ele>1597.4</ele>
        <time>2022-06-15T07:56:48Z</time>
      </trkpt>
      <trkpt lat="45.69071" lon="6.73267">
        <ele>1597.7</ele>
        <time>2022-06-15T07:56:49Z</time>
      </trkpt>
      <trkpt lat="45.69073" lon="6.73266">
        <ele>1597.9</ele>
        <time>2022-06-15T07:56:50Z</time>
      </trkpt>
      <trkpt lat="45.69075" lon="6.73266">
        <ele>1598</ele>
        <time>2022-06-15T07:56:51Z</time>
      </trkpt>
      <trkpt lat="45.69077" lon="6.73266">
        <ele>1598.1</ele>
        <time>2022-06-15T07:56:52Z</time>
      </trkpt>
      <trkpt lat="45.69079" lon="6.73266">
        <ele>1598.2</ele>
        <time>2022-06-15T07:56:53Z</time>
      </trkpt>
      <trkpt lat="45.69081" lon="6.73266">
        <ele>1598.4</ele>
        <time>2022-06-15T07:56:54Z</time>
      </trkpt>
      <trkpt lat="45.69084" lon="6.73265">
        <ele>1598.7</ele>
        <time>2022-06-15T07:56:55Z</time>
      </trkpt>
      <trkpt lat="45.69086" lon="6.73265">
        <ele>1598.8</ele>
        <time>2022-06-15T07:56:56Z</time>
      </trkpt>
      <trkpt lat="45.69088" lon="6.73264">
        <ele>1599</ele>
        <time>2022-06-15T07:56:57Z</time>
      </trkpt>
      <trkpt lat="45.6909" lon="6.73264">
        <ele>1599.2</ele>
        <time>2022-06-15T07:56:58Z</time>
      </trkpt>
      <trkpt lat="45.69093" lon="6.73264">
        <ele>1599.3</ele>
        <time>2022-06-15T07:56:59Z</time>
      </trkpt>
      <trkpt lat="45.69095" lon="6.73263">
        <ele>1599.4</ele>
        <time>2022-06-15T07:57:00Z</time>
      </trkpt>
      <trkpt lat="45.69097" lon="6.73263">
        <ele>1599.5</ele>
        <time>2022-06-15T07:57:01Z</time>
      </trkpt>
      <trkpt lat="45.69099" lon="6.73263">
        <ele>1599.7</ele>
        <time>2022-06-15T07:57:02Z</time>
      </trkpt>
      <trkpt lat="45.69101" lon="6.73263">
        <ele>1599.8</ele>
        <time>2022-06-15T07:57:03Z</time>
      </trkpt>
      <trkpt lat="45.69103" lon="6.73262">
        <ele>1600</ele>
        <time>2022-06-15T07:57:04Z</time>
      </trkpt>
      <trkpt lat="45.69105" lon="6.73262">
        <ele>1600.3</ele>
        <time>2022-06-15T07:57:05Z</time>
      </trkpt>
      <trkpt lat="45.69108" lon="6.73261">
        <ele>1600.4</ele>
        <time>2022-06-15T07:57:06Z</time>
      </trkpt>
      <trkpt lat="45.6911" lon="6.73261">
        <ele>1600.6</ele>
        <time>2022-06-15T07:57:07Z</time>
      </trkpt>
      <trkpt lat="45.69112" lon="6.73261">
        <ele>1600.7</ele>
        <time>2022-06-15T07:57:08Z</time>
      </trkpt>
      <trkpt lat="45.69114" lon="6.73261">
        <ele>1601</ele>
        <time>2022-06-15T07:57:09Z</time>
      </trkpt>
      <trkpt lat="45.69116" lon="6.73261">
        <ele>1601.3</ele>
        <time>2022-06-15T07:57:10Z</time>
      </trkpt>
      <trkpt lat="45.69118" lon="6.73261">
        <ele>1601.5</ele>
        <time>2022-06-15T07:57:11Z</time>
      </trkpt>
      <trkpt lat="45.6912" lon="6.73261">
        <ele>1601.7</ele>
        <time>2022-06-15T07:57:12Z</time>
      </trkpt>
      <trkpt lat="45.69122" lon="6.73261">
        <ele>1601.8</ele>
        <time>2022-06-15T07:57:13Z</time>
      </trkpt>
      <trkpt lat="45.69124" lon="6.73261">
        <ele>1602.1</ele>
        <time>2022-06-15T07:57:14Z</time>
      </trkpt>
      <trkpt lat="45.69127" lon="6.73261">
        <ele>1602.3</ele>
        <time>2022-06-15T07:57:15Z</time>
      </trkpt>
      <trkpt lat="45.69129" lon="6.73261">
        <ele>1602.4</ele>
        <time>2022-06-15T07:57:16Z</time>
      </trkpt>
      <trkpt lat="45.69131" lon="6.73261">
        <ele>1602.5</ele>
        <time>2022-06-15T07:57:17Z</time>
      </trkpt>
      <trkpt lat="45.69133" lon="6.73262">
        <ele>1602.6</ele>
        <time>2022-06-15T07:57:18Z</time>
      </trkpt>
      <trkpt lat="45.69135" lon="6.73262">
        <ele>1602.8</ele>
        <time>2022-06-15T07:57:19Z</time>
      </trkpt>
      <trkpt lat="45.69137" lon="6.73262">
        <ele>1602.9</ele>
        <time>2022-06-15T07:57:20Z</time>
      </trkpt>
      <trkpt lat="45.69139" lon="6.73262">
        <ele>1603.2</ele>
        <time>2022-06-15T07:57:21Z</time>
      </trkpt>
      <trkpt lat="45.69141" lon="6.73262">
        <ele>1603.1</ele>
        <time>2022-06-15T07:57:22Z</time>
      </trkpt>
      <trkpt lat="45.69143" lon="6.73262">
        <ele>1603.1</ele>
        <time>2022-06-15T07:57:23Z</time>
      </trkpt>
      <trkpt lat="45.69147" lon="6.73261">
        <ele>1603.1</ele>
        <time>2022-06-15T07:57:24Z</time>
      </trkpt>
      <trkpt lat="45.69148" lon="6.73261">
        <ele>1603.1</ele>
        <time>2022-06-15T07:57:25Z</time>
      </trkpt>
      <trkpt lat="45.6915" lon="6.73262">
        <ele>1602.9</ele>
        <time>2022-06-15T07:57:26Z</time>
      </trkpt>
      <trkpt lat="45.69152" lon="6.73262">
        <ele>1602.8</ele>
        <time>2022-06-15T07:57:27Z</time>
      </trkpt>
      <trkpt lat="45.69155" lon="6.73261">
        <ele>1603</ele>
        <time>2022-06-15T07:57:28Z</time>
      </trkpt>
      <trkpt lat="45.69157" lon="6.73261">
        <ele>1603.1</ele>
        <time>2022-06-15T07:57:29Z</time>
      </trkpt>
      <trkpt lat="45.69159" lon="6.7326">
        <ele>1603.2</ele>
        <time>2022-06-15T07:57:30Z</time>
      </trkpt>
      <trkpt lat="45.69162" lon="6.7326">
        <ele>1603.2</ele>
        <time>2022-06-15T07:57:31Z</time>
      </trkpt>
      <trkpt lat="45.69163" lon="6.7326">
        <ele>1603.2</ele>
        <time>2022-06-15T07:57:32Z</time>
      </trkpt>
      <trkpt lat="45.69165" lon="6.7326">
        <ele>1603.2</ele>
        <time>2022-06-15T07:57:33Z</time>
      </trkpt>
      <trkpt lat="45.69168" lon="6.73259">
        <ele>1603.4</ele>
        <time>2022-06-15T07:57:34Z</time>
      </trkpt>
      <trkpt lat="45.6917" lon="6.73259">
        <ele>1603.7</ele>
        <time>2022-06-15T07:57:35Z</time>
      </trkpt>
      <trkpt lat="45.69172" lon="6.73258">
        <ele>1604.1</ele>
        <time>2022-06-15T07:57:36Z</time>
      </trkpt>
      <trkpt lat="45.69174" lon="6.73257">
        <ele>1604.5</ele>
        <time>2022-06-15T07:57:37Z</time>
      </trkpt>
      <trkpt lat="45.69176" lon="6.73257">
        <ele>1604.8</ele>
        <time>2022-06-15T07:57:38Z</time>
      </trkpt>
      <trkpt lat="45.69178" lon="6.73256">
        <ele>1605.1</ele>
        <time>2022-06-15T07:57:39Z</time>
      </trkpt>
      <trkpt lat="45.69181" lon="6.73256">
        <ele>1605.3</ele>
        <time>2022-06-15T07:57:40Z</time>
      </trkpt>
      <trkpt lat="45.69183" lon="6.73256">
        <ele>1605.6</ele>
        <time>2022-06-15T07:57:41Z</time>
      </trkpt>
      <trkpt lat="45.69185" lon="6.73255">
        <ele>1606</ele>
        <time>2022-06-15T07:57:42Z</time>
      </trkpt>
      <trkpt lat="45.69188" lon="6.73255">
        <ele>1606.2</ele>
        <time>2022-06-15T07:57:43Z</time>
      </trkpt>
      <trkpt lat="45.6919" lon="6.73254">
        <ele>1606.6</ele>
        <time>2022-06-15T07:57:44Z</time>
      </trkpt>
      <trkpt lat="45.69192" lon="6.73254">
        <ele>1606.9</ele>
        <time>2022-06-15T07:57:45Z</time>
      </trkpt>
      <trkpt lat="45.69194" lon="6.73253">
        <ele>1607.5</ele>
        <time>2022-06-15T07:57:46Z</time>
      </trkpt>
      <trkpt lat="45.69196" lon="6.73253">
        <ele>1607.7</ele>
        <time>2022-06-15T07:57:47Z</time>
      </trkpt>
      <trkpt lat="45.69198" lon="6.73252">
        <ele>1607.9</ele>
        <time>2022-06-15T07:57:48Z</time>
      </trkpt>
      <trkpt lat="45.69201" lon="6.73251">
        <ele>1608.1</ele>
        <time>2022-06-15T07:57:49Z</time>
      </trkpt>
      <trkpt lat="45.69203" lon="6.73251">
        <ele>1608.3</ele>
        <time>2022-06-15T07:57:50Z</time>
      </trkpt>
      <trkpt lat="45.69205" lon="6.7325">
        <ele>1608.5</ele>
        <time>2022-06-15T07:57:51Z</time>
      </trkpt>
      <trkpt lat="45.69207" lon="6.7325">
        <ele>1608.8</ele>
        <time>2022-06-15T07:57:52Z</time>
      </trkpt>
      <trkpt lat="45.69209" lon="6.73249">
        <ele>1609.3</ele>
        <time>2022-06-15T07:57:53Z</time>
      </trkpt>
      <trkpt lat="45.69211" lon="6.73248">
        <ele>1609.8</ele>
        <time>2022-06-15T07:57:54Z</time>
      </trkpt>
      <trkpt lat="45.69213" lon="6.73247">
        <ele>1610.1</ele>
        <time>2022-06-15T07:57:55Z</time>
      </trkpt>
      <trkpt lat="45.69215" lon="6.73246">
        <ele>1610.3</ele>
        <time>2022-06-15T07:57:56Z</time>
      </trkpt>
      <trkpt lat="45.69218" lon="6.73246">
        <ele>1610.5</ele>
        <time>2022-06-15T07:57:57Z</time>
      </trkpt>
      <trkpt lat="45.6922" lon="6.73245">
        <ele>1610.5</ele>
        <time>2022-06-15T07:57:58Z</time>
      </trkpt>
      <trkpt lat="45.69222" lon="6.73245">
        <ele>1610.7</ele>
        <time>2022-06-15T07:57:59Z</time>
      </trkpt>
      <trkpt lat="45.69224" lon="6.73244">
        <ele>1610.9</ele>
        <time>2022-06-15T07:58:00Z</time>
      </trkpt>
      <trkpt lat="45.69226" lon="6.73244">
        <ele>1611.1</ele>
        <time>2022-06-15T07:58:01Z</time>
      </trkpt>
      <trkpt lat="45.69228" lon="6.73243">
        <ele>1611.4</ele>
        <time>2022-06-15T07:58:02Z</time>
      </trkpt>
      <trkpt lat="45.6923" lon="6.73243">
        <ele>1611.5</ele>
        <time>2022-06-15T07:58:03Z</time>
      </trkpt>
      <trkpt lat="45.69232" lon="6.73243">
        <ele>1611.7</ele>
        <time>2022-06-15T07:58:04Z</time>
      </trkpt>
      <trkpt lat="45.69234" lon="6.73242">
        <ele>1612</ele>
        <time>2022-06-15T07:58:05Z</time>
      </trkpt>
      <trkpt lat="45.69236" lon="6.73242">
        <ele>1612.2</ele>
        <time>2022-06-15T07:58:06Z</time>
      </trkpt>
      <trkpt lat="45.69238" lon="6.73241">
        <ele>1612.5</ele>
        <time>2022-06-15T07:58:07Z</time>
      </trkpt>
      <trkpt lat="45.6924" lon="6.73241">
        <ele>1612.7</ele>
        <time>2022-06-15T07:58:08Z</time>
      </trkpt>
      <trkpt lat="45.69242" lon="6.73241">
        <ele>1612.8</ele>
        <time>2022-06-15T07:58:09Z</time>
      </trkpt>
      <trkpt lat="45.69244" lon="6.7324">
        <ele>1613</ele>
        <time>2022-06-15T07:58:10Z</time>
      </trkpt>
      <trkpt lat="45.69247" lon="6.7324">
        <ele>1613.2</ele>
        <time>2022-06-15T07:58:11Z</time>
      </trkpt>
      <trkpt lat="45.69249" lon="6.7324">
        <ele>1613.2</ele>
        <time>2022-06-15T07:58:12Z</time>
      </trkpt>
      <trkpt lat="45.69251" lon="6.7324">
        <ele>1613.3</ele>
        <time>2022-06-15T07:58:13Z</time>
      </trkpt>
      <trkpt lat="45.69253" lon="6.73239">
        <ele>1613.5</ele>
        <time>2022-06-15T07:58:14Z</time>
      </trkpt>
      <trkpt lat="45.69255" lon="6.73239">
        <ele>1613.7</ele>
        <time>2022-06-15T07:58:15Z</time>
      </trkpt>
      <trkpt lat="45.69257" lon="6.73239">
        <ele>1613.8</ele>
        <time>2022-06-15T07:58:16Z</time>
      </trkpt>
      <trkpt lat="45.69259" lon="6.73238">
        <ele>1614</ele>
        <time>2022-06-15T07:58:17Z</time>
      </trkpt>
      <trkpt lat="45.69262" lon="6.73238">
        <ele>1614.3</ele>
        <time>2022-06-15T07:58:18Z</time>
      </trkpt>
      <trkpt lat="45.69264" lon="6.73237">
        <ele>1614.7</ele>
        <time>2022-06-15T07:58:19Z</time>
      </trkpt>
      <trkpt lat="45.69266" lon="6.73237">
        <ele>1615.1</ele>
        <time>2022-06-15T07:58:20Z</time>
      </trkpt>
      <trkpt lat="45.69269" lon="6.73236">
        <ele>1615.4</ele>
        <time>2022-06-15T07:58:21Z</time>
      </trkpt>
      <trkpt lat="45.69271" lon="6.73235">
        <ele>1615.8</ele>
        <time>2022-06-15T07:58:22Z</time>
      </trkpt>
      <trkpt lat="45.69273" lon="6.73235">
        <ele>1616.1</ele>
        <time>2022-06-15T07:58:23Z</time>
      </trkpt>
      <trkpt lat="45.69275" lon="6.73234">
        <ele>1616.4</ele>
        <time>2022-06-15T07:58:24Z</time>
      </trkpt>
      <trkpt lat="45.69277" lon="6.73233">
        <ele>1617</ele>
        <time>2022-06-15T07:58:25Z</time>
      </trkpt>
      <trkpt lat="45.69279" lon="6.73232">
        <ele>1617.2</ele>
        <time>2022-06-15T07:58:26Z</time>
      </trkpt>
      <trkpt lat="45.69281" lon="6.73231">
        <ele>1617.2</ele>
        <time>2022-06-15T07:58:27Z</time>
      </trkpt>
      <trkpt lat="45.69284" lon="6.7323">
        <ele>1617.3</ele>
        <time>2022-06-15T07:58:28Z</time>
      </trkpt>
      <trkpt lat="45.69286" lon="6.73229">
        <ele>1617.2</ele>
        <time>2022-06-15T07:58:29Z</time>
      </trkpt>
      <trkpt lat="45.69288" lon="6.73228">
        <ele>1617.2</ele>
        <time>2022-06-15T07:58:30Z</time>
      </trkpt>
      <trkpt lat="45.6929" lon="6.73227">
        <ele>1617.1</ele>
        <time>2022-06-15T07:58:31Z</time>
      </trkpt>
      <trkpt lat="45.69292" lon="6.73226">
        <ele>1617.2</ele>
        <time>2022-06-15T07:58:32Z</time>
      </trkpt>
      <trkpt lat="45.69295" lon="6.73225">
        <ele>1617.5</ele>
        <time>2022-06-15T07:58:33Z</time>
      </trkpt>
      <trkpt lat="45.69297" lon="6.73224">
        <ele>1617.6</ele>
        <time>2022-06-15T07:58:34Z</time>
      </trkpt>
      <trkpt lat="45.69299" lon="6.73222">
        <ele>1617.7</ele>
        <time>2022-06-15T07:58:35Z</time>
      </trkpt>
      <trkpt lat="45.69301" lon="6.73221">
        <ele>1617.9</ele>
        <time>2022-06-15T07:58:36Z</time>
      </trkpt>
      <trkpt lat="45.69303" lon="6.7322">
        <ele>1618.1</ele>
        <time>2022-06-15T07:58:37Z</time>
      </trkpt>
      <trkpt lat="45.69305" lon="6.73219">
        <ele>1618</ele>
        <time>2022-06-15T07:58:38Z</time>
      </trkpt>
      <trkpt lat="45.69307" lon="6.73218">
        <ele>1618.1</ele>
        <time>2022-06-15T07:58:39Z</time>
      </trkpt>
      <trkpt lat="45.69309" lon="6.73216">
        <ele>1618.2</ele>
        <time>2022-06-15T07:58:40Z</time>
      </trkpt>
      <trkpt lat="45.69311" lon="6.73215">
        <ele>1618.3</ele>
        <time>2022-06-15T07:58:41Z</time>
      </trkpt>
      <trkpt lat="45.69313" lon="6.73214">
        <ele>1618.2</ele>
        <time>2022-06-15T07:58:42Z</time>
      </trkpt>
      <trkpt lat="45.69315" lon="6.73214">
        <ele>1618</ele>
        <time>2022-06-15T07:58:43Z</time>
      </trkpt>
      <trkpt lat="45.69317" lon="6.73213">
        <ele>1617.8</ele>
        <time>2022-06-15T07:58:44Z</time>
      </trkpt>
      <trkpt lat="45.69319" lon="6.73212">
        <ele>1617.7</ele>
        <time>2022-06-15T07:58:45Z</time>
      </trkpt>
      <trkpt lat="45.69321" lon="6.7321">
        <ele>1617.9</ele>
        <time>2022-06-15T07:58:46Z</time>
      </trkpt>
      <trkpt lat="45.69323" lon="6.73209">
        <ele>1617.9</ele>
        <time>2022-06-15T07:58:47Z</time>
      </trkpt>
      <trkpt lat="45.69324" lon="6.73207">
        <ele>1618</ele>
        <time>2022-06-15T07:58:48Z</time>
      </trkpt>
      <trkpt lat="45.69326" lon="6.73206">
        <ele>1618.2</ele>
        <time>2022-06-15T07:58:49Z</time>
      </trkpt>
      <trkpt lat="45.69328" lon="6.73204">
        <ele>1618.4</ele>
        <time>2022-06-15T07:58:50Z</time>
      </trkpt>
      <trkpt lat="45.6933" lon="6.73202">
        <ele>1618.6</ele>
        <time>2022-06-15T07:58:51Z</time>
      </trkpt>
      <trkpt lat="45.69331" lon="6.732">
        <ele>1618.7</ele>
        <time>2022-06-15T07:58:52Z</time>
      </trkpt>
      <trkpt lat="45.69333" lon="6.73198">
        <ele>1618.8</ele>
        <time>2022-06-15T07:58:53Z</time>
      </trkpt>
      <trkpt lat="45.69335" lon="6.73197">
        <ele>1618.5</ele>
        <time>2022-06-15T07:58:54Z</time>
      </trkpt>
      <trkpt lat="45.69336" lon="6.73195">
        <ele>1618.3</ele>
        <time>2022-06-15T07:58:55Z</time>
      </trkpt>
      <trkpt lat="45.69338" lon="6.73193">
        <ele>1617.8</ele>
        <time>2022-06-15T07:58:56Z</time>
      </trkpt>
      <trkpt lat="45.69339" lon="6.73191">
        <ele>1617.1</ele>
        <time>2022-06-15T07:58:57Z</time>
      </trkpt>
      <trkpt lat="45.69341" lon="6.73189">
        <ele>1616.5</ele>
        <time>2022-06-15T07:58:58Z</time>
      </trkpt>
      <trkpt lat="45.69342" lon="6.73186">
        <ele>1616.1</ele>
        <time>2022-06-15T07:58:59Z</time>
      </trkpt>
      <trkpt lat="45.69342" lon="6.73183">
        <ele>1615.9</ele>
        <time>2022-06-15T07:59:00Z</time>
      </trkpt>
      <trkpt lat="45.69342" lon="6.7318">
        <ele>1615.9</ele>
        <time>2022-06-15T07:59:01Z</time>
      </trkpt>
      <trkpt lat="45.69342" lon="6.73177">
        <ele>1615.9</ele>
        <time>2022-06-15T07:59:02Z</time>
      </trkpt>
      <trkpt lat="45.69342" lon="6.73174">
        <ele>1616.1</ele>
        <time>2022-06-15T07:59:03Z</time>
      </trkpt>
      <trkpt lat="45.69342" lon="6.7317">
        <ele>1616.3</ele>
        <time>2022-06-15T07:59:04Z</time>
      </trkpt>
      <trkpt lat="45.69341" lon="6.73167">
        <ele>1616.8</ele>
        <time>2022-06-15T07:59:05Z</time>
      </trkpt>
      <trkpt lat="45.69341" lon="6.73164">
        <ele>1617.2</ele>
        <time>2022-06-15T07:59:06Z</time>
      </trkpt>
      <trkpt lat="45.6934" lon="6.73161">
        <ele>1617.6</ele>
        <time>2022-06-15T07:59:07Z</time>
      </trkpt>
      <trkpt lat="45.6934" lon="6.73157">
        <ele>1617.9</ele>
        <time>2022-06-15T07:59:08Z</time>
      </trkpt>
      <trkpt lat="45.69339" lon="6.73154">
        <ele>1618.1</ele>
        <time>2022-06-15T07:59:09Z</time>
      </trkpt>
      <trkpt lat="45.69339" lon="6.73151">
        <ele>1618.4</ele>
        <time>2022-06-15T07:59:10Z</time>
      </trkpt>
      <trkpt lat="45.69339" lon="6.73148">
        <ele>1618.5</ele>
        <time>2022-06-15T07:59:11Z</time>
      </trkpt>
      <trkpt lat="45.69339" lon="6.73144">
        <ele>1618.6</ele>
        <time>2022-06-15T07:59:12Z</time>
      </trkpt>
      <trkpt lat="45.69339" lon="6.73141">
        <ele>1619</ele>
        <time>2022-06-15T07:59:13Z</time>
      </trkpt>
      <trkpt lat="45.69338" lon="6.73137">
        <ele>1619.7</ele>
        <time>2022-06-15T07:59:14Z</time>
      </trkpt>
      <trkpt lat="45.69337" lon="6.73133">
        <ele>1620.2</ele>
        <time>2022-06-15T07:59:15Z</time>
      </trkpt>
      <trkpt lat="45.69336" lon="6.7313">
        <ele>1620.8</ele>
        <time>2022-06-15T07:59:16Z</time>
      </trkpt>
      <trkpt lat="45.69336" lon="6.73126">
        <ele>1621.2</ele>
        <time>2022-06-15T07:59:17Z</time>
      </trkpt>
      <trkpt lat="45.69335" lon="6.73122">
        <ele>1621.5</ele>
        <time>2022-06-15T07:59:18Z</time>
      </trkpt>
      <trkpt lat="45.69335" lon="6.73118">
        <ele>1621.8</ele>
        <time>2022-06-15T07:59:19Z</time>
      </trkpt>
      <trkpt lat="45.69335" lon="6.73114">
        <ele>1622.2</ele>
        <time>2022-06-15T07:59:20Z</time>
      </trkpt>
      <trkpt lat="45.69334" lon="6.7311">
        <ele>1622.6</ele>
        <time>2022-06-15T07:59:21Z</time>
      </trkpt>
      <trkpt lat="45.69334" lon="6.73106">
        <ele>1623</ele>
        <time>2022-06-15T07:59:22Z</time>
      </trkpt>
      <trkpt lat="45.69334" lon="6.73102">
        <ele>1623.5</ele>
        <time>2022-06-15T07:59:23Z</time>
      </trkpt>
      <trkpt lat="45.69334" lon="6.73099">
        <ele>1623.8</ele>
        <time>2022-06-15T07:59:24Z</time>
      </trkpt>
      <trkpt lat="45.69334" lon="6.73095">
        <ele>1623.9</ele>
        <time>2022-06-15T07:59:25Z</time>
      </trkpt>
      <trkpt lat="45.69334" lon="6.73092">
        <ele>1624</ele>
        <time>2022-06-15T07:59:26Z</time>
      </trkpt>
      <trkpt lat="45.69335" lon="6.73089">
        <ele>1624</ele>
        <time>2022-06-15T07:59:27Z</time>
      </trkpt>
      <trkpt lat="45.69335" lon="6.73085">
        <ele>1624</ele>
        <time>2022-06-15T07:59:28Z</time>
      </trkpt>
      <trkpt lat="45.69336" lon="6.73082">
        <ele>1623.9</ele>
        <time>2022-06-15T07:59:29Z</time>
      </trkpt>
      <trkpt lat="45.69337" lon="6.73079">
        <ele>1623.9</ele>
        <time>2022-06-15T07:59:30Z</time>
      </trkpt>
      <trkpt lat="45.69337" lon="6.73076">
        <ele>1624</ele>
        <time>2022-06-15T07:59:31Z</time>
      </trkpt>
      <trkpt lat="45.69338" lon="6.73073">
        <ele>1624.1</ele>
        <time>2022-06-15T07:59:32Z</time>
      </trkpt>
      <trkpt lat="45.69339" lon="6.73071">
        <ele>1624.2</ele>
        <time>2022-06-15T07:59:33Z</time>
      </trkpt>
      <trkpt lat="45.69339" lon="6.73067">
        <ele>1624.3</ele>
        <time>2022-06-15T07:59:34Z</time>
      </trkpt>
      <trkpt lat="45.6934" lon="6.73064">
        <ele>1624.4</ele>
        <time>2022-06-15T07:59:35Z</time>
      </trkpt>
      <trkpt lat="45.69341" lon="6.73062">
        <ele>1624.4</ele>
        <time>2022-06-15T07:59:36Z</time>
      </trkpt>
      <trkpt lat="45.69342" lon="6.73059">
        <ele>1624.5</ele>
        <time>2022-06-15T07:59:37Z</time>
      </trkpt>
      <trkpt lat="45.69342" lon="6.73055">
        <ele>1624.6</ele>
        <time>2022-06-15T07:59:38Z</time>
      </trkpt>
      <trkpt lat="45.69343" lon="6.73052">
        <ele>1624.8</ele>
        <time>2022-06-15T07:59:39Z</time>
      </trkpt>
      <trkpt lat="45.69343" lon="6.73049">
        <ele>1625.1</ele>
        <time>2022-06-15T07:59:40Z</time>
      </trkpt>
      <trkpt lat="45.69344" lon="6.73046">
        <ele>1625.5</ele>
        <time>2022-06-15T07:59:41Z</time>
      </trkpt>
      <trkpt lat="45.69344" lon="6.73043">
        <ele>1625.7</ele>
        <time>2022-06-15T07:59:42Z</time>
      </trkpt>
      <trkpt lat="45.69345" lon="6.7304">
        <ele>1626</ele>
        <time>2022-06-15T07:59:43Z</time>
      </trkpt>
      <trkpt lat="45.69345" lon="6.73037">
        <ele>1626.5</ele>
        <time>2022-06-15T07:59:44Z</time>
      </trkpt>
      <trkpt lat="45.69345" lon="6.73033">
        <ele>1626.7</ele>
        <time>2022-06-15T07:59:45Z</time>
      </trkpt>
      <trkpt lat="45.69346" lon="6.73031">
        <ele>1626.9</ele>
        <time>2022-06-15T07:59:46Z</time>
      </trkpt>
      <trkpt lat="45.69346" lon="6.73028">
        <ele>1627</ele>
        <time>2022-06-15T07:59:47Z</time>
      </trkpt>
      <trkpt lat="45.69347" lon="6.73025">
        <ele>1627.3</ele>
        <time>2022-06-15T07:59:48Z</time>
      </trkpt>
      <trkpt lat="45.69347" lon="6.73022">
        <ele>1627.5</ele>
        <time>2022-06-15T07:59:49Z</time>
      </trkpt>
      <trkpt lat="45.69348" lon="6.73019">
        <ele>1627.8</ele>
        <time>2022-06-15T07:59:50Z</time>
      </trkpt>
      <trkpt lat="45.69348" lon="6.73016">
        <ele>1628.3</ele>
        <time>2022-06-15T07:59:51Z</time>
      </trkpt>
      <trkpt lat="45.69348" lon="6.73013">
        <ele>1628.7</ele>
        <time>2022-06-15T07:59:52Z</time>
      </trkpt>
      <trkpt lat="45.69349" lon="6.7301">
        <ele>1629</ele>
        <time>2022-06-15T07:59:53Z</time>
      </trkpt>
      <trkpt lat="45.69349" lon="6.73007">
        <ele>1629.3</ele>
        <time>2022-06-15T07:59:54Z</time>
      </trkpt>
      <trkpt lat="45.6935" lon="6.73005">
        <ele>1629.5</ele>
        <time>2022-06-15T07:59:55Z</time>
      </trkpt>
      <trkpt lat="45.69351" lon="6.73002">
        <ele>1629.8</ele>
        <time>2022-06-15T07:59:56Z</time>
      </trkpt>
      <trkpt lat="45.69351" lon="6.72999">
        <ele>1630.2</ele>
        <time>2022-06-15T07:59:57Z</time>
      </trkpt>
      <trkpt lat="45.69352" lon="6.72996">
        <ele>1630.4</ele>
        <time>2022-06-15T07:59:58Z</time>
      </trkpt>
      <trkpt lat="45.69353" lon="6.72993">
        <ele>1630.7</ele>
        <time>2022-06-15T07:59:59Z</time>
      </trkpt>
      <trkpt lat="45.69354" lon="6.72991">
        <ele>1630.9</ele>
        <time>2022-06-15T08:00:00Z</time>
      </trkpt>
      <trkpt lat="45.69355" lon="6.72988">
        <ele>1631.2</ele>
        <time>2022-06-15T08:00:01Z</time>
      </trkpt>
      <trkpt lat="45.69355" lon="6.72985">
        <ele>1631.5</ele>
        <time>2022-06-15T08:00:02Z</time>
      </trkpt>
      <trkpt lat="45.69356" lon="6.72982">
        <ele>1631.7</ele>
        <time>2022-06-15T08:00:03Z</time>
      </trkpt>
      <trkpt lat="45.69357" lon="6.7298">
        <ele>1631.9</ele>
        <time>2022-06-15T08:00:04Z</time>
      </trkpt>
      <trkpt lat="45.69357" lon="6.72977">
        <ele>1632.1</ele>
        <time>2022-06-15T08:00:05Z</time>
      </trkpt>
      <trkpt lat="45.69357" lon="6.72974">
        <ele>1632.5</ele>
        <time>2022-06-15T08:00:06Z</time>
      </trkpt>
      <trkpt lat="45.69358" lon="6.72972">
        <ele>1632.7</ele>
        <time>2022-06-15T08:00:07Z</time>
      </trkpt>
      <trkpt lat="45.69359" lon="6.72969">
        <ele>1632.6</ele>
        <time>2022-06-15T08:00:08Z</time>
      </trkpt>
      <trkpt lat="45.69359" lon="6.72967">
        <ele>1632.4</ele>
        <time>2022-06-15T08:00:09Z</time>
      </trkpt>
      <trkpt lat="45.6936" lon="6.72963">
        <ele>1632.5</ele>
        <time>2022-06-15T08:00:10Z</time>
      </trkpt>
      <trkpt lat="45.6936" lon="6.72961">
        <ele>1632.6</ele>
        <time>2022-06-15T08:00:11Z</time>
      </trkpt>
      <trkpt lat="45.6936" lon="6.72958">
        <ele>1632.9</ele>
        <time>2022-06-15T08:00:12Z</time>
      </trkpt>
      <trkpt lat="45.6936" lon="6.72955">
        <ele>1633</ele>
        <time>2022-06-15T08:00:13Z</time>
      </trkpt>
      <trkpt lat="45.6936" lon="6.72952">
        <ele>1633</ele>
        <time>2022-06-15T08:00:14Z</time>
      </trkpt>
      <trkpt lat="45.69361" lon="6.72949">
        <ele>1632.9</ele>
        <time>2022-06-15T08:00:15Z</time>
      </trkpt>
      <trkpt lat="45.69361" lon="6.72946">
        <ele>1632.9</ele>
        <time>2022-06-15T08:00:16Z</time>
      </trkpt>
      <trkpt lat="45.69361" lon="6.72943">
        <ele>1633</ele>
        <time>2022-06-15T08:00:17Z</time>
      </trkpt>
      <trkpt lat="45.69362" lon="6.7294">
        <ele>1633.3</ele>
        <time>2022-06-15T08:00:18Z</time>
      </trkpt>
      <trkpt lat="45.69361" lon="6.72937">
        <ele>1633.7</ele>
        <time>2022-06-15T08:00:19Z</time>
      </trkpt>
      <trkpt lat="45.69362" lon="6.72935">
        <ele>1633.9</ele>
        <time>2022-06-15T08:00:20Z</time>
      </trkpt>
      <trkpt lat="45.69362" lon="6.72932">
        <ele>1634</ele>
        <time>2022-06-15T08:00:21Z</time>
      </trkpt>
      <trkpt lat="45.69362" lon="6.72929">
        <ele>1634.2</ele>
        <time>2022-06-15T08:00:22Z</time>
      </trkpt>
      <trkpt lat="45.69362" lon="6.72927">
        <ele>1634.4</ele>
        <time>2022-06-15T08:00:23Z</time>
      </trkpt>
      <trkpt lat="45.69362" lon="6.72924">
        <ele>1634.7</ele>
        <time>2022-06-15T08:00:24Z</time>
      </trkpt>
      <trkpt lat="45.69362" lon="6.72921">
        <ele>1635.1</ele>
        <time>2022-06-15T08:00:25Z</time>
      </trkpt>
      <trkpt lat="45.69362" lon="6.72918">
        <ele>1635.6</ele>
        <time>2022-06-15T08:00:26Z</time>
      </trkpt>
      <trkpt lat="45.69362" lon="6.72915">
        <ele>1635.8</ele>
        <time>2022-06-15T08:00:27Z</time>
      </trkpt>
      <trkpt lat="45.69362" lon="6.72912">
        <ele>1635.9</ele>
        <time>2022-06-15T08:00:28Z</time>
      </trkpt>
      <trkpt lat="45.69362" lon="6.72909">
        <ele>1636.1</ele>
        <time>2022-06-15T08:00:29Z</time>
      </trkpt>
      <trkpt lat="45.69362" lon="6.72906">
        <ele>1636.4</ele>
        <time>2022-06-15T08:00:30Z</time>
      </trkpt>
      <trkpt lat="45.69363" lon="6.72903">
        <ele>1636.5</ele>
        <time>2022-06-15T08:00:31Z</time>
      </trkpt>
      <trkpt lat="45.69363" lon="6.729">
        <ele>1636.5</ele>
        <time>2022-06-15T08:00:32Z</time>
      </trkpt>
      <trkpt lat="45.69364" lon="6.72897">
        <ele>1636.5</ele>
        <time>2022-06-15T08:00:33Z</time>
      </trkpt>
      <trkpt lat="45.69365" lon="6.72895">
        <ele>1636.5</ele>
        <time>2022-06-15T08:00:34Z</time>
      </trkpt>
      <trkpt lat="45.69365" lon="6.72892">
        <ele>1636.6</ele>
        <time>2022-06-15T08:00:35Z</time>
      </trkpt>
      <trkpt lat="45.69366" lon="6.72889">
        <ele>1636.7</ele>
        <time>2022-06-15T08:00:36Z</time>
      </trkpt>
      <trkpt lat="45.69366" lon="6.72886">
        <ele>1636.8</ele>
        <time>2022-06-15T08:00:37Z</time>
      </trkpt>
      <trkpt lat="45.69366" lon="6.72883">
        <ele>1636.9</ele>
        <time>2022-06-15T08:00:38Z</time>
      </trkpt>
      <trkpt lat="45.69367" lon="6.72881">
        <ele>1636.9</ele>
        <time>2022-06-15T08:00:39Z</time>
      </trkpt>
      <trkpt lat="45.69367" lon="6.72878">
        <ele>1637</ele>
        <time>2022-06-15T08:00:40Z</time>
      </trkpt>
      <trkpt lat="45.69367" lon="6.72875">
        <ele>1637.1</ele>
        <time>2022-06-15T08:00:41Z</time>
      </trkpt>
      <trkpt lat="45.69368" lon="6.72872">
        <ele>1637.2</ele>
        <time>2022-06-15T08:00:42Z</time>
      </trkpt>
      <trkpt lat="45.69368" lon="6.72869">
        <ele>1637.4</ele>
        <time>2022-06-15T08:00:43Z</time>
      </trkpt>
      <trkpt lat="45.69368" lon="6.72866">
        <ele>1637.5</ele>
        <time>2022-06-15T08:00:44Z</time>
      </trkpt>
      <trkpt lat="45.69368" lon="6.72863">
        <ele>1637.6</ele>
        <time>2022-06-15T08:00:45Z</time>
      </trkpt>
      <trkpt lat="45.69369" lon="6.7286">
        <ele>1637.8</ele>
        <time>2022-06-15T08:00:46Z</time>
      </trkpt>
      <trkpt lat="45.69369" lon="6.72857">
        <ele>1638.1</ele>
        <time>2022-06-15T08:00:47Z</time>
      </trkpt>
      <trkpt lat="45.6937" lon="6.72854">
        <ele>1638.4</ele>
        <time>2022-06-15T08:00:48Z</time>
      </trkpt>
      <trkpt lat="45.6937" lon="6.72851">
        <ele>1638.7</ele>
        <time>2022-06-15T08:00:49Z</time>
      </trkpt>
      <trkpt lat="45.69371" lon="6.72848">
        <ele>1639</ele>
        <time>2022-06-15T08:00:50Z</time>
      </trkpt>
      <trkpt lat="45.69371" lon="6.72845">
        <ele>1639.4</ele>
        <time>2022-06-15T08:00:51Z</time>
      </trkpt>
      <trkpt lat="45.69372" lon="6.72842">
        <ele>1639.7</ele>
        <time>2022-06-15T08:00:52Z</time>
      </trkpt>
      <trkpt lat="45.69373" lon="6.7284">
        <ele>1639.9</ele>
        <time>2022-06-15T08:00:53Z</time>
      </trkpt>
      <trkpt lat="45.69374" lon="6.72837">
        <ele>1640.2</ele>
        <time>2022-06-15T08:00:54Z</time>
      </trkpt>
      <trkpt lat="45.69374" lon="6.72834">
        <ele>1640.5</ele>
        <time>2022-06-15T08:00:55Z</time>
      </trkpt>
      <trkpt lat="45.69375" lon="6.72832">
        <ele>1640.7</ele>
        <time>2022-06-15T08:00:56Z</time>
      </trkpt>
      <trkpt lat="45.69376" lon="6.72829">
        <ele>1640.9</ele>
        <time>2022-06-15T08:00:57Z</time>
      </trkpt>
      <trkpt lat="45.69376" lon="6.72826">
        <ele>1641.1</ele>
        <time>2022-06-15T08:00:58Z</time>
      </trkpt>
      <trkpt lat="45.69377" lon="6.72824">
        <ele>1641.4</ele>
        <time>2022-06-15T08:00:59Z</time>
      </trkpt>
      <trkpt lat="45.69377" lon="6.72821">
        <ele>1641.6</ele>
        <time>2022-06-15T08:01:00Z</time>
      </trkpt>
      <trkpt lat="45.69378" lon="6.72818">
        <ele>1641.9</ele>
        <time>2022-06-15T08:01:01Z</time>
      </trkpt>
      <trkpt lat="45.69378" lon="6.72815">
        <ele>1642.1</ele>
        <time>2022-06-15T08:01:02Z</time>
      </trkpt>
      <trkpt lat="45.69379" lon="6.72812">
        <ele>1642.4</ele>
        <time>2022-06-15T08:01:03Z</time>
      </trkpt>
      <trkpt lat="45.69379" lon="6.72809">
        <ele>1642.6</ele>
        <time>2022-06-15T08:01:04Z</time>
      </trkpt>
      <trkpt lat="45.6938" lon="6.72806">
        <ele>1642.9</ele>
        <time>2022-06-15T08:01:05Z</time>
      </trkpt>
      <trkpt lat="45.6938" lon="6.72804">
        <ele>1643.1</ele>
        <time>2022-06-15T08:01:06Z</time>
      </trkpt>
      <trkpt lat="45.69381" lon="6.72801">
        <ele>1643.2</ele>
        <time>2022-06-15T08:01:07Z</time>
      </trkpt>
      <trkpt lat="45.69381" lon="6.72798">
        <ele>1643.3</ele>
        <time>2022-06-15T08:01:08Z</time>
      </trkpt>
      <trkpt lat="45.69382" lon="6.72795">
        <ele>1643.4</ele>
        <time>2022-06-15T08:01:09Z</time>
      </trkpt>
      <trkpt lat="45.69383" lon="6.72793">
        <ele>1643.5</ele>
        <time>2022-06-15T08:01:10Z</time>
      </trkpt>
      <trkpt lat="45.69384" lon="6.7279">
        <ele>1643.6</ele>
        <time>2022-06-15T08:01:11Z</time>
      </trkpt>
      <trkpt lat="45.69385" lon="6.72787">
        <ele>1643.7</ele>
        <time>2022-06-15T08:01:12Z</time>
      </trkpt>
      <trkpt lat="45.69385" lon="6.72785">
        <ele>1643.8</ele>
        <time>2022-06-15T08:01:13Z</time>
      </trkpt>
      <trkpt lat="45.69386" lon="6.72782">
        <ele>1643.9</ele>
        <time>2022-06-15T08:01:14Z</time>
      </trkpt>
      <trkpt lat="45.69386" lon="6.7278">
        <ele>1644.1</ele>
        <time>2022-06-15T08:01:15Z</time>
      </trkpt>
      <trkpt lat="45.69386" lon="6.72777">
        <ele>1644.4</ele>
        <time>2022-06-15T08:01:16Z</time>
      </trkpt>
      <trkpt lat="45.69387" lon="6.72774">
        <ele>1644.7</ele>
        <time>2022-06-15T08:01:17Z</time>
      </trkpt>
      <trkpt lat="45.69387" lon="6.72771">
        <ele>1645.2</ele>
        <time>2022-06-15T08:01:18Z</time>
      </trkpt>
      <trkpt lat="45.69388" lon="6.72768">
        <ele>1645.6</ele>
        <time>2022-06-15T08:01:19Z</time>
      </trkpt>
      <trkpt lat="45.69388" lon="6.72765">
        <ele>1645.9</ele>
        <time>2022-06-15T08:01:20Z</time>
      </trkpt>
      <trkpt lat="45.69389" lon="6.72763">
        <ele>1646.2</ele>
        <time>2022-06-15T08:01:21Z</time>
      </trkpt>
      <trkpt lat="45.6939" lon="6.7276">
        <ele>1646.4</ele>
        <time>2022-06-15T08:01:22Z</time>
      </trkpt>
      <trkpt lat="45.6939" lon="6.72757">
        <ele>1646.6</ele>
        <time>2022-06-15T08:01:23Z</time>
      </trkpt>
      <trkpt lat="45.6939" lon="6.72754">
        <ele>1646.9</ele>
        <time>2022-06-15T08:01:24Z</time>
      </trkpt>
      <trkpt lat="45.69391" lon="6.72751">
        <ele>1647.2</ele>
        <time>2022-06-15T08:01:25Z</time>
      </trkpt>
      <trkpt lat="45.69391" lon="6.72748">
        <ele>1647.3</ele>
        <time>2022-06-15T08:01:26Z</time>
      </trkpt>
      <trkpt lat="45.69392" lon="6.72746">
        <ele>1647.4</ele>
        <time>2022-06-15T08:01:27Z</time>
      </trkpt>
      <trkpt lat="45.69392" lon="6.72743">
        <ele>1647.5</ele>
        <time>2022-06-15T08:01:28Z</time>
      </trkpt>
      <trkpt lat="45.69393" lon="6.7274">
        <ele>1647.4</ele>
        <time>2022-06-15T08:01:29Z</time>
      </trkpt>
      <trkpt lat="45.69394" lon="6.72738">
        <ele>1647.5</ele>
        <time>2022-06-15T08:01:30Z</time>
      </trkpt>
      <trkpt lat="45.69394" lon="6.72735">
        <ele>1647.8</ele>
        <time>2022-06-15T08:01:31Z</time>
      </trkpt>
      <trkpt lat="45.69394" lon="6.72732">
        <ele>1648</ele>
        <time>2022-06-15T08:01:32Z</time>
      </trkpt>
      <trkpt lat="45.69395" lon="6.72729">
        <ele>1648.2</ele>
        <time>2022-06-15T08:01:33Z</time>
      </trkpt>
      <trkpt lat="45.69395" lon="6.72726">
        <ele>1648.4</ele>
        <time>2022-06-15T08:01:34Z</time>
      </trkpt>
      <trkpt lat="45.69396" lon="6.72723">
        <ele>1648.7</ele>
        <time>2022-06-15T08:01:35Z</time>
      </trkpt>
      <trkpt lat="45.69396" lon="6.7272">
        <ele>1649</ele>
        <time>2022-06-15T08:01:36Z</time>
      </trkpt>
      <trkpt lat="45.69397" lon="6.72717">
        <ele>1649.2</ele>
        <time>2022-06-15T08:01:37Z</time>
      </trkpt>
      <trkpt lat="45.69397" lon="6.72714">
        <ele>1649.5</ele>
        <time>2022-06-15T08:01:38Z</time>
      </trkpt>
      <trkpt lat="45.69398" lon="6.72712">
        <ele>1649.7</ele>
        <time>2022-06-15T08:01:39Z</time>
      </trkpt>
      <trkpt lat="45.69398" lon="6.72709">
        <ele>1650</ele>
        <time>2022-06-15T08:01:40Z</time>
      </trkpt>
      <trkpt lat="45.69399" lon="6.72706">
        <ele>1650.2</ele>
        <time>2022-06-15T08:01:41Z</time>
      </trkpt>
      <trkpt lat="45.694" lon="6.72703">
        <ele>1650.4</ele>
        <time>2022-06-15T08:01:42Z</time>
      </trkpt>
      <trkpt lat="45.694" lon="6.727">
        <ele>1650.7</ele>
        <time>2022-06-15T08:01:43Z</time>
      </trkpt>
      <trkpt lat="45.69401" lon="6.72697">
        <ele>1651</ele>
        <time>2022-06-15T08:01:44Z</time>
      </trkpt>
      <trkpt lat="45.69401" lon="6.72695">
        <ele>1651.2</ele>
        <time>2022-06-15T08:01:45Z</time>
      </trkpt>
      <trkpt lat="45.69401" lon="6.72692">
        <ele>1651.6</ele>
        <time>2022-06-15T08:01:46Z</time>
      </trkpt>
      <trkpt lat="45.69401" lon="6.72689">
        <ele>1651.9</ele>
        <time>2022-06-15T08:01:47Z</time>
      </trkpt>
      <trkpt lat="45.69401" lon="6.72686">
        <ele>1652.2</ele>
        <time>2022-06-15T08:01:48Z</time>
      </trkpt>
      <trkpt lat="45.69402" lon="6.72683">
        <ele>1652.4</ele>
        <time>2022-06-15T08:01:49Z</time>
      </trkpt>
      <trkpt lat="45.69402" lon="6.7268">
        <ele>1652.7</ele>
        <time>2022-06-15T08:01:50Z</time>
      </trkpt>
      <trkpt lat="45.69402" lon="6.72677">
        <ele>1653</ele>
        <time>2022-06-15T08:01:51Z</time>
      </trkpt>
      <trkpt lat="45.69403" lon="6.72674">
        <ele>1653.3</ele>
        <time>2022-06-15T08:01:52Z</time>
      </trkpt>
      <trkpt lat="45.69403" lon="6.72671">
        <ele>1653.6</ele>
        <time>2022-06-15T08:01:53Z</time>
      </trkpt>
      <trkpt lat="45.69403" lon="6.72668">
        <ele>1653.8</ele>
        <time>2022-06-15T08:01:54Z</time>
      </trkpt>
      <trkpt lat="45.69403" lon="6.72665">
        <ele>1654.1</ele>
        <time>2022-06-15T08:01:55Z</time>
      </trkpt>
      <trkpt lat="45.69404" lon="6.72662">
        <ele>1654.3</ele>
        <time>2022-06-15T08:01:56Z</time>
      </trkpt>
      <trkpt lat="45.69404" lon="6.72659">
        <ele>1654.5</ele>
        <time>2022-06-15T08:01:57Z</time>
      </trkpt>
      <trkpt lat="45.69404" lon="6.72656">
        <ele>1654.7</ele>
        <time>2022-06-15T08:01:58Z</time>
      </trkpt>
      <trkpt lat="45.69404" lon="6.72653">
        <ele>1655</ele>
        <time>2022-06-15T08:01:59Z</time>
      </trkpt>
      <trkpt lat="45.69405" lon="6.72651">
        <ele>1655.1</ele>
        <time>2022-06-15T08:02:00Z</time>
      </trkpt>
      <trkpt lat="45.69405" lon="6.72648">
        <ele>1655.3</ele>
        <time>2022-06-15T08:02:01Z</time>
      </trkpt>
      <trkpt lat="45.69406" lon="6.72645">
        <ele>1655.4</ele>
        <time>2022-06-15T08:02:02Z</time>
      </trkpt>
      <trkpt lat="45.69406" lon="6.72642">
        <ele>1655.6</ele>
        <time>2022-06-15T08:02:03Z</time>
      </trkpt>
      <trkpt lat="45.69407" lon="6.7264">
        <ele>1655.8</ele>
        <time>2022-06-15T08:02:04Z</time>
      </trkpt>
      <trkpt lat="45.69407" lon="6.72637">
        <ele>1655.6</ele>
        <time>2022-06-15T08:02:05Z</time>
      </trkpt>
      <trkpt lat="45.69408" lon="6.72634">
        <ele>1655.4</ele>
        <time>2022-06-15T08:02:06Z</time>
      </trkpt>
      <trkpt lat="45.69408" lon="6.72631">
        <ele>1655.3</ele>
        <time>2022-06-15T08:02:07Z</time>
      </trkpt>
      <trkpt lat="45.69408" lon="6.72627">
        <ele>1655.1</ele>
        <time>2022-06-15T08:02:08Z</time>
      </trkpt>
      <trkpt lat="45.69408" lon="6.72624">
        <ele>1655</ele>
        <time>2022-06-15T08:02:09Z</time>
      </trkpt>
      <trkpt lat="45.69408" lon="6.72621">
        <ele>1654.9</ele>
        <time>2022-06-15T08:02:10Z</time>
      </trkpt>
      <trkpt lat="45.69408" lon="6.72618">
        <ele>1654.8</ele>
        <time>2022-06-15T08:02:11Z</time>
      </trkpt>
      <trkpt lat="45.69408" lon="6.72615">
        <ele>1654.7</ele>
        <time>2022-06-15T08:02:12Z</time>
      </trkpt>
      <trkpt lat="45.69408" lon="6.72612">
        <ele>1654.6</ele>
        <time>2022-06-15T08:02:13Z</time>
      </trkpt>
      <trkpt lat="45.69407" lon="6.72609">
        <ele>1654.5</ele>
        <time>2022-06-15T08:02:14Z</time>
      </trkpt>
      <trkpt lat="45.69407" lon="6.72606">
        <ele>1654.4</ele>
        <time>2022-06-15T08:02:15Z</time>
      </trkpt>
      <trkpt lat="45.69407" lon="6.72603">
        <ele>1654.2</ele>
        <time>2022-06-15T08:02:16Z</time>
      </trkpt>
      <trkpt lat="45.69407" lon="6.726">
        <ele>1654.1</ele>
        <time>2022-06-15T08:02:17Z</time>
      </trkpt>
      <trkpt lat="45.69407" lon="6.72597">
        <ele>1653.9</ele>
        <time>2022-06-15T08:02:18Z</time>
      </trkpt>
      <trkpt lat="45.69407" lon="6.72595">
        <ele>1653.7</ele>
        <time>2022-06-15T08:02:19Z</time>
      </trkpt>
      <trkpt lat="45.69407" lon="6.72592">
        <ele>1653.5</ele>
        <time>2022-06-15T08:02:20Z</time>
      </trkpt>
      <trkpt lat="45.69407" lon="6.72589">
        <ele>1653.3</ele>
        <time>2022-06-15T08:02:21Z</time>
      </trkpt>
      <trkpt lat="45.69407" lon="6.72586">
        <ele>1653.2</ele>
        <time>2022-06-15T08:02:22Z</time>
      </trkpt>
      <trkpt lat="45.69407" lon="6.72583">
        <ele>1653.1</ele>
        <time>2022-06-15T08:02:23Z</time>
      </trkpt>
      <trkpt lat="45.69407" lon="6.7258">
        <ele>1653.7</ele>
        <time>2022-06-15T08:02:24Z</time>
      </trkpt>
      <trkpt lat="45.69407" lon="6.72577">
        <ele>1654.2</ele>
        <time>2022-06-15T08:02:25Z</time>
      </trkpt>
      <trkpt lat="45.69407" lon="6.72573">
        <ele>1654.8</ele>
        <time>2022-06-15T08:02:26Z</time>
      </trkpt>
      <trkpt lat="45.69406" lon="6.7257">
        <ele>1655.4</ele>
        <time>2022-06-15T08:02:27Z</time>
      </trkpt>
      <trkpt lat="45.69406" lon="6.72567">
        <ele>1656</ele>
        <time>2022-06-15T08:02:28Z</time>
      </trkpt>
      <trkpt lat="45.69406" lon="6.72565">
        <ele>1656.5</ele>
        <time>2022-06-15T08:02:29Z</time>
      </trkpt>
      <trkpt lat="45.69405" lon="6.72562">
        <ele>1657.1</ele>
        <time>2022-06-15T08:02:30Z</time>
      </trkpt>
      <trkpt lat="45.69405" lon="6.72559">
        <ele>1657.7</ele>
        <time>2022-06-15T08:02:31Z</time>
      </trkpt>
      <trkpt lat="45.69405" lon="6.72556">
        <ele>1658.2</ele>
        <time>2022-06-15T08:02:32Z</time>
      </trkpt>
      <trkpt lat="45.69405" lon="6.72553">
        <ele>1658.7</ele>
        <time>2022-06-15T08:02:33Z</time>
      </trkpt>
      <trkpt lat="45.69405" lon="6.7255">
        <ele>1659.3</ele>
        <time>2022-06-15T08:02:34Z</time>
      </trkpt>
      <trkpt lat="45.69405" lon="6.72547">
        <ele>1659.8</ele>
        <time>2022-06-15T08:02:35Z</time>
      </trkpt>
      <trkpt lat="45.69405" lon="6.72545">
        <ele>1660.2</ele>
        <time>2022-06-15T08:02:36Z</time>
      </trkpt>
      <trkpt lat="45.69405" lon="6.72542">
        <ele>1660.6</ele>
        <time>2022-06-15T08:02:37Z</time>
      </trkpt>
      <trkpt lat="45.69405" lon="6.72539">
        <ele>1661</ele>
        <time>2022-06-15T08:02:38Z</time>
      </trkpt>
      <trkpt lat="45.69405" lon="6.72536">
        <ele>1661.4</ele>
        <time>2022-06-15T08:02:39Z</time>
      </trkpt>
      <trkpt lat="45.69405" lon="6.72533">
        <ele>1661.8</ele>
        <time>2022-06-15T08:02:40Z</time>
      </trkpt>
      <trkpt lat="45.69405" lon="6.7253">
        <ele>1662.4</ele>
        <time>2022-06-15T08:02:41Z</time>
      </trkpt>
      <trkpt lat="45.69405" lon="6.72527">
        <ele>1662.8</ele>
        <time>2022-06-15T08:02:42Z</time>
      </trkpt>
      <trkpt lat="45.69404" lon="6.72524">
        <ele>1663</ele>
        <time>2022-06-15T08:02:43Z</time>
      </trkpt>
      <trkpt lat="45.69404" lon="6.72521">
        <ele>1663.3</ele>
        <time>2022-06-15T08:02:44Z</time>
      </trkpt>
      <trkpt lat="45.69404" lon="6.72518">
        <ele>1663.6</ele>
        <time>2022-06-15T08:02:45Z</time>
      </trkpt>
      <trkpt lat="45.69403" lon="6.72515">
        <ele>1663.9</ele>
        <time>2022-06-15T08:02:46Z</time>
      </trkpt>
      <trkpt lat="45.69403" lon="6.72512">
        <ele>1664</ele>
        <time>2022-06-15T08:02:47Z</time>
      </trkpt>
      <trkpt lat="45.69403" lon="6.72509">
        <ele>1664.2</ele>
        <time>2022-06-15T08:02:48Z</time>
      </trkpt>
      <trkpt lat="45.69403" lon="6.72506">
        <ele>1664.3</ele>
        <time>2022-06-15T08:02:49Z</time>
      </trkpt>
      <trkpt lat="45.69403" lon="6.72504">
        <ele>1664.4</ele>
        <time>2022-06-15T08:02:50Z</time>
      </trkpt>
      <trkpt lat="45.69403" lon="6.72501">
        <ele>1664.6</ele>
        <time>2022-06-15T08:02:51Z</time>
      </trkpt>
      <trkpt lat="45.69403" lon="6.72498">
        <ele>1664.6</ele>
        <time>2022-06-15T08:02:52Z</time>
      </trkpt>
      <trkpt lat="45.69403" lon="6.72495">
        <ele>1664.6</ele>
        <time>2022-06-15T08:02:53Z</time>
      </trkpt>
      <trkpt lat="45.69403" lon="6.72492">
        <ele>1664.6</ele>
        <time>2022-06-15T08:02:54Z</time>
      </trkpt>
      <trkpt lat="45.69403" lon="6.72489">
        <ele>1664.6</ele>
        <time>2022-06-15T08:02:55Z</time>
      </trkpt>
      <trkpt lat="45.69403" lon="6.72487">
        <ele>1664.6</ele>
        <time>2022-06-15T08:02:56Z</time>
      </trkpt>
      <trkpt lat="45.69402" lon="6.72484">
        <ele>1664.7</ele>
        <time>2022-06-15T08:02:57Z</time>
      </trkpt>
      <trkpt lat="45.69402" lon="6.72481">
        <ele>1664.9</ele>
        <time>2022-06-15T08:02:58Z</time>
      </trkpt>
      <trkpt lat="45.69402" lon="6.72478">
        <ele>1665</ele>
        <time>2022-06-15T08:02:59Z</time>
      </trkpt>
      <trkpt lat="45.69401" lon="6.72475">
        <ele>1665.2</ele>
        <time>2022-06-15T08:03:00Z</time>
      </trkpt>
      <trkpt lat="45.69401" lon="6.72472">
        <ele>1665.4</ele>
        <time>2022-06-15T08:03:01Z</time>
      </trkpt>
      <trkpt lat="45.694" lon="6.72469">
        <ele>1665.6</ele>
        <time>2022-06-15T08:03:02Z</time>
      </trkpt>
      <trkpt lat="45.694" lon="6.72466">
        <ele>1665.7</ele>
        <time>2022-06-15T08:03:03Z</time>
      </trkpt>
      <trkpt lat="45.69399" lon="6.72463">
        <ele>1666</ele>
        <time>2022-06-15T08:03:04Z</time>
      </trkpt>
      <trkpt lat="45.69399" lon="6.7246">
        <ele>1666.1</ele>
        <time>2022-06-15T08:03:05Z</time>
      </trkpt>
      <trkpt lat="45.69399" lon="6.72457">
        <ele>1666.3</ele>
        <time>2022-06-15T08:03:06Z</time>
      </trkpt>
      <trkpt lat="45.69398" lon="6.72454">
        <ele>1666.6</ele>
        <time>2022-06-15T08:03:07Z</time>
      </trkpt>
      <trkpt lat="45.69398" lon="6.72452">
        <ele>1666.8</ele>
        <time>2022-06-15T08:03:08Z</time>
      </trkpt>
      <trkpt lat="45.69397" lon="6.72449">
        <ele>1667.1</ele>
        <time>2022-06-15T08:03:09Z</time>
      </trkpt>
      <trkpt lat="45.69397" lon="6.72446">
        <ele>1667.3</ele>
        <time>2022-06-15T08:03:10Z</time>
      </trkpt>
      <trkpt lat="45.69397" lon="6.72443">
        <ele>1667.3</ele>
        <time>2022-06-15T08:03:11Z</time>
      </trkpt>
      <trkpt lat="45.69397" lon="6.7244">
        <ele>1667.4</ele>
        <time>2022-06-15T08:03:12Z</time>
      </trkpt>
      <trkpt lat="45.69397" lon="6.72437">
        <ele>1667.5</ele>
        <time>2022-06-15T08:03:13Z</time>
      </trkpt>
      <trkpt lat="45.69397" lon="6.72434">
        <ele>1667.6</ele>
        <time>2022-06-15T08:03:14Z</time>
      </trkpt>
      <trkpt lat="45.69396" lon="6.72431">
        <ele>1667.9</ele>
        <time>2022-06-15T08:03:15Z</time>
      </trkpt>
      <trkpt lat="45.69396" lon="6.72428">
        <ele>1668.1</ele>
        <time>2022-06-15T08:03:16Z</time>
      </trkpt>
      <trkpt lat="45.69395" lon="6.72426">
        <ele>1668.3</ele>
        <time>2022-06-15T08:03:17Z</time>
      </trkpt>
      <trkpt lat="45.69395" lon="6.72423">
        <ele>1668.6</ele>
        <time>2022-06-15T08:03:18Z</time>
      </trkpt>
      <trkpt lat="45.69395" lon="6.7242">
        <ele>1668.7</ele>
        <time>2022-06-15T08:03:19Z</time>
      </trkpt>
      <trkpt lat="45.69394" lon="6.72417">
        <ele>1668.9</ele>
        <time>2022-06-15T08:03:20Z</time>
      </trkpt>
      <trkpt lat="45.69394" lon="6.72414">
        <ele>1669.2</ele>
        <time>2022-06-15T08:03:21Z</time>
      </trkpt>
      <trkpt lat="45.69393" lon="6.72411">
        <ele>1669.5</ele>
        <time>2022-06-15T08:03:22Z</time>
      </trkpt>
      <trkpt lat="45.69393" lon="6.72408">
        <ele>1669.9</ele>
        <time>2022-06-15T08:03:23Z</time>
      </trkpt>
      <trkpt lat="45.69392" lon="6.72405">
        <ele>1670.2</ele>
        <time>2022-06-15T08:03:24Z</time>
      </trkpt>
      <trkpt lat="45.69392" lon="6.72402">
        <ele>1670.3</ele>
        <time>2022-06-15T08:03:25Z</time>
      </trkpt>
      <trkpt lat="45.69392" lon="6.72398">
        <ele>1670.5</ele>
        <time>2022-06-15T08:03:26Z</time>
      </trkpt>
      <trkpt lat="45.69392" lon="6.72395">
        <ele>1670.7</ele>
        <time>2022-06-15T08:03:27Z</time>
      </trkpt>
      <trkpt lat="45.69392" lon="6.72392">
        <ele>1670.9</ele>
        <time>2022-06-15T08:03:28Z</time>
      </trkpt>
      <trkpt lat="45.69391" lon="6.72388">
        <ele>1671.2</ele>
        <time>2022-06-15T08:03:29Z</time>
      </trkpt>
      <trkpt lat="45.69391" lon="6.72385">
        <ele>1671.6</ele>
        <time>2022-06-15T08:03:30Z</time>
      </trkpt>
      <trkpt lat="45.6939" lon="6.72382">
        <ele>1671.9</ele>
        <time>2022-06-15T08:03:31Z</time>
      </trkpt>
      <trkpt lat="45.69391" lon="6.72379">
        <ele>1672</ele>
        <time>2022-06-15T08:03:32Z</time>
      </trkpt>
      <trkpt lat="45.69391" lon="6.72376">
        <ele>1672</ele>
        <time>2022-06-15T08:03:33Z</time>
      </trkpt>
      <trkpt lat="45.69392" lon="6.72373">
        <ele>1672</ele>
        <time>2022-06-15T08:03:34Z</time>
      </trkpt>
      <trkpt lat="45.69392" lon="6.7237">
        <ele>1671.9</ele>
        <time>2022-06-15T08:03:35Z</time>
      </trkpt>
      <trkpt lat="45.69393" lon="6.72367">
        <ele>1671.8</ele>
        <time>2022-06-15T08:03:36Z</time>
      </trkpt>
      <trkpt lat="45.69393" lon="6.72363">
        <ele>1671.7</ele>
        <time>2022-06-15T08:03:37Z</time>
      </trkpt>
      <trkpt lat="45.69394" lon="6.7236">
        <ele>1671.6</ele>
        <time>2022-06-15T08:03:38Z</time>
      </trkpt>
      <trkpt lat="45.69394" lon="6.72357">
        <ele>1671.9</ele>
        <time>2022-06-15T08:03:39Z</time>
      </trkpt>
      <trkpt lat="45.69394" lon="6.72354">
        <ele>1672.2</ele>
        <time>2022-06-15T08:03:40Z</time>
      </trkpt>
      <trkpt lat="45.69395" lon="6.7235">
        <ele>1672.4</ele>
        <time>2022-06-15T08:03:41Z</time>
      </trkpt>
      <trkpt lat="45.69395" lon="6.72347">
        <ele>1672.5</ele>
        <time>2022-06-15T08:03:42Z</time>
      </trkpt>
      <trkpt lat="45.69396" lon="6.72344">
        <ele>1672.7</ele>
        <time>2022-06-15T08:03:43Z</time>
      </trkpt>
      <trkpt lat="45.69397" lon="6.72341">
        <ele>1672.7</ele>
        <time>2022-06-15T08:03:44Z</time>
      </trkpt>
      <trkpt lat="45.69397" lon="6.72338">
        <ele>1672.7</ele>
        <time>2022-06-15T08:03:45Z</time>
      </trkpt>
      <trkpt lat="45.69398" lon="6.72335">
        <ele>1672.7</ele>
        <time>2022-06-15T08:03:46Z</time>
      </trkpt>
      <trkpt lat="45.69399" lon="6.72333">
        <ele>1672.7</ele>
        <time>2022-06-15T08:03:47Z</time>
      </trkpt>
      <trkpt lat="45.694" lon="6.7233">
        <ele>1672.9</ele>
        <time>2022-06-15T08:03:48Z</time>
      </trkpt>
      <trkpt lat="45.69401" lon="6.72327">
        <ele>1673.2</ele>
        <time>2022-06-15T08:03:49Z</time>
      </trkpt>
      <trkpt lat="45.69403" lon="6.72325">
        <ele>1673.5</ele>
        <time>2022-06-15T08:03:50Z</time>
      </trkpt>
      <trkpt lat="45.69404" lon="6.72322">
        <ele>1673.7</ele>
        <time>2022-06-15T08:03:51Z</time>
      </trkpt>
      <trkpt lat="45.69405" lon="6.7232">
        <ele>1674.1</ele>
        <time>2022-06-15T08:03:52Z</time>
      </trkpt>
      <trkpt lat="45.69406" lon="6.72317">
        <ele>1674.6</ele>
        <time>2022-06-15T08:03:53Z</time>
      </trkpt>
      <trkpt lat="45.69407" lon="6.72314">
        <ele>1675.2</ele>
        <time>2022-06-15T08:03:54Z</time>
      </trkpt>
      <trkpt lat="45.69409" lon="6.72311">
        <ele>1675.6</ele>
        <time>2022-06-15T08:03:55Z</time>
      </trkpt>
      <trkpt lat="45.6941" lon="6.72309">
        <ele>1676.1</ele>
        <time>2022-06-15T08:03:56Z</time>
      </trkpt>
      <trkpt lat="45.69411" lon="6.72306">
        <ele>1676.8</ele>
        <time>2022-06-15T08:03:57Z</time>
      </trkpt>
      <trkpt lat="45.69413" lon="6.72303">
        <ele>1676.8</ele>
        <time>2022-06-15T08:03:58Z</time>
      </trkpt>
      <trkpt lat="45.69414" lon="6.72301">
        <ele>1676.6</ele>
        <time>2022-06-15T08:03:59Z</time>
      </trkpt>
      <trkpt lat="45.69416" lon="6.72296">
        <ele>1676.2</ele>
        <time>2022-06-15T08:04:00Z</time>
      </trkpt>
      <trkpt lat="45.69416" lon="6.72295">
        <ele>1676.1</ele>
        <time>2022-06-15T08:04:01Z</time>
      </trkpt>
      <trkpt lat="45.69418" lon="6.72292">
        <ele>1675.6</ele>
        <time>2022-06-15T08:04:02Z</time>
      </trkpt>
      <trkpt lat="45.69419" lon="6.72289">
        <ele>1675.2</ele>
        <time>2022-06-15T08:04:03Z</time>
      </trkpt>
      <trkpt lat="45.6942" lon="6.72286">
        <ele>1674.8</ele>
        <time>2022-06-15T08:04:04Z</time>
      </trkpt>
      <trkpt lat="45.69421" lon="6.72283">
        <ele>1674.6</ele>
        <time>2022-06-15T08:04:05Z</time>
      </trkpt>
      <trkpt lat="45.69422" lon="6.7228">
        <ele>1674.4</ele>
        <time>2022-06-15T08:04:06Z</time>
      </trkpt>
      <trkpt lat="45.69423" lon="6.72277">
        <ele>1674.4</ele>
        <time>2022-06-15T08:04:07Z</time>
      </trkpt>
      <trkpt lat="45.69424" lon="6.72274">
        <ele>1675.1</ele>
        <time>2022-06-15T08:04:08Z</time>
      </trkpt>
      <trkpt lat="45.69425" lon="6.72271">
        <ele>1675.6</ele>
        <time>2022-06-15T08:04:09Z</time>
      </trkpt>
      <trkpt lat="45.69426" lon="6.72267">
        <ele>1676.2</ele>
        <time>2022-06-15T08:04:10Z</time>
      </trkpt>
      <trkpt lat="45.69427" lon="6.72265">
        <ele>1676.7</ele>
        <time>2022-06-15T08:04:11Z</time>
      </trkpt>
      <trkpt lat="45.69429" lon="6.72262">
        <ele>1677.1</ele>
        <time>2022-06-15T08:04:12Z</time>
      </trkpt>
      <trkpt lat="45.6943" lon="6.7226">
        <ele>1677.5</ele>
        <time>2022-06-15T08:04:13Z</time>
      </trkpt>
      <trkpt lat="45.69431" lon="6.72258">
        <ele>1677.9</ele>
        <time>2022-06-15T08:04:14Z</time>
      </trkpt>
      <trkpt lat="45.69432" lon="6.72256">
        <ele>1678.3</ele>
        <time>2022-06-15T08:04:15Z</time>
      </trkpt>
      <trkpt lat="45.69433" lon="6.72253">
        <ele>1678.8</ele>
        <time>2022-06-15T08:04:16Z</time>
      </trkpt>
      <trkpt lat="45.69434" lon="6.7225">
        <ele>1679.6</ele>
        <time>2022-06-15T08:04:17Z</time>
      </trkpt>
      <trkpt lat="45.69435" lon="6.72247">
        <ele>1680.6</ele>
        <time>2022-06-15T08:04:18Z</time>
      </trkpt>
      <trkpt lat="45.69436" lon="6.72244">
        <ele>1681.6</ele>
        <time>2022-06-15T08:04:19Z</time>
      </trkpt>
      <trkpt lat="45.69438" lon="6.72242">
        <ele>1682.2</ele>
        <time>2022-06-15T08:04:20Z</time>
      </trkpt>
      <trkpt lat="45.6944" lon="6.7224">
        <ele>1682.5</ele>
        <time>2022-06-15T08:04:21Z</time>
      </trkpt>
      <trkpt lat="45.69442" lon="6.72238">
        <ele>1683</ele>
        <time>2022-06-15T08:04:22Z</time>
      </trkpt>
      <trkpt lat="45.69444" lon="6.72235">
        <ele>1683.8</ele>
        <time>2022-06-15T08:04:23Z</time>
      </trkpt>
      <trkpt lat="45.69445" lon="6.72232">
        <ele>1684.4</ele>
        <time>2022-06-15T08:04:24Z</time>
      </trkpt>
      <trkpt lat="45.69447" lon="6.7223">
        <ele>1684.9</ele>
        <time>2022-06-15T08:04:25Z</time>
      </trkpt>
      <trkpt lat="45.69448" lon="6.72228">
        <ele>1685.5</ele>
        <time>2022-06-15T08:04:26Z</time>
      </trkpt>
      <trkpt lat="45.6945" lon="6.72225">
        <ele>1686</ele>
        <time>2022-06-15T08:04:27Z</time>
      </trkpt>
      <trkpt lat="45.69452" lon="6.72223">
        <ele>1686.4</ele>
        <time>2022-06-15T08:04:28Z</time>
      </trkpt>
      <trkpt lat="45.69454" lon="6.72221">
        <ele>1686.9</ele>
        <time>2022-06-15T08:04:29Z</time>
      </trkpt>
      <trkpt lat="45.69456" lon="6.72219">
        <ele>1687.5</ele>
        <time>2022-06-15T08:04:30Z</time>
      </trkpt>
      <trkpt lat="45.69458" lon="6.72217">
        <ele>1687.9</ele>
        <time>2022-06-15T08:04:31Z</time>
      </trkpt>
      <trkpt lat="45.69459" lon="6.72214">
        <ele>1688.6</ele>
        <time>2022-06-15T08:04:32Z</time>
      </trkpt>
      <trkpt lat="45.69461" lon="6.72213">
        <ele>1688.7</ele>
        <time>2022-06-15T08:04:33Z</time>
      </trkpt>
      <trkpt lat="45.69463" lon="6.72211">
        <ele>1688</ele>
        <time>2022-06-15T08:04:34Z</time>
      </trkpt>
      <trkpt lat="45.69466" lon="6.7221">
        <ele>1687.2</ele>
        <time>2022-06-15T08:04:35Z</time>
      </trkpt>
      <trkpt lat="45.69468" lon="6.72208">
        <ele>1686.3</ele>
        <time>2022-06-15T08:04:36Z</time>
      </trkpt>
      <trkpt lat="45.69471" lon="6.72206">
        <ele>1685.1</ele>
        <time>2022-06-15T08:04:37Z</time>
      </trkpt>
      <trkpt lat="45.69474" lon="6.72205">
        <ele>1684.7</ele>
        <time>2022-06-15T08:04:38Z</time>
      </trkpt>
      <trkpt lat="45.69476" lon="6.72204">
        <ele>1685.7</ele>
        <time>2022-06-15T08:04:39Z</time>
      </trkpt>
      <trkpt lat="45.69479" lon="6.72204">
        <ele>1686.6</ele>
        <time>2022-06-15T08:04:40Z</time>
      </trkpt>
      <trkpt lat="45.69482" lon="6.72203">
        <ele>1687.5</ele>
        <time>2022-06-15T08:04:41Z</time>
      </trkpt>
      <trkpt lat="45.69485" lon="6.72204">
        <ele>1688</ele>
        <time>2022-06-15T08:04:42Z</time>
      </trkpt>
      <trkpt lat="45.69487" lon="6.72205">
        <ele>1688.5</ele>
        <time>2022-06-15T08:04:43Z</time>
      </trkpt>
      <trkpt lat="45.6949" lon="6.72206">
        <ele>1689</ele>
        <time>2022-06-15T08:04:44Z</time>
      </trkpt>
      <trkpt lat="45.69492" lon="6.72207">
        <ele>1689.4</ele>
        <time>2022-06-15T08:04:45Z</time>
      </trkpt>
      <trkpt lat="45.69494" lon="6.72209">
        <ele>1689.7</ele>
        <time>2022-06-15T08:04:46Z</time>
      </trkpt>
      <trkpt lat="45.69496" lon="6.7221">
        <ele>1690</ele>
        <time>2022-06-15T08:04:47Z</time>
      </trkpt>
      <trkpt lat="45.69498" lon="6.72212">
        <ele>1690.3</ele>
        <time>2022-06-15T08:04:48Z</time>
      </trkpt>
      <trkpt lat="45.695" lon="6.72214">
        <ele>1690.5</ele>
        <time>2022-06-15T08:04:49Z</time>
      </trkpt>
      <trkpt lat="45.69502" lon="6.72216">
        <ele>1691.3</ele>
        <time>2022-06-15T08:04:50Z</time>
      </trkpt>
      <trkpt lat="45.69504" lon="6.72219">
        <ele>1691.9</ele>
        <time>2022-06-15T08:04:51Z</time>
      </trkpt>
      <trkpt lat="45.69506" lon="6.72221">
        <ele>1692.3</ele>
        <time>2022-06-15T08:04:52Z</time>
      </trkpt>
      <trkpt lat="45.69507" lon="6.72224">
        <ele>1692.4</ele>
        <time>2022-06-15T08:04:53Z</time>
      </trkpt>
      <trkpt lat="45.69509" lon="6.72226">
        <ele>1692.4</ele>
        <time>2022-06-15T08:04:54Z</time>
      </trkpt>
      <trkpt lat="45.6951" lon="6.72229">
        <ele>1692.5</ele>
        <time>2022-06-15T08:04:55Z</time>
      </trkpt>
      <trkpt lat="45.69512" lon="6.72232">
        <ele>1692.7</ele>
        <time>2022-06-15T08:04:56Z</time>
      </trkpt>
      <trkpt lat="45.69514" lon="6.72234">
        <ele>1692.6</ele>
        <time>2022-06-15T08:04:57Z</time>
      </trkpt>
      <trkpt lat="45.69515" lon="6.72237">
        <ele>1692.4</ele>
        <time>2022-06-15T08:04:58Z</time>
      </trkpt>
      <trkpt lat="45.69516" lon="6.72241">
        <ele>1691.9</ele>
        <time>2022-06-15T08:04:59Z</time>
      </trkpt>
      <trkpt lat="45.69517" lon="6.72244">
        <ele>1691.5</ele>
        <time>2022-06-15T08:05:00Z</time>
      </trkpt>
      <trkpt lat="45.69519" lon="6.72247">
        <ele>1691.1</ele>
        <time>2022-06-15T08:05:01Z</time>
      </trkpt>
      <trkpt lat="45.6952" lon="6.7225">
        <ele>1690.7</ele>
        <time>2022-06-15T08:05:02Z</time>
      </trkpt>
      <trkpt lat="45.69521" lon="6.72253">
        <ele>1691.1</ele>
        <time>2022-06-15T08:05:03Z</time>
      </trkpt>
      <trkpt lat="45.69521" lon="6.72257">
        <ele>1691.7</ele>
        <time>2022-06-15T08:05:04Z</time>
      </trkpt>
      <trkpt lat="45.69522" lon="6.7226">
        <ele>1692.1</ele>
        <time>2022-06-15T08:05:05Z</time>
      </trkpt>
      <trkpt lat="45.69523" lon="6.72263">
        <ele>1692.5</ele>
        <time>2022-06-15T08:05:06Z</time>
      </trkpt>
      <trkpt lat="45.69523" lon="6.72267">
        <ele>1692.9</ele>
        <time>2022-06-15T08:05:07Z</time>
      </trkpt>
      <trkpt lat="45.69524" lon="6.72271">
        <ele>1693.2</ele>
        <time>2022-06-15T08:05:08Z</time>
      </trkpt>
      <trkpt lat="45.69525" lon="6.72274">
        <ele>1693.5</ele>
        <time>2022-06-15T08:05:09Z</time>
      </trkpt>
      <trkpt lat="45.69525" lon="6.72278">
        <ele>1693.7</ele>
        <time>2022-06-15T08:05:10Z</time>
      </trkpt>
      <trkpt lat="45.69526" lon="6.72281">
        <ele>1693.7</ele>
        <time>2022-06-15T08:05:11Z</time>
      </trkpt>
      <trkpt lat="45.69527" lon="6.72285">
        <ele>1693.7</ele>
        <time>2022-06-15T08:05:12Z</time>
      </trkpt>
      <trkpt lat="45.69527" lon="6.72288">
        <ele>1693.6</ele>
        <time>2022-06-15T08:05:13Z</time>
      </trkpt>
      <trkpt lat="45.69528" lon="6.72292">
        <ele>1693.7</ele>
        <time>2022-06-15T08:05:14Z</time>
      </trkpt>
      <trkpt lat="45.69528" lon="6.72295">
        <ele>1693.8</ele>
        <time>2022-06-15T08:05:15Z</time>
      </trkpt>
      <trkpt lat="45.69529" lon="6.72299">
        <ele>1693.9</ele>
        <time>2022-06-15T08:05:16Z</time>
      </trkpt>
      <trkpt lat="45.69529" lon="6.72303">
        <ele>1694.1</ele>
        <time>2022-06-15T08:05:17Z</time>
      </trkpt>
      <trkpt lat="45.6953" lon="6.72307">
        <ele>1694.5</ele>
        <time>2022-06-15T08:05:18Z</time>
      </trkpt>
      <trkpt lat="45.6953" lon="6.7231">
        <ele>1694.8</ele>
        <time>2022-06-15T08:05:19Z</time>
      </trkpt>
      <trkpt lat="45.6953" lon="6.72314">
        <ele>1695.2</ele>
        <time>2022-06-15T08:05:20Z</time>
      </trkpt>
      <trkpt lat="45.69531" lon="6.7232">
        <ele>1696</ele>
        <time>2022-06-15T08:05:21Z</time>
      </trkpt>
      <trkpt lat="45.69531" lon="6.72322">
        <ele>1696.2</ele>
        <time>2022-06-15T08:05:22Z</time>
      </trkpt>
      <trkpt lat="45.69531" lon="6.72326">
        <ele>1696.4</ele>
        <time>2022-06-15T08:05:23Z</time>
      </trkpt>
      <trkpt lat="45.69531" lon="6.72329">
        <ele>1696.5</ele>
        <time>2022-06-15T08:05:24Z</time>
      </trkpt>
      <trkpt lat="45.69531" lon="6.72333">
        <ele>1696.2</ele>
        <time>2022-06-15T08:05:25Z</time>
      </trkpt>
      <trkpt lat="45.6953" lon="6.72337">
        <ele>1696.2</ele>
        <time>2022-06-15T08:05:26Z</time>
      </trkpt>
      <trkpt lat="45.6953" lon="6.7234">
        <ele>1696.1</ele>
        <time>2022-06-15T08:05:27Z</time>
      </trkpt>
      <trkpt lat="45.69529" lon="6.72344">
        <ele>1696.1</ele>
        <time>2022-06-15T08:05:28Z</time>
      </trkpt>
      <trkpt lat="45.69529" lon="6.72348">
        <ele>1696.3</ele>
        <time>2022-06-15T08:05:29Z</time>
      </trkpt>
      <trkpt lat="45.69528" lon="6.72352">
        <ele>1696.3</ele>
        <time>2022-06-15T08:05:30Z</time>
      </trkpt>
      <trkpt lat="45.69528" lon="6.72355">
        <ele>1696.4</ele>
        <time>2022-06-15T08:05:31Z</time>
      </trkpt>
      <trkpt lat="45.69527" lon="6.72359">
        <ele>1696.4</ele>
        <time>2022-06-15T08:05:32Z</time>
      </trkpt>
      <trkpt lat="45.69526" lon="6.72363">
        <ele>1696.5</ele>
        <time>2022-06-15T08:05:33Z</time>
      </trkpt>
      <trkpt lat="45.69525" lon="6.72366">
        <ele>1696.6</ele>
        <time>2022-06-15T08:05:34Z</time>
      </trkpt>
      <trkpt lat="45.69524" lon="6.72369">
        <ele>1696.7</ele>
        <time>2022-06-15T08:05:35Z</time>
      </trkpt>
      <trkpt lat="45.69523" lon="6.72372">
        <ele>1696.9</ele>
        <time>2022-06-15T08:05:36Z</time>
      </trkpt>
      <trkpt lat="45.69522" lon="6.72375">
        <ele>1697.4</ele>
        <time>2022-06-15T08:05:37Z</time>
      </trkpt>
      <trkpt lat="45.69521" lon="6.72379">
        <ele>1698.2</ele>
        <time>2022-06-15T08:05:38Z</time>
      </trkpt>
      <trkpt lat="45.6952" lon="6.72382">
        <ele>1698.9</ele>
        <time>2022-06-15T08:05:39Z</time>
      </trkpt>
      <trkpt lat="45.69519" lon="6.72385">
        <ele>1699.7</ele>
        <time>2022-06-15T08:05:40Z</time>
      </trkpt>
      <trkpt lat="45.69519" lon="6.72389">
        <ele>1700.7</ele>
        <time>2022-06-15T08:05:41Z</time>
      </trkpt>
      <trkpt lat="45.69518" lon="6.72393">
        <ele>1700.4</ele>
        <time>2022-06-15T08:05:42Z</time>
      </trkpt>
      <trkpt lat="45.69518" lon="6.72397">
        <ele>1700.1</ele>
        <time>2022-06-15T08:05:43Z</time>
      </trkpt>
      <trkpt lat="45.69517" lon="6.724">
        <ele>1699.8</ele>
        <time>2022-06-15T08:05:44Z</time>
      </trkpt>
      <trkpt lat="45.69517" lon="6.72404">
        <ele>1699.5</ele>
        <time>2022-06-15T08:05:45Z</time>
      </trkpt>
      <trkpt lat="45.69516" lon="6.72408">
        <ele>1699.3</ele>
        <time>2022-06-15T08:05:46Z</time>
      </trkpt>
      <trkpt lat="45.69516" lon="6.72412">
        <ele>1699.1</ele>
        <time>2022-06-15T08:05:47Z</time>
      </trkpt>
      <trkpt lat="45.69517" lon="6.72416">
        <ele>1699.1</ele>
        <time>2022-06-15T08:05:48Z</time>
      </trkpt>
      <trkpt lat="45.69518" lon="6.7242">
        <ele>1698.8</ele>
        <time>2022-06-15T08:05:49Z</time>
      </trkpt>
      <trkpt lat="45.69519" lon="6.72424">
        <ele>1698.6</ele>
        <time>2022-06-15T08:05:50Z</time>
      </trkpt>
      <trkpt lat="45.69521" lon="6.72429">
        <ele>1698.6</ele>
        <time>2022-06-15T08:05:51Z</time>
      </trkpt>
      <trkpt lat="45.69522" lon="6.72433">
        <ele>1698.6</ele>
        <time>2022-06-15T08:05:52Z</time>
      </trkpt>
      <trkpt lat="45.69525" lon="6.72437">
        <ele>1698.9</ele>
        <time>2022-06-15T08:05:53Z</time>
      </trkpt>
      <trkpt lat="45.69527" lon="6.72441">
        <ele>1699.2</ele>
        <time>2022-06-15T08:05:54Z</time>
      </trkpt>
      <trkpt lat="45.69529" lon="6.72445">
        <ele>1699.3</ele>
        <time>2022-06-15T08:05:55Z</time>
      </trkpt>
      <trkpt lat="45.69532" lon="6.72449">
        <ele>1699.2</ele>
        <time>2022-06-15T08:05:56Z</time>
      </trkpt>
      <trkpt lat="45.69535" lon="6.72453">
        <ele>1699.1</ele>
        <time>2022-06-15T08:05:57Z</time>
      </trkpt>
      <trkpt lat="45.69538" lon="6.72457">
        <ele>1699.2</ele>
        <time>2022-06-15T08:05:58Z</time>
      </trkpt>
      <trkpt lat="45.6954" lon="6.72461">
        <ele>1699.3</ele>
        <time>2022-06-15T08:05:59Z</time>
      </trkpt>
      <trkpt lat="45.69543" lon="6.72465">
        <ele>1699.5</ele>
        <time>2022-06-15T08:06:00Z</time>
      </trkpt>
      <trkpt lat="45.69545" lon="6.72469">
        <ele>1699.7</ele>
        <time>2022-06-15T08:06:01Z</time>
      </trkpt>
      <trkpt lat="45.69547" lon="6.72473">
        <ele>1699.7</ele>
        <time>2022-06-15T08:06:02Z</time>
      </trkpt>
      <trkpt lat="45.69548" lon="6.72477">
        <ele>1699.6</ele>
        <time>2022-06-15T08:06:03Z</time>
      </trkpt>
      <trkpt lat="45.6955" lon="6.7248">
        <ele>1699.6</ele>
        <time>2022-06-15T08:06:04Z</time>
      </trkpt>
      <trkpt lat="45.69552" lon="6.72484">
        <ele>1699.6</ele>
        <time>2022-06-15T08:06:05Z</time>
      </trkpt>
      <trkpt lat="45.69553" lon="6.72487">
        <ele>1699.7</ele>
        <time>2022-06-15T08:06:06Z</time>
      </trkpt>
      <trkpt lat="45.69555" lon="6.72491">
        <ele>1699.9</ele>
        <time>2022-06-15T08:06:07Z</time>
      </trkpt>
      <trkpt lat="45.69557" lon="6.72495">
        <ele>1700</ele>
        <time>2022-06-15T08:06:08Z</time>
      </trkpt>
      <trkpt lat="45.69559" lon="6.725">
        <ele>1700.1</ele>
        <time>2022-06-15T08:06:09Z</time>
      </trkpt>
      <trkpt lat="45.69561" lon="6.72504">
        <ele>1700</ele>
        <time>2022-06-15T08:06:10Z</time>
      </trkpt>
      <trkpt lat="45.69563" lon="6.72509">
        <ele>1699.9</ele>
        <time>2022-06-15T08:06:11Z</time>
      </trkpt>
      <trkpt lat="45.69565" lon="6.72513">
        <ele>1699.9</ele>
        <time>2022-06-15T08:06:12Z</time>
      </trkpt>
      <trkpt lat="45.69567" lon="6.72518">
        <ele>1699.8</ele>
        <time>2022-06-15T08:06:13Z</time>
      </trkpt>
      <trkpt lat="45.69569" lon="6.72523">
        <ele>1700.1</ele>
        <time>2022-06-15T08:06:14Z</time>
      </trkpt>
      <trkpt lat="45.69571" lon="6.72527">
        <ele>1700.2</ele>
        <time>2022-06-15T08:06:15Z</time>
      </trkpt>
      <trkpt lat="45.69573" lon="6.72532">
        <ele>1700.3</ele>
        <time>2022-06-15T08:06:16Z</time>
      </trkpt>
      <trkpt lat="45.69575" lon="6.72537">
        <ele>1700.6</ele>
        <time>2022-06-15T08:06:17Z</time>
      </trkpt>
      <trkpt lat="45.69576" lon="6.72542">
        <ele>1700.9</ele>
        <time>2022-06-15T08:06:18Z</time>
      </trkpt>
      <trkpt lat="45.69578" lon="6.72546">
        <ele>1701.2</ele>
        <time>2022-06-15T08:06:19Z</time>
      </trkpt>
      <trkpt lat="45.6958" lon="6.72551">
        <ele>1701.6</ele>
        <time>2022-06-15T08:06:20Z</time>
      </trkpt>
      <trkpt lat="45.69582" lon="6.72555">
        <ele>1702</ele>
        <time>2022-06-15T08:06:21Z</time>
      </trkpt>
      <trkpt lat="45.69583" lon="6.7256">
        <ele>1702.4</ele>
        <time>2022-06-15T08:06:22Z</time>
      </trkpt>
      <trkpt lat="45.69585" lon="6.72564">
        <ele>1702.4</ele>
        <time>2022-06-15T08:06:23Z</time>
      </trkpt>
      <trkpt lat="45.69586" lon="6.72569">
        <ele>1702.2</ele>
        <time>2022-06-15T08:06:24Z</time>
      </trkpt>
      <trkpt lat="45.69587" lon="6.72574">
        <ele>1702.1</ele>
        <time>2022-06-15T08:06:25Z</time>
      </trkpt>
      <trkpt lat="45.69589" lon="6.72579">
        <ele>1702</ele>
        <time>2022-06-15T08:06:26Z</time>
      </trkpt>
      <trkpt lat="45.6959" lon="6.72583">
        <ele>1701.9</ele>
        <time>2022-06-15T08:06:27Z</time>
      </trkpt>
      <trkpt lat="45.69591" lon="6.72588">
        <ele>1701.6</ele>
        <time>2022-06-15T08:06:28Z</time>
      </trkpt>
      <trkpt lat="45.69593" lon="6.72593">
        <ele>1701.4</ele>
        <time>2022-06-15T08:06:29Z</time>
      </trkpt>
      <trkpt lat="45.69594" lon="6.72598">
        <ele>1701.1</ele>
        <time>2022-06-15T08:06:30Z</time>
      </trkpt>
      <trkpt lat="45.69595" lon="6.72603">
        <ele>1701</ele>
        <time>2022-06-15T08:06:31Z</time>
      </trkpt>
      <trkpt lat="45.69596" lon="6.72608">
        <ele>1700.9</ele>
        <time>2022-06-15T08:06:32Z</time>
      </trkpt>
      <trkpt lat="45.69597" lon="6.72613">
        <ele>1700.9</ele>
        <time>2022-06-15T08:06:33Z</time>
      </trkpt>
      <trkpt lat="45.69598" lon="6.72618">
        <ele>1701.1</ele>
        <time>2022-06-15T08:06:34Z</time>
      </trkpt>
      <trkpt lat="45.69599" lon="6.72623">
        <ele>1701.3</ele>
        <time>2022-06-15T08:06:35Z</time>
      </trkpt>
      <trkpt lat="45.696" lon="6.72628">
        <ele>1701.4</ele>
        <time>2022-06-15T08:06:36Z</time>
      </trkpt>
      <trkpt lat="45.696" lon="6.72633">
        <ele>1701.5</ele>
        <time>2022-06-15T08:06:37Z</time>
      </trkpt>
      <trkpt lat="45.69601" lon="6.72638">
        <ele>1701.5</ele>
        <time>2022-06-15T08:06:38Z</time>
      </trkpt>
      <trkpt lat="45.69601" lon="6.72643">
        <ele>1701.6</ele>
        <time>2022-06-15T08:06:39Z</time>
      </trkpt>
      <trkpt lat="45.69602" lon="6.72647">
        <ele>1702</ele>
        <time>2022-06-15T08:06:40Z</time>
      </trkpt>
      <trkpt lat="45.69603" lon="6.72652">
        <ele>1702.4</ele>
        <time>2022-06-15T08:06:41Z</time>
      </trkpt>
      <trkpt lat="45.69604" lon="6.72657">
        <ele>1702.6</ele>
        <time>2022-06-15T08:06:42Z</time>
      </trkpt>
      <trkpt lat="45.69605" lon="6.72661">
        <ele>1702.9</ele>
        <time>2022-06-15T08:06:43Z</time>
      </trkpt>
      <trkpt lat="45.69606" lon="6.72666">
        <ele>1703.4</ele>
        <time>2022-06-15T08:06:44Z</time>
      </trkpt>
      <trkpt lat="45.69608" lon="6.7267">
        <ele>1703.6</ele>
        <time>2022-06-15T08:06:45Z</time>
      </trkpt>
      <trkpt lat="45.6961" lon="6.72673">
        <ele>1704</ele>
        <time>2022-06-15T08:06:46Z</time>
      </trkpt>
      <trkpt lat="45.69613" lon="6.72677">
        <ele>1703.8</ele>
        <time>2022-06-15T08:06:47Z</time>
      </trkpt>
      <trkpt lat="45.69616" lon="6.72679">
        <ele>1703.4</ele>
        <time>2022-06-15T08:06:48Z</time>
      </trkpt>
      <trkpt lat="45.6962" lon="6.7268">
        <ele>1703.1</ele>
        <time>2022-06-15T08:06:49Z</time>
      </trkpt>
      <trkpt lat="45.69623" lon="6.7268">
        <ele>1702.9</ele>
        <time>2022-06-15T08:06:50Z</time>
      </trkpt>
      <trkpt lat="45.69626" lon="6.72679">
        <ele>1702.9</ele>
        <time>2022-06-15T08:06:51Z</time>
      </trkpt>
      <trkpt lat="45.69628" lon="6.72678">
        <ele>1703</ele>
        <time>2022-06-15T08:06:52Z</time>
      </trkpt>
      <trkpt lat="45.69631" lon="6.72675">
        <ele>1703.2</ele>
        <time>2022-06-15T08:06:53Z</time>
      </trkpt>
      <trkpt lat="45.69633" lon="6.72671">
        <ele>1703.6</ele>
        <time>2022-06-15T08:06:54Z</time>
      </trkpt>
      <trkpt lat="45.69635" lon="6.72667">
        <ele>1704.1</ele>
        <time>2022-06-15T08:06:55Z</time>
      </trkpt>
      <trkpt lat="45.69637" lon="6.72663">
        <ele>1704.4</ele>
        <time>2022-06-15T08:06:56Z</time>
      </trkpt>
      <trkpt lat="45.69638" lon="6.72658">
        <ele>1704.7</ele>
        <time>2022-06-15T08:06:57Z</time>
      </trkpt>
      <trkpt lat="45.69639" lon="6.72653">
        <ele>1705</ele>
        <time>2022-06-15T08:06:58Z</time>
      </trkpt>
      <trkpt lat="45.69639" lon="6.72647">
        <ele>1705.4</ele>
        <time>2022-06-15T08:06:59Z</time>
      </trkpt>
      <trkpt lat="45.69639" lon="6.72642">
        <ele>1705.8</ele>
        <time>2022-06-15T08:07:00Z</time>
      </trkpt>
      <trkpt lat="45.69639" lon="6.72637">
        <ele>1706</ele>
        <time>2022-06-15T08:07:01Z</time>
      </trkpt>
      <trkpt lat="45.69639" lon="6.72632">
        <ele>1706</ele>
        <time>2022-06-15T08:07:02Z</time>
      </trkpt>
      <trkpt lat="45.69638" lon="6.72628">
        <ele>1706</ele>
        <time>2022-06-15T08:07:03Z</time>
      </trkpt>
      <trkpt lat="45.69637" lon="6.72623">
        <ele>1706</ele>
        <time>2022-06-15T08:07:04Z</time>
      </trkpt>
      <trkpt lat="45.69636" lon="6.7262">
        <ele>1706.1</ele>
        <time>2022-06-15T08:07:05Z</time>
      </trkpt>
      <trkpt lat="45.69635" lon="6.72616">
        <ele>1706.1</ele>
        <time>2022-06-15T08:07:06Z</time>
      </trkpt>
      <trkpt lat="45.69635" lon="6.72613">
        <ele>1706.1</ele>
        <time>2022-06-15T08:07:07Z</time>
      </trkpt>
      <trkpt lat="45.69634" lon="6.72609">
        <ele>1706.3</ele>
        <time>2022-06-15T08:07:08Z</time>
      </trkpt>
      <trkpt lat="45.69634" lon="6.72605">
        <ele>1706.6</ele>
        <time>2022-06-15T08:07:09Z</time>
      </trkpt>
      <trkpt lat="45.69633" lon="6.72602">
        <ele>1706.8</ele>
        <time>2022-06-15T08:07:10Z</time>
      </trkpt>
      <trkpt lat="45.69631" lon="6.72598">
        <ele>1707.1</ele>
        <time>2022-06-15T08:07:11Z</time>
      </trkpt>
      <trkpt lat="45.6963" lon="6.72595">
        <ele>1707.3</ele>
        <time>2022-06-15T08:07:12Z</time>
      </trkpt>
      <trkpt lat="45.69629" lon="6.72592">
        <ele>1707.5</ele>
        <time>2022-06-15T08:07:13Z</time>
      </trkpt>
      <trkpt lat="45.69628" lon="6.72588">
        <ele>1707.7</ele>
        <time>2022-06-15T08:07:14Z</time>
      </trkpt>
      <trkpt lat="45.69627" lon="6.72585">
        <ele>1707.9</ele>
        <time>2022-06-15T08:07:15Z</time>
      </trkpt>
      <trkpt lat="45.69626" lon="6.72582">
        <ele>1708.1</ele>
        <time>2022-06-15T08:07:16Z</time>
      </trkpt>
      <trkpt lat="45.69625" lon="6.72578">
        <ele>1708.4</ele>
        <time>2022-06-15T08:07:17Z</time>
      </trkpt>
      <trkpt lat="45.69624" lon="6.72575">
        <ele>1708.6</ele>
        <time>2022-06-15T08:07:18Z</time>
      </trkpt>
      <trkpt lat="45.69622" lon="6.72572">
        <ele>1708.9</ele>
        <time>2022-06-15T08:07:19Z</time>
      </trkpt>
      <trkpt lat="45.69621" lon="6.72568">
        <ele>1709.1</ele>
        <time>2022-06-15T08:07:20Z</time>
      </trkpt>
      <trkpt lat="45.6962" lon="6.72565">
        <ele>1709.3</ele>
        <time>2022-06-15T08:07:21Z</time>
      </trkpt>
      <trkpt lat="45.6962" lon="6.72562">
        <ele>1709.6</ele>
        <time>2022-06-15T08:07:22Z</time>
      </trkpt>
      <trkpt lat="45.69619" lon="6.72558">
        <ele>1709.8</ele>
        <time>2022-06-15T08:07:23Z</time>
      </trkpt>
      <trkpt lat="45.69618" lon="6.72555">
        <ele>1710.1</ele>
        <time>2022-06-15T08:07:24Z</time>
      </trkpt>
      <trkpt lat="45.69617" lon="6.72551">
        <ele>1710.4</ele>
        <time>2022-06-15T08:07:25Z</time>
      </trkpt>
      <trkpt lat="45.69617" lon="6.72548">
        <ele>1710.7</ele>
        <time>2022-06-15T08:07:26Z</time>
      </trkpt>
      <trkpt lat="45.69617" lon="6.72544">
        <ele>1711.1</ele>
        <time>2022-06-15T08:07:27Z</time>
      </trkpt>
      <trkpt lat="45.69617" lon="6.72541">
        <ele>1711.4</ele>
        <time>2022-06-15T08:07:28Z</time>
      </trkpt>
      <trkpt lat="45.69616" lon="6.72537">
        <ele>1711.7</ele>
        <time>2022-06-15T08:07:29Z</time>
      </trkpt>
      <trkpt lat="45.69616" lon="6.72534">
        <ele>1712</ele>
        <time>2022-06-15T08:07:30Z</time>
      </trkpt>
      <trkpt lat="45.69616" lon="6.7253">
        <ele>1712.3</ele>
        <time>2022-06-15T08:07:31Z</time>
      </trkpt>
      <trkpt lat="45.69616" lon="6.72527">
        <ele>1712.6</ele>
        <time>2022-06-15T08:07:32Z</time>
      </trkpt>
      <trkpt lat="45.69615" lon="6.72523">
        <ele>1712.9</ele>
        <time>2022-06-15T08:07:33Z</time>
      </trkpt>
      <trkpt lat="45.69615" lon="6.7252">
        <ele>1713.3</ele>
        <time>2022-06-15T08:07:34Z</time>
      </trkpt>
      <trkpt lat="45.69615" lon="6.72517">
        <ele>1713.6</ele>
        <time>2022-06-15T08:07:35Z</time>
      </trkpt>
      <trkpt lat="45.69615" lon="6.72513">
        <ele>1714</ele>
        <time>2022-06-15T08:07:36Z</time>
      </trkpt>
      <trkpt lat="45.69615" lon="6.7251">
        <ele>1714.3</ele>
        <time>2022-06-15T08:07:37Z</time>
      </trkpt>
      <trkpt lat="45.69615" lon="6.72506">
        <ele>1714.7</ele>
        <time>2022-06-15T08:07:38Z</time>
      </trkpt>
      <trkpt lat="45.69614" lon="6.72503">
        <ele>1715</ele>
        <time>2022-06-15T08:07:39Z</time>
      </trkpt>
      <trkpt lat="45.69614" lon="6.725">
        <ele>1715.4</ele>
        <time>2022-06-15T08:07:40Z</time>
      </trkpt>
      <trkpt lat="45.69614" lon="6.72496">
        <ele>1715.6</ele>
        <time>2022-06-15T08:07:41Z</time>
      </trkpt>
      <trkpt lat="45.69614" lon="6.72493">
        <ele>1715.8</ele>
        <time>2022-06-15T08:07:42Z</time>
      </trkpt>
      <trkpt lat="45.69614" lon="6.7249">
        <ele>1716</ele>
        <time>2022-06-15T08:07:43Z</time>
      </trkpt>
      <trkpt lat="45.69613" lon="6.72486">
        <ele>1716.3</ele>
        <time>2022-06-15T08:07:44Z</time>
      </trkpt>
      <trkpt lat="45.69613" lon="6.72483">
        <ele>1716.5</ele>
        <time>2022-06-15T08:07:45Z</time>
      </trkpt>
      <trkpt lat="45.69613" lon="6.7248">
        <ele>1716.7</ele>
        <time>2022-06-15T08:07:46Z</time>
      </trkpt>
      <trkpt lat="45.69613" lon="6.72477">
        <ele>1716.9</ele>
        <time>2022-06-15T08:07:47Z</time>
      </trkpt>
      <trkpt lat="45.69613" lon="6.72474">
        <ele>1717.1</ele>
        <time>2022-06-15T08:07:48Z</time>
      </trkpt>
      <trkpt lat="45.69613" lon="6.72471">
        <ele>1717.3</ele>
        <time>2022-06-15T08:07:49Z</time>
      </trkpt>
      <trkpt lat="45.69613" lon="6.72468">
        <ele>1717.4</ele>
        <time>2022-06-15T08:07:50Z</time>
      </trkpt>
      <trkpt lat="45.69613" lon="6.72465">
        <ele>1717.5</ele>
        <time>2022-06-15T08:07:51Z</time>
      </trkpt>
      <trkpt lat="45.69613" lon="6.72462">
        <ele>1717.6</ele>
        <time>2022-06-15T08:07:52Z</time>
      </trkpt>
      <trkpt lat="45.69613" lon="6.72459">
        <ele>1717.7</ele>
        <time>2022-06-15T08:07:53Z</time>
      </trkpt>
      <trkpt lat="45.69613" lon="6.72456">
        <ele>1717.9</ele>
        <time>2022-06-15T08:07:54Z</time>
      </trkpt>
      <trkpt lat="45.69613" lon="6.72453">
        <ele>1718</ele>
        <time>2022-06-15T08:07:55Z</time>
      </trkpt>
      <trkpt lat="45.69613" lon="6.7245">
        <ele>1718.2</ele>
        <time>2022-06-15T08:07:56Z</time>
      </trkpt>
      <trkpt lat="45.69613" lon="6.72447">
        <ele>1718.3</ele>
        <time>2022-06-15T08:07:57Z</time>
      </trkpt>
      <trkpt lat="45.69613" lon="6.72444">
        <ele>1718.5</ele>
        <time>2022-06-15T08:07:58Z</time>
      </trkpt>
      <trkpt lat="45.69613" lon="6.7244">
        <ele>1718.6</ele>
        <time>2022-06-15T08:07:59Z</time>
      </trkpt>
      <trkpt lat="45.69613" lon="6.72437">
        <ele>1718.8</ele>
        <time>2022-06-15T08:08:00Z</time>
      </trkpt>
      <trkpt lat="45.69613" lon="6.72434">
        <ele>1718.9</ele>
        <time>2022-06-15T08:08:01Z</time>
      </trkpt>
      <trkpt lat="45.69613" lon="6.72431">
        <ele>1719.1</ele>
        <time>2022-06-15T08:08:02Z</time>
      </trkpt>
      <trkpt lat="45.69613" lon="6.72428">
        <ele>1719.1</ele>
        <time>2022-06-15T08:08:03Z</time>
      </trkpt>
      <trkpt lat="45.69613" lon="6.72425">
        <ele>1719.2</ele>
        <time>2022-06-15T08:08:04Z</time>
      </trkpt>
      <trkpt lat="45.69613" lon="6.72422">
        <ele>1719.4</ele>
        <time>2022-06-15T08:08:05Z</time>
      </trkpt>
      <trkpt lat="45.69613" lon="6.72419">
        <ele>1719.4</ele>
        <time>2022-06-15T08:08:06Z</time>
      </trkpt>
      <trkpt lat="45.69613" lon="6.72416">
        <ele>1719.6</ele>
        <time>2022-06-15T08:08:07Z</time>
      </trkpt>
      <trkpt lat="45.69613" lon="6.72414">
        <ele>1719.8</ele>
        <time>2022-06-15T08:08:08Z</time>
      </trkpt>
      <trkpt lat="45.69613" lon="6.72411">
        <ele>1720</ele>
        <time>2022-06-15T08:08:09Z</time>
      </trkpt>
      <trkpt lat="45.69613" lon="6.72408">
        <ele>1720.2</ele>
        <time>2022-06-15T08:08:10Z</time>
      </trkpt>
      <trkpt lat="45.69613" lon="6.72405">
        <ele>1720.5</ele>
        <time>2022-06-15T08:08:11Z</time>
      </trkpt>
      <trkpt lat="45.69613" lon="6.72402">
        <ele>1720.8</ele>
        <time>2022-06-15T08:08:12Z</time>
      </trkpt>
      <trkpt lat="45.69614" lon="6.72399">
        <ele>1721.3</ele>
        <time>2022-06-15T08:08:13Z</time>
      </trkpt>
      <trkpt lat="45.69614" lon="6.72396">
        <ele>1721.6</ele>
        <time>2022-06-15T08:08:14Z</time>
      </trkpt>
      <trkpt lat="45.69614" lon="6.72393">
        <ele>1721.8</ele>
        <time>2022-06-15T08:08:15Z</time>
      </trkpt>
      <trkpt lat="45.69613" lon="6.7239">
        <ele>1721.9</ele>
        <time>2022-06-15T08:08:16Z</time>
      </trkpt>
      <trkpt lat="45.69613" lon="6.72387">
        <ele>1722.1</ele>
        <time>2022-06-15T08:08:17Z</time>
      </trkpt>
      <trkpt lat="45.69613" lon="6.72384">
        <ele>1722.2</ele>
        <time>2022-06-15T08:08:18Z</time>
      </trkpt>
      <trkpt lat="45.69613" lon="6.72381">
        <ele>1722.5</ele>
        <time>2022-06-15T08:08:19Z</time>
      </trkpt>
      <trkpt lat="45.69613" lon="6.72378">
        <ele>1722.8</ele>
        <time>2022-06-15T08:08:20Z</time>
      </trkpt>
      <trkpt lat="45.69613" lon="6.72375">
        <ele>1723</ele>
        <time>2022-06-15T08:08:21Z</time>
      </trkpt>
      <trkpt lat="45.69613" lon="6.72373">
        <ele>1723.2</ele>
        <time>2022-06-15T08:08:22Z</time>
      </trkpt>
      <trkpt lat="45.69613" lon="6.7237">
        <ele>1723.3</ele>
        <time>2022-06-15T08:08:23Z</time>
      </trkpt>
      <trkpt lat="45.69613" lon="6.72367">
        <ele>1723.5</ele>
        <time>2022-06-15T08:08:24Z</time>
      </trkpt>
      <trkpt lat="45.69613" lon="6.72364">
        <ele>1723.5</ele>
        <time>2022-06-15T08:08:25Z</time>
      </trkpt>
      <trkpt lat="45.69613" lon="6.72361">
        <ele>1723.7</ele>
        <time>2022-06-15T08:08:26Z</time>
      </trkpt>
      <trkpt lat="45.69612" lon="6.72358">
        <ele>1723.8</ele>
        <time>2022-06-15T08:08:27Z</time>
      </trkpt>
      <trkpt lat="45.69612" lon="6.72355">
        <ele>1723.8</ele>
        <time>2022-06-15T08:08:28Z</time>
      </trkpt>
      <trkpt lat="45.69612" lon="6.72352">
        <ele>1724</ele>
        <time>2022-06-15T08:08:29Z</time>
      </trkpt>
      <trkpt lat="45.69612" lon="6.72349">
        <ele>1724</ele>
        <time>2022-06-15T08:08:30Z</time>
      </trkpt>
      <trkpt lat="45.69612" lon="6.72346">
        <ele>1724.2</ele>
        <time>2022-06-15T08:08:31Z</time>
      </trkpt>
      <trkpt lat="45.69611" lon="6.72343">
        <ele>1724.4</ele>
        <time>2022-06-15T08:08:32Z</time>
      </trkpt>
      <trkpt lat="45.69611" lon="6.7234">
        <ele>1724.5</ele>
        <time>2022-06-15T08:08:33Z</time>
      </trkpt>
      <trkpt lat="45.69611" lon="6.72338">
        <ele>1724.7</ele>
        <time>2022-06-15T08:08:34Z</time>
      </trkpt>
      <trkpt lat="45.69611" lon="6.72335">
        <ele>1724.8</ele>
        <time>2022-06-15T08:08:35Z</time>
      </trkpt>
      <trkpt lat="45.6961" lon="6.72332">
        <ele>1725.1</ele>
        <time>2022-06-15T08:08:36Z</time>
      </trkpt>
      <trkpt lat="45.6961" lon="6.7233">
        <ele>1725.6</ele>
        <time>2022-06-15T08:08:37Z</time>
      </trkpt>
      <trkpt lat="45.69609" lon="6.72327">
        <ele>1726</ele>
        <time>2022-06-15T08:08:38Z</time>
      </trkpt>
      <trkpt lat="45.69608" lon="6.72325">
        <ele>1726.3</ele>
        <time>2022-06-15T08:08:39Z</time>
      </trkpt>
      <trkpt lat="45.69607" lon="6.72322">
        <ele>1726.6</ele>
        <time>2022-06-15T08:08:40Z</time>
      </trkpt>
      <trkpt lat="45.69606" lon="6.72319">
        <ele>1727.1</ele>
        <time>2022-06-15T08:08:41Z</time>
      </trkpt>
      <trkpt lat="45.69605" lon="6.72317">
        <ele>1727.4</ele>
        <time>2022-06-15T08:08:42Z</time>
      </trkpt>
      <trkpt lat="45.69604" lon="6.72314">
        <ele>1727.8</ele>
        <time>2022-06-15T08:08:43Z</time>
      </trkpt>
      <trkpt lat="45.69603" lon="6.72311">
        <ele>1728.1</ele>
        <time>2022-06-15T08:08:44Z</time>
      </trkpt>
      <trkpt lat="45.69602" lon="6.72309">
        <ele>1728.3</ele>
        <time>2022-06-15T08:08:45Z</time>
      </trkpt>
      <trkpt lat="45.69601" lon="6.72307">
        <ele>1728.4</ele>
        <time>2022-06-15T08:08:46Z</time>
      </trkpt>
      <trkpt lat="45.696" lon="6.72304">
        <ele>1728.5</ele>
        <time>2022-06-15T08:08:47Z</time>
      </trkpt>
      <trkpt lat="45.69599" lon="6.72302">
        <ele>1728.5</ele>
        <time>2022-06-15T08:08:48Z</time>
      </trkpt>
      <trkpt lat="45.69598" lon="6.72299">
        <ele>1728.5</ele>
        <time>2022-06-15T08:08:49Z</time>
      </trkpt>
      <trkpt lat="45.69596" lon="6.72297">
        <ele>1728.6</ele>
        <time>2022-06-15T08:08:50Z</time>
      </trkpt>
      <trkpt lat="45.69595" lon="6.72294">
        <ele>1728.7</ele>
        <time>2022-06-15T08:08:51Z</time>
      </trkpt>
      <trkpt lat="45.69594" lon="6.72291">
        <ele>1728.9</ele>
        <time>2022-06-15T08:08:52Z</time>
      </trkpt>
      <trkpt lat="45.69593" lon="6.72289">
        <ele>1729.1</ele>
        <time>2022-06-15T08:08:53Z</time>
      </trkpt>
      <trkpt lat="45.69592" lon="6.72286">
        <ele>1729.5</ele>
        <time>2022-06-15T08:08:54Z</time>
      </trkpt>
      <trkpt lat="45.69591" lon="6.72284">
        <ele>1729.7</ele>
        <time>2022-06-15T08:08:55Z</time>
      </trkpt>
      <trkpt lat="45.6959" lon="6.72281">
        <ele>1730.1</ele>
        <time>2022-06-15T08:08:56Z</time>
      </trkpt>
      <trkpt lat="45.69589" lon="6.72279">
        <ele>1730.4</ele>
        <time>2022-06-15T08:08:57Z</time>
      </trkpt>
      <trkpt lat="45.69588" lon="6.72276">
        <ele>1730.7</ele>
        <time>2022-06-15T08:08:58Z</time>
      </trkpt>
      <trkpt lat="45.69587" lon="6.72273">
        <ele>1730.8</ele>
        <time>2022-06-15T08:08:59Z</time>
      </trkpt>
      <trkpt lat="45.69587" lon="6.72271">
        <ele>1731</ele>
        <time>2022-06-15T08:09:00Z</time>
      </trkpt>
      <trkpt lat="45.69587" lon="6.72268">
        <ele>1731.3</ele>
        <time>2022-06-15T08:09:01Z</time>
      </trkpt>
      <trkpt lat="45.69587" lon="6.72265">
        <ele>1731.6</ele>
        <time>2022-06-15T08:09:02Z</time>
      </trkpt>
      <trkpt lat="45.69588" lon="6.72262">
        <ele>1732</ele>
        <time>2022-06-15T08:09:03Z</time>
      </trkpt>
      <trkpt lat="45.6959" lon="6.72259">
        <ele>1732.4</ele>
        <time>2022-06-15T08:09:04Z</time>
      </trkpt>
      <trkpt lat="45.69591" lon="6.72258">
        <ele>1732.9</ele>
        <time>2022-06-15T08:09:05Z</time>
      </trkpt>
      <trkpt lat="45.69593" lon="6.72257">
        <ele>1733.4</ele>
        <time>2022-06-15T08:09:06Z</time>
      </trkpt>
      <trkpt lat="45.69595" lon="6.72256">
        <ele>1733.9</ele>
        <time>2022-06-15T08:09:07Z</time>
      </trkpt>
      <trkpt lat="45.69598" lon="6.72257">
        <ele>1734.2</ele>
        <time>2022-06-15T08:09:08Z</time>
      </trkpt>
      <trkpt lat="45.696" lon="6.72258">
        <ele>1734.4</ele>
        <time>2022-06-15T08:09:09Z</time>
      </trkpt>
      <trkpt lat="45.69601" lon="6.7226">
        <ele>1734.5</ele>
        <time>2022-06-15T08:09:10Z</time>
      </trkpt>
      <trkpt lat="45.69603" lon="6.72262">
        <ele>1734.5</ele>
        <time>2022-06-15T08:09:11Z</time>
      </trkpt>
      <trkpt lat="45.69605" lon="6.72264">
        <ele>1734.6</ele>
        <time>2022-06-15T08:09:12Z</time>
      </trkpt>
      <trkpt lat="45.69607" lon="6.72266">
        <ele>1734.5</ele>
        <time>2022-06-15T08:09:13Z</time>
      </trkpt>
      <trkpt lat="45.69608" lon="6.72268">
        <ele>1734.3</ele>
        <time>2022-06-15T08:09:14Z</time>
      </trkpt>
      <trkpt lat="45.6961" lon="6.72271">
        <ele>1734</ele>
        <time>2022-06-15T08:09:15Z</time>
      </trkpt>
      <trkpt lat="45.69611" lon="6.72274">
        <ele>1733.6</ele>
        <time>2022-06-15T08:09:16Z</time>
      </trkpt>
      <trkpt lat="45.69612" lon="6.72276">
        <ele>1733.8</ele>
        <time>2022-06-15T08:09:17Z</time>
      </trkpt>
      <trkpt lat="45.69614" lon="6.72279">
        <ele>1734.3</ele>
        <time>2022-06-15T08:09:18Z</time>
      </trkpt>
      <trkpt lat="45.69615" lon="6.72281">
        <ele>1734.6</ele>
        <time>2022-06-15T08:09:19Z</time>
      </trkpt>
      <trkpt lat="45.69616" lon="6.72284">
        <ele>1734.9</ele>
        <time>2022-06-15T08:09:20Z</time>
      </trkpt>
      <trkpt lat="45.69617" lon="6.72287">
        <ele>1735.1</ele>
        <time>2022-06-15T08:09:21Z</time>
      </trkpt>
      <trkpt lat="45.69618" lon="6.7229">
        <ele>1735.3</ele>
        <time>2022-06-15T08:09:22Z</time>
      </trkpt>
      <trkpt lat="45.69619" lon="6.72293">
        <ele>1735.4</ele>
        <time>2022-06-15T08:09:23Z</time>
      </trkpt>
      <trkpt lat="45.6962" lon="6.72296">
        <ele>1735.6</ele>
        <time>2022-06-15T08:09:24Z</time>
      </trkpt>
      <trkpt lat="45.69622" lon="6.72298">
        <ele>1735.8</ele>
        <time>2022-06-15T08:09:25Z</time>
      </trkpt>
      <trkpt lat="45.69623" lon="6.72301">
        <ele>1736</ele>
        <time>2022-06-15T08:09:26Z</time>
      </trkpt>
      <trkpt lat="45.69624" lon="6.72303">
        <ele>1736.1</ele>
        <time>2022-06-15T08:09:27Z</time>
      </trkpt>
      <trkpt lat="45.69625" lon="6.72306">
        <ele>1736.1</ele>
        <time>2022-06-15T08:09:28Z</time>
      </trkpt>
      <trkpt lat="45.69627" lon="6.72308">
        <ele>1736</ele>
        <time>2022-06-15T08:09:29Z</time>
      </trkpt>
      <trkpt lat="45.69628" lon="6.72311">
        <ele>1735.8</ele>
        <time>2022-06-15T08:09:30Z</time>
      </trkpt>
      <trkpt lat="45.69629" lon="6.72314">
        <ele>1735.8</ele>
        <time>2022-06-15T08:09:31Z</time>
      </trkpt>
      <trkpt lat="45.6963" lon="6.72316">
        <ele>1735.8</ele>
        <time>2022-06-15T08:09:32Z</time>
      </trkpt>
      <trkpt lat="45.69632" lon="6.72319">
        <ele>1735.9</ele>
        <time>2022-06-15T08:09:33Z</time>
      </trkpt>
      <trkpt lat="45.69633" lon="6.72321">
        <ele>1736</ele>
        <time>2022-06-15T08:09:34Z</time>
      </trkpt>
      <trkpt lat="45.69634" lon="6.72324">
        <ele>1736.1</ele>
        <time>2022-06-15T08:09:35Z</time>
      </trkpt>
      <trkpt lat="45.69635" lon="6.72326">
        <ele>1736.2</ele>
        <time>2022-06-15T08:09:36Z</time>
      </trkpt>
      <trkpt lat="45.69636" lon="6.72329">
        <ele>1736.4</ele>
        <time>2022-06-15T08:09:37Z</time>
      </trkpt>
      <trkpt lat="45.69638" lon="6.72331">
        <ele>1736.7</ele>
        <time>2022-06-15T08:09:38Z</time>
      </trkpt>
      <trkpt lat="45.69639" lon="6.72334">
        <ele>1736.9</ele>
        <time>2022-06-15T08:09:39Z</time>
      </trkpt>
      <trkpt lat="45.6964" lon="6.72337">
        <ele>1737.3</ele>
        <time>2022-06-15T08:09:40Z</time>
      </trkpt>
      <trkpt lat="45.69641" lon="6.72339">
        <ele>1737.7</ele>
        <time>2022-06-15T08:09:41Z</time>
      </trkpt>
      <trkpt lat="45.69642" lon="6.72342">
        <ele>1738</ele>
        <time>2022-06-15T08:09:42Z</time>
      </trkpt>
      <trkpt lat="45.69644" lon="6.72345">
        <ele>1738.3</ele>
        <time>2022-06-15T08:09:43Z</time>
      </trkpt>
      <trkpt lat="45.69644" lon="6.72348">
        <ele>1738.5</ele>
        <time>2022-06-15T08:09:44Z</time>
      </trkpt>
      <trkpt lat="45.69645" lon="6.72351">
        <ele>1738.7</ele>
        <time>2022-06-15T08:09:45Z</time>
      </trkpt>
      <trkpt lat="45.69646" lon="6.72353">
        <ele>1739</ele>
        <time>2022-06-15T08:09:46Z</time>
      </trkpt>
      <trkpt lat="45.69648" lon="6.72356">
        <ele>1739.4</ele>
        <time>2022-06-15T08:09:47Z</time>
      </trkpt>
      <trkpt lat="45.69649" lon="6.72358">
        <ele>1739.8</ele>
        <time>2022-06-15T08:09:48Z</time>
      </trkpt>
      <trkpt lat="45.6965" lon="6.72361">
        <ele>1740.1</ele>
        <time>2022-06-15T08:09:49Z</time>
      </trkpt>
      <trkpt lat="45.69651" lon="6.72363">
        <ele>1740.3</ele>
        <time>2022-06-15T08:09:50Z</time>
      </trkpt>
      <trkpt lat="45.69653" lon="6.72366">
        <ele>1740.5</ele>
        <time>2022-06-15T08:09:51Z</time>
      </trkpt>
      <trkpt lat="45.69654" lon="6.72368">
        <ele>1740.7</ele>
        <time>2022-06-15T08:09:52Z</time>
      </trkpt>
      <trkpt lat="45.69655" lon="6.7237">
        <ele>1740.8</ele>
        <time>2022-06-15T08:09:53Z</time>
      </trkpt>
      <trkpt lat="45.69656" lon="6.72373">
        <ele>1740.9</ele>
        <time>2022-06-15T08:09:54Z</time>
      </trkpt>
      <trkpt lat="45.69657" lon="6.72376">
        <ele>1741.1</ele>
        <time>2022-06-15T08:09:55Z</time>
      </trkpt>
      <trkpt lat="45.69658" lon="6.72378">
        <ele>1741.2</ele>
        <time>2022-06-15T08:09:56Z</time>
      </trkpt>
      <trkpt lat="45.69659" lon="6.72381">
        <ele>1741.3</ele>
        <time>2022-06-15T08:09:57Z</time>
      </trkpt>
      <trkpt lat="45.6966" lon="6.72383">
        <ele>1741.5</ele>
        <time>2022-06-15T08:09:58Z</time>
      </trkpt>
      <trkpt lat="45.69661" lon="6.72385">
        <ele>1741.6</ele>
        <time>2022-06-15T08:09:59Z</time>
      </trkpt>
      <trkpt lat="45.69662" lon="6.72388">
        <ele>1741.7</ele>
        <time>2022-06-15T08:10:00Z</time>
      </trkpt>
      <trkpt lat="45.69664" lon="6.7239">
        <ele>1741.9</ele>
        <time>2022-06-15T08:10:01Z</time>
      </trkpt>
      <trkpt lat="45.69665" lon="6.72393">
        <ele>1742.1</ele>
        <time>2022-06-15T08:10:02Z</time>
      </trkpt>
      <trkpt lat="45.69666" lon="6.72396">
        <ele>1742.4</ele>
        <time>2022-06-15T08:10:03Z</time>
      </trkpt>
      <trkpt lat="45.69667" lon="6.72398">
        <ele>1742.7</ele>
        <time>2022-06-15T08:10:04Z</time>
      </trkpt>
      <trkpt lat="45.69668" lon="6.72401">
        <ele>1743.2</ele>
        <time>2022-06-15T08:10:05Z</time>
      </trkpt>
      <trkpt lat="45.69669" lon="6.72403">
        <ele>1743.6</ele>
        <time>2022-06-15T08:10:06Z</time>
      </trkpt>
      <trkpt lat="45.6967" lon="6.72406">
        <ele>1743.9</ele>
        <time>2022-06-15T08:10:07Z</time>
      </trkpt>
      <trkpt lat="45.69671" lon="6.72408">
        <ele>1744.2</ele>
        <time>2022-06-15T08:10:08Z</time>
      </trkpt>
      <trkpt lat="45.69672" lon="6.7241">
        <ele>1744.6</ele>
        <time>2022-06-15T08:10:09Z</time>
      </trkpt>
      <trkpt lat="45.69673" lon="6.72413">
        <ele>1745</ele>
        <time>2022-06-15T08:10:10Z</time>
      </trkpt>
      <trkpt lat="45.69675" lon="6.72415">
        <ele>1745.5</ele>
        <time>2022-06-15T08:10:11Z</time>
      </trkpt>
      <trkpt lat="45.69676" lon="6.72418">
        <ele>1745.7</ele>
        <time>2022-06-15T08:10:12Z</time>
      </trkpt>
      <trkpt lat="45.69677" lon="6.7242">
        <ele>1745.9</ele>
        <time>2022-06-15T08:10:13Z</time>
      </trkpt>
      <trkpt lat="45.69678" lon="6.72423">
        <ele>1746</ele>
        <time>2022-06-15T08:10:14Z</time>
      </trkpt>
      <trkpt lat="45.69679" lon="6.72425">
        <ele>1746.1</ele>
        <time>2022-06-15T08:10:15Z</time>
      </trkpt>
      <trkpt lat="45.6968" lon="6.72428">
        <ele>1746.2</ele>
        <time>2022-06-15T08:10:16Z</time>
      </trkpt>
      <trkpt lat="45.69681" lon="6.7243">
        <ele>1746.2</ele>
        <time>2022-06-15T08:10:17Z</time>
      </trkpt>
      <trkpt lat="45.69682" lon="6.72433">
        <ele>1746.3</ele>
        <time>2022-06-15T08:10:18Z</time>
      </trkpt>
      <trkpt lat="45.69683" lon="6.72435">
        <ele>1746.5</ele>
        <time>2022-06-15T08:10:19Z</time>
      </trkpt>
      <trkpt lat="45.69685" lon="6.72438">
        <ele>1746.7</ele>
        <time>2022-06-15T08:10:20Z</time>
      </trkpt>
      <trkpt lat="45.69686" lon="6.7244">
        <ele>1746.7</ele>
        <time>2022-06-15T08:10:21Z</time>
      </trkpt>
      <trkpt lat="45.69687" lon="6.72443">
        <ele>1746.8</ele>
        <time>2022-06-15T08:10:22Z</time>
      </trkpt>
      <trkpt lat="45.69687" lon="6.72446">
        <ele>1746.8</ele>
        <time>2022-06-15T08:10:23Z</time>
      </trkpt>
      <trkpt lat="45.69688" lon="6.72448">
        <ele>1746.9</ele>
        <time>2022-06-15T08:10:24Z</time>
      </trkpt>
      <trkpt lat="45.69689" lon="6.7245">
        <ele>1747.3</ele>
        <time>2022-06-15T08:10:25Z</time>
      </trkpt>
      <trkpt lat="45.69691" lon="6.72453">
        <ele>1747.7</ele>
        <time>2022-06-15T08:10:26Z</time>
      </trkpt>
      <trkpt lat="45.69691" lon="6.72455">
        <ele>1747.9</ele>
        <time>2022-06-15T08:10:27Z</time>
      </trkpt>
      <trkpt lat="45.69692" lon="6.72458">
        <ele>1748.2</ele>
        <time>2022-06-15T08:10:28Z</time>
      </trkpt>
      <trkpt lat="45.69693" lon="6.72461">
        <ele>1748.3</ele>
        <time>2022-06-15T08:10:29Z</time>
      </trkpt>
      <trkpt lat="45.69693" lon="6.72464">
        <ele>1748.5</ele>
        <time>2022-06-15T08:10:30Z</time>
      </trkpt>
      <trkpt lat="45.69694" lon="6.72466">
        <ele>1749</ele>
        <time>2022-06-15T08:10:31Z</time>
      </trkpt>
      <trkpt lat="45.69695" lon="6.72469">
        <ele>1749.5</ele>
        <time>2022-06-15T08:10:32Z</time>
      </trkpt>
      <trkpt lat="45.69696" lon="6.72471">
        <ele>1749.9</ele>
        <time>2022-06-15T08:10:33Z</time>
      </trkpt>
      <trkpt lat="45.69697" lon="6.72474">
        <ele>1750</ele>
        <time>2022-06-15T08:10:34Z</time>
      </trkpt>
      <trkpt lat="45.69697" lon="6.72476">
        <ele>1750.2</ele>
        <time>2022-06-15T08:10:35Z</time>
      </trkpt>
      <trkpt lat="45.69698" lon="6.72479">
        <ele>1750.4</ele>
        <time>2022-06-15T08:10:36Z</time>
      </trkpt>
      <trkpt lat="45.69699" lon="6.72481">
        <ele>1750.8</ele>
        <time>2022-06-15T08:10:37Z</time>
      </trkpt>
      <trkpt lat="45.697" lon="6.72484">
        <ele>1751</ele>
        <time>2022-06-15T08:10:38Z</time>
      </trkpt>
      <trkpt lat="45.69701" lon="6.72486">
        <ele>1751.2</ele>
        <time>2022-06-15T08:10:39Z</time>
      </trkpt>
      <trkpt lat="45.69702" lon="6.72489">
        <ele>1751.4</ele>
        <time>2022-06-15T08:10:40Z</time>
      </trkpt>
      <trkpt lat="45.69703" lon="6.72491">
        <ele>1751.6</ele>
        <time>2022-06-15T08:10:41Z</time>
      </trkpt>
      <trkpt lat="45.69705" lon="6.72494">
        <ele>1751.8</ele>
        <time>2022-06-15T08:10:42Z</time>
      </trkpt>
      <trkpt lat="45.69706" lon="6.72496">
        <ele>1752</ele>
        <time>2022-06-15T08:10:43Z</time>
      </trkpt>
      <trkpt lat="45.69707" lon="6.72498">
        <ele>1752.4</ele>
        <time>2022-06-15T08:10:44Z</time>
      </trkpt>
      <trkpt lat="45.69709" lon="6.725">
        <ele>1752.7</ele>
        <time>2022-06-15T08:10:45Z</time>
      </trkpt>
      <trkpt lat="45.69711" lon="6.72504">
        <ele>1752.4</ele>
        <time>2022-06-15T08:10:46Z</time>
      </trkpt>
      <trkpt lat="45.69712" lon="6.72505">
        <ele>1752.4</ele>
        <time>2022-06-15T08:10:47Z</time>
      </trkpt>
      <trkpt lat="45.69714" lon="6.72507">
        <ele>1752.5</ele>
        <time>2022-06-15T08:10:48Z</time>
      </trkpt>
      <trkpt lat="45.69715" lon="6.72509">
        <ele>1752.8</ele>
        <time>2022-06-15T08:10:49Z</time>
      </trkpt>
      <trkpt lat="45.69717" lon="6.7251">
        <ele>1753.1</ele>
        <time>2022-06-15T08:10:50Z</time>
      </trkpt>
      <trkpt lat="45.69719" lon="6.72512">
        <ele>1753.7</ele>
        <time>2022-06-15T08:10:51Z</time>
      </trkpt>
      <trkpt lat="45.69721" lon="6.72513">
        <ele>1754.2</ele>
        <time>2022-06-15T08:10:52Z</time>
      </trkpt>
      <trkpt lat="45.69723" lon="6.72515">
        <ele>1754.4</ele>
        <time>2022-06-15T08:10:53Z</time>
      </trkpt>
      <trkpt lat="45.69725" lon="6.72516">
        <ele>1754.3</ele>
        <time>2022-06-15T08:10:54Z</time>
      </trkpt>
      <trkpt lat="45.69727" lon="6.72518">
        <ele>1754.2</ele>
        <time>2022-06-15T08:10:55Z</time>
      </trkpt>
      <trkpt lat="45.69729" lon="6.72519">
        <ele>1754.2</ele>
        <time>2022-06-15T08:10:56Z</time>
      </trkpt>
      <trkpt lat="45.69731" lon="6.7252">
        <ele>1754.3</ele>
        <time>2022-06-15T08:10:57Z</time>
      </trkpt>
      <trkpt lat="45.69733" lon="6.7252">
        <ele>1754.5</ele>
        <time>2022-06-15T08:10:58Z</time>
      </trkpt>
      <trkpt lat="45.69735" lon="6.72521">
        <ele>1754.5</ele>
        <time>2022-06-15T08:10:59Z</time>
      </trkpt>
      <trkpt lat="45.69737" lon="6.72523">
        <ele>1754.7</ele>
        <time>2022-06-15T08:11:00Z</time>
      </trkpt>
      <trkpt lat="45.69739" lon="6.72523">
        <ele>1754.9</ele>
        <time>2022-06-15T08:11:01Z</time>
      </trkpt>
      <trkpt lat="45.69741" lon="6.72524">
        <ele>1755.1</ele>
        <time>2022-06-15T08:11:02Z</time>
      </trkpt>
      <trkpt lat="45.69743" lon="6.72525">
        <ele>1755.3</ele>
        <time>2022-06-15T08:11:03Z</time>
      </trkpt>
      <trkpt lat="45.69745" lon="6.72526">
        <ele>1755.5</ele>
        <time>2022-06-15T08:11:04Z</time>
      </trkpt>
      <trkpt lat="45.69747" lon="6.72527">
        <ele>1755.7</ele>
        <time>2022-06-15T08:11:05Z</time>
      </trkpt>
      <trkpt lat="45.69749" lon="6.72527">
        <ele>1755.9</ele>
        <time>2022-06-15T08:11:06Z</time>
      </trkpt>
      <trkpt lat="45.69752" lon="6.72528">
        <ele>1756.1</ele>
        <time>2022-06-15T08:11:07Z</time>
      </trkpt>
      <trkpt lat="45.69754" lon="6.72529">
        <ele>1756.2</ele>
        <time>2022-06-15T08:11:08Z</time>
      </trkpt>
      <trkpt lat="45.69756" lon="6.72529">
        <ele>1756.3</ele>
        <time>2022-06-15T08:11:09Z</time>
      </trkpt>
      <trkpt lat="45.69758" lon="6.7253">
        <ele>1756.4</ele>
        <time>2022-06-15T08:11:10Z</time>
      </trkpt>
      <trkpt lat="45.6976" lon="6.7253">
        <ele>1756.6</ele>
        <time>2022-06-15T08:11:11Z</time>
      </trkpt>
      <trkpt lat="45.69762" lon="6.7253">
        <ele>1756.8</ele>
        <time>2022-06-15T08:11:12Z</time>
      </trkpt>
      <trkpt lat="45.69764" lon="6.72531">
        <ele>1756.9</ele>
        <time>2022-06-15T08:11:13Z</time>
      </trkpt>
      <trkpt lat="45.69766" lon="6.72532">
        <ele>1757</ele>
        <time>2022-06-15T08:11:14Z</time>
      </trkpt>
      <trkpt lat="45.69768" lon="6.72533">
        <ele>1757.1</ele>
        <time>2022-06-15T08:11:15Z</time>
      </trkpt>
      <trkpt lat="45.6977" lon="6.72533">
        <ele>1757.3</ele>
        <time>2022-06-15T08:11:16Z</time>
      </trkpt>
      <trkpt lat="45.69773" lon="6.72533">
        <ele>1757.6</ele>
        <time>2022-06-15T08:11:17Z</time>
      </trkpt>
      <trkpt lat="45.69774" lon="6.72534">
        <ele>1757.7</ele>
        <time>2022-06-15T08:11:18Z</time>
      </trkpt>
      <trkpt lat="45.69776" lon="6.72535">
        <ele>1757.8</ele>
        <time>2022-06-15T08:11:19Z</time>
      </trkpt>
      <trkpt lat="45.69779" lon="6.72535">
        <ele>1758</ele>
        <time>2022-06-15T08:11:20Z</time>
      </trkpt>
      <trkpt lat="45.69781" lon="6.72535">
        <ele>1758</ele>
        <time>2022-06-15T08:11:21Z</time>
      </trkpt>
      <trkpt lat="45.69783" lon="6.72535">
        <ele>1757.9</ele>
        <time>2022-06-15T08:11:22Z</time>
      </trkpt>
      <trkpt lat="45.69785" lon="6.72536">
        <ele>1757.9</ele>
        <time>2022-06-15T08:11:23Z</time>
      </trkpt>
      <trkpt lat="45.69787" lon="6.72536">
        <ele>1757.9</ele>
        <time>2022-06-15T08:11:24Z</time>
      </trkpt>
      <trkpt lat="45.69789" lon="6.72536">
        <ele>1757.9</ele>
        <time>2022-06-15T08:11:25Z</time>
      </trkpt>
      <trkpt lat="45.69791" lon="6.72535">
        <ele>1758</ele>
        <time>2022-06-15T08:11:26Z</time>
      </trkpt>
      <trkpt lat="45.69793" lon="6.72534">
        <ele>1758.2</ele>
        <time>2022-06-15T08:11:27Z</time>
      </trkpt>
      <trkpt lat="45.69795" lon="6.72534">
        <ele>1758.4</ele>
        <time>2022-06-15T08:11:28Z</time>
      </trkpt>
      <trkpt lat="45.69797" lon="6.72533">
        <ele>1758.7</ele>
        <time>2022-06-15T08:11:29Z</time>
      </trkpt>
      <trkpt lat="45.69799" lon="6.72531">
        <ele>1759</ele>
        <time>2022-06-15T08:11:30Z</time>
      </trkpt>
      <trkpt lat="45.69801" lon="6.7253">
        <ele>1759.2</ele>
        <time>2022-06-15T08:11:31Z</time>
      </trkpt>
      <trkpt lat="45.69803" lon="6.72529">
        <ele>1759.5</ele>
        <time>2022-06-15T08:11:32Z</time>
      </trkpt>
      <trkpt lat="45.69805" lon="6.72528">
        <ele>1760</ele>
        <time>2022-06-15T08:11:33Z</time>
      </trkpt>
      <trkpt lat="45.69806" lon="6.72526">
        <ele>1760.1</ele>
        <time>2022-06-15T08:11:34Z</time>
      </trkpt>
      <trkpt lat="45.69808" lon="6.72523">
        <ele>1760.2</ele>
        <time>2022-06-15T08:11:35Z</time>
      </trkpt>
      <trkpt lat="45.69809" lon="6.72521">
        <ele>1760.3</ele>
        <time>2022-06-15T08:11:36Z</time>
      </trkpt>
      <trkpt lat="45.69811" lon="6.72518">
        <ele>1760.5</ele>
        <time>2022-06-15T08:11:37Z</time>
      </trkpt>
      <trkpt lat="45.69812" lon="6.72515">
        <ele>1760.7</ele>
        <time>2022-06-15T08:11:38Z</time>
      </trkpt>
      <trkpt lat="45.69812" lon="6.72512">
        <ele>1761</ele>
        <time>2022-06-15T08:11:39Z</time>
      </trkpt>
      <trkpt lat="45.69813" lon="6.72508">
        <ele>1761.3</ele>
        <time>2022-06-15T08:11:40Z</time>
      </trkpt>
      <trkpt lat="45.69813" lon="6.72504">
        <ele>1761.7</ele>
        <time>2022-06-15T08:11:41Z</time>
      </trkpt>
      <trkpt lat="45.69813" lon="6.72499">
        <ele>1762</ele>
        <time>2022-06-15T08:11:42Z</time>
      </trkpt>
      <trkpt lat="45.69812" lon="6.72495">
        <ele>1762.3</ele>
        <time>2022-06-15T08:11:43Z</time>
      </trkpt>
      <trkpt lat="45.69812" lon="6.7249">
        <ele>1762.6</ele>
        <time>2022-06-15T08:11:44Z</time>
      </trkpt>
      <trkpt lat="45.69811" lon="6.72486">
        <ele>1762.8</ele>
        <time>2022-06-15T08:11:45Z</time>
      </trkpt>
      <trkpt lat="45.69809" lon="6.72482">
        <ele>1762.9</ele>
        <time>2022-06-15T08:11:46Z</time>
      </trkpt>
      <trkpt lat="45.69808" lon="6.72478">
        <ele>1763</ele>
        <time>2022-06-15T08:11:47Z</time>
      </trkpt>
      <trkpt lat="45.69806" lon="6.72474">
        <ele>1763</ele>
        <time>2022-06-15T08:11:48Z</time>
      </trkpt>
      <trkpt lat="45.69804" lon="6.7247">
        <ele>1763.3</ele>
        <time>2022-06-15T08:11:49Z</time>
      </trkpt>
      <trkpt lat="45.69801" lon="6.72466">
        <ele>1763.6</ele>
        <time>2022-06-15T08:11:50Z</time>
      </trkpt>
      <trkpt lat="45.69799" lon="6.72462">
        <ele>1763.9</ele>
        <time>2022-06-15T08:11:51Z</time>
      </trkpt>
      <trkpt lat="45.69797" lon="6.72459">
        <ele>1764.2</ele>
        <time>2022-06-15T08:11:52Z</time>
      </trkpt>
      <trkpt lat="45.69794" lon="6.72455">
        <ele>1764.4</ele>
        <time>2022-06-15T08:11:53Z</time>
      </trkpt>
      <trkpt lat="45.69792" lon="6.72451">
        <ele>1764.5</ele>
        <time>2022-06-15T08:11:54Z</time>
      </trkpt>
      <trkpt lat="45.69789" lon="6.72448">
        <ele>1764.6</ele>
        <time>2022-06-15T08:11:55Z</time>
      </trkpt>
      <trkpt lat="45.69787" lon="6.72444">
        <ele>1764.6</ele>
        <time>2022-06-15T08:11:56Z</time>
      </trkpt>
      <trkpt lat="45.69784" lon="6.72441">
        <ele>1764.8</ele>
        <time>2022-06-15T08:11:57Z</time>
      </trkpt>
      <trkpt lat="45.69781" lon="6.72438">
        <ele>1765</ele>
        <time>2022-06-15T08:11:58Z</time>
      </trkpt>
      <trkpt lat="45.69779" lon="6.72435">
        <ele>1765.1</ele>
        <time>2022-06-15T08:11:59Z</time>
      </trkpt>
      <trkpt lat="45.69776" lon="6.72432">
        <ele>1765.5</ele>
        <time>2022-06-15T08:12:00Z</time>
      </trkpt>
      <trkpt lat="45.69774" lon="6.72429">
        <ele>1766.1</ele>
        <time>2022-06-15T08:12:01Z</time>
      </trkpt>
      <trkpt lat="45.69772" lon="6.72426">
        <ele>1766.5</ele>
        <time>2022-06-15T08:12:02Z</time>
      </trkpt>
      <trkpt lat="45.69769" lon="6.72423">
        <ele>1766.9</ele>
        <time>2022-06-15T08:12:03Z</time>
      </trkpt>
      <trkpt lat="45.69767" lon="6.7242">
        <ele>1767.2</ele>
        <time>2022-06-15T08:12:04Z</time>
      </trkpt>
      <trkpt lat="45.69764" lon="6.72418">
        <ele>1767.4</ele>
        <time>2022-06-15T08:12:05Z</time>
      </trkpt>
      <trkpt lat="45.69762" lon="6.72415">
        <ele>1767.8</ele>
        <time>2022-06-15T08:12:06Z</time>
      </trkpt>
      <trkpt lat="45.6976" lon="6.72413">
        <ele>1768.1</ele>
        <time>2022-06-15T08:12:07Z</time>
      </trkpt>
      <trkpt lat="45.69758" lon="6.7241">
        <ele>1768.4</ele>
        <time>2022-06-15T08:12:08Z</time>
      </trkpt>
      <trkpt lat="45.69756" lon="6.72407">
        <ele>1768.5</ele>
        <time>2022-06-15T08:12:09Z</time>
      </trkpt>
      <trkpt lat="45.69754" lon="6.72403">
        <ele>1768.5</ele>
        <time>2022-06-15T08:12:10Z</time>
      </trkpt>
      <trkpt lat="45.69752" lon="6.724">
        <ele>1768.4</ele>
        <time>2022-06-15T08:12:11Z</time>
      </trkpt>
      <trkpt lat="45.69751" lon="6.72397">
        <ele>1768.1</ele>
        <time>2022-06-15T08:12:12Z</time>
      </trkpt>
      <trkpt lat="45.69749" lon="6.72394">
        <ele>1767.9</ele>
        <time>2022-06-15T08:12:13Z</time>
      </trkpt>
      <trkpt lat="45.69747" lon="6.7239">
        <ele>1767.9</ele>
        <time>2022-06-15T08:12:14Z</time>
      </trkpt>
      <trkpt lat="45.69746" lon="6.72386">
        <ele>1767.9</ele>
        <time>2022-06-15T08:12:15Z</time>
      </trkpt>
      <trkpt lat="45.69745" lon="6.72382">
        <ele>1768</ele>
        <time>2022-06-15T08:12:16Z</time>
      </trkpt>
      <trkpt lat="45.69744" lon="6.72378">
        <ele>1768</ele>
        <time>2022-06-15T08:12:17Z</time>
      </trkpt>
      <trkpt lat="45.69743" lon="6.72373">
        <ele>1768</ele>
        <time>2022-06-15T08:12:18Z</time>
      </trkpt>
      <trkpt lat="45.69743" lon="6.72369">
        <ele>1768.1</ele>
        <time>2022-06-15T08:12:19Z</time>
      </trkpt>
      <trkpt lat="45.69743" lon="6.72364">
        <ele>1768.2</ele>
        <time>2022-06-15T08:12:20Z</time>
      </trkpt>
      <trkpt lat="45.69743" lon="6.72359">
        <ele>1768.2</ele>
        <time>2022-06-15T08:12:21Z</time>
      </trkpt>
      <trkpt lat="45.69743" lon="6.72354">
        <ele>1768.1</ele>
        <time>2022-06-15T08:12:22Z</time>
      </trkpt>
      <trkpt lat="45.69744" lon="6.72349">
        <ele>1768.1</ele>
        <time>2022-06-15T08:12:23Z</time>
      </trkpt>
      <trkpt lat="45.69745" lon="6.72343">
        <ele>1768.2</ele>
        <time>2022-06-15T08:12:24Z</time>
      </trkpt>
      <trkpt lat="45.69746" lon="6.72338">
        <ele>1768.4</ele>
        <time>2022-06-15T08:12:25Z</time>
      </trkpt>
      <trkpt lat="45.69748" lon="6.72332">
        <ele>1768.7</ele>
        <time>2022-06-15T08:12:26Z</time>
      </trkpt>
      <trkpt lat="45.6975" lon="6.72327">
        <ele>1768.8</ele>
        <time>2022-06-15T08:12:27Z</time>
      </trkpt>
      <trkpt lat="45.69752" lon="6.72322">
        <ele>1769.3</ele>
        <time>2022-06-15T08:12:28Z</time>
      </trkpt>
      <trkpt lat="45.69755" lon="6.72316">
        <ele>1769.9</ele>
        <time>2022-06-15T08:12:29Z</time>
      </trkpt>
      <trkpt lat="45.69757" lon="6.72311">
        <ele>1770.4</ele>
        <time>2022-06-15T08:12:30Z</time>
      </trkpt>
      <trkpt lat="45.6976" lon="6.72305">
        <ele>1770.7</ele>
        <time>2022-06-15T08:12:31Z</time>
      </trkpt>
      <trkpt lat="45.69762" lon="6.723">
        <ele>1770.6</ele>
        <time>2022-06-15T08:12:32Z</time>
      </trkpt>
      <trkpt lat="45.69764" lon="6.72294">
        <ele>1770.4</ele>
        <time>2022-06-15T08:12:33Z</time>
      </trkpt>
      <trkpt lat="45.69766" lon="6.72289">
        <ele>1770.1</ele>
        <time>2022-06-15T08:12:34Z</time>
      </trkpt>
      <trkpt lat="45.69767" lon="6.72284">
        <ele>1769.7</ele>
        <time>2022-06-15T08:12:35Z</time>
      </trkpt>
      <trkpt lat="45.69769" lon="6.72279">
        <ele>1769.2</ele>
        <time>2022-06-15T08:12:36Z</time>
      </trkpt>
      <trkpt lat="45.6977" lon="6.72274">
        <ele>1768.9</ele>
        <time>2022-06-15T08:12:37Z</time>
      </trkpt>
      <trkpt lat="45.69771" lon="6.72269">
        <ele>1768.6</ele>
        <time>2022-06-15T08:12:38Z</time>
      </trkpt>
      <trkpt lat="45.69772" lon="6.72264">
        <ele>1768.4</ele>
        <time>2022-06-15T08:12:39Z</time>
      </trkpt>
      <trkpt lat="45.69773" lon="6.72259">
        <ele>1768</ele>
        <time>2022-06-15T08:12:40Z</time>
      </trkpt>
      <trkpt lat="45.69774" lon="6.72254">
        <ele>1767.5</ele>
        <time>2022-06-15T08:12:41Z</time>
      </trkpt>
      <trkpt lat="45.69774" lon="6.72249">
        <ele>1767.1</ele>
        <time>2022-06-15T08:12:42Z</time>
      </trkpt>
      <trkpt lat="45.69773" lon="6.72243">
        <ele>1767.1</ele>
        <time>2022-06-15T08:12:43Z</time>
      </trkpt>
      <trkpt lat="45.69773" lon="6.72238">
        <ele>1767</ele>
        <time>2022-06-15T08:12:44Z</time>
      </trkpt>
      <trkpt lat="45.69772" lon="6.72232">
        <ele>1767</ele>
        <time>2022-06-15T08:12:45Z</time>
      </trkpt>
      <trkpt lat="45.69772" lon="6.72227">
        <ele>1767.1</ele>
        <time>2022-06-15T08:12:46Z</time>
      </trkpt>
      <trkpt lat="45.69771" lon="6.72222">
        <ele>1767.1</ele>
        <time>2022-06-15T08:12:47Z</time>
      </trkpt>
      <trkpt lat="45.6977" lon="6.72217">
        <ele>1767.7</ele>
        <time>2022-06-15T08:12:48Z</time>
      </trkpt>
      <trkpt lat="45.69769" lon="6.72213">
        <ele>1768.2</ele>
        <time>2022-06-15T08:12:49Z</time>
      </trkpt>
      <trkpt lat="45.69767" lon="6.72209">
        <ele>1768.7</ele>
        <time>2022-06-15T08:12:50Z</time>
      </trkpt>
      <trkpt lat="45.69765" lon="6.72205">
        <ele>1769.3</ele>
        <time>2022-06-15T08:12:51Z</time>
      </trkpt>
      <trkpt lat="45.69763" lon="6.72201">
        <ele>1769.9</ele>
        <time>2022-06-15T08:12:52Z</time>
      </trkpt>
      <trkpt lat="45.69761" lon="6.72197">
        <ele>1770.5</ele>
        <time>2022-06-15T08:12:53Z</time>
      </trkpt>
      <trkpt lat="45.69759" lon="6.72194">
        <ele>1771.1</ele>
        <time>2022-06-15T08:12:54Z</time>
      </trkpt>
      <trkpt lat="45.69757" lon="6.72191">
        <ele>1771.7</ele>
        <time>2022-06-15T08:12:55Z</time>
      </trkpt>
      <trkpt lat="45.69754" lon="6.72188">
        <ele>1772.2</ele>
        <time>2022-06-15T08:12:56Z</time>
      </trkpt>
      <trkpt lat="45.69752" lon="6.72186">
        <ele>1772.6</ele>
        <time>2022-06-15T08:12:57Z</time>
      </trkpt>
      <trkpt lat="45.69749" lon="6.72184">
        <ele>1772.9</ele>
        <time>2022-06-15T08:12:58Z</time>
      </trkpt>
      <trkpt lat="45.69747" lon="6.72182">
        <ele>1772.9</ele>
        <time>2022-06-15T08:12:59Z</time>
      </trkpt>
      <trkpt lat="45.69745" lon="6.7218">
        <ele>1773</ele>
        <time>2022-06-15T08:13:00Z</time>
      </trkpt>
      <trkpt lat="45.69743" lon="6.72177">
        <ele>1773.2</ele>
        <time>2022-06-15T08:13:01Z</time>
      </trkpt>
      <trkpt lat="45.69741" lon="6.72174">
        <ele>1773.4</ele>
        <time>2022-06-15T08:13:02Z</time>
      </trkpt>
      <trkpt lat="45.69739" lon="6.72171">
        <ele>1773.7</ele>
        <time>2022-06-15T08:13:03Z</time>
      </trkpt>
      <trkpt lat="45.69737" lon="6.72168">
        <ele>1774</ele>
        <time>2022-06-15T08:13:04Z</time>
      </trkpt>
      <trkpt lat="45.69736" lon="6.72165">
        <ele>1774.2</ele>
        <time>2022-06-15T08:13:05Z</time>
      </trkpt>
      <trkpt lat="45.69734" lon="6.72161">
        <ele>1774.3</ele>
        <time>2022-06-15T08:13:06Z</time>
      </trkpt>
      <trkpt lat="45.69733" lon="6.72157">
        <ele>1774.3</ele>
        <time>2022-06-15T08:13:07Z</time>
      </trkpt>
      <trkpt lat="45.69732" lon="6.72154">
        <ele>1774.4</ele>
        <time>2022-06-15T08:13:08Z</time>
      </trkpt>
      <trkpt lat="45.69731" lon="6.7215">
        <ele>1774.6</ele>
        <time>2022-06-15T08:13:09Z</time>
      </trkpt>
      <trkpt lat="45.6973" lon="6.72146">
        <ele>1774.7</ele>
        <time>2022-06-15T08:13:10Z</time>
      </trkpt>
      <trkpt lat="45.6973" lon="6.72142">
        <ele>1775</ele>
        <time>2022-06-15T08:13:11Z</time>
      </trkpt>
      <trkpt lat="45.6973" lon="6.72138">
        <ele>1775.1</ele>
        <time>2022-06-15T08:13:12Z</time>
      </trkpt>
      <trkpt lat="45.6973" lon="6.72133">
        <ele>1775.3</ele>
        <time>2022-06-15T08:13:13Z</time>
      </trkpt>
      <trkpt lat="45.6973" lon="6.72129">
        <ele>1775.4</ele>
        <time>2022-06-15T08:13:14Z</time>
      </trkpt>
      <trkpt lat="45.6973" lon="6.72125">
        <ele>1775.6</ele>
        <time>2022-06-15T08:13:15Z</time>
      </trkpt>
      <trkpt lat="45.6973" lon="6.72121">
        <ele>1775.8</ele>
        <time>2022-06-15T08:13:16Z</time>
      </trkpt>
      <trkpt lat="45.6973" lon="6.72117">
        <ele>1776</ele>
        <time>2022-06-15T08:13:17Z</time>
      </trkpt>
      <trkpt lat="45.69731" lon="6.72113">
        <ele>1776.3</ele>
        <time>2022-06-15T08:13:18Z</time>
      </trkpt>
      <trkpt lat="45.69731" lon="6.72109">
        <ele>1776.6</ele>
        <time>2022-06-15T08:13:19Z</time>
      </trkpt>
      <trkpt lat="45.69732" lon="6.72105">
        <ele>1776.7</ele>
        <time>2022-06-15T08:13:20Z</time>
      </trkpt>
      <trkpt lat="45.69733" lon="6.72101">
        <ele>1776.9</ele>
        <time>2022-06-15T08:13:21Z</time>
      </trkpt>
      <trkpt lat="45.69733" lon="6.72097">
        <ele>1777.2</ele>
        <time>2022-06-15T08:13:22Z</time>
      </trkpt>
      <trkpt lat="45.69734" lon="6.72094">
        <ele>1777.3</ele>
        <time>2022-06-15T08:13:23Z</time>
      </trkpt>
      <trkpt lat="45.69735" lon="6.7209">
        <ele>1777.6</ele>
        <time>2022-06-15T08:13:24Z</time>
      </trkpt>
      <trkpt lat="45.69736" lon="6.72086">
        <ele>1777.8</ele>
        <time>2022-06-15T08:13:25Z</time>
      </trkpt>
      <trkpt lat="45.69736" lon="6.72083">
        <ele>1777.9</ele>
        <time>2022-06-15T08:13:26Z</time>
      </trkpt>
      <trkpt lat="45.69737" lon="6.72079">
        <ele>1777.7</ele>
        <time>2022-06-15T08:13:27Z</time>
      </trkpt>
      <trkpt lat="45.69737" lon="6.72075">
        <ele>1777.5</ele>
        <time>2022-06-15T08:13:28Z</time>
      </trkpt>
      <trkpt lat="45.69738" lon="6.72071">
        <ele>1777.3</ele>
        <time>2022-06-15T08:13:29Z</time>
      </trkpt>
      <trkpt lat="45.69739" lon="6.72067">
        <ele>1777.1</ele>
        <time>2022-06-15T08:13:30Z</time>
      </trkpt>
      <trkpt lat="45.69739" lon="6.72063">
        <ele>1776.9</ele>
        <time>2022-06-15T08:13:31Z</time>
      </trkpt>
      <trkpt lat="45.6974" lon="6.72059">
        <ele>1776.5</ele>
        <time>2022-06-15T08:13:32Z</time>
      </trkpt>
      <trkpt lat="45.6974" lon="6.72055">
        <ele>1776.3</ele>
        <time>2022-06-15T08:13:33Z</time>
      </trkpt>
      <trkpt lat="45.69741" lon="6.72051">
        <ele>1776.6</ele>
        <time>2022-06-15T08:13:34Z</time>
      </trkpt>
      <trkpt lat="45.69741" lon="6.72047">
        <ele>1776.9</ele>
        <time>2022-06-15T08:13:35Z</time>
      </trkpt>
      <trkpt lat="45.69742" lon="6.72043">
        <ele>1777.2</ele>
        <time>2022-06-15T08:13:36Z</time>
      </trkpt>
      <trkpt lat="45.69742" lon="6.7204">
        <ele>1777.5</ele>
        <time>2022-06-15T08:13:37Z</time>
      </trkpt>
      <trkpt lat="45.69742" lon="6.72036">
        <ele>1777.9</ele>
        <time>2022-06-15T08:13:38Z</time>
      </trkpt>
      <trkpt lat="45.69743" lon="6.72032">
        <ele>1778.1</ele>
        <time>2022-06-15T08:13:39Z</time>
      </trkpt>
      <trkpt lat="45.69743" lon="6.72028">
        <ele>1778.4</ele>
        <time>2022-06-15T08:13:40Z</time>
      </trkpt>
      <trkpt lat="45.69743" lon="6.72024">
        <ele>1778.7</ele>
        <time>2022-06-15T08:13:41Z</time>
      </trkpt>
      <trkpt lat="45.69743" lon="6.7202">
        <ele>1779</ele>
        <time>2022-06-15T08:13:42Z</time>
      </trkpt>
      <trkpt lat="45.69744" lon="6.72017">
        <ele>1779.2</ele>
        <time>2022-06-15T08:13:43Z</time>
      </trkpt>
      <trkpt lat="45.69744" lon="6.72013">
        <ele>1779.5</ele>
        <time>2022-06-15T08:13:44Z</time>
      </trkpt>
      <trkpt lat="45.69744" lon="6.72009">
        <ele>1779.7</ele>
        <time>2022-06-15T08:13:45Z</time>
      </trkpt>
      <trkpt lat="45.69744" lon="6.72005">
        <ele>1779.9</ele>
        <time>2022-06-15T08:13:46Z</time>
      </trkpt>
      <trkpt lat="45.69744" lon="6.72001">
        <ele>1780.1</ele>
        <time>2022-06-15T08:13:47Z</time>
      </trkpt>
      <trkpt lat="45.69744" lon="6.71997">
        <ele>1780.4</ele>
        <time>2022-06-15T08:13:48Z</time>
      </trkpt>
      <trkpt lat="45.69743" lon="6.71993">
        <ele>1780.7</ele>
        <time>2022-06-15T08:13:49Z</time>
      </trkpt>
      <trkpt lat="45.69743" lon="6.71989">
        <ele>1781</ele>
        <time>2022-06-15T08:13:50Z</time>
      </trkpt>
      <trkpt lat="45.69743" lon="6.71986">
        <ele>1781.2</ele>
        <time>2022-06-15T08:13:51Z</time>
      </trkpt>
      <trkpt lat="45.69743" lon="6.71982">
        <ele>1781.5</ele>
        <time>2022-06-15T08:13:52Z</time>
      </trkpt>
      <trkpt lat="45.69742" lon="6.71978">
        <ele>1781.7</ele>
        <time>2022-06-15T08:13:53Z</time>
      </trkpt>
      <trkpt lat="45.69742" lon="6.71974">
        <ele>1781.9</ele>
        <time>2022-06-15T08:13:54Z</time>
      </trkpt>
      <trkpt lat="45.69741" lon="6.7197">
        <ele>1782.2</ele>
        <time>2022-06-15T08:13:55Z</time>
      </trkpt>
      <trkpt lat="45.6974" lon="6.71966">
        <ele>1782.7</ele>
        <time>2022-06-15T08:13:56Z</time>
      </trkpt>
      <trkpt lat="45.69739" lon="6.71963">
        <ele>1783.1</ele>
        <time>2022-06-15T08:13:57Z</time>
      </trkpt>
      <trkpt lat="45.69738" lon="6.71959">
        <ele>1783.5</ele>
        <time>2022-06-15T08:13:58Z</time>
      </trkpt>
      <trkpt lat="45.69737" lon="6.71955">
        <ele>1783.9</ele>
        <time>2022-06-15T08:13:59Z</time>
      </trkpt>
      <trkpt lat="45.69736" lon="6.71952">
        <ele>1784.3</ele>
        <time>2022-06-15T08:14:00Z</time>
      </trkpt>
      <trkpt lat="45.69734" lon="6.71948">
        <ele>1784.6</ele>
        <time>2022-06-15T08:14:01Z</time>
      </trkpt>
      <trkpt lat="45.69733" lon="6.71945">
        <ele>1785</ele>
        <time>2022-06-15T08:14:02Z</time>
      </trkpt>
      <trkpt lat="45.69731" lon="6.71942">
        <ele>1785.1</ele>
        <time>2022-06-15T08:14:03Z</time>
      </trkpt>
      <trkpt lat="45.69729" lon="6.71939">
        <ele>1785</ele>
        <time>2022-06-15T08:14:04Z</time>
      </trkpt>
      <trkpt lat="45.69727" lon="6.71937">
        <ele>1784.9</ele>
        <time>2022-06-15T08:14:05Z</time>
      </trkpt>
      <trkpt lat="45.69725" lon="6.71934">
        <ele>1784.9</ele>
        <time>2022-06-15T08:14:06Z</time>
      </trkpt>
      <trkpt lat="45.69723" lon="6.71932">
        <ele>1784.8</ele>
        <time>2022-06-15T08:14:07Z</time>
      </trkpt>
      <trkpt lat="45.6972" lon="6.7193">
        <ele>1784.8</ele>
        <time>2022-06-15T08:14:08Z</time>
      </trkpt>
      <trkpt lat="45.69718" lon="6.71929">
        <ele>1784.9</ele>
        <time>2022-06-15T08:14:09Z</time>
      </trkpt>
      <trkpt lat="45.69715" lon="6.71927">
        <ele>1784.9</ele>
        <time>2022-06-15T08:14:10Z</time>
      </trkpt>
      <trkpt lat="45.69713" lon="6.71926">
        <ele>1785</ele>
        <time>2022-06-15T08:14:11Z</time>
      </trkpt>
      <trkpt lat="45.6971" lon="6.71925">
        <ele>1785</ele>
        <time>2022-06-15T08:14:12Z</time>
      </trkpt>
      <trkpt lat="45.69708" lon="6.71924">
        <ele>1785.1</ele>
        <time>2022-06-15T08:14:13Z</time>
      </trkpt>
      <trkpt lat="45.69705" lon="6.71923">
        <ele>1785.1</ele>
        <time>2022-06-15T08:14:14Z</time>
      </trkpt>
      <trkpt lat="45.69703" lon="6.71922">
        <ele>1785.2</ele>
        <time>2022-06-15T08:14:15Z</time>
      </trkpt>
      <trkpt lat="45.697" lon="6.7192">
        <ele>1785.3</ele>
        <time>2022-06-15T08:14:16Z</time>
      </trkpt>
      <trkpt lat="45.69697" lon="6.71919">
        <ele>1785.4</ele>
        <time>2022-06-15T08:14:17Z</time>
      </trkpt>
      <trkpt lat="45.69695" lon="6.71918">
        <ele>1785.6</ele>
        <time>2022-06-15T08:14:18Z</time>
      </trkpt>
      <trkpt lat="45.69692" lon="6.71917">
        <ele>1785.9</ele>
        <time>2022-06-15T08:14:19Z</time>
      </trkpt>
      <trkpt lat="45.6969" lon="6.71915">
        <ele>1786.3</ele>
        <time>2022-06-15T08:14:20Z</time>
      </trkpt>
      <trkpt lat="45.69688" lon="6.71914">
        <ele>1786.6</ele>
        <time>2022-06-15T08:14:21Z</time>
      </trkpt>
      <trkpt lat="45.69685" lon="6.71912">
        <ele>1786.9</ele>
        <time>2022-06-15T08:14:22Z</time>
      </trkpt>
      <trkpt lat="45.69683" lon="6.71911">
        <ele>1787.2</ele>
        <time>2022-06-15T08:14:23Z</time>
      </trkpt>
      <trkpt lat="45.6968" lon="6.71909">
        <ele>1787.5</ele>
        <time>2022-06-15T08:14:24Z</time>
      </trkpt>
      <trkpt lat="45.69678" lon="6.71908">
        <ele>1787.6</ele>
        <time>2022-06-15T08:14:25Z</time>
      </trkpt>
      <trkpt lat="45.69676" lon="6.71906">
        <ele>1787.9</ele>
        <time>2022-06-15T08:14:26Z</time>
      </trkpt>
      <trkpt lat="45.69673" lon="6.71905">
        <ele>1788</ele>
        <time>2022-06-15T08:14:27Z</time>
      </trkpt>
      <trkpt lat="45.69671" lon="6.71903">
        <ele>1788.2</ele>
        <time>2022-06-15T08:14:28Z</time>
      </trkpt>
      <trkpt lat="45.69668" lon="6.71902">
        <ele>1788.3</ele>
        <time>2022-06-15T08:14:29Z</time>
      </trkpt>
      <trkpt lat="45.69666" lon="6.719">
        <ele>1788.4</ele>
        <time>2022-06-15T08:14:30Z</time>
      </trkpt>
      <trkpt lat="45.69663" lon="6.71898">
        <ele>1788.5</ele>
        <time>2022-06-15T08:14:31Z</time>
      </trkpt>
      <trkpt lat="45.69661" lon="6.71897">
        <ele>1788.6</ele>
        <time>2022-06-15T08:14:32Z</time>
      </trkpt>
      <trkpt lat="45.69658" lon="6.71895">
        <ele>1788.7</ele>
        <time>2022-06-15T08:14:33Z</time>
      </trkpt>
      <trkpt lat="45.69656" lon="6.71893">
        <ele>1788.9</ele>
        <time>2022-06-15T08:14:34Z</time>
      </trkpt>
      <trkpt lat="45.69653" lon="6.71891">
        <ele>1789.2</ele>
        <time>2022-06-15T08:14:35Z</time>
      </trkpt>
      <trkpt lat="45.69651" lon="6.71889">
        <ele>1789.4</ele>
        <time>2022-06-15T08:14:36Z</time>
      </trkpt>
      <trkpt lat="45.69649" lon="6.71887">
        <ele>1789.6</ele>
        <time>2022-06-15T08:14:37Z</time>
      </trkpt>
      <trkpt lat="45.69646" lon="6.71885">
        <ele>1789.7</ele>
        <time>2022-06-15T08:14:38Z</time>
      </trkpt>
      <trkpt lat="45.69644" lon="6.71884">
        <ele>1789.7</ele>
        <time>2022-06-15T08:14:39Z</time>
      </trkpt>
      <trkpt lat="45.69641" lon="6.71882">
        <ele>1789.7</ele>
        <time>2022-06-15T08:14:40Z</time>
      </trkpt>
      <trkpt lat="45.69639" lon="6.71881">
        <ele>1789.7</ele>
        <time>2022-06-15T08:14:41Z</time>
      </trkpt>
      <trkpt lat="45.69636" lon="6.7188">
        <ele>1789.6</ele>
        <time>2022-06-15T08:14:42Z</time>
      </trkpt>
      <trkpt lat="45.69634" lon="6.71879">
        <ele>1789.7</ele>
        <time>2022-06-15T08:14:43Z</time>
      </trkpt>
      <trkpt lat="45.69631" lon="6.71878">
        <ele>1789.7</ele>
        <time>2022-06-15T08:14:44Z</time>
      </trkpt>
      <trkpt lat="45.69629" lon="6.71876">
        <ele>1789.9</ele>
        <time>2022-06-15T08:14:45Z</time>
      </trkpt>
      <trkpt lat="45.69627" lon="6.71874">
        <ele>1790.1</ele>
        <time>2022-06-15T08:14:46Z</time>
      </trkpt>
      <trkpt lat="45.69624" lon="6.71873">
        <ele>1790.3</ele>
        <time>2022-06-15T08:14:47Z</time>
      </trkpt>
      <trkpt lat="45.69622" lon="6.71871">
        <ele>1790.4</ele>
        <time>2022-06-15T08:14:48Z</time>
      </trkpt>
      <trkpt lat="45.6962" lon="6.7187">
        <ele>1790.5</ele>
        <time>2022-06-15T08:14:49Z</time>
      </trkpt>
      <trkpt lat="45.69618" lon="6.71868">
        <ele>1790.7</ele>
        <time>2022-06-15T08:14:50Z</time>
      </trkpt>
      <trkpt lat="45.69615" lon="6.71866">
        <ele>1791</ele>
        <time>2022-06-15T08:14:51Z</time>
      </trkpt>
      <trkpt lat="45.69613" lon="6.71864">
        <ele>1791.4</ele>
        <time>2022-06-15T08:14:52Z</time>
      </trkpt>
      <trkpt lat="45.6961" lon="6.71863">
        <ele>1791.6</ele>
        <time>2022-06-15T08:14:53Z</time>
      </trkpt>
      <trkpt lat="45.69608" lon="6.71861">
        <ele>1791.8</ele>
        <time>2022-06-15T08:14:54Z</time>
      </trkpt>
      <trkpt lat="45.69606" lon="6.7186">
        <ele>1792.2</ele>
        <time>2022-06-15T08:14:55Z</time>
      </trkpt>
      <trkpt lat="45.69603" lon="6.71858">
        <ele>1792.5</ele>
        <time>2022-06-15T08:14:56Z</time>
      </trkpt>
      <trkpt lat="45.69601" lon="6.71856">
        <ele>1792.7</ele>
        <time>2022-06-15T08:14:57Z</time>
      </trkpt>
      <trkpt lat="45.69599" lon="6.71853">
        <ele>1793.1</ele>
        <time>2022-06-15T08:14:58Z</time>
      </trkpt>
      <trkpt lat="45.69597" lon="6.71851">
        <ele>1793.3</ele>
        <time>2022-06-15T08:14:59Z</time>
      </trkpt>
      <trkpt lat="45.69595" lon="6.71848">
        <ele>1793.4</ele>
        <time>2022-06-15T08:15:00Z</time>
      </trkpt>
      <trkpt lat="45.69593" lon="6.71846">
        <ele>1793.6</ele>
        <time>2022-06-15T08:15:01Z</time>
      </trkpt>
      <trkpt lat="45.6959" lon="6.7184">
        <ele>1793.9</ele>
        <time>2022-06-15T08:15:02Z</time>
      </trkpt>
      <trkpt lat="45.6959" lon="6.71839">
        <ele>1793.9</ele>
        <time>2022-06-15T08:15:03Z</time>
      </trkpt>
      <trkpt lat="45.69588" lon="6.71835">
        <ele>1793.9</ele>
        <time>2022-06-15T08:15:04Z</time>
      </trkpt>
      <trkpt lat="45.69586" lon="6.71832">
        <ele>1793.9</ele>
        <time>2022-06-15T08:15:05Z</time>
      </trkpt>
      <trkpt lat="45.69585" lon="6.71828">
        <ele>1794</ele>
        <time>2022-06-15T08:15:06Z</time>
      </trkpt>
      <trkpt lat="45.69584" lon="6.71825">
        <ele>1794</ele>
        <time>2022-06-15T08:15:07Z</time>
      </trkpt>
      <trkpt lat="45.69582" lon="6.71821">
        <ele>1794</ele>
        <time>2022-06-15T08:15:08Z</time>
      </trkpt>
      <trkpt lat="45.69581" lon="6.71818">
        <ele>1794</ele>
        <time>2022-06-15T08:15:09Z</time>
      </trkpt>
      <trkpt lat="45.6958" lon="6.71814">
        <ele>1794</ele>
        <time>2022-06-15T08:15:10Z</time>
      </trkpt>
      <trkpt lat="45.69578" lon="6.71809">
        <ele>1794.1</ele>
        <time>2022-06-15T08:15:11Z</time>
      </trkpt>
      <trkpt lat="45.69578" lon="6.71807">
        <ele>1794.1</ele>
        <time>2022-06-15T08:15:12Z</time>
      </trkpt>
      <trkpt lat="45.69577" lon="6.71804">
        <ele>1794.4</ele>
        <time>2022-06-15T08:15:13Z</time>
      </trkpt>
      <trkpt lat="45.69577" lon="6.718">
        <ele>1794.9</ele>
        <time>2022-06-15T08:15:14Z</time>
      </trkpt>
      <trkpt lat="45.69576" lon="6.71796">
        <ele>1795.4</ele>
        <time>2022-06-15T08:15:15Z</time>
      </trkpt>
      <trkpt lat="45.69575" lon="6.71792">
        <ele>1795.9</ele>
        <time>2022-06-15T08:15:16Z</time>
      </trkpt>
      <trkpt lat="45.69575" lon="6.71789">
        <ele>1796.4</ele>
        <time>2022-06-15T08:15:17Z</time>
      </trkpt>
      <trkpt lat="45.69575" lon="6.71785">
        <ele>1796.9</ele>
        <time>2022-06-15T08:15:18Z</time>
      </trkpt>
      <trkpt lat="45.69574" lon="6.71781">
        <ele>1797.4</ele>
        <time>2022-06-15T08:15:19Z</time>
      </trkpt>
      <trkpt lat="45.69574" lon="6.71777">
        <ele>1797.9</ele>
        <time>2022-06-15T08:15:20Z</time>
      </trkpt>
      <trkpt lat="45.69573" lon="6.71774">
        <ele>1797.7</ele>
        <time>2022-06-15T08:15:21Z</time>
      </trkpt>
      <trkpt lat="45.69573" lon="6.7177">
        <ele>1797.6</ele>
        <time>2022-06-15T08:15:22Z</time>
      </trkpt>
      <trkpt lat="45.69573" lon="6.71766">
        <ele>1797.7</ele>
        <time>2022-06-15T08:15:23Z</time>
      </trkpt>
      <trkpt lat="45.69573" lon="6.71763">
        <ele>1797.8</ele>
        <time>2022-06-15T08:15:24Z</time>
      </trkpt>
      <trkpt lat="45.69572" lon="6.71757">
        <ele>1797.9</ele>
        <time>2022-06-15T08:15:25Z</time>
      </trkpt>
      <trkpt lat="45.69572" lon="6.71755">
        <ele>1797.9</ele>
        <time>2022-06-15T08:15:26Z</time>
      </trkpt>
      <trkpt lat="45.69572" lon="6.71751">
        <ele>1798.1</ele>
        <time>2022-06-15T08:15:27Z</time>
      </trkpt>
      <trkpt lat="45.69572" lon="6.71747">
        <ele>1798</ele>
        <time>2022-06-15T08:15:28Z</time>
      </trkpt>
      <trkpt lat="45.69572" lon="6.71744">
        <ele>1798</ele>
        <time>2022-06-15T08:15:29Z</time>
      </trkpt>
      <trkpt lat="45.69572" lon="6.7174">
        <ele>1798</ele>
        <time>2022-06-15T08:15:30Z</time>
      </trkpt>
      <trkpt lat="45.69573" lon="6.71736">
        <ele>1798.2</ele>
        <time>2022-06-15T08:15:31Z</time>
      </trkpt>
      <trkpt lat="45.69573" lon="6.71732">
        <ele>1798.4</ele>
        <time>2022-06-15T08:15:32Z</time>
      </trkpt>
      <trkpt lat="45.69574" lon="6.71729">
        <ele>1798.6</ele>
        <time>2022-06-15T08:15:33Z</time>
      </trkpt>
      <trkpt lat="45.69575" lon="6.71725">
        <ele>1799</ele>
        <time>2022-06-15T08:15:34Z</time>
      </trkpt>
      <trkpt lat="45.69576" lon="6.71721">
        <ele>1799.3</ele>
        <time>2022-06-15T08:15:35Z</time>
      </trkpt>
      <trkpt lat="45.69578" lon="6.71718">
        <ele>1799.3</ele>
        <time>2022-06-15T08:15:36Z</time>
      </trkpt>
      <trkpt lat="45.69579" lon="6.71715">
        <ele>1799.3</ele>
        <time>2022-06-15T08:15:37Z</time>
      </trkpt>
      <trkpt lat="45.6958" lon="6.71711">
        <ele>1799.4</ele>
        <time>2022-06-15T08:15:38Z</time>
      </trkpt>
      <trkpt lat="45.69582" lon="6.71708">
        <ele>1799.7</ele>
        <time>2022-06-15T08:15:39Z</time>
      </trkpt>
      <trkpt lat="45.69583" lon="6.71704">
        <ele>1799.9</ele>
        <time>2022-06-15T08:15:40Z</time>
      </trkpt>
      <trkpt lat="45.69584" lon="6.71701">
        <ele>1800.2</ele>
        <time>2022-06-15T08:15:41Z</time>
      </trkpt>
      <trkpt lat="45.69586" lon="6.71697">
        <ele>1800.4</ele>
        <time>2022-06-15T08:15:42Z</time>
      </trkpt>
      <trkpt lat="45.69587" lon="6.71692">
        <ele>1800.8</ele>
        <time>2022-06-15T08:15:43Z</time>
      </trkpt>
      <trkpt lat="45.69588" lon="6.71688">
        <ele>1801.3</ele>
        <time>2022-06-15T08:15:44Z</time>
      </trkpt>
      <trkpt lat="45.69589" lon="6.71684">
        <ele>1801.6</ele>
        <time>2022-06-15T08:15:45Z</time>
      </trkpt>
      <trkpt lat="45.6959" lon="6.7168">
        <ele>1801.7</ele>
        <time>2022-06-15T08:15:46Z</time>
      </trkpt>
      <trkpt lat="45.6959" lon="6.71675">
        <ele>1801.5</ele>
        <time>2022-06-15T08:15:47Z</time>
      </trkpt>
      <trkpt lat="45.6959" lon="6.7167">
        <ele>1801.1</ele>
        <time>2022-06-15T08:15:48Z</time>
      </trkpt>
      <trkpt lat="45.69589" lon="6.71665">
        <ele>1800.6</ele>
        <time>2022-06-15T08:15:49Z</time>
      </trkpt>
      <trkpt lat="45.69588" lon="6.7166">
        <ele>1800</ele>
        <time>2022-06-15T08:15:50Z</time>
      </trkpt>
      <trkpt lat="45.69587" lon="6.71656">
        <ele>1799.3</ele>
        <time>2022-06-15T08:15:51Z</time>
      </trkpt>
      <trkpt lat="45.69585" lon="6.71651">
        <ele>1798.7</ele>
        <time>2022-06-15T08:15:52Z</time>
      </trkpt>
      <trkpt lat="45.69583" lon="6.71647">
        <ele>1798.2</ele>
        <time>2022-06-15T08:15:53Z</time>
      </trkpt>
      <trkpt lat="45.6958" lon="6.71643">
        <ele>1798.2</ele>
        <time>2022-06-15T08:15:54Z</time>
      </trkpt>
      <trkpt lat="45.69577" lon="6.7164">
        <ele>1798.4</ele>
        <time>2022-06-15T08:15:55Z</time>
      </trkpt>
      <trkpt lat="45.69574" lon="6.71637">
        <ele>1799</ele>
        <time>2022-06-15T08:15:56Z</time>
      </trkpt>
      <trkpt lat="45.69571" lon="6.71634">
        <ele>1799.8</ele>
        <time>2022-06-15T08:15:57Z</time>
      </trkpt>
      <trkpt lat="45.69567" lon="6.71632">
        <ele>1800.7</ele>
        <time>2022-06-15T08:15:58Z</time>
      </trkpt>
      <trkpt lat="45.69563" lon="6.71631">
        <ele>1801.4</ele>
        <time>2022-06-15T08:15:59Z</time>
      </trkpt>
      <trkpt lat="45.69559" lon="6.7163">
        <ele>1802.3</ele>
        <time>2022-06-15T08:16:00Z</time>
      </trkpt>
      <trkpt lat="45.69555" lon="6.7163">
        <ele>1802.8</ele>
        <time>2022-06-15T08:16:01Z</time>
      </trkpt>
      <trkpt lat="45.69552" lon="6.7163">
        <ele>1803.4</ele>
        <time>2022-06-15T08:16:02Z</time>
      </trkpt>
      <trkpt lat="45.69548" lon="6.71631">
        <ele>1803.8</ele>
        <time>2022-06-15T08:16:03Z</time>
      </trkpt>
      <trkpt lat="45.69545" lon="6.71631">
        <ele>1804.1</ele>
        <time>2022-06-15T08:16:04Z</time>
      </trkpt>
      <trkpt lat="45.69542" lon="6.71632">
        <ele>1804.2</ele>
        <time>2022-06-15T08:16:05Z</time>
      </trkpt>
      <trkpt lat="45.69539" lon="6.71634">
        <ele>1804.2</ele>
        <time>2022-06-15T08:16:06Z</time>
      </trkpt>
      <trkpt lat="45.69536" lon="6.71635">
        <ele>1804</ele>
        <time>2022-06-15T08:16:07Z</time>
      </trkpt>
      <trkpt lat="45.69534" lon="6.71637">
        <ele>1804</ele>
        <time>2022-06-15T08:16:08Z</time>
      </trkpt>
      <trkpt lat="45.69531" lon="6.71638">
        <ele>1804</ele>
        <time>2022-06-15T08:16:09Z</time>
      </trkpt>
      <trkpt lat="45.69528" lon="6.71639">
        <ele>1804</ele>
        <time>2022-06-15T08:16:10Z</time>
      </trkpt>
      <trkpt lat="45.69526" lon="6.7164">
        <ele>1804.2</ele>
        <time>2022-06-15T08:16:11Z</time>
      </trkpt>
      <trkpt lat="45.69523" lon="6.71641">
        <ele>1804.5</ele>
        <time>2022-06-15T08:16:12Z</time>
      </trkpt>
      <trkpt lat="45.69521" lon="6.71643">
        <ele>1804.7</ele>
        <time>2022-06-15T08:16:13Z</time>
      </trkpt>
      <trkpt lat="45.69518" lon="6.71644">
        <ele>1804.8</ele>
        <time>2022-06-15T08:16:14Z</time>
      </trkpt>
      <trkpt lat="45.69516" lon="6.71646">
        <ele>1804.9</ele>
        <time>2022-06-15T08:16:15Z</time>
      </trkpt>
      <trkpt lat="45.69514" lon="6.71648">
        <ele>1805</ele>
        <time>2022-06-15T08:16:16Z</time>
      </trkpt>
      <trkpt lat="45.69511" lon="6.71649">
        <ele>1805.2</ele>
        <time>2022-06-15T08:16:17Z</time>
      </trkpt>
      <trkpt lat="45.69509" lon="6.7165">
        <ele>1805.4</ele>
        <time>2022-06-15T08:16:18Z</time>
      </trkpt>
      <trkpt lat="45.69507" lon="6.71651">
        <ele>1805.8</ele>
        <time>2022-06-15T08:16:19Z</time>
      </trkpt>
      <trkpt lat="45.69505" lon="6.71652">
        <ele>1806.2</ele>
        <time>2022-06-15T08:16:20Z</time>
      </trkpt>
      <trkpt lat="45.69502" lon="6.71653">
        <ele>1806.5</ele>
        <time>2022-06-15T08:16:21Z</time>
      </trkpt>
      <trkpt lat="45.695" lon="6.71654">
        <ele>1806.8</ele>
        <time>2022-06-15T08:16:22Z</time>
      </trkpt>
      <trkpt lat="45.69498" lon="6.71655">
        <ele>1806.9</ele>
        <time>2022-06-15T08:16:23Z</time>
      </trkpt>
      <trkpt lat="45.69496" lon="6.71656">
        <ele>1806.9</ele>
        <time>2022-06-15T08:16:24Z</time>
      </trkpt>
      <trkpt lat="45.69494" lon="6.71658">
        <ele>1806.9</ele>
        <time>2022-06-15T08:16:25Z</time>
      </trkpt>
      <trkpt lat="45.69492" lon="6.71659">
        <ele>1807.1</ele>
        <time>2022-06-15T08:16:26Z</time>
      </trkpt>
      <trkpt lat="45.69489" lon="6.71659">
        <ele>1807.3</ele>
        <time>2022-06-15T08:16:27Z</time>
      </trkpt>
      <trkpt lat="45.69487" lon="6.7166">
        <ele>1807.3</ele>
        <time>2022-06-15T08:16:28Z</time>
      </trkpt>
      <trkpt lat="45.69485" lon="6.71661">
        <ele>1807.4</ele>
        <time>2022-06-15T08:16:29Z</time>
      </trkpt>
      <trkpt lat="45.69483" lon="6.71662">
        <ele>1807.6</ele>
        <time>2022-06-15T08:16:30Z</time>
      </trkpt>
      <trkpt lat="45.69481" lon="6.71662">
        <ele>1807.9</ele>
        <time>2022-06-15T08:16:31Z</time>
      </trkpt>
      <trkpt lat="45.69478" lon="6.71662">
        <ele>1808.3</ele>
        <time>2022-06-15T08:16:32Z</time>
      </trkpt>
      <trkpt lat="45.69476" lon="6.71662">
        <ele>1808.7</ele>
        <time>2022-06-15T08:16:33Z</time>
      </trkpt>
      <trkpt lat="45.69473" lon="6.71661">
        <ele>1809.2</ele>
        <time>2022-06-15T08:16:34Z</time>
      </trkpt>
      <trkpt lat="45.69471" lon="6.71661">
        <ele>1809.4</ele>
        <time>2022-06-15T08:16:35Z</time>
      </trkpt>
      <trkpt lat="45.69469" lon="6.7166">
        <ele>1809.3</ele>
        <time>2022-06-15T08:16:36Z</time>
      </trkpt>
      <trkpt lat="45.69467" lon="6.71659">
        <ele>1809.3</ele>
        <time>2022-06-15T08:16:37Z</time>
      </trkpt>
      <trkpt lat="45.69464" lon="6.71658">
        <ele>1809.3</ele>
        <time>2022-06-15T08:16:38Z</time>
      </trkpt>
      <trkpt lat="45.69462" lon="6.71656">
        <ele>1809.4</ele>
        <time>2022-06-15T08:16:39Z</time>
      </trkpt>
      <trkpt lat="45.6946" lon="6.71654">
        <ele>1809.5</ele>
        <time>2022-06-15T08:16:40Z</time>
      </trkpt>
      <trkpt lat="45.69458" lon="6.71653">
        <ele>1809.5</ele>
        <time>2022-06-15T08:16:41Z</time>
      </trkpt>
      <trkpt lat="45.69456" lon="6.71651">
        <ele>1809.5</ele>
        <time>2022-06-15T08:16:42Z</time>
      </trkpt>
      <trkpt lat="45.69454" lon="6.71649">
        <ele>1809.6</ele>
        <time>2022-06-15T08:16:43Z</time>
      </trkpt>
      <trkpt lat="45.69453" lon="6.71646">
        <ele>1809.7</ele>
        <time>2022-06-15T08:16:44Z</time>
      </trkpt>
      <trkpt lat="45.69451" lon="6.71644">
        <ele>1809.7</ele>
        <time>2022-06-15T08:16:45Z</time>
      </trkpt>
      <trkpt lat="45.69449" lon="6.71641">
        <ele>1809.7</ele>
        <time>2022-06-15T08:16:46Z</time>
      </trkpt>
      <trkpt lat="45.69447" lon="6.71639">
        <ele>1809.6</ele>
        <time>2022-06-15T08:16:47Z</time>
      </trkpt>
      <trkpt lat="45.69446" lon="6.71636">
        <ele>1809.6</ele>
        <time>2022-06-15T08:16:48Z</time>
      </trkpt>
      <trkpt lat="45.69444" lon="6.71633">
        <ele>1809.7</ele>
        <time>2022-06-15T08:16:49Z</time>
      </trkpt>
      <trkpt lat="45.69443" lon="6.7163">
        <ele>1809.7</ele>
        <time>2022-06-15T08:16:50Z</time>
      </trkpt>
      <trkpt lat="45.69441" lon="6.71627">
        <ele>1809.8</ele>
        <time>2022-06-15T08:16:51Z</time>
      </trkpt>
      <trkpt lat="45.6944" lon="6.71624">
        <ele>1809.8</ele>
        <time>2022-06-15T08:16:52Z</time>
      </trkpt>
      <trkpt lat="45.69438" lon="6.7162">
        <ele>1809.9</ele>
        <time>2022-06-15T08:16:53Z</time>
      </trkpt>
      <trkpt lat="45.69437" lon="6.71617">
        <ele>1810</ele>
        <time>2022-06-15T08:16:54Z</time>
      </trkpt>
      <trkpt lat="45.69436" lon="6.71613">
        <ele>1810.1</ele>
        <time>2022-06-15T08:16:55Z</time>
      </trkpt>
      <trkpt lat="45.69436" lon="6.71609">
        <ele>1810.3</ele>
        <time>2022-06-15T08:16:56Z</time>
      </trkpt>
      <trkpt lat="45.69435" lon="6.71606">
        <ele>1810.5</ele>
        <time>2022-06-15T08:16:57Z</time>
      </trkpt>
      <trkpt lat="45.69435" lon="6.71602">
        <ele>1810.9</ele>
        <time>2022-06-15T08:16:58Z</time>
      </trkpt>
      <trkpt lat="45.69435" lon="6.71598">
        <ele>1811.3</ele>
        <time>2022-06-15T08:16:59Z</time>
      </trkpt>
      <trkpt lat="45.69435" lon="6.71595">
        <ele>1811.7</ele>
        <time>2022-06-15T08:17:00Z</time>
      </trkpt>
      <trkpt lat="45.69435" lon="6.71591">
        <ele>1812.4</ele>
        <time>2022-06-15T08:17:01Z</time>
      </trkpt>
      <trkpt lat="45.69436" lon="6.71587">
        <ele>1813</ele>
        <time>2022-06-15T08:17:02Z</time>
      </trkpt>
      <trkpt lat="45.69436" lon="6.71584">
        <ele>1813.7</ele>
        <time>2022-06-15T08:17:03Z</time>
      </trkpt>
      <trkpt lat="45.69437" lon="6.7158">
        <ele>1813.7</ele>
        <time>2022-06-15T08:17:04Z</time>
      </trkpt>
      <trkpt lat="45.69437" lon="6.71577">
        <ele>1813.7</ele>
        <time>2022-06-15T08:17:05Z</time>
      </trkpt>
      <trkpt lat="45.69438" lon="6.71573">
        <ele>1813.7</ele>
        <time>2022-06-15T08:17:06Z</time>
      </trkpt>
      <trkpt lat="45.69439" lon="6.7157">
        <ele>1813.8</ele>
        <time>2022-06-15T08:17:07Z</time>
      </trkpt>
      <trkpt lat="45.69439" lon="6.71566">
        <ele>1813.8</ele>
        <time>2022-06-15T08:17:08Z</time>
      </trkpt>
      <trkpt lat="45.6944" lon="6.71563">
        <ele>1813.9</ele>
        <time>2022-06-15T08:17:09Z</time>
      </trkpt>
      <trkpt lat="45.69441" lon="6.7156">
        <ele>1814</ele>
        <time>2022-06-15T08:17:10Z</time>
      </trkpt>
      <trkpt lat="45.69442" lon="6.71557">
        <ele>1814.1</ele>
        <time>2022-06-15T08:17:11Z</time>
      </trkpt>
      <trkpt lat="45.69443" lon="6.71553">
        <ele>1814.4</ele>
        <time>2022-06-15T08:17:12Z</time>
      </trkpt>
      <trkpt lat="45.69444" lon="6.7155">
        <ele>1814.7</ele>
        <time>2022-06-15T08:17:13Z</time>
      </trkpt>
      <trkpt lat="45.69445" lon="6.71547">
        <ele>1814.9</ele>
        <time>2022-06-15T08:17:14Z</time>
      </trkpt>
      <trkpt lat="45.69446" lon="6.71543">
        <ele>1815.1</ele>
        <time>2022-06-15T08:17:15Z</time>
      </trkpt>
      <trkpt lat="45.69447" lon="6.7154">
        <ele>1815.2</ele>
        <time>2022-06-15T08:17:16Z</time>
      </trkpt>
      <trkpt lat="45.69447" lon="6.71536">
        <ele>1815.3</ele>
        <time>2022-06-15T08:17:17Z</time>
      </trkpt>
      <trkpt lat="45.69448" lon="6.71532">
        <ele>1815.5</ele>
        <time>2022-06-15T08:17:18Z</time>
      </trkpt>
      <trkpt lat="45.69448" lon="6.71529">
        <ele>1815.7</ele>
        <time>2022-06-15T08:17:19Z</time>
      </trkpt>
      <trkpt lat="45.69449" lon="6.71525">
        <ele>1816</ele>
        <time>2022-06-15T08:17:20Z</time>
      </trkpt>
      <trkpt lat="45.69449" lon="6.71521">
        <ele>1816.4</ele>
        <time>2022-06-15T08:17:21Z</time>
      </trkpt>
      <trkpt lat="45.6945" lon="6.71518">
        <ele>1816.8</ele>
        <time>2022-06-15T08:17:22Z</time>
      </trkpt>
      <trkpt lat="45.69451" lon="6.71515">
        <ele>1817.2</ele>
        <time>2022-06-15T08:17:23Z</time>
      </trkpt>
      <trkpt lat="45.69451" lon="6.71511">
        <ele>1817.6</ele>
        <time>2022-06-15T08:17:24Z</time>
      </trkpt>
      <trkpt lat="45.69451" lon="6.71507">
        <ele>1817.8</ele>
        <time>2022-06-15T08:17:25Z</time>
      </trkpt>
      <trkpt lat="45.69451" lon="6.71504">
        <ele>1817.9</ele>
        <time>2022-06-15T08:17:26Z</time>
      </trkpt>
      <trkpt lat="45.69451" lon="6.715">
        <ele>1818</ele>
        <time>2022-06-15T08:17:27Z</time>
      </trkpt>
      <trkpt lat="45.69451" lon="6.71496">
        <ele>1818</ele>
        <time>2022-06-15T08:17:28Z</time>
      </trkpt>
      <trkpt lat="45.69451" lon="6.71491">
        <ele>1818.1</ele>
        <time>2022-06-15T08:17:29Z</time>
      </trkpt>
      <trkpt lat="45.69451" lon="6.71487">
        <ele>1818</ele>
        <time>2022-06-15T08:17:30Z</time>
      </trkpt>
      <trkpt lat="45.69451" lon="6.71483">
        <ele>1817.9</ele>
        <time>2022-06-15T08:17:31Z</time>
      </trkpt>
      <trkpt lat="45.6945" lon="6.71478">
        <ele>1817.8</ele>
        <time>2022-06-15T08:17:32Z</time>
      </trkpt>
      <trkpt lat="45.6945" lon="6.71474">
        <ele>1817.6</ele>
        <time>2022-06-15T08:17:33Z</time>
      </trkpt>
      <trkpt lat="45.69449" lon="6.7147">
        <ele>1817.6</ele>
        <time>2022-06-15T08:17:34Z</time>
      </trkpt>
      <trkpt lat="45.69449" lon="6.71466">
        <ele>1817.5</ele>
        <time>2022-06-15T08:17:35Z</time>
      </trkpt>
      <trkpt lat="45.69448" lon="6.71462">
        <ele>1817.5</ele>
        <time>2022-06-15T08:17:36Z</time>
      </trkpt>
      <trkpt lat="45.69447" lon="6.71458">
        <ele>1817.4</ele>
        <time>2022-06-15T08:17:37Z</time>
      </trkpt>
      <trkpt lat="45.69446" lon="6.71454">
        <ele>1817.3</ele>
        <time>2022-06-15T08:17:38Z</time>
      </trkpt>
      <trkpt lat="45.69445" lon="6.7145">
        <ele>1817.1</ele>
        <time>2022-06-15T08:17:39Z</time>
      </trkpt>
      <trkpt lat="45.69445" lon="6.71447">
        <ele>1816.9</ele>
        <time>2022-06-15T08:17:40Z</time>
      </trkpt>
      <trkpt lat="45.69444" lon="6.71443">
        <ele>1816.9</ele>
        <time>2022-06-15T08:17:41Z</time>
      </trkpt>
      <trkpt lat="45.69443" lon="6.71439">
        <ele>1817</ele>
        <time>2022-06-15T08:17:42Z</time>
      </trkpt>
      <trkpt lat="45.69442" lon="6.71435">
        <ele>1817.1</ele>
        <time>2022-06-15T08:17:43Z</time>
      </trkpt>
      <trkpt lat="45.69441" lon="6.71432">
        <ele>1817.3</ele>
        <time>2022-06-15T08:17:44Z</time>
      </trkpt>
      <trkpt lat="45.6944" lon="6.71428">
        <ele>1817.4</ele>
        <time>2022-06-15T08:17:45Z</time>
      </trkpt>
      <trkpt lat="45.69439" lon="6.71424">
        <ele>1817.7</ele>
        <time>2022-06-15T08:17:46Z</time>
      </trkpt>
      <trkpt lat="45.69438" lon="6.71421">
        <ele>1817.9</ele>
        <time>2022-06-15T08:17:47Z</time>
      </trkpt>
      <trkpt lat="45.69437" lon="6.71417">
        <ele>1818.1</ele>
        <time>2022-06-15T08:17:48Z</time>
      </trkpt>
      <trkpt lat="45.69435" lon="6.71414">
        <ele>1818.4</ele>
        <time>2022-06-15T08:17:49Z</time>
      </trkpt>
      <trkpt lat="45.69434" lon="6.7141">
        <ele>1818.7</ele>
        <time>2022-06-15T08:17:50Z</time>
      </trkpt>
      <trkpt lat="45.69433" lon="6.71407">
        <ele>1819</ele>
        <time>2022-06-15T08:17:51Z</time>
      </trkpt>
      <trkpt lat="45.69432" lon="6.71403">
        <ele>1819.3</ele>
        <time>2022-06-15T08:17:52Z</time>
      </trkpt>
      <trkpt lat="45.69431" lon="6.714">
        <ele>1819.7</ele>
        <time>2022-06-15T08:17:53Z</time>
      </trkpt>
      <trkpt lat="45.6943" lon="6.71396">
        <ele>1820</ele>
        <time>2022-06-15T08:17:54Z</time>
      </trkpt>
      <trkpt lat="45.69429" lon="6.71392">
        <ele>1820.3</ele>
        <time>2022-06-15T08:17:55Z</time>
      </trkpt>
      <trkpt lat="45.69428" lon="6.71389">
        <ele>1820.6</ele>
        <time>2022-06-15T08:17:56Z</time>
      </trkpt>
      <trkpt lat="45.69426" lon="6.71385">
        <ele>1820.6</ele>
        <time>2022-06-15T08:17:57Z</time>
      </trkpt>
      <trkpt lat="45.69425" lon="6.71382">
        <ele>1820.6</ele>
        <time>2022-06-15T08:17:58Z</time>
      </trkpt>
      <trkpt lat="45.69424" lon="6.71379">
        <ele>1820.7</ele>
        <time>2022-06-15T08:17:59Z</time>
      </trkpt>
      <trkpt lat="45.69423" lon="6.71375">
        <ele>1820.8</ele>
        <time>2022-06-15T08:18:00Z</time>
      </trkpt>
      <trkpt lat="45.69422" lon="6.71371">
        <ele>1820.9</ele>
        <time>2022-06-15T08:18:01Z</time>
      </trkpt>
      <trkpt lat="45.69421" lon="6.71368">
        <ele>1821</ele>
        <time>2022-06-15T08:18:02Z</time>
      </trkpt>
      <trkpt lat="45.69419" lon="6.71365">
        <ele>1821.1</ele>
        <time>2022-06-15T08:18:03Z</time>
      </trkpt>
      <trkpt lat="45.69418" lon="6.71361">
        <ele>1821.1</ele>
        <time>2022-06-15T08:18:04Z</time>
      </trkpt>
      <trkpt lat="45.69417" lon="6.71358">
        <ele>1821.3</ele>
        <time>2022-06-15T08:18:05Z</time>
      </trkpt>
      <trkpt lat="45.69415" lon="6.71354">
        <ele>1821.5</ele>
        <time>2022-06-15T08:18:06Z</time>
      </trkpt>
      <trkpt lat="45.69414" lon="6.71351">
        <ele>1821.8</ele>
        <time>2022-06-15T08:18:07Z</time>
      </trkpt>
      <trkpt lat="45.69413" lon="6.71348">
        <ele>1822.1</ele>
        <time>2022-06-15T08:18:08Z</time>
      </trkpt>
      <trkpt lat="45.69412" lon="6.71344">
        <ele>1822.4</ele>
        <time>2022-06-15T08:18:09Z</time>
      </trkpt>
      <trkpt lat="45.69411" lon="6.71341">
        <ele>1822.7</ele>
        <time>2022-06-15T08:18:10Z</time>
      </trkpt>
      <trkpt lat="45.6941" lon="6.71337">
        <ele>1823</ele>
        <time>2022-06-15T08:18:11Z</time>
      </trkpt>
      <trkpt lat="45.69408" lon="6.71334">
        <ele>1823.3</ele>
        <time>2022-06-15T08:18:12Z</time>
      </trkpt>
      <trkpt lat="45.69407" lon="6.7133">
        <ele>1823.5</ele>
        <time>2022-06-15T08:18:13Z</time>
      </trkpt>
      <trkpt lat="45.69406" lon="6.71327">
        <ele>1823.8</ele>
        <time>2022-06-15T08:18:14Z</time>
      </trkpt>
      <trkpt lat="45.69405" lon="6.71323">
        <ele>1824</ele>
        <time>2022-06-15T08:18:15Z</time>
      </trkpt>
      <trkpt lat="45.69404" lon="6.7132">
        <ele>1824.2</ele>
        <time>2022-06-15T08:18:16Z</time>
      </trkpt>
      <trkpt lat="45.69403" lon="6.71316">
        <ele>1824.4</ele>
        <time>2022-06-15T08:18:17Z</time>
      </trkpt>
      <trkpt lat="45.69402" lon="6.71313">
        <ele>1824.6</ele>
        <time>2022-06-15T08:18:18Z</time>
      </trkpt>
      <trkpt lat="45.69401" lon="6.71309">
        <ele>1824.8</ele>
        <time>2022-06-15T08:18:19Z</time>
      </trkpt>
      <trkpt lat="45.69401" lon="6.71305">
        <ele>1825</ele>
        <time>2022-06-15T08:18:20Z</time>
      </trkpt>
      <trkpt lat="45.694" lon="6.71302">
        <ele>1825.2</ele>
        <time>2022-06-15T08:18:21Z</time>
      </trkpt>
      <trkpt lat="45.69399" lon="6.71298">
        <ele>1825.4</ele>
        <time>2022-06-15T08:18:22Z</time>
      </trkpt>
      <trkpt lat="45.69398" lon="6.71295">
        <ele>1825.5</ele>
        <time>2022-06-15T08:18:23Z</time>
      </trkpt>
      <trkpt lat="45.69398" lon="6.71291">
        <ele>1825.7</ele>
        <time>2022-06-15T08:18:24Z</time>
      </trkpt>
      <trkpt lat="45.69397" lon="6.71288">
        <ele>1825.8</ele>
        <time>2022-06-15T08:18:25Z</time>
      </trkpt>
      <trkpt lat="45.69396" lon="6.71285">
        <ele>1825.9</ele>
        <time>2022-06-15T08:18:26Z</time>
      </trkpt>
      <trkpt lat="45.69396" lon="6.71282">
        <ele>1826.1</ele>
        <time>2022-06-15T08:18:27Z</time>
      </trkpt>
      <trkpt lat="45.69395" lon="6.71279">
        <ele>1826.2</ele>
        <time>2022-06-15T08:18:28Z</time>
      </trkpt>
      <trkpt lat="45.69395" lon="6.71275">
        <ele>1826.3</ele>
        <time>2022-06-15T08:18:29Z</time>
      </trkpt>
      <trkpt lat="45.69394" lon="6.71272">
        <ele>1826.3</ele>
        <time>2022-06-15T08:18:30Z</time>
      </trkpt>
      <trkpt lat="45.69394" lon="6.71269">
        <ele>1826.4</ele>
        <time>2022-06-15T08:18:31Z</time>
      </trkpt>
      <trkpt lat="45.69393" lon="6.71266">
        <ele>1826.5</ele>
        <time>2022-06-15T08:18:32Z</time>
      </trkpt>
      <trkpt lat="45.69393" lon="6.71262">
        <ele>1826.6</ele>
        <time>2022-06-15T08:18:33Z</time>
      </trkpt>
      <trkpt lat="45.69393" lon="6.71259">
        <ele>1826.7</ele>
        <time>2022-06-15T08:18:34Z</time>
      </trkpt>
      <trkpt lat="45.69392" lon="6.71256">
        <ele>1826.8</ele>
        <time>2022-06-15T08:18:35Z</time>
      </trkpt>
      <trkpt lat="45.69392" lon="6.71252">
        <ele>1826.9</ele>
        <time>2022-06-15T08:18:36Z</time>
      </trkpt>
      <trkpt lat="45.69391" lon="6.71249">
        <ele>1827</ele>
        <time>2022-06-15T08:18:37Z</time>
      </trkpt>
      <trkpt lat="45.69391" lon="6.71246">
        <ele>1827.2</ele>
        <time>2022-06-15T08:18:38Z</time>
      </trkpt>
      <trkpt lat="45.69391" lon="6.71242">
        <ele>1827.3</ele>
        <time>2022-06-15T08:18:39Z</time>
      </trkpt>
      <trkpt lat="45.6939" lon="6.71239">
        <ele>1827.4</ele>
        <time>2022-06-15T08:18:40Z</time>
      </trkpt>
      <trkpt lat="45.6939" lon="6.71236">
        <ele>1827.5</ele>
        <time>2022-06-15T08:18:41Z</time>
      </trkpt>
      <trkpt lat="45.69389" lon="6.71232">
        <ele>1827.6</ele>
        <time>2022-06-15T08:18:42Z</time>
      </trkpt>
      <trkpt lat="45.69389" lon="6.71229">
        <ele>1827.8</ele>
        <time>2022-06-15T08:18:43Z</time>
      </trkpt>
      <trkpt lat="45.69389" lon="6.71226">
        <ele>1827.9</ele>
        <time>2022-06-15T08:18:44Z</time>
      </trkpt>
      <trkpt lat="45.69388" lon="6.71222">
        <ele>1828</ele>
        <time>2022-06-15T08:18:45Z</time>
      </trkpt>
      <trkpt lat="45.69387" lon="6.71219">
        <ele>1828.1</ele>
        <time>2022-06-15T08:18:46Z</time>
      </trkpt>
      <trkpt lat="45.69387" lon="6.71216">
        <ele>1828.2</ele>
        <time>2022-06-15T08:18:47Z</time>
      </trkpt>
      <trkpt lat="45.69386" lon="6.71212">
        <ele>1828.3</ele>
        <time>2022-06-15T08:18:48Z</time>
      </trkpt>
      <trkpt lat="45.69386" lon="6.71209">
        <ele>1828.4</ele>
        <time>2022-06-15T08:18:49Z</time>
      </trkpt>
      <trkpt lat="45.69386" lon="6.71206">
        <ele>1828.6</ele>
        <time>2022-06-15T08:18:50Z</time>
      </trkpt>
      <trkpt lat="45.69386" lon="6.71203">
        <ele>1828.7</ele>
        <time>2022-06-15T08:18:51Z</time>
      </trkpt>
      <trkpt lat="45.69386" lon="6.71199">
        <ele>1828.8</ele>
        <time>2022-06-15T08:18:52Z</time>
      </trkpt>
      <trkpt lat="45.69385" lon="6.71196">
        <ele>1828.9</ele>
        <time>2022-06-15T08:18:53Z</time>
      </trkpt>
      <trkpt lat="45.69385" lon="6.71193">
        <ele>1829.1</ele>
        <time>2022-06-15T08:18:54Z</time>
      </trkpt>
      <trkpt lat="45.69384" lon="6.71189">
        <ele>1829.2</ele>
        <time>2022-06-15T08:18:55Z</time>
      </trkpt>
      <trkpt lat="45.69383" lon="6.71186">
        <ele>1829.4</ele>
        <time>2022-06-15T08:18:56Z</time>
      </trkpt>
      <trkpt lat="45.69383" lon="6.71183">
        <ele>1829.5</ele>
        <time>2022-06-15T08:18:57Z</time>
      </trkpt>
      <trkpt lat="45.69383" lon="6.7118">
        <ele>1829.7</ele>
        <time>2022-06-15T08:18:58Z</time>
      </trkpt>
      <trkpt lat="45.69382" lon="6.71177">
        <ele>1829.8</ele>
        <time>2022-06-15T08:18:59Z</time>
      </trkpt>
      <trkpt lat="45.69382" lon="6.71174">
        <ele>1829.9</ele>
        <time>2022-06-15T08:19:00Z</time>
      </trkpt>
      <trkpt lat="45.69382" lon="6.7117">
        <ele>1830.1</ele>
        <time>2022-06-15T08:19:01Z</time>
      </trkpt>
      <trkpt lat="45.69381" lon="6.71167">
        <ele>1830.3</ele>
        <time>2022-06-15T08:19:02Z</time>
      </trkpt>
      <trkpt lat="45.69381" lon="6.71164">
        <ele>1830.4</ele>
        <time>2022-06-15T08:19:03Z</time>
      </trkpt>
      <trkpt lat="45.6938" lon="6.71161">
        <ele>1830.5</ele>
        <time>2022-06-15T08:19:04Z</time>
      </trkpt>
      <trkpt lat="45.6938" lon="6.71158">
        <ele>1830.7</ele>
        <time>2022-06-15T08:19:05Z</time>
      </trkpt>
      <trkpt lat="45.69379" lon="6.71154">
        <ele>1830.8</ele>
        <time>2022-06-15T08:19:06Z</time>
      </trkpt>
      <trkpt lat="45.69379" lon="6.71151">
        <ele>1830.9</ele>
        <time>2022-06-15T08:19:07Z</time>
      </trkpt>
      <trkpt lat="45.69379" lon="6.71148">
        <ele>1831</ele>
        <time>2022-06-15T08:19:08Z</time>
      </trkpt>
      <trkpt lat="45.69378" lon="6.71145">
        <ele>1831.2</ele>
        <time>2022-06-15T08:19:09Z</time>
      </trkpt>
      <trkpt lat="45.69378" lon="6.71141">
        <ele>1831.3</ele>
        <time>2022-06-15T08:19:10Z</time>
      </trkpt>
      <trkpt lat="45.69377" lon="6.71138">
        <ele>1831.5</ele>
        <time>2022-06-15T08:19:11Z</time>
      </trkpt>
      <trkpt lat="45.69377" lon="6.71135">
        <ele>1831.7</ele>
        <time>2022-06-15T08:19:12Z</time>
      </trkpt>
      <trkpt lat="45.69377" lon="6.71132">
        <ele>1831.8</ele>
        <time>2022-06-15T08:19:13Z</time>
      </trkpt>
      <trkpt lat="45.69376" lon="6.71129">
        <ele>1832</ele>
        <time>2022-06-15T08:19:14Z</time>
      </trkpt>
      <trkpt lat="45.69376" lon="6.71126">
        <ele>1832.2</ele>
        <time>2022-06-15T08:19:15Z</time>
      </trkpt>
      <trkpt lat="45.69376" lon="6.71123">
        <ele>1832.4</ele>
        <time>2022-06-15T08:19:16Z</time>
      </trkpt>
      <trkpt lat="45.69375" lon="6.71119">
        <ele>1832.6</ele>
        <time>2022-06-15T08:19:17Z</time>
      </trkpt>
      <trkpt lat="45.69375" lon="6.71116">
        <ele>1832.7</ele>
        <time>2022-06-15T08:19:18Z</time>
      </trkpt>
      <trkpt lat="45.69375" lon="6.71113">
        <ele>1832.9</ele>
        <time>2022-06-15T08:19:19Z</time>
      </trkpt>
      <trkpt lat="45.69375" lon="6.7111">
        <ele>1833.1</ele>
        <time>2022-06-15T08:19:20Z</time>
      </trkpt>
      <trkpt lat="45.69375" lon="6.71107">
        <ele>1833.3</ele>
        <time>2022-06-15T08:19:21Z</time>
      </trkpt>
      <trkpt lat="45.69375" lon="6.71104">
        <ele>1833.5</ele>
        <time>2022-06-15T08:19:22Z</time>
      </trkpt>
      <trkpt lat="45.69375" lon="6.71101">
        <ele>1833.8</ele>
        <time>2022-06-15T08:19:23Z</time>
      </trkpt>
      <trkpt lat="45.69374" lon="6.71097">
        <ele>1834</ele>
        <time>2022-06-15T08:19:24Z</time>
      </trkpt>
      <trkpt lat="45.69374" lon="6.71094">
        <ele>1834.2</ele>
        <time>2022-06-15T08:19:25Z</time>
      </trkpt>
      <trkpt lat="45.69373" lon="6.7109">
        <ele>1834.5</ele>
        <time>2022-06-15T08:19:26Z</time>
      </trkpt>
      <trkpt lat="45.69372" lon="6.71087">
        <ele>1834.8</ele>
        <time>2022-06-15T08:19:27Z</time>
      </trkpt>
      <trkpt lat="45.69372" lon="6.71083">
        <ele>1835</ele>
        <time>2022-06-15T08:19:28Z</time>
      </trkpt>
      <trkpt lat="45.69372" lon="6.71079">
        <ele>1835.2</ele>
        <time>2022-06-15T08:19:29Z</time>
      </trkpt>
      <trkpt lat="45.69372" lon="6.71075">
        <ele>1835.4</ele>
        <time>2022-06-15T08:19:30Z</time>
      </trkpt>
      <trkpt lat="45.69371" lon="6.7107">
        <ele>1835.6</ele>
        <time>2022-06-15T08:19:31Z</time>
      </trkpt>
      <trkpt lat="45.6937" lon="6.71067">
        <ele>1835.8</ele>
        <time>2022-06-15T08:19:32Z</time>
      </trkpt>
      <trkpt lat="45.69369" lon="6.71064">
        <ele>1835.9</ele>
        <time>2022-06-15T08:19:33Z</time>
      </trkpt>
      <trkpt lat="45.69369" lon="6.7106">
        <ele>1836.1</ele>
        <time>2022-06-15T08:19:34Z</time>
      </trkpt>
      <trkpt lat="45.69369" lon="6.71056">
        <ele>1836.3</ele>
        <time>2022-06-15T08:19:35Z</time>
      </trkpt>
      <trkpt lat="45.69369" lon="6.71053">
        <ele>1836.5</ele>
        <time>2022-06-15T08:19:36Z</time>
      </trkpt>
      <trkpt lat="45.6937" lon="6.71049">
        <ele>1836.7</ele>
        <time>2022-06-15T08:19:37Z</time>
      </trkpt>
      <trkpt lat="45.6937" lon="6.71046">
        <ele>1836.9</ele>
        <time>2022-06-15T08:19:38Z</time>
      </trkpt>
      <trkpt lat="45.69369" lon="6.71042">
        <ele>1837.1</ele>
        <time>2022-06-15T08:19:39Z</time>
      </trkpt>
      <trkpt lat="45.69369" lon="6.71039">
        <ele>1837.3</ele>
        <time>2022-06-15T08:19:40Z</time>
      </trkpt>
      <trkpt lat="45.69369" lon="6.71035">
        <ele>1837.6</ele>
        <time>2022-06-15T08:19:41Z</time>
      </trkpt>
      <trkpt lat="45.69369" lon="6.71031">
        <ele>1837.8</ele>
        <time>2022-06-15T08:19:42Z</time>
      </trkpt>
      <trkpt lat="45.69368" lon="6.71027">
        <ele>1838.1</ele>
        <time>2022-06-15T08:19:43Z</time>
      </trkpt>
      <trkpt lat="45.69368" lon="6.71022">
        <ele>1838.4</ele>
        <time>2022-06-15T08:19:44Z</time>
      </trkpt>
      <trkpt lat="45.69368" lon="6.71019">
        <ele>1838.6</ele>
        <time>2022-06-15T08:19:45Z</time>
      </trkpt>
      <trkpt lat="45.69367" lon="6.71016">
        <ele>1838.8</ele>
        <time>2022-06-15T08:19:46Z</time>
      </trkpt>
      <trkpt lat="45.69366" lon="6.71013">
        <ele>1839</ele>
        <time>2022-06-15T08:19:47Z</time>
      </trkpt>
      <trkpt lat="45.69366" lon="6.71011">
        <ele>1839.1</ele>
        <time>2022-06-15T08:19:48Z</time>
      </trkpt>
      <trkpt lat="45.69365" lon="6.71008">
        <ele>1839.3</ele>
        <time>2022-06-15T08:19:49Z</time>
      </trkpt>
      <trkpt lat="45.69364" lon="6.71005">
        <ele>1839.6</ele>
        <time>2022-06-15T08:19:50Z</time>
      </trkpt>
      <trkpt lat="45.69364" lon="6.71001">
        <ele>1839.8</ele>
        <time>2022-06-15T08:19:51Z</time>
      </trkpt>
      <trkpt lat="45.69363" lon="6.70998">
        <ele>1840</ele>
        <time>2022-06-15T08:19:52Z</time>
      </trkpt>
      <trkpt lat="45.69363" lon="6.70995">
        <ele>1840.1</ele>
        <time>2022-06-15T08:19:53Z</time>
      </trkpt>
      <trkpt lat="45.69363" lon="6.70992">
        <ele>1840.3</ele>
        <time>2022-06-15T08:19:54Z</time>
      </trkpt>
      <trkpt lat="45.69362" lon="6.70988">
        <ele>1840.4</ele>
        <time>2022-06-15T08:19:55Z</time>
      </trkpt>
      <trkpt lat="45.69362" lon="6.70985">
        <ele>1840.5</ele>
        <time>2022-06-15T08:19:56Z</time>
      </trkpt>
      <trkpt lat="45.69361" lon="6.70982">
        <ele>1840.6</ele>
        <time>2022-06-15T08:19:57Z</time>
      </trkpt>
      <trkpt lat="45.69361" lon="6.70979">
        <ele>1840.7</ele>
        <time>2022-06-15T08:19:58Z</time>
      </trkpt>
      <trkpt lat="45.6936" lon="6.70976">
        <ele>1840.8</ele>
        <time>2022-06-15T08:19:59Z</time>
      </trkpt>
      <trkpt lat="45.6936" lon="6.70972">
        <ele>1841</ele>
        <time>2022-06-15T08:20:00Z</time>
      </trkpt>
      <trkpt lat="45.6936" lon="6.70969">
        <ele>1841.1</ele>
        <time>2022-06-15T08:20:01Z</time>
      </trkpt>
      <trkpt lat="45.69359" lon="6.70966">
        <ele>1841.2</ele>
        <time>2022-06-15T08:20:02Z</time>
      </trkpt>
      <trkpt lat="45.69359" lon="6.70962">
        <ele>1841.3</ele>
        <time>2022-06-15T08:20:03Z</time>
      </trkpt>
      <trkpt lat="45.69359" lon="6.70959">
        <ele>1841.4</ele>
        <time>2022-06-15T08:20:04Z</time>
      </trkpt>
      <trkpt lat="45.69358" lon="6.70956">
        <ele>1841.5</ele>
        <time>2022-06-15T08:20:05Z</time>
      </trkpt>
      <trkpt lat="45.69357" lon="6.70953">
        <ele>1841.6</ele>
        <time>2022-06-15T08:20:06Z</time>
      </trkpt>
      <trkpt lat="45.69357" lon="6.7095">
        <ele>1841.7</ele>
        <time>2022-06-15T08:20:07Z</time>
      </trkpt>
      <trkpt lat="45.69357" lon="6.70947">
        <ele>1841.8</ele>
        <time>2022-06-15T08:20:08Z</time>
      </trkpt>
      <trkpt lat="45.69356" lon="6.70944">
        <ele>1841.9</ele>
        <time>2022-06-15T08:20:09Z</time>
      </trkpt>
      <trkpt lat="45.69356" lon="6.7094">
        <ele>1842.1</ele>
        <time>2022-06-15T08:20:10Z</time>
      </trkpt>
      <trkpt lat="45.69355" lon="6.70937">
        <ele>1842.3</ele>
        <time>2022-06-15T08:20:11Z</time>
      </trkpt>
      <trkpt lat="45.69355" lon="6.70934">
        <ele>1842.5</ele>
        <time>2022-06-15T08:20:12Z</time>
      </trkpt>
      <trkpt lat="45.69354" lon="6.70931">
        <ele>1842.6</ele>
        <time>2022-06-15T08:20:13Z</time>
      </trkpt>
      <trkpt lat="45.69354" lon="6.70927">
        <ele>1842.8</ele>
        <time>2022-06-15T08:20:14Z</time>
      </trkpt>
      <trkpt lat="45.69354" lon="6.70924">
        <ele>1843</ele>
        <time>2022-06-15T08:20:15Z</time>
      </trkpt>
      <trkpt lat="45.69353" lon="6.70921">
        <ele>1843.2</ele>
        <time>2022-06-15T08:20:16Z</time>
      </trkpt>
      <trkpt lat="45.69353" lon="6.70918">
        <ele>1843.3</ele>
        <time>2022-06-15T08:20:17Z</time>
      </trkpt>
      <trkpt lat="45.69353" lon="6.70915">
        <ele>1843.6</ele>
        <time>2022-06-15T08:20:18Z</time>
      </trkpt>
      <trkpt lat="45.69353" lon="6.70912">
        <ele>1843.9</ele>
        <time>2022-06-15T08:20:19Z</time>
      </trkpt>
      <trkpt lat="45.69352" lon="6.70908">
        <ele>1844.3</ele>
        <time>2022-06-15T08:20:20Z</time>
      </trkpt>
      <trkpt lat="45.69352" lon="6.70905">
        <ele>1844.6</ele>
        <time>2022-06-15T08:20:21Z</time>
      </trkpt>
      <trkpt lat="45.69352" lon="6.70902">
        <ele>1844.9</ele>
        <time>2022-06-15T08:20:22Z</time>
      </trkpt>
      <trkpt lat="45.69351" lon="6.70899">
        <ele>1845.2</ele>
        <time>2022-06-15T08:20:23Z</time>
      </trkpt>
      <trkpt lat="45.69351" lon="6.70896">
        <ele>1845.5</ele>
        <time>2022-06-15T08:20:24Z</time>
      </trkpt>
      <trkpt lat="45.6935" lon="6.70893">
        <ele>1845.8</ele>
        <time>2022-06-15T08:20:25Z</time>
      </trkpt>
      <trkpt lat="45.69349" lon="6.7089">
        <ele>1846.1</ele>
        <time>2022-06-15T08:20:26Z</time>
      </trkpt>
      <trkpt lat="45.69349" lon="6.70887">
        <ele>1846.4</ele>
        <time>2022-06-15T08:20:27Z</time>
      </trkpt>
      <trkpt lat="45.69348" lon="6.70884">
        <ele>1846.7</ele>
        <time>2022-06-15T08:20:28Z</time>
      </trkpt>
      <trkpt lat="45.69348" lon="6.70881">
        <ele>1847</ele>
        <time>2022-06-15T08:20:29Z</time>
      </trkpt>
      <trkpt lat="45.69348" lon="6.70878">
        <ele>1847.3</ele>
        <time>2022-06-15T08:20:30Z</time>
      </trkpt>
      <trkpt lat="45.69347" lon="6.70874">
        <ele>1847.6</ele>
        <time>2022-06-15T08:20:31Z</time>
      </trkpt>
      <trkpt lat="45.69347" lon="6.70871">
        <ele>1847.9</ele>
        <time>2022-06-15T08:20:32Z</time>
      </trkpt>
      <trkpt lat="45.69347" lon="6.70868">
        <ele>1848.2</ele>
        <time>2022-06-15T08:20:33Z</time>
      </trkpt>
      <trkpt lat="45.69347" lon="6.70865">
        <ele>1848.5</ele>
        <time>2022-06-15T08:20:34Z</time>
      </trkpt>
      <trkpt lat="45.69346" lon="6.70862">
        <ele>1848.8</ele>
        <time>2022-06-15T08:20:35Z</time>
      </trkpt>
      <trkpt lat="45.69346" lon="6.70859">
        <ele>1849.1</ele>
        <time>2022-06-15T08:20:36Z</time>
      </trkpt>
      <trkpt lat="45.69345" lon="6.70856">
        <ele>1849.4</ele>
        <time>2022-06-15T08:20:37Z</time>
      </trkpt>
      <trkpt lat="45.69345" lon="6.70852">
        <ele>1849.6</ele>
        <time>2022-06-15T08:20:38Z</time>
      </trkpt>
      <trkpt lat="45.69344" lon="6.70849">
        <ele>1849.9</ele>
        <time>2022-06-15T08:20:39Z</time>
      </trkpt>
      <trkpt lat="45.69344" lon="6.70845">
        <ele>1850.2</ele>
        <time>2022-06-15T08:20:40Z</time>
      </trkpt>
      <trkpt lat="45.69344" lon="6.70842">
        <ele>1850.4</ele>
        <time>2022-06-15T08:20:41Z</time>
      </trkpt>
      <trkpt lat="45.69343" lon="6.70838">
        <ele>1850.6</ele>
        <time>2022-06-15T08:20:42Z</time>
      </trkpt>
      <trkpt lat="45.69343" lon="6.70835">
        <ele>1850.9</ele>
        <time>2022-06-15T08:20:43Z</time>
      </trkpt>
      <trkpt lat="45.69342" lon="6.70832">
        <ele>1851.1</ele>
        <time>2022-06-15T08:20:44Z</time>
      </trkpt>
      <trkpt lat="45.69342" lon="6.70829">
        <ele>1851.4</ele>
        <time>2022-06-15T08:20:45Z</time>
      </trkpt>
      <trkpt lat="45.69342" lon="6.70825">
        <ele>1851.7</ele>
        <time>2022-06-15T08:20:46Z</time>
      </trkpt>
      <trkpt lat="45.69341" lon="6.70822">
        <ele>1851.9</ele>
        <time>2022-06-15T08:20:47Z</time>
      </trkpt>
      <trkpt lat="45.69341" lon="6.70819">
        <ele>1852.2</ele>
        <time>2022-06-15T08:20:48Z</time>
      </trkpt>
      <trkpt lat="45.6934" lon="6.70816">
        <ele>1852.5</ele>
        <time>2022-06-15T08:20:49Z</time>
      </trkpt>
      <trkpt lat="45.6934" lon="6.70813">
        <ele>1852.8</ele>
        <time>2022-06-15T08:20:50Z</time>
      </trkpt>
      <trkpt lat="45.6934" lon="6.7081">
        <ele>1853</ele>
        <time>2022-06-15T08:20:51Z</time>
      </trkpt>
      <trkpt lat="45.69339" lon="6.70806">
        <ele>1853.4</ele>
        <time>2022-06-15T08:20:52Z</time>
      </trkpt>
      <trkpt lat="45.69339" lon="6.70803">
        <ele>1853.6</ele>
        <time>2022-06-15T08:20:53Z</time>
      </trkpt>
      <trkpt lat="45.69339" lon="6.708">
        <ele>1853.8</ele>
        <time>2022-06-15T08:20:54Z</time>
      </trkpt>
      <trkpt lat="45.69338" lon="6.70797">
        <ele>1853.9</ele>
        <time>2022-06-15T08:20:55Z</time>
      </trkpt>
      <trkpt lat="45.69338" lon="6.70794">
        <ele>1854.1</ele>
        <time>2022-06-15T08:20:56Z</time>
      </trkpt>
      <trkpt lat="45.69338" lon="6.7079">
        <ele>1854.3</ele>
        <time>2022-06-15T08:20:57Z</time>
      </trkpt>
      <trkpt lat="45.69338" lon="6.70787">
        <ele>1854.5</ele>
        <time>2022-06-15T08:20:58Z</time>
      </trkpt>
      <trkpt lat="45.69338" lon="6.70784">
        <ele>1854.7</ele>
        <time>2022-06-15T08:20:59Z</time>
      </trkpt>
      <trkpt lat="45.69337" lon="6.70781">
        <ele>1854.9</ele>
        <time>2022-06-15T08:21:00Z</time>
      </trkpt>
      <trkpt lat="45.69337" lon="6.70778">
        <ele>1855.1</ele>
        <time>2022-06-15T08:21:01Z</time>
      </trkpt>
      <trkpt lat="45.69336" lon="6.70774">
        <ele>1855.2</ele>
        <time>2022-06-15T08:21:02Z</time>
      </trkpt>
      <trkpt lat="45.69336" lon="6.70771">
        <ele>1855.4</ele>
        <time>2022-06-15T08:21:03Z</time>
      </trkpt>
      <trkpt lat="45.69335" lon="6.70768">
        <ele>1855.5</ele>
        <time>2022-06-15T08:21:04Z</time>
      </trkpt>
      <trkpt lat="45.69335" lon="6.70765">
        <ele>1855.6</ele>
        <time>2022-06-15T08:21:05Z</time>
      </trkpt>
      <trkpt lat="45.69334" lon="6.70762">
        <ele>1855.6</ele>
        <time>2022-06-15T08:21:06Z</time>
      </trkpt>
      <trkpt lat="45.69334" lon="6.70758">
        <ele>1855.7</ele>
        <time>2022-06-15T08:21:07Z</time>
      </trkpt>
      <trkpt lat="45.69333" lon="6.70755">
        <ele>1855.8</ele>
        <time>2022-06-15T08:21:08Z</time>
      </trkpt>
      <trkpt lat="45.69333" lon="6.70752">
        <ele>1855.9</ele>
        <time>2022-06-15T08:21:09Z</time>
      </trkpt>
      <trkpt lat="45.69332" lon="6.70749">
        <ele>1856.1</ele>
        <time>2022-06-15T08:21:10Z</time>
      </trkpt>
      <trkpt lat="45.69332" lon="6.70746">
        <ele>1856.3</ele>
        <time>2022-06-15T08:21:11Z</time>
      </trkpt>
      <trkpt lat="45.69332" lon="6.70742">
        <ele>1856.6</ele>
        <time>2022-06-15T08:21:12Z</time>
      </trkpt>
      <trkpt lat="45.69332" lon="6.70739">
        <ele>1856.8</ele>
        <time>2022-06-15T08:21:13Z</time>
      </trkpt>
      <trkpt lat="45.69331" lon="6.70736">
        <ele>1857.1</ele>
        <time>2022-06-15T08:21:14Z</time>
      </trkpt>
      <trkpt lat="45.69331" lon="6.70732">
        <ele>1857.3</ele>
        <time>2022-06-15T08:21:15Z</time>
      </trkpt>
      <trkpt lat="45.69331" lon="6.70729">
        <ele>1857.6</ele>
        <time>2022-06-15T08:21:16Z</time>
      </trkpt>
      <trkpt lat="45.6933" lon="6.70726">
        <ele>1857.9</ele>
        <time>2022-06-15T08:21:17Z</time>
      </trkpt>
      <trkpt lat="45.69329" lon="6.70722">
        <ele>1858.2</ele>
        <time>2022-06-15T08:21:18Z</time>
      </trkpt>
      <trkpt lat="45.69329" lon="6.70719">
        <ele>1858.6</ele>
        <time>2022-06-15T08:21:19Z</time>
      </trkpt>
      <trkpt lat="45.69329" lon="6.70715">
        <ele>1859</ele>
        <time>2022-06-15T08:21:20Z</time>
      </trkpt>
      <trkpt lat="45.69328" lon="6.70712">
        <ele>1859.5</ele>
        <time>2022-06-15T08:21:21Z</time>
      </trkpt>
      <trkpt lat="45.69328" lon="6.70709">
        <ele>1859.9</ele>
        <time>2022-06-15T08:21:22Z</time>
      </trkpt>
      <trkpt lat="45.69327" lon="6.70706">
        <ele>1860.2</ele>
        <time>2022-06-15T08:21:23Z</time>
      </trkpt>
      <trkpt lat="45.69327" lon="6.70703">
        <ele>1860.6</ele>
        <time>2022-06-15T08:21:24Z</time>
      </trkpt>
      <trkpt lat="45.69326" lon="6.70699">
        <ele>1861</ele>
        <time>2022-06-15T08:21:25Z</time>
      </trkpt>
      <trkpt lat="45.69326" lon="6.70696">
        <ele>1861.3</ele>
        <time>2022-06-15T08:21:26Z</time>
      </trkpt>
      <trkpt lat="45.69325" lon="6.70693">
        <ele>1861.5</ele>
        <time>2022-06-15T08:21:27Z</time>
      </trkpt>
      <trkpt lat="45.69325" lon="6.7069">
        <ele>1861.7</ele>
        <time>2022-06-15T08:21:28Z</time>
      </trkpt>
      <trkpt lat="45.69325" lon="6.70686">
        <ele>1861.9</ele>
        <time>2022-06-15T08:21:29Z</time>
      </trkpt>
      <trkpt lat="45.69325" lon="6.70683">
        <ele>1862.1</ele>
        <time>2022-06-15T08:21:30Z</time>
      </trkpt>
      <trkpt lat="45.69324" lon="6.7068">
        <ele>1862.2</ele>
        <time>2022-06-15T08:21:31Z</time>
      </trkpt>
      <trkpt lat="45.69324" lon="6.70677">
        <ele>1862.4</ele>
        <time>2022-06-15T08:21:32Z</time>
      </trkpt>
      <trkpt lat="45.69324" lon="6.70673">
        <ele>1862.6</ele>
        <time>2022-06-15T08:21:33Z</time>
      </trkpt>
      <trkpt lat="45.69323" lon="6.7067">
        <ele>1862.7</ele>
        <time>2022-06-15T08:21:34Z</time>
      </trkpt>
      <trkpt lat="45.69323" lon="6.70666">
        <ele>1862.9</ele>
        <time>2022-06-15T08:21:35Z</time>
      </trkpt>
      <trkpt lat="45.69323" lon="6.70663">
        <ele>1863</ele>
        <time>2022-06-15T08:21:36Z</time>
      </trkpt>
      <trkpt lat="45.69322" lon="6.70659">
        <ele>1863</ele>
        <time>2022-06-15T08:21:37Z</time>
      </trkpt>
      <trkpt lat="45.69321" lon="6.70656">
        <ele>1863.1</ele>
        <time>2022-06-15T08:21:38Z</time>
      </trkpt>
      <trkpt lat="45.69321" lon="6.70653">
        <ele>1863.2</ele>
        <time>2022-06-15T08:21:39Z</time>
      </trkpt>
      <trkpt lat="45.6932" lon="6.70649">
        <ele>1863.2</ele>
        <time>2022-06-15T08:21:40Z</time>
      </trkpt>
      <trkpt lat="45.6932" lon="6.70646">
        <ele>1863.3</ele>
        <time>2022-06-15T08:21:41Z</time>
      </trkpt>
      <trkpt lat="45.69319" lon="6.70643">
        <ele>1863.3</ele>
        <time>2022-06-15T08:21:42Z</time>
      </trkpt>
      <trkpt lat="45.69319" lon="6.7064">
        <ele>1863.4</ele>
        <time>2022-06-15T08:21:43Z</time>
      </trkpt>
      <trkpt lat="45.69318" lon="6.70636">
        <ele>1863.4</ele>
        <time>2022-06-15T08:21:44Z</time>
      </trkpt>
      <trkpt lat="45.69318" lon="6.70633">
        <ele>1863.4</ele>
        <time>2022-06-15T08:21:45Z</time>
      </trkpt>
      <trkpt lat="45.69318" lon="6.7063">
        <ele>1863.5</ele>
        <time>2022-06-15T08:21:46Z</time>
      </trkpt>
      <trkpt lat="45.69318" lon="6.70626">
        <ele>1863.6</ele>
        <time>2022-06-15T08:21:47Z</time>
      </trkpt>
      <trkpt lat="45.69317" lon="6.70623">
        <ele>1863.6</ele>
        <time>2022-06-15T08:21:48Z</time>
      </trkpt>
      <trkpt lat="45.69317" lon="6.70619">
        <ele>1863.6</ele>
        <time>2022-06-15T08:21:49Z</time>
      </trkpt>
      <trkpt lat="45.69316" lon="6.70616">
        <ele>1863.7</ele>
        <time>2022-06-15T08:21:50Z</time>
      </trkpt>
      <trkpt lat="45.69316" lon="6.70612">
        <ele>1863.7</ele>
        <time>2022-06-15T08:21:51Z</time>
      </trkpt>
      <trkpt lat="45.69316" lon="6.70609">
        <ele>1863.8</ele>
        <time>2022-06-15T08:21:52Z</time>
      </trkpt>
      <trkpt lat="45.69316" lon="6.70606">
        <ele>1863.8</ele>
        <time>2022-06-15T08:21:53Z</time>
      </trkpt>
      <trkpt lat="45.69315" lon="6.70602">
        <ele>1863.9</ele>
        <time>2022-06-15T08:21:54Z</time>
      </trkpt>
      <trkpt lat="45.69315" lon="6.70598">
        <ele>1864</ele>
        <time>2022-06-15T08:21:55Z</time>
      </trkpt>
      <trkpt lat="45.69314" lon="6.70595">
        <ele>1864</ele>
        <time>2022-06-15T08:21:56Z</time>
      </trkpt>
      <trkpt lat="45.69314" lon="6.70591">
        <ele>1864.1</ele>
        <time>2022-06-15T08:21:57Z</time>
      </trkpt>
      <trkpt lat="45.69313" lon="6.70588">
        <ele>1864.2</ele>
        <time>2022-06-15T08:21:58Z</time>
      </trkpt>
      <trkpt lat="45.69313" lon="6.70584">
        <ele>1864.3</ele>
        <time>2022-06-15T08:21:59Z</time>
      </trkpt>
      <trkpt lat="45.69313" lon="6.7058">
        <ele>1864.4</ele>
        <time>2022-06-15T08:22:00Z</time>
      </trkpt>
      <trkpt lat="45.69312" lon="6.70576">
        <ele>1864.6</ele>
        <time>2022-06-15T08:22:01Z</time>
      </trkpt>
      <trkpt lat="45.69312" lon="6.70572">
        <ele>1864.7</ele>
        <time>2022-06-15T08:22:02Z</time>
      </trkpt>
      <trkpt lat="45.69311" lon="6.70568">
        <ele>1864.9</ele>
        <time>2022-06-15T08:22:03Z</time>
      </trkpt>
      <trkpt lat="45.6931" lon="6.70564">
        <ele>1865</ele>
        <time>2022-06-15T08:22:04Z</time>
      </trkpt>
      <trkpt lat="45.6931" lon="6.7056">
        <ele>1865.1</ele>
        <time>2022-06-15T08:22:05Z</time>
      </trkpt>
      <trkpt lat="45.69309" lon="6.70556">
        <ele>1865.2</ele>
        <time>2022-06-15T08:22:06Z</time>
      </trkpt>
      <trkpt lat="45.69309" lon="6.70551">
        <ele>1865.4</ele>
        <time>2022-06-15T08:22:07Z</time>
      </trkpt>
      <trkpt lat="45.69308" lon="6.70547">
        <ele>1865.6</ele>
        <time>2022-06-15T08:22:08Z</time>
      </trkpt>
      <trkpt lat="45.69308" lon="6.70542">
        <ele>1865.8</ele>
        <time>2022-06-15T08:22:09Z</time>
      </trkpt>
      <trkpt lat="45.69307" lon="6.70538">
        <ele>1865.9</ele>
        <time>2022-06-15T08:22:10Z</time>
      </trkpt>
      <trkpt lat="45.69307" lon="6.70533">
        <ele>1866</ele>
        <time>2022-06-15T08:22:11Z</time>
      </trkpt>
      <trkpt lat="45.69306" lon="6.70529">
        <ele>1866.1</ele>
        <time>2022-06-15T08:22:12Z</time>
      </trkpt>
      <trkpt lat="45.69306" lon="6.70524">
        <ele>1866.2</ele>
        <time>2022-06-15T08:22:13Z</time>
      </trkpt>
      <trkpt lat="45.69305" lon="6.7052">
        <ele>1866.2</ele>
        <time>2022-06-15T08:22:14Z</time>
      </trkpt>
      <trkpt lat="45.69305" lon="6.70516">
        <ele>1866.4</ele>
        <time>2022-06-15T08:22:15Z</time>
      </trkpt>
      <trkpt lat="45.69304" lon="6.70512">
        <ele>1866.5</ele>
        <time>2022-06-15T08:22:16Z</time>
      </trkpt>
      <trkpt lat="45.69304" lon="6.70508">
        <ele>1866.6</ele>
        <time>2022-06-15T08:22:17Z</time>
      </trkpt>
      <trkpt lat="45.69303" lon="6.70504">
        <ele>1866.7</ele>
        <time>2022-06-15T08:22:18Z</time>
      </trkpt>
      <trkpt lat="45.69302" lon="6.705">
        <ele>1866.8</ele>
        <time>2022-06-15T08:22:19Z</time>
      </trkpt>
      <trkpt lat="45.69302" lon="6.70495">
        <ele>1866.9</ele>
        <time>2022-06-15T08:22:20Z</time>
      </trkpt>
      <trkpt lat="45.69302" lon="6.70491">
        <ele>1867</ele>
        <time>2022-06-15T08:22:21Z</time>
      </trkpt>
      <trkpt lat="45.69301" lon="6.70487">
        <ele>1867.1</ele>
        <time>2022-06-15T08:22:22Z</time>
      </trkpt>
      <trkpt lat="45.69301" lon="6.70483">
        <ele>1867.2</ele>
        <time>2022-06-15T08:22:23Z</time>
      </trkpt>
      <trkpt lat="45.693" lon="6.70479">
        <ele>1867.3</ele>
        <time>2022-06-15T08:22:24Z</time>
      </trkpt>
      <trkpt lat="45.69299" lon="6.70475">
        <ele>1867.4</ele>
        <time>2022-06-15T08:22:25Z</time>
      </trkpt>
      <trkpt lat="45.69299" lon="6.70472">
        <ele>1867.5</ele>
        <time>2022-06-15T08:22:26Z</time>
      </trkpt>
      <trkpt lat="45.69298" lon="6.70468">
        <ele>1867.6</ele>
        <time>2022-06-15T08:22:27Z</time>
      </trkpt>
      <trkpt lat="45.69297" lon="6.70464">
        <ele>1867.8</ele>
        <time>2022-06-15T08:22:28Z</time>
      </trkpt>
      <trkpt lat="45.69297" lon="6.7046">
        <ele>1867.9</ele>
        <time>2022-06-15T08:22:29Z</time>
      </trkpt>
      <trkpt lat="45.69296" lon="6.70456">
        <ele>1868.1</ele>
        <time>2022-06-15T08:22:30Z</time>
      </trkpt>
      <trkpt lat="45.69296" lon="6.70452">
        <ele>1868.3</ele>
        <time>2022-06-15T08:22:31Z</time>
      </trkpt>
      <trkpt lat="45.69295" lon="6.70448">
        <ele>1868.4</ele>
        <time>2022-06-15T08:22:32Z</time>
      </trkpt>
      <trkpt lat="45.69295" lon="6.70445">
        <ele>1868.6</ele>
        <time>2022-06-15T08:22:33Z</time>
      </trkpt>
      <trkpt lat="45.69294" lon="6.70441">
        <ele>1868.8</ele>
        <time>2022-06-15T08:22:34Z</time>
      </trkpt>
      <trkpt lat="45.69294" lon="6.70438">
        <ele>1868.9</ele>
        <time>2022-06-15T08:22:35Z</time>
      </trkpt>
      <trkpt lat="45.69293" lon="6.70434">
        <ele>1869.1</ele>
        <time>2022-06-15T08:22:36Z</time>
      </trkpt>
      <trkpt lat="45.69292" lon="6.7043">
        <ele>1869.3</ele>
        <time>2022-06-15T08:22:37Z</time>
      </trkpt>
      <trkpt lat="45.69292" lon="6.70427">
        <ele>1869.5</ele>
        <time>2022-06-15T08:22:38Z</time>
      </trkpt>
      <trkpt lat="45.69291" lon="6.70424">
        <ele>1869.6</ele>
        <time>2022-06-15T08:22:39Z</time>
      </trkpt>
      <trkpt lat="45.6929" lon="6.7042">
        <ele>1869.8</ele>
        <time>2022-06-15T08:22:40Z</time>
      </trkpt>
      <trkpt lat="45.69289" lon="6.70417">
        <ele>1870</ele>
        <time>2022-06-15T08:22:41Z</time>
      </trkpt>
      <trkpt lat="45.69288" lon="6.70414">
        <ele>1870.1</ele>
        <time>2022-06-15T08:22:42Z</time>
      </trkpt>
      <trkpt lat="45.69287" lon="6.70411">
        <ele>1870.2</ele>
        <time>2022-06-15T08:22:43Z</time>
      </trkpt>
      <trkpt lat="45.69286" lon="6.70408">
        <ele>1870.3</ele>
        <time>2022-06-15T08:22:44Z</time>
      </trkpt>
      <trkpt lat="45.69286" lon="6.70404">
        <ele>1870.4</ele>
        <time>2022-06-15T08:22:45Z</time>
      </trkpt>
      <trkpt lat="45.69285" lon="6.70401">
        <ele>1870.6</ele>
        <time>2022-06-15T08:22:46Z</time>
      </trkpt>
      <trkpt lat="45.69284" lon="6.70398">
        <ele>1870.7</ele>
        <time>2022-06-15T08:22:47Z</time>
      </trkpt>
      <trkpt lat="45.69283" lon="6.70395">
        <ele>1870.8</ele>
        <time>2022-06-15T08:22:48Z</time>
      </trkpt>
      <trkpt lat="45.69283" lon="6.70391">
        <ele>1870.9</ele>
        <time>2022-06-15T08:22:49Z</time>
      </trkpt>
      <trkpt lat="45.69281" lon="6.70388">
        <ele>1871</ele>
        <time>2022-06-15T08:22:50Z</time>
      </trkpt>
      <trkpt lat="45.6928" lon="6.70385">
        <ele>1871.1</ele>
        <time>2022-06-15T08:22:51Z</time>
      </trkpt>
      <trkpt lat="45.69279" lon="6.70382">
        <ele>1871.2</ele>
        <time>2022-06-15T08:22:52Z</time>
      </trkpt>
      <trkpt lat="45.69278" lon="6.70379">
        <ele>1871.3</ele>
        <time>2022-06-15T08:22:53Z</time>
      </trkpt>
      <trkpt lat="45.69278" lon="6.70376">
        <ele>1871.4</ele>
        <time>2022-06-15T08:22:54Z</time>
      </trkpt>
      <trkpt lat="45.69277" lon="6.70374">
        <ele>1871.5</ele>
        <time>2022-06-15T08:22:55Z</time>
      </trkpt>
      <trkpt lat="45.69276" lon="6.70371">
        <ele>1871.5</ele>
        <time>2022-06-15T08:22:56Z</time>
      </trkpt>
      <trkpt lat="45.69275" lon="6.70368">
        <ele>1871.5</ele>
        <time>2022-06-15T08:22:57Z</time>
      </trkpt>
      <trkpt lat="45.69274" lon="6.70365">
        <ele>1871.6</ele>
        <time>2022-06-15T08:22:58Z</time>
      </trkpt>
      <trkpt lat="45.69273" lon="6.70361">
        <ele>1871.6</ele>
        <time>2022-06-15T08:22:59Z</time>
      </trkpt>
      <trkpt lat="45.69272" lon="6.70358">
        <ele>1871.6</ele>
        <time>2022-06-15T08:23:00Z</time>
      </trkpt>
      <trkpt lat="45.69272" lon="6.70355">
        <ele>1871.6</ele>
        <time>2022-06-15T08:23:01Z</time>
      </trkpt>
      <trkpt lat="45.69271" lon="6.70352">
        <ele>1871.6</ele>
        <time>2022-06-15T08:23:02Z</time>
      </trkpt>
      <trkpt lat="45.69271" lon="6.70348">
        <ele>1871.6</ele>
        <time>2022-06-15T08:23:03Z</time>
      </trkpt>
      <trkpt lat="45.6927" lon="6.70345">
        <ele>1871.6</ele>
        <time>2022-06-15T08:23:04Z</time>
      </trkpt>
      <trkpt lat="45.69268" lon="6.70342">
        <ele>1871.6</ele>
        <time>2022-06-15T08:23:05Z</time>
      </trkpt>
      <trkpt lat="45.69268" lon="6.70339">
        <ele>1871.6</ele>
        <time>2022-06-15T08:23:06Z</time>
      </trkpt>
      <trkpt lat="45.69267" lon="6.70336">
        <ele>1871.6</ele>
        <time>2022-06-15T08:23:07Z</time>
      </trkpt>
      <trkpt lat="45.69266" lon="6.70333">
        <ele>1871.6</ele>
        <time>2022-06-15T08:23:08Z</time>
      </trkpt>
      <trkpt lat="45.69265" lon="6.7033">
        <ele>1872</ele>
        <time>2022-06-15T08:23:09Z</time>
      </trkpt>
      <trkpt lat="45.69264" lon="6.70328">
        <ele>1872.4</ele>
        <time>2022-06-15T08:23:10Z</time>
      </trkpt>
      <trkpt lat="45.69263" lon="6.70325">
        <ele>1872.8</ele>
        <time>2022-06-15T08:23:11Z</time>
      </trkpt>
      <trkpt lat="45.69262" lon="6.70322">
        <ele>1873.2</ele>
        <time>2022-06-15T08:23:12Z</time>
      </trkpt>
      <trkpt lat="45.69261" lon="6.7032">
        <ele>1873.6</ele>
        <time>2022-06-15T08:23:13Z</time>
      </trkpt>
      <trkpt lat="45.69261" lon="6.70317">
        <ele>1874.1</ele>
        <time>2022-06-15T08:23:14Z</time>
      </trkpt>
      <trkpt lat="45.6926" lon="6.70315">
        <ele>1874.5</ele>
        <time>2022-06-15T08:23:15Z</time>
      </trkpt>
      <trkpt lat="45.69259" lon="6.70312">
        <ele>1875</ele>
        <time>2022-06-15T08:23:16Z</time>
      </trkpt>
      <trkpt lat="45.69258" lon="6.70309">
        <ele>1875.4</ele>
        <time>2022-06-15T08:23:17Z</time>
      </trkpt>
      <trkpt lat="45.69257" lon="6.70306">
        <ele>1876</ele>
        <time>2022-06-15T08:23:18Z</time>
      </trkpt>
      <trkpt lat="45.69256" lon="6.70303">
        <ele>1876.4</ele>
        <time>2022-06-15T08:23:19Z</time>
      </trkpt>
      <trkpt lat="45.69256" lon="6.703">
        <ele>1876.9</ele>
        <time>2022-06-15T08:23:20Z</time>
      </trkpt>
      <trkpt lat="45.69255" lon="6.70297">
        <ele>1877.2</ele>
        <time>2022-06-15T08:23:21Z</time>
      </trkpt>
      <trkpt lat="45.69254" lon="6.70294">
        <ele>1877.6</ele>
        <time>2022-06-15T08:23:22Z</time>
      </trkpt>
      <trkpt lat="45.69253" lon="6.70292">
        <ele>1877.8</ele>
        <time>2022-06-15T08:23:23Z</time>
      </trkpt>
      <trkpt lat="45.69252" lon="6.70289">
        <ele>1878</ele>
        <time>2022-06-15T08:23:24Z</time>
      </trkpt>
      <trkpt lat="45.69251" lon="6.70286">
        <ele>1878.2</ele>
        <time>2022-06-15T08:23:25Z</time>
      </trkpt>
      <trkpt lat="45.6925" lon="6.70283">
        <ele>1878.4</ele>
        <time>2022-06-15T08:23:26Z</time>
      </trkpt>
      <trkpt lat="45.69249" lon="6.70281">
        <ele>1878.7</ele>
        <time>2022-06-15T08:23:27Z</time>
      </trkpt>
      <trkpt lat="45.69248" lon="6.70278">
        <ele>1878.9</ele>
        <time>2022-06-15T08:23:28Z</time>
      </trkpt>
      <trkpt lat="45.69248" lon="6.70275">
        <ele>1879.6</ele>
        <time>2022-06-15T08:23:29Z</time>
      </trkpt>
      <trkpt lat="45.69247" lon="6.70272">
        <ele>1880.3</ele>
        <time>2022-06-15T08:23:30Z</time>
      </trkpt>
      <trkpt lat="45.69246" lon="6.7027">
        <ele>1880.8</ele>
        <time>2022-06-15T08:23:31Z</time>
      </trkpt>
      <trkpt lat="45.69244" lon="6.70267">
        <ele>1881.2</ele>
        <time>2022-06-15T08:23:32Z</time>
      </trkpt>
      <trkpt lat="45.69243" lon="6.70265">
        <ele>1881.6</ele>
        <time>2022-06-15T08:23:33Z</time>
      </trkpt>
      <trkpt lat="45.69242" lon="6.70262">
        <ele>1881.9</ele>
        <time>2022-06-15T08:23:34Z</time>
      </trkpt>
      <trkpt lat="45.69241" lon="6.7026">
        <ele>1882.3</ele>
        <time>2022-06-15T08:23:35Z</time>
      </trkpt>
      <trkpt lat="45.6924" lon="6.70255">
        <ele>1882.8</ele>
        <time>2022-06-15T08:23:36Z</time>
      </trkpt>
      <trkpt lat="45.6924" lon="6.70254">
        <ele>1882.9</ele>
        <time>2022-06-15T08:23:37Z</time>
      </trkpt>
      <trkpt lat="45.69239" lon="6.70251">
        <ele>1883.2</ele>
        <time>2022-06-15T08:23:38Z</time>
      </trkpt>
      <trkpt lat="45.69238" lon="6.70248">
        <ele>1883.5</ele>
        <time>2022-06-15T08:23:39Z</time>
      </trkpt>
      <trkpt lat="45.69237" lon="6.70246">
        <ele>1883.9</ele>
        <time>2022-06-15T08:23:40Z</time>
      </trkpt>
      <trkpt lat="45.69236" lon="6.70243">
        <ele>1884.2</ele>
        <time>2022-06-15T08:23:41Z</time>
      </trkpt>
      <trkpt lat="45.69235" lon="6.7024">
        <ele>1884.4</ele>
        <time>2022-06-15T08:23:42Z</time>
      </trkpt>
      <trkpt lat="45.69234" lon="6.70238">
        <ele>1884.7</ele>
        <time>2022-06-15T08:23:43Z</time>
      </trkpt>
      <trkpt lat="45.69233" lon="6.70235">
        <ele>1884.9</ele>
        <time>2022-06-15T08:23:44Z</time>
      </trkpt>
      <trkpt lat="45.69232" lon="6.70232">
        <ele>1885</ele>
        <time>2022-06-15T08:23:45Z</time>
      </trkpt>
      <trkpt lat="45.69231" lon="6.7023">
        <ele>1885.1</ele>
        <time>2022-06-15T08:23:46Z</time>
      </trkpt>
      <trkpt lat="45.6923" lon="6.70227">
        <ele>1885.2</ele>
        <time>2022-06-15T08:23:47Z</time>
      </trkpt>
      <trkpt lat="45.69229" lon="6.70224">
        <ele>1885.3</ele>
        <time>2022-06-15T08:23:48Z</time>
      </trkpt>
      <trkpt lat="45.69228" lon="6.70222">
        <ele>1885.5</ele>
        <time>2022-06-15T08:23:49Z</time>
      </trkpt>
      <trkpt lat="45.69227" lon="6.70219">
        <ele>1885.6</ele>
        <time>2022-06-15T08:23:50Z</time>
      </trkpt>
      <trkpt lat="45.69226" lon="6.70216">
        <ele>1885.5</ele>
        <time>2022-06-15T08:23:51Z</time>
      </trkpt>
      <trkpt lat="45.69225" lon="6.70214">
        <ele>1885.3</ele>
        <time>2022-06-15T08:23:52Z</time>
      </trkpt>
      <trkpt lat="45.69224" lon="6.70211">
        <ele>1885.2</ele>
        <time>2022-06-15T08:23:53Z</time>
      </trkpt>
      <trkpt lat="45.69223" lon="6.70209">
        <ele>1885.2</ele>
        <time>2022-06-15T08:23:54Z</time>
      </trkpt>
      <trkpt lat="45.69222" lon="6.70206">
        <ele>1885.3</ele>
        <time>2022-06-15T08:23:55Z</time>
      </trkpt>
      <trkpt lat="45.69221" lon="6.70203">
        <ele>1885.6</ele>
        <time>2022-06-15T08:23:56Z</time>
      </trkpt>
      <trkpt lat="45.69221" lon="6.70201">
        <ele>1885.9</ele>
        <time>2022-06-15T08:23:57Z</time>
      </trkpt>
      <trkpt lat="45.69221" lon="6.70198">
        <ele>1886.3</ele>
        <time>2022-06-15T08:23:58Z</time>
      </trkpt>
      <trkpt lat="45.6922" lon="6.70195">
        <ele>1886.6</ele>
        <time>2022-06-15T08:23:59Z</time>
      </trkpt>
      <trkpt lat="45.6922" lon="6.70192">
        <ele>1886.9</ele>
        <time>2022-06-15T08:24:00Z</time>
      </trkpt>
      <trkpt lat="45.69219" lon="6.70189">
        <ele>1887.2</ele>
        <time>2022-06-15T08:24:01Z</time>
      </trkpt>
      <trkpt lat="45.69219" lon="6.70186">
        <ele>1887.4</ele>
        <time>2022-06-15T08:24:02Z</time>
      </trkpt>
      <trkpt lat="45.69218" lon="6.70184">
        <ele>1887.8</ele>
        <time>2022-06-15T08:24:03Z</time>
      </trkpt>
      <trkpt lat="45.69218" lon="6.70181">
        <ele>1888.1</ele>
        <time>2022-06-15T08:24:04Z</time>
      </trkpt>
      <trkpt lat="45.69218" lon="6.70177">
        <ele>1888.4</ele>
        <time>2022-06-15T08:24:05Z</time>
      </trkpt>
      <trkpt lat="45.69217" lon="6.70174">
        <ele>1888.8</ele>
        <time>2022-06-15T08:24:06Z</time>
      </trkpt>
      <trkpt lat="45.69217" lon="6.70171">
        <ele>1889.1</ele>
        <time>2022-06-15T08:24:07Z</time>
      </trkpt>
      <trkpt lat="45.69217" lon="6.70169">
        <ele>1889.4</ele>
        <time>2022-06-15T08:24:08Z</time>
      </trkpt>
      <trkpt lat="45.69217" lon="6.70166">
        <ele>1889.8</ele>
        <time>2022-06-15T08:24:09Z</time>
      </trkpt>
      <trkpt lat="45.69217" lon="6.70163">
        <ele>1890</ele>
        <time>2022-06-15T08:24:10Z</time>
      </trkpt>
      <trkpt lat="45.69216" lon="6.7016">
        <ele>1890.1</ele>
        <time>2022-06-15T08:24:11Z</time>
      </trkpt>
      <trkpt lat="45.69216" lon="6.70157">
        <ele>1890.3</ele>
        <time>2022-06-15T08:24:12Z</time>
      </trkpt>
      <trkpt lat="45.69216" lon="6.70154">
        <ele>1890.6</ele>
        <time>2022-06-15T08:24:13Z</time>
      </trkpt>
      <trkpt lat="45.69216" lon="6.70151">
        <ele>1890.9</ele>
        <time>2022-06-15T08:24:14Z</time>
      </trkpt>
      <trkpt lat="45.69216" lon="6.70148">
        <ele>1891.3</ele>
        <time>2022-06-15T08:24:15Z</time>
      </trkpt>
      <trkpt lat="45.69216" lon="6.70145">
        <ele>1891.5</ele>
        <time>2022-06-15T08:24:16Z</time>
      </trkpt>
      <trkpt lat="45.69216" lon="6.70142">
        <ele>1891.8</ele>
        <time>2022-06-15T08:24:17Z</time>
      </trkpt>
      <trkpt lat="45.69215" lon="6.70139">
        <ele>1892</ele>
        <time>2022-06-15T08:24:18Z</time>
      </trkpt>
      <trkpt lat="45.69215" lon="6.70136">
        <ele>1892.2</ele>
        <time>2022-06-15T08:24:19Z</time>
      </trkpt>
      <trkpt lat="45.69215" lon="6.70133">
        <ele>1892.3</ele>
        <time>2022-06-15T08:24:20Z</time>
      </trkpt>
      <trkpt lat="45.69215" lon="6.7013">
        <ele>1892.5</ele>
        <time>2022-06-15T08:24:21Z</time>
      </trkpt>
      <trkpt lat="45.69215" lon="6.70127">
        <ele>1892.8</ele>
        <time>2022-06-15T08:24:22Z</time>
      </trkpt>
      <trkpt lat="45.69215" lon="6.70125">
        <ele>1893</ele>
        <time>2022-06-15T08:24:23Z</time>
      </trkpt>
      <trkpt lat="45.69216" lon="6.70122">
        <ele>1893.3</ele>
        <time>2022-06-15T08:24:24Z</time>
      </trkpt>
      <trkpt lat="45.69216" lon="6.70119">
        <ele>1893.5</ele>
        <time>2022-06-15T08:24:25Z</time>
      </trkpt>
      <trkpt lat="45.69216" lon="6.70116">
        <ele>1893.8</ele>
        <time>2022-06-15T08:24:26Z</time>
      </trkpt>
      <trkpt lat="45.69216" lon="6.70113">
        <ele>1894</ele>
        <time>2022-06-15T08:24:27Z</time>
      </trkpt>
      <trkpt lat="45.69216" lon="6.7011">
        <ele>1894.2</ele>
        <time>2022-06-15T08:24:28Z</time>
      </trkpt>
      <trkpt lat="45.69216" lon="6.70107">
        <ele>1894.3</ele>
        <time>2022-06-15T08:24:29Z</time>
      </trkpt>
      <trkpt lat="45.69217" lon="6.70105">
        <ele>1894.5</ele>
        <time>2022-06-15T08:24:30Z</time>
      </trkpt>
      <trkpt lat="45.69217" lon="6.70102">
        <ele>1894.6</ele>
        <time>2022-06-15T08:24:31Z</time>
      </trkpt>
      <trkpt lat="45.69217" lon="6.70099">
        <ele>1894.7</ele>
        <time>2022-06-15T08:24:32Z</time>
      </trkpt>
      <trkpt lat="45.69217" lon="6.70096">
        <ele>1894.7</ele>
        <time>2022-06-15T08:24:33Z</time>
      </trkpt>
      <trkpt lat="45.69218" lon="6.70094">
        <ele>1894.9</ele>
        <time>2022-06-15T08:24:34Z</time>
      </trkpt>
      <trkpt lat="45.69218" lon="6.70091">
        <ele>1895.1</ele>
        <time>2022-06-15T08:24:35Z</time>
      </trkpt>
      <trkpt lat="45.69219" lon="6.70088">
        <ele>1895.2</ele>
        <time>2022-06-15T08:24:36Z</time>
      </trkpt>
      <trkpt lat="45.69219" lon="6.70085">
        <ele>1895.3</ele>
        <time>2022-06-15T08:24:37Z</time>
      </trkpt>
      <trkpt lat="45.6922" lon="6.70082">
        <ele>1895.4</ele>
        <time>2022-06-15T08:24:38Z</time>
      </trkpt>
      <trkpt lat="45.6922" lon="6.70079">
        <ele>1895.5</ele>
        <time>2022-06-15T08:24:39Z</time>
      </trkpt>
      <trkpt lat="45.69221" lon="6.70076">
        <ele>1895.7</ele>
        <time>2022-06-15T08:24:40Z</time>
      </trkpt>
      <trkpt lat="45.69221" lon="6.70073">
        <ele>1895.8</ele>
        <time>2022-06-15T08:24:41Z</time>
      </trkpt>
      <trkpt lat="45.69222" lon="6.7007">
        <ele>1896</ele>
        <time>2022-06-15T08:24:42Z</time>
      </trkpt>
      <trkpt lat="45.69223" lon="6.70068">
        <ele>1896.1</ele>
        <time>2022-06-15T08:24:43Z</time>
      </trkpt>
      <trkpt lat="45.69223" lon="6.70065">
        <ele>1896.4</ele>
        <time>2022-06-15T08:24:44Z</time>
      </trkpt>
      <trkpt lat="45.69224" lon="6.70062">
        <ele>1896.7</ele>
        <time>2022-06-15T08:24:45Z</time>
      </trkpt>
      <trkpt lat="45.69225" lon="6.7006">
        <ele>1896.8</ele>
        <time>2022-06-15T08:24:46Z</time>
      </trkpt>
      <trkpt lat="45.69226" lon="6.70057">
        <ele>1897.2</ele>
        <time>2022-06-15T08:24:47Z</time>
      </trkpt>
      <trkpt lat="45.69226" lon="6.70054">
        <ele>1897.5</ele>
        <time>2022-06-15T08:24:48Z</time>
      </trkpt>
      <trkpt lat="45.69227" lon="6.70051">
        <ele>1897.8</ele>
        <time>2022-06-15T08:24:49Z</time>
      </trkpt>
      <trkpt lat="45.69228" lon="6.70049">
        <ele>1898.1</ele>
        <time>2022-06-15T08:24:50Z</time>
      </trkpt>
      <trkpt lat="45.69229" lon="6.70046">
        <ele>1898.3</ele>
        <time>2022-06-15T08:24:51Z</time>
      </trkpt>
      <trkpt lat="45.69229" lon="6.70043">
        <ele>1898.5</ele>
        <time>2022-06-15T08:24:52Z</time>
      </trkpt>
      <trkpt lat="45.6923" lon="6.7004">
        <ele>1898.6</ele>
        <time>2022-06-15T08:24:53Z</time>
      </trkpt>
      <trkpt lat="45.6923" lon="6.70037">
        <ele>1898.7</ele>
        <time>2022-06-15T08:24:54Z</time>
      </trkpt>
      <trkpt lat="45.69231" lon="6.70035">
        <ele>1899</ele>
        <time>2022-06-15T08:24:55Z</time>
      </trkpt>
      <trkpt lat="45.69232" lon="6.70033">
        <ele>1899.2</ele>
        <time>2022-06-15T08:24:56Z</time>
      </trkpt>
      <trkpt lat="45.69233" lon="6.7003">
        <ele>1899.4</ele>
        <time>2022-06-15T08:24:57Z</time>
      </trkpt>
      <trkpt lat="45.69235" lon="6.70028">
        <ele>1899.7</ele>
        <time>2022-06-15T08:24:58Z</time>
      </trkpt>
      <trkpt lat="45.69236" lon="6.70026">
        <ele>1899.8</ele>
        <time>2022-06-15T08:24:59Z</time>
      </trkpt>
      <trkpt lat="45.69237" lon="6.70024">
        <ele>1899.9</ele>
        <time>2022-06-15T08:25:00Z</time>
      </trkpt>
      <trkpt lat="45.69238" lon="6.70022">
        <ele>1900</ele>
        <time>2022-06-15T08:25:01Z</time>
      </trkpt>
      <trkpt lat="45.69239" lon="6.70019">
        <ele>1900.1</ele>
        <time>2022-06-15T08:25:02Z</time>
      </trkpt>
      <trkpt lat="45.69241" lon="6.70017">
        <ele>1900.2</ele>
        <time>2022-06-15T08:25:03Z</time>
      </trkpt>
      <trkpt lat="45.69242" lon="6.70014">
        <ele>1900.3</ele>
        <time>2022-06-15T08:25:04Z</time>
      </trkpt>
      <trkpt lat="45.69243" lon="6.70012">
        <ele>1900.4</ele>
        <time>2022-06-15T08:25:05Z</time>
      </trkpt>
      <trkpt lat="45.69245" lon="6.70009">
        <ele>1900.5</ele>
        <time>2022-06-15T08:25:06Z</time>
      </trkpt>
      <trkpt lat="45.69246" lon="6.70006">
        <ele>1900.6</ele>
        <time>2022-06-15T08:25:07Z</time>
      </trkpt>
      <trkpt lat="45.69247" lon="6.70003">
        <ele>1900.6</ele>
        <time>2022-06-15T08:25:08Z</time>
      </trkpt>
      <trkpt lat="45.69248" lon="6.7">
        <ele>1900.6</ele>
        <time>2022-06-15T08:25:09Z</time>
      </trkpt>
      <trkpt lat="45.6925" lon="6.69997">
        <ele>1900.9</ele>
        <time>2022-06-15T08:25:10Z</time>
      </trkpt>
      <trkpt lat="45.69251" lon="6.69993">
        <ele>1901.4</ele>
        <time>2022-06-15T08:25:11Z</time>
      </trkpt>
      <trkpt lat="45.69252" lon="6.6999">
        <ele>1901.9</ele>
        <time>2022-06-15T08:25:12Z</time>
      </trkpt>
      <trkpt lat="45.69254" lon="6.69986">
        <ele>1902.5</ele>
        <time>2022-06-15T08:25:13Z</time>
      </trkpt>
      <trkpt lat="45.69255" lon="6.69983">
        <ele>1903</ele>
        <time>2022-06-15T08:25:14Z</time>
      </trkpt>
      <trkpt lat="45.69256" lon="6.6998">
        <ele>1903.6</ele>
        <time>2022-06-15T08:25:15Z</time>
      </trkpt>
      <trkpt lat="45.69258" lon="6.69977">
        <ele>1904.3</ele>
        <time>2022-06-15T08:25:16Z</time>
      </trkpt>
      <trkpt lat="45.6926" lon="6.69974">
        <ele>1904.9</ele>
        <time>2022-06-15T08:25:17Z</time>
      </trkpt>
      <trkpt lat="45.69261" lon="6.69972">
        <ele>1905.4</ele>
        <time>2022-06-15T08:25:18Z</time>
      </trkpt>
      <trkpt lat="45.69263" lon="6.69969">
        <ele>1905.7</ele>
        <time>2022-06-15T08:25:19Z</time>
      </trkpt>
      <trkpt lat="45.69264" lon="6.69967">
        <ele>1905.9</ele>
        <time>2022-06-15T08:25:20Z</time>
      </trkpt>
      <trkpt lat="45.69265" lon="6.69964">
        <ele>1906</ele>
        <time>2022-06-15T08:25:21Z</time>
      </trkpt>
      <trkpt lat="45.69266" lon="6.69961">
        <ele>1906</ele>
        <time>2022-06-15T08:25:22Z</time>
      </trkpt>
      <trkpt lat="45.69267" lon="6.69958">
        <ele>1906.1</ele>
        <time>2022-06-15T08:25:23Z</time>
      </trkpt>
      <trkpt lat="45.69268" lon="6.69956">
        <ele>1906.2</ele>
        <time>2022-06-15T08:25:24Z</time>
      </trkpt>
      <trkpt lat="45.6927" lon="6.69953">
        <ele>1906.4</ele>
        <time>2022-06-15T08:25:25Z</time>
      </trkpt>
      <trkpt lat="45.69271" lon="6.6995">
        <ele>1906.4</ele>
        <time>2022-06-15T08:25:26Z</time>
      </trkpt>
      <trkpt lat="45.69272" lon="6.69947">
        <ele>1906.4</ele>
        <time>2022-06-15T08:25:27Z</time>
      </trkpt>
      <trkpt lat="45.69273" lon="6.69945">
        <ele>1906.5</ele>
        <time>2022-06-15T08:25:28Z</time>
      </trkpt>
      <trkpt lat="45.69274" lon="6.69942">
        <ele>1906.7</ele>
        <time>2022-06-15T08:25:29Z</time>
      </trkpt>
      <trkpt lat="45.69275" lon="6.6994">
        <ele>1906.9</ele>
        <time>2022-06-15T08:25:30Z</time>
      </trkpt>
      <trkpt lat="45.69276" lon="6.69937">
        <ele>1907</ele>
        <time>2022-06-15T08:25:31Z</time>
      </trkpt>
      <trkpt lat="45.69278" lon="6.69935">
        <ele>1907.3</ele>
        <time>2022-06-15T08:25:32Z</time>
      </trkpt>
      <trkpt lat="45.69279" lon="6.69932">
        <ele>1907.4</ele>
        <time>2022-06-15T08:25:33Z</time>
      </trkpt>
      <trkpt lat="45.6928" lon="6.69929">
        <ele>1907.5</ele>
        <time>2022-06-15T08:25:34Z</time>
      </trkpt>
      <trkpt lat="45.69281" lon="6.69927">
        <ele>1907.6</ele>
        <time>2022-06-15T08:25:35Z</time>
      </trkpt>
      <trkpt lat="45.69282" lon="6.69924">
        <ele>1907.7</ele>
        <time>2022-06-15T08:25:36Z</time>
      </trkpt>
      <trkpt lat="45.69283" lon="6.69922">
        <ele>1907.8</ele>
        <time>2022-06-15T08:25:37Z</time>
      </trkpt>
      <trkpt lat="45.69284" lon="6.69919">
        <ele>1907.8</ele>
        <time>2022-06-15T08:25:38Z</time>
      </trkpt>
      <trkpt lat="45.69285" lon="6.69916">
        <ele>1907.9</ele>
        <time>2022-06-15T08:25:39Z</time>
      </trkpt>
      <trkpt lat="45.69286" lon="6.69914">
        <ele>1908</ele>
        <time>2022-06-15T08:25:40Z</time>
      </trkpt>
      <trkpt lat="45.69287" lon="6.69911">
        <ele>1908.2</ele>
        <time>2022-06-15T08:25:41Z</time>
      </trkpt>
      <trkpt lat="45.69288" lon="6.69909">
        <ele>1908.3</ele>
        <time>2022-06-15T08:25:42Z</time>
      </trkpt>
      <trkpt lat="45.69289" lon="6.69906">
        <ele>1908.5</ele>
        <time>2022-06-15T08:25:43Z</time>
      </trkpt>
      <trkpt lat="45.6929" lon="6.69903">
        <ele>1908.6</ele>
        <time>2022-06-15T08:25:44Z</time>
      </trkpt>
      <trkpt lat="45.69291" lon="6.69901">
        <ele>1908.7</ele>
        <time>2022-06-15T08:25:45Z</time>
      </trkpt>
      <trkpt lat="45.69292" lon="6.69898">
        <ele>1908.9</ele>
        <time>2022-06-15T08:25:46Z</time>
      </trkpt>
      <trkpt lat="45.69293" lon="6.69896">
        <ele>1908.9</ele>
        <time>2022-06-15T08:25:47Z</time>
      </trkpt>
      <trkpt lat="45.69294" lon="6.69893">
        <ele>1909.1</ele>
        <time>2022-06-15T08:25:48Z</time>
      </trkpt>
      <trkpt lat="45.69296" lon="6.6989">
        <ele>1909.2</ele>
        <time>2022-06-15T08:25:49Z</time>
      </trkpt>
      <trkpt lat="45.69297" lon="6.69888">
        <ele>1909.3</ele>
        <time>2022-06-15T08:25:50Z</time>
      </trkpt>
      <trkpt lat="45.69298" lon="6.69885">
        <ele>1909.5</ele>
        <time>2022-06-15T08:25:51Z</time>
      </trkpt>
      <trkpt lat="45.69299" lon="6.69883">
        <ele>1909.6</ele>
        <time>2022-06-15T08:25:52Z</time>
      </trkpt>
      <trkpt lat="45.693" lon="6.6988">
        <ele>1909.7</ele>
        <time>2022-06-15T08:25:53Z</time>
      </trkpt>
      <trkpt lat="45.69301" lon="6.69878">
        <ele>1909.8</ele>
        <time>2022-06-15T08:25:54Z</time>
      </trkpt>
      <trkpt lat="45.69302" lon="6.69875">
        <ele>1909.9</ele>
        <time>2022-06-15T08:25:55Z</time>
      </trkpt>
      <trkpt lat="45.69303" lon="6.69872">
        <ele>1910.1</ele>
        <time>2022-06-15T08:25:56Z</time>
      </trkpt>
      <trkpt lat="45.69304" lon="6.6987">
        <ele>1910.2</ele>
        <time>2022-06-15T08:25:57Z</time>
      </trkpt>
      <trkpt lat="45.69305" lon="6.69867">
        <ele>1910.3</ele>
        <time>2022-06-15T08:25:58Z</time>
      </trkpt>
      <trkpt lat="45.69306" lon="6.69865">
        <ele>1910.4</ele>
        <time>2022-06-15T08:25:59Z</time>
      </trkpt>
      <trkpt lat="45.69308" lon="6.69862">
        <ele>1910.5</ele>
        <time>2022-06-15T08:26:00Z</time>
      </trkpt>
      <trkpt lat="45.69309" lon="6.69859">
        <ele>1910.7</ele>
        <time>2022-06-15T08:26:01Z</time>
      </trkpt>
      <trkpt lat="45.6931" lon="6.69857">
        <ele>1911</ele>
        <time>2022-06-15T08:26:02Z</time>
      </trkpt>
      <trkpt lat="45.69311" lon="6.69854">
        <ele>1911.3</ele>
        <time>2022-06-15T08:26:03Z</time>
      </trkpt>
      <trkpt lat="45.69312" lon="6.69852">
        <ele>1911.7</ele>
        <time>2022-06-15T08:26:04Z</time>
      </trkpt>
      <trkpt lat="45.69313" lon="6.69849">
        <ele>1912</ele>
        <time>2022-06-15T08:26:05Z</time>
      </trkpt>
      <trkpt lat="45.69314" lon="6.69847">
        <ele>1912.3</ele>
        <time>2022-06-15T08:26:06Z</time>
      </trkpt>
      <trkpt lat="45.69315" lon="6.69844">
        <ele>1912.6</ele>
        <time>2022-06-15T08:26:07Z</time>
      </trkpt>
      <trkpt lat="45.69315" lon="6.69841">
        <ele>1912.8</ele>
        <time>2022-06-15T08:26:08Z</time>
      </trkpt>
      <trkpt lat="45.69316" lon="6.69838">
        <ele>1913.1</ele>
        <time>2022-06-15T08:26:09Z</time>
      </trkpt>
      <trkpt lat="45.69317" lon="6.69835">
        <ele>1913.4</ele>
        <time>2022-06-15T08:26:10Z</time>
      </trkpt>
      <trkpt lat="45.69319" lon="6.69833">
        <ele>1913.8</ele>
        <time>2022-06-15T08:26:11Z</time>
      </trkpt>
      <trkpt lat="45.6932" lon="6.6983">
        <ele>1913.9</ele>
        <time>2022-06-15T08:26:12Z</time>
      </trkpt>
      <trkpt lat="45.69321" lon="6.69828">
        <ele>1914</ele>
        <time>2022-06-15T08:26:13Z</time>
      </trkpt>
      <trkpt lat="45.69322" lon="6.69825">
        <ele>1914.1</ele>
        <time>2022-06-15T08:26:14Z</time>
      </trkpt>
      <trkpt lat="45.69323" lon="6.69822">
        <ele>1914.2</ele>
        <time>2022-06-15T08:26:15Z</time>
      </trkpt>
      <trkpt lat="45.69324" lon="6.6982">
        <ele>1914.3</ele>
        <time>2022-06-15T08:26:16Z</time>
      </trkpt>
      <trkpt lat="45.69325" lon="6.69817">
        <ele>1914.4</ele>
        <time>2022-06-15T08:26:17Z</time>
      </trkpt>
      <trkpt lat="45.69326" lon="6.69814">
        <ele>1914.5</ele>
        <time>2022-06-15T08:26:18Z</time>
      </trkpt>
      <trkpt lat="45.69327" lon="6.69812">
        <ele>1914.7</ele>
        <time>2022-06-15T08:26:19Z</time>
      </trkpt>
      <trkpt lat="45.69328" lon="6.69809">
        <ele>1914.8</ele>
        <time>2022-06-15T08:26:20Z</time>
      </trkpt>
      <trkpt lat="45.69329" lon="6.69807">
        <ele>1914.9</ele>
        <time>2022-06-15T08:26:21Z</time>
      </trkpt>
      <trkpt lat="45.6933" lon="6.69804">
        <ele>1915.1</ele>
        <time>2022-06-15T08:26:22Z</time>
      </trkpt>
      <trkpt lat="45.69331" lon="6.69802">
        <ele>1915.3</ele>
        <time>2022-06-15T08:26:23Z</time>
      </trkpt>
      <trkpt lat="45.69332" lon="6.69799">
        <ele>1915.5</ele>
        <time>2022-06-15T08:26:24Z</time>
      </trkpt>
      <trkpt lat="45.69333" lon="6.69796">
        <ele>1915.6</ele>
        <time>2022-06-15T08:26:25Z</time>
      </trkpt>
      <trkpt lat="45.69334" lon="6.69794">
        <ele>1915.8</ele>
        <time>2022-06-15T08:26:26Z</time>
      </trkpt>
      <trkpt lat="45.69335" lon="6.69791">
        <ele>1916</ele>
        <time>2022-06-15T08:26:27Z</time>
      </trkpt>
      <trkpt lat="45.69337" lon="6.69789">
        <ele>1916.3</ele>
        <time>2022-06-15T08:26:28Z</time>
      </trkpt>
      <trkpt lat="45.69338" lon="6.69786">
        <ele>1916.7</ele>
        <time>2022-06-15T08:26:29Z</time>
      </trkpt>
      <trkpt lat="45.69339" lon="6.69784">
        <ele>1917</ele>
        <time>2022-06-15T08:26:30Z</time>
      </trkpt>
      <trkpt lat="45.6934" lon="6.69781">
        <ele>1917.3</ele>
        <time>2022-06-15T08:26:31Z</time>
      </trkpt>
      <trkpt lat="45.69342" lon="6.69779">
        <ele>1917.6</ele>
        <time>2022-06-15T08:26:32Z</time>
      </trkpt>
      <trkpt lat="45.69343" lon="6.69776">
        <ele>1917.9</ele>
        <time>2022-06-15T08:26:33Z</time>
      </trkpt>
      <trkpt lat="45.69344" lon="6.69774">
        <ele>1918.2</ele>
        <time>2022-06-15T08:26:34Z</time>
      </trkpt>
      <trkpt lat="45.69345" lon="6.69771">
        <ele>1918.4</ele>
        <time>2022-06-15T08:26:35Z</time>
      </trkpt>
      <trkpt lat="45.69346" lon="6.69768">
        <ele>1918.5</ele>
        <time>2022-06-15T08:26:36Z</time>
      </trkpt>
      <trkpt lat="45.69347" lon="6.69766">
        <ele>1918.6</ele>
        <time>2022-06-15T08:26:37Z</time>
      </trkpt>
      <trkpt lat="45.69348" lon="6.69763">
        <ele>1918.6</ele>
        <time>2022-06-15T08:26:38Z</time>
      </trkpt>
      <trkpt lat="45.69349" lon="6.6976">
        <ele>1918.6</ele>
        <time>2022-06-15T08:26:39Z</time>
      </trkpt>
      <trkpt lat="45.6935" lon="6.69757">
        <ele>1918.6</ele>
        <time>2022-06-15T08:26:40Z</time>
      </trkpt>
      <trkpt lat="45.69351" lon="6.69755">
        <ele>1918.6</ele>
        <time>2022-06-15T08:26:41Z</time>
      </trkpt>
      <trkpt lat="45.69352" lon="6.69752">
        <ele>1918.5</ele>
        <time>2022-06-15T08:26:42Z</time>
      </trkpt>
      <trkpt lat="45.69353" lon="6.69749">
        <ele>1918.5</ele>
        <time>2022-06-15T08:26:43Z</time>
      </trkpt>
      <trkpt lat="45.69354" lon="6.69746">
        <ele>1918.6</ele>
        <time>2022-06-15T08:26:44Z</time>
      </trkpt>
      <trkpt lat="45.69355" lon="6.69743">
        <ele>1918.8</ele>
        <time>2022-06-15T08:26:45Z</time>
      </trkpt>
      <trkpt lat="45.69356" lon="6.6974">
        <ele>1919</ele>
        <time>2022-06-15T08:26:46Z</time>
      </trkpt>
      <trkpt lat="45.69357" lon="6.69737">
        <ele>1919.2</ele>
        <time>2022-06-15T08:26:47Z</time>
      </trkpt>
      <trkpt lat="45.69358" lon="6.69734">
        <ele>1919.4</ele>
        <time>2022-06-15T08:26:48Z</time>
      </trkpt>
      <trkpt lat="45.69358" lon="6.69731">
        <ele>1919.5</ele>
        <time>2022-06-15T08:26:49Z</time>
      </trkpt>
      <trkpt lat="45.69359" lon="6.69728">
        <ele>1919.6</ele>
        <time>2022-06-15T08:26:50Z</time>
      </trkpt>
      <trkpt lat="45.6936" lon="6.69725">
        <ele>1919.7</ele>
        <time>2022-06-15T08:26:51Z</time>
      </trkpt>
      <trkpt lat="45.6936" lon="6.69721">
        <ele>1919.9</ele>
        <time>2022-06-15T08:26:52Z</time>
      </trkpt>
      <trkpt lat="45.69361" lon="6.69718">
        <ele>1920</ele>
        <time>2022-06-15T08:26:53Z</time>
      </trkpt>
      <trkpt lat="45.69362" lon="6.69715">
        <ele>1920.1</ele>
        <time>2022-06-15T08:26:54Z</time>
      </trkpt>
      <trkpt lat="45.69363" lon="6.69712">
        <ele>1920.2</ele>
        <time>2022-06-15T08:26:55Z</time>
      </trkpt>
      <trkpt lat="45.69364" lon="6.69709">
        <ele>1920.3</ele>
        <time>2022-06-15T08:26:56Z</time>
      </trkpt>
      <trkpt lat="45.69364" lon="6.69706">
        <ele>1920.4</ele>
        <time>2022-06-15T08:26:57Z</time>
      </trkpt>
      <trkpt lat="45.69365" lon="6.69703">
        <ele>1920.5</ele>
        <time>2022-06-15T08:26:58Z</time>
      </trkpt>
      <trkpt lat="45.69366" lon="6.697">
        <ele>1920.6</ele>
        <time>2022-06-15T08:26:59Z</time>
      </trkpt>
      <trkpt lat="45.69367" lon="6.69697">
        <ele>1920.8</ele>
        <time>2022-06-15T08:27:00Z</time>
      </trkpt>
      <trkpt lat="45.69367" lon="6.69694">
        <ele>1920.9</ele>
        <time>2022-06-15T08:27:01Z</time>
      </trkpt>
      <trkpt lat="45.69368" lon="6.69691">
        <ele>1920.9</ele>
        <time>2022-06-15T08:27:02Z</time>
      </trkpt>
      <trkpt lat="45.69369" lon="6.69688">
        <ele>1921</ele>
        <time>2022-06-15T08:27:03Z</time>
      </trkpt>
      <trkpt lat="45.6937" lon="6.69685">
        <ele>1921.2</ele>
        <time>2022-06-15T08:27:04Z</time>
      </trkpt>
      <trkpt lat="45.69371" lon="6.69683">
        <ele>1921.3</ele>
        <time>2022-06-15T08:27:05Z</time>
      </trkpt>
      <trkpt lat="45.69372" lon="6.6968">
        <ele>1921.5</ele>
        <time>2022-06-15T08:27:06Z</time>
      </trkpt>
      <trkpt lat="45.69373" lon="6.69677">
        <ele>1921.6</ele>
        <time>2022-06-15T08:27:07Z</time>
      </trkpt>
      <trkpt lat="45.69374" lon="6.69674">
        <ele>1921.7</ele>
        <time>2022-06-15T08:27:08Z</time>
      </trkpt>
      <trkpt lat="45.69374" lon="6.6967">
        <ele>1921.8</ele>
        <time>2022-06-15T08:27:09Z</time>
      </trkpt>
      <trkpt lat="45.69374" lon="6.69667">
        <ele>1921.8</ele>
        <time>2022-06-15T08:27:10Z</time>
      </trkpt>
      <trkpt lat="45.69375" lon="6.69664">
        <ele>1921.8</ele>
        <time>2022-06-15T08:27:11Z</time>
      </trkpt>
      <trkpt lat="45.69376" lon="6.69661">
        <ele>1921.7</ele>
        <time>2022-06-15T08:27:12Z</time>
      </trkpt>
      <trkpt lat="45.69376" lon="6.69658">
        <ele>1921.6</ele>
        <time>2022-06-15T08:27:13Z</time>
      </trkpt>
      <trkpt lat="45.69377" lon="6.69655">
        <ele>1921.6</ele>
        <time>2022-06-15T08:27:14Z</time>
      </trkpt>
      <trkpt lat="45.69377" lon="6.69652">
        <ele>1921.5</ele>
        <time>2022-06-15T08:27:15Z</time>
      </trkpt>
      <trkpt lat="45.69378" lon="6.69649">
        <ele>1921.5</ele>
        <time>2022-06-15T08:27:16Z</time>
      </trkpt>
      <trkpt lat="45.69379" lon="6.69646">
        <ele>1921.5</ele>
        <time>2022-06-15T08:27:17Z</time>
      </trkpt>
      <trkpt lat="45.6938" lon="6.69643">
        <ele>1921.5</ele>
        <time>2022-06-15T08:27:18Z</time>
      </trkpt>
      <trkpt lat="45.6938" lon="6.6964">
        <ele>1921.5</ele>
        <time>2022-06-15T08:27:19Z</time>
      </trkpt>
      <trkpt lat="45.69381" lon="6.69636">
        <ele>1921.8</ele>
        <time>2022-06-15T08:27:20Z</time>
      </trkpt>
      <trkpt lat="45.69381" lon="6.69633">
        <ele>1922.1</ele>
        <time>2022-06-15T08:27:21Z</time>
      </trkpt>
      <trkpt lat="45.69382" lon="6.69631">
        <ele>1922.6</ele>
        <time>2022-06-15T08:27:22Z</time>
      </trkpt>
      <trkpt lat="45.69382" lon="6.69628">
        <ele>1922.9</ele>
        <time>2022-06-15T08:27:23Z</time>
      </trkpt>
      <trkpt lat="45.69382" lon="6.69625">
        <ele>1923.3</ele>
        <time>2022-06-15T08:27:24Z</time>
      </trkpt>
      <trkpt lat="45.69383" lon="6.69622">
        <ele>1923.6</ele>
        <time>2022-06-15T08:27:25Z</time>
      </trkpt>
      <trkpt lat="45.69383" lon="6.69618">
        <ele>1924</ele>
        <time>2022-06-15T08:27:26Z</time>
      </trkpt>
      <trkpt lat="45.69383" lon="6.69615">
        <ele>1924.3</ele>
        <time>2022-06-15T08:27:27Z</time>
      </trkpt>
      <trkpt lat="45.69384" lon="6.69612">
        <ele>1924.5</ele>
        <time>2022-06-15T08:27:28Z</time>
      </trkpt>
      <trkpt lat="45.69384" lon="6.69609">
        <ele>1924.8</ele>
        <time>2022-06-15T08:27:29Z</time>
      </trkpt>
      <trkpt lat="45.69384" lon="6.69607">
        <ele>1925.1</ele>
        <time>2022-06-15T08:27:30Z</time>
      </trkpt>
      <trkpt lat="45.69384" lon="6.69604">
        <ele>1925.4</ele>
        <time>2022-06-15T08:27:31Z</time>
      </trkpt>
      <trkpt lat="45.69385" lon="6.69601">
        <ele>1925.7</ele>
        <time>2022-06-15T08:27:32Z</time>
      </trkpt>
      <trkpt lat="45.69385" lon="6.69598">
        <ele>1926</ele>
        <time>2022-06-15T08:27:33Z</time>
      </trkpt>
      <trkpt lat="45.69385" lon="6.69595">
        <ele>1926.2</ele>
        <time>2022-06-15T08:27:34Z</time>
      </trkpt>
      <trkpt lat="45.69385" lon="6.69592">
        <ele>1926.5</ele>
        <time>2022-06-15T08:27:35Z</time>
      </trkpt>
      <trkpt lat="45.69386" lon="6.69589">
        <ele>1926.8</ele>
        <time>2022-06-15T08:27:36Z</time>
      </trkpt>
      <trkpt lat="45.69387" lon="6.69586">
        <ele>1927.2</ele>
        <time>2022-06-15T08:27:37Z</time>
      </trkpt>
      <trkpt lat="45.69387" lon="6.69583">
        <ele>1927.5</ele>
        <time>2022-06-15T08:27:38Z</time>
      </trkpt>
      <trkpt lat="45.69387" lon="6.6958">
        <ele>1927.8</ele>
        <time>2022-06-15T08:27:39Z</time>
      </trkpt>
      <trkpt lat="45.69388" lon="6.69577">
        <ele>1928.1</ele>
        <time>2022-06-15T08:27:40Z</time>
      </trkpt>
      <trkpt lat="45.69388" lon="6.69574">
        <ele>1928.4</ele>
        <time>2022-06-15T08:27:41Z</time>
      </trkpt>
      <trkpt lat="45.69388" lon="6.69571">
        <ele>1928.7</ele>
        <time>2022-06-15T08:27:42Z</time>
      </trkpt>
      <trkpt lat="45.69389" lon="6.69568">
        <ele>1929</ele>
        <time>2022-06-15T08:27:43Z</time>
      </trkpt>
      <trkpt lat="45.69389" lon="6.69565">
        <ele>1929.3</ele>
        <time>2022-06-15T08:27:44Z</time>
      </trkpt>
      <trkpt lat="45.69389" lon="6.69562">
        <ele>1929.6</ele>
        <time>2022-06-15T08:27:45Z</time>
      </trkpt>
      <trkpt lat="45.69389" lon="6.69559">
        <ele>1929.8</ele>
        <time>2022-06-15T08:27:46Z</time>
      </trkpt>
      <trkpt lat="45.6939" lon="6.69556">
        <ele>1930</ele>
        <time>2022-06-15T08:27:47Z</time>
      </trkpt>
      <trkpt lat="45.6939" lon="6.69553">
        <ele>1930.2</ele>
        <time>2022-06-15T08:27:48Z</time>
      </trkpt>
      <trkpt lat="45.6939" lon="6.69549">
        <ele>1930.3</ele>
        <time>2022-06-15T08:27:49Z</time>
      </trkpt>
      <trkpt lat="45.6939" lon="6.69546">
        <ele>1930.4</ele>
        <time>2022-06-15T08:27:50Z</time>
      </trkpt>
      <trkpt lat="45.6939" lon="6.69543">
        <ele>1930.6</ele>
        <time>2022-06-15T08:27:51Z</time>
      </trkpt>
      <trkpt lat="45.69391" lon="6.69541">
        <ele>1930.7</ele>
        <time>2022-06-15T08:27:52Z</time>
      </trkpt>
      <trkpt lat="45.69391" lon="6.69538">
        <ele>1930.9</ele>
        <time>2022-06-15T08:27:53Z</time>
      </trkpt>
      <trkpt lat="45.69391" lon="6.69535">
        <ele>1931.1</ele>
        <time>2022-06-15T08:27:54Z</time>
      </trkpt>
      <trkpt lat="45.69392" lon="6.69532">
        <ele>1931.2</ele>
        <time>2022-06-15T08:27:55Z</time>
      </trkpt>
      <trkpt lat="45.69392" lon="6.69529">
        <ele>1931.4</ele>
        <time>2022-06-15T08:27:56Z</time>
      </trkpt>
      <trkpt lat="45.69392" lon="6.69526">
        <ele>1931.6</ele>
        <time>2022-06-15T08:27:57Z</time>
      </trkpt>
      <trkpt lat="45.69392" lon="6.69523">
        <ele>1931.8</ele>
        <time>2022-06-15T08:27:58Z</time>
      </trkpt>
      <trkpt lat="45.69393" lon="6.6952">
        <ele>1932.1</ele>
        <time>2022-06-15T08:27:59Z</time>
      </trkpt>
      <trkpt lat="45.69393" lon="6.69517">
        <ele>1932.4</ele>
        <time>2022-06-15T08:28:00Z</time>
      </trkpt>
      <trkpt lat="45.69393" lon="6.69514">
        <ele>1932.7</ele>
        <time>2022-06-15T08:28:01Z</time>
      </trkpt>
      <trkpt lat="45.69393" lon="6.69511">
        <ele>1932.9</ele>
        <time>2022-06-15T08:28:02Z</time>
      </trkpt>
      <trkpt lat="45.69394" lon="6.69508">
        <ele>1933.2</ele>
        <time>2022-06-15T08:28:03Z</time>
      </trkpt>
      <trkpt lat="45.69393" lon="6.69506">
        <ele>1933.4</ele>
        <time>2022-06-15T08:28:04Z</time>
      </trkpt>
      <trkpt lat="45.69393" lon="6.69503">
        <ele>1933.6</ele>
        <time>2022-06-15T08:28:05Z</time>
      </trkpt>
      <trkpt lat="45.69393" lon="6.69499">
        <ele>1933.8</ele>
        <time>2022-06-15T08:28:06Z</time>
      </trkpt>
      <trkpt lat="45.69393" lon="6.69496">
        <ele>1934.1</ele>
        <time>2022-06-15T08:28:07Z</time>
      </trkpt>
      <trkpt lat="45.69393" lon="6.69493">
        <ele>1934.4</ele>
        <time>2022-06-15T08:28:08Z</time>
      </trkpt>
      <trkpt lat="45.69394" lon="6.6949">
        <ele>1934.7</ele>
        <time>2022-06-15T08:28:09Z</time>
      </trkpt>
      <trkpt lat="45.69393" lon="6.69487">
        <ele>1934.9</ele>
        <time>2022-06-15T08:28:10Z</time>
      </trkpt>
      <trkpt lat="45.69393" lon="6.69484">
        <ele>1935</ele>
        <time>2022-06-15T08:28:11Z</time>
      </trkpt>
      <trkpt lat="45.69392" lon="6.69481">
        <ele>1935.1</ele>
        <time>2022-06-15T08:28:12Z</time>
      </trkpt>
      <trkpt lat="45.69392" lon="6.69478">
        <ele>1935.3</ele>
        <time>2022-06-15T08:28:13Z</time>
      </trkpt>
      <trkpt lat="45.69392" lon="6.69475">
        <ele>1935.5</ele>
        <time>2022-06-15T08:28:14Z</time>
      </trkpt>
      <trkpt lat="45.69392" lon="6.69472">
        <ele>1935.7</ele>
        <time>2022-06-15T08:28:15Z</time>
      </trkpt>
      <trkpt lat="45.69391" lon="6.69469">
        <ele>1935.9</ele>
        <time>2022-06-15T08:28:16Z</time>
      </trkpt>
      <trkpt lat="45.69391" lon="6.69466">
        <ele>1936.1</ele>
        <time>2022-06-15T08:28:17Z</time>
      </trkpt>
      <trkpt lat="45.69391" lon="6.69462">
        <ele>1936.2</ele>
        <time>2022-06-15T08:28:18Z</time>
      </trkpt>
      <trkpt lat="45.6939" lon="6.69459">
        <ele>1936.3</ele>
        <time>2022-06-15T08:28:19Z</time>
      </trkpt>
      <trkpt lat="45.6939" lon="6.69457">
        <ele>1936.3</ele>
        <time>2022-06-15T08:28:20Z</time>
      </trkpt>
      <trkpt lat="45.69389" lon="6.69454">
        <ele>1936.4</ele>
        <time>2022-06-15T08:28:21Z</time>
      </trkpt>
      <trkpt lat="45.69389" lon="6.69451">
        <ele>1936.4</ele>
        <time>2022-06-15T08:28:22Z</time>
      </trkpt>
      <trkpt lat="45.69389" lon="6.69448">
        <ele>1936.6</ele>
        <time>2022-06-15T08:28:23Z</time>
      </trkpt>
      <trkpt lat="45.69388" lon="6.69445">
        <ele>1936.8</ele>
        <time>2022-06-15T08:28:24Z</time>
      </trkpt>
      <trkpt lat="45.69388" lon="6.69442">
        <ele>1937.1</ele>
        <time>2022-06-15T08:28:25Z</time>
      </trkpt>
      <trkpt lat="45.69388" lon="6.69438">
        <ele>1937.4</ele>
        <time>2022-06-15T08:28:26Z</time>
      </trkpt>
      <trkpt lat="45.69388" lon="6.69435">
        <ele>1937.7</ele>
        <time>2022-06-15T08:28:27Z</time>
      </trkpt>
      <trkpt lat="45.69388" lon="6.69432">
        <ele>1937.9</ele>
        <time>2022-06-15T08:28:28Z</time>
      </trkpt>
      <trkpt lat="45.69387" lon="6.69429">
        <ele>1938</ele>
        <time>2022-06-15T08:28:29Z</time>
      </trkpt>
      <trkpt lat="45.69387" lon="6.69427">
        <ele>1938.1</ele>
        <time>2022-06-15T08:28:30Z</time>
      </trkpt>
      <trkpt lat="45.69386" lon="6.69424">
        <ele>1938.2</ele>
        <time>2022-06-15T08:28:31Z</time>
      </trkpt>
      <trkpt lat="45.69385" lon="6.69421">
        <ele>1938.3</ele>
        <time>2022-06-15T08:28:32Z</time>
      </trkpt>
      <trkpt lat="45.69385" lon="6.69418">
        <ele>1938.4</ele>
        <time>2022-06-15T08:28:33Z</time>
      </trkpt>
      <trkpt lat="45.69384" lon="6.69415">
        <ele>1938.5</ele>
        <time>2022-06-15T08:28:34Z</time>
      </trkpt>
      <trkpt lat="45.69383" lon="6.69413">
        <ele>1938.8</ele>
        <time>2022-06-15T08:28:35Z</time>
      </trkpt>
      <trkpt lat="45.69383" lon="6.6941">
        <ele>1939.2</ele>
        <time>2022-06-15T08:28:36Z</time>
      </trkpt>
      <trkpt lat="45.69382" lon="6.69407">
        <ele>1939.6</ele>
        <time>2022-06-15T08:28:37Z</time>
      </trkpt>
      <trkpt lat="45.69381" lon="6.69404">
        <ele>1939.9</ele>
        <time>2022-06-15T08:28:38Z</time>
      </trkpt>
      <trkpt lat="45.69381" lon="6.69401">
        <ele>1940.2</ele>
        <time>2022-06-15T08:28:39Z</time>
      </trkpt>
      <trkpt lat="45.6938" lon="6.69398">
        <ele>1940.5</ele>
        <time>2022-06-15T08:28:40Z</time>
      </trkpt>
      <trkpt lat="45.69379" lon="6.69395">
        <ele>1940.8</ele>
        <time>2022-06-15T08:28:41Z</time>
      </trkpt>
      <trkpt lat="45.69378" lon="6.69392">
        <ele>1941</ele>
        <time>2022-06-15T08:28:42Z</time>
      </trkpt>
      <trkpt lat="45.69378" lon="6.69389">
        <ele>1941.2</ele>
        <time>2022-06-15T08:28:43Z</time>
      </trkpt>
      <trkpt lat="45.69376" lon="6.69387">
        <ele>1941.4</ele>
        <time>2022-06-15T08:28:44Z</time>
      </trkpt>
      <trkpt lat="45.69375" lon="6.69384">
        <ele>1941.7</ele>
        <time>2022-06-15T08:28:45Z</time>
      </trkpt>
      <trkpt lat="45.69374" lon="6.69381">
        <ele>1942</ele>
        <time>2022-06-15T08:28:46Z</time>
      </trkpt>
      <trkpt lat="45.69373" lon="6.69378">
        <ele>1942.2</ele>
        <time>2022-06-15T08:28:47Z</time>
      </trkpt>
      <trkpt lat="45.69372" lon="6.69376">
        <ele>1942.5</ele>
        <time>2022-06-15T08:28:48Z</time>
      </trkpt>
      <trkpt lat="45.69371" lon="6.69371">
        <ele>1942.9</ele>
        <time>2022-06-15T08:28:49Z</time>
      </trkpt>
      <trkpt lat="45.6937" lon="6.6937">
        <ele>1943.1</ele>
        <time>2022-06-15T08:28:50Z</time>
      </trkpt>
      <trkpt lat="45.69369" lon="6.69366">
        <ele>1943.5</ele>
        <time>2022-06-15T08:28:51Z</time>
      </trkpt>
      <trkpt lat="45.69368" lon="6.69364">
        <ele>1943.6</ele>
        <time>2022-06-15T08:28:52Z</time>
      </trkpt>
      <trkpt lat="45.69366" lon="6.6936">
        <ele>1943.7</ele>
        <time>2022-06-15T08:28:53Z</time>
      </trkpt>
      <trkpt lat="45.69365" lon="6.69359">
        <ele>1943.7</ele>
        <time>2022-06-15T08:28:54Z</time>
      </trkpt>
      <trkpt lat="45.69364" lon="6.69356">
        <ele>1943.6</ele>
        <time>2022-06-15T08:28:55Z</time>
      </trkpt>
      <trkpt lat="45.69362" lon="6.69353">
        <ele>1943.6</ele>
        <time>2022-06-15T08:28:56Z</time>
      </trkpt>
      <trkpt lat="45.69361" lon="6.6935">
        <ele>1943.6</ele>
        <time>2022-06-15T08:28:57Z</time>
      </trkpt>
      <trkpt lat="45.6936" lon="6.69347">
        <ele>1943.6</ele>
        <time>2022-06-15T08:28:58Z</time>
      </trkpt>
      <trkpt lat="45.69358" lon="6.69344">
        <ele>1943.6</ele>
        <time>2022-06-15T08:28:59Z</time>
      </trkpt>
      <trkpt lat="45.69357" lon="6.69341">
        <ele>1943.6</ele>
        <time>2022-06-15T08:29:00Z</time>
      </trkpt>
      <trkpt lat="45.69355" lon="6.69339">
        <ele>1943.6</ele>
        <time>2022-06-15T08:29:01Z</time>
      </trkpt>
      <trkpt lat="45.69354" lon="6.69336">
        <ele>1943.7</ele>
        <time>2022-06-15T08:29:02Z</time>
      </trkpt>
      <trkpt lat="45.69352" lon="6.69333">
        <ele>1943.8</ele>
        <time>2022-06-15T08:29:03Z</time>
      </trkpt>
      <trkpt lat="45.69351" lon="6.6933">
        <ele>1944</ele>
        <time>2022-06-15T08:29:04Z</time>
      </trkpt>
      <trkpt lat="45.69349" lon="6.69327">
        <ele>1944.4</ele>
        <time>2022-06-15T08:29:05Z</time>
      </trkpt>
      <trkpt lat="45.69348" lon="6.69324">
        <ele>1944.7</ele>
        <time>2022-06-15T08:29:06Z</time>
      </trkpt>
      <trkpt lat="45.69346" lon="6.69321">
        <ele>1944.9</ele>
        <time>2022-06-15T08:29:07Z</time>
      </trkpt>
      <trkpt lat="45.69345" lon="6.69318">
        <ele>1945.3</ele>
        <time>2022-06-15T08:29:08Z</time>
      </trkpt>
      <trkpt lat="45.69342" lon="6.69312">
        <ele>1945.9</ele>
        <time>2022-06-15T08:29:09Z</time>
      </trkpt>
      <trkpt lat="45.69341" lon="6.6931">
        <ele>1946.1</ele>
        <time>2022-06-15T08:29:10Z</time>
      </trkpt>
      <trkpt lat="45.69339" lon="6.69306">
        <ele>1946.4</ele>
        <time>2022-06-15T08:29:11Z</time>
      </trkpt>
      <trkpt lat="45.69337" lon="6.69303">
        <ele>1946.2</ele>
        <time>2022-06-15T08:29:12Z</time>
      </trkpt>
      <trkpt lat="45.69334" lon="6.69298">
        <ele>1945.5</ele>
        <time>2022-06-15T08:29:13Z</time>
      </trkpt>
      <trkpt lat="45.69333" lon="6.69297">
        <ele>1945.3</ele>
        <time>2022-06-15T08:29:14Z</time>
      </trkpt>
      <trkpt lat="45.69331" lon="6.69295">
        <ele>1945.1</ele>
        <time>2022-06-15T08:29:15Z</time>
      </trkpt>
      <trkpt lat="45.69329" lon="6.69291">
        <ele>1944.9</ele>
        <time>2022-06-15T08:29:16Z</time>
      </trkpt>
      <trkpt lat="45.69328" lon="6.6929">
        <ele>1944.9</ele>
        <time>2022-06-15T08:29:17Z</time>
      </trkpt>
      <trkpt lat="45.69326" lon="6.69286">
        <ele>1945</ele>
        <time>2022-06-15T08:29:18Z</time>
      </trkpt>
      <trkpt lat="45.69323" lon="6.69283">
        <ele>1945.1</ele>
        <time>2022-06-15T08:29:19Z</time>
      </trkpt>
      <trkpt lat="45.69321" lon="6.69279">
        <ele>1945.5</ele>
        <time>2022-06-15T08:29:20Z</time>
      </trkpt>
      <trkpt lat="45.69319" lon="6.69275">
        <ele>1945.9</ele>
        <time>2022-06-15T08:29:21Z</time>
      </trkpt>
      <trkpt lat="45.69316" lon="6.69273">
        <ele>1946.2</ele>
        <time>2022-06-15T08:29:22Z</time>
      </trkpt>
      <trkpt lat="45.69314" lon="6.6927">
        <ele>1946.5</ele>
        <time>2022-06-15T08:29:23Z</time>
      </trkpt>
      <trkpt lat="45.69312" lon="6.69268">
        <ele>1946.6</ele>
        <time>2022-06-15T08:29:24Z</time>
      </trkpt>
      <trkpt lat="45.69309" lon="6.69265">
        <ele>1946.7</ele>
        <time>2022-06-15T08:29:25Z</time>
      </trkpt>
      <trkpt lat="45.69308" lon="6.69265">
        <ele>1946.7</ele>
        <time>2022-06-15T08:29:26Z</time>
      </trkpt>
      <trkpt lat="45.69307" lon="6.69264">
        <ele>1946.6</ele>
        <time>2022-06-15T08:29:27Z</time>
      </trkpt>
      <trkpt lat="45.69305" lon="6.69262">
        <ele>1946.7</ele>
        <time>2022-06-15T08:29:28Z</time>
      </trkpt>
      <trkpt lat="45.69303" lon="6.69261">
        <ele>1947</ele>
        <time>2022-06-15T08:29:29Z</time>
      </trkpt>
      <trkpt lat="45.69301" lon="6.69259">
        <ele>1947.3</ele>
        <time>2022-06-15T08:29:30Z</time>
      </trkpt>
      <trkpt lat="45.69299" lon="6.69257">
        <ele>1947.7</ele>
        <time>2022-06-15T08:29:31Z</time>
      </trkpt>
      <trkpt lat="45.69297" lon="6.69255">
        <ele>1948.1</ele>
        <time>2022-06-15T08:29:32Z</time>
      </trkpt>
      <trkpt lat="45.69295" lon="6.69253">
        <ele>1948.6</ele>
        <time>2022-06-15T08:29:33Z</time>
      </trkpt>
      <trkpt lat="45.69293" lon="6.69252">
        <ele>1949</ele>
        <time>2022-06-15T08:29:34Z</time>
      </trkpt>
      <trkpt lat="45.6929" lon="6.69251">
        <ele>1949.5</ele>
        <time>2022-06-15T08:29:35Z</time>
      </trkpt>
      <trkpt lat="45.69289" lon="6.69251">
        <ele>1949.7</ele>
        <time>2022-06-15T08:29:36Z</time>
      </trkpt>
      <trkpt lat="45.69286" lon="6.6925">
        <ele>1950.1</ele>
        <time>2022-06-15T08:29:37Z</time>
      </trkpt>
      <trkpt lat="45.69284" lon="6.69249">
        <ele>1950.5</ele>
        <time>2022-06-15T08:29:38Z</time>
      </trkpt>
      <trkpt lat="45.69282" lon="6.69249">
        <ele>1950.7</ele>
        <time>2022-06-15T08:29:39Z</time>
      </trkpt>
      <trkpt lat="45.6928" lon="6.69248">
        <ele>1951</ele>
        <time>2022-06-15T08:29:40Z</time>
      </trkpt>
      <trkpt lat="45.69278" lon="6.69248">
        <ele>1951.3</ele>
        <time>2022-06-15T08:29:41Z</time>
      </trkpt>
      <trkpt lat="45.69276" lon="6.69248">
        <ele>1951.5</ele>
        <time>2022-06-15T08:29:42Z</time>
      </trkpt>
      <trkpt lat="45.69274" lon="6.69248">
        <ele>1951.7</ele>
        <time>2022-06-15T08:29:43Z</time>
      </trkpt>
      <trkpt lat="45.69271" lon="6.69247">
        <ele>1952</ele>
        <time>2022-06-15T08:29:44Z</time>
      </trkpt>
      <trkpt lat="45.69269" lon="6.69247">
        <ele>1952.2</ele>
        <time>2022-06-15T08:29:45Z</time>
      </trkpt>
      <trkpt lat="45.69267" lon="6.69246">
        <ele>1952.5</ele>
        <time>2022-06-15T08:29:46Z</time>
      </trkpt>
      <trkpt lat="45.69264" lon="6.69245">
        <ele>1952.9</ele>
        <time>2022-06-15T08:29:47Z</time>
      </trkpt>
      <trkpt lat="45.69263" lon="6.69245">
        <ele>1953</ele>
        <time>2022-06-15T08:29:48Z</time>
      </trkpt>
      <trkpt lat="45.6926" lon="6.69245">
        <ele>1953.3</ele>
        <time>2022-06-15T08:29:49Z</time>
      </trkpt>
      <trkpt lat="45.69259" lon="6.69246">
        <ele>1953.4</ele>
        <time>2022-06-15T08:29:50Z</time>
      </trkpt>
      <trkpt lat="45.69256" lon="6.69246">
        <ele>1953.7</ele>
        <time>2022-06-15T08:29:51Z</time>
      </trkpt>
      <trkpt lat="45.69255" lon="6.69246">
        <ele>1953.8</ele>
        <time>2022-06-15T08:29:52Z</time>
      </trkpt>
      <trkpt lat="45.69253" lon="6.69246">
        <ele>1954</ele>
        <time>2022-06-15T08:29:53Z</time>
      </trkpt>
      <trkpt lat="45.69251" lon="6.69246">
        <ele>1954.2</ele>
        <time>2022-06-15T08:29:54Z</time>
      </trkpt>
      <trkpt lat="45.69249" lon="6.69246">
        <ele>1954.5</ele>
        <time>2022-06-15T08:29:55Z</time>
      </trkpt>
      <trkpt lat="45.69247" lon="6.69245">
        <ele>1954.7</ele>
        <time>2022-06-15T08:29:56Z</time>
      </trkpt>
      <trkpt lat="45.69244" lon="6.69245">
        <ele>1954.9</ele>
        <time>2022-06-15T08:29:57Z</time>
      </trkpt>
      <trkpt lat="45.69242" lon="6.69245">
        <ele>1955.1</ele>
        <time>2022-06-15T08:29:58Z</time>
      </trkpt>
      <trkpt lat="45.6924" lon="6.69245">
        <ele>1955.3</ele>
        <time>2022-06-15T08:29:59Z</time>
      </trkpt>
      <trkpt lat="45.69238" lon="6.69245">
        <ele>1955.6</ele>
        <time>2022-06-15T08:30:00Z</time>
      </trkpt>
      <trkpt lat="45.69235" lon="6.69244">
        <ele>1956</ele>
        <time>2022-06-15T08:30:01Z</time>
      </trkpt>
      <trkpt lat="45.69234" lon="6.69244">
        <ele>1956.1</ele>
        <time>2022-06-15T08:30:02Z</time>
      </trkpt>
      <trkpt lat="45.69231" lon="6.69244">
        <ele>1956.3</ele>
        <time>2022-06-15T08:30:03Z</time>
      </trkpt>
      <trkpt lat="45.69229" lon="6.69244">
        <ele>1956.5</ele>
        <time>2022-06-15T08:30:04Z</time>
      </trkpt>
      <trkpt lat="45.69227" lon="6.69243">
        <ele>1956.8</ele>
        <time>2022-06-15T08:30:05Z</time>
      </trkpt>
      <trkpt lat="45.69225" lon="6.69243">
        <ele>1957</ele>
        <time>2022-06-15T08:30:06Z</time>
      </trkpt>
      <trkpt lat="45.69221" lon="6.69242">
        <ele>1957.3</ele>
        <time>2022-06-15T08:30:07Z</time>
      </trkpt>
      <trkpt lat="45.6922" lon="6.69242">
        <ele>1957.4</ele>
        <time>2022-06-15T08:30:08Z</time>
      </trkpt>
      <trkpt lat="45.69218" lon="6.69242">
        <ele>1957.5</ele>
        <time>2022-06-15T08:30:09Z</time>
      </trkpt>
      <trkpt lat="45.69216" lon="6.69242">
        <ele>1957.6</ele>
        <time>2022-06-15T08:30:10Z</time>
      </trkpt>
      <trkpt lat="45.69213" lon="6.69242">
        <ele>1957.7</ele>
        <time>2022-06-15T08:30:11Z</time>
      </trkpt>
      <trkpt lat="45.69211" lon="6.69242">
        <ele>1957.8</ele>
        <time>2022-06-15T08:30:12Z</time>
      </trkpt>
      <trkpt lat="45.69209" lon="6.69241">
        <ele>1957.9</ele>
        <time>2022-06-15T08:30:13Z</time>
      </trkpt>
      <trkpt lat="45.69207" lon="6.69241">
        <ele>1958.1</ele>
        <time>2022-06-15T08:30:14Z</time>
      </trkpt>
      <trkpt lat="45.69205" lon="6.6924">
        <ele>1958.2</ele>
        <time>2022-06-15T08:30:15Z</time>
      </trkpt>
      <trkpt lat="45.69202" lon="6.69239">
        <ele>1958.4</ele>
        <time>2022-06-15T08:30:16Z</time>
      </trkpt>
      <trkpt lat="45.692" lon="6.69238">
        <ele>1958.6</ele>
        <time>2022-06-15T08:30:17Z</time>
      </trkpt>
      <trkpt lat="45.69198" lon="6.69237">
        <ele>1958.7</ele>
        <time>2022-06-15T08:30:18Z</time>
      </trkpt>
      <trkpt lat="45.69196" lon="6.69236">
        <ele>1958.9</ele>
        <time>2022-06-15T08:30:19Z</time>
      </trkpt>
      <trkpt lat="45.69194" lon="6.69235">
        <ele>1959.2</ele>
        <time>2022-06-15T08:30:20Z</time>
      </trkpt>
      <trkpt lat="45.69192" lon="6.69233">
        <ele>1959.6</ele>
        <time>2022-06-15T08:30:21Z</time>
      </trkpt>
      <trkpt lat="45.6919" lon="6.69231">
        <ele>1960</ele>
        <time>2022-06-15T08:30:22Z</time>
      </trkpt>
      <trkpt lat="45.69188" lon="6.6923">
        <ele>1960.4</ele>
        <time>2022-06-15T08:30:23Z</time>
      </trkpt>
      <trkpt lat="45.69186" lon="6.69228">
        <ele>1960.7</ele>
        <time>2022-06-15T08:30:24Z</time>
      </trkpt>
      <trkpt lat="45.69184" lon="6.69226">
        <ele>1961</ele>
        <time>2022-06-15T08:30:25Z</time>
      </trkpt>
      <trkpt lat="45.69182" lon="6.69225">
        <ele>1961.3</ele>
        <time>2022-06-15T08:30:26Z</time>
      </trkpt>
      <trkpt lat="45.69181" lon="6.69223">
        <ele>1961.5</ele>
        <time>2022-06-15T08:30:27Z</time>
      </trkpt>
      <trkpt lat="45.69179" lon="6.69221">
        <ele>1961.7</ele>
        <time>2022-06-15T08:30:28Z</time>
      </trkpt>
      <trkpt lat="45.69177" lon="6.69219">
        <ele>1962</ele>
        <time>2022-06-15T08:30:29Z</time>
      </trkpt>
      <trkpt lat="45.69176" lon="6.69217">
        <ele>1962.1</ele>
        <time>2022-06-15T08:30:30Z</time>
      </trkpt>
      <trkpt lat="45.69174" lon="6.69214">
        <ele>1962.3</ele>
        <time>2022-06-15T08:30:31Z</time>
      </trkpt>
      <trkpt lat="45.69173" lon="6.69212">
        <ele>1962.5</ele>
        <time>2022-06-15T08:30:32Z</time>
      </trkpt>
      <trkpt lat="45.69171" lon="6.6921">
        <ele>1962.7</ele>
        <time>2022-06-15T08:30:33Z</time>
      </trkpt>
      <trkpt lat="45.6917" lon="6.69207">
        <ele>1962.8</ele>
        <time>2022-06-15T08:30:34Z</time>
      </trkpt>
      <trkpt lat="45.69168" lon="6.69203">
        <ele>1962.9</ele>
        <time>2022-06-15T08:30:35Z</time>
      </trkpt>
      <trkpt lat="45.69168" lon="6.69202">
        <ele>1962.9</ele>
        <time>2022-06-15T08:30:36Z</time>
      </trkpt>
      <trkpt lat="45.69167" lon="6.69199">
        <ele>1963</ele>
        <time>2022-06-15T08:30:37Z</time>
      </trkpt>
      <trkpt lat="45.69166" lon="6.69196">
        <ele>1963.6</ele>
        <time>2022-06-15T08:30:38Z</time>
      </trkpt>
      <trkpt lat="45.69165" lon="6.69193">
        <ele>1964.1</ele>
        <time>2022-06-15T08:30:39Z</time>
      </trkpt>
      <trkpt lat="45.69163" lon="6.6919">
        <ele>1964.7</ele>
        <time>2022-06-15T08:30:40Z</time>
      </trkpt>
      <trkpt lat="45.69162" lon="6.69187">
        <ele>1965.2</ele>
        <time>2022-06-15T08:30:41Z</time>
      </trkpt>
      <trkpt lat="45.69161" lon="6.69184">
        <ele>1965.6</ele>
        <time>2022-06-15T08:30:42Z</time>
      </trkpt>
      <trkpt lat="45.6916" lon="6.6918">
        <ele>1966</ele>
        <time>2022-06-15T08:30:43Z</time>
      </trkpt>
      <trkpt lat="45.69159" lon="6.69176">
        <ele>1966.3</ele>
        <time>2022-06-15T08:30:44Z</time>
      </trkpt>
      <trkpt lat="45.69158" lon="6.69172">
        <ele>1966.5</ele>
        <time>2022-06-15T08:30:45Z</time>
      </trkpt>
      <trkpt lat="45.69157" lon="6.69168">
        <ele>1966.6</ele>
        <time>2022-06-15T08:30:46Z</time>
      </trkpt>
      <trkpt lat="45.69155" lon="6.69164">
        <ele>1966.8</ele>
        <time>2022-06-15T08:30:47Z</time>
      </trkpt>
      <trkpt lat="45.69154" lon="6.69159">
        <ele>1967</ele>
        <time>2022-06-15T08:30:48Z</time>
      </trkpt>
      <trkpt lat="45.69153" lon="6.69155">
        <ele>1967</ele>
        <time>2022-06-15T08:30:49Z</time>
      </trkpt>
      <trkpt lat="45.69152" lon="6.6915">
        <ele>1967.1</ele>
        <time>2022-06-15T08:30:50Z</time>
      </trkpt>
      <trkpt lat="45.69151" lon="6.69146">
        <ele>1967.1</ele>
        <time>2022-06-15T08:30:51Z</time>
      </trkpt>
      <trkpt lat="45.6915" lon="6.69141">
        <ele>1967</ele>
        <time>2022-06-15T08:30:52Z</time>
      </trkpt>
      <trkpt lat="45.69149" lon="6.69137">
        <ele>1967</ele>
        <time>2022-06-15T08:30:53Z</time>
      </trkpt>
      <trkpt lat="45.69147" lon="6.69132">
        <ele>1967.2</ele>
        <time>2022-06-15T08:30:54Z</time>
      </trkpt>
      <trkpt lat="45.69147" lon="6.69128">
        <ele>1967.3</ele>
        <time>2022-06-15T08:30:55Z</time>
      </trkpt>
      <trkpt lat="45.69146" lon="6.69123">
        <ele>1967.4</ele>
        <time>2022-06-15T08:30:56Z</time>
      </trkpt>
      <trkpt lat="45.69145" lon="6.69119">
        <ele>1967.5</ele>
        <time>2022-06-15T08:30:57Z</time>
      </trkpt>
      <trkpt lat="45.69144" lon="6.69114">
        <ele>1967.6</ele>
        <time>2022-06-15T08:30:58Z</time>
      </trkpt>
      <trkpt lat="45.69143" lon="6.6911">
        <ele>1967.8</ele>
        <time>2022-06-15T08:30:59Z</time>
      </trkpt>
      <trkpt lat="45.69142" lon="6.69106">
        <ele>1967.9</ele>
        <time>2022-06-15T08:31:00Z</time>
      </trkpt>
      <trkpt lat="45.69141" lon="6.69102">
        <ele>1968</ele>
        <time>2022-06-15T08:31:01Z</time>
      </trkpt>
      <trkpt lat="45.6914" lon="6.69097">
        <ele>1968</ele>
        <time>2022-06-15T08:31:02Z</time>
      </trkpt>
      <trkpt lat="45.69138" lon="6.69093">
        <ele>1968.2</ele>
        <time>2022-06-15T08:31:03Z</time>
      </trkpt>
      <trkpt lat="45.69137" lon="6.69089">
        <ele>1968.4</ele>
        <time>2022-06-15T08:31:04Z</time>
      </trkpt>
      <trkpt lat="45.69136" lon="6.69085">
        <ele>1968.6</ele>
        <time>2022-06-15T08:31:05Z</time>
      </trkpt>
      <trkpt lat="45.69135" lon="6.69081">
        <ele>1968.7</ele>
        <time>2022-06-15T08:31:06Z</time>
      </trkpt>
      <trkpt lat="45.69134" lon="6.69078">
        <ele>1969</ele>
        <time>2022-06-15T08:31:07Z</time>
      </trkpt>
      <trkpt lat="45.69133" lon="6.69076">
        <ele>1969.2</ele>
        <time>2022-06-15T08:31:08Z</time>
      </trkpt>
      <trkpt lat="45.69132" lon="6.69074">
        <ele>1969.4</ele>
        <time>2022-06-15T08:31:09Z</time>
      </trkpt>
      <trkpt lat="45.69131" lon="6.69073">
        <ele>1969.5</ele>
        <time>2022-06-15T08:31:10Z</time>
      </trkpt>
      <trkpt lat="45.69131" lon="6.69073">
        <ele>1969.5</ele>
        <time>2022-06-15T08:31:11Z</time>
      </trkpt>
      <trkpt lat="45.69131" lon="6.69073">
        <ele>1969.5</ele>
        <time>2022-06-15T08:31:12Z</time>
      </trkpt>
      <trkpt lat="45.6913" lon="6.69056">
        <ele>1969.7</ele>
        <time>2022-06-15T08:34:15Z</time>
      </trkpt>
      <trkpt lat="45.6913" lon="6.69055">
        <ele>1969.7</ele>
        <time>2022-06-15T08:34:16Z</time>
      </trkpt>
      <trkpt lat="45.6913" lon="6.69054">
        <ele>1969.7</ele>
        <time>2022-06-15T08:34:17Z</time>
      </trkpt>
      <trkpt lat="45.6913" lon="6.69052">
        <ele>1969.7</ele>
        <time>2022-06-15T08:34:18Z</time>
      </trkpt>
      <trkpt lat="45.6913" lon="6.69051">
        <ele>1969.8</ele>
        <time>2022-06-15T08:34:19Z</time>
      </trkpt>
      <trkpt lat="45.69129" lon="6.69049">
        <ele>1969.8</ele>
        <time>2022-06-15T08:34:20Z</time>
      </trkpt>
      <trkpt lat="45.69129" lon="6.69048">
        <ele>1969.9</ele>
        <time>2022-06-15T08:34:21Z</time>
      </trkpt>
      <trkpt lat="45.69129" lon="6.69046">
        <ele>1969.9</ele>
        <time>2022-06-15T08:34:22Z</time>
      </trkpt>
      <trkpt lat="45.69129" lon="6.69045">
        <ele>1969.9</ele>
        <time>2022-06-15T08:34:23Z</time>
      </trkpt>
      <trkpt lat="45.69128" lon="6.69043">
        <ele>1970</ele>
        <time>2022-06-15T08:34:24Z</time>
      </trkpt>
      <trkpt lat="45.69128" lon="6.69042">
        <ele>1970</ele>
        <time>2022-06-15T08:34:25Z</time>
      </trkpt>
      <trkpt lat="45.69128" lon="6.6904">
        <ele>1970</ele>
        <time>2022-06-15T08:34:26Z</time>
      </trkpt>
      <trkpt lat="45.69128" lon="6.69038">
        <ele>1970</ele>
        <time>2022-06-15T08:34:27Z</time>
      </trkpt>
      <trkpt lat="45.69127" lon="6.69036">
        <ele>1970.1</ele>
        <time>2022-06-15T08:34:28Z</time>
      </trkpt>
      <trkpt lat="45.69127" lon="6.69035">
        <ele>1970.1</ele>
        <time>2022-06-15T08:34:29Z</time>
      </trkpt>
      <trkpt lat="45.69126" lon="6.69033">
        <ele>1970</ele>
        <time>2022-06-15T08:34:30Z</time>
      </trkpt>
      <trkpt lat="45.69126" lon="6.69031">
        <ele>1970</ele>
        <time>2022-06-15T08:34:31Z</time>
      </trkpt>
      <trkpt lat="45.69125" lon="6.6903">
        <ele>1970</ele>
        <time>2022-06-15T08:34:32Z</time>
      </trkpt>
      <trkpt lat="45.69124" lon="6.6903">
        <ele>1969.9</ele>
        <time>2022-06-15T08:34:33Z</time>
      </trkpt>
      <trkpt lat="45.69123" lon="6.69031">
        <ele>1969.9</ele>
        <time>2022-06-15T08:34:34Z</time>
      </trkpt>
      <trkpt lat="45.69122" lon="6.69033">
        <ele>1969.9</ele>
        <time>2022-06-15T08:34:35Z</time>
      </trkpt>
      <trkpt lat="45.69123" lon="6.69034">
        <ele>1969.9</ele>
        <time>2022-06-15T08:34:36Z</time>
      </trkpt>
      <trkpt lat="45.69123" lon="6.69034">
        <ele>1969.9</ele>
        <time>2022-06-15T08:34:37Z</time>
      </trkpt>
      <trkpt lat="45.69123" lon="6.69035">
        <ele>1969.9</ele>
        <time>2022-06-15T08:34:38Z</time>
      </trkpt>
      <trkpt lat="45.69123" lon="6.69035">
        <ele>1969.9</ele>
        <time>2022-06-15T08:34:39Z</time>
      </trkpt>
      <trkpt lat="45.69122" lon="6.69033">
        <ele>1969.9</ele>
        <time>2022-06-15T08:45:20Z</time>
      </trkpt>
      <trkpt lat="45.69122" lon="6.6903">
        <ele>1969.8</ele>
        <time>2022-06-15T08:45:21Z</time>
      </trkpt>
      <trkpt lat="45.69123" lon="6.69029">
        <ele>1969.8</ele>
        <time>2022-06-15T08:45:22Z</time>
      </trkpt>
      <trkpt lat="45.69123" lon="6.69027">
        <ele>1969.9</ele>
        <time>2022-06-15T08:45:23Z</time>
      </trkpt>
      <trkpt lat="45.69124" lon="6.69025">
        <ele>1969.9</ele>
        <time>2022-06-15T08:45:24Z</time>
      </trkpt>
      <trkpt lat="45.69125" lon="6.69024">
        <ele>1969.9</ele>
        <time>2022-06-15T08:45:25Z</time>
      </trkpt>
      <trkpt lat="45.69125" lon="6.69024">
        <ele>1969.9</ele>
        <time>2022-06-15T08:45:26Z</time>
      </trkpt>
      <trkpt lat="45.69125" lon="6.69024">
        <ele>1969.9</ele>
        <time>2022-06-15T08:45:27Z</time>
      </trkpt>
      <trkpt lat="45.69127" lon="6.69018">
        <ele>1970</ele>
        <time>2022-06-15T08:45:35Z</time>
      </trkpt>
      <trkpt lat="45.69128" lon="6.69016">
        <ele>1970</ele>
        <time>2022-06-15T08:45:36Z</time>
      </trkpt>
      <trkpt lat="45.69128" lon="6.69014">
        <ele>1970</ele>
        <time>2022-06-15T08:45:37Z</time>
      </trkpt>
      <trkpt lat="45.69129" lon="6.69012">
        <ele>1970.1</ele>
        <time>2022-06-15T08:45:38Z</time>
      </trkpt>
      <trkpt lat="45.6913" lon="6.6901">
        <ele>1970.1</ele>
        <time>2022-06-15T08:45:39Z</time>
      </trkpt>
      <trkpt lat="45.6913" lon="6.69007">
        <ele>1970.1</ele>
        <time>2022-06-15T08:45:40Z</time>
      </trkpt>
      <trkpt lat="45.69129" lon="6.69005">
        <ele>1970</ele>
        <time>2022-06-15T08:45:41Z</time>
      </trkpt>
      <trkpt lat="45.69128" lon="6.69003">
        <ele>1969.9</ele>
        <time>2022-06-15T08:45:42Z</time>
      </trkpt>
      <trkpt lat="45.69127" lon="6.69002">
        <ele>1969.8</ele>
        <time>2022-06-15T08:45:43Z</time>
      </trkpt>
      <trkpt lat="45.69127" lon="6.69001">
        <ele>1969.7</ele>
        <time>2022-06-15T08:45:44Z</time>
      </trkpt>
      <trkpt lat="45.69126" lon="6.69">
        <ele>1969.6</ele>
        <time>2022-06-15T08:45:45Z</time>
      </trkpt>
      <trkpt lat="45.69124" lon="6.68999">
        <ele>1969.4</ele>
        <time>2022-06-15T08:45:46Z</time>
      </trkpt>
      <trkpt lat="45.69123" lon="6.68998">
        <ele>1969.3</ele>
        <time>2022-06-15T08:45:47Z</time>
      </trkpt>
      <trkpt lat="45.69122" lon="6.68997">
        <ele>1969.3</ele>
        <time>2022-06-15T08:45:48Z</time>
      </trkpt>
      <trkpt lat="45.69121" lon="6.68995">
        <ele>1969.2</ele>
        <time>2022-06-15T08:45:49Z</time>
      </trkpt>
      <trkpt lat="45.6912" lon="6.68993">
        <ele>1969.1</ele>
        <time>2022-06-15T08:45:50Z</time>
      </trkpt>
      <trkpt lat="45.69118" lon="6.68992">
        <ele>1968.9</ele>
        <time>2022-06-15T08:45:51Z</time>
      </trkpt>
      <trkpt lat="45.69117" lon="6.6899">
        <ele>1968.7</ele>
        <time>2022-06-15T08:45:52Z</time>
      </trkpt>
      <trkpt lat="45.69115" lon="6.68989">
        <ele>1968.5</ele>
        <time>2022-06-15T08:45:53Z</time>
      </trkpt>
      <trkpt lat="45.69114" lon="6.68988">
        <ele>1968.3</ele>
        <time>2022-06-15T08:45:54Z</time>
      </trkpt>
      <trkpt lat="45.69112" lon="6.68987">
        <ele>1968.1</ele>
        <time>2022-06-15T08:45:55Z</time>
      </trkpt>
      <trkpt lat="45.6911" lon="6.68987">
        <ele>1967.9</ele>
        <time>2022-06-15T08:45:56Z</time>
      </trkpt>
      <trkpt lat="45.6911" lon="6.68987">
        <ele>1967.9</ele>
        <time>2022-06-15T08:45:57Z</time>
      </trkpt>
      <trkpt lat="45.6911" lon="6.68987">
        <ele>1967.9</ele>
        <time>2022-06-15T08:45:58Z</time>
      </trkpt>
      <trkpt lat="45.69114" lon="6.68987">
        <ele>1968.5</ele>
        <time>2022-06-15T08:47:47Z</time>
      </trkpt>
      <trkpt lat="45.69116" lon="6.68985">
        <ele>1968.7</ele>
        <time>2022-06-15T08:47:48Z</time>
      </trkpt>
      <trkpt lat="45.69117" lon="6.68983">
        <ele>1968.9</ele>
        <time>2022-06-15T08:47:49Z</time>
      </trkpt>
      <trkpt lat="45.69118" lon="6.68981">
        <ele>1969.1</ele>
        <time>2022-06-15T08:47:50Z</time>
      </trkpt>
      <trkpt lat="45.69119" lon="6.68979">
        <ele>1969.2</ele>
        <time>2022-06-15T08:47:51Z</time>
      </trkpt>
      <trkpt lat="45.69119" lon="6.68976">
        <ele>1969.4</ele>
        <time>2022-06-15T08:47:52Z</time>
      </trkpt>
      <trkpt lat="45.6912" lon="6.68972">
        <ele>1969.6</ele>
        <time>2022-06-15T08:47:53Z</time>
      </trkpt>
      <trkpt lat="45.69121" lon="6.68967">
        <ele>1969.3</ele>
        <time>2022-06-15T08:47:54Z</time>
      </trkpt>
      <trkpt lat="45.69122" lon="6.68962">
        <ele>1969</ele>
        <time>2022-06-15T08:47:55Z</time>
      </trkpt>
      <trkpt lat="45.69123" lon="6.68957">
        <ele>1968.6</ele>
        <time>2022-06-15T08:47:56Z</time>
      </trkpt>
      <trkpt lat="45.69124" lon="6.6895">
        <ele>1968.4</ele>
        <time>2022-06-15T08:47:57Z</time>
      </trkpt>
      <trkpt lat="45.69126" lon="6.68944">
        <ele>1968.1</ele>
        <time>2022-06-15T08:47:58Z</time>
      </trkpt>
      <trkpt lat="45.69128" lon="6.68936">
        <ele>1967.8</ele>
        <time>2022-06-15T08:47:59Z</time>
      </trkpt>
      <trkpt lat="45.6913" lon="6.68928">
        <ele>1967.4</ele>
        <time>2022-06-15T08:48:00Z</time>
      </trkpt>
      <trkpt lat="45.69132" lon="6.6892">
        <ele>1966.8</ele>
        <time>2022-06-15T08:48:01Z</time>
      </trkpt>
      <trkpt lat="45.69134" lon="6.68912">
        <ele>1966.6</ele>
        <time>2022-06-15T08:48:02Z</time>
      </trkpt>
      <trkpt lat="45.69135" lon="6.68904">
        <ele>1966.6</ele>
        <time>2022-06-15T08:48:03Z</time>
      </trkpt>
      <trkpt lat="45.69136" lon="6.68896">
        <ele>1966.5</ele>
        <time>2022-06-15T08:48:04Z</time>
      </trkpt>
      <trkpt lat="45.69137" lon="6.68887">
        <ele>1966.5</ele>
        <time>2022-06-15T08:48:05Z</time>
      </trkpt>
      <trkpt lat="45.69136" lon="6.68878">
        <ele>1967.1</ele>
        <time>2022-06-15T08:48:06Z</time>
      </trkpt>
      <trkpt lat="45.69135" lon="6.68869">
        <ele>1967.4</ele>
        <time>2022-06-15T08:48:07Z</time>
      </trkpt>
      <trkpt lat="45.69134" lon="6.68859">
        <ele>1967.6</ele>
        <time>2022-06-15T08:48:08Z</time>
      </trkpt>
      <trkpt lat="45.69134" lon="6.6885">
        <ele>1967.2</ele>
        <time>2022-06-15T08:48:09Z</time>
      </trkpt>
      <trkpt lat="45.69134" lon="6.68841">
        <ele>1967.1</ele>
        <time>2022-06-15T08:48:10Z</time>
      </trkpt>
      <trkpt lat="45.69135" lon="6.68831">
        <ele>1967</ele>
        <time>2022-06-15T08:48:11Z</time>
      </trkpt>
      <trkpt lat="45.69138" lon="6.68822">
        <ele>1966.9</ele>
        <time>2022-06-15T08:48:12Z</time>
      </trkpt>
      <trkpt lat="45.69141" lon="6.68814">
        <ele>1966.8</ele>
        <time>2022-06-15T08:48:13Z</time>
      </trkpt>
      <trkpt lat="45.69143" lon="6.68805">
        <ele>1966.4</ele>
        <time>2022-06-15T08:48:14Z</time>
      </trkpt>
      <trkpt lat="45.69146" lon="6.68797">
        <ele>1966.1</ele>
        <time>2022-06-15T08:48:15Z</time>
      </trkpt>
      <trkpt lat="45.69148" lon="6.68788">
        <ele>1965.7</ele>
        <time>2022-06-15T08:48:16Z</time>
      </trkpt>
      <trkpt lat="45.69149" lon="6.68779">
        <ele>1965.1</ele>
        <time>2022-06-15T08:48:17Z</time>
      </trkpt>
      <trkpt lat="45.69149" lon="6.6877">
        <ele>1965.2</ele>
        <time>2022-06-15T08:48:18Z</time>
      </trkpt>
      <trkpt lat="45.69149" lon="6.68761">
        <ele>1965.2</ele>
        <time>2022-06-15T08:48:19Z</time>
      </trkpt>
      <trkpt lat="45.69147" lon="6.68753">
        <ele>1965.2</ele>
        <time>2022-06-15T08:48:20Z</time>
      </trkpt>
      <trkpt lat="45.69145" lon="6.68745">
        <ele>1965.4</ele>
        <time>2022-06-15T08:48:21Z</time>
      </trkpt>
      <trkpt lat="45.69142" lon="6.68738">
        <ele>1965.5</ele>
        <time>2022-06-15T08:48:22Z</time>
      </trkpt>
      <trkpt lat="45.69138" lon="6.68732">
        <ele>1965.5</ele>
        <time>2022-06-15T08:48:23Z</time>
      </trkpt>
      <trkpt lat="45.69133" lon="6.68727">
        <ele>1965.2</ele>
        <time>2022-06-15T08:48:24Z</time>
      </trkpt>
      <trkpt lat="45.69128" lon="6.68722">
        <ele>1964.8</ele>
        <time>2022-06-15T08:48:25Z</time>
      </trkpt>
      <trkpt lat="45.69122" lon="6.68717">
        <ele>1965.1</ele>
        <time>2022-06-15T08:48:26Z</time>
      </trkpt>
      <trkpt lat="45.69117" lon="6.6871">
        <ele>1965</ele>
        <time>2022-06-15T08:48:27Z</time>
      </trkpt>
      <trkpt lat="45.69111" lon="6.68696">
        <ele>1964.8</ele>
        <time>2022-06-15T08:48:28Z</time>
      </trkpt>
      <trkpt lat="45.6911" lon="6.68691">
        <ele>1964.3</ele>
        <time>2022-06-15T08:48:29Z</time>
      </trkpt>
      <trkpt lat="45.69109" lon="6.6868">
        <ele>1963.5</ele>
        <time>2022-06-15T08:48:30Z</time>
      </trkpt>
      <trkpt lat="45.6911" lon="6.68669">
        <ele>1963.4</ele>
        <time>2022-06-15T08:48:31Z</time>
      </trkpt>
      <trkpt lat="45.69111" lon="6.68658">
        <ele>1962.9</ele>
        <time>2022-06-15T08:48:32Z</time>
      </trkpt>
      <trkpt lat="45.69112" lon="6.68646">
        <ele>1962.1</ele>
        <time>2022-06-15T08:48:33Z</time>
      </trkpt>
      <trkpt lat="45.69113" lon="6.68635">
        <ele>1961.3</ele>
        <time>2022-06-15T08:48:34Z</time>
      </trkpt>
      <trkpt lat="45.69114" lon="6.68623">
        <ele>1960.7</ele>
        <time>2022-06-15T08:48:35Z</time>
      </trkpt>
      <trkpt lat="45.69115" lon="6.68612">
        <ele>1960</ele>
        <time>2022-06-15T08:48:36Z</time>
      </trkpt>
      <trkpt lat="45.69115" lon="6.686">
        <ele>1959.4</ele>
        <time>2022-06-15T08:48:37Z</time>
      </trkpt>
      <trkpt lat="45.69116" lon="6.68588">
        <ele>1958.7</ele>
        <time>2022-06-15T08:48:38Z</time>
      </trkpt>
      <trkpt lat="45.69116" lon="6.68576">
        <ele>1958.2</ele>
        <time>2022-06-15T08:48:39Z</time>
      </trkpt>
      <trkpt lat="45.69117" lon="6.68564">
        <ele>1957.9</ele>
        <time>2022-06-15T08:48:40Z</time>
      </trkpt>
      <trkpt lat="45.69117" lon="6.68551">
        <ele>1957.4</ele>
        <time>2022-06-15T08:48:41Z</time>
      </trkpt>
      <trkpt lat="45.69118" lon="6.68538">
        <ele>1956.6</ele>
        <time>2022-06-15T08:48:42Z</time>
      </trkpt>
      <trkpt lat="45.6912" lon="6.68526">
        <ele>1956</ele>
        <time>2022-06-15T08:48:43Z</time>
      </trkpt>
      <trkpt lat="45.69121" lon="6.68514">
        <ele>1955.7</ele>
        <time>2022-06-15T08:48:44Z</time>
      </trkpt>
      <trkpt lat="45.69123" lon="6.68502">
        <ele>1955.6</ele>
        <time>2022-06-15T08:48:45Z</time>
      </trkpt>
      <trkpt lat="45.69126" lon="6.68491">
        <ele>1954.8</ele>
        <time>2022-06-15T08:48:46Z</time>
      </trkpt>
      <trkpt lat="45.6913" lon="6.6848">
        <ele>1954.1</ele>
        <time>2022-06-15T08:48:47Z</time>
      </trkpt>
      <trkpt lat="45.69135" lon="6.68469">
        <ele>1953.6</ele>
        <time>2022-06-15T08:48:48Z</time>
      </trkpt>
      <trkpt lat="45.69141" lon="6.6846">
        <ele>1953.4</ele>
        <time>2022-06-15T08:48:49Z</time>
      </trkpt>
      <trkpt lat="45.69147" lon="6.6845">
        <ele>1952.5</ele>
        <time>2022-06-15T08:48:50Z</time>
      </trkpt>
      <trkpt lat="45.69152" lon="6.6844">
        <ele>1951.6</ele>
        <time>2022-06-15T08:48:51Z</time>
      </trkpt>
      <trkpt lat="45.69156" lon="6.68429">
        <ele>1951.4</ele>
        <time>2022-06-15T08:48:52Z</time>
      </trkpt>
      <trkpt lat="45.69158" lon="6.68417">
        <ele>1951.1</ele>
        <time>2022-06-15T08:48:53Z</time>
      </trkpt>
      <trkpt lat="45.69157" lon="6.68404">
        <ele>1951.1</ele>
        <time>2022-06-15T08:48:54Z</time>
      </trkpt>
      <trkpt lat="45.69154" lon="6.68392">
        <ele>1950.6</ele>
        <time>2022-06-15T08:48:55Z</time>
      </trkpt>
      <trkpt lat="45.69149" lon="6.68381">
        <ele>1950</ele>
        <time>2022-06-15T08:48:56Z</time>
      </trkpt>
      <trkpt lat="45.69143" lon="6.68371">
        <ele>1949.2</ele>
        <time>2022-06-15T08:48:57Z</time>
      </trkpt>
      <trkpt lat="45.69136" lon="6.68363">
        <ele>1948.4</ele>
        <time>2022-06-15T08:48:58Z</time>
      </trkpt>
      <trkpt lat="45.69129" lon="6.68353">
        <ele>1947.7</ele>
        <time>2022-06-15T08:48:59Z</time>
      </trkpt>
      <trkpt lat="45.69124" lon="6.68342">
        <ele>1947.3</ele>
        <time>2022-06-15T08:49:00Z</time>
      </trkpt>
      <trkpt lat="45.69118" lon="6.68331">
        <ele>1947</ele>
        <time>2022-06-15T08:49:01Z</time>
      </trkpt>
      <trkpt lat="45.69114" lon="6.68319">
        <ele>1946.3</ele>
        <time>2022-06-15T08:49:02Z</time>
      </trkpt>
      <trkpt lat="45.6911" lon="6.68306">
        <ele>1945.7</ele>
        <time>2022-06-15T08:49:03Z</time>
      </trkpt>
      <trkpt lat="45.69106" lon="6.68293">
        <ele>1944.6</ele>
        <time>2022-06-15T08:49:04Z</time>
      </trkpt>
      <trkpt lat="45.69102" lon="6.6828">
        <ele>1943.7</ele>
        <time>2022-06-15T08:49:05Z</time>
      </trkpt>
      <trkpt lat="45.69097" lon="6.68268">
        <ele>1943</ele>
        <time>2022-06-15T08:49:06Z</time>
      </trkpt>
      <trkpt lat="45.69091" lon="6.68255">
        <ele>1942.5</ele>
        <time>2022-06-15T08:49:07Z</time>
      </trkpt>
      <trkpt lat="45.69084" lon="6.68245">
        <ele>1942.2</ele>
        <time>2022-06-15T08:49:08Z</time>
      </trkpt>
      <trkpt lat="45.69076" lon="6.68236">
        <ele>1942.1</ele>
        <time>2022-06-15T08:49:09Z</time>
      </trkpt>
      <trkpt lat="45.69067" lon="6.68229">
        <ele>1942.1</ele>
        <time>2022-06-15T08:49:10Z</time>
      </trkpt>
      <trkpt lat="45.69058" lon="6.68221">
        <ele>1942.4</ele>
        <time>2022-06-15T08:49:11Z</time>
      </trkpt>
      <trkpt lat="45.6905" lon="6.68214">
        <ele>1943.1</ele>
        <time>2022-06-15T08:49:12Z</time>
      </trkpt>
      <trkpt lat="45.69041" lon="6.68207">
        <ele>1942.7</ele>
        <time>2022-06-15T08:49:13Z</time>
      </trkpt>
      <trkpt lat="45.69032" lon="6.682">
        <ele>1941.7</ele>
        <time>2022-06-15T08:49:14Z</time>
      </trkpt>
      <trkpt lat="45.69024" lon="6.68192">
        <ele>1941</ele>
        <time>2022-06-15T08:49:15Z</time>
      </trkpt>
      <trkpt lat="45.69017" lon="6.68182">
        <ele>1941.4</ele>
        <time>2022-06-15T08:49:16Z</time>
      </trkpt>
      <trkpt lat="45.69012" lon="6.68169">
        <ele>1941.6</ele>
        <time>2022-06-15T08:49:17Z</time>
      </trkpt>
      <trkpt lat="45.69008" lon="6.68156">
        <ele>1940.1</ele>
        <time>2022-06-15T08:49:18Z</time>
      </trkpt>
      <trkpt lat="45.69006" lon="6.68142">
        <ele>1938.7</ele>
        <time>2022-06-15T08:49:19Z</time>
      </trkpt>
      <trkpt lat="45.69005" lon="6.68128">
        <ele>1938.1</ele>
        <time>2022-06-15T08:49:20Z</time>
      </trkpt>
      <trkpt lat="45.69005" lon="6.68114">
        <ele>1937.9</ele>
        <time>2022-06-15T08:49:21Z</time>
      </trkpt>
      <trkpt lat="45.69006" lon="6.681">
        <ele>1937.7</ele>
        <time>2022-06-15T08:49:22Z</time>
      </trkpt>
      <trkpt lat="45.69008" lon="6.68086">
        <ele>1937.4</ele>
        <time>2022-06-15T08:49:23Z</time>
      </trkpt>
      <trkpt lat="45.69011" lon="6.68073">
        <ele>1936.6</ele>
        <time>2022-06-15T08:49:24Z</time>
      </trkpt>
      <trkpt lat="45.69015" lon="6.6806">
        <ele>1935.9</ele>
        <time>2022-06-15T08:49:25Z</time>
      </trkpt>
      <trkpt lat="45.69021" lon="6.68048">
        <ele>1934.9</ele>
        <time>2022-06-15T08:49:26Z</time>
      </trkpt>
      <trkpt lat="45.69027" lon="6.68036">
        <ele>1933.8</ele>
        <time>2022-06-15T08:49:27Z</time>
      </trkpt>
      <trkpt lat="45.69034" lon="6.68026">
        <ele>1932.4</ele>
        <time>2022-06-15T08:49:28Z</time>
      </trkpt>
      <trkpt lat="45.69043" lon="6.68017">
        <ele>1931.1</ele>
        <time>2022-06-15T08:49:29Z</time>
      </trkpt>
      <trkpt lat="45.69052" lon="6.6801">
        <ele>1929.9</ele>
        <time>2022-06-15T08:49:30Z</time>
      </trkpt>
      <trkpt lat="45.69063" lon="6.68004">
        <ele>1929</ele>
        <time>2022-06-15T08:49:31Z</time>
      </trkpt>
      <trkpt lat="45.69074" lon="6.68">
        <ele>1928.4</ele>
        <time>2022-06-15T08:49:32Z</time>
      </trkpt>
      <trkpt lat="45.69085" lon="6.67999">
        <ele>1927.7</ele>
        <time>2022-06-15T08:49:33Z</time>
      </trkpt>
      <trkpt lat="45.69095" lon="6.68001">
        <ele>1926.5</ele>
        <time>2022-06-15T08:49:34Z</time>
      </trkpt>
      <trkpt lat="45.69105" lon="6.68007">
        <ele>1926.2</ele>
        <time>2022-06-15T08:49:35Z</time>
      </trkpt>
      <trkpt lat="45.69115" lon="6.68014">
        <ele>1925.9</ele>
        <time>2022-06-15T08:49:36Z</time>
      </trkpt>
      <trkpt lat="45.69124" lon="6.68023">
        <ele>1924.9</ele>
        <time>2022-06-15T08:49:37Z</time>
      </trkpt>
      <trkpt lat="45.69134" lon="6.68032">
        <ele>1924.3</ele>
        <time>2022-06-15T08:49:38Z</time>
      </trkpt>
      <trkpt lat="45.69144" lon="6.68041">
        <ele>1923.6</ele>
        <time>2022-06-15T08:49:39Z</time>
      </trkpt>
      <trkpt lat="45.69154" lon="6.6805">
        <ele>1923.1</ele>
        <time>2022-06-15T08:49:40Z</time>
      </trkpt>
      <trkpt lat="45.69164" lon="6.6806">
        <ele>1922.8</ele>
        <time>2022-06-15T08:49:41Z</time>
      </trkpt>
      <trkpt lat="45.69174" lon="6.68071">
        <ele>1921.7</ele>
        <time>2022-06-15T08:49:42Z</time>
      </trkpt>
      <trkpt lat="45.69184" lon="6.68083">
        <ele>1920.4</ele>
        <time>2022-06-15T08:49:43Z</time>
      </trkpt>
      <trkpt lat="45.69194" lon="6.68095">
        <ele>1919.6</ele>
        <time>2022-06-15T08:49:44Z</time>
      </trkpt>
      <trkpt lat="45.69203" lon="6.68107">
        <ele>1919.3</ele>
        <time>2022-06-15T08:49:45Z</time>
      </trkpt>
      <trkpt lat="45.69213" lon="6.6812">
        <ele>1917.6</ele>
        <time>2022-06-15T08:49:46Z</time>
      </trkpt>
      <trkpt lat="45.69222" lon="6.68133">
        <ele>1915.2</ele>
        <time>2022-06-15T08:49:47Z</time>
      </trkpt>
      <trkpt lat="45.69232" lon="6.68146">
        <ele>1915.8</ele>
        <time>2022-06-15T08:49:48Z</time>
      </trkpt>
      <trkpt lat="45.69241" lon="6.68159">
        <ele>1915.8</ele>
        <time>2022-06-15T08:49:49Z</time>
      </trkpt>
      <trkpt lat="45.69251" lon="6.68171">
        <ele>1914.4</ele>
        <time>2022-06-15T08:49:50Z</time>
      </trkpt>
      <trkpt lat="45.69261" lon="6.68181">
        <ele>1914.3</ele>
        <time>2022-06-15T08:49:51Z</time>
      </trkpt>
      <trkpt lat="45.69272" lon="6.68189">
        <ele>1914</ele>
        <time>2022-06-15T08:49:52Z</time>
      </trkpt>
      <trkpt lat="45.69283" lon="6.68196">
        <ele>1913.6</ele>
        <time>2022-06-15T08:49:53Z</time>
      </trkpt>
      <trkpt lat="45.69294" lon="6.68202">
        <ele>1912.9</ele>
        <time>2022-06-15T08:49:54Z</time>
      </trkpt>
      <trkpt lat="45.69305" lon="6.68208">
        <ele>1912.1</ele>
        <time>2022-06-15T08:49:55Z</time>
      </trkpt>
      <trkpt lat="45.69316" lon="6.68215">
        <ele>1911.3</ele>
        <time>2022-06-15T08:49:56Z</time>
      </trkpt>
      <trkpt lat="45.69326" lon="6.68221">
        <ele>1911.3</ele>
        <time>2022-06-15T08:49:57Z</time>
      </trkpt>
      <trkpt lat="45.69337" lon="6.68227">
        <ele>1911.5</ele>
        <time>2022-06-15T08:49:58Z</time>
      </trkpt>
      <trkpt lat="45.69347" lon="6.68233">
        <ele>1911.9</ele>
        <time>2022-06-15T08:49:59Z</time>
      </trkpt>
      <trkpt lat="45.69357" lon="6.6824">
        <ele>1912.1</ele>
        <time>2022-06-15T08:50:00Z</time>
      </trkpt>
      <trkpt lat="45.69367" lon="6.68246">
        <ele>1911.9</ele>
        <time>2022-06-15T08:50:01Z</time>
      </trkpt>
      <trkpt lat="45.69376" lon="6.68255">
        <ele>1912.2</ele>
        <time>2022-06-15T08:50:02Z</time>
      </trkpt>
      <trkpt lat="45.69385" lon="6.68263">
        <ele>1913</ele>
        <time>2022-06-15T08:50:03Z</time>
      </trkpt>
      <trkpt lat="45.69394" lon="6.6827">
        <ele>1913</ele>
        <time>2022-06-15T08:50:04Z</time>
      </trkpt>
      <trkpt lat="45.69403" lon="6.68276">
        <ele>1911.8</ele>
        <time>2022-06-15T08:50:05Z</time>
      </trkpt>
      <trkpt lat="45.6941" lon="6.68279">
        <ele>1910.4</ele>
        <time>2022-06-15T08:50:06Z</time>
      </trkpt>
      <trkpt lat="45.69417" lon="6.68279">
        <ele>1908.2</ele>
        <time>2022-06-15T08:50:07Z</time>
      </trkpt>
      <trkpt lat="45.69423" lon="6.68274">
        <ele>1905.3</ele>
        <time>2022-06-15T08:50:08Z</time>
      </trkpt>
      <trkpt lat="45.69426" lon="6.68265">
        <ele>1903.5</ele>
        <time>2022-06-15T08:50:09Z</time>
      </trkpt>
      <trkpt lat="45.69426" lon="6.68255">
        <ele>1902.6</ele>
        <time>2022-06-15T08:50:10Z</time>
      </trkpt>
      <trkpt lat="45.69423" lon="6.68244">
        <ele>1902.6</ele>
        <time>2022-06-15T08:50:11Z</time>
      </trkpt>
      <trkpt lat="45.69417" lon="6.68236">
        <ele>1903.8</ele>
        <time>2022-06-15T08:50:12Z</time>
      </trkpt>
      <trkpt lat="45.6941" lon="6.68229">
        <ele>1903.8</ele>
        <time>2022-06-15T08:50:13Z</time>
      </trkpt>
      <trkpt lat="45.69402" lon="6.68223">
        <ele>1903.7</ele>
        <time>2022-06-15T08:50:14Z</time>
      </trkpt>
      <trkpt lat="45.69395" lon="6.68217">
        <ele>1902.9</ele>
        <time>2022-06-15T08:50:15Z</time>
      </trkpt>
      <trkpt lat="45.69387" lon="6.6821">
        <ele>1902.1</ele>
        <time>2022-06-15T08:50:16Z</time>
      </trkpt>
      <trkpt lat="45.6938" lon="6.68202">
        <ele>1901.7</ele>
        <time>2022-06-15T08:50:17Z</time>
      </trkpt>
      <trkpt lat="45.69372" lon="6.68193">
        <ele>1901.4</ele>
        <time>2022-06-15T08:50:18Z</time>
      </trkpt>
      <trkpt lat="45.69364" lon="6.68185">
        <ele>1901.4</ele>
        <time>2022-06-15T08:50:19Z</time>
      </trkpt>
      <trkpt lat="45.69356" lon="6.68176">
        <ele>1900.5</ele>
        <time>2022-06-15T08:50:20Z</time>
      </trkpt>
      <trkpt lat="45.69348" lon="6.68167">
        <ele>1899.4</ele>
        <time>2022-06-15T08:50:21Z</time>
      </trkpt>
      <trkpt lat="45.69341" lon="6.68155">
        <ele>1898</ele>
        <time>2022-06-15T08:50:22Z</time>
      </trkpt>
      <trkpt lat="45.69336" lon="6.68141">
        <ele>1896.6</ele>
        <time>2022-06-15T08:50:23Z</time>
      </trkpt>
      <trkpt lat="45.69333" lon="6.68125">
        <ele>1894.1</ele>
        <time>2022-06-15T08:50:24Z</time>
      </trkpt>
      <trkpt lat="45.69332" lon="6.68109">
        <ele>1892</ele>
        <time>2022-06-15T08:50:25Z</time>
      </trkpt>
      <trkpt lat="45.6933" lon="6.68092">
        <ele>1893.3</ele>
        <time>2022-06-15T08:50:26Z</time>
      </trkpt>
      <trkpt lat="45.69328" lon="6.68076">
        <ele>1893.6</ele>
        <time>2022-06-15T08:50:27Z</time>
      </trkpt>
      <trkpt lat="45.69325" lon="6.6806">
        <ele>1892.4</ele>
        <time>2022-06-15T08:50:28Z</time>
      </trkpt>
      <trkpt lat="45.69321" lon="6.68044">
        <ele>1890.9</ele>
        <time>2022-06-15T08:50:29Z</time>
      </trkpt>
      <trkpt lat="45.69318" lon="6.68029">
        <ele>1889.3</ele>
        <time>2022-06-15T08:50:30Z</time>
      </trkpt>
      <trkpt lat="45.69314" lon="6.68014">
        <ele>1887.6</ele>
        <time>2022-06-15T08:50:31Z</time>
      </trkpt>
      <trkpt lat="45.69311" lon="6.68">
        <ele>1886.1</ele>
        <time>2022-06-15T08:50:32Z</time>
      </trkpt>
      <trkpt lat="45.69307" lon="6.67987">
        <ele>1886</ele>
        <time>2022-06-15T08:50:33Z</time>
      </trkpt>
      <trkpt lat="45.69301" lon="6.67974">
        <ele>1885.6</ele>
        <time>2022-06-15T08:50:34Z</time>
      </trkpt>
      <trkpt lat="45.69295" lon="6.67963">
        <ele>1884.3</ele>
        <time>2022-06-15T08:50:35Z</time>
      </trkpt>
      <trkpt lat="45.69287" lon="6.67954">
        <ele>1883.6</ele>
        <time>2022-06-15T08:50:36Z</time>
      </trkpt>
      <trkpt lat="45.69279" lon="6.67947">
        <ele>1883.7</ele>
        <time>2022-06-15T08:50:37Z</time>
      </trkpt>
      <trkpt lat="45.69269" lon="6.67942">
        <ele>1882.8</ele>
        <time>2022-06-15T08:50:38Z</time>
      </trkpt>
      <trkpt lat="45.69259" lon="6.67938">
        <ele>1882.1</ele>
        <time>2022-06-15T08:50:39Z</time>
      </trkpt>
      <trkpt lat="45.69248" lon="6.67933">
        <ele>1881.4</ele>
        <time>2022-06-15T08:50:40Z</time>
      </trkpt>
      <trkpt lat="45.69238" lon="6.67926">
        <ele>1880.2</ele>
        <time>2022-06-15T08:50:41Z</time>
      </trkpt>
      <trkpt lat="45.69229" lon="6.67917">
        <ele>1878.3</ele>
        <time>2022-06-15T08:50:42Z</time>
      </trkpt>
      <trkpt lat="45.69221" lon="6.67904">
        <ele>1877.3</ele>
        <time>2022-06-15T08:50:43Z</time>
      </trkpt>
      <trkpt lat="45.69215" lon="6.67891">
        <ele>1877.5</ele>
        <time>2022-06-15T08:50:44Z</time>
      </trkpt>
      <trkpt lat="45.69209" lon="6.67877">
        <ele>1876.6</ele>
        <time>2022-06-15T08:50:45Z</time>
      </trkpt>
      <trkpt lat="45.69203" lon="6.67863">
        <ele>1874.9</ele>
        <time>2022-06-15T08:50:46Z</time>
      </trkpt>
      <trkpt lat="45.69196" lon="6.6785">
        <ele>1874.1</ele>
        <time>2022-06-15T08:50:47Z</time>
      </trkpt>
      <trkpt lat="45.69189" lon="6.67836">
        <ele>1873.3</ele>
        <time>2022-06-15T08:50:48Z</time>
      </trkpt>
      <trkpt lat="45.69181" lon="6.67822">
        <ele>1871.8</ele>
        <time>2022-06-15T08:50:49Z</time>
      </trkpt>
      <trkpt lat="45.69173" lon="6.67809">
        <ele>1870.2</ele>
        <time>2022-06-15T08:50:50Z</time>
      </trkpt>
      <trkpt lat="45.69165" lon="6.67795">
        <ele>1869.6</ele>
        <time>2022-06-15T08:50:51Z</time>
      </trkpt>
      <trkpt lat="45.69157" lon="6.67782">
        <ele>1869.1</ele>
        <time>2022-06-15T08:50:52Z</time>
      </trkpt>
      <trkpt lat="45.69148" lon="6.67769">
        <ele>1867.7</ele>
        <time>2022-06-15T08:50:53Z</time>
      </trkpt>
      <trkpt lat="45.69139" lon="6.67756">
        <ele>1866.5</ele>
        <time>2022-06-15T08:50:54Z</time>
      </trkpt>
      <trkpt lat="45.69131" lon="6.67743">
        <ele>1865.3</ele>
        <time>2022-06-15T08:50:55Z</time>
      </trkpt>
      <trkpt lat="45.69124" lon="6.67731">
        <ele>1864.7</ele>
        <time>2022-06-15T08:50:56Z</time>
      </trkpt>
      <trkpt lat="45.69119" lon="6.67716">
        <ele>1864.2</ele>
        <time>2022-06-15T08:50:57Z</time>
      </trkpt>
      <trkpt lat="45.69117" lon="6.67701">
        <ele>1862.8</ele>
        <time>2022-06-15T08:50:58Z</time>
      </trkpt>
      <trkpt lat="45.69115" lon="6.67686">
        <ele>1862.8</ele>
        <time>2022-06-15T08:50:59Z</time>
      </trkpt>
      <trkpt lat="45.69113" lon="6.67672">
        <ele>1864.1</ele>
        <time>2022-06-15T08:51:00Z</time>
      </trkpt>
      <trkpt lat="45.69111" lon="6.67657">
        <ele>1863.8</ele>
        <time>2022-06-15T08:51:01Z</time>
      </trkpt>
      <trkpt lat="45.69108" lon="6.67642">
        <ele>1862.5</ele>
        <time>2022-06-15T08:51:02Z</time>
      </trkpt>
      <trkpt lat="45.69105" lon="6.67627">
        <ele>1861.2</ele>
        <time>2022-06-15T08:51:03Z</time>
      </trkpt>
      <trkpt lat="45.69102" lon="6.67612">
        <ele>1859.7</ele>
        <time>2022-06-15T08:51:04Z</time>
      </trkpt>
      <trkpt lat="45.69099" lon="6.67596">
        <ele>1859.4</ele>
        <time>2022-06-15T08:51:05Z</time>
      </trkpt>
      <trkpt lat="45.69097" lon="6.6758">
        <ele>1858.6</ele>
        <time>2022-06-15T08:51:06Z</time>
      </trkpt>
      <trkpt lat="45.69095" lon="6.67564">
        <ele>1857.1</ele>
        <time>2022-06-15T08:51:07Z</time>
      </trkpt>
      <trkpt lat="45.69093" lon="6.67547">
        <ele>1856.2</ele>
        <time>2022-06-15T08:51:08Z</time>
      </trkpt>
      <trkpt lat="45.69091" lon="6.67531">
        <ele>1855.9</ele>
        <time>2022-06-15T08:51:09Z</time>
      </trkpt>
      <trkpt lat="45.69091" lon="6.67515">
        <ele>1854.8</ele>
        <time>2022-06-15T08:51:10Z</time>
      </trkpt>
      <trkpt lat="45.69092" lon="6.67498">
        <ele>1853.2</ele>
        <time>2022-06-15T08:51:11Z</time>
      </trkpt>
      <trkpt lat="45.69093" lon="6.67481">
        <ele>1852</ele>
        <time>2022-06-15T08:51:12Z</time>
      </trkpt>
      <trkpt lat="45.69095" lon="6.67465">
        <ele>1850.5</ele>
        <time>2022-06-15T08:51:13Z</time>
      </trkpt>
      <trkpt lat="45.69098" lon="6.67448">
        <ele>1848.7</ele>
        <time>2022-06-15T08:51:14Z</time>
      </trkpt>
      <trkpt lat="45.69102" lon="6.67434">
        <ele>1848.8</ele>
        <time>2022-06-15T08:51:15Z</time>
      </trkpt>
      <trkpt lat="45.69108" lon="6.67421">
        <ele>1849.2</ele>
        <time>2022-06-15T08:51:16Z</time>
      </trkpt>
      <trkpt lat="45.69113" lon="6.67408">
        <ele>1848.3</ele>
        <time>2022-06-15T08:51:17Z</time>
      </trkpt>
      <trkpt lat="45.69116" lon="6.67394">
        <ele>1847.1</ele>
        <time>2022-06-15T08:51:18Z</time>
      </trkpt>
      <trkpt lat="45.69117" lon="6.67379">
        <ele>1845.9</ele>
        <time>2022-06-15T08:51:19Z</time>
      </trkpt>
      <trkpt lat="45.69117" lon="6.67364">
        <ele>1844.4</ele>
        <time>2022-06-15T08:51:20Z</time>
      </trkpt>
      <trkpt lat="45.69119" lon="6.67348">
        <ele>1844.8</ele>
        <time>2022-06-15T08:51:21Z</time>
      </trkpt>
      <trkpt lat="45.69122" lon="6.67332">
        <ele>1844.9</ele>
        <time>2022-06-15T08:51:22Z</time>
      </trkpt>
      <trkpt lat="45.69128" lon="6.67319">
        <ele>1844.2</ele>
        <time>2022-06-15T08:51:23Z</time>
      </trkpt>
      <trkpt lat="45.69137" lon="6.67307">
        <ele>1842.6</ele>
        <time>2022-06-15T08:51:24Z</time>
      </trkpt>
      <trkpt lat="45.69147" lon="6.67298">
        <ele>1840.9</ele>
        <time>2022-06-15T08:51:25Z</time>
      </trkpt>
      <trkpt lat="45.69158" lon="6.67291">
        <ele>1839.7</ele>
        <time>2022-06-15T08:51:26Z</time>
      </trkpt>
      <trkpt lat="45.69168" lon="6.67284">
        <ele>1839</ele>
        <time>2022-06-15T08:51:27Z</time>
      </trkpt>
      <trkpt lat="45.69178" lon="6.67275">
        <ele>1837.4</ele>
        <time>2022-06-15T08:51:28Z</time>
      </trkpt>
      <trkpt lat="45.69186" lon="6.67263">
        <ele>1836.4</ele>
        <time>2022-06-15T08:51:29Z</time>
      </trkpt>
      <trkpt lat="45.69193" lon="6.67249">
        <ele>1836.3</ele>
        <time>2022-06-15T08:51:30Z</time>
      </trkpt>
      <trkpt lat="45.69199" lon="6.67234">
        <ele>1834.3</ele>
        <time>2022-06-15T08:51:31Z</time>
      </trkpt>
      <trkpt lat="45.69206" lon="6.67219">
        <ele>1832.2</ele>
        <time>2022-06-15T08:51:32Z</time>
      </trkpt>
      <trkpt lat="45.69213" lon="6.67204">
        <ele>1831.3</ele>
        <time>2022-06-15T08:51:33Z</time>
      </trkpt>
      <trkpt lat="45.69221" lon="6.6719">
        <ele>1830.5</ele>
        <time>2022-06-15T08:51:34Z</time>
      </trkpt>
      <trkpt lat="45.6923" lon="6.67178">
        <ele>1829.1</ele>
        <time>2022-06-15T08:51:35Z</time>
      </trkpt>
      <trkpt lat="45.69239" lon="6.67166">
        <ele>1828.7</ele>
        <time>2022-06-15T08:51:36Z</time>
      </trkpt>
      <trkpt lat="45.69246" lon="6.67154">
        <ele>1828.6</ele>
        <time>2022-06-15T08:51:37Z</time>
      </trkpt>
      <trkpt lat="45.69251" lon="6.67141">
        <ele>1828.5</ele>
        <time>2022-06-15T08:51:38Z</time>
      </trkpt>
      <trkpt lat="45.69254" lon="6.67126">
        <ele>1827.4</ele>
        <time>2022-06-15T08:51:39Z</time>
      </trkpt>
      <trkpt lat="45.69257" lon="6.67112">
        <ele>1826.2</ele>
        <time>2022-06-15T08:51:40Z</time>
      </trkpt>
      <trkpt lat="45.69261" lon="6.67097">
        <ele>1825.1</ele>
        <time>2022-06-15T08:51:41Z</time>
      </trkpt>
      <trkpt lat="45.69266" lon="6.67084">
        <ele>1824</ele>
        <time>2022-06-15T08:51:42Z</time>
      </trkpt>
      <trkpt lat="45.69272" lon="6.6707">
        <ele>1823.5</ele>
        <time>2022-06-15T08:51:43Z</time>
      </trkpt>
      <trkpt lat="45.69279" lon="6.67058">
        <ele>1822.7</ele>
        <time>2022-06-15T08:51:44Z</time>
      </trkpt>
      <trkpt lat="45.69286" lon="6.67045">
        <ele>1821.8</ele>
        <time>2022-06-15T08:51:45Z</time>
      </trkpt>
      <trkpt lat="45.69293" lon="6.67031">
        <ele>1821</ele>
        <time>2022-06-15T08:51:46Z</time>
      </trkpt>
      <trkpt lat="45.69299" lon="6.67017">
        <ele>1820</ele>
        <time>2022-06-15T08:51:47Z</time>
      </trkpt>
      <trkpt lat="45.69304" lon="6.67001">
        <ele>1819.8</ele>
        <time>2022-06-15T08:51:48Z</time>
      </trkpt>
      <trkpt lat="45.69307" lon="6.66986">
        <ele>1817.7</ele>
        <time>2022-06-15T08:51:49Z</time>
      </trkpt>
      <trkpt lat="45.6931" lon="6.6697">
        <ele>1815.8</ele>
        <time>2022-06-15T08:51:50Z</time>
      </trkpt>
      <trkpt lat="45.69313" lon="6.66956">
        <ele>1816.8</ele>
        <time>2022-06-15T08:51:51Z</time>
      </trkpt>
      <trkpt lat="45.69316" lon="6.66943">
        <ele>1818.1</ele>
        <time>2022-06-15T08:51:52Z</time>
      </trkpt>
      <trkpt lat="45.69318" lon="6.66931">
        <ele>1818.4</ele>
        <time>2022-06-15T08:51:53Z</time>
      </trkpt>
      <trkpt lat="45.69321" lon="6.6692">
        <ele>1818.6</ele>
        <time>2022-06-15T08:51:54Z</time>
      </trkpt>
      <trkpt lat="45.69323" lon="6.66909">
        <ele>1818.5</ele>
        <time>2022-06-15T08:51:55Z</time>
      </trkpt>
      <trkpt lat="45.69326" lon="6.66899">
        <ele>1818.2</ele>
        <time>2022-06-15T08:51:56Z</time>
      </trkpt>
      <trkpt lat="45.6933" lon="6.66883">
        <ele>1817.7</ele>
        <time>2022-06-15T08:51:57Z</time>
      </trkpt>
      <trkpt lat="45.69331" lon="6.66877">
        <ele>1817.6</ele>
        <time>2022-06-15T08:51:58Z</time>
      </trkpt>
      <trkpt lat="45.69334" lon="6.66866">
        <ele>1817.1</ele>
        <time>2022-06-15T08:51:59Z</time>
      </trkpt>
      <trkpt lat="45.69337" lon="6.66854">
        <ele>1816.2</ele>
        <time>2022-06-15T08:52:00Z</time>
      </trkpt>
      <trkpt lat="45.6934" lon="6.66842">
        <ele>1815.4</ele>
        <time>2022-06-15T08:52:01Z</time>
      </trkpt>
      <trkpt lat="45.69343" lon="6.66831">
        <ele>1814.6</ele>
        <time>2022-06-15T08:52:02Z</time>
      </trkpt>
      <trkpt lat="45.69346" lon="6.66818">
        <ele>1814.2</ele>
        <time>2022-06-15T08:52:03Z</time>
      </trkpt>
      <trkpt lat="45.69349" lon="6.66806">
        <ele>1813.7</ele>
        <time>2022-06-15T08:52:04Z</time>
      </trkpt>
      <trkpt lat="45.69352" lon="6.66793">
        <ele>1813.2</ele>
        <time>2022-06-15T08:52:05Z</time>
      </trkpt>
      <trkpt lat="45.69354" lon="6.6678">
        <ele>1812.5</ele>
        <time>2022-06-15T08:52:06Z</time>
      </trkpt>
      <trkpt lat="45.69357" lon="6.66759">
        <ele>1810.8</ele>
        <time>2022-06-15T08:52:07Z</time>
      </trkpt>
      <trkpt lat="45.69358" lon="6.66752">
        <ele>1810.3</ele>
        <time>2022-06-15T08:52:08Z</time>
      </trkpt>
      <trkpt lat="45.69359" lon="6.66738">
        <ele>1809.5</ele>
        <time>2022-06-15T08:52:09Z</time>
      </trkpt>
      <trkpt lat="45.69358" lon="6.66715">
        <ele>1808.7</ele>
        <time>2022-06-15T08:52:10Z</time>
      </trkpt>
      <trkpt lat="45.69358" lon="6.66707">
        <ele>1808.2</ele>
        <time>2022-06-15T08:52:11Z</time>
      </trkpt>
      <trkpt lat="45.69358" lon="6.66692">
        <ele>1807.6</ele>
        <time>2022-06-15T08:52:12Z</time>
      </trkpt>
      <trkpt lat="45.69358" lon="6.66676">
        <ele>1807.7</ele>
        <time>2022-06-15T08:52:13Z</time>
      </trkpt>
      <trkpt lat="45.69359" lon="6.66661">
        <ele>1807</ele>
        <time>2022-06-15T08:52:14Z</time>
      </trkpt>
      <trkpt lat="45.69361" lon="6.66645">
        <ele>1805.2</ele>
        <time>2022-06-15T08:52:15Z</time>
      </trkpt>
      <trkpt lat="45.69366" lon="6.66631">
        <ele>1803.1</ele>
        <time>2022-06-15T08:52:16Z</time>
      </trkpt>
      <trkpt lat="45.69373" lon="6.66608">
        <ele>1801.6</ele>
        <time>2022-06-15T08:52:17Z</time>
      </trkpt>
      <trkpt lat="45.69375" lon="6.66601">
        <ele>1801.6</ele>
        <time>2022-06-15T08:52:18Z</time>
      </trkpt>
      <trkpt lat="45.6938" lon="6.66585">
        <ele>1801.4</ele>
        <time>2022-06-15T08:52:19Z</time>
      </trkpt>
      <trkpt lat="45.69384" lon="6.66571">
        <ele>1801.3</ele>
        <time>2022-06-15T08:52:20Z</time>
      </trkpt>
      <trkpt lat="45.69389" lon="6.66558">
        <ele>1799.6</ele>
        <time>2022-06-15T08:52:21Z</time>
      </trkpt>
      <trkpt lat="45.69397" lon="6.66547">
        <ele>1799.3</ele>
        <time>2022-06-15T08:52:22Z</time>
      </trkpt>
      <trkpt lat="45.69406" lon="6.66538">
        <ele>1798.6</ele>
        <time>2022-06-15T08:52:23Z</time>
      </trkpt>
      <trkpt lat="45.69421" lon="6.66526">
        <ele>1797.2</ele>
        <time>2022-06-15T08:52:24Z</time>
      </trkpt>
      <trkpt lat="45.69426" lon="6.66522">
        <ele>1796.4</ele>
        <time>2022-06-15T08:52:25Z</time>
      </trkpt>
      <trkpt lat="45.69436" lon="6.66514">
        <ele>1795</ele>
        <time>2022-06-15T08:52:26Z</time>
      </trkpt>
      <trkpt lat="45.69448" lon="6.66508">
        <ele>1793.2</ele>
        <time>2022-06-15T08:52:27Z</time>
      </trkpt>
      <trkpt lat="45.6946" lon="6.66504">
        <ele>1792.7</ele>
        <time>2022-06-15T08:52:28Z</time>
      </trkpt>
      <trkpt lat="45.69472" lon="6.66501">
        <ele>1791.9</ele>
        <time>2022-06-15T08:52:29Z</time>
      </trkpt>
      <trkpt lat="45.69483" lon="6.66499">
        <ele>1791.4</ele>
        <time>2022-06-15T08:52:30Z</time>
      </trkpt>
      <trkpt lat="45.69493" lon="6.66498">
        <ele>1790.4</ele>
        <time>2022-06-15T08:52:31Z</time>
      </trkpt>
      <trkpt lat="45.69503" lon="6.66501">
        <ele>1789.4</ele>
        <time>2022-06-15T08:52:32Z</time>
      </trkpt>
      <trkpt lat="45.69512" lon="6.66506">
        <ele>1789.5</ele>
        <time>2022-06-15T08:52:33Z</time>
      </trkpt>
      <trkpt lat="45.69521" lon="6.66511">
        <ele>1789</ele>
        <time>2022-06-15T08:52:34Z</time>
      </trkpt>
      <trkpt lat="45.6953" lon="6.66517">
        <ele>1787.7</ele>
        <time>2022-06-15T08:52:35Z</time>
      </trkpt>
      <trkpt lat="45.69538" lon="6.6652">
        <ele>1785.1</ele>
        <time>2022-06-15T08:52:36Z</time>
      </trkpt>
      <trkpt lat="45.69547" lon="6.66521">
        <ele>1784.1</ele>
        <time>2022-06-15T08:52:37Z</time>
      </trkpt>
      <trkpt lat="45.69555" lon="6.66517">
        <ele>1784.8</ele>
        <time>2022-06-15T08:52:38Z</time>
      </trkpt>
      <trkpt lat="45.69563" lon="6.6651">
        <ele>1785.6</ele>
        <time>2022-06-15T08:52:39Z</time>
      </trkpt>
      <trkpt lat="45.6957" lon="6.665">
        <ele>1785.5</ele>
        <time>2022-06-15T08:52:40Z</time>
      </trkpt>
      <trkpt lat="45.69576" lon="6.66488">
        <ele>1785</ele>
        <time>2022-06-15T08:52:41Z</time>
      </trkpt>
      <trkpt lat="45.69581" lon="6.66476">
        <ele>1782.8</ele>
        <time>2022-06-15T08:52:42Z</time>
      </trkpt>
      <trkpt lat="45.69586" lon="6.66463">
        <ele>1782.5</ele>
        <time>2022-06-15T08:52:43Z</time>
      </trkpt>
      <trkpt lat="45.69591" lon="6.6645">
        <ele>1782.5</ele>
        <time>2022-06-15T08:52:44Z</time>
      </trkpt>
      <trkpt lat="45.69597" lon="6.66437">
        <ele>1783</ele>
        <time>2022-06-15T08:52:45Z</time>
      </trkpt>
      <trkpt lat="45.69604" lon="6.66427">
        <ele>1781.1</ele>
        <time>2022-06-15T08:52:46Z</time>
      </trkpt>
      <trkpt lat="45.6961" lon="6.66417">
        <ele>1777.2</ele>
        <time>2022-06-15T08:52:47Z</time>
      </trkpt>
      <trkpt lat="45.69616" lon="6.66409">
        <ele>1774.8</ele>
        <time>2022-06-15T08:52:48Z</time>
      </trkpt>
      <trkpt lat="45.69621" lon="6.66402">
        <ele>1773</ele>
        <time>2022-06-15T08:52:49Z</time>
      </trkpt>
      <trkpt lat="45.69624" lon="6.66396">
        <ele>1771.2</ele>
        <time>2022-06-15T08:52:50Z</time>
      </trkpt>
      <trkpt lat="45.69627" lon="6.66392">
        <ele>1769.4</ele>
        <time>2022-06-15T08:52:51Z</time>
      </trkpt>
      <trkpt lat="45.6963" lon="6.66389">
        <ele>1767.3</ele>
        <time>2022-06-15T08:52:52Z</time>
      </trkpt>
      <trkpt lat="45.69633" lon="6.66382">
        <ele>1762.1</ele>
        <time>2022-06-15T08:52:53Z</time>
      </trkpt>
      <trkpt lat="45.69634" lon="6.66378">
        <ele>1759.4</ele>
        <time>2022-06-15T08:52:54Z</time>
      </trkpt>
      <trkpt lat="45.69634" lon="6.66374">
        <ele>1756.4</ele>
        <time>2022-06-15T08:52:55Z</time>
      </trkpt>
      <trkpt lat="45.69635" lon="6.6637">
        <ele>1753.2</ele>
        <time>2022-06-15T08:52:56Z</time>
      </trkpt>
      <trkpt lat="45.69636" lon="6.66366">
        <ele>1750</ele>
        <time>2022-06-15T08:54:14Z</time>
      </trkpt>
      <trkpt lat="45.69637" lon="6.66362">
        <ele>1746.3</ele>
        <time>2022-06-15T08:54:15Z</time>
      </trkpt>
      <trkpt lat="45.69636" lon="6.66354">
        <ele>1747.3</ele>
        <time>2022-06-15T08:54:16Z</time>
      </trkpt>
      <trkpt lat="45.69636" lon="6.66344">
        <ele>1749</ele>
        <time>2022-06-15T08:54:17Z</time>
      </trkpt>
      <trkpt lat="45.69635" lon="6.66335">
        <ele>1751.5</ele>
        <time>2022-06-15T08:54:18Z</time>
      </trkpt>
      <trkpt lat="45.69635" lon="6.66326">
        <ele>1753</ele>
        <time>2022-06-15T08:54:19Z</time>
      </trkpt>
      <trkpt lat="45.69635" lon="6.66316">
        <ele>1753.7</ele>
        <time>2022-06-15T08:54:20Z</time>
      </trkpt>
      <trkpt lat="45.69635" lon="6.66307">
        <ele>1754.3</ele>
        <time>2022-06-15T08:54:21Z</time>
      </trkpt>
      <trkpt lat="45.69634" lon="6.66297">
        <ele>1755.2</ele>
        <time>2022-06-15T08:54:22Z</time>
      </trkpt>
      <trkpt lat="45.69632" lon="6.66287">
        <ele>1757</ele>
        <time>2022-06-15T08:54:23Z</time>
      </trkpt>
      <trkpt lat="45.6963" lon="6.66276">
        <ele>1759.6</ele>
        <time>2022-06-15T08:54:24Z</time>
      </trkpt>
      <trkpt lat="45.69627" lon="6.66266">
        <ele>1761.9</ele>
        <time>2022-06-15T08:54:25Z</time>
      </trkpt>
      <trkpt lat="45.69625" lon="6.66256">
        <ele>1762.4</ele>
        <time>2022-06-15T08:54:26Z</time>
      </trkpt>
      <trkpt lat="45.69623" lon="6.66246">
        <ele>1762.4</ele>
        <time>2022-06-15T08:54:27Z</time>
      </trkpt>
      <trkpt lat="45.69621" lon="6.66235">
        <ele>1762.4</ele>
        <time>2022-06-15T08:54:28Z</time>
      </trkpt>
      <trkpt lat="45.69619" lon="6.66225">
        <ele>1762.1</ele>
        <time>2022-06-15T08:54:29Z</time>
      </trkpt>
      <trkpt lat="45.69617" lon="6.66214">
        <ele>1762.1</ele>
        <time>2022-06-15T08:54:30Z</time>
      </trkpt>
      <trkpt lat="45.69613" lon="6.66203">
        <ele>1762.9</ele>
        <time>2022-06-15T08:54:31Z</time>
      </trkpt>
      <trkpt lat="45.6961" lon="6.66193">
        <ele>1763.6</ele>
        <time>2022-06-15T08:54:32Z</time>
      </trkpt>
      <trkpt lat="45.69606" lon="6.66184">
        <ele>1762.7</ele>
        <time>2022-06-15T08:54:33Z</time>
      </trkpt>
      <trkpt lat="45.69604" lon="6.66176">
        <ele>1761.7</ele>
        <time>2022-06-15T08:54:34Z</time>
      </trkpt>
      <trkpt lat="45.69602" lon="6.6617">
        <ele>1760.7</ele>
        <time>2022-06-15T08:54:35Z</time>
      </trkpt>
      <trkpt lat="45.69601" lon="6.66165">
        <ele>1759.6</ele>
        <time>2022-06-15T08:54:36Z</time>
      </trkpt>
      <trkpt lat="45.69598" lon="6.66159">
        <ele>1758.4</ele>
        <time>2022-06-15T08:54:37Z</time>
      </trkpt>
      <trkpt lat="45.69597" lon="6.66156">
        <ele>1758.3</ele>
        <time>2022-06-15T08:54:38Z</time>
      </trkpt>
      <trkpt lat="45.69595" lon="6.66153">
        <ele>1758.2</ele>
        <time>2022-06-15T08:54:39Z</time>
      </trkpt>
      <trkpt lat="45.69593" lon="6.6615">
        <ele>1758.2</ele>
        <time>2022-06-15T08:54:40Z</time>
      </trkpt>
      <trkpt lat="45.69591" lon="6.66147">
        <ele>1758.2</ele>
        <time>2022-06-15T08:54:41Z</time>
      </trkpt>
      <trkpt lat="45.69589" lon="6.66144">
        <ele>1758.3</ele>
        <time>2022-06-15T08:55:47Z</time>
      </trkpt>
      <trkpt lat="45.69588" lon="6.66142">
        <ele>1758.5</ele>
        <time>2022-06-15T08:55:48Z</time>
      </trkpt>
      <trkpt lat="45.69585" lon="6.66136">
        <ele>1758.5</ele>
        <time>2022-06-15T08:55:49Z</time>
      </trkpt>
      <trkpt lat="45.69581" lon="6.66129">
        <ele>1759</ele>
        <time>2022-06-15T08:55:50Z</time>
      </trkpt>
      <trkpt lat="45.69577" lon="6.66122">
        <ele>1758.7</ele>
        <time>2022-06-15T08:55:51Z</time>
      </trkpt>
      <trkpt lat="45.69573" lon="6.66113">
        <ele>1757.7</ele>
        <time>2022-06-15T08:55:52Z</time>
      </trkpt>
      <trkpt lat="45.69569" lon="6.66103">
        <ele>1756.3</ele>
        <time>2022-06-15T08:55:53Z</time>
      </trkpt>
      <trkpt lat="45.69564" lon="6.66093">
        <ele>1755.4</ele>
        <time>2022-06-15T08:55:54Z</time>
      </trkpt>
      <trkpt lat="45.69559" lon="6.66083">
        <ele>1755</ele>
        <time>2022-06-15T08:55:55Z</time>
      </trkpt>
      <trkpt lat="45.69554" lon="6.66072">
        <ele>1755.1</ele>
        <time>2022-06-15T08:55:56Z</time>
      </trkpt>
      <trkpt lat="45.69548" lon="6.66062">
        <ele>1754.9</ele>
        <time>2022-06-15T08:55:57Z</time>
      </trkpt>
      <trkpt lat="45.69542" lon="6.66051">
        <ele>1754</ele>
        <time>2022-06-15T08:55:58Z</time>
      </trkpt>
      <trkpt lat="45.69536" lon="6.66041">
        <ele>1753</ele>
        <time>2022-06-15T08:55:59Z</time>
      </trkpt>
      <trkpt lat="45.69529" lon="6.66031">
        <ele>1752.6</ele>
        <time>2022-06-15T08:56:00Z</time>
      </trkpt>
      <trkpt lat="45.69521" lon="6.66023">
        <ele>1751.7</ele>
        <time>2022-06-15T08:56:01Z</time>
      </trkpt>
      <trkpt lat="45.69513" lon="6.66015">
        <ele>1750.9</ele>
        <time>2022-06-15T08:56:02Z</time>
      </trkpt>
      <trkpt lat="45.69504" lon="6.66007">
        <ele>1750</ele>
        <time>2022-06-15T08:56:03Z</time>
      </trkpt>
      <trkpt lat="45.69495" lon="6.65999">
        <ele>1748.8</ele>
        <time>2022-06-15T08:56:04Z</time>
      </trkpt>
      <trkpt lat="45.69485" lon="6.65991">
        <ele>1747.2</ele>
        <time>2022-06-15T08:56:05Z</time>
      </trkpt>
      <trkpt lat="45.69476" lon="6.65983">
        <ele>1745.7</ele>
        <time>2022-06-15T08:56:06Z</time>
      </trkpt>
      <trkpt lat="45.69466" lon="6.65974">
        <ele>1744.9</ele>
        <time>2022-06-15T08:56:07Z</time>
      </trkpt>
      <trkpt lat="45.69456" lon="6.65965">
        <ele>1745</ele>
        <time>2022-06-15T08:56:08Z</time>
      </trkpt>
      <trkpt lat="45.69447" lon="6.65956">
        <ele>1744.7</ele>
        <time>2022-06-15T08:56:09Z</time>
      </trkpt>
      <trkpt lat="45.69438" lon="6.65945">
        <ele>1742.7</ele>
        <time>2022-06-15T08:56:10Z</time>
      </trkpt>
      <trkpt lat="45.69429" lon="6.65934">
        <ele>1741</ele>
        <time>2022-06-15T08:56:11Z</time>
      </trkpt>
      <trkpt lat="45.69421" lon="6.65921">
        <ele>1739.4</ele>
        <time>2022-06-15T08:56:12Z</time>
      </trkpt>
      <trkpt lat="45.69412" lon="6.65909">
        <ele>1738.4</ele>
        <time>2022-06-15T08:56:13Z</time>
      </trkpt>
      <trkpt lat="45.69404" lon="6.65896">
        <ele>1737.3</ele>
        <time>2022-06-15T08:56:14Z</time>
      </trkpt>
      <trkpt lat="45.69395" lon="6.65882">
        <ele>1735.8</ele>
        <time>2022-06-15T08:56:15Z</time>
      </trkpt>
      <trkpt lat="45.69386" lon="6.65869">
        <ele>1735.1</ele>
        <time>2022-06-15T08:56:16Z</time>
      </trkpt>
      <trkpt lat="45.69377" lon="6.65855">
        <ele>1734.4</ele>
        <time>2022-06-15T08:56:17Z</time>
      </trkpt>
      <trkpt lat="45.69369" lon="6.65841">
        <ele>1732.4</ele>
        <time>2022-06-15T08:56:18Z</time>
      </trkpt>
      <trkpt lat="45.6936" lon="6.65827">
        <ele>1732.1</ele>
        <time>2022-06-15T08:56:19Z</time>
      </trkpt>
      <trkpt lat="45.69351" lon="6.65814">
        <ele>1732.8</ele>
        <time>2022-06-15T08:56:20Z</time>
      </trkpt>
      <trkpt lat="45.69342" lon="6.65802">
        <ele>1731</ele>
        <time>2022-06-15T08:56:21Z</time>
      </trkpt>
      <trkpt lat="45.69332" lon="6.6579">
        <ele>1728.1</ele>
        <time>2022-06-15T08:56:22Z</time>
      </trkpt>
      <trkpt lat="45.69324" lon="6.65776">
        <ele>1726.1</ele>
        <time>2022-06-15T08:56:23Z</time>
      </trkpt>
      <trkpt lat="45.69316" lon="6.6576">
        <ele>1724</ele>
        <time>2022-06-15T08:56:24Z</time>
      </trkpt>
      <trkpt lat="45.69308" lon="6.65744">
        <ele>1722.5</ele>
        <time>2022-06-15T08:56:25Z</time>
      </trkpt>
      <trkpt lat="45.69299" lon="6.65729">
        <ele>1723.2</ele>
        <time>2022-06-15T08:56:26Z</time>
      </trkpt>
      <trkpt lat="45.6929" lon="6.65714">
        <ele>1721.6</ele>
        <time>2022-06-15T08:56:27Z</time>
      </trkpt>
      <trkpt lat="45.69282" lon="6.65698">
        <ele>1720.1</ele>
        <time>2022-06-15T08:56:28Z</time>
      </trkpt>
      <trkpt lat="45.69273" lon="6.65682">
        <ele>1719.1</ele>
        <time>2022-06-15T08:56:29Z</time>
      </trkpt>
      <trkpt lat="45.69264" lon="6.65667">
        <ele>1717.9</ele>
        <time>2022-06-15T08:56:30Z</time>
      </trkpt>
      <trkpt lat="45.69255" lon="6.65652">
        <ele>1716.4</ele>
        <time>2022-06-15T08:56:31Z</time>
      </trkpt>
      <trkpt lat="45.69246" lon="6.65637">
        <ele>1715</ele>
        <time>2022-06-15T08:56:32Z</time>
      </trkpt>
      <trkpt lat="45.69237" lon="6.65621">
        <ele>1713.2</ele>
        <time>2022-06-15T08:56:33Z</time>
      </trkpt>
      <trkpt lat="45.69229" lon="6.65604">
        <ele>1711.6</ele>
        <time>2022-06-15T08:56:34Z</time>
      </trkpt>
      <trkpt lat="45.69221" lon="6.65586">
        <ele>1711.3</ele>
        <time>2022-06-15T08:56:35Z</time>
      </trkpt>
      <trkpt lat="45.69213" lon="6.65569">
        <ele>1709.1</ele>
        <time>2022-06-15T08:56:36Z</time>
      </trkpt>
      <trkpt lat="45.69207" lon="6.6555">
        <ele>1707</ele>
        <time>2022-06-15T08:56:37Z</time>
      </trkpt>
      <trkpt lat="45.692" lon="6.65531">
        <ele>1705.5</ele>
        <time>2022-06-15T08:56:38Z</time>
      </trkpt>
      <trkpt lat="45.69194" lon="6.65513">
        <ele>1705</ele>
        <time>2022-06-15T08:56:39Z</time>
      </trkpt>
      <trkpt lat="45.69187" lon="6.65496">
        <ele>1704.2</ele>
        <time>2022-06-15T08:56:40Z</time>
      </trkpt>
      <trkpt lat="45.69179" lon="6.6548">
        <ele>1703</ele>
        <time>2022-06-15T08:56:41Z</time>
      </trkpt>
      <trkpt lat="45.69171" lon="6.65464">
        <ele>1701.9</ele>
        <time>2022-06-15T08:56:42Z</time>
      </trkpt>
      <trkpt lat="45.69162" lon="6.65448">
        <ele>1700.7</ele>
        <time>2022-06-15T08:56:43Z</time>
      </trkpt>
      <trkpt lat="45.69154" lon="6.65434">
        <ele>1699.2</ele>
        <time>2022-06-15T08:56:44Z</time>
      </trkpt>
      <trkpt lat="45.69145" lon="6.65421">
        <ele>1696.8</ele>
        <time>2022-06-15T08:56:45Z</time>
      </trkpt>
      <trkpt lat="45.69137" lon="6.65409">
        <ele>1695.8</ele>
        <time>2022-06-15T08:56:46Z</time>
      </trkpt>
      <trkpt lat="45.6913" lon="6.65399">
        <ele>1695.2</ele>
        <time>2022-06-15T08:56:47Z</time>
      </trkpt>
      <trkpt lat="45.69123" lon="6.65391">
        <ele>1694</ele>
        <time>2022-06-15T08:56:48Z</time>
      </trkpt>
      <trkpt lat="45.69116" lon="6.65386">
        <ele>1693.6</ele>
        <time>2022-06-15T08:56:49Z</time>
      </trkpt>
      <trkpt lat="45.69112" lon="6.65379">
        <ele>1693.8</ele>
        <time>2022-06-15T08:56:50Z</time>
      </trkpt>
      <trkpt lat="45.69112" lon="6.65373">
        <ele>1693</ele>
        <time>2022-06-15T08:56:51Z</time>
      </trkpt>
      <trkpt lat="45.69116" lon="6.65368">
        <ele>1691</ele>
        <time>2022-06-15T08:56:52Z</time>
      </trkpt>
      <trkpt lat="45.69122" lon="6.65368">
        <ele>1689</ele>
        <time>2022-06-15T08:56:53Z</time>
      </trkpt>
      <trkpt lat="45.69127" lon="6.65374">
        <ele>1688.6</ele>
        <time>2022-06-15T08:56:54Z</time>
      </trkpt>
      <trkpt lat="45.69132" lon="6.65381">
        <ele>1689.2</ele>
        <time>2022-06-15T08:56:55Z</time>
      </trkpt>
      <trkpt lat="45.69137" lon="6.65389">
        <ele>1690.3</ele>
        <time>2022-06-15T08:56:56Z</time>
      </trkpt>
      <trkpt lat="45.69143" lon="6.65396">
        <ele>1689.9</ele>
        <time>2022-06-15T08:56:57Z</time>
      </trkpt>
      <trkpt lat="45.6915" lon="6.65404">
        <ele>1689.3</ele>
        <time>2022-06-15T08:56:58Z</time>
      </trkpt>
      <trkpt lat="45.69157" lon="6.65412">
        <ele>1689.1</ele>
        <time>2022-06-15T08:56:59Z</time>
      </trkpt>
      <trkpt lat="45.69164" lon="6.65421">
        <ele>1689.4</ele>
        <time>2022-06-15T08:57:00Z</time>
      </trkpt>
      <trkpt lat="45.69172" lon="6.65429">
        <ele>1689.1</ele>
        <time>2022-06-15T08:57:01Z</time>
      </trkpt>
      <trkpt lat="45.6918" lon="6.65438">
        <ele>1688.4</ele>
        <time>2022-06-15T08:57:02Z</time>
      </trkpt>
      <trkpt lat="45.69188" lon="6.65446">
        <ele>1687.5</ele>
        <time>2022-06-15T08:57:03Z</time>
      </trkpt>
      <trkpt lat="45.69196" lon="6.65455">
        <ele>1686.5</ele>
        <time>2022-06-15T08:57:04Z</time>
      </trkpt>
      <trkpt lat="45.69205" lon="6.65465">
        <ele>1685.2</ele>
        <time>2022-06-15T08:57:05Z</time>
      </trkpt>
      <trkpt lat="45.69213" lon="6.65477">
        <ele>1684.4</ele>
        <time>2022-06-15T08:57:06Z</time>
      </trkpt>
      <trkpt lat="45.6922" lon="6.65489">
        <ele>1682.9</ele>
        <time>2022-06-15T08:57:07Z</time>
      </trkpt>
      <trkpt lat="45.69228" lon="6.65502">
        <ele>1681.7</ele>
        <time>2022-06-15T08:57:08Z</time>
      </trkpt>
      <trkpt lat="45.69236" lon="6.65515">
        <ele>1681.5</ele>
        <time>2022-06-15T08:57:09Z</time>
      </trkpt>
      <trkpt lat="45.69244" lon="6.65528">
        <ele>1681.1</ele>
        <time>2022-06-15T08:57:10Z</time>
      </trkpt>
      <trkpt lat="45.69253" lon="6.65541">
        <ele>1679.2</ele>
        <time>2022-06-15T08:57:11Z</time>
      </trkpt>
      <trkpt lat="45.69262" lon="6.65553">
        <ele>1677.8</ele>
        <time>2022-06-15T08:57:12Z</time>
      </trkpt>
      <trkpt lat="45.69273" lon="6.65564">
        <ele>1677.4</ele>
        <time>2022-06-15T08:57:13Z</time>
      </trkpt>
      <trkpt lat="45.69283" lon="6.65574">
        <ele>1676.3</ele>
        <time>2022-06-15T08:57:14Z</time>
      </trkpt>
      <trkpt lat="45.69294" lon="6.65584">
        <ele>1675.1</ele>
        <time>2022-06-15T08:57:15Z</time>
      </trkpt>
      <trkpt lat="45.69306" lon="6.65594">
        <ele>1674.4</ele>
        <time>2022-06-15T08:57:16Z</time>
      </trkpt>
      <trkpt lat="45.69317" lon="6.65604">
        <ele>1673</ele>
        <time>2022-06-15T08:57:17Z</time>
      </trkpt>
      <trkpt lat="45.69328" lon="6.65615">
        <ele>1671.4</ele>
        <time>2022-06-15T08:57:18Z</time>
      </trkpt>
      <trkpt lat="45.69339" lon="6.65627">
        <ele>1669.6</ele>
        <time>2022-06-15T08:57:19Z</time>
      </trkpt>
      <trkpt lat="45.69349" lon="6.65641">
        <ele>1668.5</ele>
        <time>2022-06-15T08:57:20Z</time>
      </trkpt>
      <trkpt lat="45.69359" lon="6.65655">
        <ele>1667.5</ele>
        <time>2022-06-15T08:57:21Z</time>
      </trkpt>
      <trkpt lat="45.6937" lon="6.65666">
        <ele>1665.9</ele>
        <time>2022-06-15T08:57:22Z</time>
      </trkpt>
      <trkpt lat="45.6938" lon="6.65676">
        <ele>1664.6</ele>
        <time>2022-06-15T08:57:23Z</time>
      </trkpt>
      <trkpt lat="45.69389" lon="6.65687">
        <ele>1663.2</ele>
        <time>2022-06-15T08:57:24Z</time>
      </trkpt>
      <trkpt lat="45.69396" lon="6.65699">
        <ele>1662.6</ele>
        <time>2022-06-15T08:57:25Z</time>
      </trkpt>
      <trkpt lat="45.69401" lon="6.65711">
        <ele>1662</ele>
        <time>2022-06-15T08:57:26Z</time>
      </trkpt>
      <trkpt lat="45.69405" lon="6.65723">
        <ele>1661.5</ele>
        <time>2022-06-15T08:57:27Z</time>
      </trkpt>
      <trkpt lat="45.69409" lon="6.65734">
        <ele>1660.9</ele>
        <time>2022-06-15T08:57:28Z</time>
      </trkpt>
      <trkpt lat="45.69412" lon="6.65744">
        <ele>1660.1</ele>
        <time>2022-06-15T08:57:29Z</time>
      </trkpt>
      <trkpt lat="45.69416" lon="6.65753">
        <ele>1661.2</ele>
        <time>2022-06-15T08:57:30Z</time>
      </trkpt>
      <trkpt lat="45.69422" lon="6.6576">
        <ele>1665.8</ele>
        <time>2022-06-15T08:57:31Z</time>
      </trkpt>
      <trkpt lat="45.6943" lon="6.65765">
        <ele>1667.2</ele>
        <time>2022-06-15T08:57:32Z</time>
      </trkpt>
      <trkpt lat="45.69438" lon="6.65769">
        <ele>1665.7</ele>
        <time>2022-06-15T08:57:33Z</time>
      </trkpt>
      <trkpt lat="45.69447" lon="6.65773">
        <ele>1663.1</ele>
        <time>2022-06-15T08:57:34Z</time>
      </trkpt>
      <trkpt lat="45.69456" lon="6.65776">
        <ele>1660.9</ele>
        <time>2022-06-15T08:57:35Z</time>
      </trkpt>
      <trkpt lat="45.69466" lon="6.65779">
        <ele>1658.2</ele>
        <time>2022-06-15T08:57:36Z</time>
      </trkpt>
      <trkpt lat="45.69477" lon="6.65782">
        <ele>1656</ele>
        <time>2022-06-15T08:57:37Z</time>
      </trkpt>
      <trkpt lat="45.69488" lon="6.65784">
        <ele>1655.2</ele>
        <time>2022-06-15T08:57:38Z</time>
      </trkpt>
      <trkpt lat="45.69499" lon="6.65787">
        <ele>1654.3</ele>
        <time>2022-06-15T08:57:39Z</time>
      </trkpt>
      <trkpt lat="45.69511" lon="6.65789">
        <ele>1653.3</ele>
        <time>2022-06-15T08:57:40Z</time>
      </trkpt>
      <trkpt lat="45.69523" lon="6.65792">
        <ele>1652</ele>
        <time>2022-06-15T08:57:41Z</time>
      </trkpt>
      <trkpt lat="45.69535" lon="6.65795">
        <ele>1650.4</ele>
        <time>2022-06-15T08:57:42Z</time>
      </trkpt>
      <trkpt lat="45.69546" lon="6.65798">
        <ele>1648.5</ele>
        <time>2022-06-15T08:57:43Z</time>
      </trkpt>
      <trkpt lat="45.69557" lon="6.658">
        <ele>1646.7</ele>
        <time>2022-06-15T08:57:44Z</time>
      </trkpt>
      <trkpt lat="45.69566" lon="6.65799">
        <ele>1646.1</ele>
        <time>2022-06-15T08:57:45Z</time>
      </trkpt>
      <trkpt lat="45.69575" lon="6.65795">
        <ele>1645.3</ele>
        <time>2022-06-15T08:57:46Z</time>
      </trkpt>
      <trkpt lat="45.69584" lon="6.65788">
        <ele>1644.8</ele>
        <time>2022-06-15T08:57:47Z</time>
      </trkpt>
      <trkpt lat="45.6959" lon="6.65779">
        <ele>1645.2</ele>
        <time>2022-06-15T08:57:48Z</time>
      </trkpt>
      <trkpt lat="45.69594" lon="6.65768">
        <ele>1645</ele>
        <time>2022-06-15T08:57:49Z</time>
      </trkpt>
      <trkpt lat="45.69598" lon="6.65756">
        <ele>1644.2</ele>
        <time>2022-06-15T08:57:50Z</time>
      </trkpt>
      <trkpt lat="45.696" lon="6.65742">
        <ele>1643.1</ele>
        <time>2022-06-15T08:57:51Z</time>
      </trkpt>
      <trkpt lat="45.696" lon="6.65727">
        <ele>1641.9</ele>
        <time>2022-06-15T08:57:52Z</time>
      </trkpt>
      <trkpt lat="45.69598" lon="6.65712">
        <ele>1641.4</ele>
        <time>2022-06-15T08:57:53Z</time>
      </trkpt>
      <trkpt lat="45.69593" lon="6.65698">
        <ele>1640.9</ele>
        <time>2022-06-15T08:57:54Z</time>
      </trkpt>
      <trkpt lat="45.69585" lon="6.65687">
        <ele>1640.2</ele>
        <time>2022-06-15T08:57:55Z</time>
      </trkpt>
      <trkpt lat="45.69576" lon="6.65678">
        <ele>1639.8</ele>
        <time>2022-06-15T08:57:56Z</time>
      </trkpt>
      <trkpt lat="45.69567" lon="6.65673">
        <ele>1639</ele>
        <time>2022-06-15T08:57:57Z</time>
      </trkpt>
      <trkpt lat="45.69556" lon="6.65672">
        <ele>1637.7</ele>
        <time>2022-06-15T08:57:58Z</time>
      </trkpt>
      <trkpt lat="45.69545" lon="6.65672">
        <ele>1636.3</ele>
        <time>2022-06-15T08:57:59Z</time>
      </trkpt>
      <trkpt lat="45.69535" lon="6.65673">
        <ele>1634.9</ele>
        <time>2022-06-15T08:58:00Z</time>
      </trkpt>
      <trkpt lat="45.69524" lon="6.65675">
        <ele>1633.7</ele>
        <time>2022-06-15T08:58:01Z</time>
      </trkpt>
      <trkpt lat="45.69513" lon="6.65677">
        <ele>1633</ele>
        <time>2022-06-15T08:58:02Z</time>
      </trkpt>
      <trkpt lat="45.69502" lon="6.65678">
        <ele>1632.3</ele>
        <time>2022-06-15T08:58:03Z</time>
      </trkpt>
      <trkpt lat="45.6949" lon="6.65678">
        <ele>1631.5</ele>
        <time>2022-06-15T08:58:04Z</time>
      </trkpt>
      <trkpt lat="45.69479" lon="6.65674">
        <ele>1630.3</ele>
        <time>2022-06-15T08:58:05Z</time>
      </trkpt>
      <trkpt lat="45.69469" lon="6.65667">
        <ele>1629.6</ele>
        <time>2022-06-15T08:58:06Z</time>
      </trkpt>
      <trkpt lat="45.6946" lon="6.65657">
        <ele>1629.9</ele>
        <time>2022-06-15T08:58:07Z</time>
      </trkpt>
      <trkpt lat="45.69453" lon="6.65645">
        <ele>1629.5</ele>
        <time>2022-06-15T08:58:08Z</time>
      </trkpt>
      <trkpt lat="45.69448" lon="6.65631">
        <ele>1628.9</ele>
        <time>2022-06-15T08:58:09Z</time>
      </trkpt>
      <trkpt lat="45.69446" lon="6.65616">
        <ele>1628.2</ele>
        <time>2022-06-15T08:58:10Z</time>
      </trkpt>
      <trkpt lat="45.69445" lon="6.65601">
        <ele>1627.5</ele>
        <time>2022-06-15T08:58:11Z</time>
      </trkpt>
      <trkpt lat="45.69447" lon="6.65588">
        <ele>1626.7</ele>
        <time>2022-06-15T08:58:12Z</time>
      </trkpt>
      <trkpt lat="45.6945" lon="6.65577">
        <ele>1625.8</ele>
        <time>2022-06-15T08:58:13Z</time>
      </trkpt>
      <trkpt lat="45.69456" lon="6.65566">
        <ele>1624.6</ele>
        <time>2022-06-15T08:58:14Z</time>
      </trkpt>
      <trkpt lat="45.69463" lon="6.65557">
        <ele>1623</ele>
        <time>2022-06-15T08:58:15Z</time>
      </trkpt>
      <trkpt lat="45.69471" lon="6.6555">
        <ele>1620.6</ele>
        <time>2022-06-15T08:58:16Z</time>
      </trkpt>
      <trkpt lat="45.69479" lon="6.65546">
        <ele>1620.4</ele>
        <time>2022-06-15T08:58:17Z</time>
      </trkpt>
      <trkpt lat="45.69487" lon="6.65545">
        <ele>1621.3</ele>
        <time>2022-06-15T08:58:18Z</time>
      </trkpt>
      <trkpt lat="45.69496" lon="6.65546">
        <ele>1622.7</ele>
        <time>2022-06-15T08:58:19Z</time>
      </trkpt>
      <trkpt lat="45.69504" lon="6.65549">
        <ele>1623.1</ele>
        <time>2022-06-15T08:58:20Z</time>
      </trkpt>
      <trkpt lat="45.69513" lon="6.65552">
        <ele>1621.8</ele>
        <time>2022-06-15T08:58:21Z</time>
      </trkpt>
      <trkpt lat="45.69522" lon="6.65555">
        <ele>1620.3</ele>
        <time>2022-06-15T08:58:22Z</time>
      </trkpt>
      <trkpt lat="45.69532" lon="6.65559">
        <ele>1620.2</ele>
        <time>2022-06-15T08:58:23Z</time>
      </trkpt>
      <trkpt lat="45.69541" lon="6.65562">
        <ele>1620.5</ele>
        <time>2022-06-15T08:58:24Z</time>
      </trkpt>
      <trkpt lat="45.69551" lon="6.65565">
        <ele>1620.6</ele>
        <time>2022-06-15T08:58:25Z</time>
      </trkpt>
      <trkpt lat="45.69562" lon="6.65569">
        <ele>1620.2</ele>
        <time>2022-06-15T08:58:26Z</time>
      </trkpt>
      <trkpt lat="45.69572" lon="6.65572">
        <ele>1619.2</ele>
        <time>2022-06-15T08:58:27Z</time>
      </trkpt>
      <trkpt lat="45.69583" lon="6.65575">
        <ele>1617.7</ele>
        <time>2022-06-15T08:58:28Z</time>
      </trkpt>
      <trkpt lat="45.69594" lon="6.65579">
        <ele>1616.3</ele>
        <time>2022-06-15T08:58:29Z</time>
      </trkpt>
      <trkpt lat="45.69604" lon="6.65584">
        <ele>1614.6</ele>
        <time>2022-06-15T08:58:30Z</time>
      </trkpt>
      <trkpt lat="45.69615" lon="6.65589">
        <ele>1614.5</ele>
        <time>2022-06-15T08:58:31Z</time>
      </trkpt>
      <trkpt lat="45.69627" lon="6.65594">
        <ele>1614.1</ele>
        <time>2022-06-15T08:58:32Z</time>
      </trkpt>
      <trkpt lat="45.69638" lon="6.65599">
        <ele>1612.8</ele>
        <time>2022-06-15T08:58:33Z</time>
      </trkpt>
      <trkpt lat="45.6965" lon="6.65604">
        <ele>1610.8</ele>
        <time>2022-06-15T08:58:34Z</time>
      </trkpt>
      <trkpt lat="45.69663" lon="6.6561">
        <ele>1608.7</ele>
        <time>2022-06-15T08:58:35Z</time>
      </trkpt>
      <trkpt lat="45.69675" lon="6.65616">
        <ele>1607.8</ele>
        <time>2022-06-15T08:58:36Z</time>
      </trkpt>
      <trkpt lat="45.69688" lon="6.65622">
        <ele>1606.8</ele>
        <time>2022-06-15T08:58:37Z</time>
      </trkpt>
      <trkpt lat="45.697" lon="6.65628">
        <ele>1605.4</ele>
        <time>2022-06-15T08:58:38Z</time>
      </trkpt>
      <trkpt lat="45.69713" lon="6.65634">
        <ele>1604.3</ele>
        <time>2022-06-15T08:58:39Z</time>
      </trkpt>
      <trkpt lat="45.69727" lon="6.65638">
        <ele>1603.3</ele>
        <time>2022-06-15T08:58:40Z</time>
      </trkpt>
      <trkpt lat="45.6974" lon="6.65641">
        <ele>1602.5</ele>
        <time>2022-06-15T08:58:41Z</time>
      </trkpt>
      <trkpt lat="45.69754" lon="6.65642">
        <ele>1601.5</ele>
        <time>2022-06-15T08:58:42Z</time>
      </trkpt>
      <trkpt lat="45.69767" lon="6.65641">
        <ele>1600.4</ele>
        <time>2022-06-15T08:58:43Z</time>
      </trkpt>
      <trkpt lat="45.6978" lon="6.65639">
        <ele>1598.9</ele>
        <time>2022-06-15T08:58:44Z</time>
      </trkpt>
      <trkpt lat="45.69793" lon="6.65634">
        <ele>1597.8</ele>
        <time>2022-06-15T08:58:45Z</time>
      </trkpt>
      <trkpt lat="45.69805" lon="6.65627">
        <ele>1596.3</ele>
        <time>2022-06-15T08:58:46Z</time>
      </trkpt>
      <trkpt lat="45.69817" lon="6.65619">
        <ele>1593.2</ele>
        <time>2022-06-15T08:58:47Z</time>
      </trkpt>
      <trkpt lat="45.69828" lon="6.65608">
        <ele>1589.8</ele>
        <time>2022-06-15T08:58:48Z</time>
      </trkpt>
      <trkpt lat="45.69839" lon="6.65596">
        <ele>1584</ele>
        <time>2022-06-15T08:58:49Z</time>
      </trkpt>
      <trkpt lat="45.69849" lon="6.65583">
        <ele>1579.2</ele>
        <time>2022-06-15T08:58:50Z</time>
      </trkpt>
      <trkpt lat="45.69858" lon="6.6557">
        <ele>1579.7</ele>
        <time>2022-06-15T08:58:51Z</time>
      </trkpt>
      <trkpt lat="45.69868" lon="6.65558">
        <ele>1584.6</ele>
        <time>2022-06-15T08:58:52Z</time>
      </trkpt>
      <trkpt lat="45.69878" lon="6.65548">
        <ele>1587.9</ele>
        <time>2022-06-15T08:58:53Z</time>
      </trkpt>
      <trkpt lat="45.69889" lon="6.65541">
        <ele>1589.9</ele>
        <time>2022-06-15T08:58:54Z</time>
      </trkpt>
      <trkpt lat="45.699" lon="6.65537">
        <ele>1590.2</ele>
        <time>2022-06-15T08:58:55Z</time>
      </trkpt>
      <trkpt lat="45.69911" lon="6.65534">
        <ele>1590.2</ele>
        <time>2022-06-15T08:58:56Z</time>
      </trkpt>
      <trkpt lat="45.69922" lon="6.65531">
        <ele>1590.8</ele>
        <time>2022-06-15T08:58:57Z</time>
      </trkpt>
      <trkpt lat="45.69933" lon="6.65528">
        <ele>1591.2</ele>
        <time>2022-06-15T08:58:58Z</time>
      </trkpt>
      <trkpt lat="45.69943" lon="6.65523">
        <ele>1591.7</ele>
        <time>2022-06-15T08:58:59Z</time>
      </trkpt>
      <trkpt lat="45.69952" lon="6.65517">
        <ele>1592</ele>
        <time>2022-06-15T08:59:00Z</time>
      </trkpt>
      <trkpt lat="45.69959" lon="6.65508">
        <ele>1591.1</ele>
        <time>2022-06-15T08:59:01Z</time>
      </trkpt>
      <trkpt lat="45.69965" lon="6.65496">
        <ele>1589.5</ele>
        <time>2022-06-15T08:59:02Z</time>
      </trkpt>
      <trkpt lat="45.69969" lon="6.65485">
        <ele>1589.6</ele>
        <time>2022-06-15T08:59:03Z</time>
      </trkpt>
      <trkpt lat="45.69973" lon="6.65473">
        <ele>1590.2</ele>
        <time>2022-06-15T08:59:04Z</time>
      </trkpt>
      <trkpt lat="45.69976" lon="6.65461">
        <ele>1591.3</ele>
        <time>2022-06-15T08:59:05Z</time>
      </trkpt>
      <trkpt lat="45.69979" lon="6.6545">
        <ele>1592</ele>
        <time>2022-06-15T08:59:06Z</time>
      </trkpt>
      <trkpt lat="45.69982" lon="6.65438">
        <ele>1592.1</ele>
        <time>2022-06-15T08:59:07Z</time>
      </trkpt>
      <trkpt lat="45.69985" lon="6.65427">
        <ele>1592</ele>
        <time>2022-06-15T08:59:08Z</time>
      </trkpt>
      <trkpt lat="45.69988" lon="6.65416">
        <ele>1591.9</ele>
        <time>2022-06-15T08:59:09Z</time>
      </trkpt>
      <trkpt lat="45.69992" lon="6.65405">
        <ele>1591.3</ele>
        <time>2022-06-15T08:59:10Z</time>
      </trkpt>
      <trkpt lat="45.69997" lon="6.65395">
        <ele>1590.9</ele>
        <time>2022-06-15T08:59:11Z</time>
      </trkpt>
      <trkpt lat="45.70002" lon="6.65385">
        <ele>1591.2</ele>
        <time>2022-06-15T08:59:12Z</time>
      </trkpt>
      <trkpt lat="45.70007" lon="6.65377">
        <ele>1591.8</ele>
        <time>2022-06-15T08:59:13Z</time>
      </trkpt>
      <trkpt lat="45.70013" lon="6.65368">
        <ele>1592.2</ele>
        <time>2022-06-15T08:59:14Z</time>
      </trkpt>
      <trkpt lat="45.70021" lon="6.65355">
        <ele>1592.2</ele>
        <time>2022-06-15T08:59:15Z</time>
      </trkpt>
      <trkpt lat="45.70023" lon="6.65351">
        <ele>1592.1</ele>
        <time>2022-06-15T08:59:16Z</time>
      </trkpt>
      <trkpt lat="45.70028" lon="6.65342">
        <ele>1592.1</ele>
        <time>2022-06-15T08:59:17Z</time>
      </trkpt>
      <trkpt lat="45.70033" lon="6.65327">
        <ele>1592.2</ele>
        <time>2022-06-15T08:59:18Z</time>
      </trkpt>
      <trkpt lat="45.70035" lon="6.65322">
        <ele>1592.2</ele>
        <time>2022-06-15T08:59:19Z</time>
      </trkpt>
      <trkpt lat="45.70037" lon="6.65311">
        <ele>1591.7</ele>
        <time>2022-06-15T08:59:20Z</time>
      </trkpt>
      <trkpt lat="45.70039" lon="6.65299">
        <ele>1591.8</ele>
        <time>2022-06-15T08:59:21Z</time>
      </trkpt>
      <trkpt lat="45.70039" lon="6.65283">
        <ele>1592.6</ele>
        <time>2022-06-15T08:59:22Z</time>
      </trkpt>
      <trkpt lat="45.70039" lon="6.65277">
        <ele>1592.9</ele>
        <time>2022-06-15T08:59:23Z</time>
      </trkpt>
      <trkpt lat="45.70038" lon="6.65266">
        <ele>1593.9</ele>
        <time>2022-06-15T08:59:24Z</time>
      </trkpt>
      <trkpt lat="45.70037" lon="6.65256">
        <ele>1594.7</ele>
        <time>2022-06-15T08:59:25Z</time>
      </trkpt>
      <trkpt lat="45.70036" lon="6.65245">
        <ele>1595</ele>
        <time>2022-06-15T08:59:26Z</time>
      </trkpt>
      <trkpt lat="45.70034" lon="6.65234">
        <ele>1595.3</ele>
        <time>2022-06-15T08:59:27Z</time>
      </trkpt>
      <trkpt lat="45.70033" lon="6.65224">
        <ele>1595.3</ele>
        <time>2022-06-15T08:59:28Z</time>
      </trkpt>
      <trkpt lat="45.70032" lon="6.65213">
        <ele>1595.1</ele>
        <time>2022-06-15T08:59:29Z</time>
      </trkpt>
      <trkpt lat="45.70031" lon="6.65203">
        <ele>1594.9</ele>
        <time>2022-06-15T08:59:30Z</time>
      </trkpt>
      <trkpt lat="45.70031" lon="6.65192">
        <ele>1594.9</ele>
        <time>2022-06-15T08:59:31Z</time>
      </trkpt>
      <trkpt lat="45.70031" lon="6.65182">
        <ele>1595.3</ele>
        <time>2022-06-15T08:59:32Z</time>
      </trkpt>
      <trkpt lat="45.70032" lon="6.65172">
        <ele>1595.6</ele>
        <time>2022-06-15T08:59:33Z</time>
      </trkpt>
      <trkpt lat="45.70032" lon="6.65163">
        <ele>1596.1</ele>
        <time>2022-06-15T08:59:34Z</time>
      </trkpt>
      <trkpt lat="45.70033" lon="6.65154">
        <ele>1596.9</ele>
        <time>2022-06-15T08:59:35Z</time>
      </trkpt>
      <trkpt lat="45.70033" lon="6.65146">
        <ele>1597.4</ele>
        <time>2022-06-15T08:59:36Z</time>
      </trkpt>
      <trkpt lat="45.70033" lon="6.65139">
        <ele>1597.8</ele>
        <time>2022-06-15T08:59:37Z</time>
      </trkpt>
      <trkpt lat="45.70032" lon="6.65132">
        <ele>1597.9</ele>
        <time>2022-06-15T08:59:38Z</time>
      </trkpt>
      <trkpt lat="45.70032" lon="6.65125">
        <ele>1597.8</ele>
        <time>2022-06-15T08:59:39Z</time>
      </trkpt>
      <trkpt lat="45.70031" lon="6.65118">
        <ele>1597.9</ele>
        <time>2022-06-15T08:59:40Z</time>
      </trkpt>
      <trkpt lat="45.70031" lon="6.65112">
        <ele>1598</ele>
        <time>2022-06-15T08:59:41Z</time>
      </trkpt>
      <trkpt lat="45.7003" lon="6.65106">
        <ele>1598.6</ele>
        <time>2022-06-15T08:59:42Z</time>
      </trkpt>
      <trkpt lat="45.70029" lon="6.651">
        <ele>1599.1</ele>
        <time>2022-06-15T08:59:43Z</time>
      </trkpt>
      <trkpt lat="45.70028" lon="6.65095">
        <ele>1599.7</ele>
        <time>2022-06-15T08:59:44Z</time>
      </trkpt>
      <trkpt lat="45.70027" lon="6.6509">
        <ele>1600.2</ele>
        <time>2022-06-15T08:59:45Z</time>
      </trkpt>
      <trkpt lat="45.70026" lon="6.65084">
        <ele>1600.7</ele>
        <time>2022-06-15T08:59:46Z</time>
      </trkpt>
      <trkpt lat="45.70025" lon="6.65079">
        <ele>1600.9</ele>
        <time>2022-06-15T08:59:47Z</time>
      </trkpt>
      <trkpt lat="45.70025" lon="6.65074">
        <ele>1601</ele>
        <time>2022-06-15T08:59:48Z</time>
      </trkpt>
      <trkpt lat="45.70024" lon="6.65069">
        <ele>1601.1</ele>
        <time>2022-06-15T08:59:49Z</time>
      </trkpt>
      <trkpt lat="45.70024" lon="6.65064">
        <ele>1601.3</ele>
        <time>2022-06-15T08:59:50Z</time>
      </trkpt>
      <trkpt lat="45.70024" lon="6.65059">
        <ele>1601.7</ele>
        <time>2022-06-15T08:59:51Z</time>
      </trkpt>
      <trkpt lat="45.70024" lon="6.65054">
        <ele>1601.9</ele>
        <time>2022-06-15T08:59:52Z</time>
      </trkpt>
      <trkpt lat="45.70024" lon="6.65049">
        <ele>1601.9</ele>
        <time>2022-06-15T08:59:53Z</time>
      </trkpt>
      <trkpt lat="45.70025" lon="6.65044">
        <ele>1602</ele>
        <time>2022-06-15T08:59:54Z</time>
      </trkpt>
      <trkpt lat="45.70026" lon="6.65039">
        <ele>1602.1</ele>
        <time>2022-06-15T08:59:55Z</time>
      </trkpt>
      <trkpt lat="45.70027" lon="6.65035">
        <ele>1602.2</ele>
        <time>2022-06-15T08:59:56Z</time>
      </trkpt>
      <trkpt lat="45.70028" lon="6.6503">
        <ele>1602.3</ele>
        <time>2022-06-15T08:59:57Z</time>
      </trkpt>
      <trkpt lat="45.7003" lon="6.65027">
        <ele>1602.8</ele>
        <time>2022-06-15T08:59:58Z</time>
      </trkpt>
      <trkpt lat="45.70032" lon="6.65023">
        <ele>1603.2</ele>
        <time>2022-06-15T08:59:59Z</time>
      </trkpt>
      <trkpt lat="45.70035" lon="6.6502">
        <ele>1603.5</ele>
        <time>2022-06-15T09:00:00Z</time>
      </trkpt>
      <trkpt lat="45.70037" lon="6.65016">
        <ele>1603.7</ele>
        <time>2022-06-15T09:00:01Z</time>
      </trkpt>
      <trkpt lat="45.70039" lon="6.65013">
        <ele>1603.8</ele>
        <time>2022-06-15T09:00:02Z</time>
      </trkpt>
      <trkpt lat="45.70042" lon="6.65011">
        <ele>1603.9</ele>
        <time>2022-06-15T09:00:03Z</time>
      </trkpt>
      <trkpt lat="45.70045" lon="6.65008">
        <ele>1603.9</ele>
        <time>2022-06-15T09:00:04Z</time>
      </trkpt>
      <trkpt lat="45.70048" lon="6.65006">
        <ele>1603.9</ele>
        <time>2022-06-15T09:00:05Z</time>
      </trkpt>
      <trkpt lat="45.70051" lon="6.65004">
        <ele>1603.7</ele>
        <time>2022-06-15T09:00:06Z</time>
      </trkpt>
      <trkpt lat="45.70054" lon="6.65002">
        <ele>1603.4</ele>
        <time>2022-06-15T09:00:07Z</time>
      </trkpt>
      <trkpt lat="45.70057" lon="6.65">
        <ele>1603.1</ele>
        <time>2022-06-15T09:00:08Z</time>
      </trkpt>
      <trkpt lat="45.70061" lon="6.64998">
        <ele>1603</ele>
        <time>2022-06-15T09:00:09Z</time>
      </trkpt>
      <trkpt lat="45.70064" lon="6.64996">
        <ele>1603.1</ele>
        <time>2022-06-15T09:00:10Z</time>
      </trkpt>
      <trkpt lat="45.70068" lon="6.64994">
        <ele>1603.1</ele>
        <time>2022-06-15T09:00:11Z</time>
      </trkpt>
      <trkpt lat="45.70071" lon="6.64991">
        <ele>1603.2</ele>
        <time>2022-06-15T09:00:12Z</time>
      </trkpt>
      <trkpt lat="45.70075" lon="6.64988">
        <ele>1603.2</ele>
        <time>2022-06-15T09:00:13Z</time>
      </trkpt>
      <trkpt lat="45.70078" lon="6.64985">
        <ele>1603.4</ele>
        <time>2022-06-15T09:00:14Z</time>
      </trkpt>
      <trkpt lat="45.70082" lon="6.64981">
        <ele>1603.6</ele>
        <time>2022-06-15T09:00:15Z</time>
      </trkpt>
      <trkpt lat="45.70085" lon="6.64977">
        <ele>1603.9</ele>
        <time>2022-06-15T09:00:16Z</time>
      </trkpt>
      <trkpt lat="45.70088" lon="6.64973">
        <ele>1604.1</ele>
        <time>2022-06-15T09:00:17Z</time>
      </trkpt>
      <trkpt lat="45.70091" lon="6.64968">
        <ele>1604.3</ele>
        <time>2022-06-15T09:00:18Z</time>
      </trkpt>
      <trkpt lat="45.70094" lon="6.64964">
        <ele>1604.5</ele>
        <time>2022-06-15T09:00:19Z</time>
      </trkpt>
      <trkpt lat="45.70097" lon="6.64959">
        <ele>1604.6</ele>
        <time>2022-06-15T09:00:20Z</time>
      </trkpt>
      <trkpt lat="45.70099" lon="6.64955">
        <ele>1604.5</ele>
        <time>2022-06-15T09:00:21Z</time>
      </trkpt>
      <trkpt lat="45.70101" lon="6.64949">
        <ele>1604.4</ele>
        <time>2022-06-15T09:00:22Z</time>
      </trkpt>
      <trkpt lat="45.70104" lon="6.64944">
        <ele>1604.4</ele>
        <time>2022-06-15T09:00:23Z</time>
      </trkpt>
      <trkpt lat="45.70106" lon="6.64939">
        <ele>1604.8</ele>
        <time>2022-06-15T09:00:24Z</time>
      </trkpt>
      <trkpt lat="45.70107" lon="6.64934">
        <ele>1605.1</ele>
        <time>2022-06-15T09:00:25Z</time>
      </trkpt>
      <trkpt lat="45.70109" lon="6.6493">
        <ele>1605.4</ele>
        <time>2022-06-15T09:00:26Z</time>
      </trkpt>
      <trkpt lat="45.70109" lon="6.64924">
        <ele>1605.6</ele>
        <time>2022-06-15T09:00:27Z</time>
      </trkpt>
      <trkpt lat="45.7011" lon="6.64919">
        <ele>1605.7</ele>
        <time>2022-06-15T09:00:28Z</time>
      </trkpt>
      <trkpt lat="45.70111" lon="6.64913">
        <ele>1606</ele>
        <time>2022-06-15T09:00:29Z</time>
      </trkpt>
      <trkpt lat="45.70112" lon="6.64908">
        <ele>1606.2</ele>
        <time>2022-06-15T09:00:30Z</time>
      </trkpt>
      <trkpt lat="45.70112" lon="6.64902">
        <ele>1606.2</ele>
        <time>2022-06-15T09:00:31Z</time>
      </trkpt>
      <trkpt lat="45.70111" lon="6.64896">
        <ele>1606</ele>
        <time>2022-06-15T09:00:32Z</time>
      </trkpt>
      <trkpt lat="45.70111" lon="6.6489">
        <ele>1605.9</ele>
        <time>2022-06-15T09:00:33Z</time>
      </trkpt>
      <trkpt lat="45.70111" lon="6.64884">
        <ele>1606.1</ele>
        <time>2022-06-15T09:00:34Z</time>
      </trkpt>
      <trkpt lat="45.70111" lon="6.64878">
        <ele>1606.3</ele>
        <time>2022-06-15T09:00:35Z</time>
      </trkpt>
      <trkpt lat="45.7011" lon="6.64873">
        <ele>1606.4</ele>
        <time>2022-06-15T09:00:36Z</time>
      </trkpt>
      <trkpt lat="45.70108" lon="6.64867">
        <ele>1606.3</ele>
        <time>2022-06-15T09:00:37Z</time>
      </trkpt>
      <trkpt lat="45.70107" lon="6.64862">
        <ele>1606.2</ele>
        <time>2022-06-15T09:00:38Z</time>
      </trkpt>
      <trkpt lat="45.70105" lon="6.64857">
        <ele>1607</ele>
        <time>2022-06-15T09:00:39Z</time>
      </trkpt>
      <trkpt lat="45.70104" lon="6.64851">
        <ele>1608</ele>
        <time>2022-06-15T09:00:40Z</time>
      </trkpt>
      <trkpt lat="45.70102" lon="6.64846">
        <ele>1608.9</ele>
        <time>2022-06-15T09:00:41Z</time>
      </trkpt>
      <trkpt lat="45.701" lon="6.64841">
        <ele>1609.3</ele>
        <time>2022-06-15T09:00:42Z</time>
      </trkpt>
      <trkpt lat="45.70097" lon="6.64836">
        <ele>1609.4</ele>
        <time>2022-06-15T09:00:43Z</time>
      </trkpt>
      <trkpt lat="45.70094" lon="6.64832">
        <ele>1609.5</ele>
        <time>2022-06-15T09:00:44Z</time>
      </trkpt>
      <trkpt lat="45.70092" lon="6.64827">
        <ele>1609.9</ele>
        <time>2022-06-15T09:00:45Z</time>
      </trkpt>
      <trkpt lat="45.7009" lon="6.64823">
        <ele>1610.2</ele>
        <time>2022-06-15T09:00:46Z</time>
      </trkpt>
      <trkpt lat="45.70087" lon="6.64818">
        <ele>1610.2</ele>
        <time>2022-06-15T09:00:47Z</time>
      </trkpt>
      <trkpt lat="45.70084" lon="6.64814">
        <ele>1610</ele>
        <time>2022-06-15T09:00:48Z</time>
      </trkpt>
      <trkpt lat="45.70081" lon="6.64811">
        <ele>1609.8</ele>
        <time>2022-06-15T09:00:49Z</time>
      </trkpt>
      <trkpt lat="45.70078" lon="6.64806">
        <ele>1609.7</ele>
        <time>2022-06-15T09:00:50Z</time>
      </trkpt>
      <trkpt lat="45.70075" lon="6.64803">
        <ele>1609.9</ele>
        <time>2022-06-15T09:00:51Z</time>
      </trkpt>
      <trkpt lat="45.70072" lon="6.64798">
        <ele>1610.2</ele>
        <time>2022-06-15T09:00:52Z</time>
      </trkpt>
      <trkpt lat="45.70069" lon="6.64794">
        <ele>1610.5</ele>
        <time>2022-06-15T09:00:53Z</time>
      </trkpt>
      <trkpt lat="45.70067" lon="6.6479">
        <ele>1610.8</ele>
        <time>2022-06-15T09:00:54Z</time>
      </trkpt>
      <trkpt lat="45.70063" lon="6.64786">
        <ele>1610.7</ele>
        <time>2022-06-15T09:00:55Z</time>
      </trkpt>
      <trkpt lat="45.7006" lon="6.64782">
        <ele>1610.5</ele>
        <time>2022-06-15T09:00:56Z</time>
      </trkpt>
      <trkpt lat="45.70057" lon="6.64779">
        <ele>1610.2</ele>
        <time>2022-06-15T09:00:57Z</time>
      </trkpt>
      <trkpt lat="45.70053" lon="6.64774">
        <ele>1610.6</ele>
        <time>2022-06-15T09:00:58Z</time>
      </trkpt>
      <trkpt lat="45.70051" lon="6.6477">
        <ele>1611.2</ele>
        <time>2022-06-15T09:00:59Z</time>
      </trkpt>
      <trkpt lat="45.70048" lon="6.64766">
        <ele>1611.8</ele>
        <time>2022-06-15T09:01:00Z</time>
      </trkpt>
      <trkpt lat="45.70046" lon="6.64761">
        <ele>1612.6</ele>
        <time>2022-06-15T09:01:01Z</time>
      </trkpt>
      <trkpt lat="45.70043" lon="6.64757">
        <ele>1613.2</ele>
        <time>2022-06-15T09:01:02Z</time>
      </trkpt>
      <trkpt lat="45.70041" lon="6.64752">
        <ele>1613.9</ele>
        <time>2022-06-15T09:01:03Z</time>
      </trkpt>
      <trkpt lat="45.70038" lon="6.64747">
        <ele>1614</ele>
        <time>2022-06-15T09:01:04Z</time>
      </trkpt>
      <trkpt lat="45.70036" lon="6.64742">
        <ele>1613.9</ele>
        <time>2022-06-15T09:01:05Z</time>
      </trkpt>
      <trkpt lat="45.70034" lon="6.64737">
        <ele>1613.7</ele>
        <time>2022-06-15T09:01:06Z</time>
      </trkpt>
      <trkpt lat="45.70032" lon="6.64731">
        <ele>1613.4</ele>
        <time>2022-06-15T09:01:07Z</time>
      </trkpt>
      <trkpt lat="45.7003" lon="6.64726">
        <ele>1613</ele>
        <time>2022-06-15T09:01:08Z</time>
      </trkpt>
      <trkpt lat="45.70028" lon="6.6472">
        <ele>1612.6</ele>
        <time>2022-06-15T09:01:09Z</time>
      </trkpt>
      <trkpt lat="45.70026" lon="6.64715">
        <ele>1613.1</ele>
        <time>2022-06-15T09:01:10Z</time>
      </trkpt>
      <trkpt lat="45.70023" lon="6.64709">
        <ele>1613.5</ele>
        <time>2022-06-15T09:01:11Z</time>
      </trkpt>
      <trkpt lat="45.70021" lon="6.64703">
        <ele>1614</ele>
        <time>2022-06-15T09:01:12Z</time>
      </trkpt>
      <trkpt lat="45.70019" lon="6.64697">
        <ele>1614.4</ele>
        <time>2022-06-15T09:01:13Z</time>
      </trkpt>
      <trkpt lat="45.70017" lon="6.64692">
        <ele>1614.6</ele>
        <time>2022-06-15T09:01:14Z</time>
      </trkpt>
      <trkpt lat="45.70014" lon="6.64686">
        <ele>1614.7</ele>
        <time>2022-06-15T09:01:15Z</time>
      </trkpt>
      <trkpt lat="45.70012" lon="6.6468">
        <ele>1614.9</ele>
        <time>2022-06-15T09:01:16Z</time>
      </trkpt>
      <trkpt lat="45.7001" lon="6.64674">
        <ele>1615</ele>
        <time>2022-06-15T09:01:17Z</time>
      </trkpt>
      <trkpt lat="45.70008" lon="6.64668">
        <ele>1615.4</ele>
        <time>2022-06-15T09:01:18Z</time>
      </trkpt>
      <trkpt lat="45.70005" lon="6.64663">
        <ele>1615.1</ele>
        <time>2022-06-15T09:01:19Z</time>
      </trkpt>
      <trkpt lat="45.70003" lon="6.64657">
        <ele>1614.7</ele>
        <time>2022-06-15T09:01:20Z</time>
      </trkpt>
      <trkpt lat="45.70001" lon="6.64651">
        <ele>1614</ele>
        <time>2022-06-15T09:01:21Z</time>
      </trkpt>
      <trkpt lat="45.69998" lon="6.64645">
        <ele>1613.8</ele>
        <time>2022-06-15T09:01:22Z</time>
      </trkpt>
      <trkpt lat="45.69996" lon="6.64639">
        <ele>1613.9</ele>
        <time>2022-06-15T09:01:23Z</time>
      </trkpt>
      <trkpt lat="45.69993" lon="6.64633">
        <ele>1614.5</ele>
        <time>2022-06-15T09:01:24Z</time>
      </trkpt>
      <trkpt lat="45.69991" lon="6.64628">
        <ele>1615</ele>
        <time>2022-06-15T09:01:25Z</time>
      </trkpt>
      <trkpt lat="45.69989" lon="6.64622">
        <ele>1615.4</ele>
        <time>2022-06-15T09:01:26Z</time>
      </trkpt>
      <trkpt lat="45.69987" lon="6.64617">
        <ele>1615.8</ele>
        <time>2022-06-15T09:01:27Z</time>
      </trkpt>
      <trkpt lat="45.69985" lon="6.64613">
        <ele>1615.7</ele>
        <time>2022-06-15T09:01:28Z</time>
      </trkpt>
      <trkpt lat="45.69982" lon="6.6461">
        <ele>1615.3</ele>
        <time>2022-06-15T09:01:29Z</time>
      </trkpt>
      <trkpt lat="45.6998" lon="6.64606">
        <ele>1615</ele>
        <time>2022-06-15T09:01:30Z</time>
      </trkpt>
      <trkpt lat="45.69979" lon="6.64602">
        <ele>1614.9</ele>
        <time>2022-06-15T09:01:31Z</time>
      </trkpt>
      <trkpt lat="45.69978" lon="6.64598">
        <ele>1614.9</ele>
        <time>2022-06-15T09:01:32Z</time>
      </trkpt>
      <trkpt lat="45.69977" lon="6.64594">
        <ele>1615</ele>
        <time>2022-06-15T09:01:33Z</time>
      </trkpt>
      <trkpt lat="45.69976" lon="6.6459">
        <ele>1615</ele>
        <time>2022-06-15T09:01:34Z</time>
      </trkpt>
      <trkpt lat="45.69976" lon="6.64587">
        <ele>1615</ele>
        <time>2022-06-15T09:01:35Z</time>
      </trkpt>
      <trkpt lat="45.69975" lon="6.64584">
        <ele>1615.2</ele>
        <time>2022-06-15T09:01:36Z</time>
      </trkpt>
      <trkpt lat="45.69976" lon="6.64579">
        <ele>1615.4</ele>
        <time>2022-06-15T09:01:37Z</time>
      </trkpt>
      <trkpt lat="45.69977" lon="6.64577">
        <ele>1615.7</ele>
        <time>2022-06-15T09:01:38Z</time>
      </trkpt>
      <trkpt lat="45.69978" lon="6.64575">
        <ele>1616</ele>
        <time>2022-06-15T09:01:39Z</time>
      </trkpt>
      <trkpt lat="45.69979" lon="6.64572">
        <ele>1616.3</ele>
        <time>2022-06-15T09:01:40Z</time>
      </trkpt>
      <trkpt lat="45.6998" lon="6.6457">
        <ele>1616.6</ele>
        <time>2022-06-15T09:01:41Z</time>
      </trkpt>
      <trkpt lat="45.69981" lon="6.64568">
        <ele>1616.9</ele>
        <time>2022-06-15T09:01:42Z</time>
      </trkpt>
      <trkpt lat="45.69982" lon="6.64565">
        <ele>1617.2</ele>
        <time>2022-06-15T09:02:55Z</time>
      </trkpt>
      <trkpt lat="45.69983" lon="6.64563">
        <ele>1617.5</ele>
        <time>2022-06-15T09:02:56Z</time>
      </trkpt>
      <trkpt lat="45.69984" lon="6.64561">
        <ele>1617.8</ele>
        <time>2022-06-15T09:02:57Z</time>
      </trkpt>
      <trkpt lat="45.69987" lon="6.64556">
        <ele>1618.8</ele>
        <time>2022-06-15T09:02:58Z</time>
      </trkpt>
      <trkpt lat="45.6999" lon="6.64551">
        <ele>1618.1</ele>
        <time>2022-06-15T09:02:59Z</time>
      </trkpt>
      <trkpt lat="45.69994" lon="6.64547">
        <ele>1617.8</ele>
        <time>2022-06-15T09:03:00Z</time>
      </trkpt>
      <trkpt lat="45.69998" lon="6.64542">
        <ele>1618.2</ele>
        <time>2022-06-15T09:03:01Z</time>
      </trkpt>
      <trkpt lat="45.70003" lon="6.64539">
        <ele>1618.6</ele>
        <time>2022-06-15T09:03:02Z</time>
      </trkpt>
      <trkpt lat="45.70008" lon="6.64535">
        <ele>1618.6</ele>
        <time>2022-06-15T09:03:03Z</time>
      </trkpt>
      <trkpt lat="45.70013" lon="6.64531">
        <ele>1618.6</ele>
        <time>2022-06-15T09:03:04Z</time>
      </trkpt>
      <trkpt lat="45.70018" lon="6.64528">
        <ele>1618.4</ele>
        <time>2022-06-15T09:03:05Z</time>
      </trkpt>
      <trkpt lat="45.70023" lon="6.64524">
        <ele>1618.2</ele>
        <time>2022-06-15T09:03:06Z</time>
      </trkpt>
      <trkpt lat="45.70029" lon="6.64519">
        <ele>1617.7</ele>
        <time>2022-06-15T09:03:07Z</time>
      </trkpt>
      <trkpt lat="45.70035" lon="6.64515">
        <ele>1616.2</ele>
        <time>2022-06-15T09:03:08Z</time>
      </trkpt>
      <trkpt lat="45.70041" lon="6.64511">
        <ele>1614.8</ele>
        <time>2022-06-15T09:03:09Z</time>
      </trkpt>
      <trkpt lat="45.70047" lon="6.64505">
        <ele>1613.2</ele>
        <time>2022-06-15T09:03:10Z</time>
      </trkpt>
      <trkpt lat="45.70053" lon="6.64499">
        <ele>1611.7</ele>
        <time>2022-06-15T09:03:11Z</time>
      </trkpt>
      <trkpt lat="45.70059" lon="6.64492">
        <ele>1611.1</ele>
        <time>2022-06-15T09:03:12Z</time>
      </trkpt>
      <trkpt lat="45.70065" lon="6.64482">
        <ele>1610.9</ele>
        <time>2022-06-15T09:03:13Z</time>
      </trkpt>
      <trkpt lat="45.70069" lon="6.64472">
        <ele>1610.8</ele>
        <time>2022-06-15T09:03:14Z</time>
      </trkpt>
      <trkpt lat="45.70074" lon="6.6446">
        <ele>1610.1</ele>
        <time>2022-06-15T09:03:15Z</time>
      </trkpt>
      <trkpt lat="45.70077" lon="6.64448">
        <ele>1608.9</ele>
        <time>2022-06-15T09:03:16Z</time>
      </trkpt>
      <trkpt lat="45.70079" lon="6.64435">
        <ele>1608.7</ele>
        <time>2022-06-15T09:03:17Z</time>
      </trkpt>
      <trkpt lat="45.70079" lon="6.64422">
        <ele>1608.6</ele>
        <time>2022-06-15T09:03:18Z</time>
      </trkpt>
      <trkpt lat="45.70079" lon="6.64409">
        <ele>1608.8</ele>
        <time>2022-06-15T09:03:19Z</time>
      </trkpt>
      <trkpt lat="45.70077" lon="6.64398">
        <ele>1609.1</ele>
        <time>2022-06-15T09:03:20Z</time>
      </trkpt>
      <trkpt lat="45.70075" lon="6.64388">
        <ele>1609.3</ele>
        <time>2022-06-15T09:03:21Z</time>
      </trkpt>
      <trkpt lat="45.70072" lon="6.64379">
        <ele>1610.8</ele>
        <time>2022-06-15T09:03:22Z</time>
      </trkpt>
      <trkpt lat="45.70069" lon="6.6437">
        <ele>1611.9</ele>
        <time>2022-06-15T09:03:23Z</time>
      </trkpt>
      <trkpt lat="45.70065" lon="6.64362">
        <ele>1612.8</ele>
        <time>2022-06-15T09:03:24Z</time>
      </trkpt>
      <trkpt lat="45.70061" lon="6.64354">
        <ele>1613.3</ele>
        <time>2022-06-15T09:03:25Z</time>
      </trkpt>
      <trkpt lat="45.70057" lon="6.64346">
        <ele>1613.7</ele>
        <time>2022-06-15T09:03:26Z</time>
      </trkpt>
      <trkpt lat="45.70053" lon="6.64338">
        <ele>1613.5</ele>
        <time>2022-06-15T09:03:27Z</time>
      </trkpt>
      <trkpt lat="45.7005" lon="6.6433">
        <ele>1612.8</ele>
        <time>2022-06-15T09:03:28Z</time>
      </trkpt>
      <trkpt lat="45.70047" lon="6.64321">
        <ele>1612</ele>
        <time>2022-06-15T09:03:29Z</time>
      </trkpt>
      <trkpt lat="45.70044" lon="6.64312">
        <ele>1611.6</ele>
        <time>2022-06-15T09:03:30Z</time>
      </trkpt>
      <trkpt lat="45.70043" lon="6.64302">
        <ele>1611.7</ele>
        <time>2022-06-15T09:03:31Z</time>
      </trkpt>
      <trkpt lat="45.70041" lon="6.64292">
        <ele>1611.6</ele>
        <time>2022-06-15T09:03:32Z</time>
      </trkpt>
      <trkpt lat="45.7004" lon="6.64282">
        <ele>1611.7</ele>
        <time>2022-06-15T09:03:33Z</time>
      </trkpt>
      <trkpt lat="45.70038" lon="6.64271">
        <ele>1612.1</ele>
        <time>2022-06-15T09:03:34Z</time>
      </trkpt>
      <trkpt lat="45.70037" lon="6.64261">
        <ele>1612.6</ele>
        <time>2022-06-15T09:03:35Z</time>
      </trkpt>
      <trkpt lat="45.70034" lon="6.64251">
        <ele>1612.5</ele>
        <time>2022-06-15T09:03:36Z</time>
      </trkpt>
      <trkpt lat="45.70032" lon="6.64241">
        <ele>1612.4</ele>
        <time>2022-06-15T09:03:37Z</time>
      </trkpt>
      <trkpt lat="45.70029" lon="6.64231">
        <ele>1612.2</ele>
        <time>2022-06-15T09:03:38Z</time>
      </trkpt>
      <trkpt lat="45.70025" lon="6.64221">
        <ele>1612</ele>
        <time>2022-06-15T09:03:39Z</time>
      </trkpt>
      <trkpt lat="45.70022" lon="6.64212">
        <ele>1612.8</ele>
        <time>2022-06-15T09:03:40Z</time>
      </trkpt>
      <trkpt lat="45.70018" lon="6.64202">
        <ele>1613.6</ele>
        <time>2022-06-15T09:03:41Z</time>
      </trkpt>
      <trkpt lat="45.70015" lon="6.64193">
        <ele>1614.1</ele>
        <time>2022-06-15T09:03:42Z</time>
      </trkpt>
      <trkpt lat="45.70011" lon="6.64183">
        <ele>1614.3</ele>
        <time>2022-06-15T09:03:43Z</time>
      </trkpt>
      <trkpt lat="45.70008" lon="6.64174">
        <ele>1614.2</ele>
        <time>2022-06-15T09:03:44Z</time>
      </trkpt>
      <trkpt lat="45.70004" lon="6.64164">
        <ele>1613.6</ele>
        <time>2022-06-15T09:03:45Z</time>
      </trkpt>
      <trkpt lat="45.70001" lon="6.64155">
        <ele>1612.3</ele>
        <time>2022-06-15T09:03:46Z</time>
      </trkpt>
      <trkpt lat="45.69997" lon="6.64145">
        <ele>1611.4</ele>
        <time>2022-06-15T09:03:47Z</time>
      </trkpt>
      <trkpt lat="45.69994" lon="6.64136">
        <ele>1611.7</ele>
        <time>2022-06-15T09:03:48Z</time>
      </trkpt>
      <trkpt lat="45.6999" lon="6.64127">
        <ele>1613.1</ele>
        <time>2022-06-15T09:03:49Z</time>
      </trkpt>
      <trkpt lat="45.69985" lon="6.64118">
        <ele>1613.8</ele>
        <time>2022-06-15T09:03:50Z</time>
      </trkpt>
      <trkpt lat="45.69981" lon="6.64109">
        <ele>1613.9</ele>
        <time>2022-06-15T09:03:51Z</time>
      </trkpt>
      <trkpt lat="45.69977" lon="6.641">
        <ele>1612.7</ele>
        <time>2022-06-15T09:03:52Z</time>
      </trkpt>
      <trkpt lat="45.69973" lon="6.64091">
        <ele>1610.9</ele>
        <time>2022-06-15T09:03:53Z</time>
      </trkpt>
      <trkpt lat="45.69968" lon="6.64082">
        <ele>1610.7</ele>
        <time>2022-06-15T09:03:54Z</time>
      </trkpt>
      <trkpt lat="45.69963" lon="6.64074">
        <ele>1612.6</ele>
        <time>2022-06-15T09:03:55Z</time>
      </trkpt>
      <trkpt lat="45.69958" lon="6.64065">
        <ele>1613.8</ele>
        <time>2022-06-15T09:03:56Z</time>
      </trkpt>
      <trkpt lat="45.69954" lon="6.64057">
        <ele>1614.1</ele>
        <time>2022-06-15T09:03:57Z</time>
      </trkpt>
      <trkpt lat="45.69949" lon="6.64048">
        <ele>1613.6</ele>
        <time>2022-06-15T09:03:58Z</time>
      </trkpt>
      <trkpt lat="45.69944" lon="6.6404">
        <ele>1612.7</ele>
        <time>2022-06-15T09:03:59Z</time>
      </trkpt>
      <trkpt lat="45.69939" lon="6.64032">
        <ele>1612.5</ele>
        <time>2022-06-15T09:04:00Z</time>
      </trkpt>
      <trkpt lat="45.69934" lon="6.64024">
        <ele>1612.9</ele>
        <time>2022-06-15T09:04:01Z</time>
      </trkpt>
      <trkpt lat="45.69929" lon="6.64016">
        <ele>1613.4</ele>
        <time>2022-06-15T09:04:02Z</time>
      </trkpt>
      <trkpt lat="45.69923" lon="6.64008">
        <ele>1613.4</ele>
        <time>2022-06-15T09:04:03Z</time>
      </trkpt>
      <trkpt lat="45.69918" lon="6.64">
        <ele>1613.1</ele>
        <time>2022-06-15T09:04:04Z</time>
      </trkpt>
      <trkpt lat="45.69913" lon="6.63992">
        <ele>1614.1</ele>
        <time>2022-06-15T09:04:05Z</time>
      </trkpt>
      <trkpt lat="45.69907" lon="6.63985">
        <ele>1615</ele>
        <time>2022-06-15T09:04:06Z</time>
      </trkpt>
      <trkpt lat="45.69902" lon="6.63978">
        <ele>1615.1</ele>
        <time>2022-06-15T09:04:07Z</time>
      </trkpt>
      <trkpt lat="45.69897" lon="6.6397">
        <ele>1615</ele>
        <time>2022-06-15T09:04:08Z</time>
      </trkpt>
      <trkpt lat="45.69891" lon="6.63963">
        <ele>1614.5</ele>
        <time>2022-06-15T09:04:09Z</time>
      </trkpt>
      <trkpt lat="45.69886" lon="6.63955">
        <ele>1614.3</ele>
        <time>2022-06-15T09:04:10Z</time>
      </trkpt>
      <trkpt lat="45.6988" lon="6.63948">
        <ele>1614.1</ele>
        <time>2022-06-15T09:04:11Z</time>
      </trkpt>
      <trkpt lat="45.69874" lon="6.6394">
        <ele>1613.6</ele>
        <time>2022-06-15T09:04:12Z</time>
      </trkpt>
      <trkpt lat="45.69868" lon="6.63933">
        <ele>1612.2</ele>
        <time>2022-06-15T09:04:13Z</time>
      </trkpt>
      <trkpt lat="45.69862" lon="6.63925">
        <ele>1610.5</ele>
        <time>2022-06-15T09:04:14Z</time>
      </trkpt>
      <trkpt lat="45.69856" lon="6.63917">
        <ele>1609.9</ele>
        <time>2022-06-15T09:04:15Z</time>
      </trkpt>
      <trkpt lat="45.6985" lon="6.6391">
        <ele>1610.5</ele>
        <time>2022-06-15T09:04:16Z</time>
      </trkpt>
      <trkpt lat="45.69845" lon="6.63902">
        <ele>1610.9</ele>
        <time>2022-06-15T09:04:17Z</time>
      </trkpt>
      <trkpt lat="45.69836" lon="6.63891">
        <ele>1609.9</ele>
        <time>2022-06-15T09:04:18Z</time>
      </trkpt>
      <trkpt lat="45.69833" lon="6.63887">
        <ele>1609.7</ele>
        <time>2022-06-15T09:04:19Z</time>
      </trkpt>
      <trkpt lat="45.69827" lon="6.6388">
        <ele>1611</ele>
        <time>2022-06-15T09:04:20Z</time>
      </trkpt>
      <trkpt lat="45.69822" lon="6.63873">
        <ele>1611.2</ele>
        <time>2022-06-15T09:04:21Z</time>
      </trkpt>
      <trkpt lat="45.69816" lon="6.63865">
        <ele>1611.2</ele>
        <time>2022-06-15T09:04:22Z</time>
      </trkpt>
      <trkpt lat="45.69811" lon="6.63857">
        <ele>1610.6</ele>
        <time>2022-06-15T09:04:23Z</time>
      </trkpt>
      <trkpt lat="45.69802" lon="6.63848">
        <ele>1608.9</ele>
        <time>2022-06-15T09:04:24Z</time>
      </trkpt>
      <trkpt lat="45.69799" lon="6.63845">
        <ele>1608.9</ele>
        <time>2022-06-15T09:04:25Z</time>
      </trkpt>
      <trkpt lat="45.69792" lon="6.63839">
        <ele>1608.5</ele>
        <time>2022-06-15T09:04:26Z</time>
      </trkpt>
      <trkpt lat="45.69785" lon="6.63834">
        <ele>1608.1</ele>
        <time>2022-06-15T09:04:27Z</time>
      </trkpt>
      <trkpt lat="45.69778" lon="6.6383">
        <ele>1607.7</ele>
        <time>2022-06-15T09:04:28Z</time>
      </trkpt>
      <trkpt lat="45.69772" lon="6.63825">
        <ele>1607.8</ele>
        <time>2022-06-15T09:04:29Z</time>
      </trkpt>
      <trkpt lat="45.69765" lon="6.63821">
        <ele>1607.5</ele>
        <time>2022-06-15T09:04:30Z</time>
      </trkpt>
      <trkpt lat="45.69758" lon="6.63817">
        <ele>1606.8</ele>
        <time>2022-06-15T09:04:31Z</time>
      </trkpt>
      <trkpt lat="45.69751" lon="6.63813">
        <ele>1605.7</ele>
        <time>2022-06-15T09:04:32Z</time>
      </trkpt>
      <trkpt lat="45.69744" lon="6.63809">
        <ele>1605.6</ele>
        <time>2022-06-15T09:04:33Z</time>
      </trkpt>
      <trkpt lat="45.69737" lon="6.63805">
        <ele>1606</ele>
        <time>2022-06-15T09:04:34Z</time>
      </trkpt>
      <trkpt lat="45.69731" lon="6.63801">
        <ele>1606.5</ele>
        <time>2022-06-15T09:04:35Z</time>
      </trkpt>
      <trkpt lat="45.69721" lon="6.63793">
        <ele>1606.7</ele>
        <time>2022-06-15T09:04:36Z</time>
      </trkpt>
      <trkpt lat="45.69718" lon="6.63791">
        <ele>1606.4</ele>
        <time>2022-06-15T09:04:37Z</time>
      </trkpt>
      <trkpt lat="45.69712" lon="6.63786">
        <ele>1606.1</ele>
        <time>2022-06-15T09:04:38Z</time>
      </trkpt>
      <trkpt lat="45.69707" lon="6.6378">
        <ele>1606.3</ele>
        <time>2022-06-15T09:04:39Z</time>
      </trkpt>
      <trkpt lat="45.69701" lon="6.63775">
        <ele>1606.6</ele>
        <time>2022-06-15T09:04:40Z</time>
      </trkpt>
      <trkpt lat="45.69696" lon="6.63769">
        <ele>1606.8</ele>
        <time>2022-06-15T09:04:41Z</time>
      </trkpt>
      <trkpt lat="45.69691" lon="6.63763">
        <ele>1606.6</ele>
        <time>2022-06-15T09:04:42Z</time>
      </trkpt>
      <trkpt lat="45.69686" lon="6.63757">
        <ele>1606.4</ele>
        <time>2022-06-15T09:04:43Z</time>
      </trkpt>
      <trkpt lat="45.69681" lon="6.63752">
        <ele>1606.3</ele>
        <time>2022-06-15T09:04:44Z</time>
      </trkpt>
      <trkpt lat="45.69678" lon="6.63748">
        <ele>1605.8</ele>
        <time>2022-06-15T09:04:45Z</time>
      </trkpt>
      <trkpt lat="45.69674" lon="6.63744">
        <ele>1604.9</ele>
        <time>2022-06-15T09:04:46Z</time>
      </trkpt>
      <trkpt lat="45.69673" lon="6.63743">
        <ele>1604.6</ele>
        <time>2022-06-15T09:04:47Z</time>
      </trkpt>
      <trkpt lat="45.6967" lon="6.63741">
        <ele>1603.9</ele>
        <time>2022-06-15T09:04:48Z</time>
      </trkpt>
      <trkpt lat="45.69669" lon="6.63739">
        <ele>1603.4</ele>
        <time>2022-06-15T09:04:49Z</time>
      </trkpt>
      <trkpt lat="45.69667" lon="6.63734">
        <ele>1603.2</ele>
        <time>2022-06-15T09:04:50Z</time>
      </trkpt>
      <trkpt lat="45.69666" lon="6.63731">
        <ele>1603.5</ele>
        <time>2022-06-15T09:04:51Z</time>
      </trkpt>
      <trkpt lat="45.69666" lon="6.63728">
        <ele>1603.8</ele>
        <time>2022-06-15T09:04:52Z</time>
      </trkpt>
      <trkpt lat="45.69666" lon="6.63725">
        <ele>1604.1</ele>
        <time>2022-06-15T09:04:53Z</time>
      </trkpt>
      <trkpt lat="45.69665" lon="6.63722">
        <ele>1604.5</ele>
        <time>2022-06-15T09:05:57Z</time>
      </trkpt>
      <trkpt lat="45.69665" lon="6.63719">
        <ele>1605.2</ele>
        <time>2022-06-15T09:05:58Z</time>
      </trkpt>
      <trkpt lat="45.69664" lon="6.63714">
        <ele>1606.1</ele>
        <time>2022-06-15T09:05:59Z</time>
      </trkpt>
      <trkpt lat="45.69662" lon="6.63709">
        <ele>1606.7</ele>
        <time>2022-06-15T09:06:00Z</time>
      </trkpt>
      <trkpt lat="45.69659" lon="6.63703">
        <ele>1607.1</ele>
        <time>2022-06-15T09:06:01Z</time>
      </trkpt>
      <trkpt lat="45.69657" lon="6.63698">
        <ele>1607.4</ele>
        <time>2022-06-15T09:06:02Z</time>
      </trkpt>
      <trkpt lat="45.69654" lon="6.63691">
        <ele>1607.8</ele>
        <time>2022-06-15T09:06:03Z</time>
      </trkpt>
      <trkpt lat="45.6965" lon="6.63685">
        <ele>1607.8</ele>
        <time>2022-06-15T09:06:04Z</time>
      </trkpt>
      <trkpt lat="45.69646" lon="6.63678">
        <ele>1607.3</ele>
        <time>2022-06-15T09:06:05Z</time>
      </trkpt>
      <trkpt lat="45.69642" lon="6.63672">
        <ele>1606</ele>
        <time>2022-06-15T09:06:06Z</time>
      </trkpt>
      <trkpt lat="45.69637" lon="6.63666">
        <ele>1604.7</ele>
        <time>2022-06-15T09:06:07Z</time>
      </trkpt>
      <trkpt lat="45.69632" lon="6.6366">
        <ele>1606.1</ele>
        <time>2022-06-15T09:06:08Z</time>
      </trkpt>
      <trkpt lat="45.69626" lon="6.63654">
        <ele>1606.7</ele>
        <time>2022-06-15T09:06:09Z</time>
      </trkpt>
      <trkpt lat="45.6962" lon="6.63649">
        <ele>1606.5</ele>
        <time>2022-06-15T09:06:10Z</time>
      </trkpt>
      <trkpt lat="45.69614" lon="6.63643">
        <ele>1605.5</ele>
        <time>2022-06-15T09:06:11Z</time>
      </trkpt>
      <trkpt lat="45.69608" lon="6.63637">
        <ele>1605.1</ele>
        <time>2022-06-15T09:06:12Z</time>
      </trkpt>
      <trkpt lat="45.69602" lon="6.63631">
        <ele>1605.9</ele>
        <time>2022-06-15T09:06:13Z</time>
      </trkpt>
      <trkpt lat="45.69596" lon="6.63626">
        <ele>1606.6</ele>
        <time>2022-06-15T09:06:14Z</time>
      </trkpt>
      <trkpt lat="45.6959" lon="6.6362">
        <ele>1607.2</ele>
        <time>2022-06-15T09:06:15Z</time>
      </trkpt>
      <trkpt lat="45.69585" lon="6.63613">
        <ele>1607.7</ele>
        <time>2022-06-15T09:06:16Z</time>
      </trkpt>
      <trkpt lat="45.6958" lon="6.63606">
        <ele>1608.3</ele>
        <time>2022-06-15T09:06:17Z</time>
      </trkpt>
      <trkpt lat="45.69575" lon="6.63599">
        <ele>1609.2</ele>
        <time>2022-06-15T09:06:18Z</time>
      </trkpt>
      <trkpt lat="45.69571" lon="6.63592">
        <ele>1609.7</ele>
        <time>2022-06-15T09:06:19Z</time>
      </trkpt>
      <trkpt lat="45.69567" lon="6.63585">
        <ele>1609.7</ele>
        <time>2022-06-15T09:06:20Z</time>
      </trkpt>
      <trkpt lat="45.69563" lon="6.63579">
        <ele>1610.2</ele>
        <time>2022-06-15T09:06:21Z</time>
      </trkpt>
      <trkpt lat="45.69559" lon="6.63573">
        <ele>1610.8</ele>
        <time>2022-06-15T09:06:22Z</time>
      </trkpt>
      <trkpt lat="45.69556" lon="6.63567">
        <ele>1611.1</ele>
        <time>2022-06-15T09:06:23Z</time>
      </trkpt>
      <trkpt lat="45.69553" lon="6.63561">
        <ele>1612</ele>
        <time>2022-06-15T09:06:24Z</time>
      </trkpt>
      <trkpt lat="45.69551" lon="6.63556">
        <ele>1612.9</ele>
        <time>2022-06-15T09:06:25Z</time>
      </trkpt>
      <trkpt lat="45.69548" lon="6.63551">
        <ele>1613.4</ele>
        <time>2022-06-15T09:06:26Z</time>
      </trkpt>
      <trkpt lat="45.69545" lon="6.63546">
        <ele>1613.4</ele>
        <time>2022-06-15T09:06:27Z</time>
      </trkpt>
      <trkpt lat="45.69542" lon="6.63542">
        <ele>1613.1</ele>
        <time>2022-06-15T09:06:28Z</time>
      </trkpt>
      <trkpt lat="45.69539" lon="6.63537">
        <ele>1612.6</ele>
        <time>2022-06-15T09:06:29Z</time>
      </trkpt>
      <trkpt lat="45.69537" lon="6.63533">
        <ele>1612.4</ele>
        <time>2022-06-15T09:06:30Z</time>
      </trkpt>
      <trkpt lat="45.69535" lon="6.63528">
        <ele>1612.1</ele>
        <time>2022-06-15T09:06:31Z</time>
      </trkpt>
      <trkpt lat="45.69532" lon="6.63523">
        <ele>1611.8</ele>
        <time>2022-06-15T09:06:32Z</time>
      </trkpt>
      <trkpt lat="45.6953" lon="6.63519">
        <ele>1611.8</ele>
        <time>2022-06-15T09:06:33Z</time>
      </trkpt>
      <trkpt lat="45.69527" lon="6.63514">
        <ele>1611.8</ele>
        <time>2022-06-15T09:06:34Z</time>
      </trkpt>
      <trkpt lat="45.69525" lon="6.63509">
        <ele>1612.8</ele>
        <time>2022-06-15T09:06:35Z</time>
      </trkpt>
      <trkpt lat="45.69523" lon="6.63505">
        <ele>1613.6</ele>
        <time>2022-06-15T09:06:36Z</time>
      </trkpt>
      <trkpt lat="45.69521" lon="6.63501">
        <ele>1614.5</ele>
        <time>2022-06-15T09:06:37Z</time>
      </trkpt>
      <trkpt lat="45.69519" lon="6.63496">
        <ele>1614.9</ele>
        <time>2022-06-15T09:06:38Z</time>
      </trkpt>
      <trkpt lat="45.69517" lon="6.63491">
        <ele>1615.4</ele>
        <time>2022-06-15T09:06:39Z</time>
      </trkpt>
      <trkpt lat="45.69515" lon="6.63486">
        <ele>1615.7</ele>
        <time>2022-06-15T09:06:40Z</time>
      </trkpt>
      <trkpt lat="45.69514" lon="6.63481">
        <ele>1615.9</ele>
        <time>2022-06-15T09:06:41Z</time>
      </trkpt>
      <trkpt lat="45.69512" lon="6.63476">
        <ele>1615.9</ele>
        <time>2022-06-15T09:06:42Z</time>
      </trkpt>
      <trkpt lat="45.69511" lon="6.63472">
        <ele>1615.7</ele>
        <time>2022-06-15T09:06:43Z</time>
      </trkpt>
      <trkpt lat="45.69509" lon="6.63468">
        <ele>1614.4</ele>
        <time>2022-06-15T09:06:44Z</time>
      </trkpt>
      <trkpt lat="45.69507" lon="6.63463">
        <ele>1613.3</ele>
        <time>2022-06-15T09:06:45Z</time>
      </trkpt>
      <trkpt lat="45.69506" lon="6.63458">
        <ele>1612.6</ele>
        <time>2022-06-15T09:06:46Z</time>
      </trkpt>
      <trkpt lat="45.69504" lon="6.63453">
        <ele>1611.8</ele>
        <time>2022-06-15T09:06:47Z</time>
      </trkpt>
      <trkpt lat="45.69503" lon="6.63448">
        <ele>1611.2</ele>
        <time>2022-06-15T09:06:48Z</time>
      </trkpt>
      <trkpt lat="45.69502" lon="6.63443">
        <ele>1610.8</ele>
        <time>2022-06-15T09:06:49Z</time>
      </trkpt>
      <trkpt lat="45.69501" lon="6.63437">
        <ele>1610.7</ele>
        <time>2022-06-15T09:06:50Z</time>
      </trkpt>
      <trkpt lat="45.695" lon="6.63431">
        <ele>1610.5</ele>
        <time>2022-06-15T09:06:51Z</time>
      </trkpt>
      <trkpt lat="45.69499" lon="6.63425">
        <ele>1610.4</ele>
        <time>2022-06-15T09:06:52Z</time>
      </trkpt>
      <trkpt lat="45.69498" lon="6.63418">
        <ele>1610.5</ele>
        <time>2022-06-15T09:06:53Z</time>
      </trkpt>
      <trkpt lat="45.69497" lon="6.63411">
        <ele>1610.1</ele>
        <time>2022-06-15T09:06:54Z</time>
      </trkpt>
      <trkpt lat="45.69496" lon="6.63404">
        <ele>1609.6</ele>
        <time>2022-06-15T09:06:55Z</time>
      </trkpt>
      <trkpt lat="45.69496" lon="6.63396">
        <ele>1609.2</ele>
        <time>2022-06-15T09:06:56Z</time>
      </trkpt>
      <trkpt lat="45.69495" lon="6.63388">
        <ele>1608.7</ele>
        <time>2022-06-15T09:06:57Z</time>
      </trkpt>
      <trkpt lat="45.69495" lon="6.6338">
        <ele>1608.5</ele>
        <time>2022-06-15T09:06:58Z</time>
      </trkpt>
      <trkpt lat="45.69495" lon="6.63372">
        <ele>1608.3</ele>
        <time>2022-06-15T09:06:59Z</time>
      </trkpt>
      <trkpt lat="45.69496" lon="6.63364">
        <ele>1608.1</ele>
        <time>2022-06-15T09:07:00Z</time>
      </trkpt>
      <trkpt lat="45.69498" lon="6.63356">
        <ele>1607.8</ele>
        <time>2022-06-15T09:07:01Z</time>
      </trkpt>
      <trkpt lat="45.69499" lon="6.63348">
        <ele>1607.5</ele>
        <time>2022-06-15T09:07:02Z</time>
      </trkpt>
      <trkpt lat="45.69501" lon="6.6334">
        <ele>1607.4</ele>
        <time>2022-06-15T09:07:03Z</time>
      </trkpt>
      <trkpt lat="45.69503" lon="6.63333">
        <ele>1607.3</ele>
        <time>2022-06-15T09:07:04Z</time>
      </trkpt>
      <trkpt lat="45.69507" lon="6.63326">
        <ele>1607.4</ele>
        <time>2022-06-15T09:07:05Z</time>
      </trkpt>
      <trkpt lat="45.69511" lon="6.6332">
        <ele>1607.2</ele>
        <time>2022-06-15T09:07:06Z</time>
      </trkpt>
      <trkpt lat="45.69515" lon="6.63315">
        <ele>1606.8</ele>
        <time>2022-06-15T09:07:07Z</time>
      </trkpt>
      <trkpt lat="45.6952" lon="6.63311">
        <ele>1606.3</ele>
        <time>2022-06-15T09:07:08Z</time>
      </trkpt>
      <trkpt lat="45.69525" lon="6.63309">
        <ele>1605.7</ele>
        <time>2022-06-15T09:07:09Z</time>
      </trkpt>
      <trkpt lat="45.69531" lon="6.63307">
        <ele>1605.2</ele>
        <time>2022-06-15T09:07:10Z</time>
      </trkpt>
      <trkpt lat="45.69537" lon="6.63307">
        <ele>1604.8</ele>
        <time>2022-06-15T09:07:11Z</time>
      </trkpt>
      <trkpt lat="45.69544" lon="6.63306">
        <ele>1604.5</ele>
        <time>2022-06-15T09:07:12Z</time>
      </trkpt>
      <trkpt lat="45.6955" lon="6.63307">
        <ele>1604.4</ele>
        <time>2022-06-15T09:07:13Z</time>
      </trkpt>
      <trkpt lat="45.69556" lon="6.63309">
        <ele>1604.6</ele>
        <time>2022-06-15T09:07:14Z</time>
      </trkpt>
      <trkpt lat="45.69562" lon="6.63312">
        <ele>1604.4</ele>
        <time>2022-06-15T09:07:15Z</time>
      </trkpt>
      <trkpt lat="45.69569" lon="6.63317">
        <ele>1604.1</ele>
        <time>2022-06-15T09:07:16Z</time>
      </trkpt>
      <trkpt lat="45.69575" lon="6.63323">
        <ele>1603.6</ele>
        <time>2022-06-15T09:07:17Z</time>
      </trkpt>
      <trkpt lat="45.69581" lon="6.63329">
        <ele>1602.5</ele>
        <time>2022-06-15T09:07:18Z</time>
      </trkpt>
      <trkpt lat="45.69588" lon="6.63334">
        <ele>1601.9</ele>
        <time>2022-06-15T09:07:19Z</time>
      </trkpt>
      <trkpt lat="45.69595" lon="6.63339">
        <ele>1603.2</ele>
        <time>2022-06-15T09:07:20Z</time>
      </trkpt>
      <trkpt lat="45.69603" lon="6.63344">
        <ele>1603.9</ele>
        <time>2022-06-15T09:07:21Z</time>
      </trkpt>
      <trkpt lat="45.6961" lon="6.63348">
        <ele>1604.2</ele>
        <time>2022-06-15T09:07:22Z</time>
      </trkpt>
      <trkpt lat="45.69619" lon="6.6335">
        <ele>1604</ele>
        <time>2022-06-15T09:07:23Z</time>
      </trkpt>
      <trkpt lat="45.69627" lon="6.63353">
        <ele>1603.2</ele>
        <time>2022-06-15T09:07:24Z</time>
      </trkpt>
      <trkpt lat="45.69636" lon="6.63355">
        <ele>1601.9</ele>
        <time>2022-06-15T09:07:25Z</time>
      </trkpt>
      <trkpt lat="45.69645" lon="6.63358">
        <ele>1600.5</ele>
        <time>2022-06-15T09:07:26Z</time>
      </trkpt>
      <trkpt lat="45.69653" lon="6.63361">
        <ele>1598.9</ele>
        <time>2022-06-15T09:07:27Z</time>
      </trkpt>
      <trkpt lat="45.69661" lon="6.63366">
        <ele>1598.6</ele>
        <time>2022-06-15T09:07:28Z</time>
      </trkpt>
      <trkpt lat="45.6967" lon="6.63372">
        <ele>1598.4</ele>
        <time>2022-06-15T09:07:29Z</time>
      </trkpt>
      <trkpt lat="45.69678" lon="6.63378">
        <ele>1598.6</ele>
        <time>2022-06-15T09:07:30Z</time>
      </trkpt>
      <trkpt lat="45.69687" lon="6.63382">
        <ele>1598.6</ele>
        <time>2022-06-15T09:07:31Z</time>
      </trkpt>
      <trkpt lat="45.69696" lon="6.63386">
        <ele>1598.5</ele>
        <time>2022-06-15T09:07:32Z</time>
      </trkpt>
      <trkpt lat="45.69706" lon="6.6339">
        <ele>1597.4</ele>
        <time>2022-06-15T09:07:33Z</time>
      </trkpt>
      <trkpt lat="45.69715" lon="6.63393">
        <ele>1596</ele>
        <time>2022-06-15T09:07:34Z</time>
      </trkpt>
      <trkpt lat="45.69725" lon="6.63395">
        <ele>1594.7</ele>
        <time>2022-06-15T09:07:35Z</time>
      </trkpt>
      <trkpt lat="45.69734" lon="6.63396">
        <ele>1593.8</ele>
        <time>2022-06-15T09:07:36Z</time>
      </trkpt>
      <trkpt lat="45.69743" lon="6.63396">
        <ele>1592.2</ele>
        <time>2022-06-15T09:07:37Z</time>
      </trkpt>
      <trkpt lat="45.69751" lon="6.63395">
        <ele>1591</ele>
        <time>2022-06-15T09:07:38Z</time>
      </trkpt>
      <trkpt lat="45.69759" lon="6.63393">
        <ele>1590.9</ele>
        <time>2022-06-15T09:07:39Z</time>
      </trkpt>
      <trkpt lat="45.69767" lon="6.63391">
        <ele>1590.5</ele>
        <time>2022-06-15T09:07:40Z</time>
      </trkpt>
      <trkpt lat="45.69774" lon="6.63389">
        <ele>1589.9</ele>
        <time>2022-06-15T09:07:41Z</time>
      </trkpt>
      <trkpt lat="45.69782" lon="6.63387">
        <ele>1589.2</ele>
        <time>2022-06-15T09:07:42Z</time>
      </trkpt>
      <trkpt lat="45.69789" lon="6.63389">
        <ele>1588.7</ele>
        <time>2022-06-15T09:07:43Z</time>
      </trkpt>
      <trkpt lat="45.69796" lon="6.63392">
        <ele>1589.5</ele>
        <time>2022-06-15T09:07:44Z</time>
      </trkpt>
      <trkpt lat="45.69803" lon="6.63398">
        <ele>1591</ele>
        <time>2022-06-15T09:07:45Z</time>
      </trkpt>
      <trkpt lat="45.69809" lon="6.63404">
        <ele>1591.4</ele>
        <time>2022-06-15T09:07:46Z</time>
      </trkpt>
      <trkpt lat="45.69815" lon="6.6341">
        <ele>1590.9</ele>
        <time>2022-06-15T09:07:47Z</time>
      </trkpt>
      <trkpt lat="45.69822" lon="6.63416">
        <ele>1589.8</ele>
        <time>2022-06-15T09:07:48Z</time>
      </trkpt>
      <trkpt lat="45.69829" lon="6.6342">
        <ele>1588.1</ele>
        <time>2022-06-15T09:07:49Z</time>
      </trkpt>
      <trkpt lat="45.69837" lon="6.63424">
        <ele>1587</ele>
        <time>2022-06-15T09:07:50Z</time>
      </trkpt>
      <trkpt lat="45.69846" lon="6.63426">
        <ele>1586.6</ele>
        <time>2022-06-15T09:07:51Z</time>
      </trkpt>
      <trkpt lat="45.69854" lon="6.63427">
        <ele>1585.6</ele>
        <time>2022-06-15T09:07:52Z</time>
      </trkpt>
      <trkpt lat="45.69863" lon="6.63428">
        <ele>1584.4</ele>
        <time>2022-06-15T09:07:53Z</time>
      </trkpt>
      <trkpt lat="45.69871" lon="6.63428">
        <ele>1583.7</ele>
        <time>2022-06-15T09:07:54Z</time>
      </trkpt>
      <trkpt lat="45.6988" lon="6.63428">
        <ele>1582.9</ele>
        <time>2022-06-15T09:07:55Z</time>
      </trkpt>
      <trkpt lat="45.69888" lon="6.63428">
        <ele>1582.1</ele>
        <time>2022-06-15T09:07:56Z</time>
      </trkpt>
      <trkpt lat="45.69895" lon="6.63428">
        <ele>1581.6</ele>
        <time>2022-06-15T09:07:57Z</time>
      </trkpt>
      <trkpt lat="45.69901" lon="6.63428">
        <ele>1581.4</ele>
        <time>2022-06-15T09:07:58Z</time>
      </trkpt>
      <trkpt lat="45.69906" lon="6.63429">
        <ele>1581.2</ele>
        <time>2022-06-15T09:07:59Z</time>
      </trkpt>
      <trkpt lat="45.6991" lon="6.6343">
        <ele>1581.1</ele>
        <time>2022-06-15T09:08:00Z</time>
      </trkpt>
      <trkpt lat="45.69913" lon="6.63431">
        <ele>1581.2</ele>
        <time>2022-06-15T09:08:01Z</time>
      </trkpt>
      <trkpt lat="45.69917" lon="6.63429">
        <ele>1580.3</ele>
        <time>2022-06-15T09:08:02Z</time>
      </trkpt>
      <trkpt lat="45.69918" lon="6.63427">
        <ele>1579.8</ele>
        <time>2022-06-15T09:08:03Z</time>
      </trkpt>
      <trkpt lat="45.6992" lon="6.63425">
        <ele>1579.4</ele>
        <time>2022-06-15T09:08:04Z</time>
      </trkpt>
      <trkpt lat="45.69921" lon="6.63423">
        <ele>1579</ele>
        <time>2022-06-15T09:08:05Z</time>
      </trkpt>
      <trkpt lat="45.69922" lon="6.63421">
        <ele>1578.5</ele>
        <time>2022-06-15T09:08:06Z</time>
      </trkpt>
      <trkpt lat="45.69924" lon="6.63419">
        <ele>1578.1</ele>
        <time>2022-06-15T09:08:29Z</time>
      </trkpt>
      <trkpt lat="45.69925" lon="6.63417">
        <ele>1577.8</ele>
        <time>2022-06-15T09:08:30Z</time>
      </trkpt>
      <trkpt lat="45.69926" lon="6.63415">
        <ele>1577.7</ele>
        <time>2022-06-15T09:08:31Z</time>
      </trkpt>
      <trkpt lat="45.69928" lon="6.63413">
        <ele>1577.6</ele>
        <time>2022-06-15T09:08:32Z</time>
      </trkpt>
      <trkpt lat="45.69929" lon="6.63411">
        <ele>1577.4</ele>
        <time>2022-06-15T09:08:33Z</time>
      </trkpt>
      <trkpt lat="45.6993" lon="6.63409">
        <ele>1577.3</ele>
        <time>2022-06-15T09:11:41Z</time>
      </trkpt>
      <trkpt lat="45.69932" lon="6.63407">
        <ele>1577</ele>
        <time>2022-06-15T09:11:42Z</time>
      </trkpt>
      <trkpt lat="45.69937" lon="6.63403">
        <ele>1576.9</ele>
        <time>2022-06-15T09:11:43Z</time>
      </trkpt>
      <trkpt lat="45.69942" lon="6.63399">
        <ele>1576.5</ele>
        <time>2022-06-15T09:11:44Z</time>
      </trkpt>
      <trkpt lat="45.69948" lon="6.63394">
        <ele>1575.4</ele>
        <time>2022-06-15T09:11:45Z</time>
      </trkpt>
      <trkpt lat="45.69955" lon="6.63391">
        <ele>1574.3</ele>
        <time>2022-06-15T09:11:46Z</time>
      </trkpt>
      <trkpt lat="45.69962" lon="6.63389">
        <ele>1573.5</ele>
        <time>2022-06-15T09:11:47Z</time>
      </trkpt>
      <trkpt lat="45.6997" lon="6.63389">
        <ele>1573.3</ele>
        <time>2022-06-15T09:11:48Z</time>
      </trkpt>
      <trkpt lat="45.69978" lon="6.63391">
        <ele>1573.1</ele>
        <time>2022-06-15T09:11:49Z</time>
      </trkpt>
      <trkpt lat="45.69987" lon="6.63392">
        <ele>1573</ele>
        <time>2022-06-15T09:11:50Z</time>
      </trkpt>
      <trkpt lat="45.69996" lon="6.63393">
        <ele>1572.7</ele>
        <time>2022-06-15T09:11:51Z</time>
      </trkpt>
      <trkpt lat="45.70005" lon="6.63394">
        <ele>1572</ele>
        <time>2022-06-15T09:11:52Z</time>
      </trkpt>
      <trkpt lat="45.70015" lon="6.63394">
        <ele>1571</ele>
        <time>2022-06-15T09:11:53Z</time>
      </trkpt>
      <trkpt lat="45.70026" lon="6.63394">
        <ele>1569.8</ele>
        <time>2022-06-15T09:11:54Z</time>
      </trkpt>
      <trkpt lat="45.70036" lon="6.63394">
        <ele>1569.1</ele>
        <time>2022-06-15T09:11:55Z</time>
      </trkpt>
      <trkpt lat="45.70047" lon="6.63394">
        <ele>1568.1</ele>
        <time>2022-06-15T09:11:56Z</time>
      </trkpt>
      <trkpt lat="45.70058" lon="6.63394">
        <ele>1567.1</ele>
        <time>2022-06-15T09:11:57Z</time>
      </trkpt>
      <trkpt lat="45.7007" lon="6.63393">
        <ele>1565.6</ele>
        <time>2022-06-15T09:11:58Z</time>
      </trkpt>
      <trkpt lat="45.70082" lon="6.63393">
        <ele>1564.1</ele>
        <time>2022-06-15T09:11:59Z</time>
      </trkpt>
      <trkpt lat="45.70094" lon="6.63391">
        <ele>1563.3</ele>
        <time>2022-06-15T09:12:00Z</time>
      </trkpt>
      <trkpt lat="45.70106" lon="6.6339">
        <ele>1562.7</ele>
        <time>2022-06-15T09:12:01Z</time>
      </trkpt>
      <trkpt lat="45.70119" lon="6.63389">
        <ele>1561.3</ele>
        <time>2022-06-15T09:12:02Z</time>
      </trkpt>
      <trkpt lat="45.70132" lon="6.63388">
        <ele>1559.5</ele>
        <time>2022-06-15T09:12:03Z</time>
      </trkpt>
      <trkpt lat="45.70145" lon="6.63387">
        <ele>1558</ele>
        <time>2022-06-15T09:12:04Z</time>
      </trkpt>
      <trkpt lat="45.70158" lon="6.63386">
        <ele>1556.5</ele>
        <time>2022-06-15T09:12:05Z</time>
      </trkpt>
      <trkpt lat="45.7017" lon="6.63385">
        <ele>1555.8</ele>
        <time>2022-06-15T09:12:06Z</time>
      </trkpt>
      <trkpt lat="45.70182" lon="6.63384">
        <ele>1556.2</ele>
        <time>2022-06-15T09:12:07Z</time>
      </trkpt>
      <trkpt lat="45.70194" lon="6.63382">
        <ele>1556.4</ele>
        <time>2022-06-15T09:12:08Z</time>
      </trkpt>
      <trkpt lat="45.70206" lon="6.6338">
        <ele>1556.2</ele>
        <time>2022-06-15T09:12:09Z</time>
      </trkpt>
      <trkpt lat="45.70219" lon="6.63378">
        <ele>1555.8</ele>
        <time>2022-06-15T09:12:10Z</time>
      </trkpt>
      <trkpt lat="45.70232" lon="6.63375">
        <ele>1554.2</ele>
        <time>2022-06-15T09:12:11Z</time>
      </trkpt>
      <trkpt lat="45.70245" lon="6.63373">
        <ele>1552.3</ele>
        <time>2022-06-15T09:12:12Z</time>
      </trkpt>
      <trkpt lat="45.70258" lon="6.63369">
        <ele>1550.6</ele>
        <time>2022-06-15T09:12:13Z</time>
      </trkpt>
      <trkpt lat="45.7027" lon="6.63365">
        <ele>1549.1</ele>
        <time>2022-06-15T09:12:14Z</time>
      </trkpt>
      <trkpt lat="45.70283" lon="6.6336">
        <ele>1547.8</ele>
        <time>2022-06-15T09:12:15Z</time>
      </trkpt>
      <trkpt lat="45.70294" lon="6.63356">
        <ele>1546.3</ele>
        <time>2022-06-15T09:12:16Z</time>
      </trkpt>
      <trkpt lat="45.70306" lon="6.63353">
        <ele>1545.3</ele>
        <time>2022-06-15T09:12:17Z</time>
      </trkpt>
      <trkpt lat="45.70317" lon="6.63352">
        <ele>1544.1</ele>
        <time>2022-06-15T09:12:18Z</time>
      </trkpt>
      <trkpt lat="45.70328" lon="6.63354">
        <ele>1543.7</ele>
        <time>2022-06-15T09:12:19Z</time>
      </trkpt>
      <trkpt lat="45.70338" lon="6.63357">
        <ele>1543.3</ele>
        <time>2022-06-15T09:12:20Z</time>
      </trkpt>
      <trkpt lat="45.70349" lon="6.63362">
        <ele>1541</ele>
        <time>2022-06-15T09:12:21Z</time>
      </trkpt>
      <trkpt lat="45.7036" lon="6.63366">
        <ele>1538.6</ele>
        <time>2022-06-15T09:12:22Z</time>
      </trkpt>
      <trkpt lat="45.70371" lon="6.63367">
        <ele>1538.1</ele>
        <time>2022-06-15T09:12:23Z</time>
      </trkpt>
      <trkpt lat="45.70383" lon="6.63365">
        <ele>1536.9</ele>
        <time>2022-06-15T09:12:24Z</time>
      </trkpt>
      <trkpt lat="45.70393" lon="6.63362">
        <ele>1535.4</ele>
        <time>2022-06-15T09:12:25Z</time>
      </trkpt>
      <trkpt lat="45.70403" lon="6.63358">
        <ele>1534.3</ele>
        <time>2022-06-15T09:12:26Z</time>
      </trkpt>
      <trkpt lat="45.70414" lon="6.63355">
        <ele>1534</ele>
        <time>2022-06-15T09:12:27Z</time>
      </trkpt>
      <trkpt lat="45.70425" lon="6.63356">
        <ele>1532.6</ele>
        <time>2022-06-15T09:12:28Z</time>
      </trkpt>
      <trkpt lat="45.70436" lon="6.6336">
        <ele>1530.9</ele>
        <time>2022-06-15T09:12:29Z</time>
      </trkpt>
      <trkpt lat="45.70447" lon="6.63363">
        <ele>1529.5</ele>
        <time>2022-06-15T09:12:30Z</time>
      </trkpt>
      <trkpt lat="45.70459" lon="6.63365">
        <ele>1529.6</ele>
        <time>2022-06-15T09:12:31Z</time>
      </trkpt>
      <trkpt lat="45.70471" lon="6.63366">
        <ele>1529.2</ele>
        <time>2022-06-15T09:12:32Z</time>
      </trkpt>
      <trkpt lat="45.70483" lon="6.63366">
        <ele>1528.8</ele>
        <time>2022-06-15T09:12:33Z</time>
      </trkpt>
      <trkpt lat="45.70495" lon="6.63366">
        <ele>1528.2</ele>
        <time>2022-06-15T09:12:34Z</time>
      </trkpt>
      <trkpt lat="45.70508" lon="6.63365">
        <ele>1527</ele>
        <time>2022-06-15T09:12:35Z</time>
      </trkpt>
      <trkpt lat="45.7052" lon="6.63364">
        <ele>1525.2</ele>
        <time>2022-06-15T09:12:36Z</time>
      </trkpt>
      <trkpt lat="45.70533" lon="6.63362">
        <ele>1524.2</ele>
        <time>2022-06-15T09:12:37Z</time>
      </trkpt>
      <trkpt lat="45.70547" lon="6.6336">
        <ele>1524.3</ele>
        <time>2022-06-15T09:12:38Z</time>
      </trkpt>
      <trkpt lat="45.7056" lon="6.63356">
        <ele>1523.6</ele>
        <time>2022-06-15T09:12:39Z</time>
      </trkpt>
      <trkpt lat="45.70573" lon="6.63353">
        <ele>1523</ele>
        <time>2022-06-15T09:12:40Z</time>
      </trkpt>
      <trkpt lat="45.70586" lon="6.6335">
        <ele>1522.2</ele>
        <time>2022-06-15T09:12:41Z</time>
      </trkpt>
      <trkpt lat="45.70599" lon="6.63348">
        <ele>1519.8</ele>
        <time>2022-06-15T09:12:42Z</time>
      </trkpt>
      <trkpt lat="45.70612" lon="6.63347">
        <ele>1517.7</ele>
        <time>2022-06-15T09:12:43Z</time>
      </trkpt>
      <trkpt lat="45.70624" lon="6.63344">
        <ele>1517.7</ele>
        <time>2022-06-15T09:12:44Z</time>
      </trkpt>
      <trkpt lat="45.70637" lon="6.63339">
        <ele>1516.1</ele>
        <time>2022-06-15T09:12:45Z</time>
      </trkpt>
      <trkpt lat="45.70649" lon="6.63334">
        <ele>1515.2</ele>
        <time>2022-06-15T09:12:46Z</time>
      </trkpt>
      <trkpt lat="45.7066" lon="6.63329">
        <ele>1515.4</ele>
        <time>2022-06-15T09:12:47Z</time>
      </trkpt>
      <trkpt lat="45.70671" lon="6.63326">
        <ele>1515</ele>
        <time>2022-06-15T09:12:48Z</time>
      </trkpt>
      <trkpt lat="45.70681" lon="6.63325">
        <ele>1514.6</ele>
        <time>2022-06-15T09:12:49Z</time>
      </trkpt>
      <trkpt lat="45.7069" lon="6.63324">
        <ele>1514.6</ele>
        <time>2022-06-15T09:12:50Z</time>
      </trkpt>
      <trkpt lat="45.70696" lon="6.63324">
        <ele>1513.6</ele>
        <time>2022-06-15T09:12:51Z</time>
      </trkpt>
      <trkpt lat="45.70701" lon="6.63319">
        <ele>1509.3</ele>
        <time>2022-06-15T09:12:52Z</time>
      </trkpt>
      <trkpt lat="45.70704" lon="6.63313">
        <ele>1505.1</ele>
        <time>2022-06-15T09:12:53Z</time>
      </trkpt>
      <trkpt lat="45.70703" lon="6.63304">
        <ele>1501.7</ele>
        <time>2022-06-15T09:12:54Z</time>
      </trkpt>
      <trkpt lat="45.70699" lon="6.63298">
        <ele>1500.7</ele>
        <time>2022-06-15T09:12:55Z</time>
      </trkpt>
      <trkpt lat="45.70693" lon="6.63295">
        <ele>1501.3</ele>
        <time>2022-06-15T09:12:56Z</time>
      </trkpt>
      <trkpt lat="45.70685" lon="6.63295">
        <ele>1500.8</ele>
        <time>2022-06-15T09:12:57Z</time>
      </trkpt>
      <trkpt lat="45.70678" lon="6.63298">
        <ele>1501.4</ele>
        <time>2022-06-15T09:12:58Z</time>
      </trkpt>
      <trkpt lat="45.7067" lon="6.633">
        <ele>1501.7</ele>
        <time>2022-06-15T09:12:59Z</time>
      </trkpt>
      <trkpt lat="45.70662" lon="6.63303">
        <ele>1502</ele>
        <time>2022-06-15T09:13:00Z</time>
      </trkpt>
      <trkpt lat="45.70654" lon="6.63305">
        <ele>1502.5</ele>
        <time>2022-06-15T09:13:01Z</time>
      </trkpt>
      <trkpt lat="45.70645" lon="6.63309">
        <ele>1503</ele>
        <time>2022-06-15T09:13:02Z</time>
      </trkpt>
      <trkpt lat="45.70636" lon="6.63311">
        <ele>1503</ele>
        <time>2022-06-15T09:13:03Z</time>
      </trkpt>
      <trkpt lat="45.70626" lon="6.63313">
        <ele>1502.2</ele>
        <time>2022-06-15T09:13:04Z</time>
      </trkpt>
      <trkpt lat="45.70616" lon="6.63314">
        <ele>1501</ele>
        <time>2022-06-15T09:13:05Z</time>
      </trkpt>
      <trkpt lat="45.70605" lon="6.63313">
        <ele>1500.3</ele>
        <time>2022-06-15T09:13:06Z</time>
      </trkpt>
      <trkpt lat="45.70594" lon="6.63312">
        <ele>1499.6</ele>
        <time>2022-06-15T09:13:07Z</time>
      </trkpt>
      <trkpt lat="45.70582" lon="6.63311">
        <ele>1498.5</ele>
        <time>2022-06-15T09:13:08Z</time>
      </trkpt>
      <trkpt lat="45.7057" lon="6.63309">
        <ele>1496.5</ele>
        <time>2022-06-15T09:13:09Z</time>
      </trkpt>
      <trkpt lat="45.70559" lon="6.63308">
        <ele>1494.7</ele>
        <time>2022-06-15T09:13:10Z</time>
      </trkpt>
      <trkpt lat="45.70547" lon="6.63306">
        <ele>1493.2</ele>
        <time>2022-06-15T09:13:11Z</time>
      </trkpt>
      <trkpt lat="45.70534" lon="6.63302">
        <ele>1491.4</ele>
        <time>2022-06-15T09:13:12Z</time>
      </trkpt>
      <trkpt lat="45.70522" lon="6.63296">
        <ele>1490.2</ele>
        <time>2022-06-15T09:13:13Z</time>
      </trkpt>
      <trkpt lat="45.7051" lon="6.6329">
        <ele>1489.5</ele>
        <time>2022-06-15T09:13:14Z</time>
      </trkpt>
      <trkpt lat="45.70498" lon="6.63282">
        <ele>1488.7</ele>
        <time>2022-06-15T09:13:15Z</time>
      </trkpt>
      <trkpt lat="45.70486" lon="6.63272">
        <ele>1486.8</ele>
        <time>2022-06-15T09:13:16Z</time>
      </trkpt>
      <trkpt lat="45.70474" lon="6.63262">
        <ele>1485.9</ele>
        <time>2022-06-15T09:13:17Z</time>
      </trkpt>
      <trkpt lat="45.70462" lon="6.63254">
        <ele>1484.6</ele>
        <time>2022-06-15T09:13:18Z</time>
      </trkpt>
      <trkpt lat="45.70449" lon="6.63248">
        <ele>1483.1</ele>
        <time>2022-06-15T09:13:19Z</time>
      </trkpt>
      <trkpt lat="45.70435" lon="6.63246">
        <ele>1481.5</ele>
        <time>2022-06-15T09:13:20Z</time>
      </trkpt>
      <trkpt lat="45.70421" lon="6.63242">
        <ele>1479.1</ele>
        <time>2022-06-15T09:13:21Z</time>
      </trkpt>
      <trkpt lat="45.70408" lon="6.63236">
        <ele>1478.6</ele>
        <time>2022-06-15T09:13:22Z</time>
      </trkpt>
      <trkpt lat="45.70396" lon="6.63227">
        <ele>1478.1</ele>
        <time>2022-06-15T09:13:23Z</time>
      </trkpt>
      <trkpt lat="45.70385" lon="6.6322">
        <ele>1477</ele>
        <time>2022-06-15T09:13:24Z</time>
      </trkpt>
      <trkpt lat="45.70373" lon="6.63215">
        <ele>1475.4</ele>
        <time>2022-06-15T09:13:25Z</time>
      </trkpt>
      <trkpt lat="45.70361" lon="6.63214">
        <ele>1475.5</ele>
        <time>2022-06-15T09:13:26Z</time>
      </trkpt>
      <trkpt lat="45.70349" lon="6.63216">
        <ele>1474.1</ele>
        <time>2022-06-15T09:13:27Z</time>
      </trkpt>
      <trkpt lat="45.70336" lon="6.63219">
        <ele>1473.5</ele>
        <time>2022-06-15T09:13:28Z</time>
      </trkpt>
      <trkpt lat="45.70323" lon="6.63222">
        <ele>1472.5</ele>
        <time>2022-06-15T09:13:29Z</time>
      </trkpt>
      <trkpt lat="45.70309" lon="6.63224">
        <ele>1470.9</ele>
        <time>2022-06-15T09:13:30Z</time>
      </trkpt>
      <trkpt lat="45.70296" lon="6.63225">
        <ele>1469.7</ele>
        <time>2022-06-15T09:13:31Z</time>
      </trkpt>
      <trkpt lat="45.70282" lon="6.63223">
        <ele>1467.9</ele>
        <time>2022-06-15T09:13:32Z</time>
      </trkpt>
      <trkpt lat="45.70268" lon="6.63221">
        <ele>1466.3</ele>
        <time>2022-06-15T09:13:33Z</time>
      </trkpt>
      <trkpt lat="45.70254" lon="6.63218">
        <ele>1465.1</ele>
        <time>2022-06-15T09:13:34Z</time>
      </trkpt>
      <trkpt lat="45.7024" lon="6.63215">
        <ele>1465.3</ele>
        <time>2022-06-15T09:13:35Z</time>
      </trkpt>
      <trkpt lat="45.70226" lon="6.63213">
        <ele>1465.8</ele>
        <time>2022-06-15T09:13:36Z</time>
      </trkpt>
      <trkpt lat="45.70213" lon="6.63211">
        <ele>1465.5</ele>
        <time>2022-06-15T09:13:37Z</time>
      </trkpt>
      <trkpt lat="45.702" lon="6.63209">
        <ele>1464.7</ele>
        <time>2022-06-15T09:13:38Z</time>
      </trkpt>
      <trkpt lat="45.70187" lon="6.63207">
        <ele>1463.8</ele>
        <time>2022-06-15T09:13:39Z</time>
      </trkpt>
      <trkpt lat="45.70175" lon="6.63205">
        <ele>1462.5</ele>
        <time>2022-06-15T09:13:40Z</time>
      </trkpt>
      <trkpt lat="45.70164" lon="6.63201">
        <ele>1460.4</ele>
        <time>2022-06-15T09:13:41Z</time>
      </trkpt>
      <trkpt lat="45.70154" lon="6.63197">
        <ele>1459</ele>
        <time>2022-06-15T09:13:42Z</time>
      </trkpt>
      <trkpt lat="45.70144" lon="6.63192">
        <ele>1457.2</ele>
        <time>2022-06-15T09:13:43Z</time>
      </trkpt>
      <trkpt lat="45.70133" lon="6.63186">
        <ele>1456</ele>
        <time>2022-06-15T09:13:44Z</time>
      </trkpt>
      <trkpt lat="45.70122" lon="6.63181">
        <ele>1455.2</ele>
        <time>2022-06-15T09:13:45Z</time>
      </trkpt>
      <trkpt lat="45.70112" lon="6.63176">
        <ele>1454.6</ele>
        <time>2022-06-15T09:13:46Z</time>
      </trkpt>
      <trkpt lat="45.70103" lon="6.63169">
        <ele>1453</ele>
        <time>2022-06-15T09:13:47Z</time>
      </trkpt>
      <trkpt lat="45.70093" lon="6.63162">
        <ele>1451.4</ele>
        <time>2022-06-15T09:13:48Z</time>
      </trkpt>
      <trkpt lat="45.70084" lon="6.63153">
        <ele>1450.4</ele>
        <time>2022-06-15T09:13:49Z</time>
      </trkpt>
      <trkpt lat="45.70075" lon="6.63143">
        <ele>1449.7</ele>
        <time>2022-06-15T09:13:50Z</time>
      </trkpt>
      <trkpt lat="45.70065" lon="6.63133">
        <ele>1448.8</ele>
        <time>2022-06-15T09:13:51Z</time>
      </trkpt>
      <trkpt lat="45.70056" lon="6.63124">
        <ele>1448.2</ele>
        <time>2022-06-15T09:13:52Z</time>
      </trkpt>
      <trkpt lat="45.70047" lon="6.63117">
        <ele>1447.4</ele>
        <time>2022-06-15T09:13:53Z</time>
      </trkpt>
      <trkpt lat="45.70039" lon="6.6311">
        <ele>1445.7</ele>
        <time>2022-06-15T09:13:54Z</time>
      </trkpt>
      <trkpt lat="45.70032" lon="6.63103">
        <ele>1444.8</ele>
        <time>2022-06-15T09:13:55Z</time>
      </trkpt>
      <trkpt lat="45.70026" lon="6.63096">
        <ele>1444.8</ele>
        <time>2022-06-15T09:13:56Z</time>
      </trkpt>
      <trkpt lat="45.70021" lon="6.63088">
        <ele>1445.3</ele>
        <time>2022-06-15T09:13:57Z</time>
      </trkpt>
      <trkpt lat="45.7002" lon="6.6308">
        <ele>1444.6</ele>
        <time>2022-06-15T09:13:58Z</time>
      </trkpt>
      <trkpt lat="45.70022" lon="6.63074">
        <ele>1443.2</ele>
        <time>2022-06-15T09:13:59Z</time>
      </trkpt>
      <trkpt lat="45.70026" lon="6.63071">
        <ele>1441</ele>
        <time>2022-06-15T09:14:00Z</time>
      </trkpt>
      <trkpt lat="45.70031" lon="6.63072">
        <ele>1439.2</ele>
        <time>2022-06-15T09:14:01Z</time>
      </trkpt>
      <trkpt lat="45.70036" lon="6.63077">
        <ele>1438.1</ele>
        <time>2022-06-15T09:14:02Z</time>
      </trkpt>
      <trkpt lat="45.70041" lon="6.63082">
        <ele>1437.5</ele>
        <time>2022-06-15T09:14:03Z</time>
      </trkpt>
      <trkpt lat="45.70046" lon="6.63087">
        <ele>1437.6</ele>
        <time>2022-06-15T09:14:04Z</time>
      </trkpt>
      <trkpt lat="45.70052" lon="6.63091">
        <ele>1437.8</ele>
        <time>2022-06-15T09:14:05Z</time>
      </trkpt>
      <trkpt lat="45.70059" lon="6.63095">
        <ele>1437.9</ele>
        <time>2022-06-15T09:14:06Z</time>
      </trkpt>
      <trkpt lat="45.70066" lon="6.63098">
        <ele>1438</ele>
        <time>2022-06-15T09:14:07Z</time>
      </trkpt>
      <trkpt lat="45.70073" lon="6.63102">
        <ele>1438.3</ele>
        <time>2022-06-15T09:14:08Z</time>
      </trkpt>
      <trkpt lat="45.70082" lon="6.63105">
        <ele>1438.6</ele>
        <time>2022-06-15T09:14:09Z</time>
      </trkpt>
      <trkpt lat="45.70091" lon="6.63109">
        <ele>1437.8</ele>
        <time>2022-06-15T09:14:10Z</time>
      </trkpt>
      <trkpt lat="45.701" lon="6.63112">
        <ele>1436.5</ele>
        <time>2022-06-15T09:14:11Z</time>
      </trkpt>
      <trkpt lat="45.70109" lon="6.63115">
        <ele>1434.5</ele>
        <time>2022-06-15T09:14:12Z</time>
      </trkpt>
      <trkpt lat="45.70119" lon="6.63119">
        <ele>1433.9</ele>
        <time>2022-06-15T09:14:13Z</time>
      </trkpt>
      <trkpt lat="45.70134" lon="6.63127">
        <ele>1434.1</ele>
        <time>2022-06-15T09:14:14Z</time>
      </trkpt>
      <trkpt lat="45.70139" lon="6.63131">
        <ele>1434.4</ele>
        <time>2022-06-15T09:14:15Z</time>
      </trkpt>
      <trkpt lat="45.7015" lon="6.63138">
        <ele>1432.8</ele>
        <time>2022-06-15T09:14:16Z</time>
      </trkpt>
      <trkpt lat="45.70161" lon="6.63145">
        <ele>1431.3</ele>
        <time>2022-06-15T09:14:17Z</time>
      </trkpt>
      <trkpt lat="45.70171" lon="6.63149">
        <ele>1430.8</ele>
        <time>2022-06-15T09:14:18Z</time>
      </trkpt>
      <trkpt lat="45.70187" lon="6.63151">
        <ele>1430.5</ele>
        <time>2022-06-15T09:14:19Z</time>
      </trkpt>
      <trkpt lat="45.70192" lon="6.6315">
        <ele>1429.6</ele>
        <time>2022-06-15T09:14:20Z</time>
      </trkpt>
      <trkpt lat="45.70209" lon="6.63146">
        <ele>1430</ele>
        <time>2022-06-15T09:14:21Z</time>
      </trkpt>
      <trkpt lat="45.70215" lon="6.63144">
        <ele>1430</ele>
        <time>2022-06-15T09:14:22Z</time>
      </trkpt>
      <trkpt lat="45.70226" lon="6.63141">
        <ele>1428.7</ele>
        <time>2022-06-15T09:14:23Z</time>
      </trkpt>
      <trkpt lat="45.70239" lon="6.63141">
        <ele>1426.7</ele>
        <time>2022-06-15T09:14:24Z</time>
      </trkpt>
      <trkpt lat="45.70251" lon="6.6314">
        <ele>1424.7</ele>
        <time>2022-06-15T09:14:25Z</time>
      </trkpt>
      <trkpt lat="45.70264" lon="6.63141">
        <ele>1424.5</ele>
        <time>2022-06-15T09:14:26Z</time>
      </trkpt>
      <trkpt lat="45.70277" lon="6.6314">
        <ele>1423.4</ele>
        <time>2022-06-15T09:14:27Z</time>
      </trkpt>
      <trkpt lat="45.7029" lon="6.63137">
        <ele>1423.7</ele>
        <time>2022-06-15T09:14:28Z</time>
      </trkpt>
      <trkpt lat="45.70303" lon="6.63133">
        <ele>1423.6</ele>
        <time>2022-06-15T09:14:29Z</time>
      </trkpt>
      <trkpt lat="45.70316" lon="6.63129">
        <ele>1422.9</ele>
        <time>2022-06-15T09:14:30Z</time>
      </trkpt>
      <trkpt lat="45.70329" lon="6.63125">
        <ele>1421.6</ele>
        <time>2022-06-15T09:14:31Z</time>
      </trkpt>
      <trkpt lat="45.70342" lon="6.6312">
        <ele>1419.6</ele>
        <time>2022-06-15T09:14:32Z</time>
      </trkpt>
      <trkpt lat="45.70356" lon="6.63116">
        <ele>1418.3</ele>
        <time>2022-06-15T09:14:33Z</time>
      </trkpt>
      <trkpt lat="45.7037" lon="6.63111">
        <ele>1416.4</ele>
        <time>2022-06-15T09:14:34Z</time>
      </trkpt>
      <trkpt lat="45.70383" lon="6.63108">
        <ele>1415</ele>
        <time>2022-06-15T09:14:35Z</time>
      </trkpt>
      <trkpt lat="45.70397" lon="6.63105">
        <ele>1414.1</ele>
        <time>2022-06-15T09:14:36Z</time>
      </trkpt>
      <trkpt lat="45.70418" lon="6.63102">
        <ele>1413.5</ele>
        <time>2022-06-15T09:14:37Z</time>
      </trkpt>
      <trkpt lat="45.70424" lon="6.63102">
        <ele>1412.7</ele>
        <time>2022-06-15T09:14:38Z</time>
      </trkpt>
      <trkpt lat="45.70437" lon="6.63102">
        <ele>1411.1</ele>
        <time>2022-06-15T09:14:39Z</time>
      </trkpt>
      <trkpt lat="45.70449" lon="6.63102">
        <ele>1409.8</ele>
        <time>2022-06-15T09:14:40Z</time>
      </trkpt>
      <trkpt lat="45.7046" lon="6.631">
        <ele>1408</ele>
        <time>2022-06-15T09:14:41Z</time>
      </trkpt>
      <trkpt lat="45.70471" lon="6.63096">
        <ele>1405</ele>
        <time>2022-06-15T09:14:42Z</time>
      </trkpt>
      <trkpt lat="45.70482" lon="6.6309">
        <ele>1402.4</ele>
        <time>2022-06-15T09:14:43Z</time>
      </trkpt>
      <trkpt lat="45.70491" lon="6.63083">
        <ele>1399.5</ele>
        <time>2022-06-15T09:14:44Z</time>
      </trkpt>
      <trkpt lat="45.70506" lon="6.63081">
        <ele>1397.1</ele>
        <time>2022-06-15T09:14:45Z</time>
      </trkpt>
      <trkpt lat="45.70511" lon="6.63082">
        <ele>1396.1</ele>
        <time>2022-06-15T09:14:46Z</time>
      </trkpt>
      <trkpt lat="45.70526" lon="6.63089">
        <ele>1393</ele>
        <time>2022-06-15T09:14:47Z</time>
      </trkpt>
      <trkpt lat="45.70531" lon="6.63092">
        <ele>1392.8</ele>
        <time>2022-06-15T09:14:48Z</time>
      </trkpt>
      <trkpt lat="45.7054" lon="6.63099">
        <ele>1394</ele>
        <time>2022-06-15T09:14:49Z</time>
      </trkpt>
      <trkpt lat="45.70552" lon="6.63103">
        <ele>1394.7</ele>
        <time>2022-06-15T09:14:50Z</time>
      </trkpt>
      <trkpt lat="45.70563" lon="6.63103">
        <ele>1394.4</ele>
        <time>2022-06-15T09:14:51Z</time>
      </trkpt>
      <trkpt lat="45.70575" lon="6.63102">
        <ele>1393.3</ele>
        <time>2022-06-15T09:14:52Z</time>
      </trkpt>
      <trkpt lat="45.70586" lon="6.63098">
        <ele>1392</ele>
        <time>2022-06-15T09:14:53Z</time>
      </trkpt>
      <trkpt lat="45.70597" lon="6.63096">
        <ele>1392.3</ele>
        <time>2022-06-15T09:14:54Z</time>
      </trkpt>
      <trkpt lat="45.70609" lon="6.63097">
        <ele>1393.7</ele>
        <time>2022-06-15T09:14:55Z</time>
      </trkpt>
      <trkpt lat="45.70621" lon="6.63099">
        <ele>1392.1</ele>
        <time>2022-06-15T09:14:56Z</time>
      </trkpt>
      <trkpt lat="45.70633" lon="6.63102">
        <ele>1389.4</ele>
        <time>2022-06-15T09:14:57Z</time>
      </trkpt>
      <trkpt lat="45.70646" lon="6.63104">
        <ele>1386.7</ele>
        <time>2022-06-15T09:14:58Z</time>
      </trkpt>
      <trkpt lat="45.70658" lon="6.63107">
        <ele>1384.2</ele>
        <time>2022-06-15T09:14:59Z</time>
      </trkpt>
      <trkpt lat="45.70671" lon="6.6311">
        <ele>1382</ele>
        <time>2022-06-15T09:15:00Z</time>
      </trkpt>
      <trkpt lat="45.70684" lon="6.63113">
        <ele>1381.5</ele>
        <time>2022-06-15T09:15:01Z</time>
      </trkpt>
      <trkpt lat="45.70697" lon="6.63117">
        <ele>1381.3</ele>
        <time>2022-06-15T09:15:02Z</time>
      </trkpt>
      <trkpt lat="45.70709" lon="6.6312">
        <ele>1381.7</ele>
        <time>2022-06-15T09:15:03Z</time>
      </trkpt>
      <trkpt lat="45.7072" lon="6.63123">
        <ele>1382.3</ele>
        <time>2022-06-15T09:15:04Z</time>
      </trkpt>
      <trkpt lat="45.7073" lon="6.63126">
        <ele>1383.1</ele>
        <time>2022-06-15T09:15:05Z</time>
      </trkpt>
      <trkpt lat="45.70738" lon="6.63128">
        <ele>1383.3</ele>
        <time>2022-06-15T09:15:06Z</time>
      </trkpt>
      <trkpt lat="45.70745" lon="6.63125">
        <ele>1381.4</ele>
        <time>2022-06-15T09:15:07Z</time>
      </trkpt>
      <trkpt lat="45.70751" lon="6.63119">
        <ele>1378</ele>
        <time>2022-06-15T09:15:08Z</time>
      </trkpt>
      <trkpt lat="45.70754" lon="6.6311">
        <ele>1373.2</ele>
        <time>2022-06-15T09:15:09Z</time>
      </trkpt>
      <trkpt lat="45.70753" lon="6.63099">
        <ele>1371.9</ele>
        <time>2022-06-15T09:15:10Z</time>
      </trkpt>
      <trkpt lat="45.70748" lon="6.63091">
        <ele>1372.2</ele>
        <time>2022-06-15T09:15:11Z</time>
      </trkpt>
      <trkpt lat="45.70741" lon="6.63087">
        <ele>1371.8</ele>
        <time>2022-06-15T09:15:12Z</time>
      </trkpt>
      <trkpt lat="45.70734" lon="6.63085">
        <ele>1371.8</ele>
        <time>2022-06-15T09:15:13Z</time>
      </trkpt>
      <trkpt lat="45.70725" lon="6.63084">
        <ele>1371.9</ele>
        <time>2022-06-15T09:15:14Z</time>
      </trkpt>
      <trkpt lat="45.70716" lon="6.63082">
        <ele>1371.4</ele>
        <time>2022-06-15T09:15:15Z</time>
      </trkpt>
      <trkpt lat="45.70707" lon="6.6308">
        <ele>1370.4</ele>
        <time>2022-06-15T09:15:16Z</time>
      </trkpt>
      <trkpt lat="45.70697" lon="6.63077">
        <ele>1368.9</ele>
        <time>2022-06-15T09:15:17Z</time>
      </trkpt>
      <trkpt lat="45.70688" lon="6.63072">
        <ele>1368.5</ele>
        <time>2022-06-15T09:15:18Z</time>
      </trkpt>
      <trkpt lat="45.70678" lon="6.63067">
        <ele>1368.2</ele>
        <time>2022-06-15T09:15:19Z</time>
      </trkpt>
      <trkpt lat="45.70667" lon="6.63061">
        <ele>1367.7</ele>
        <time>2022-06-15T09:15:20Z</time>
      </trkpt>
      <trkpt lat="45.70657" lon="6.63055">
        <ele>1366.1</ele>
        <time>2022-06-15T09:15:21Z</time>
      </trkpt>
      <trkpt lat="45.70646" lon="6.63049">
        <ele>1364.9</ele>
        <time>2022-06-15T09:15:22Z</time>
      </trkpt>
      <trkpt lat="45.70635" lon="6.63043">
        <ele>1364.4</ele>
        <time>2022-06-15T09:15:23Z</time>
      </trkpt>
      <trkpt lat="45.70624" lon="6.63037">
        <ele>1364.2</ele>
        <time>2022-06-15T09:15:24Z</time>
      </trkpt>
      <trkpt lat="45.70613" lon="6.63031">
        <ele>1363</ele>
        <time>2022-06-15T09:15:25Z</time>
      </trkpt>
      <trkpt lat="45.70602" lon="6.63024">
        <ele>1362</ele>
        <time>2022-06-15T09:15:26Z</time>
      </trkpt>
      <trkpt lat="45.7059" lon="6.63018">
        <ele>1361.2</ele>
        <time>2022-06-15T09:15:27Z</time>
      </trkpt>
      <trkpt lat="45.70578" lon="6.63011">
        <ele>1359.8</ele>
        <time>2022-06-15T09:15:28Z</time>
      </trkpt>
      <trkpt lat="45.70566" lon="6.63005">
        <ele>1358</ele>
        <time>2022-06-15T09:15:29Z</time>
      </trkpt>
      <trkpt lat="45.70554" lon="6.62997">
        <ele>1356.2</ele>
        <time>2022-06-15T09:15:30Z</time>
      </trkpt>
      <trkpt lat="45.70544" lon="6.62987">
        <ele>1354.9</ele>
        <time>2022-06-15T09:15:31Z</time>
      </trkpt>
      <trkpt lat="45.70534" lon="6.62976">
        <ele>1352.9</ele>
        <time>2022-06-15T09:15:32Z</time>
      </trkpt>
      <trkpt lat="45.70525" lon="6.62965">
        <ele>1349.6</ele>
        <time>2022-06-15T09:15:33Z</time>
      </trkpt>
      <trkpt lat="45.70515" lon="6.62957">
        <ele>1348.1</ele>
        <time>2022-06-15T09:15:34Z</time>
      </trkpt>
      <trkpt lat="45.70504" lon="6.62951">
        <ele>1349.7</ele>
        <time>2022-06-15T09:15:35Z</time>
      </trkpt>
      <trkpt lat="45.70492" lon="6.62948">
        <ele>1350.1</ele>
        <time>2022-06-15T09:15:36Z</time>
      </trkpt>
      <trkpt lat="45.7048" lon="6.62946">
        <ele>1348.8</ele>
        <time>2022-06-15T09:15:37Z</time>
      </trkpt>
      <trkpt lat="45.70467" lon="6.62943">
        <ele>1347.1</ele>
        <time>2022-06-15T09:15:38Z</time>
      </trkpt>
      <trkpt lat="45.70455" lon="6.62941">
        <ele>1345.3</ele>
        <time>2022-06-15T09:15:39Z</time>
      </trkpt>
      <trkpt lat="45.70442" lon="6.62941">
        <ele>1344.6</ele>
        <time>2022-06-15T09:15:40Z</time>
      </trkpt>
      <trkpt lat="45.70428" lon="6.62941">
        <ele>1344.7</ele>
        <time>2022-06-15T09:15:41Z</time>
      </trkpt>
      <trkpt lat="45.70415" lon="6.62943">
        <ele>1345</ele>
        <time>2022-06-15T09:15:42Z</time>
      </trkpt>
      <trkpt lat="45.70402" lon="6.62945">
        <ele>1343.5</ele>
        <time>2022-06-15T09:15:43Z</time>
      </trkpt>
      <trkpt lat="45.70388" lon="6.62947">
        <ele>1341.8</ele>
        <time>2022-06-15T09:15:44Z</time>
      </trkpt>
      <trkpt lat="45.70375" lon="6.6295">
        <ele>1340.5</ele>
        <time>2022-06-15T09:15:45Z</time>
      </trkpt>
      <trkpt lat="45.70361" lon="6.62951">
        <ele>1338.7</ele>
        <time>2022-06-15T09:15:46Z</time>
      </trkpt>
      <trkpt lat="45.70347" lon="6.62953">
        <ele>1338.5</ele>
        <time>2022-06-15T09:15:47Z</time>
      </trkpt>
      <trkpt lat="45.70334" lon="6.62954">
        <ele>1338.3</ele>
        <time>2022-06-15T09:15:48Z</time>
      </trkpt>
      <trkpt lat="45.7032" lon="6.62954">
        <ele>1337.3</ele>
        <time>2022-06-15T09:15:49Z</time>
      </trkpt>
      <trkpt lat="45.70307" lon="6.62952">
        <ele>1335.9</ele>
        <time>2022-06-15T09:15:50Z</time>
      </trkpt>
      <trkpt lat="45.70294" lon="6.62948">
        <ele>1334.5</ele>
        <time>2022-06-15T09:15:51Z</time>
      </trkpt>
      <trkpt lat="45.7028" lon="6.62942">
        <ele>1331.1</ele>
        <time>2022-06-15T09:15:52Z</time>
      </trkpt>
      <trkpt lat="45.70267" lon="6.62933">
        <ele>1330.5</ele>
        <time>2022-06-15T09:15:53Z</time>
      </trkpt>
      <trkpt lat="45.70254" lon="6.62923">
        <ele>1329.7</ele>
        <time>2022-06-15T09:15:54Z</time>
      </trkpt>
      <trkpt lat="45.70242" lon="6.62913">
        <ele>1329.2</ele>
        <time>2022-06-15T09:15:55Z</time>
      </trkpt>
      <trkpt lat="45.70229" lon="6.62903">
        <ele>1328.8</ele>
        <time>2022-06-15T09:15:56Z</time>
      </trkpt>
      <trkpt lat="45.70216" lon="6.62892">
        <ele>1326.9</ele>
        <time>2022-06-15T09:15:57Z</time>
      </trkpt>
      <trkpt lat="45.70203" lon="6.62883">
        <ele>1324</ele>
        <time>2022-06-15T09:15:58Z</time>
      </trkpt>
      <trkpt lat="45.7019" lon="6.62872">
        <ele>1322.3</ele>
        <time>2022-06-15T09:15:59Z</time>
      </trkpt>
      <trkpt lat="45.70178" lon="6.62861">
        <ele>1320.3</ele>
        <time>2022-06-15T09:16:00Z</time>
      </trkpt>
      <trkpt lat="45.70166" lon="6.62851">
        <ele>1320.6</ele>
        <time>2022-06-15T09:16:01Z</time>
      </trkpt>
      <trkpt lat="45.70154" lon="6.62845">
        <ele>1320.7</ele>
        <time>2022-06-15T09:16:02Z</time>
      </trkpt>
      <trkpt lat="45.70141" lon="6.6284">
        <ele>1320.1</ele>
        <time>2022-06-15T09:16:03Z</time>
      </trkpt>
      <trkpt lat="45.70129" lon="6.62835">
        <ele>1318.3</ele>
        <time>2022-06-15T09:16:04Z</time>
      </trkpt>
      <trkpt lat="45.70118" lon="6.62828">
        <ele>1315.6</ele>
        <time>2022-06-15T09:16:05Z</time>
      </trkpt>
      <trkpt lat="45.70108" lon="6.62818">
        <ele>1313.8</ele>
        <time>2022-06-15T09:16:06Z</time>
      </trkpt>
      <trkpt lat="45.70098" lon="6.62805">
        <ele>1313.4</ele>
        <time>2022-06-15T09:16:07Z</time>
      </trkpt>
      <trkpt lat="45.70091" lon="6.62791">
        <ele>1311.8</ele>
        <time>2022-06-15T09:16:08Z</time>
      </trkpt>
      <trkpt lat="45.70083" lon="6.62777">
        <ele>1310.8</ele>
        <time>2022-06-15T09:16:09Z</time>
      </trkpt>
      <trkpt lat="45.70075" lon="6.62762">
        <ele>1309.8</ele>
        <time>2022-06-15T09:16:10Z</time>
      </trkpt>
      <trkpt lat="45.70065" lon="6.62749">
        <ele>1308.5</ele>
        <time>2022-06-15T09:16:11Z</time>
      </trkpt>
      <trkpt lat="45.70055" lon="6.62737">
        <ele>1309</ele>
        <time>2022-06-15T09:16:12Z</time>
      </trkpt>
      <trkpt lat="45.70044" lon="6.62725">
        <ele>1307.9</ele>
        <time>2022-06-15T09:16:13Z</time>
      </trkpt>
      <trkpt lat="45.70033" lon="6.62713">
        <ele>1307.1</ele>
        <time>2022-06-15T09:16:14Z</time>
      </trkpt>
      <trkpt lat="45.70021" lon="6.62702">
        <ele>1308.1</ele>
        <time>2022-06-15T09:16:15Z</time>
      </trkpt>
      <trkpt lat="45.7001" lon="6.6269">
        <ele>1307.3</ele>
        <time>2022-06-15T09:16:16Z</time>
      </trkpt>
      <trkpt lat="45.69999" lon="6.62679">
        <ele>1305.2</ele>
        <time>2022-06-15T09:16:17Z</time>
      </trkpt>
      <trkpt lat="45.69988" lon="6.62666">
        <ele>1304.8</ele>
        <time>2022-06-15T09:16:18Z</time>
      </trkpt>
      <trkpt lat="45.69978" lon="6.62652">
        <ele>1302.9</ele>
        <time>2022-06-15T09:16:19Z</time>
      </trkpt>
      <trkpt lat="45.69968" lon="6.62638">
        <ele>1301.8</ele>
        <time>2022-06-15T09:16:20Z</time>
      </trkpt>
      <trkpt lat="45.6996" lon="6.62625">
        <ele>1300.8</ele>
        <time>2022-06-15T09:16:21Z</time>
      </trkpt>
      <trkpt lat="45.69953" lon="6.6261">
        <ele>1297.4</ele>
        <time>2022-06-15T09:16:22Z</time>
      </trkpt>
      <trkpt lat="45.69947" lon="6.62595">
        <ele>1295.1</ele>
        <time>2022-06-15T09:16:23Z</time>
      </trkpt>
      <trkpt lat="45.69943" lon="6.62578">
        <ele>1293.6</ele>
        <time>2022-06-15T09:16:24Z</time>
      </trkpt>
      <trkpt lat="45.6994" lon="6.6256">
        <ele>1293.8</ele>
        <time>2022-06-15T09:16:25Z</time>
      </trkpt>
      <trkpt lat="45.69937" lon="6.62542">
        <ele>1292.9</ele>
        <time>2022-06-15T09:16:26Z</time>
      </trkpt>
      <trkpt lat="45.69932" lon="6.62524">
        <ele>1292.3</ele>
        <time>2022-06-15T09:16:27Z</time>
      </trkpt>
      <trkpt lat="45.69929" lon="6.62505">
        <ele>1291.2</ele>
        <time>2022-06-15T09:16:28Z</time>
      </trkpt>
      <trkpt lat="45.69925" lon="6.62486">
        <ele>1287.9</ele>
        <time>2022-06-15T09:16:29Z</time>
      </trkpt>
      <trkpt lat="45.69922" lon="6.62467">
        <ele>1285.1</ele>
        <time>2022-06-15T09:16:30Z</time>
      </trkpt>
      <trkpt lat="45.69918" lon="6.62448">
        <ele>1285.7</ele>
        <time>2022-06-15T09:16:31Z</time>
      </trkpt>
      <trkpt lat="45.69915" lon="6.6243">
        <ele>1284.8</ele>
        <time>2022-06-15T09:16:32Z</time>
      </trkpt>
      <trkpt lat="45.69914" lon="6.62412">
        <ele>1282.9</ele>
        <time>2022-06-15T09:16:33Z</time>
      </trkpt>
      <trkpt lat="45.69912" lon="6.62395">
        <ele>1282.6</ele>
        <time>2022-06-15T09:16:34Z</time>
      </trkpt>
      <trkpt lat="45.69908" lon="6.62377">
        <ele>1283</ele>
        <time>2022-06-15T09:16:35Z</time>
      </trkpt>
      <trkpt lat="45.69905" lon="6.6236">
        <ele>1281.7</ele>
        <time>2022-06-15T09:16:36Z</time>
      </trkpt>
      <trkpt lat="45.699" lon="6.62343">
        <ele>1279.3</ele>
        <time>2022-06-15T09:16:37Z</time>
      </trkpt>
      <trkpt lat="45.69894" lon="6.62326">
        <ele>1278</ele>
        <time>2022-06-15T09:16:38Z</time>
      </trkpt>
      <trkpt lat="45.69888" lon="6.62309">
        <ele>1278.9</ele>
        <time>2022-06-15T09:16:39Z</time>
      </trkpt>
      <trkpt lat="45.69882" lon="6.62294">
        <ele>1279.4</ele>
        <time>2022-06-15T09:16:40Z</time>
      </trkpt>
      <trkpt lat="45.69877" lon="6.62279">
        <ele>1278.7</ele>
        <time>2022-06-15T09:16:41Z</time>
      </trkpt>
      <trkpt lat="45.69871" lon="6.62265">
        <ele>1276.9</ele>
        <time>2022-06-15T09:16:42Z</time>
      </trkpt>
      <trkpt lat="45.69866" lon="6.62251">
        <ele>1273.9</ele>
        <time>2022-06-15T09:16:43Z</time>
      </trkpt>
      <trkpt lat="45.69861" lon="6.62237">
        <ele>1274.2</ele>
        <time>2022-06-15T09:16:44Z</time>
      </trkpt>
      <trkpt lat="45.69856" lon="6.62223">
        <ele>1275.1</ele>
        <time>2022-06-15T09:16:45Z</time>
      </trkpt>
      <trkpt lat="45.69852" lon="6.62207">
        <ele>1273.8</ele>
        <time>2022-06-15T09:16:46Z</time>
      </trkpt>
      <trkpt lat="45.69849" lon="6.62191">
        <ele>1271</ele>
        <time>2022-06-15T09:16:47Z</time>
      </trkpt>
      <trkpt lat="45.69847" lon="6.62176">
        <ele>1269.7</ele>
        <time>2022-06-15T09:16:48Z</time>
      </trkpt>
      <trkpt lat="45.69847" lon="6.6216">
        <ele>1268.4</ele>
        <time>2022-06-15T09:16:49Z</time>
      </trkpt>
      <trkpt lat="45.69848" lon="6.62146">
        <ele>1267.5</ele>
        <time>2022-06-15T09:16:50Z</time>
      </trkpt>
      <trkpt lat="45.69849" lon="6.62133">
        <ele>1267.2</ele>
        <time>2022-06-15T09:16:51Z</time>
      </trkpt>
      <trkpt lat="45.6985" lon="6.62122">
        <ele>1267.9</ele>
        <time>2022-06-15T09:16:52Z</time>
      </trkpt>
      <trkpt lat="45.69848" lon="6.62112">
        <ele>1269.2</ele>
        <time>2022-06-15T09:16:53Z</time>
      </trkpt>
      <trkpt lat="45.69844" lon="6.62102">
        <ele>1269.5</ele>
        <time>2022-06-15T09:16:54Z</time>
      </trkpt>
      <trkpt lat="45.69838" lon="6.62094">
        <ele>1269.1</ele>
        <time>2022-06-15T09:16:55Z</time>
      </trkpt>
      <trkpt lat="45.69831" lon="6.62087">
        <ele>1268.8</ele>
        <time>2022-06-15T09:16:56Z</time>
      </trkpt>
      <trkpt lat="45.69823" lon="6.6208">
        <ele>1268.5</ele>
        <time>2022-06-15T09:16:57Z</time>
      </trkpt>
      <trkpt lat="45.69816" lon="6.62071">
        <ele>1267</ele>
        <time>2022-06-15T09:16:58Z</time>
      </trkpt>
      <trkpt lat="45.69809" lon="6.62063">
        <ele>1265.5</ele>
        <time>2022-06-15T09:16:59Z</time>
      </trkpt>
      <trkpt lat="45.69803" lon="6.62052">
        <ele>1264.2</ele>
        <time>2022-06-15T09:17:00Z</time>
      </trkpt>
      <trkpt lat="45.69797" lon="6.62041">
        <ele>1263.7</ele>
        <time>2022-06-15T09:17:01Z</time>
      </trkpt>
      <trkpt lat="45.69792" lon="6.62029">
        <ele>1262.5</ele>
        <time>2022-06-15T09:17:02Z</time>
      </trkpt>
      <trkpt lat="45.69786" lon="6.62016">
        <ele>1260.9</ele>
        <time>2022-06-15T09:17:03Z</time>
      </trkpt>
      <trkpt lat="45.69781" lon="6.62001">
        <ele>1259.5</ele>
        <time>2022-06-15T09:17:04Z</time>
      </trkpt>
      <trkpt lat="45.69775" lon="6.61987">
        <ele>1259.3</ele>
        <time>2022-06-15T09:17:05Z</time>
      </trkpt>
      <trkpt lat="45.69769" lon="6.61972">
        <ele>1259.3</ele>
        <time>2022-06-15T09:17:06Z</time>
      </trkpt>
      <trkpt lat="45.69762" lon="6.61957">
        <ele>1257.4</ele>
        <time>2022-06-15T09:17:07Z</time>
      </trkpt>
      <trkpt lat="45.69754" lon="6.61943">
        <ele>1255.5</ele>
        <time>2022-06-15T09:17:08Z</time>
      </trkpt>
      <trkpt lat="45.69745" lon="6.61929">
        <ele>1255.2</ele>
        <time>2022-06-15T09:17:09Z</time>
      </trkpt>
      <trkpt lat="45.69738" lon="6.61914">
        <ele>1253.8</ele>
        <time>2022-06-15T09:17:10Z</time>
      </trkpt>
      <trkpt lat="45.69731" lon="6.61898">
        <ele>1250.5</ele>
        <time>2022-06-15T09:17:11Z</time>
      </trkpt>
      <trkpt lat="45.69727" lon="6.61881">
        <ele>1248.3</ele>
        <time>2022-06-15T09:17:12Z</time>
      </trkpt>
      <trkpt lat="45.69722" lon="6.61863">
        <ele>1249.1</ele>
        <time>2022-06-15T09:17:13Z</time>
      </trkpt>
      <trkpt lat="45.69718" lon="6.61845">
        <ele>1249</ele>
        <time>2022-06-15T09:17:14Z</time>
      </trkpt>
      <trkpt lat="45.69715" lon="6.61827">
        <ele>1248</ele>
        <time>2022-06-15T09:17:15Z</time>
      </trkpt>
      <trkpt lat="45.69711" lon="6.61808">
        <ele>1245.8</ele>
        <time>2022-06-15T09:17:16Z</time>
      </trkpt>
      <trkpt lat="45.69707" lon="6.6179">
        <ele>1243.7</ele>
        <time>2022-06-15T09:17:17Z</time>
      </trkpt>
      <trkpt lat="45.69704" lon="6.61775">
        <ele>1241.8</ele>
        <time>2022-06-15T09:17:18Z</time>
      </trkpt>
      <trkpt lat="45.69701" lon="6.6176">
        <ele>1241.6</ele>
        <time>2022-06-15T09:17:19Z</time>
      </trkpt>
      <trkpt lat="45.69698" lon="6.61745">
        <ele>1241.2</ele>
        <time>2022-06-15T09:17:20Z</time>
      </trkpt>
      <trkpt lat="45.69695" lon="6.61732">
        <ele>1240.4</ele>
        <time>2022-06-15T09:17:21Z</time>
      </trkpt>
      <trkpt lat="45.69692" lon="6.61721">
        <ele>1240.3</ele>
        <time>2022-06-15T09:17:22Z</time>
      </trkpt>
      <trkpt lat="45.6969" lon="6.61711">
        <ele>1240.9</ele>
        <time>2022-06-15T09:17:23Z</time>
      </trkpt>
      <trkpt lat="45.69688" lon="6.61702">
        <ele>1241</ele>
        <time>2022-06-15T09:17:24Z</time>
      </trkpt>
      <trkpt lat="45.69687" lon="6.61693">
        <ele>1240.7</ele>
        <time>2022-06-15T09:17:25Z</time>
      </trkpt>
      <trkpt lat="45.69688" lon="6.61685">
        <ele>1240.1</ele>
        <time>2022-06-15T09:17:26Z</time>
      </trkpt>
      <trkpt lat="45.69691" lon="6.61679">
        <ele>1238.2</ele>
        <time>2022-06-15T09:17:27Z</time>
      </trkpt>
      <trkpt lat="45.69695" lon="6.61675">
        <ele>1236.1</ele>
        <time>2022-06-15T09:17:28Z</time>
      </trkpt>
      <trkpt lat="45.697" lon="6.61678">
        <ele>1234.5</ele>
        <time>2022-06-15T09:17:29Z</time>
      </trkpt>
      <trkpt lat="45.69704" lon="6.61684">
        <ele>1233.3</ele>
        <time>2022-06-15T09:17:30Z</time>
      </trkpt>
      <trkpt lat="45.69707" lon="6.61692">
        <ele>1232.5</ele>
        <time>2022-06-15T09:17:31Z</time>
      </trkpt>
      <trkpt lat="45.6971" lon="6.61701">
        <ele>1232.1</ele>
        <time>2022-06-15T09:17:32Z</time>
      </trkpt>
      <trkpt lat="45.69714" lon="6.6171">
        <ele>1232.4</ele>
        <time>2022-06-15T09:17:33Z</time>
      </trkpt>
      <trkpt lat="45.69717" lon="6.61721">
        <ele>1233.1</ele>
        <time>2022-06-15T09:17:34Z</time>
      </trkpt>
      <trkpt lat="45.6972" lon="6.61731">
        <ele>1232.9</ele>
        <time>2022-06-15T09:17:35Z</time>
      </trkpt>
      <trkpt lat="45.69723" lon="6.61742">
        <ele>1232.3</ele>
        <time>2022-06-15T09:17:36Z</time>
      </trkpt>
      <trkpt lat="45.69727" lon="6.61752">
        <ele>1231.7</ele>
        <time>2022-06-15T09:17:37Z</time>
      </trkpt>
      <trkpt lat="45.69731" lon="6.61763">
        <ele>1231.4</ele>
        <time>2022-06-15T09:17:38Z</time>
      </trkpt>
      <trkpt lat="45.69735" lon="6.61775">
        <ele>1231.1</ele>
        <time>2022-06-15T09:17:39Z</time>
      </trkpt>
      <trkpt lat="45.69741" lon="6.61794">
        <ele>1230.8</ele>
        <time>2022-06-15T09:17:40Z</time>
      </trkpt>
      <trkpt lat="45.69743" lon="6.618">
        <ele>1230.6</ele>
        <time>2022-06-15T09:17:41Z</time>
      </trkpt>
      <trkpt lat="45.69747" lon="6.61813">
        <ele>1229.9</ele>
        <time>2022-06-15T09:17:42Z</time>
      </trkpt>
      <trkpt lat="45.6975" lon="6.61827">
        <ele>1229</ele>
        <time>2022-06-15T09:17:43Z</time>
      </trkpt>
      <trkpt lat="45.69754" lon="6.61841">
        <ele>1228.1</ele>
        <time>2022-06-15T09:17:44Z</time>
      </trkpt>
      <trkpt lat="45.69759" lon="6.61856">
        <ele>1227.2</ele>
        <time>2022-06-15T09:17:45Z</time>
      </trkpt>
      <trkpt lat="45.69765" lon="6.6187">
        <ele>1226.2</ele>
        <time>2022-06-15T09:17:46Z</time>
      </trkpt>
      <trkpt lat="45.69772" lon="6.61883">
        <ele>1224.5</ele>
        <time>2022-06-15T09:17:47Z</time>
      </trkpt>
      <trkpt lat="45.6978" lon="6.61896">
        <ele>1223.3</ele>
        <time>2022-06-15T09:17:48Z</time>
      </trkpt>
      <trkpt lat="45.69788" lon="6.6191">
        <ele>1222.9</ele>
        <time>2022-06-15T09:17:49Z</time>
      </trkpt>
      <trkpt lat="45.69796" lon="6.61922">
        <ele>1222.1</ele>
        <time>2022-06-15T09:17:50Z</time>
      </trkpt>
      <trkpt lat="45.69804" lon="6.61935">
        <ele>1221.2</ele>
        <time>2022-06-15T09:17:51Z</time>
      </trkpt>
      <trkpt lat="45.69811" lon="6.61947">
        <ele>1221.2</ele>
        <time>2022-06-15T09:17:52Z</time>
      </trkpt>
      <trkpt lat="45.69818" lon="6.61959">
        <ele>1221.1</ele>
        <time>2022-06-15T09:17:53Z</time>
      </trkpt>
      <trkpt lat="45.69823" lon="6.61969">
        <ele>1220.8</ele>
        <time>2022-06-15T09:17:54Z</time>
      </trkpt>
      <trkpt lat="45.69828" lon="6.61979">
        <ele>1220.9</ele>
        <time>2022-06-15T09:17:55Z</time>
      </trkpt>
      <trkpt lat="45.69833" lon="6.6199">
        <ele>1221.4</ele>
        <time>2022-06-15T09:17:56Z</time>
      </trkpt>
      <trkpt lat="45.69837" lon="6.61998">
        <ele>1222.5</ele>
        <time>2022-06-15T09:17:57Z</time>
      </trkpt>
      <trkpt lat="45.69841" lon="6.62006">
        <ele>1223.4</ele>
        <time>2022-06-15T09:17:58Z</time>
      </trkpt>
      <trkpt lat="45.69845" lon="6.6201">
        <ele>1223</ele>
        <time>2022-06-15T09:17:59Z</time>
      </trkpt>
      <trkpt lat="45.6985" lon="6.62013">
        <ele>1221</ele>
        <time>2022-06-15T09:18:00Z</time>
      </trkpt>
      <trkpt lat="45.69855" lon="6.62013">
        <ele>1217.9</ele>
        <time>2022-06-15T09:18:01Z</time>
      </trkpt>
      <trkpt lat="45.69859" lon="6.6201">
        <ele>1214.9</ele>
        <time>2022-06-15T09:18:02Z</time>
      </trkpt>
      <trkpt lat="45.69861" lon="6.62005">
        <ele>1212.7</ele>
        <time>2022-06-15T09:18:03Z</time>
      </trkpt>
      <trkpt lat="45.69862" lon="6.61998">
        <ele>1210.3</ele>
        <time>2022-06-15T09:18:04Z</time>
      </trkpt>
      <trkpt lat="45.69861" lon="6.61991">
        <ele>1208.3</ele>
        <time>2022-06-15T09:18:05Z</time>
      </trkpt>
      <trkpt lat="45.69858" lon="6.61984">
        <ele>1206.9</ele>
        <time>2022-06-15T09:18:06Z</time>
      </trkpt>
      <trkpt lat="45.69854" lon="6.61977">
        <ele>1206.1</ele>
        <time>2022-06-15T09:18:07Z</time>
      </trkpt>
      <trkpt lat="45.69846" lon="6.61965">
        <ele>1206.6</ele>
        <time>2022-06-15T09:18:08Z</time>
      </trkpt>
      <trkpt lat="45.69843" lon="6.61961">
        <ele>1207.1</ele>
        <time>2022-06-15T09:18:09Z</time>
      </trkpt>
      <trkpt lat="45.69838" lon="6.61953">
        <ele>1208.2</ele>
        <time>2022-06-15T09:18:10Z</time>
      </trkpt>
      <trkpt lat="45.69833" lon="6.61944">
        <ele>1209.2</ele>
        <time>2022-06-15T09:18:11Z</time>
      </trkpt>
      <trkpt lat="45.69828" lon="6.61933">
        <ele>1208.3</ele>
        <time>2022-06-15T09:18:12Z</time>
      </trkpt>
      <trkpt lat="45.69823" lon="6.61922">
        <ele>1207.2</ele>
        <time>2022-06-15T09:18:13Z</time>
      </trkpt>
      <trkpt lat="45.69819" lon="6.6191">
        <ele>1205.8</ele>
        <time>2022-06-15T09:18:14Z</time>
      </trkpt>
      <trkpt lat="45.69815" lon="6.61898">
        <ele>1204.7</ele>
        <time>2022-06-15T09:18:15Z</time>
      </trkpt>
      <trkpt lat="45.69811" lon="6.61885">
        <ele>1203.4</ele>
        <time>2022-06-15T09:18:16Z</time>
      </trkpt>
      <trkpt lat="45.69809" lon="6.6187">
        <ele>1202.3</ele>
        <time>2022-06-15T09:18:17Z</time>
      </trkpt>
      <trkpt lat="45.69808" lon="6.61855">
        <ele>1200.8</ele>
        <time>2022-06-15T09:18:18Z</time>
      </trkpt>
      <trkpt lat="45.69808" lon="6.6184">
        <ele>1199.3</ele>
        <time>2022-06-15T09:18:19Z</time>
      </trkpt>
      <trkpt lat="45.69808" lon="6.61825">
        <ele>1198</ele>
        <time>2022-06-15T09:18:20Z</time>
      </trkpt>
      <trkpt lat="45.69808" lon="6.61811">
        <ele>1197.2</ele>
        <time>2022-06-15T09:18:21Z</time>
      </trkpt>
      <trkpt lat="45.69807" lon="6.61796">
        <ele>1196.4</ele>
        <time>2022-06-15T09:18:22Z</time>
      </trkpt>
      <trkpt lat="45.69806" lon="6.6178">
        <ele>1195.2</ele>
        <time>2022-06-15T09:18:23Z</time>
      </trkpt>
      <trkpt lat="45.69804" lon="6.61763">
        <ele>1194</ele>
        <time>2022-06-15T09:18:24Z</time>
      </trkpt>
      <trkpt lat="45.69803" lon="6.61747">
        <ele>1192.8</ele>
        <time>2022-06-15T09:18:25Z</time>
      </trkpt>
      <trkpt lat="45.69804" lon="6.61731">
        <ele>1190.5</ele>
        <time>2022-06-15T09:18:26Z</time>
      </trkpt>
      <trkpt lat="45.69809" lon="6.6171">
        <ele>1187.1</ele>
        <time>2022-06-15T09:18:27Z</time>
      </trkpt>
      <trkpt lat="45.69813" lon="6.61694">
        <ele>1185.8</ele>
        <time>2022-06-15T09:18:28Z</time>
      </trkpt>
      <trkpt lat="45.69815" lon="6.61677">
        <ele>1185.1</ele>
        <time>2022-06-15T09:18:29Z</time>
      </trkpt>
      <trkpt lat="45.69817" lon="6.61661">
        <ele>1184.5</ele>
        <time>2022-06-15T09:18:30Z</time>
      </trkpt>
      <trkpt lat="45.69817" lon="6.61646">
        <ele>1183.8</ele>
        <time>2022-06-15T09:18:31Z</time>
      </trkpt>
      <trkpt lat="45.69818" lon="6.61631">
        <ele>1182.3</ele>
        <time>2022-06-15T09:18:32Z</time>
      </trkpt>
      <trkpt lat="45.69816" lon="6.61617">
        <ele>1183</ele>
        <time>2022-06-15T09:18:33Z</time>
      </trkpt>
      <trkpt lat="45.69812" lon="6.61603">
        <ele>1183.3</ele>
        <time>2022-06-15T09:18:34Z</time>
      </trkpt>
      <trkpt lat="45.69805" lon="6.61591">
        <ele>1183.8</ele>
        <time>2022-06-15T09:18:35Z</time>
      </trkpt>
      <trkpt lat="45.69796" lon="6.6158">
        <ele>1185.1</ele>
        <time>2022-06-15T09:18:36Z</time>
      </trkpt>
      <trkpt lat="45.69789" lon="6.61568">
        <ele>1184.4</ele>
        <time>2022-06-15T09:18:37Z</time>
      </trkpt>
      <trkpt lat="45.69783" lon="6.61556">
        <ele>1182.5</ele>
        <time>2022-06-15T09:18:38Z</time>
      </trkpt>
      <trkpt lat="45.69778" lon="6.61542">
        <ele>1181.7</ele>
        <time>2022-06-15T09:18:39Z</time>
      </trkpt>
      <trkpt lat="45.69771" lon="6.61529">
        <ele>1181</ele>
        <time>2022-06-15T09:18:40Z</time>
      </trkpt>
      <trkpt lat="45.69762" lon="6.61517">
        <ele>1180</ele>
        <time>2022-06-15T09:18:41Z</time>
      </trkpt>
      <trkpt lat="45.69752" lon="6.61508">
        <ele>1179.1</ele>
        <time>2022-06-15T09:18:42Z</time>
      </trkpt>
      <trkpt lat="45.69742" lon="6.61499">
        <ele>1179</ele>
        <time>2022-06-15T09:18:43Z</time>
      </trkpt>
      <trkpt lat="45.69733" lon="6.6149">
        <ele>1178.9</ele>
        <time>2022-06-15T09:18:44Z</time>
      </trkpt>
      <trkpt lat="45.69724" lon="6.61482">
        <ele>1178.1</ele>
        <time>2022-06-15T09:18:45Z</time>
      </trkpt>
      <trkpt lat="45.69718" lon="6.61472">
        <ele>1176.2</ele>
        <time>2022-06-15T09:18:46Z</time>
      </trkpt>
      <trkpt lat="45.69709" lon="6.61466">
        <ele>1176.8</ele>
        <time>2022-06-15T09:18:47Z</time>
      </trkpt>
      <trkpt lat="45.69701" lon="6.61459">
        <ele>1176.5</ele>
        <time>2022-06-15T09:18:48Z</time>
      </trkpt>
      <trkpt lat="45.69699" lon="6.61451">
        <ele>1174.5</ele>
        <time>2022-06-15T09:18:49Z</time>
      </trkpt>
      <trkpt lat="45.69699" lon="6.61443">
        <ele>1172.4</ele>
        <time>2022-06-15T09:18:50Z</time>
      </trkpt>
      <trkpt lat="45.69703" lon="6.61436">
        <ele>1171.5</ele>
        <time>2022-06-15T09:18:51Z</time>
      </trkpt>
      <trkpt lat="45.69708" lon="6.61433">
        <ele>1170.5</ele>
        <time>2022-06-15T09:18:52Z</time>
      </trkpt>
      <trkpt lat="45.69715" lon="6.61434">
        <ele>1169.7</ele>
        <time>2022-06-15T09:18:53Z</time>
      </trkpt>
      <trkpt lat="45.6972" lon="6.6144">
        <ele>1169.6</ele>
        <time>2022-06-15T09:18:54Z</time>
      </trkpt>
      <trkpt lat="45.69726" lon="6.61446">
        <ele>1169.7</ele>
        <time>2022-06-15T09:18:55Z</time>
      </trkpt>
      <trkpt lat="45.69732" lon="6.61452">
        <ele>1169.6</ele>
        <time>2022-06-15T09:18:56Z</time>
      </trkpt>
      <trkpt lat="45.69739" lon="6.61457">
        <ele>1169.2</ele>
        <time>2022-06-15T09:18:57Z</time>
      </trkpt>
      <trkpt lat="45.69747" lon="6.6146">
        <ele>1168.4</ele>
        <time>2022-06-15T09:18:58Z</time>
      </trkpt>
      <trkpt lat="45.69756" lon="6.61463">
        <ele>1167.5</ele>
        <time>2022-06-15T09:18:59Z</time>
      </trkpt>
      <trkpt lat="45.69765" lon="6.61466">
        <ele>1166.7</ele>
        <time>2022-06-15T09:19:00Z</time>
      </trkpt>
      <trkpt lat="45.69775" lon="6.61468">
        <ele>1165.7</ele>
        <time>2022-06-15T09:19:01Z</time>
      </trkpt>
      <trkpt lat="45.69784" lon="6.61469">
        <ele>1164.6</ele>
        <time>2022-06-15T09:19:02Z</time>
      </trkpt>
      <trkpt lat="45.69795" lon="6.61471">
        <ele>1163.4</ele>
        <time>2022-06-15T09:19:03Z</time>
      </trkpt>
      <trkpt lat="45.69805" lon="6.61472">
        <ele>1162</ele>
        <time>2022-06-15T09:19:04Z</time>
      </trkpt>
      <trkpt lat="45.69816" lon="6.61475">
        <ele>1161.6</ele>
        <time>2022-06-15T09:19:05Z</time>
      </trkpt>
      <trkpt lat="45.69825" lon="6.61479">
        <ele>1161.1</ele>
        <time>2022-06-15T09:19:06Z</time>
      </trkpt>
      <trkpt lat="45.69834" lon="6.61486">
        <ele>1160.3</ele>
        <time>2022-06-15T09:19:07Z</time>
      </trkpt>
      <trkpt lat="45.69841" lon="6.61494">
        <ele>1156.4</ele>
        <time>2022-06-15T09:19:08Z</time>
      </trkpt>
      <trkpt lat="45.69846" lon="6.61504">
        <ele>1154.8</ele>
        <time>2022-06-15T09:19:09Z</time>
      </trkpt>
      <trkpt lat="45.6985" lon="6.61516">
        <ele>1155.6</ele>
        <time>2022-06-15T09:19:10Z</time>
      </trkpt>
      <trkpt lat="45.69853" lon="6.61527">
        <ele>1157.9</ele>
        <time>2022-06-15T09:19:11Z</time>
      </trkpt>
      <trkpt lat="45.69856" lon="6.61538">
        <ele>1158.2</ele>
        <time>2022-06-15T09:19:12Z</time>
      </trkpt>
      <trkpt lat="45.69858" lon="6.61551">
        <ele>1158.6</ele>
        <time>2022-06-15T09:19:13Z</time>
      </trkpt>
      <trkpt lat="45.6986" lon="6.61562">
        <ele>1159.2</ele>
        <time>2022-06-15T09:19:14Z</time>
      </trkpt>
      <trkpt lat="45.69861" lon="6.61574">
        <ele>1159.8</ele>
        <time>2022-06-15T09:19:15Z</time>
      </trkpt>
      <trkpt lat="45.69863" lon="6.61587">
        <ele>1159.5</ele>
        <time>2022-06-15T09:19:16Z</time>
      </trkpt>
      <trkpt lat="45.69866" lon="6.616">
        <ele>1158.4</ele>
        <time>2022-06-15T09:19:17Z</time>
      </trkpt>
      <trkpt lat="45.69869" lon="6.61613">
        <ele>1157.5</ele>
        <time>2022-06-15T09:19:18Z</time>
      </trkpt>
      <trkpt lat="45.69874" lon="6.61627">
        <ele>1156.6</ele>
        <time>2022-06-15T09:19:19Z</time>
      </trkpt>
      <trkpt lat="45.69878" lon="6.61642">
        <ele>1156.4</ele>
        <time>2022-06-15T09:19:20Z</time>
      </trkpt>
      <trkpt lat="45.69881" lon="6.61656">
        <ele>1155</ele>
        <time>2022-06-15T09:19:21Z</time>
      </trkpt>
      <trkpt lat="45.69884" lon="6.61672">
        <ele>1154.5</ele>
        <time>2022-06-15T09:19:22Z</time>
      </trkpt>
      <trkpt lat="45.69889" lon="6.61687">
        <ele>1153.9</ele>
        <time>2022-06-15T09:19:23Z</time>
      </trkpt>
      <trkpt lat="45.69893" lon="6.61704">
        <ele>1152.1</ele>
        <time>2022-06-15T09:19:24Z</time>
      </trkpt>
      <trkpt lat="45.69898" lon="6.6172">
        <ele>1150.5</ele>
        <time>2022-06-15T09:19:25Z</time>
      </trkpt>
      <trkpt lat="45.69902" lon="6.61736">
        <ele>1149.3</ele>
        <time>2022-06-15T09:19:26Z</time>
      </trkpt>
      <trkpt lat="45.69907" lon="6.61752">
        <ele>1148.6</ele>
        <time>2022-06-15T09:19:27Z</time>
      </trkpt>
      <trkpt lat="45.69914" lon="6.61767">
        <ele>1147.3</ele>
        <time>2022-06-15T09:19:28Z</time>
      </trkpt>
      <trkpt lat="45.69921" lon="6.61781">
        <ele>1146.2</ele>
        <time>2022-06-15T09:19:29Z</time>
      </trkpt>
      <trkpt lat="45.69929" lon="6.61793">
        <ele>1144.8</ele>
        <time>2022-06-15T09:19:30Z</time>
      </trkpt>
      <trkpt lat="45.69937" lon="6.61805">
        <ele>1143.3</ele>
        <time>2022-06-15T09:19:31Z</time>
      </trkpt>
      <trkpt lat="45.69945" lon="6.61817">
        <ele>1141.9</ele>
        <time>2022-06-15T09:19:32Z</time>
      </trkpt>
      <trkpt lat="45.69953" lon="6.61827">
        <ele>1140.7</ele>
        <time>2022-06-15T09:19:33Z</time>
      </trkpt>
      <trkpt lat="45.69962" lon="6.61837">
        <ele>1139.7</ele>
        <time>2022-06-15T09:19:34Z</time>
      </trkpt>
      <trkpt lat="45.69972" lon="6.61846">
        <ele>1139</ele>
        <time>2022-06-15T09:19:35Z</time>
      </trkpt>
      <trkpt lat="45.69983" lon="6.61854">
        <ele>1138</ele>
        <time>2022-06-15T09:19:36Z</time>
      </trkpt>
      <trkpt lat="45.69995" lon="6.6186">
        <ele>1136.7</ele>
        <time>2022-06-15T09:19:37Z</time>
      </trkpt>
      <trkpt lat="45.70006" lon="6.61866">
        <ele>1135.5</ele>
        <time>2022-06-15T09:19:38Z</time>
      </trkpt>
      <trkpt lat="45.70017" lon="6.61873">
        <ele>1134.4</ele>
        <time>2022-06-15T09:19:39Z</time>
      </trkpt>
      <trkpt lat="45.70027" lon="6.61879">
        <ele>1133.4</ele>
        <time>2022-06-15T09:19:40Z</time>
      </trkpt>
      <trkpt lat="45.70037" lon="6.61885">
        <ele>1132.2</ele>
        <time>2022-06-15T09:19:41Z</time>
      </trkpt>
      <trkpt lat="45.70046" lon="6.6189">
        <ele>1130.7</ele>
        <time>2022-06-15T09:19:42Z</time>
      </trkpt>
      <trkpt lat="45.70054" lon="6.61894">
        <ele>1129.5</ele>
        <time>2022-06-15T09:19:43Z</time>
      </trkpt>
      <trkpt lat="45.70059" lon="6.61899">
        <ele>1128.9</ele>
        <time>2022-06-15T09:19:44Z</time>
      </trkpt>
      <trkpt lat="45.70064" lon="6.61905">
        <ele>1128.6</ele>
        <time>2022-06-15T09:19:45Z</time>
      </trkpt>
      <trkpt lat="45.70068" lon="6.61914">
        <ele>1128.2</ele>
        <time>2022-06-15T09:19:46Z</time>
      </trkpt>
      <trkpt lat="45.70072" lon="6.61925">
        <ele>1127.3</ele>
        <time>2022-06-15T09:19:47Z</time>
      </trkpt>
      <trkpt lat="45.70076" lon="6.61937">
        <ele>1126.3</ele>
        <time>2022-06-15T09:19:48Z</time>
      </trkpt>
      <trkpt lat="45.7008" lon="6.6195">
        <ele>1125.1</ele>
        <time>2022-06-15T09:19:49Z</time>
      </trkpt>
      <trkpt lat="45.70081" lon="6.61964">
        <ele>1123.8</ele>
        <time>2022-06-15T09:19:50Z</time>
      </trkpt>
      <trkpt lat="45.7008" lon="6.61978">
        <ele>1122.7</ele>
        <time>2022-06-15T09:19:51Z</time>
      </trkpt>
      <trkpt lat="45.70079" lon="6.61991">
        <ele>1121.9</ele>
        <time>2022-06-15T09:19:52Z</time>
      </trkpt>
      <trkpt lat="45.7008" lon="6.62004">
        <ele>1121.4</ele>
        <time>2022-06-15T09:19:53Z</time>
      </trkpt>
      <trkpt lat="45.70082" lon="6.62017">
        <ele>1121.7</ele>
        <time>2022-06-15T09:19:54Z</time>
      </trkpt>
      <trkpt lat="45.70086" lon="6.62031">
        <ele>1121.1</ele>
        <time>2022-06-15T09:19:55Z</time>
      </trkpt>
      <trkpt lat="45.70092" lon="6.62044">
        <ele>1119.5</ele>
        <time>2022-06-15T09:19:56Z</time>
      </trkpt>
      <trkpt lat="45.70097" lon="6.62059">
        <ele>1118.3</ele>
        <time>2022-06-15T09:19:57Z</time>
      </trkpt>
      <trkpt lat="45.70101" lon="6.62075">
        <ele>1116.3</ele>
        <time>2022-06-15T09:19:58Z</time>
      </trkpt>
      <trkpt lat="45.70104" lon="6.62091">
        <ele>1115.1</ele>
        <time>2022-06-15T09:19:59Z</time>
      </trkpt>
      <trkpt lat="45.70107" lon="6.62106">
        <ele>1114.3</ele>
        <time>2022-06-15T09:20:00Z</time>
      </trkpt>
      <trkpt lat="45.7011" lon="6.62122">
        <ele>1113.3</ele>
        <time>2022-06-15T09:20:01Z</time>
      </trkpt>
      <trkpt lat="45.70115" lon="6.62137">
        <ele>1111.6</ele>
        <time>2022-06-15T09:20:02Z</time>
      </trkpt>
      <trkpt lat="45.70121" lon="6.62153">
        <ele>1111.2</ele>
        <time>2022-06-15T09:20:03Z</time>
      </trkpt>
      <trkpt lat="45.70128" lon="6.62169">
        <ele>1110.6</ele>
        <time>2022-06-15T09:20:04Z</time>
      </trkpt>
      <trkpt lat="45.70135" lon="6.62184">
        <ele>1108.7</ele>
        <time>2022-06-15T09:20:05Z</time>
      </trkpt>
      <trkpt lat="45.70143" lon="6.62199">
        <ele>1107.1</ele>
        <time>2022-06-15T09:20:06Z</time>
      </trkpt>
      <trkpt lat="45.70152" lon="6.62213">
        <ele>1106</ele>
        <time>2022-06-15T09:20:07Z</time>
      </trkpt>
      <trkpt lat="45.7016" lon="6.62229">
        <ele>1104.3</ele>
        <time>2022-06-15T09:20:08Z</time>
      </trkpt>
      <trkpt lat="45.70168" lon="6.62244">
        <ele>1102</ele>
        <time>2022-06-15T09:20:09Z</time>
      </trkpt>
      <trkpt lat="45.70177" lon="6.6226">
        <ele>1101.1</ele>
        <time>2022-06-15T09:20:10Z</time>
      </trkpt>
      <trkpt lat="45.70186" lon="6.62276">
        <ele>1100.1</ele>
        <time>2022-06-15T09:20:11Z</time>
      </trkpt>
      <trkpt lat="45.70194" lon="6.62291">
        <ele>1098.5</ele>
        <time>2022-06-15T09:20:12Z</time>
      </trkpt>
      <trkpt lat="45.70202" lon="6.62306">
        <ele>1096.9</ele>
        <time>2022-06-15T09:20:13Z</time>
      </trkpt>
      <trkpt lat="45.70211" lon="6.62319">
        <ele>1095.5</ele>
        <time>2022-06-15T09:20:14Z</time>
      </trkpt>
      <trkpt lat="45.70224" lon="6.62331">
        <ele>1092.1</ele>
        <time>2022-06-15T09:20:15Z</time>
      </trkpt>
      <trkpt lat="45.70236" lon="6.62341">
        <ele>1090.7</ele>
        <time>2022-06-15T09:20:16Z</time>
      </trkpt>
      <trkpt lat="45.70248" lon="6.62351">
        <ele>1089.3</ele>
        <time>2022-06-15T09:20:17Z</time>
      </trkpt>
      <trkpt lat="45.70261" lon="6.6236">
        <ele>1088.3</ele>
        <time>2022-06-15T09:20:18Z</time>
      </trkpt>
      <trkpt lat="45.70275" lon="6.62368">
        <ele>1087.4</ele>
        <time>2022-06-15T09:20:19Z</time>
      </trkpt>
      <trkpt lat="45.70288" lon="6.62376">
        <ele>1085.2</ele>
        <time>2022-06-15T09:20:20Z</time>
      </trkpt>
      <trkpt lat="45.70301" lon="6.62383">
        <ele>1083.2</ele>
        <time>2022-06-15T09:20:21Z</time>
      </trkpt>
      <trkpt lat="45.70314" lon="6.62392">
        <ele>1082.2</ele>
        <time>2022-06-15T09:20:22Z</time>
      </trkpt>
      <trkpt lat="45.70328" lon="6.62402">
        <ele>1080.8</ele>
        <time>2022-06-15T09:20:23Z</time>
      </trkpt>
      <trkpt lat="45.70341" lon="6.6241">
        <ele>1079.6</ele>
        <time>2022-06-15T09:20:24Z</time>
      </trkpt>
      <trkpt lat="45.70355" lon="6.62418">
        <ele>1078.2</ele>
        <time>2022-06-15T09:20:25Z</time>
      </trkpt>
      <trkpt lat="45.70369" lon="6.62426">
        <ele>1076.6</ele>
        <time>2022-06-15T09:20:26Z</time>
      </trkpt>
      <trkpt lat="45.70382" lon="6.62433">
        <ele>1075.1</ele>
        <time>2022-06-15T09:20:27Z</time>
      </trkpt>
      <trkpt lat="45.70395" lon="6.62439">
        <ele>1074.1</ele>
        <time>2022-06-15T09:20:28Z</time>
      </trkpt>
      <trkpt lat="45.70409" lon="6.62443">
        <ele>1073</ele>
        <time>2022-06-15T09:20:29Z</time>
      </trkpt>
      <trkpt lat="45.70423" lon="6.62446">
        <ele>1071.6</ele>
        <time>2022-06-15T09:20:30Z</time>
      </trkpt>
      <trkpt lat="45.70437" lon="6.62446">
        <ele>1069.1</ele>
        <time>2022-06-15T09:20:31Z</time>
      </trkpt>
      <trkpt lat="45.7045" lon="6.62448">
        <ele>1067.6</ele>
        <time>2022-06-15T09:20:32Z</time>
      </trkpt>
      <trkpt lat="45.70463" lon="6.62451">
        <ele>1066.6</ele>
        <time>2022-06-15T09:20:33Z</time>
      </trkpt>
      <trkpt lat="45.70475" lon="6.62453">
        <ele>1065.5</ele>
        <time>2022-06-15T09:20:34Z</time>
      </trkpt>
      <trkpt lat="45.70487" lon="6.62455">
        <ele>1064.7</ele>
        <time>2022-06-15T09:20:35Z</time>
      </trkpt>
      <trkpt lat="45.70497" lon="6.62457">
        <ele>1063.9</ele>
        <time>2022-06-15T09:20:36Z</time>
      </trkpt>
      <trkpt lat="45.70507" lon="6.62461">
        <ele>1064.6</ele>
        <time>2022-06-15T09:20:37Z</time>
      </trkpt>
      <trkpt lat="45.70516" lon="6.62462">
        <ele>1064.9</ele>
        <time>2022-06-15T09:20:38Z</time>
      </trkpt>
      <trkpt lat="45.70523" lon="6.62461">
        <ele>1064.5</ele>
        <time>2022-06-15T09:20:39Z</time>
      </trkpt>
      <trkpt lat="45.70527" lon="6.62456">
        <ele>1063.5</ele>
        <time>2022-06-15T09:20:40Z</time>
      </trkpt>
      <trkpt lat="45.70529" lon="6.62449">
        <ele>1062</ele>
        <time>2022-06-15T09:20:41Z</time>
      </trkpt>
      <trkpt lat="45.70528" lon="6.62441">
        <ele>1060</ele>
        <time>2022-06-15T09:20:42Z</time>
      </trkpt>
      <trkpt lat="45.70524" lon="6.62436">
        <ele>1058</ele>
        <time>2022-06-15T09:20:43Z</time>
      </trkpt>
      <trkpt lat="45.70518" lon="6.62433">
        <ele>1057.1</ele>
        <time>2022-06-15T09:20:44Z</time>
      </trkpt>
      <trkpt lat="45.70511" lon="6.62433">
        <ele>1057</ele>
        <time>2022-06-15T09:20:45Z</time>
      </trkpt>
      <trkpt lat="45.70504" lon="6.62434">
        <ele>1056.9</ele>
        <time>2022-06-15T09:20:46Z</time>
      </trkpt>
      <trkpt lat="45.70496" lon="6.62433">
        <ele>1057.1</ele>
        <time>2022-06-15T09:20:47Z</time>
      </trkpt>
      <trkpt lat="45.70488" lon="6.62432">
        <ele>1057.3</ele>
        <time>2022-06-15T09:20:48Z</time>
      </trkpt>
      <trkpt lat="45.70481" lon="6.62429">
        <ele>1057</ele>
        <time>2022-06-15T09:20:49Z</time>
      </trkpt>
      <trkpt lat="45.70473" lon="6.62426">
        <ele>1056.5</ele>
        <time>2022-06-15T09:20:50Z</time>
      </trkpt>
      <trkpt lat="45.70466" lon="6.62421">
        <ele>1055.7</ele>
        <time>2022-06-15T09:20:51Z</time>
      </trkpt>
      <trkpt lat="45.70458" lon="6.62416">
        <ele>1054.8</ele>
        <time>2022-06-15T09:20:52Z</time>
      </trkpt>
      <trkpt lat="45.70449" lon="6.6241">
        <ele>1053.7</ele>
        <time>2022-06-15T09:20:53Z</time>
      </trkpt>
      <trkpt lat="45.7044" lon="6.62404">
        <ele>1053.2</ele>
        <time>2022-06-15T09:20:54Z</time>
      </trkpt>
      <trkpt lat="45.7043" lon="6.62399">
        <ele>1053.2</ele>
        <time>2022-06-15T09:20:55Z</time>
      </trkpt>
      <trkpt lat="45.70421" lon="6.62393">
        <ele>1052.5</ele>
        <time>2022-06-15T09:20:56Z</time>
      </trkpt>
      <trkpt lat="45.70413" lon="6.62384">
        <ele>1051.3</ele>
        <time>2022-06-15T09:20:57Z</time>
      </trkpt>
      <trkpt lat="45.70405" lon="6.62373">
        <ele>1050.1</ele>
        <time>2022-06-15T09:20:58Z</time>
      </trkpt>
      <trkpt lat="45.70396" lon="6.62362">
        <ele>1048.6</ele>
        <time>2022-06-15T09:20:59Z</time>
      </trkpt>
      <trkpt lat="45.70389" lon="6.62348">
        <ele>1047.7</ele>
        <time>2022-06-15T09:21:00Z</time>
      </trkpt>
      <trkpt lat="45.70382" lon="6.62334">
        <ele>1046.7</ele>
        <time>2022-06-15T09:21:01Z</time>
      </trkpt>
      <trkpt lat="45.70376" lon="6.62318">
        <ele>1046.5</ele>
        <time>2022-06-15T09:21:02Z</time>
      </trkpt>
      <trkpt lat="45.70372" lon="6.62301">
        <ele>1045.5</ele>
        <time>2022-06-15T09:21:03Z</time>
      </trkpt>
      <trkpt lat="45.7037" lon="6.62282">
        <ele>1044.1</ele>
        <time>2022-06-15T09:21:04Z</time>
      </trkpt>
      <trkpt lat="45.70371" lon="6.62264">
        <ele>1042.6</ele>
        <time>2022-06-15T09:21:05Z</time>
      </trkpt>
      <trkpt lat="45.70373" lon="6.62245">
        <ele>1041.2</ele>
        <time>2022-06-15T09:21:06Z</time>
      </trkpt>
      <trkpt lat="45.70375" lon="6.62226">
        <ele>1039.8</ele>
        <time>2022-06-15T09:21:07Z</time>
      </trkpt>
      <trkpt lat="45.70377" lon="6.62209">
        <ele>1039.4</ele>
        <time>2022-06-15T09:21:08Z</time>
      </trkpt>
      <trkpt lat="45.70379" lon="6.62192">
        <ele>1038.9</ele>
        <time>2022-06-15T09:21:09Z</time>
      </trkpt>
      <trkpt lat="45.7038" lon="6.62177">
        <ele>1037.7</ele>
        <time>2022-06-15T09:21:10Z</time>
      </trkpt>
      <trkpt lat="45.70379" lon="6.62164">
        <ele>1036.9</ele>
        <time>2022-06-15T09:21:11Z</time>
      </trkpt>
      <trkpt lat="45.70375" lon="6.62152">
        <ele>1035.6</ele>
        <time>2022-06-15T09:21:12Z</time>
      </trkpt>
      <trkpt lat="45.7037" lon="6.62142">
        <ele>1034.4</ele>
        <time>2022-06-15T09:21:13Z</time>
      </trkpt>
      <trkpt lat="45.70364" lon="6.62132">
        <ele>1033.9</ele>
        <time>2022-06-15T09:21:14Z</time>
      </trkpt>
      <trkpt lat="45.70358" lon="6.62121">
        <ele>1033.6</ele>
        <time>2022-06-15T09:21:15Z</time>
      </trkpt>
      <trkpt lat="45.70354" lon="6.6211">
        <ele>1031.9</ele>
        <time>2022-06-15T09:21:16Z</time>
      </trkpt>
      <trkpt lat="45.70352" lon="6.62098">
        <ele>1031.2</ele>
        <time>2022-06-15T09:21:17Z</time>
      </trkpt>
      <trkpt lat="45.70354" lon="6.62088">
        <ele>1030.5</ele>
        <time>2022-06-15T09:21:18Z</time>
      </trkpt>
      <trkpt lat="45.70357" lon="6.62078">
        <ele>1031.5</ele>
        <time>2022-06-15T09:21:19Z</time>
      </trkpt>
      <trkpt lat="45.70362" lon="6.62071">
        <ele>1033.1</ele>
        <time>2022-06-15T09:21:20Z</time>
      </trkpt>
      <trkpt lat="45.70368" lon="6.62066">
        <ele>1033.2</ele>
        <time>2022-06-15T09:21:21Z</time>
      </trkpt>
      <trkpt lat="45.70375" lon="6.62061">
        <ele>1032.7</ele>
        <time>2022-06-15T09:21:22Z</time>
      </trkpt>
      <trkpt lat="45.70383" lon="6.62057">
        <ele>1031.5</ele>
        <time>2022-06-15T09:21:23Z</time>
      </trkpt>
      <trkpt lat="45.7039" lon="6.62053">
        <ele>1030.8</ele>
        <time>2022-06-15T09:21:24Z</time>
      </trkpt>
      <trkpt lat="45.70398" lon="6.62048">
        <ele>1031.2</ele>
        <time>2022-06-15T09:21:25Z</time>
      </trkpt>
      <trkpt lat="45.70406" lon="6.62044">
        <ele>1030.9</ele>
        <time>2022-06-15T09:21:26Z</time>
      </trkpt>
      <trkpt lat="45.70414" lon="6.6204">
        <ele>1029.9</ele>
        <time>2022-06-15T09:21:27Z</time>
      </trkpt>
      <trkpt lat="45.70422" lon="6.62036">
        <ele>1029.2</ele>
        <time>2022-06-15T09:21:28Z</time>
      </trkpt>
      <trkpt lat="45.70431" lon="6.62032">
        <ele>1028.7</ele>
        <time>2022-06-15T09:21:29Z</time>
      </trkpt>
      <trkpt lat="45.7044" lon="6.62028">
        <ele>1027.7</ele>
        <time>2022-06-15T09:21:30Z</time>
      </trkpt>
      <trkpt lat="45.70448" lon="6.62024">
        <ele>1028.2</ele>
        <time>2022-06-15T09:21:31Z</time>
      </trkpt>
      <trkpt lat="45.70457" lon="6.6202">
        <ele>1028.6</ele>
        <time>2022-06-15T09:21:32Z</time>
      </trkpt>
      <trkpt lat="45.70466" lon="6.62017">
        <ele>1028.2</ele>
        <time>2022-06-15T09:21:33Z</time>
      </trkpt>
      <trkpt lat="45.70475" lon="6.62013">
        <ele>1027.4</ele>
        <time>2022-06-15T09:21:34Z</time>
      </trkpt>
      <trkpt lat="45.70485" lon="6.62011">
        <ele>1027.2</ele>
        <time>2022-06-15T09:21:35Z</time>
      </trkpt>
      <trkpt lat="45.70494" lon="6.62009">
        <ele>1026.8</ele>
        <time>2022-06-15T09:21:36Z</time>
      </trkpt>
      <trkpt lat="45.70503" lon="6.62006">
        <ele>1026.3</ele>
        <time>2022-06-15T09:21:37Z</time>
      </trkpt>
      <trkpt lat="45.70512" lon="6.62003">
        <ele>1026</ele>
        <time>2022-06-15T09:21:38Z</time>
      </trkpt>
      <trkpt lat="45.70521" lon="6.61998">
        <ele>1026.7</ele>
        <time>2022-06-15T09:21:39Z</time>
      </trkpt>
      <trkpt lat="45.7053" lon="6.61991">
        <ele>1029</ele>
        <time>2022-06-15T09:21:40Z</time>
      </trkpt>
      <trkpt lat="45.70539" lon="6.61981">
        <ele>1029.7</ele>
        <time>2022-06-15T09:21:41Z</time>
      </trkpt>
      <trkpt lat="45.70547" lon="6.61974">
        <ele>1027.5</ele>
        <time>2022-06-15T09:21:42Z</time>
      </trkpt>
      <trkpt lat="45.70555" lon="6.61967">
        <ele>1025.4</ele>
        <time>2022-06-15T09:21:43Z</time>
      </trkpt>
      <trkpt lat="45.70562" lon="6.61959">
        <ele>1026.2</ele>
        <time>2022-06-15T09:21:44Z</time>
      </trkpt>
      <trkpt lat="45.7057" lon="6.61952">
        <ele>1026.1</ele>
        <time>2022-06-15T09:21:45Z</time>
      </trkpt>
      <trkpt lat="45.70577" lon="6.61947">
        <ele>1024.8</ele>
        <time>2022-06-15T09:21:46Z</time>
      </trkpt>
      <trkpt lat="45.70585" lon="6.61939">
        <ele>1025.3</ele>
        <time>2022-06-15T09:21:47Z</time>
      </trkpt>
      <trkpt lat="45.70594" lon="6.61924">
        <ele>1028.5</ele>
        <time>2022-06-15T09:21:48Z</time>
      </trkpt>
      <trkpt lat="45.70596" lon="6.61919">
        <ele>1028.9</ele>
        <time>2022-06-15T09:21:49Z</time>
      </trkpt>
      <trkpt lat="45.70601" lon="6.61909">
        <ele>1027.9</ele>
        <time>2022-06-15T09:21:50Z</time>
      </trkpt>
      <trkpt lat="45.70606" lon="6.61898">
        <ele>1026.1</ele>
        <time>2022-06-15T09:21:51Z</time>
      </trkpt>
      <trkpt lat="45.7061" lon="6.61886">
        <ele>1024.1</ele>
        <time>2022-06-15T09:21:52Z</time>
      </trkpt>
      <trkpt lat="45.70614" lon="6.61874">
        <ele>1023.2</ele>
        <time>2022-06-15T09:21:53Z</time>
      </trkpt>
      <trkpt lat="45.70619" lon="6.61855">
        <ele>1023.7</ele>
        <time>2022-06-15T09:21:54Z</time>
      </trkpt>
      <trkpt lat="45.70621" lon="6.61849">
        <ele>1024.2</ele>
        <time>2022-06-15T09:21:55Z</time>
      </trkpt>
      <trkpt lat="45.70624" lon="6.61836">
        <ele>1024.6</ele>
        <time>2022-06-15T09:21:56Z</time>
      </trkpt>
      <trkpt lat="45.70626" lon="6.61821">
        <ele>1023.7</ele>
        <time>2022-06-15T09:21:57Z</time>
      </trkpt>
      <trkpt lat="45.70628" lon="6.61799">
        <ele>1022.5</ele>
        <time>2022-06-15T09:21:58Z</time>
      </trkpt>
      <trkpt lat="45.70629" lon="6.61792">
        <ele>1022.2</ele>
        <time>2022-06-15T09:21:59Z</time>
      </trkpt>
      <trkpt lat="45.7063" lon="6.61777">
        <ele>1021.6</ele>
        <time>2022-06-15T09:22:00Z</time>
      </trkpt>
      <trkpt lat="45.70632" lon="6.61763">
        <ele>1021.1</ele>
        <time>2022-06-15T09:22:01Z</time>
      </trkpt>
      <trkpt lat="45.70634" lon="6.61748">
        <ele>1020.5</ele>
        <time>2022-06-15T09:22:02Z</time>
      </trkpt>
      <trkpt lat="45.70635" lon="6.61734">
        <ele>1019.8</ele>
        <time>2022-06-15T09:22:03Z</time>
      </trkpt>
      <trkpt lat="45.70637" lon="6.6172">
        <ele>1018.9</ele>
        <time>2022-06-15T09:22:04Z</time>
      </trkpt>
      <trkpt lat="45.70638" lon="6.61706">
        <ele>1018.4</ele>
        <time>2022-06-15T09:22:05Z</time>
      </trkpt>
      <trkpt lat="45.7064" lon="6.61692">
        <ele>1017.9</ele>
        <time>2022-06-15T09:22:06Z</time>
      </trkpt>
      <trkpt lat="45.70641" lon="6.61677">
        <ele>1017.4</ele>
        <time>2022-06-15T09:22:07Z</time>
      </trkpt>
      <trkpt lat="45.70642" lon="6.61664">
        <ele>1017</ele>
        <time>2022-06-15T09:22:08Z</time>
      </trkpt>
      <trkpt lat="45.70643" lon="6.6165">
        <ele>1016.8</ele>
        <time>2022-06-15T09:22:09Z</time>
      </trkpt>
      <trkpt lat="45.70643" lon="6.61636">
        <ele>1016.6</ele>
        <time>2022-06-15T09:22:10Z</time>
      </trkpt>
      <trkpt lat="45.70643" lon="6.61623">
        <ele>1016.2</ele>
        <time>2022-06-15T09:22:11Z</time>
      </trkpt>
      <trkpt lat="45.70643" lon="6.61609">
        <ele>1015.9</ele>
        <time>2022-06-15T09:22:12Z</time>
      </trkpt>
      <trkpt lat="45.70643" lon="6.61595">
        <ele>1015.9</ele>
        <time>2022-06-15T09:22:13Z</time>
      </trkpt>
      <trkpt lat="45.70643" lon="6.61581">
        <ele>1015.9</ele>
        <time>2022-06-15T09:22:14Z</time>
      </trkpt>
      <trkpt lat="45.70643" lon="6.61568">
        <ele>1015.9</ele>
        <time>2022-06-15T09:22:15Z</time>
      </trkpt>
      <trkpt lat="45.70643" lon="6.61554">
        <ele>1015.8</ele>
        <time>2022-06-15T09:22:16Z</time>
      </trkpt>
      <trkpt lat="45.70642" lon="6.6154">
        <ele>1015.3</ele>
        <time>2022-06-15T09:22:17Z</time>
      </trkpt>
      <trkpt lat="45.70642" lon="6.61526">
        <ele>1014.9</ele>
        <time>2022-06-15T09:22:18Z</time>
      </trkpt>
      <trkpt lat="45.70642" lon="6.61513">
        <ele>1014.9</ele>
        <time>2022-06-15T09:22:19Z</time>
      </trkpt>
      <trkpt lat="45.70642" lon="6.615">
        <ele>1014.9</ele>
        <time>2022-06-15T09:22:20Z</time>
      </trkpt>
      <trkpt lat="45.70643" lon="6.61486">
        <ele>1014.8</ele>
        <time>2022-06-15T09:22:21Z</time>
      </trkpt>
      <trkpt lat="45.70646" lon="6.61473">
        <ele>1014.8</ele>
        <time>2022-06-15T09:22:22Z</time>
      </trkpt>
      <trkpt lat="45.70649" lon="6.61461">
        <ele>1015</ele>
        <time>2022-06-15T09:22:23Z</time>
      </trkpt>
      <trkpt lat="45.70653" lon="6.6145">
        <ele>1014.9</ele>
        <time>2022-06-15T09:22:24Z</time>
      </trkpt>
      <trkpt lat="45.70657" lon="6.61439">
        <ele>1014.7</ele>
        <time>2022-06-15T09:22:25Z</time>
      </trkpt>
      <trkpt lat="45.7066" lon="6.61429">
        <ele>1014.6</ele>
        <time>2022-06-15T09:22:26Z</time>
      </trkpt>
      <trkpt lat="45.70664" lon="6.61418">
        <ele>1014.4</ele>
        <time>2022-06-15T09:22:27Z</time>
      </trkpt>
      <trkpt lat="45.70668" lon="6.61406">
        <ele>1013.6</ele>
        <time>2022-06-15T09:22:28Z</time>
      </trkpt>
      <trkpt lat="45.70671" lon="6.61395">
        <ele>1013.1</ele>
        <time>2022-06-15T09:22:29Z</time>
      </trkpt>
      <trkpt lat="45.70675" lon="6.61384">
        <ele>1012.9</ele>
        <time>2022-06-15T09:22:30Z</time>
      </trkpt>
      <trkpt lat="45.70679" lon="6.61373">
        <ele>1013.2</ele>
        <time>2022-06-15T09:22:31Z</time>
      </trkpt>
      <trkpt lat="45.70684" lon="6.61361">
        <ele>1013.2</ele>
        <time>2022-06-15T09:22:32Z</time>
      </trkpt>
      <trkpt lat="45.70689" lon="6.6135">
        <ele>1012.1</ele>
        <time>2022-06-15T09:22:33Z</time>
      </trkpt>
      <trkpt lat="45.70696" lon="6.6134">
        <ele>1010.5</ele>
        <time>2022-06-15T09:22:34Z</time>
      </trkpt>
      <trkpt lat="45.70703" lon="6.61332">
        <ele>1010.3</ele>
        <time>2022-06-15T09:22:35Z</time>
      </trkpt>
      <trkpt lat="45.70709" lon="6.61324">
        <ele>1010.2</ele>
        <time>2022-06-15T09:22:36Z</time>
      </trkpt>
      <trkpt lat="45.70713" lon="6.61314">
        <ele>1009.5</ele>
        <time>2022-06-15T09:22:37Z</time>
      </trkpt>
      <trkpt lat="45.70714" lon="6.61302">
        <ele>1008.4</ele>
        <time>2022-06-15T09:22:38Z</time>
      </trkpt>
      <trkpt lat="45.70712" lon="6.61289">
        <ele>1007.1</ele>
        <time>2022-06-15T09:22:39Z</time>
      </trkpt>
      <trkpt lat="45.70709" lon="6.61275">
        <ele>1005.5</ele>
        <time>2022-06-15T09:22:40Z</time>
      </trkpt>
      <trkpt lat="45.70708" lon="6.6126">
        <ele>1002.9</ele>
        <time>2022-06-15T09:22:41Z</time>
      </trkpt>
      <trkpt lat="45.70711" lon="6.61247">
        <ele>1000.4</ele>
        <time>2022-06-15T09:22:42Z</time>
      </trkpt>
      <trkpt lat="45.70715" lon="6.61233">
        <ele>999.3</ele>
        <time>2022-06-15T09:22:43Z</time>
      </trkpt>
      <trkpt lat="45.70718" lon="6.61219">
        <ele>998.4</ele>
        <time>2022-06-15T09:22:44Z</time>
      </trkpt>
      <trkpt lat="45.70718" lon="6.61205">
        <ele>997.5</ele>
        <time>2022-06-15T09:22:45Z</time>
      </trkpt>
      <trkpt lat="45.70716" lon="6.61191">
        <ele>996.6</ele>
        <time>2022-06-15T09:22:46Z</time>
      </trkpt>
      <trkpt lat="45.70712" lon="6.61179">
        <ele>995.6</ele>
        <time>2022-06-15T09:22:47Z</time>
      </trkpt>
      <trkpt lat="45.70706" lon="6.61167">
        <ele>995</ele>
        <time>2022-06-15T09:22:48Z</time>
      </trkpt>
      <trkpt lat="45.70699" lon="6.61155">
        <ele>994.5</ele>
        <time>2022-06-15T09:22:49Z</time>
      </trkpt>
      <trkpt lat="45.70692" lon="6.61143">
        <ele>993.9</ele>
        <time>2022-06-15T09:22:50Z</time>
      </trkpt>
      <trkpt lat="45.70687" lon="6.6113">
        <ele>993.1</ele>
        <time>2022-06-15T09:22:51Z</time>
      </trkpt>
      <trkpt lat="45.70684" lon="6.61115">
        <ele>991.9</ele>
        <time>2022-06-15T09:22:52Z</time>
      </trkpt>
      <trkpt lat="45.70684" lon="6.611">
        <ele>991.6</ele>
        <time>2022-06-15T09:22:53Z</time>
      </trkpt>
      <trkpt lat="45.70685" lon="6.61085">
        <ele>991</ele>
        <time>2022-06-15T09:22:54Z</time>
      </trkpt>
      <trkpt lat="45.70688" lon="6.61068">
        <ele>989.4</ele>
        <time>2022-06-15T09:22:55Z</time>
      </trkpt>
      <trkpt lat="45.70691" lon="6.61052">
        <ele>987.3</ele>
        <time>2022-06-15T09:22:56Z</time>
      </trkpt>
      <trkpt lat="45.70694" lon="6.61033">
        <ele>985.6</ele>
        <time>2022-06-15T09:22:57Z</time>
      </trkpt>
      <trkpt lat="45.70697" lon="6.61015">
        <ele>983.7</ele>
        <time>2022-06-15T09:22:58Z</time>
      </trkpt>
      <trkpt lat="45.707" lon="6.60997">
        <ele>982</ele>
        <time>2022-06-15T09:22:59Z</time>
      </trkpt>
      <trkpt lat="45.70703" lon="6.60979">
        <ele>980.7</ele>
        <time>2022-06-15T09:23:00Z</time>
      </trkpt>
      <trkpt lat="45.70707" lon="6.60962">
        <ele>979.6</ele>
        <time>2022-06-15T09:23:01Z</time>
      </trkpt>
      <trkpt lat="45.70712" lon="6.60947">
        <ele>977.1</ele>
        <time>2022-06-15T09:23:02Z</time>
      </trkpt>
      <trkpt lat="45.7072" lon="6.60934">
        <ele>975.5</ele>
        <time>2022-06-15T09:23:03Z</time>
      </trkpt>
      <trkpt lat="45.70727" lon="6.60922">
        <ele>976</ele>
        <time>2022-06-15T09:23:04Z</time>
      </trkpt>
      <trkpt lat="45.70734" lon="6.6091">
        <ele>975.3</ele>
        <time>2022-06-15T09:23:05Z</time>
      </trkpt>
      <trkpt lat="45.70738" lon="6.60897">
        <ele>973.4</ele>
        <time>2022-06-15T09:23:06Z</time>
      </trkpt>
      <trkpt lat="45.70741" lon="6.60885">
        <ele>971.4</ele>
        <time>2022-06-15T09:23:07Z</time>
      </trkpt>
      <trkpt lat="45.70742" lon="6.60873">
        <ele>970.5</ele>
        <time>2022-06-15T09:23:08Z</time>
      </trkpt>
      <trkpt lat="45.7074" lon="6.60859">
        <ele>971.5</ele>
        <time>2022-06-15T09:23:09Z</time>
      </trkpt>
      <trkpt lat="45.70737" lon="6.60845">
        <ele>970.3</ele>
        <time>2022-06-15T09:23:10Z</time>
      </trkpt>
      <trkpt lat="45.70733" lon="6.60831">
        <ele>969.5</ele>
        <time>2022-06-15T09:23:11Z</time>
      </trkpt>
      <trkpt lat="45.70728" lon="6.60815">
        <ele>968.7</ele>
        <time>2022-06-15T09:23:12Z</time>
      </trkpt>
      <trkpt lat="45.70723" lon="6.60798">
        <ele>967</ele>
        <time>2022-06-15T09:23:13Z</time>
      </trkpt>
      <trkpt lat="45.70717" lon="6.60781">
        <ele>966.8</ele>
        <time>2022-06-15T09:23:14Z</time>
      </trkpt>
      <trkpt lat="45.70712" lon="6.60765">
        <ele>966.1</ele>
        <time>2022-06-15T09:23:15Z</time>
      </trkpt>
      <trkpt lat="45.70709" lon="6.60749">
        <ele>964.7</ele>
        <time>2022-06-15T09:23:16Z</time>
      </trkpt>
      <trkpt lat="45.70708" lon="6.60733">
        <ele>962.8</ele>
        <time>2022-06-15T09:23:17Z</time>
      </trkpt>
      <trkpt lat="45.70708" lon="6.60714">
        <ele>959.3</ele>
        <time>2022-06-15T09:23:18Z</time>
      </trkpt>
      <trkpt lat="45.70711" lon="6.60696">
        <ele>954.5</ele>
        <time>2022-06-15T09:23:19Z</time>
      </trkpt>
      <trkpt lat="45.70715" lon="6.60677">
        <ele>954.5</ele>
        <time>2022-06-15T09:23:20Z</time>
      </trkpt>
      <trkpt lat="45.7072" lon="6.6066">
        <ele>953.5</ele>
        <time>2022-06-15T09:23:21Z</time>
      </trkpt>
      <trkpt lat="45.70726" lon="6.60643">
        <ele>951.8</ele>
        <time>2022-06-15T09:23:22Z</time>
      </trkpt>
      <trkpt lat="45.70733" lon="6.60627">
        <ele>948.2</ele>
        <time>2022-06-15T09:23:23Z</time>
      </trkpt>
      <trkpt lat="45.70737" lon="6.60611">
        <ele>946.1</ele>
        <time>2022-06-15T09:23:24Z</time>
      </trkpt>
      <trkpt lat="45.70739" lon="6.60594">
        <ele>947.8</ele>
        <time>2022-06-15T09:23:25Z</time>
      </trkpt>
      <trkpt lat="45.70739" lon="6.60576">
        <ele>949</ele>
        <time>2022-06-15T09:23:26Z</time>
      </trkpt>
      <trkpt lat="45.70739" lon="6.6056">
        <ele>947.2</ele>
        <time>2022-06-15T09:23:27Z</time>
      </trkpt>
      <trkpt lat="45.7074" lon="6.60545">
        <ele>948.2</ele>
        <time>2022-06-15T09:23:28Z</time>
      </trkpt>
      <trkpt lat="45.70743" lon="6.60533">
        <ele>947.4</ele>
        <time>2022-06-15T09:23:29Z</time>
      </trkpt>
      <trkpt lat="45.7075" lon="6.60523">
        <ele>943.5</ele>
        <time>2022-06-15T09:23:30Z</time>
      </trkpt>
      <trkpt lat="45.70754" lon="6.60514">
        <ele>939.5</ele>
        <time>2022-06-15T09:23:31Z</time>
      </trkpt>
      <trkpt lat="45.70758" lon="6.60503">
        <ele>936.4</ele>
        <time>2022-06-15T09:23:32Z</time>
      </trkpt>
      <trkpt lat="45.7076" lon="6.60489">
        <ele>932.9</ele>
        <time>2022-06-15T09:23:33Z</time>
      </trkpt>
      <trkpt lat="45.70759" lon="6.60475">
        <ele>932.5</ele>
        <time>2022-06-15T09:23:34Z</time>
      </trkpt>
      <trkpt lat="45.70758" lon="6.6046">
        <ele>933.4</ele>
        <time>2022-06-15T09:23:35Z</time>
      </trkpt>
      <trkpt lat="45.70756" lon="6.60445">
        <ele>935.4</ele>
        <time>2022-06-15T09:23:36Z</time>
      </trkpt>
      <trkpt lat="45.70753" lon="6.6043">
        <ele>937.4</ele>
        <time>2022-06-15T09:23:37Z</time>
      </trkpt>
      <trkpt lat="45.7075" lon="6.60413">
        <ele>939.1</ele>
        <time>2022-06-15T09:23:38Z</time>
      </trkpt>
      <trkpt lat="45.70747" lon="6.60397">
        <ele>938.7</ele>
        <time>2022-06-15T09:23:39Z</time>
      </trkpt>
      <trkpt lat="45.70744" lon="6.6038">
        <ele>938.2</ele>
        <time>2022-06-15T09:23:40Z</time>
      </trkpt>
      <trkpt lat="45.70742" lon="6.60363">
        <ele>937.7</ele>
        <time>2022-06-15T09:23:41Z</time>
      </trkpt>
      <trkpt lat="45.70738" lon="6.60346">
        <ele>936.6</ele>
        <time>2022-06-15T09:23:42Z</time>
      </trkpt>
      <trkpt lat="45.70735" lon="6.60328">
        <ele>935.2</ele>
        <time>2022-06-15T09:23:43Z</time>
      </trkpt>
      <trkpt lat="45.7073" lon="6.60311">
        <ele>935.3</ele>
        <time>2022-06-15T09:23:44Z</time>
      </trkpt>
      <trkpt lat="45.70723" lon="6.60295">
        <ele>934.6</ele>
        <time>2022-06-15T09:23:45Z</time>
      </trkpt>
      <trkpt lat="45.70716" lon="6.60281">
        <ele>934.1</ele>
        <time>2022-06-15T09:23:46Z</time>
      </trkpt>
      <trkpt lat="45.70708" lon="6.60265">
        <ele>932.8</ele>
        <time>2022-06-15T09:23:47Z</time>
      </trkpt>
      <trkpt lat="45.70701" lon="6.60248">
        <ele>930.6</ele>
        <time>2022-06-15T09:23:48Z</time>
      </trkpt>
      <trkpt lat="45.70694" lon="6.60231">
        <ele>929.3</ele>
        <time>2022-06-15T09:23:49Z</time>
      </trkpt>
      <trkpt lat="45.70689" lon="6.60212">
        <ele>929.2</ele>
        <time>2022-06-15T09:23:50Z</time>
      </trkpt>
      <trkpt lat="45.70683" lon="6.60193">
        <ele>926.8</ele>
        <time>2022-06-15T09:23:51Z</time>
      </trkpt>
      <trkpt lat="45.70678" lon="6.60173">
        <ele>923.8</ele>
        <time>2022-06-15T09:23:52Z</time>
      </trkpt>
      <trkpt lat="45.70672" lon="6.60153">
        <ele>923</ele>
        <time>2022-06-15T09:23:53Z</time>
      </trkpt>
      <trkpt lat="45.70666" lon="6.60134">
        <ele>924.1</ele>
        <time>2022-06-15T09:23:54Z</time>
      </trkpt>
      <trkpt lat="45.70663" lon="6.60113">
        <ele>921.9</ele>
        <time>2022-06-15T09:23:55Z</time>
      </trkpt>
      <trkpt lat="45.70662" lon="6.60092">
        <ele>920.2</ele>
        <time>2022-06-15T09:23:56Z</time>
      </trkpt>
      <trkpt lat="45.70662" lon="6.60071">
        <ele>919.1</ele>
        <time>2022-06-15T09:23:57Z</time>
      </trkpt>
      <trkpt lat="45.70664" lon="6.6005">
        <ele>918.1</ele>
        <time>2022-06-15T09:23:58Z</time>
      </trkpt>
      <trkpt lat="45.70665" lon="6.60028">
        <ele>916.9</ele>
        <time>2022-06-15T09:23:59Z</time>
      </trkpt>
      <trkpt lat="45.70667" lon="6.60006">
        <ele>915.1</ele>
        <time>2022-06-15T09:24:00Z</time>
      </trkpt>
      <trkpt lat="45.70668" lon="6.59983">
        <ele>913.9</ele>
        <time>2022-06-15T09:24:01Z</time>
      </trkpt>
      <trkpt lat="45.7067" lon="6.59961">
        <ele>912.2</ele>
        <time>2022-06-15T09:24:02Z</time>
      </trkpt>
      <trkpt lat="45.70674" lon="6.5994">
        <ele>910.1</ele>
        <time>2022-06-15T09:24:03Z</time>
      </trkpt>
      <trkpt lat="45.70679" lon="6.59919">
        <ele>910</ele>
        <time>2022-06-15T09:24:04Z</time>
      </trkpt>
      <trkpt lat="45.70683" lon="6.59897">
        <ele>910.2</ele>
        <time>2022-06-15T09:24:05Z</time>
      </trkpt>
      <trkpt lat="45.70687" lon="6.59875">
        <ele>908.5</ele>
        <time>2022-06-15T09:24:06Z</time>
      </trkpt>
      <trkpt lat="45.70692" lon="6.59854">
        <ele>905.8</ele>
        <time>2022-06-15T09:24:07Z</time>
      </trkpt>
      <trkpt lat="45.70698" lon="6.59833">
        <ele>904.3</ele>
        <time>2022-06-15T09:24:08Z</time>
      </trkpt>
      <trkpt lat="45.70703" lon="6.59811">
        <ele>900.8</ele>
        <time>2022-06-15T09:24:09Z</time>
      </trkpt>
      <trkpt lat="45.70706" lon="6.5979">
        <ele>899</ele>
        <time>2022-06-15T09:24:10Z</time>
      </trkpt>
      <trkpt lat="45.70708" lon="6.59769">
        <ele>898.5</ele>
        <time>2022-06-15T09:24:11Z</time>
      </trkpt>
      <trkpt lat="45.7071" lon="6.59747">
        <ele>899.5</ele>
        <time>2022-06-15T09:24:12Z</time>
      </trkpt>
      <trkpt lat="45.7071" lon="6.59724">
        <ele>899.3</ele>
        <time>2022-06-15T09:24:13Z</time>
      </trkpt>
      <trkpt lat="45.7071" lon="6.597">
        <ele>896.6</ele>
        <time>2022-06-15T09:24:14Z</time>
      </trkpt>
      <trkpt lat="45.7071" lon="6.59677">
        <ele>894.5</ele>
        <time>2022-06-15T09:24:15Z</time>
      </trkpt>
      <trkpt lat="45.7071" lon="6.59655">
        <ele>893.1</ele>
        <time>2022-06-15T09:24:16Z</time>
      </trkpt>
      <trkpt lat="45.7071" lon="6.59632">
        <ele>892.1</ele>
        <time>2022-06-15T09:24:17Z</time>
      </trkpt>
      <trkpt lat="45.7071" lon="6.5961">
        <ele>891.3</ele>
        <time>2022-06-15T09:24:18Z</time>
      </trkpt>
      <trkpt lat="45.7071" lon="6.59588">
        <ele>889.6</ele>
        <time>2022-06-15T09:24:19Z</time>
      </trkpt>
      <trkpt lat="45.70709" lon="6.59567">
        <ele>888.4</ele>
        <time>2022-06-15T09:24:20Z</time>
      </trkpt>
      <trkpt lat="45.70709" lon="6.59546">
        <ele>887.2</ele>
        <time>2022-06-15T09:24:21Z</time>
      </trkpt>
      <trkpt lat="45.70711" lon="6.59524">
        <ele>886.2</ele>
        <time>2022-06-15T09:24:22Z</time>
      </trkpt>
      <trkpt lat="45.70713" lon="6.59502">
        <ele>884.6</ele>
        <time>2022-06-15T09:24:23Z</time>
      </trkpt>
      <trkpt lat="45.70716" lon="6.59481">
        <ele>884.4</ele>
        <time>2022-06-15T09:24:24Z</time>
      </trkpt>
      <trkpt lat="45.70717" lon="6.59461">
        <ele>884</ele>
        <time>2022-06-15T09:24:25Z</time>
      </trkpt>
      <trkpt lat="45.70718" lon="6.59439">
        <ele>883.4</ele>
        <time>2022-06-15T09:24:26Z</time>
      </trkpt>
      <trkpt lat="45.70719" lon="6.59421">
        <ele>882.4</ele>
        <time>2022-06-15T09:24:27Z</time>
      </trkpt>
      <trkpt lat="45.7072" lon="6.59405">
        <ele>881.8</ele>
        <time>2022-06-15T09:24:28Z</time>
      </trkpt>
      <trkpt lat="45.70722" lon="6.5939">
        <ele>881.1</ele>
        <time>2022-06-15T09:24:29Z</time>
      </trkpt>
      <trkpt lat="45.70726" lon="6.59376">
        <ele>879.2</ele>
        <time>2022-06-15T09:24:30Z</time>
      </trkpt>
      <trkpt lat="45.7073" lon="6.59363">
        <ele>878.4</ele>
        <time>2022-06-15T09:24:31Z</time>
      </trkpt>
      <trkpt lat="45.70735" lon="6.59353">
        <ele>879.4</ele>
        <time>2022-06-15T09:24:32Z</time>
      </trkpt>
      <trkpt lat="45.7074" lon="6.59343">
        <ele>880</ele>
        <time>2022-06-15T09:24:33Z</time>
      </trkpt>
      <trkpt lat="45.70744" lon="6.59333">
        <ele>880.2</ele>
        <time>2022-06-15T09:24:34Z</time>
      </trkpt>
      <trkpt lat="45.7075" lon="6.59323">
        <ele>879.1</ele>
        <time>2022-06-15T09:24:35Z</time>
      </trkpt>
      <trkpt lat="45.70755" lon="6.59312">
        <ele>877.5</ele>
        <time>2022-06-15T09:24:36Z</time>
      </trkpt>
      <trkpt lat="45.7076" lon="6.59301">
        <ele>876.7</ele>
        <time>2022-06-15T09:24:37Z</time>
      </trkpt>
      <trkpt lat="45.70765" lon="6.59289">
        <ele>875.9</ele>
        <time>2022-06-15T09:24:38Z</time>
      </trkpt>
      <trkpt lat="45.70769" lon="6.59276">
        <ele>874.7</ele>
        <time>2022-06-15T09:24:39Z</time>
      </trkpt>
      <trkpt lat="45.70772" lon="6.59263">
        <ele>873.1</ele>
        <time>2022-06-15T09:24:40Z</time>
      </trkpt>
      <trkpt lat="45.70775" lon="6.59247">
        <ele>872</ele>
        <time>2022-06-15T09:24:41Z</time>
      </trkpt>
      <trkpt lat="45.70778" lon="6.59234">
        <ele>871.8</ele>
        <time>2022-06-15T09:24:42Z</time>
      </trkpt>
      <trkpt lat="45.70782" lon="6.59221">
        <ele>871.3</ele>
        <time>2022-06-15T09:24:43Z</time>
      </trkpt>
      <trkpt lat="45.70788" lon="6.59209">
        <ele>870.5</ele>
        <time>2022-06-15T09:24:44Z</time>
      </trkpt>
      <trkpt lat="45.70795" lon="6.59198">
        <ele>868.9</ele>
        <time>2022-06-15T09:24:45Z</time>
      </trkpt>
      <trkpt lat="45.70803" lon="6.59187">
        <ele>867</ele>
        <time>2022-06-15T09:24:46Z</time>
      </trkpt>
      <trkpt lat="45.70813" lon="6.5918">
        <ele>866.1</ele>
        <time>2022-06-15T09:24:47Z</time>
      </trkpt>
      <trkpt lat="45.70823" lon="6.59174">
        <ele>865.9</ele>
        <time>2022-06-15T09:24:48Z</time>
      </trkpt>
      <trkpt lat="45.70833" lon="6.59172">
        <ele>865.4</ele>
        <time>2022-06-15T09:24:49Z</time>
      </trkpt>
      <trkpt lat="45.70844" lon="6.59171">
        <ele>863.3</ele>
        <time>2022-06-15T09:24:50Z</time>
      </trkpt>
      <trkpt lat="45.70854" lon="6.59168">
        <ele>862.1</ele>
        <time>2022-06-15T09:24:51Z</time>
      </trkpt>
      <trkpt lat="45.70862" lon="6.59163">
        <ele>861.5</ele>
        <time>2022-06-15T09:24:52Z</time>
      </trkpt>
      <trkpt lat="45.70869" lon="6.59154">
        <ele>860.5</ele>
        <time>2022-06-15T09:24:53Z</time>
      </trkpt>
      <trkpt lat="45.70876" lon="6.59144">
        <ele>861.3</ele>
        <time>2022-06-15T09:24:54Z</time>
      </trkpt>
      <trkpt lat="45.70883" lon="6.59134">
        <ele>861.9</ele>
        <time>2022-06-15T09:24:55Z</time>
      </trkpt>
      <trkpt lat="45.7089" lon="6.59122">
        <ele>860.9</ele>
        <time>2022-06-15T09:24:56Z</time>
      </trkpt>
      <trkpt lat="45.70897" lon="6.59111">
        <ele>859.1</ele>
        <time>2022-06-15T09:24:57Z</time>
      </trkpt>
      <trkpt lat="45.70904" lon="6.59102">
        <ele>857.8</ele>
        <time>2022-06-15T09:24:58Z</time>
      </trkpt>
      <trkpt lat="45.70911" lon="6.5909">
        <ele>856.7</ele>
        <time>2022-06-15T09:24:59Z</time>
      </trkpt>
      <trkpt lat="45.70919" lon="6.59079">
        <ele>856.2</ele>
        <time>2022-06-15T09:25:00Z</time>
      </trkpt>
      <trkpt lat="45.70926" lon="6.59066">
        <ele>855.8</ele>
        <time>2022-06-15T09:25:01Z</time>
      </trkpt>
      <trkpt lat="45.70932" lon="6.59055">
        <ele>855.1</ele>
        <time>2022-06-15T09:25:02Z</time>
      </trkpt>
      <trkpt lat="45.70939" lon="6.59044">
        <ele>854</ele>
        <time>2022-06-15T09:25:03Z</time>
      </trkpt>
      <trkpt lat="45.70946" lon="6.59031">
        <ele>851</ele>
        <time>2022-06-15T09:25:04Z</time>
      </trkpt>
      <trkpt lat="45.70953" lon="6.59019">
        <ele>849.7</ele>
        <time>2022-06-15T09:25:05Z</time>
      </trkpt>
      <trkpt lat="45.70961" lon="6.59006">
        <ele>849.2</ele>
        <time>2022-06-15T09:25:06Z</time>
      </trkpt>
      <trkpt lat="45.70973" lon="6.58992">
        <ele>847.9</ele>
        <time>2022-06-15T09:25:07Z</time>
      </trkpt>
      <trkpt lat="45.70977" lon="6.58987">
        <ele>847.9</ele>
        <time>2022-06-15T09:25:08Z</time>
      </trkpt>
      <trkpt lat="45.70986" lon="6.58979">
        <ele>847.7</ele>
        <time>2022-06-15T09:25:09Z</time>
      </trkpt>
      <trkpt lat="45.70994" lon="6.58971">
        <ele>847</ele>
        <time>2022-06-15T09:25:10Z</time>
      </trkpt>
      <trkpt lat="45.71003" lon="6.58958">
        <ele>846.1</ele>
        <time>2022-06-15T09:25:11Z</time>
      </trkpt>
      <trkpt lat="45.71006" lon="6.58954">
        <ele>846.2</ele>
        <time>2022-06-15T09:25:12Z</time>
      </trkpt>
      <trkpt lat="45.7101" lon="6.58946">
        <ele>846.4</ele>
        <time>2022-06-15T09:25:13Z</time>
      </trkpt>
      <trkpt lat="45.71016" lon="6.58941">
        <ele>846.5</ele>
        <time>2022-06-15T09:25:14Z</time>
      </trkpt>
      <trkpt lat="45.71022" lon="6.58939">
        <ele>845.9</ele>
        <time>2022-06-15T09:25:15Z</time>
      </trkpt>
      <trkpt lat="45.71027" lon="6.58939">
        <ele>844.9</ele>
        <time>2022-06-15T09:25:16Z</time>
      </trkpt>
      <trkpt lat="45.71028" lon="6.58948">
        <ele>843.4</ele>
        <time>2022-06-15T09:25:17Z</time>
      </trkpt>
      <trkpt lat="45.71028" lon="6.58952">
        <ele>843.2</ele>
        <time>2022-06-15T09:25:18Z</time>
      </trkpt>
      <trkpt lat="45.71024" lon="6.58963">
        <ele>842.4</ele>
        <time>2022-06-15T09:25:19Z</time>
      </trkpt>
      <trkpt lat="45.71023" lon="6.58967">
        <ele>842.3</ele>
        <time>2022-06-15T09:25:20Z</time>
      </trkpt>
      <trkpt lat="45.71017" lon="6.58975">
        <ele>842.1</ele>
        <time>2022-06-15T09:25:21Z</time>
      </trkpt>
      <trkpt lat="45.71011" lon="6.58981">
        <ele>841.9</ele>
        <time>2022-06-15T09:25:22Z</time>
      </trkpt>
      <trkpt lat="45.71005" lon="6.58984">
        <ele>842.2</ele>
        <time>2022-06-15T09:25:23Z</time>
      </trkpt>
      <trkpt lat="45.70998" lon="6.58987">
        <ele>842.9</ele>
        <time>2022-06-15T09:25:24Z</time>
      </trkpt>
      <trkpt lat="45.70992" lon="6.58992">
        <ele>843.5</ele>
        <time>2022-06-15T09:25:25Z</time>
      </trkpt>
      <trkpt lat="45.7099" lon="6.58994">
        <ele>843.4</ele>
        <time>2022-06-15T09:25:26Z</time>
      </trkpt>
      <trkpt lat="45.7099" lon="6.59002">
        <ele>841.8</ele>
        <time>2022-06-15T09:25:27Z</time>
      </trkpt>
      <trkpt lat="45.70991" lon="6.59011">
        <ele>840</ele>
        <time>2022-06-15T09:25:28Z</time>
      </trkpt>
      <trkpt lat="45.70999" lon="6.59016">
        <ele>838.9</ele>
        <time>2022-06-15T09:25:29Z</time>
      </trkpt>
      <trkpt lat="45.71002" lon="6.59016">
        <ele>838.5</ele>
        <time>2022-06-15T09:25:30Z</time>
      </trkpt>
      <trkpt lat="45.71009" lon="6.59014">
        <ele>837.2</ele>
        <time>2022-06-15T09:25:31Z</time>
      </trkpt>
      <trkpt lat="45.7102" lon="6.59007">
        <ele>835.9</ele>
        <time>2022-06-15T09:25:32Z</time>
      </trkpt>
      <trkpt lat="45.71024" lon="6.59004">
        <ele>835.8</ele>
        <time>2022-06-15T09:25:33Z</time>
      </trkpt>
      <trkpt lat="45.71037" lon="6.58994">
        <ele>834.5</ele>
        <time>2022-06-15T09:25:34Z</time>
      </trkpt>
      <trkpt lat="45.71041" lon="6.58991">
        <ele>833.9</ele>
        <time>2022-06-15T09:25:35Z</time>
      </trkpt>
      <trkpt lat="45.7105" lon="6.58984">
        <ele>832.9</ele>
        <time>2022-06-15T09:25:36Z</time>
      </trkpt>
      <trkpt lat="45.71059" lon="6.58977">
        <ele>832.7</ele>
        <time>2022-06-15T09:25:37Z</time>
      </trkpt>
      <trkpt lat="45.71068" lon="6.58969">
        <ele>831.1</ele>
        <time>2022-06-15T09:25:38Z</time>
      </trkpt>
      <trkpt lat="45.71078" lon="6.58962">
        <ele>827.1</ele>
        <time>2022-06-15T09:25:39Z</time>
      </trkpt>
      <trkpt lat="45.71087" lon="6.58956">
        <ele>825.4</ele>
        <time>2022-06-15T09:25:40Z</time>
      </trkpt>
      <trkpt lat="45.71099" lon="6.58945">
        <ele>828.9</ele>
        <time>2022-06-15T09:25:41Z</time>
      </trkpt>
      <trkpt lat="45.71102" lon="6.5894">
        <ele>829.9</ele>
        <time>2022-06-15T09:25:42Z</time>
      </trkpt>
      <trkpt lat="45.71108" lon="6.58928">
        <ele>829</ele>
        <time>2022-06-15T09:25:43Z</time>
      </trkpt>
      <trkpt lat="45.71114" lon="6.58916">
        <ele>828.2</ele>
        <time>2022-06-15T09:25:44Z</time>
      </trkpt>
      <trkpt lat="45.7112" lon="6.58895">
        <ele>829.1</ele>
        <time>2022-06-15T09:25:45Z</time>
      </trkpt>
      <trkpt lat="45.71122" lon="6.58887">
        <ele>828.4</ele>
        <time>2022-06-15T09:25:46Z</time>
      </trkpt>
      <trkpt lat="45.71125" lon="6.58873">
        <ele>826.5</ele>
        <time>2022-06-15T09:25:47Z</time>
      </trkpt>
      <trkpt lat="45.71129" lon="6.58857">
        <ele>824.3</ele>
        <time>2022-06-15T09:25:48Z</time>
      </trkpt>
      <trkpt lat="45.71132" lon="6.58841">
        <ele>821.8</ele>
        <time>2022-06-15T09:25:49Z</time>
      </trkpt>
      <trkpt lat="45.71137" lon="6.58816">
        <ele>819.7</ele>
        <time>2022-06-15T09:25:50Z</time>
      </trkpt>
      <trkpt lat="45.71139" lon="6.58808">
        <ele>819.2</ele>
        <time>2022-06-15T09:25:51Z</time>
      </trkpt>
      <trkpt lat="45.71142" lon="6.58791">
        <ele>819.7</ele>
        <time>2022-06-15T09:25:52Z</time>
      </trkpt>
      <trkpt lat="45.71146" lon="6.58774">
        <ele>820.5</ele>
        <time>2022-06-15T09:25:53Z</time>
      </trkpt>
      <trkpt lat="45.71152" lon="6.58749">
        <ele>821.1</ele>
        <time>2022-06-15T09:25:54Z</time>
      </trkpt>
      <trkpt lat="45.71155" lon="6.5874">
        <ele>819.9</ele>
        <time>2022-06-15T09:25:55Z</time>
      </trkpt>
      <trkpt lat="45.71163" lon="6.58715">
        <ele>815.2</ele>
        <time>2022-06-15T09:25:56Z</time>
      </trkpt>
      <trkpt lat="45.71166" lon="6.58706">
        <ele>813.7</ele>
        <time>2022-06-15T09:25:57Z</time>
      </trkpt>
      <trkpt lat="45.71171" lon="6.58689">
        <ele>812</ele>
        <time>2022-06-15T09:25:58Z</time>
      </trkpt>
      <trkpt lat="45.71176" lon="6.58671">
        <ele>810.7</ele>
        <time>2022-06-15T09:25:59Z</time>
      </trkpt>
      <trkpt lat="45.71179" lon="6.58652">
        <ele>809</ele>
        <time>2022-06-15T09:26:00Z</time>
      </trkpt>
      <trkpt lat="45.71182" lon="6.58632">
        <ele>806.6</ele>
        <time>2022-06-15T09:26:01Z</time>
      </trkpt>
      <trkpt lat="45.71184" lon="6.5861">
        <ele>804.2</ele>
        <time>2022-06-15T09:26:02Z</time>
      </trkpt>
      <trkpt lat="45.71186" lon="6.5859">
        <ele>803.8</ele>
        <time>2022-06-15T09:26:03Z</time>
      </trkpt>
      <trkpt lat="45.71187" lon="6.58569">
        <ele>803.5</ele>
        <time>2022-06-15T09:26:04Z</time>
      </trkpt>
      <trkpt lat="45.71188" lon="6.58547">
        <ele>802.8</ele>
        <time>2022-06-15T09:26:05Z</time>
      </trkpt>
      <trkpt lat="45.7119" lon="6.58527">
        <ele>801.8</ele>
        <time>2022-06-15T09:26:06Z</time>
      </trkpt>
      <trkpt lat="45.7119" lon="6.58506">
        <ele>801.7</ele>
        <time>2022-06-15T09:26:07Z</time>
      </trkpt>
      <trkpt lat="45.7119" lon="6.58485">
        <ele>801.6</ele>
        <time>2022-06-15T09:26:08Z</time>
      </trkpt>
      <trkpt lat="45.71192" lon="6.58465">
        <ele>801.7</ele>
        <time>2022-06-15T09:26:09Z</time>
      </trkpt>
      <trkpt lat="45.71195" lon="6.58445">
        <ele>801.3</ele>
        <time>2022-06-15T09:26:10Z</time>
      </trkpt>
      <trkpt lat="45.712" lon="6.58427">
        <ele>802.4</ele>
        <time>2022-06-15T09:26:11Z</time>
      </trkpt>
      <trkpt lat="45.71208" lon="6.5841">
        <ele>803</ele>
        <time>2022-06-15T09:26:12Z</time>
      </trkpt>
      <trkpt lat="45.71217" lon="6.58394">
        <ele>800.2</ele>
        <time>2022-06-15T09:26:13Z</time>
      </trkpt>
      <trkpt lat="45.71227" lon="6.58378">
        <ele>802.9</ele>
        <time>2022-06-15T09:26:14Z</time>
      </trkpt>
      <trkpt lat="45.71236" lon="6.58362">
        <ele>807.8</ele>
        <time>2022-06-15T09:26:15Z</time>
      </trkpt>
      <trkpt lat="45.71245" lon="6.58346">
        <ele>803</ele>
        <time>2022-06-15T09:26:16Z</time>
      </trkpt>
      <trkpt lat="45.71255" lon="6.58328">
        <ele>801.6</ele>
        <time>2022-06-15T09:26:17Z</time>
      </trkpt>
      <trkpt lat="45.71262" lon="6.58311">
        <ele>810</ele>
        <time>2022-06-15T09:26:18Z</time>
      </trkpt>
      <trkpt lat="45.71271" lon="6.58293">
        <ele>806.9</ele>
        <time>2022-06-15T09:26:19Z</time>
      </trkpt>
      <trkpt lat="45.71279" lon="6.58275">
        <ele>792.8</ele>
        <time>2022-06-15T09:26:20Z</time>
      </trkpt>
      <trkpt lat="45.71286" lon="6.58257">
        <ele>796.1</ele>
        <time>2022-06-15T09:26:21Z</time>
      </trkpt>
      <trkpt lat="45.71293" lon="6.58238">
        <ele>793.8</ele>
        <time>2022-06-15T09:26:22Z</time>
      </trkpt>
      <trkpt lat="45.71299" lon="6.58219">
        <ele>791.2</ele>
        <time>2022-06-15T09:26:23Z</time>
      </trkpt>
      <trkpt lat="45.71303" lon="6.58199">
        <ele>788.6</ele>
        <time>2022-06-15T09:26:24Z</time>
      </trkpt>
      <trkpt lat="45.71304" lon="6.58179">
        <ele>785.5</ele>
        <time>2022-06-15T09:26:25Z</time>
      </trkpt>
      <trkpt lat="45.71305" lon="6.58158">
        <ele>783.6</ele>
        <time>2022-06-15T09:26:26Z</time>
      </trkpt>
      <trkpt lat="45.71308" lon="6.58138">
        <ele>784.9</ele>
        <time>2022-06-15T09:26:27Z</time>
      </trkpt>
      <trkpt lat="45.71313" lon="6.58118">
        <ele>784.8</ele>
        <time>2022-06-15T09:26:28Z</time>
      </trkpt>
      <trkpt lat="45.71318" lon="6.58098">
        <ele>783.7</ele>
        <time>2022-06-15T09:26:29Z</time>
      </trkpt>
      <trkpt lat="45.71322" lon="6.58077">
        <ele>781.4</ele>
        <time>2022-06-15T09:26:30Z</time>
      </trkpt>
      <trkpt lat="45.71325" lon="6.58058">
        <ele>779.5</ele>
        <time>2022-06-15T09:26:31Z</time>
      </trkpt>
      <trkpt lat="45.71326" lon="6.58037">
        <ele>777.3</ele>
        <time>2022-06-15T09:26:32Z</time>
      </trkpt>
      <trkpt lat="45.71327" lon="6.58019">
        <ele>777.7</ele>
        <time>2022-06-15T09:26:33Z</time>
      </trkpt>
      <trkpt lat="45.71326" lon="6.58002">
        <ele>780.3</ele>
        <time>2022-06-15T09:26:34Z</time>
      </trkpt>
      <trkpt lat="45.71328" lon="6.57986">
        <ele>780.1</ele>
        <time>2022-06-15T09:26:35Z</time>
      </trkpt>
      <trkpt lat="45.71332" lon="6.57972">
        <ele>780.5</ele>
        <time>2022-06-15T09:26:36Z</time>
      </trkpt>
      <trkpt lat="45.71338" lon="6.57958">
        <ele>776.2</ele>
        <time>2022-06-15T09:26:37Z</time>
      </trkpt>
      <trkpt lat="45.71344" lon="6.57945">
        <ele>774.1</ele>
        <time>2022-06-15T09:26:38Z</time>
      </trkpt>
      <trkpt lat="45.7135" lon="6.57932">
        <ele>772.6</ele>
        <time>2022-06-15T09:26:39Z</time>
      </trkpt>
      <trkpt lat="45.71358" lon="6.57919">
        <ele>769.4</ele>
        <time>2022-06-15T09:26:40Z</time>
      </trkpt>
      <trkpt lat="45.71368" lon="6.57908">
        <ele>767</ele>
        <time>2022-06-15T09:26:41Z</time>
      </trkpt>
      <trkpt lat="45.71378" lon="6.57898">
        <ele>766.1</ele>
        <time>2022-06-15T09:26:42Z</time>
      </trkpt>
      <trkpt lat="45.71388" lon="6.57887">
        <ele>766.4</ele>
        <time>2022-06-15T09:26:43Z</time>
      </trkpt>
      <trkpt lat="45.71397" lon="6.57875">
        <ele>764.6</ele>
        <time>2022-06-15T09:26:44Z</time>
      </trkpt>
      <trkpt lat="45.71405" lon="6.57862">
        <ele>763.6</ele>
        <time>2022-06-15T09:26:45Z</time>
      </trkpt>
      <trkpt lat="45.71413" lon="6.57847">
        <ele>763.4</ele>
        <time>2022-06-15T09:26:46Z</time>
      </trkpt>
      <trkpt lat="45.71419" lon="6.57832">
        <ele>763.9</ele>
        <time>2022-06-15T09:26:47Z</time>
      </trkpt>
      <trkpt lat="45.71423" lon="6.57816">
        <ele>765.8</ele>
        <time>2022-06-15T09:26:48Z</time>
      </trkpt>
      <trkpt lat="45.71427" lon="6.578">
        <ele>766.5</ele>
        <time>2022-06-15T09:26:49Z</time>
      </trkpt>
      <trkpt lat="45.71429" lon="6.57783">
        <ele>765</ele>
        <time>2022-06-15T09:26:50Z</time>
      </trkpt>
      <trkpt lat="45.71433" lon="6.57766">
        <ele>763.7</ele>
        <time>2022-06-15T09:26:51Z</time>
      </trkpt>
      <trkpt lat="45.71436" lon="6.57749">
        <ele>762</ele>
        <time>2022-06-15T09:26:52Z</time>
      </trkpt>
      <trkpt lat="45.71438" lon="6.57733">
        <ele>761.7</ele>
        <time>2022-06-15T09:26:53Z</time>
      </trkpt>
      <trkpt lat="45.71441" lon="6.57716">
        <ele>761.2</ele>
        <time>2022-06-15T09:26:54Z</time>
      </trkpt>
      <trkpt lat="45.71445" lon="6.577">
        <ele>760.5</ele>
        <time>2022-06-15T09:26:55Z</time>
      </trkpt>
      <trkpt lat="45.71449" lon="6.57684">
        <ele>759.6</ele>
        <time>2022-06-15T09:26:56Z</time>
      </trkpt>
      <trkpt lat="45.71456" lon="6.57669">
        <ele>757</ele>
        <time>2022-06-15T09:26:57Z</time>
      </trkpt>
      <trkpt lat="45.71465" lon="6.57658">
        <ele>755.3</ele>
        <time>2022-06-15T09:26:58Z</time>
      </trkpt>
      <trkpt lat="45.71475" lon="6.57649">
        <ele>754.5</ele>
        <time>2022-06-15T09:26:59Z</time>
      </trkpt>
      <trkpt lat="45.71485" lon="6.57643">
        <ele>753.3</ele>
        <time>2022-06-15T09:27:00Z</time>
      </trkpt>
      <trkpt lat="45.71495" lon="6.57638">
        <ele>752.3</ele>
        <time>2022-06-15T09:27:01Z</time>
      </trkpt>
      <trkpt lat="45.71503" lon="6.57634">
        <ele>751.5</ele>
        <time>2022-06-15T09:27:02Z</time>
      </trkpt>
      <trkpt lat="45.71511" lon="6.57631">
        <ele>751.3</ele>
        <time>2022-06-15T09:27:03Z</time>
      </trkpt>
      <trkpt lat="45.7152" lon="6.57629">
        <ele>751.2</ele>
        <time>2022-06-15T09:27:04Z</time>
      </trkpt>
      <trkpt lat="45.71528" lon="6.57628">
        <ele>751.2</ele>
        <time>2022-06-15T09:27:05Z</time>
      </trkpt>
      <trkpt lat="45.71537" lon="6.57628">
        <ele>750.5</ele>
        <time>2022-06-15T09:27:06Z</time>
      </trkpt>
      <trkpt lat="45.71545" lon="6.57629">
        <ele>749.9</ele>
        <time>2022-06-15T09:27:07Z</time>
      </trkpt>
      <trkpt lat="45.71553" lon="6.5763">
        <ele>749.3</ele>
        <time>2022-06-15T09:27:08Z</time>
      </trkpt>
      <trkpt lat="45.7156" lon="6.5763">
        <ele>748.7</ele>
        <time>2022-06-15T09:27:09Z</time>
      </trkpt>
      <trkpt lat="45.71568" lon="6.5763">
        <ele>748.1</ele>
        <time>2022-06-15T09:27:10Z</time>
      </trkpt>
      <trkpt lat="45.71575" lon="6.57629">
        <ele>747.5</ele>
        <time>2022-06-15T09:27:11Z</time>
      </trkpt>
      <trkpt lat="45.71583" lon="6.57628">
        <ele>746.9</ele>
        <time>2022-06-15T09:27:12Z</time>
      </trkpt>
      <trkpt lat="45.7159" lon="6.57628">
        <ele>746.6</ele>
        <time>2022-06-15T09:27:13Z</time>
      </trkpt>
      <trkpt lat="45.71596" lon="6.57627">
        <ele>746.4</ele>
        <time>2022-06-15T09:27:14Z</time>
      </trkpt>
      <trkpt lat="45.71601" lon="6.57627">
        <ele>746.2</ele>
        <time>2022-06-15T09:27:15Z</time>
      </trkpt>
      <trkpt lat="45.71607" lon="6.57625">
        <ele>746.1</ele>
        <time>2022-06-15T09:27:16Z</time>
      </trkpt>
      <trkpt lat="45.71614" lon="6.57624">
        <ele>745.9</ele>
        <time>2022-06-15T09:27:17Z</time>
      </trkpt>
      <trkpt lat="45.71621" lon="6.57623">
        <ele>745.8</ele>
        <time>2022-06-15T09:27:18Z</time>
      </trkpt>
      <trkpt lat="45.71627" lon="6.57622">
        <ele>745.7</ele>
        <time>2022-06-15T09:27:19Z</time>
      </trkpt>
      <trkpt lat="45.71632" lon="6.5762">
        <ele>745.5</ele>
        <time>2022-06-15T09:27:20Z</time>
      </trkpt>
      <trkpt lat="45.71637" lon="6.57618">
        <ele>745.3</ele>
        <time>2022-06-15T09:27:21Z</time>
      </trkpt>
      <trkpt lat="45.71643" lon="6.57615">
        <ele>745</ele>
        <time>2022-06-15T09:27:22Z</time>
      </trkpt>
      <trkpt lat="45.71649" lon="6.57614">
        <ele>744.7</ele>
        <time>2022-06-15T09:27:23Z</time>
      </trkpt>
      <trkpt lat="45.71653" lon="6.57612">
        <ele>744.5</ele>
        <time>2022-06-15T09:27:24Z</time>
      </trkpt>
      <trkpt lat="45.71656" lon="6.57612">
        <ele>744.4</ele>
        <time>2022-06-15T09:27:25Z</time>
      </trkpt>
      <trkpt lat="45.71657" lon="6.57611">
        <ele>744.3</ele>
        <time>2022-06-15T09:27:26Z</time>
      </trkpt>
      <trkpt lat="45.71658" lon="6.57611">
        <ele>744.3</ele>
        <time>2022-06-15T09:27:27Z</time>
      </trkpt>
      <trkpt lat="45.71659" lon="6.57611">
        <ele>744.2</ele>
        <time>2022-06-15T09:27:28Z</time>
      </trkpt>
      <trkpt lat="45.71661" lon="6.57611">
        <ele>744.2</ele>
        <time>2022-06-15T09:27:29Z</time>
      </trkpt>
      <trkpt lat="45.71663" lon="6.5761">
        <ele>744.1</ele>
        <time>2022-06-15T09:27:30Z</time>
      </trkpt>
      <trkpt lat="45.71665" lon="6.5761">
        <ele>744</ele>
        <time>2022-06-15T09:27:31Z</time>
      </trkpt>
      <trkpt lat="45.71668" lon="6.5761">
        <ele>743.9</ele>
        <time>2022-06-15T09:27:32Z</time>
      </trkpt>
      <trkpt lat="45.71671" lon="6.57608">
        <ele>743.8</ele>
        <time>2022-06-15T09:27:33Z</time>
      </trkpt>
      <trkpt lat="45.71674" lon="6.57606">
        <ele>743.7</ele>
        <time>2022-06-15T09:27:34Z</time>
      </trkpt>
      <trkpt lat="45.71677" lon="6.57604">
        <ele>743.5</ele>
        <time>2022-06-15T09:27:35Z</time>
      </trkpt>
      <trkpt lat="45.71681" lon="6.57602">
        <ele>743.4</ele>
        <time>2022-06-15T09:27:36Z</time>
      </trkpt>
      <trkpt lat="45.71685" lon="6.576">
        <ele>743.2</ele>
        <time>2022-06-15T09:27:37Z</time>
      </trkpt>
      <trkpt lat="45.71689" lon="6.57598">
        <ele>743</ele>
        <time>2022-06-15T09:27:38Z</time>
      </trkpt>
      <trkpt lat="45.71692" lon="6.57595">
        <ele>742.8</ele>
        <time>2022-06-15T09:27:39Z</time>
      </trkpt>
      <trkpt lat="45.71695" lon="6.57593">
        <ele>742.7</ele>
        <time>2022-06-15T09:27:40Z</time>
      </trkpt>
      <trkpt lat="45.71698" lon="6.5759">
        <ele>742.6</ele>
        <time>2022-06-15T09:27:41Z</time>
      </trkpt>
      <trkpt lat="45.71701" lon="6.57587">
        <ele>742.5</ele>
        <time>2022-06-15T09:27:42Z</time>
      </trkpt>
      <trkpt lat="45.71704" lon="6.57584">
        <ele>742.4</ele>
        <time>2022-06-15T09:27:43Z</time>
      </trkpt>
      <trkpt lat="45.71708" lon="6.5758">
        <ele>742.1</ele>
        <time>2022-06-15T09:27:44Z</time>
      </trkpt>
      <trkpt lat="45.71712" lon="6.57577">
        <ele>742</ele>
        <time>2022-06-15T09:27:45Z</time>
      </trkpt>
      <trkpt lat="45.71716" lon="6.57575">
        <ele>742</ele>
        <time>2022-06-15T09:27:46Z</time>
      </trkpt>
      <trkpt lat="45.7172" lon="6.57572">
        <ele>742</ele>
        <time>2022-06-15T09:27:47Z</time>
      </trkpt>
      <trkpt lat="45.71723" lon="6.5757">
        <ele>742.1</ele>
        <time>2022-06-15T09:27:48Z</time>
      </trkpt>
      <trkpt lat="45.71727" lon="6.57569">
        <ele>741.9</ele>
        <time>2022-06-15T09:27:49Z</time>
      </trkpt>
      <trkpt lat="45.7173" lon="6.57567">
        <ele>741.8</ele>
        <time>2022-06-15T09:27:50Z</time>
      </trkpt>
      <trkpt lat="45.71733" lon="6.57565">
        <ele>741.7</ele>
        <time>2022-06-15T09:27:51Z</time>
      </trkpt>
      <trkpt lat="45.71736" lon="6.57564">
        <ele>741.6</ele>
        <time>2022-06-15T09:27:52Z</time>
      </trkpt>
      <trkpt lat="45.71739" lon="6.57563">
        <ele>741.5</ele>
        <time>2022-06-15T09:27:53Z</time>
      </trkpt>
      <trkpt lat="45.71741" lon="6.57561">
        <ele>741.4</ele>
        <time>2022-06-15T09:27:54Z</time>
      </trkpt>
      <trkpt lat="45.71744" lon="6.5756">
        <ele>741.3</ele>
        <time>2022-06-15T09:27:55Z</time>
      </trkpt>
      <trkpt lat="45.71748" lon="6.57557">
        <ele>741.1</ele>
        <time>2022-06-15T09:27:56Z</time>
      </trkpt>
      <trkpt lat="45.71751" lon="6.57555">
        <ele>740.9</ele>
        <time>2022-06-15T09:27:57Z</time>
      </trkpt>
      <trkpt lat="45.71755" lon="6.57553">
        <ele>740.6</ele>
        <time>2022-06-15T09:27:58Z</time>
      </trkpt>
      <trkpt lat="45.71759" lon="6.57551">
        <ele>740.3</ele>
        <time>2022-06-15T09:27:59Z</time>
      </trkpt>
      <trkpt lat="45.71763" lon="6.57549">
        <ele>740.2</ele>
        <time>2022-06-15T09:28:00Z</time>
      </trkpt>
      <trkpt lat="45.71767" lon="6.57547">
        <ele>740</ele>
        <time>2022-06-15T09:28:01Z</time>
      </trkpt>
      <trkpt lat="45.7177" lon="6.57545">
        <ele>740</ele>
        <time>2022-06-15T09:28:02Z</time>
      </trkpt>
      <trkpt lat="45.71773" lon="6.57543">
        <ele>739.9</ele>
        <time>2022-06-15T09:28:03Z</time>
      </trkpt>
      <trkpt lat="45.71776" lon="6.57541">
        <ele>740</ele>
        <time>2022-06-15T09:28:04Z</time>
      </trkpt>
      <trkpt lat="45.71779" lon="6.5754">
        <ele>740</ele>
        <time>2022-06-15T09:28:05Z</time>
      </trkpt>
      <trkpt lat="45.71782" lon="6.57538">
        <ele>739.9</ele>
        <time>2022-06-15T09:28:06Z</time>
      </trkpt>
      <trkpt lat="45.71785" lon="6.57536">
        <ele>739.8</ele>
        <time>2022-06-15T09:28:07Z</time>
      </trkpt>
      <trkpt lat="45.71788" lon="6.57534">
        <ele>739.7</ele>
        <time>2022-06-15T09:28:08Z</time>
      </trkpt>
      <trkpt lat="45.7179" lon="6.57532">
        <ele>739.6</ele>
        <time>2022-06-15T09:28:09Z</time>
      </trkpt>
      <trkpt lat="45.71793" lon="6.57528">
        <ele>739.5</ele>
        <time>2022-06-15T09:28:10Z</time>
      </trkpt>
      <trkpt lat="45.71796" lon="6.57525">
        <ele>739.2</ele>
        <time>2022-06-15T09:28:11Z</time>
      </trkpt>
      <trkpt lat="45.71798" lon="6.57522">
        <ele>739</ele>
        <time>2022-06-15T09:28:12Z</time>
      </trkpt>
      <trkpt lat="45.71801" lon="6.57519">
        <ele>738.9</ele>
        <time>2022-06-15T09:28:13Z</time>
      </trkpt>
      <trkpt lat="45.71803" lon="6.57515">
        <ele>738.9</ele>
        <time>2022-06-15T09:28:14Z</time>
      </trkpt>
      <trkpt lat="45.71806" lon="6.57511">
        <ele>739</ele>
        <time>2022-06-15T09:28:15Z</time>
      </trkpt>
      <trkpt lat="45.71809" lon="6.57507">
        <ele>738.9</ele>
        <time>2022-06-15T09:28:16Z</time>
      </trkpt>
      <trkpt lat="45.71812" lon="6.57504">
        <ele>738.8</ele>
        <time>2022-06-15T09:28:17Z</time>
      </trkpt>
      <trkpt lat="45.71816" lon="6.575">
        <ele>738.6</ele>
        <time>2022-06-15T09:28:18Z</time>
      </trkpt>
      <trkpt lat="45.71819" lon="6.57495">
        <ele>738</ele>
        <time>2022-06-15T09:28:19Z</time>
      </trkpt>
      <trkpt lat="45.71822" lon="6.5749">
        <ele>737.5</ele>
        <time>2022-06-15T09:28:20Z</time>
      </trkpt>
      <trkpt lat="45.71825" lon="6.57486">
        <ele>737.2</ele>
        <time>2022-06-15T09:28:21Z</time>
      </trkpt>
      <trkpt lat="45.71828" lon="6.57482">
        <ele>737.1</ele>
        <time>2022-06-15T09:28:22Z</time>
      </trkpt>
      <trkpt lat="45.71831" lon="6.57479">
        <ele>737</ele>
        <time>2022-06-15T09:28:23Z</time>
      </trkpt>
      <trkpt lat="45.71833" lon="6.57475">
        <ele>737.1</ele>
        <time>2022-06-15T09:28:24Z</time>
      </trkpt>
      <trkpt lat="45.71836" lon="6.57472">
        <ele>737</ele>
        <time>2022-06-15T09:28:25Z</time>
      </trkpt>
      <trkpt lat="45.71838" lon="6.57468">
        <ele>736.7</ele>
        <time>2022-06-15T09:28:26Z</time>
      </trkpt>
      <trkpt lat="45.7184" lon="6.57465">
        <ele>736.5</ele>
        <time>2022-06-15T09:28:27Z</time>
      </trkpt>
      <trkpt lat="45.71842" lon="6.57462">
        <ele>736.4</ele>
        <time>2022-06-15T09:28:28Z</time>
      </trkpt>
      <trkpt lat="45.71845" lon="6.57458">
        <ele>736.2</ele>
        <time>2022-06-15T09:28:29Z</time>
      </trkpt>
      <trkpt lat="45.71847" lon="6.57454">
        <ele>736</ele>
        <time>2022-06-15T09:28:30Z</time>
      </trkpt>
      <trkpt lat="45.7185" lon="6.5745">
        <ele>735.8</ele>
        <time>2022-06-15T09:28:31Z</time>
      </trkpt>
      <trkpt lat="45.71853" lon="6.57445">
        <ele>735.7</ele>
        <time>2022-06-15T09:28:32Z</time>
      </trkpt>
      <trkpt lat="45.71856" lon="6.57441">
        <ele>735.7</ele>
        <time>2022-06-15T09:28:33Z</time>
      </trkpt>
      <trkpt lat="45.7186" lon="6.57437">
        <ele>735.7</ele>
        <time>2022-06-15T09:28:34Z</time>
      </trkpt>
      <trkpt lat="45.71863" lon="6.57432">
        <ele>735.6</ele>
        <time>2022-06-15T09:28:35Z</time>
      </trkpt>
      <trkpt lat="45.71867" lon="6.57428">
        <ele>735.4</ele>
        <time>2022-06-15T09:28:36Z</time>
      </trkpt>
      <trkpt lat="45.71871" lon="6.57423">
        <ele>735.2</ele>
        <time>2022-06-15T09:28:37Z</time>
      </trkpt>
      <trkpt lat="45.71873" lon="6.57419">
        <ele>735.1</ele>
        <time>2022-06-15T09:28:38Z</time>
      </trkpt>
      <trkpt lat="45.71876" lon="6.57416">
        <ele>734.9</ele>
        <time>2022-06-15T09:28:39Z</time>
      </trkpt>
      <trkpt lat="45.7188" lon="6.57413">
        <ele>734.8</ele>
        <time>2022-06-15T09:28:40Z</time>
      </trkpt>
      <trkpt lat="45.71884" lon="6.5741">
        <ele>734.7</ele>
        <time>2022-06-15T09:28:41Z</time>
      </trkpt>
      <trkpt lat="45.71888" lon="6.57406">
        <ele>734.6</ele>
        <time>2022-06-15T09:28:42Z</time>
      </trkpt>
      <trkpt lat="45.71891" lon="6.57401">
        <ele>734.4</ele>
        <time>2022-06-15T09:28:43Z</time>
      </trkpt>
      <trkpt lat="45.71893" lon="6.57396">
        <ele>734.2</ele>
        <time>2022-06-15T09:28:44Z</time>
      </trkpt>
      <trkpt lat="45.71894" lon="6.5739">
        <ele>734</ele>
        <time>2022-06-15T09:28:45Z</time>
      </trkpt>
      <trkpt lat="45.71895" lon="6.57383">
        <ele>733.8</ele>
        <time>2022-06-15T09:28:46Z</time>
      </trkpt>
      <trkpt lat="45.71897" lon="6.57377">
        <ele>733.6</ele>
        <time>2022-06-15T09:28:47Z</time>
      </trkpt>
      <trkpt lat="45.719" lon="6.57371">
        <ele>733.4</ele>
        <time>2022-06-15T09:28:48Z</time>
      </trkpt>
      <trkpt lat="45.71903" lon="6.57365">
        <ele>733.1</ele>
        <time>2022-06-15T09:28:49Z</time>
      </trkpt>
      <trkpt lat="45.71906" lon="6.57359">
        <ele>732.9</ele>
        <time>2022-06-15T09:28:50Z</time>
      </trkpt>
      <trkpt lat="45.7191" lon="6.57352">
        <ele>732.8</ele>
        <time>2022-06-15T09:28:51Z</time>
      </trkpt>
      <trkpt lat="45.71914" lon="6.57346">
        <ele>732.9</ele>
        <time>2022-06-15T09:28:52Z</time>
      </trkpt>
      <trkpt lat="45.71919" lon="6.57341">
        <ele>733</ele>
        <time>2022-06-15T09:28:53Z</time>
      </trkpt>
      <trkpt lat="45.71924" lon="6.57336">
        <ele>733</ele>
        <time>2022-06-15T09:28:54Z</time>
      </trkpt>
      <trkpt lat="45.7193" lon="6.57333">
        <ele>733</ele>
        <time>2022-06-15T09:28:55Z</time>
      </trkpt>
      <trkpt lat="45.71936" lon="6.5733">
        <ele>732.8</ele>
        <time>2022-06-15T09:28:56Z</time>
      </trkpt>
      <trkpt lat="45.71942" lon="6.57327">
        <ele>732.7</ele>
        <time>2022-06-15T09:28:57Z</time>
      </trkpt>
      <trkpt lat="45.71948" lon="6.57322">
        <ele>732.9</ele>
        <time>2022-06-15T09:28:58Z</time>
      </trkpt>
      <trkpt lat="45.71953" lon="6.57317">
        <ele>733.1</ele>
        <time>2022-06-15T09:28:59Z</time>
      </trkpt>
      <trkpt lat="45.71957" lon="6.57311">
        <ele>733.2</ele>
        <time>2022-06-15T09:29:00Z</time>
      </trkpt>
      <trkpt lat="45.71961" lon="6.57303">
        <ele>732.9</ele>
        <time>2022-06-15T09:29:01Z</time>
      </trkpt>
      <trkpt lat="45.71965" lon="6.57296">
        <ele>732.3</ele>
        <time>2022-06-15T09:29:02Z</time>
      </trkpt>
      <trkpt lat="45.71969" lon="6.57287">
        <ele>731.7</ele>
        <time>2022-06-15T09:29:03Z</time>
      </trkpt>
      <trkpt lat="45.71973" lon="6.57279">
        <ele>731.3</ele>
        <time>2022-06-15T09:29:04Z</time>
      </trkpt>
      <trkpt lat="45.71977" lon="6.57271">
        <ele>731.3</ele>
        <time>2022-06-15T09:29:05Z</time>
      </trkpt>
      <trkpt lat="45.71981" lon="6.57262">
        <ele>731.3</ele>
        <time>2022-06-15T09:29:06Z</time>
      </trkpt>
      <trkpt lat="45.71985" lon="6.57255">
        <ele>731</ele>
        <time>2022-06-15T09:29:07Z</time>
      </trkpt>
      <trkpt lat="45.71989" lon="6.57249">
        <ele>730.7</ele>
        <time>2022-06-15T09:29:08Z</time>
      </trkpt>
      <trkpt lat="45.71993" lon="6.57243">
        <ele>730.7</ele>
        <time>2022-06-15T09:29:09Z</time>
      </trkpt>
      <trkpt lat="45.71998" lon="6.57239">
        <ele>731</ele>
        <time>2022-06-15T09:29:10Z</time>
      </trkpt>
      <trkpt lat="45.72003" lon="6.57234">
        <ele>731</ele>
        <time>2022-06-15T09:29:11Z</time>
      </trkpt>
      <trkpt lat="45.72006" lon="6.57229">
        <ele>730.7</ele>
        <time>2022-06-15T09:29:12Z</time>
      </trkpt>
      <trkpt lat="45.72007" lon="6.57222">
        <ele>730.2</ele>
        <time>2022-06-15T09:29:13Z</time>
      </trkpt>
      <trkpt lat="45.72008" lon="6.57215">
        <ele>729.9</ele>
        <time>2022-06-15T09:29:14Z</time>
      </trkpt>
      <trkpt lat="45.72007" lon="6.57207">
        <ele>729.6</ele>
        <time>2022-06-15T09:29:15Z</time>
      </trkpt>
      <trkpt lat="45.72007" lon="6.57199">
        <ele>729.2</ele>
        <time>2022-06-15T09:29:16Z</time>
      </trkpt>
      <trkpt lat="45.72008" lon="6.57191">
        <ele>728.9</ele>
        <time>2022-06-15T09:29:17Z</time>
      </trkpt>
      <trkpt lat="45.72008" lon="6.57183">
        <ele>728.8</ele>
        <time>2022-06-15T09:29:18Z</time>
      </trkpt>
      <trkpt lat="45.72008" lon="6.57175">
        <ele>728.6</ele>
        <time>2022-06-15T09:29:19Z</time>
      </trkpt>
      <trkpt lat="45.72007" lon="6.57166">
        <ele>728.5</ele>
        <time>2022-06-15T09:29:20Z</time>
      </trkpt>
      <trkpt lat="45.72006" lon="6.57157">
        <ele>728.3</ele>
        <time>2022-06-15T09:29:21Z</time>
      </trkpt>
      <trkpt lat="45.72006" lon="6.57148">
        <ele>728</ele>
        <time>2022-06-15T09:29:22Z</time>
      </trkpt>
      <trkpt lat="45.72006" lon="6.57139">
        <ele>727.8</ele>
        <time>2022-06-15T09:29:23Z</time>
      </trkpt>
      <trkpt lat="45.72006" lon="6.5713">
        <ele>727.8</ele>
        <time>2022-06-15T09:29:24Z</time>
      </trkpt>
      <trkpt lat="45.72005" lon="6.57121">
        <ele>727.8</ele>
        <time>2022-06-15T09:29:25Z</time>
      </trkpt>
      <trkpt lat="45.72005" lon="6.57111">
        <ele>727.8</ele>
        <time>2022-06-15T09:29:26Z</time>
      </trkpt>
      <trkpt lat="45.72004" lon="6.57102">
        <ele>727.5</ele>
        <time>2022-06-15T09:29:27Z</time>
      </trkpt>
      <trkpt lat="45.72002" lon="6.57092">
        <ele>727.2</ele>
        <time>2022-06-15T09:29:28Z</time>
      </trkpt>
      <trkpt lat="45.72001" lon="6.57082">
        <ele>727</ele>
        <time>2022-06-15T09:29:29Z</time>
      </trkpt>
      <trkpt lat="45.72" lon="6.5707">
        <ele>727</ele>
        <time>2022-06-15T09:29:30Z</time>
      </trkpt>
      <trkpt lat="45.71999" lon="6.57058">
        <ele>726.8</ele>
        <time>2022-06-15T09:29:31Z</time>
      </trkpt>
      <trkpt lat="45.71998" lon="6.57046">
        <ele>726.4</ele>
        <time>2022-06-15T09:29:32Z</time>
      </trkpt>
      <trkpt lat="45.71999" lon="6.57034">
        <ele>726.1</ele>
        <time>2022-06-15T09:29:33Z</time>
      </trkpt>
      <trkpt lat="45.71999" lon="6.57022">
        <ele>725.7</ele>
        <time>2022-06-15T09:29:34Z</time>
      </trkpt>
      <trkpt lat="45.71999" lon="6.57009">
        <ele>725.3</ele>
        <time>2022-06-15T09:29:35Z</time>
      </trkpt>
      <trkpt lat="45.71998" lon="6.56997">
        <ele>724.9</ele>
        <time>2022-06-15T09:29:36Z</time>
      </trkpt>
      <trkpt lat="45.71997" lon="6.56984">
        <ele>724.4</ele>
        <time>2022-06-15T09:29:37Z</time>
      </trkpt>
      <trkpt lat="45.71996" lon="6.56972">
        <ele>724</ele>
        <time>2022-06-15T09:29:38Z</time>
      </trkpt>
      <trkpt lat="45.71995" lon="6.56959">
        <ele>724</ele>
        <time>2022-06-15T09:29:39Z</time>
      </trkpt>
      <trkpt lat="45.71994" lon="6.56947">
        <ele>724</ele>
        <time>2022-06-15T09:29:40Z</time>
      </trkpt>
      <trkpt lat="45.71993" lon="6.56934">
        <ele>723.7</ele>
        <time>2022-06-15T09:29:41Z</time>
      </trkpt>
      <trkpt lat="45.71992" lon="6.5692">
        <ele>723.4</ele>
        <time>2022-06-15T09:29:42Z</time>
      </trkpt>
      <trkpt lat="45.71991" lon="6.56907">
        <ele>722.9</ele>
        <time>2022-06-15T09:29:43Z</time>
      </trkpt>
      <trkpt lat="45.7199" lon="6.56894">
        <ele>722.2</ele>
        <time>2022-06-15T09:29:44Z</time>
      </trkpt>
      <trkpt lat="45.7199" lon="6.56881">
        <ele>721.9</ele>
        <time>2022-06-15T09:29:45Z</time>
      </trkpt>
      <trkpt lat="45.71988" lon="6.56866">
        <ele>721.7</ele>
        <time>2022-06-15T09:29:46Z</time>
      </trkpt>
      <trkpt lat="45.71988" lon="6.56852">
        <ele>721.4</ele>
        <time>2022-06-15T09:29:47Z</time>
      </trkpt>
      <trkpt lat="45.71987" lon="6.56837">
        <ele>721.1</ele>
        <time>2022-06-15T09:29:48Z</time>
      </trkpt>
      <trkpt lat="45.71986" lon="6.56822">
        <ele>721</ele>
        <time>2022-06-15T09:29:49Z</time>
      </trkpt>
      <trkpt lat="45.71985" lon="6.56808">
        <ele>721</ele>
        <time>2022-06-15T09:29:50Z</time>
      </trkpt>
      <trkpt lat="45.71984" lon="6.56794">
        <ele>720.8</ele>
        <time>2022-06-15T09:29:51Z</time>
      </trkpt>
      <trkpt lat="45.71982" lon="6.5678">
        <ele>720.7</ele>
        <time>2022-06-15T09:29:52Z</time>
      </trkpt>
      <trkpt lat="45.71981" lon="6.56767">
        <ele>720.4</ele>
        <time>2022-06-15T09:29:53Z</time>
      </trkpt>
      <trkpt lat="45.7198" lon="6.56753">
        <ele>720.1</ele>
        <time>2022-06-15T09:29:54Z</time>
      </trkpt>
      <trkpt lat="45.71979" lon="6.5674">
        <ele>719.9</ele>
        <time>2022-06-15T09:29:55Z</time>
      </trkpt>
      <trkpt lat="45.71978" lon="6.56726">
        <ele>719.8</ele>
        <time>2022-06-15T09:29:56Z</time>
      </trkpt>
      <trkpt lat="45.71977" lon="6.56712">
        <ele>719.8</ele>
        <time>2022-06-15T09:29:57Z</time>
      </trkpt>
      <trkpt lat="45.71976" lon="6.56698">
        <ele>719.9</ele>
        <time>2022-06-15T09:29:58Z</time>
      </trkpt>
      <trkpt lat="45.71975" lon="6.56684">
        <ele>719.5</ele>
        <time>2022-06-15T09:29:59Z</time>
      </trkpt>
      <trkpt lat="45.71974" lon="6.56671">
        <ele>719.1</ele>
        <time>2022-06-15T09:30:00Z</time>
      </trkpt>
      <trkpt lat="45.71974" lon="6.56658">
        <ele>719</ele>
        <time>2022-06-15T09:30:01Z</time>
      </trkpt>
      <trkpt lat="45.71973" lon="6.56644">
        <ele>719</ele>
        <time>2022-06-15T09:30:02Z</time>
      </trkpt>
      <trkpt lat="45.71972" lon="6.56631">
        <ele>718.7</ele>
        <time>2022-06-15T09:30:03Z</time>
      </trkpt>
      <trkpt lat="45.71972" lon="6.56618">
        <ele>718.2</ele>
        <time>2022-06-15T09:30:04Z</time>
      </trkpt>
      <trkpt lat="45.71972" lon="6.56606">
        <ele>718</ele>
        <time>2022-06-15T09:30:05Z</time>
      </trkpt>
      <trkpt lat="45.71973" lon="6.56593">
        <ele>718</ele>
        <time>2022-06-15T09:30:06Z</time>
      </trkpt>
      <trkpt lat="45.71975" lon="6.56581">
        <ele>718.3</ele>
        <time>2022-06-15T09:30:07Z</time>
      </trkpt>
      <trkpt lat="45.71976" lon="6.56568">
        <ele>718.7</ele>
        <time>2022-06-15T09:30:08Z</time>
      </trkpt>
      <trkpt lat="45.71977" lon="6.56555">
        <ele>719.1</ele>
        <time>2022-06-15T09:30:09Z</time>
      </trkpt>
      <trkpt lat="45.71976" lon="6.56542">
        <ele>719.2</ele>
        <time>2022-06-15T09:30:10Z</time>
      </trkpt>
      <trkpt lat="45.71974" lon="6.56529">
        <ele>718.3</ele>
        <time>2022-06-15T09:30:11Z</time>
      </trkpt>
      <trkpt lat="45.71972" lon="6.56517">
        <ele>719.3</ele>
        <time>2022-06-15T09:30:12Z</time>
      </trkpt>
      <trkpt lat="45.71969" lon="6.56504">
        <ele>721.3</ele>
        <time>2022-06-15T09:30:13Z</time>
      </trkpt>
      <trkpt lat="45.71967" lon="6.56491">
        <ele>721.6</ele>
        <time>2022-06-15T09:30:14Z</time>
      </trkpt>
      <trkpt lat="45.71965" lon="6.56478">
        <ele>721.3</ele>
        <time>2022-06-15T09:30:15Z</time>
      </trkpt>
      <trkpt lat="45.71964" lon="6.56465">
        <ele>721.6</ele>
        <time>2022-06-15T09:30:16Z</time>
      </trkpt>
      <trkpt lat="45.71963" lon="6.56452">
        <ele>722.4</ele>
        <time>2022-06-15T09:30:17Z</time>
      </trkpt>
      <trkpt lat="45.71962" lon="6.56438">
        <ele>723.3</ele>
        <time>2022-06-15T09:30:18Z</time>
      </trkpt>
      <trkpt lat="45.71961" lon="6.56424">
        <ele>724.5</ele>
        <time>2022-06-15T09:30:19Z</time>
      </trkpt>
      <trkpt lat="45.71961" lon="6.5641">
        <ele>725.3</ele>
        <time>2022-06-15T09:30:20Z</time>
      </trkpt>
      <trkpt lat="45.7196" lon="6.56395">
        <ele>725.3</ele>
        <time>2022-06-15T09:30:21Z</time>
      </trkpt>
      <trkpt lat="45.7196" lon="6.5638">
        <ele>725.1</ele>
        <time>2022-06-15T09:30:22Z</time>
      </trkpt>
      <trkpt lat="45.71961" lon="6.56358">
        <ele>724.9</ele>
        <time>2022-06-15T09:30:23Z</time>
      </trkpt>
      <trkpt lat="45.71961" lon="6.56351">
        <ele>724.6</ele>
        <time>2022-06-15T09:30:24Z</time>
      </trkpt>
      <trkpt lat="45.71961" lon="6.56336">
        <ele>724.2</ele>
        <time>2022-06-15T09:30:25Z</time>
      </trkpt>
      <trkpt lat="45.71962" lon="6.56321">
        <ele>722.6</ele>
        <time>2022-06-15T09:30:26Z</time>
      </trkpt>
      <trkpt lat="45.71964" lon="6.56307">
        <ele>720.7</ele>
        <time>2022-06-15T09:30:27Z</time>
      </trkpt>
      <trkpt lat="45.71967" lon="6.56293">
        <ele>717.8</ele>
        <time>2022-06-15T09:30:28Z</time>
      </trkpt>
      <trkpt lat="45.7197" lon="6.56279">
        <ele>714.1</ele>
        <time>2022-06-15T09:30:29Z</time>
      </trkpt>
      <trkpt lat="45.71974" lon="6.56265">
        <ele>713.6</ele>
        <time>2022-06-15T09:30:30Z</time>
      </trkpt>
      <trkpt lat="45.71977" lon="6.56252">
        <ele>713.1</ele>
        <time>2022-06-15T09:30:31Z</time>
      </trkpt>
      <trkpt lat="45.71982" lon="6.56239">
        <ele>712.2</ele>
        <time>2022-06-15T09:30:32Z</time>
      </trkpt>
      <trkpt lat="45.71986" lon="6.56226">
        <ele>711.3</ele>
        <time>2022-06-15T09:30:33Z</time>
      </trkpt>
      <trkpt lat="45.71991" lon="6.56214">
        <ele>711</ele>
        <time>2022-06-15T09:30:34Z</time>
      </trkpt>
      <trkpt lat="45.71996" lon="6.56202">
        <ele>711.4</ele>
        <time>2022-06-15T09:30:35Z</time>
      </trkpt>
      <trkpt lat="45.72001" lon="6.56189">
        <ele>712</ele>
        <time>2022-06-15T09:30:36Z</time>
      </trkpt>
      <trkpt lat="45.72006" lon="6.56177">
        <ele>711.8</ele>
        <time>2022-06-15T09:30:37Z</time>
      </trkpt>
      <trkpt lat="45.72011" lon="6.56164">
        <ele>711.4</ele>
        <time>2022-06-15T09:30:38Z</time>
      </trkpt>
      <trkpt lat="45.72016" lon="6.56152">
        <ele>710.8</ele>
        <time>2022-06-15T09:30:39Z</time>
      </trkpt>
      <trkpt lat="45.72021" lon="6.56139">
        <ele>710.5</ele>
        <time>2022-06-15T09:30:40Z</time>
      </trkpt>
      <trkpt lat="45.72026" lon="6.56127">
        <ele>711.3</ele>
        <time>2022-06-15T09:30:41Z</time>
      </trkpt>
      <trkpt lat="45.72031" lon="6.56115">
        <ele>711.4</ele>
        <time>2022-06-15T09:30:42Z</time>
      </trkpt>
      <trkpt lat="45.72036" lon="6.56102">
        <ele>710.5</ele>
        <time>2022-06-15T09:30:43Z</time>
      </trkpt>
      <trkpt lat="45.72041" lon="6.5609">
        <ele>709.7</ele>
        <time>2022-06-15T09:30:44Z</time>
      </trkpt>
      <trkpt lat="45.72046" lon="6.56078">
        <ele>709.3</ele>
        <time>2022-06-15T09:30:45Z</time>
      </trkpt>
      <trkpt lat="45.7205" lon="6.56065">
        <ele>709.3</ele>
        <time>2022-06-15T09:30:46Z</time>
      </trkpt>
      <trkpt lat="45.72055" lon="6.56053">
        <ele>710</ele>
        <time>2022-06-15T09:30:47Z</time>
      </trkpt>
      <trkpt lat="45.7206" lon="6.5604">
        <ele>710.2</ele>
        <time>2022-06-15T09:30:48Z</time>
      </trkpt>
      <trkpt lat="45.72064" lon="6.56027">
        <ele>710</ele>
        <time>2022-06-15T09:30:49Z</time>
      </trkpt>
      <trkpt lat="45.72069" lon="6.56014">
        <ele>708.5</ele>
        <time>2022-06-15T09:30:50Z</time>
      </trkpt>
      <trkpt lat="45.72074" lon="6.56001">
        <ele>707.4</ele>
        <time>2022-06-15T09:30:51Z</time>
      </trkpt>
      <trkpt lat="45.72079" lon="6.55987">
        <ele>707.9</ele>
        <time>2022-06-15T09:30:52Z</time>
      </trkpt>
      <trkpt lat="45.72084" lon="6.55974">
        <ele>708.9</ele>
        <time>2022-06-15T09:30:53Z</time>
      </trkpt>
      <trkpt lat="45.72088" lon="6.55961">
        <ele>708.6</ele>
        <time>2022-06-15T09:30:54Z</time>
      </trkpt>
      <trkpt lat="45.72093" lon="6.55948">
        <ele>708</ele>
        <time>2022-06-15T09:30:55Z</time>
      </trkpt>
      <trkpt lat="45.72098" lon="6.55935">
        <ele>706.8</ele>
        <time>2022-06-15T09:30:56Z</time>
      </trkpt>
      <trkpt lat="45.72106" lon="6.55916">
        <ele>705.2</ele>
        <time>2022-06-15T09:30:57Z</time>
      </trkpt>
      <trkpt lat="45.72108" lon="6.5591">
        <ele>705.5</ele>
        <time>2022-06-15T09:30:58Z</time>
      </trkpt>
      <trkpt lat="45.72113" lon="6.55897">
        <ele>706.3</ele>
        <time>2022-06-15T09:30:59Z</time>
      </trkpt>
      <trkpt lat="45.72117" lon="6.55885">
        <ele>706.1</ele>
        <time>2022-06-15T09:31:00Z</time>
      </trkpt>
      <trkpt lat="45.72122" lon="6.55873">
        <ele>705.1</ele>
        <time>2022-06-15T09:31:01Z</time>
      </trkpt>
      <trkpt lat="45.72127" lon="6.5586">
        <ele>704.4</ele>
        <time>2022-06-15T09:31:02Z</time>
      </trkpt>
      <trkpt lat="45.72132" lon="6.55848">
        <ele>704.1</ele>
        <time>2022-06-15T09:31:03Z</time>
      </trkpt>
      <trkpt lat="45.72137" lon="6.55836">
        <ele>704</ele>
        <time>2022-06-15T09:31:04Z</time>
      </trkpt>
      <trkpt lat="45.72142" lon="6.55823">
        <ele>704.2</ele>
        <time>2022-06-15T09:31:05Z</time>
      </trkpt>
      <trkpt lat="45.72147" lon="6.55811">
        <ele>704.3</ele>
        <time>2022-06-15T09:31:06Z</time>
      </trkpt>
      <trkpt lat="45.72153" lon="6.55799">
        <ele>703.8</ele>
        <time>2022-06-15T09:31:07Z</time>
      </trkpt>
      <trkpt lat="45.72158" lon="6.55787">
        <ele>703.2</ele>
        <time>2022-06-15T09:31:08Z</time>
      </trkpt>
      <trkpt lat="45.72164" lon="6.55775">
        <ele>703</ele>
        <time>2022-06-15T09:31:09Z</time>
      </trkpt>
      <trkpt lat="45.7217" lon="6.55764">
        <ele>702.9</ele>
        <time>2022-06-15T09:31:10Z</time>
      </trkpt>
      <trkpt lat="45.72176" lon="6.55753">
        <ele>702.7</ele>
        <time>2022-06-15T09:31:11Z</time>
      </trkpt>
      <trkpt lat="45.72183" lon="6.55742">
        <ele>702.3</ele>
        <time>2022-06-15T09:31:12Z</time>
      </trkpt>
      <trkpt lat="45.72189" lon="6.55731">
        <ele>702.1</ele>
        <time>2022-06-15T09:31:13Z</time>
      </trkpt>
      <trkpt lat="45.72196" lon="6.55721">
        <ele>701.9</ele>
        <time>2022-06-15T09:31:14Z</time>
      </trkpt>
      <trkpt lat="45.72202" lon="6.5571">
        <ele>701.4</ele>
        <time>2022-06-15T09:31:15Z</time>
      </trkpt>
      <trkpt lat="45.72209" lon="6.557">
        <ele>701.1</ele>
        <time>2022-06-15T09:31:16Z</time>
      </trkpt>
      <trkpt lat="45.72215" lon="6.55689">
        <ele>701.2</ele>
        <time>2022-06-15T09:31:17Z</time>
      </trkpt>
      <trkpt lat="45.72222" lon="6.55678">
        <ele>701.6</ele>
        <time>2022-06-15T09:31:18Z</time>
      </trkpt>
      <trkpt lat="45.72228" lon="6.55668">
        <ele>701.7</ele>
        <time>2022-06-15T09:31:19Z</time>
      </trkpt>
      <trkpt lat="45.72234" lon="6.55658">
        <ele>701.2</ele>
        <time>2022-06-15T09:31:20Z</time>
      </trkpt>
      <trkpt lat="45.72241" lon="6.55649">
        <ele>700.9</ele>
        <time>2022-06-15T09:31:21Z</time>
      </trkpt>
      <trkpt lat="45.72247" lon="6.55638">
        <ele>700.9</ele>
        <time>2022-06-15T09:31:22Z</time>
      </trkpt>
      <trkpt lat="45.72254" lon="6.55628">
        <ele>700.6</ele>
        <time>2022-06-15T09:31:23Z</time>
      </trkpt>
      <trkpt lat="45.7226" lon="6.55618">
        <ele>700.3</ele>
        <time>2022-06-15T09:31:24Z</time>
      </trkpt>
      <trkpt lat="45.72266" lon="6.55608">
        <ele>700</ele>
        <time>2022-06-15T09:31:25Z</time>
      </trkpt>
      <trkpt lat="45.72272" lon="6.55598">
        <ele>699.9</ele>
        <time>2022-06-15T09:31:26Z</time>
      </trkpt>
      <trkpt lat="45.72279" lon="6.55588">
        <ele>700</ele>
        <time>2022-06-15T09:31:27Z</time>
      </trkpt>
      <trkpt lat="45.72285" lon="6.55578">
        <ele>699.8</ele>
        <time>2022-06-15T09:31:28Z</time>
      </trkpt>
      <trkpt lat="45.72292" lon="6.55568">
        <ele>699.4</ele>
        <time>2022-06-15T09:31:29Z</time>
      </trkpt>
      <trkpt lat="45.72298" lon="6.55558">
        <ele>699.1</ele>
        <time>2022-06-15T09:31:30Z</time>
      </trkpt>
      <trkpt lat="45.72304" lon="6.55548">
        <ele>699</ele>
        <time>2022-06-15T09:31:31Z</time>
      </trkpt>
      <trkpt lat="45.72311" lon="6.55538">
        <ele>699</ele>
        <time>2022-06-15T09:31:32Z</time>
      </trkpt>
      <trkpt lat="45.72317" lon="6.55528">
        <ele>699</ele>
        <time>2022-06-15T09:31:33Z</time>
      </trkpt>
      <trkpt lat="45.72323" lon="6.55518">
        <ele>698.9</ele>
        <time>2022-06-15T09:31:34Z</time>
      </trkpt>
      <trkpt lat="45.7233" lon="6.55508">
        <ele>698.9</ele>
        <time>2022-06-15T09:31:35Z</time>
      </trkpt>
      <trkpt lat="45.72336" lon="6.55498">
        <ele>698.9</ele>
        <time>2022-06-15T09:31:36Z</time>
      </trkpt>
      <trkpt lat="45.72342" lon="6.55488">
        <ele>698.6</ele>
        <time>2022-06-15T09:31:37Z</time>
      </trkpt>
      <trkpt lat="45.72348" lon="6.55478">
        <ele>698.2</ele>
        <time>2022-06-15T09:31:38Z</time>
      </trkpt>
      <trkpt lat="45.72354" lon="6.55469">
        <ele>698</ele>
        <time>2022-06-15T09:31:39Z</time>
      </trkpt>
      <trkpt lat="45.72359" lon="6.5546">
        <ele>698</ele>
        <time>2022-06-15T09:31:40Z</time>
      </trkpt>
      <trkpt lat="45.72365" lon="6.55452">
        <ele>697.9</ele>
        <time>2022-06-15T09:31:41Z</time>
      </trkpt>
      <trkpt lat="45.7237" lon="6.55444">
        <ele>697.7</ele>
        <time>2022-06-15T09:31:42Z</time>
      </trkpt>
      <trkpt lat="45.72375" lon="6.55436">
        <ele>697.4</ele>
        <time>2022-06-15T09:31:43Z</time>
      </trkpt>
      <trkpt lat="45.72379" lon="6.55429">
        <ele>697.2</ele>
        <time>2022-06-15T09:31:44Z</time>
      </trkpt>
      <trkpt lat="45.72383" lon="6.55422">
        <ele>697</ele>
        <time>2022-06-15T09:31:45Z</time>
      </trkpt>
      <trkpt lat="45.72388" lon="6.55415">
        <ele>697</ele>
        <time>2022-06-15T09:31:46Z</time>
      </trkpt>
      <trkpt lat="45.72392" lon="6.55408">
        <ele>697</ele>
        <time>2022-06-15T09:31:47Z</time>
      </trkpt>
      <trkpt lat="45.72396" lon="6.55401">
        <ele>696.8</ele>
        <time>2022-06-15T09:31:48Z</time>
      </trkpt>
      <trkpt lat="45.72401" lon="6.55393">
        <ele>696.6</ele>
        <time>2022-06-15T09:31:49Z</time>
      </trkpt>
      <trkpt lat="45.72405" lon="6.55385">
        <ele>696.4</ele>
        <time>2022-06-15T09:31:50Z</time>
      </trkpt>
      <trkpt lat="45.72411" lon="6.55377">
        <ele>696.5</ele>
        <time>2022-06-15T09:31:51Z</time>
      </trkpt>
      <trkpt lat="45.72416" lon="6.55369">
        <ele>696.7</ele>
        <time>2022-06-15T09:31:52Z</time>
      </trkpt>
      <trkpt lat="45.72421" lon="6.55361">
        <ele>696.7</ele>
        <time>2022-06-15T09:31:53Z</time>
      </trkpt>
      <trkpt lat="45.72427" lon="6.55352">
        <ele>696.1</ele>
        <time>2022-06-15T09:31:54Z</time>
      </trkpt>
      <trkpt lat="45.72432" lon="6.55343">
        <ele>695.6</ele>
        <time>2022-06-15T09:31:55Z</time>
      </trkpt>
      <trkpt lat="45.72438" lon="6.55334">
        <ele>695.2</ele>
        <time>2022-06-15T09:31:56Z</time>
      </trkpt>
      <trkpt lat="45.72444" lon="6.55325">
        <ele>695.3</ele>
        <time>2022-06-15T09:31:57Z</time>
      </trkpt>
      <trkpt lat="45.7245" lon="6.55316">
        <ele>695.5</ele>
        <time>2022-06-15T09:31:58Z</time>
      </trkpt>
      <trkpt lat="45.72455" lon="6.55307">
        <ele>695.6</ele>
        <time>2022-06-15T09:31:59Z</time>
      </trkpt>
      <trkpt lat="45.72461" lon="6.55298">
        <ele>695.5</ele>
        <time>2022-06-15T09:32:00Z</time>
      </trkpt>
      <trkpt lat="45.72467" lon="6.55288">
        <ele>695.6</ele>
        <time>2022-06-15T09:32:01Z</time>
      </trkpt>
      <trkpt lat="45.72472" lon="6.55279">
        <ele>696</ele>
        <time>2022-06-15T09:32:02Z</time>
      </trkpt>
      <trkpt lat="45.72478" lon="6.55269">
        <ele>695.3</ele>
        <time>2022-06-15T09:32:03Z</time>
      </trkpt>
      <trkpt lat="45.72484" lon="6.5526">
        <ele>694.8</ele>
        <time>2022-06-15T09:32:04Z</time>
      </trkpt>
      <trkpt lat="45.72489" lon="6.5525">
        <ele>694.4</ele>
        <time>2022-06-15T09:32:05Z</time>
      </trkpt>
      <trkpt lat="45.72495" lon="6.5524">
        <ele>694.5</ele>
        <time>2022-06-15T09:32:06Z</time>
      </trkpt>
      <trkpt lat="45.725" lon="6.5523">
        <ele>694.7</ele>
        <time>2022-06-15T09:32:07Z</time>
      </trkpt>
      <trkpt lat="45.72506" lon="6.5522">
        <ele>694.7</ele>
        <time>2022-06-15T09:32:08Z</time>
      </trkpt>
      <trkpt lat="45.72511" lon="6.5521">
        <ele>694.3</ele>
        <time>2022-06-15T09:32:09Z</time>
      </trkpt>
      <trkpt lat="45.72516" lon="6.552">
        <ele>694.1</ele>
        <time>2022-06-15T09:32:10Z</time>
      </trkpt>
      <trkpt lat="45.7252" lon="6.5519">
        <ele>694.1</ele>
        <time>2022-06-15T09:32:11Z</time>
      </trkpt>
      <trkpt lat="45.72525" lon="6.5518">
        <ele>694.5</ele>
        <time>2022-06-15T09:32:12Z</time>
      </trkpt>
      <trkpt lat="45.72529" lon="6.5517">
        <ele>694.8</ele>
        <time>2022-06-15T09:32:13Z</time>
      </trkpt>
      <trkpt lat="45.72533" lon="6.55161">
        <ele>694.4</ele>
        <time>2022-06-15T09:32:14Z</time>
      </trkpt>
      <trkpt lat="45.72537" lon="6.55151">
        <ele>694</ele>
        <time>2022-06-15T09:32:15Z</time>
      </trkpt>
      <trkpt lat="45.72541" lon="6.55141">
        <ele>693.6</ele>
        <time>2022-06-15T09:32:16Z</time>
      </trkpt>
      <trkpt lat="45.72545" lon="6.55131">
        <ele>693.5</ele>
        <time>2022-06-15T09:32:17Z</time>
      </trkpt>
      <trkpt lat="45.72548" lon="6.55121">
        <ele>693.6</ele>
        <time>2022-06-15T09:32:18Z</time>
      </trkpt>
      <trkpt lat="45.72551" lon="6.55111">
        <ele>693.8</ele>
        <time>2022-06-15T09:32:19Z</time>
      </trkpt>
      <trkpt lat="45.72554" lon="6.55101">
        <ele>694</ele>
        <time>2022-06-15T09:32:20Z</time>
      </trkpt>
      <trkpt lat="45.72557" lon="6.5509">
        <ele>693.9</ele>
        <time>2022-06-15T09:32:21Z</time>
      </trkpt>
      <trkpt lat="45.7256" lon="6.55079">
        <ele>693.8</ele>
        <time>2022-06-15T09:32:22Z</time>
      </trkpt>
      <trkpt lat="45.72563" lon="6.55068">
        <ele>693.7</ele>
        <time>2022-06-15T09:32:23Z</time>
      </trkpt>
      <trkpt lat="45.72565" lon="6.55057">
        <ele>693.7</ele>
        <time>2022-06-15T09:32:24Z</time>
      </trkpt>
      <trkpt lat="45.72567" lon="6.55046">
        <ele>693.4</ele>
        <time>2022-06-15T09:32:25Z</time>
      </trkpt>
      <trkpt lat="45.72569" lon="6.55034">
        <ele>693.1</ele>
        <time>2022-06-15T09:32:26Z</time>
      </trkpt>
      <trkpt lat="45.72571" lon="6.55023">
        <ele>693</ele>
        <time>2022-06-15T09:32:27Z</time>
      </trkpt>
      <trkpt lat="45.72573" lon="6.55012">
        <ele>693</ele>
        <time>2022-06-15T09:32:28Z</time>
      </trkpt>
      <trkpt lat="45.72575" lon="6.55">
        <ele>693</ele>
        <time>2022-06-15T09:32:29Z</time>
      </trkpt>
      <trkpt lat="45.72576" lon="6.54988">
        <ele>692.7</ele>
        <time>2022-06-15T09:32:30Z</time>
      </trkpt>
      <trkpt lat="45.72578" lon="6.54977">
        <ele>692.3</ele>
        <time>2022-06-15T09:32:31Z</time>
      </trkpt>
      <trkpt lat="45.72579" lon="6.54965">
        <ele>692.3</ele>
        <time>2022-06-15T09:32:32Z</time>
      </trkpt>
      <trkpt lat="45.7258" lon="6.54954">
        <ele>692.6</ele>
        <time>2022-06-15T09:32:33Z</time>
      </trkpt>
      <trkpt lat="45.72581" lon="6.54942">
        <ele>693</ele>
        <time>2022-06-15T09:32:34Z</time>
      </trkpt>
      <trkpt lat="45.72582" lon="6.54931">
        <ele>693.5</ele>
        <time>2022-06-15T09:32:35Z</time>
      </trkpt>
      <trkpt lat="45.72583" lon="6.5492">
        <ele>693.9</ele>
        <time>2022-06-15T09:32:36Z</time>
      </trkpt>
      <trkpt lat="45.72584" lon="6.54908">
        <ele>694</ele>
        <time>2022-06-15T09:32:37Z</time>
      </trkpt>
      <trkpt lat="45.72585" lon="6.54897">
        <ele>694.1</ele>
        <time>2022-06-15T09:32:38Z</time>
      </trkpt>
      <trkpt lat="45.72586" lon="6.54885">
        <ele>694.2</ele>
        <time>2022-06-15T09:32:39Z</time>
      </trkpt>
      <trkpt lat="45.72587" lon="6.54874">
        <ele>694.6</ele>
        <time>2022-06-15T09:32:40Z</time>
      </trkpt>
      <trkpt lat="45.72588" lon="6.54863">
        <ele>695.1</ele>
        <time>2022-06-15T09:32:41Z</time>
      </trkpt>
      <trkpt lat="45.72589" lon="6.54852">
        <ele>696.1</ele>
        <time>2022-06-15T09:32:42Z</time>
      </trkpt>
      <trkpt lat="45.72591" lon="6.54842">
        <ele>697.1</ele>
        <time>2022-06-15T09:32:43Z</time>
      </trkpt>
      <trkpt lat="45.72592" lon="6.54832">
        <ele>698.1</ele>
        <time>2022-06-15T09:32:44Z</time>
      </trkpt>
      <trkpt lat="45.72593" lon="6.54822">
        <ele>699</ele>
        <time>2022-06-15T09:32:45Z</time>
      </trkpt>
      <trkpt lat="45.72594" lon="6.54813">
        <ele>699.8</ele>
        <time>2022-06-15T09:32:46Z</time>
      </trkpt>
      <trkpt lat="45.72595" lon="6.54804">
        <ele>700.8</ele>
        <time>2022-06-15T09:32:47Z</time>
      </trkpt>
      <trkpt lat="45.72596" lon="6.54795">
        <ele>701.9</ele>
        <time>2022-06-15T09:32:48Z</time>
      </trkpt>
      <trkpt lat="45.72597" lon="6.54787">
        <ele>703</ele>
        <time>2022-06-15T09:32:49Z</time>
      </trkpt>
      <trkpt lat="45.72598" lon="6.54779">
        <ele>704.4</ele>
        <time>2022-06-15T09:32:50Z</time>
      </trkpt>
      <trkpt lat="45.726" lon="6.54771">
        <ele>705</ele>
        <time>2022-06-15T09:32:51Z</time>
      </trkpt>
      <trkpt lat="45.72602" lon="6.54764">
        <ele>705.5</ele>
        <time>2022-06-15T09:32:52Z</time>
      </trkpt>
      <trkpt lat="45.72604" lon="6.54757">
        <ele>706.1</ele>
        <time>2022-06-15T09:32:53Z</time>
      </trkpt>
      <trkpt lat="45.72606" lon="6.5475">
        <ele>706.7</ele>
        <time>2022-06-15T09:32:54Z</time>
      </trkpt>
      <trkpt lat="45.72609" lon="6.54744">
        <ele>706</ele>
        <time>2022-06-15T09:32:55Z</time>
      </trkpt>
      <trkpt lat="45.72612" lon="6.54738">
        <ele>705.1</ele>
        <time>2022-06-15T09:32:56Z</time>
      </trkpt>
      <trkpt lat="45.72615" lon="6.54732">
        <ele>703.4</ele>
        <time>2022-06-15T09:32:57Z</time>
      </trkpt>
      <trkpt lat="45.72618" lon="6.54726">
        <ele>701.6</ele>
        <time>2022-06-15T09:32:58Z</time>
      </trkpt>
      <trkpt lat="45.72621" lon="6.5472">
        <ele>700.2</ele>
        <time>2022-06-15T09:32:59Z</time>
      </trkpt>
      <trkpt lat="45.72625" lon="6.54715">
        <ele>699.9</ele>
        <time>2022-06-15T09:33:00Z</time>
      </trkpt>
      <trkpt lat="45.72628" lon="6.54709">
        <ele>699.8</ele>
        <time>2022-06-15T09:33:01Z</time>
      </trkpt>
      <trkpt lat="45.72632" lon="6.54703">
        <ele>699.7</ele>
        <time>2022-06-15T09:33:02Z</time>
      </trkpt>
      <trkpt lat="45.72636" lon="6.54698">
        <ele>699.8</ele>
        <time>2022-06-15T09:33:03Z</time>
      </trkpt>
      <trkpt lat="45.72639" lon="6.54692">
        <ele>699.8</ele>
        <time>2022-06-15T09:33:04Z</time>
      </trkpt>
      <trkpt lat="45.72642" lon="6.54686">
        <ele>699.4</ele>
        <time>2022-06-15T09:33:05Z</time>
      </trkpt>
      <trkpt lat="45.72645" lon="6.54681">
        <ele>699.1</ele>
        <time>2022-06-15T09:33:06Z</time>
      </trkpt>
      <trkpt lat="45.72649" lon="6.54675">
        <ele>699</ele>
        <time>2022-06-15T09:33:07Z</time>
      </trkpt>
      <trkpt lat="45.72652" lon="6.54668">
        <ele>699</ele>
        <time>2022-06-15T09:33:08Z</time>
      </trkpt>
      <trkpt lat="45.72656" lon="6.54662">
        <ele>699.1</ele>
        <time>2022-06-15T09:33:09Z</time>
      </trkpt>
      <trkpt lat="45.72659" lon="6.54655">
        <ele>699.2</ele>
        <time>2022-06-15T09:33:10Z</time>
      </trkpt>
      <trkpt lat="45.72663" lon="6.54649">
        <ele>699.2</ele>
        <time>2022-06-15T09:33:11Z</time>
      </trkpt>
      <trkpt lat="45.72667" lon="6.54642">
        <ele>699.1</ele>
        <time>2022-06-15T09:33:12Z</time>
      </trkpt>
      <trkpt lat="45.7267" lon="6.54634">
        <ele>699.3</ele>
        <time>2022-06-15T09:33:13Z</time>
      </trkpt>
      <trkpt lat="45.72673" lon="6.54626">
        <ele>699.5</ele>
        <time>2022-06-15T09:33:14Z</time>
      </trkpt>
      <trkpt lat="45.72676" lon="6.54618">
        <ele>699.5</ele>
        <time>2022-06-15T09:33:15Z</time>
      </trkpt>
      <trkpt lat="45.72679" lon="6.54611">
        <ele>699.4</ele>
        <time>2022-06-15T09:33:16Z</time>
      </trkpt>
      <trkpt lat="45.72683" lon="6.54606">
        <ele>699.3</ele>
        <time>2022-06-15T09:33:17Z</time>
      </trkpt>
      <trkpt lat="45.72688" lon="6.54604">
        <ele>699.4</ele>
        <time>2022-06-15T09:33:18Z</time>
      </trkpt>
      <trkpt lat="45.72691" lon="6.54608">
        <ele>699.7</ele>
        <time>2022-06-15T09:33:19Z</time>
      </trkpt>
      <trkpt lat="45.72693" lon="6.54613">
        <ele>700.1</ele>
        <time>2022-06-15T09:33:20Z</time>
      </trkpt>
      <trkpt lat="45.72694" lon="6.54618">
        <ele>700.5</ele>
        <time>2022-06-15T09:33:21Z</time>
      </trkpt>
      <trkpt lat="45.72694" lon="6.54624">
        <ele>700.9</ele>
        <time>2022-06-15T09:33:22Z</time>
      </trkpt>
      <trkpt lat="45.72695" lon="6.54628">
        <ele>701.4</ele>
        <time>2022-06-15T09:33:23Z</time>
      </trkpt>
      <trkpt lat="45.72695" lon="6.54633">
        <ele>701.8</ele>
        <time>2022-06-15T09:33:24Z</time>
      </trkpt>
      <trkpt lat="45.72695" lon="6.54638">
        <ele>702</ele>
        <time>2022-06-15T09:33:25Z</time>
      </trkpt>
      <trkpt lat="45.72695" lon="6.54643">
        <ele>702.1</ele>
        <time>2022-06-15T09:33:26Z</time>
      </trkpt>
      <trkpt lat="45.72695" lon="6.54648">
        <ele>702.2</ele>
        <time>2022-06-15T09:33:27Z</time>
      </trkpt>
      <trkpt lat="45.72695" lon="6.54653">
        <ele>702.2</ele>
        <time>2022-06-15T09:33:28Z</time>
      </trkpt>
      <trkpt lat="45.72695" lon="6.54658">
        <ele>702.2</ele>
        <time>2022-06-15T09:33:29Z</time>
      </trkpt>
      <trkpt lat="45.72695" lon="6.54663">
        <ele>702.4</ele>
        <time>2022-06-15T09:33:30Z</time>
      </trkpt>
      <trkpt lat="45.72696" lon="6.54668">
        <ele>702.6</ele>
        <time>2022-06-15T09:33:31Z</time>
      </trkpt>
      <trkpt lat="45.72696" lon="6.54673">
        <ele>702.8</ele>
        <time>2022-06-15T09:33:32Z</time>
      </trkpt>
      <trkpt lat="45.72696" lon="6.54678">
        <ele>703.1</ele>
        <time>2022-06-15T09:33:33Z</time>
      </trkpt>
      <trkpt lat="45.72696" lon="6.54683">
        <ele>703.2</ele>
        <time>2022-06-15T09:33:34Z</time>
      </trkpt>
      <trkpt lat="45.72696" lon="6.54687">
        <ele>703.4</ele>
        <time>2022-06-15T09:33:35Z</time>
      </trkpt>
      <trkpt lat="45.72696" lon="6.54691">
        <ele>703.6</ele>
        <time>2022-06-15T09:33:36Z</time>
      </trkpt>
      <trkpt lat="45.72696" lon="6.54696">
        <ele>703.9</ele>
        <time>2022-06-15T09:33:37Z</time>
      </trkpt>
      <trkpt lat="45.72697" lon="6.54699">
        <ele>704.3</ele>
        <time>2022-06-15T09:33:38Z</time>
      </trkpt>
      <trkpt lat="45.72697" lon="6.54703">
        <ele>704.7</ele>
        <time>2022-06-15T09:33:39Z</time>
      </trkpt>
      <trkpt lat="45.72698" lon="6.54707">
        <ele>705.2</ele>
        <time>2022-06-15T09:33:40Z</time>
      </trkpt>
      <trkpt lat="45.72698" lon="6.54711">
        <ele>705.5</ele>
        <time>2022-06-15T09:33:41Z</time>
      </trkpt>
      <trkpt lat="45.72698" lon="6.54715">
        <ele>705.9</ele>
        <time>2022-06-15T09:33:42Z</time>
      </trkpt>
      <trkpt lat="45.72698" lon="6.54719">
        <ele>706.2</ele>
        <time>2022-06-15T09:33:43Z</time>
      </trkpt>
      <trkpt lat="45.72698" lon="6.54723">
        <ele>706.5</ele>
        <time>2022-06-15T09:33:44Z</time>
      </trkpt>
      <trkpt lat="45.72698" lon="6.54727">
        <ele>706.8</ele>
        <time>2022-06-15T09:33:45Z</time>
      </trkpt>
      <trkpt lat="45.72699" lon="6.5473">
        <ele>707.2</ele>
        <time>2022-06-15T09:33:46Z</time>
      </trkpt>
      <trkpt lat="45.72699" lon="6.54734">
        <ele>707.4</ele>
        <time>2022-06-15T09:33:47Z</time>
      </trkpt>
      <trkpt lat="45.72699" lon="6.54737">
        <ele>707.8</ele>
        <time>2022-06-15T09:33:48Z</time>
      </trkpt>
      <trkpt lat="45.72699" lon="6.54741">
        <ele>708.1</ele>
        <time>2022-06-15T09:33:49Z</time>
      </trkpt>
      <trkpt lat="45.727" lon="6.54744">
        <ele>708.4</ele>
        <time>2022-06-15T09:33:50Z</time>
      </trkpt>
      <trkpt lat="45.727" lon="6.54748">
        <ele>708.9</ele>
        <time>2022-06-15T09:33:51Z</time>
      </trkpt>
      <trkpt lat="45.72701" lon="6.54751">
        <ele>709.1</ele>
        <time>2022-06-15T09:33:52Z</time>
      </trkpt>
      <trkpt lat="45.72701" lon="6.54755">
        <ele>709.1</ele>
        <time>2022-06-15T09:33:53Z</time>
      </trkpt>
      <trkpt lat="45.72702" lon="6.54758">
        <ele>709.2</ele>
        <time>2022-06-15T09:33:54Z</time>
      </trkpt>
      <trkpt lat="45.72703" lon="6.54762">
        <ele>709.2</ele>
        <time>2022-06-15T09:33:55Z</time>
      </trkpt>
      <trkpt lat="45.72703" lon="6.54765">
        <ele>709.3</ele>
        <time>2022-06-15T09:33:56Z</time>
      </trkpt>
      <trkpt lat="45.72704" lon="6.54769">
        <ele>709.2</ele>
        <time>2022-06-15T09:33:57Z</time>
      </trkpt>
      <trkpt lat="45.72705" lon="6.54772">
        <ele>709.2</ele>
        <time>2022-06-15T09:33:58Z</time>
      </trkpt>
      <trkpt lat="45.72705" lon="6.54776">
        <ele>709.1</ele>
        <time>2022-06-15T09:33:59Z</time>
      </trkpt>
      <trkpt lat="45.72705" lon="6.54779">
        <ele>709</ele>
        <time>2022-06-15T09:34:00Z</time>
      </trkpt>
      <trkpt lat="45.72706" lon="6.54783">
        <ele>708.9</ele>
        <time>2022-06-15T09:34:01Z</time>
      </trkpt>
      <trkpt lat="45.72706" lon="6.54786">
        <ele>708.9</ele>
        <time>2022-06-15T09:34:02Z</time>
      </trkpt>
      <trkpt lat="45.72707" lon="6.54789">
        <ele>708.9</ele>
        <time>2022-06-15T09:34:03Z</time>
      </trkpt>
      <trkpt lat="45.72708" lon="6.54793">
        <ele>708.8</ele>
        <time>2022-06-15T09:34:04Z</time>
      </trkpt>
      <trkpt lat="45.72708" lon="6.54796">
        <ele>708.6</ele>
        <time>2022-06-15T09:34:05Z</time>
      </trkpt>
      <trkpt lat="45.72708" lon="6.548">
        <ele>708.4</ele>
        <time>2022-06-15T09:34:06Z</time>
      </trkpt>
      <trkpt lat="45.72709" lon="6.54803">
        <ele>708.2</ele>
        <time>2022-06-15T09:34:07Z</time>
      </trkpt>
      <trkpt lat="45.72709" lon="6.54806">
        <ele>708.2</ele>
        <time>2022-06-15T09:34:08Z</time>
      </trkpt>
      <trkpt lat="45.7271" lon="6.5481">
        <ele>708.7</ele>
        <time>2022-06-15T09:34:09Z</time>
      </trkpt>
      <trkpt lat="45.72711" lon="6.54813">
        <ele>709.2</ele>
        <time>2022-06-15T09:34:10Z</time>
      </trkpt>
      <trkpt lat="45.72712" lon="6.54817">
        <ele>709.7</ele>
        <time>2022-06-15T09:34:11Z</time>
      </trkpt>
      <trkpt lat="45.72712" lon="6.5482">
        <ele>710</ele>
        <time>2022-06-15T09:34:12Z</time>
      </trkpt>
      <trkpt lat="45.72713" lon="6.54824">
        <ele>710.5</ele>
        <time>2022-06-15T09:34:13Z</time>
      </trkpt>
      <trkpt lat="45.72714" lon="6.54827">
        <ele>711</ele>
        <time>2022-06-15T09:34:14Z</time>
      </trkpt>
      <trkpt lat="45.72714" lon="6.54831">
        <ele>711.3</ele>
        <time>2022-06-15T09:34:15Z</time>
      </trkpt>
      <trkpt lat="45.72715" lon="6.54834">
        <ele>711.8</ele>
        <time>2022-06-15T09:34:16Z</time>
      </trkpt>
      <trkpt lat="45.72715" lon="6.54838">
        <ele>712.4</ele>
        <time>2022-06-15T09:34:17Z</time>
      </trkpt>
      <trkpt lat="45.72716" lon="6.54841">
        <ele>713</ele>
        <time>2022-06-15T09:34:18Z</time>
      </trkpt>
      <trkpt lat="45.72716" lon="6.54845">
        <ele>713.5</ele>
        <time>2022-06-15T09:34:19Z</time>
      </trkpt>
      <trkpt lat="45.72716" lon="6.54848">
        <ele>713.9</ele>
        <time>2022-06-15T09:34:20Z</time>
      </trkpt>
      <trkpt lat="45.72716" lon="6.54851">
        <ele>714.4</ele>
        <time>2022-06-15T09:34:21Z</time>
      </trkpt>
      <trkpt lat="45.72715" lon="6.54854">
        <ele>714.8</ele>
        <time>2022-06-15T09:34:22Z</time>
      </trkpt>
      <trkpt lat="45.72714" lon="6.54858">
        <ele>715.2</ele>
        <time>2022-06-15T09:34:23Z</time>
      </trkpt>
      <trkpt lat="45.72714" lon="6.5486">
        <ele>715.5</ele>
        <time>2022-06-15T09:34:24Z</time>
      </trkpt>
      <trkpt lat="45.72713" lon="6.54863">
        <ele>715.7</ele>
        <time>2022-06-15T09:34:25Z</time>
      </trkpt>
      <trkpt lat="45.72713" lon="6.54866">
        <ele>715.8</ele>
        <time>2022-06-15T09:34:26Z</time>
      </trkpt>
      <trkpt lat="45.72712" lon="6.54869">
        <ele>715.8</ele>
        <time>2022-06-15T09:34:27Z</time>
      </trkpt>
      <trkpt lat="45.72711" lon="6.54873">
        <ele>715.8</ele>
        <time>2022-06-15T09:34:28Z</time>
      </trkpt>
      <trkpt lat="45.72711" lon="6.54876">
        <ele>715.9</ele>
        <time>2022-06-15T09:34:29Z</time>
      </trkpt>
      <trkpt lat="45.72711" lon="6.54879">
        <ele>716</ele>
        <time>2022-06-15T09:34:30Z</time>
      </trkpt>
      <trkpt lat="45.72711" lon="6.54882">
        <ele>716</ele>
        <time>2022-06-15T09:34:31Z</time>
      </trkpt>
      <trkpt lat="45.72711" lon="6.54884">
        <ele>716.1</ele>
        <time>2022-06-15T09:34:32Z</time>
      </trkpt>
      <trkpt lat="45.72712" lon="6.54885">
        <ele>716.2</ele>
        <time>2022-06-15T09:34:33Z</time>
      </trkpt>
      <trkpt lat="45.72713" lon="6.54886">
        <ele>716.2</ele>
        <time>2022-06-15T09:34:34Z</time>
      </trkpt>
      <trkpt lat="45.72713" lon="6.54886">
        <ele>716.3</ele>
        <time>2022-06-15T09:34:35Z</time>
      </trkpt>
      <trkpt lat="45.72714" lon="6.54887">
        <ele>716.3</ele>
        <time>2022-06-15T09:34:36Z</time>
      </trkpt>
      <trkpt lat="45.72714" lon="6.54887">
        <ele>716.4</ele>
        <time>2022-06-15T09:34:37Z</time>
      </trkpt>
      <trkpt lat="45.72715" lon="6.54886">
        <ele>716.4</ele>
        <time>2022-06-15T09:34:38Z</time>
      </trkpt>
      <trkpt lat="45.72715" lon="6.54886">
        <ele>716.4</ele>
        <time>2022-06-15T09:34:39Z</time>
      </trkpt>
      <trkpt lat="45.72716" lon="6.54886">
        <ele>716.5</ele>
        <time>2022-06-15T09:34:40Z</time>
      </trkpt>
      <trkpt lat="45.72717" lon="6.54885">
        <ele>716.5</ele>
        <time>2022-06-15T09:34:41Z</time>
      </trkpt>
      <trkpt lat="45.72717" lon="6.54885">
        <ele>716.5</ele>
        <time>2022-06-15T09:34:42Z</time>
      </trkpt>
      <trkpt lat="45.72717" lon="6.54885">
        <ele>716.5</ele>
        <time>2022-06-15T09:34:43Z</time>
      </trkpt>
      <trkpt lat="45.72711" lon="6.54894">
        <ele>716.4</ele>
        <time>2022-06-15T09:53:29Z</time>
      </trkpt>
      <trkpt lat="45.72711" lon="6.54895">
        <ele>716.4</ele>
        <time>2022-06-15T09:53:30Z</time>
      </trkpt>
      <trkpt lat="45.72711" lon="6.54895">
        <ele>716.4</ele>
        <time>2022-06-15T09:53:31Z</time>
      </trkpt>
      <trkpt lat="45.72711" lon="6.54895">
        <ele>716.4</ele>
        <time>2022-06-15T09:53:32Z</time>
      </trkpt>
      <trkpt lat="45.72715" lon="6.54902">
        <ele>717</ele>
        <time>2022-06-15T09:53:40Z</time>
      </trkpt>
      <trkpt lat="45.72717" lon="6.54903">
        <ele>717.1</ele>
        <time>2022-06-15T09:53:41Z</time>
      </trkpt>
      <trkpt lat="45.72718" lon="6.54905">
        <ele>717.3</ele>
        <time>2022-06-15T09:53:42Z</time>
      </trkpt>
      <trkpt lat="45.72719" lon="6.54907">
        <ele>717.4</ele>
        <time>2022-06-15T09:53:43Z</time>
      </trkpt>
      <trkpt lat="45.72719" lon="6.5491">
        <ele>717.5</ele>
        <time>2022-06-15T09:53:44Z</time>
      </trkpt>
      <trkpt lat="45.7272" lon="6.54912">
        <ele>717.7</ele>
        <time>2022-06-15T09:53:45Z</time>
      </trkpt>
      <trkpt lat="45.72721" lon="6.54913">
        <ele>717.8</ele>
        <time>2022-06-15T09:53:46Z</time>
      </trkpt>
      <trkpt lat="45.72722" lon="6.54915">
        <ele>717.9</ele>
        <time>2022-06-15T09:53:47Z</time>
      </trkpt>
      <trkpt lat="45.72723" lon="6.54916">
        <ele>718.2</ele>
        <time>2022-06-15T09:53:48Z</time>
      </trkpt>
      <trkpt lat="45.72725" lon="6.54917">
        <ele>718.7</ele>
        <time>2022-06-15T09:53:49Z</time>
      </trkpt>
      <trkpt lat="45.72727" lon="6.54918">
        <ele>719.2</ele>
        <time>2022-06-15T09:53:50Z</time>
      </trkpt>
      <trkpt lat="45.72729" lon="6.54919">
        <ele>719.9</ele>
        <time>2022-06-15T09:53:51Z</time>
      </trkpt>
      <trkpt lat="45.72731" lon="6.5492">
        <ele>720.4</ele>
        <time>2022-06-15T09:53:52Z</time>
      </trkpt>
      <trkpt lat="45.72732" lon="6.54922">
        <ele>720.8</ele>
        <time>2022-06-15T09:53:53Z</time>
      </trkpt>
      <trkpt lat="45.72733" lon="6.54925">
        <ele>721</ele>
        <time>2022-06-15T09:53:54Z</time>
      </trkpt>
      <trkpt lat="45.72733" lon="6.54928">
        <ele>721</ele>
        <time>2022-06-15T09:53:55Z</time>
      </trkpt>
      <trkpt lat="45.72733" lon="6.54931">
        <ele>721.1</ele>
        <time>2022-06-15T09:53:56Z</time>
      </trkpt>
      <trkpt lat="45.72733" lon="6.54934">
        <ele>721.2</ele>
        <time>2022-06-15T09:53:57Z</time>
      </trkpt>
      <trkpt lat="45.72734" lon="6.54937">
        <ele>721.2</ele>
        <time>2022-06-15T09:53:58Z</time>
      </trkpt>
      <trkpt lat="45.72734" lon="6.5494">
        <ele>721.2</ele>
        <time>2022-06-15T09:53:59Z</time>
      </trkpt>
      <trkpt lat="45.72733" lon="6.54943">
        <ele>721.1</ele>
        <time>2022-06-15T09:54:00Z</time>
      </trkpt>
      <trkpt lat="45.72733" lon="6.54946">
        <ele>721.5</ele>
        <time>2022-06-15T09:54:01Z</time>
      </trkpt>
      <trkpt lat="45.72734" lon="6.5495">
        <ele>722</ele>
        <time>2022-06-15T09:54:02Z</time>
      </trkpt>
      <trkpt lat="45.72733" lon="6.54952">
        <ele>722.3</ele>
        <time>2022-06-15T09:54:03Z</time>
      </trkpt>
      <trkpt lat="45.72733" lon="6.54955">
        <ele>722.6</ele>
        <time>2022-06-15T09:54:04Z</time>
      </trkpt>
      <trkpt lat="45.72732" lon="6.54958">
        <ele>722.8</ele>
        <time>2022-06-15T09:54:05Z</time>
      </trkpt>
      <trkpt lat="45.72732" lon="6.5496">
        <ele>722.9</ele>
        <time>2022-06-15T09:54:06Z</time>
      </trkpt>
      <trkpt lat="45.72731" lon="6.54963">
        <ele>723.2</ele>
        <time>2022-06-15T09:54:07Z</time>
      </trkpt>
      <trkpt lat="45.72731" lon="6.54966">
        <ele>723.5</ele>
        <time>2022-06-15T09:54:08Z</time>
      </trkpt>
      <trkpt lat="45.7273" lon="6.54969">
        <ele>723.7</ele>
        <time>2022-06-15T09:54:09Z</time>
      </trkpt>
      <trkpt lat="45.72729" lon="6.54971">
        <ele>723.8</ele>
        <time>2022-06-15T09:54:10Z</time>
      </trkpt>
      <trkpt lat="45.72728" lon="6.54974">
        <ele>723.9</ele>
        <time>2022-06-15T09:54:11Z</time>
      </trkpt>
      <trkpt lat="45.72728" lon="6.54977">
        <ele>724</ele>
        <time>2022-06-15T09:54:12Z</time>
      </trkpt>
      <trkpt lat="45.72727" lon="6.5498">
        <ele>724</ele>
        <time>2022-06-15T09:54:13Z</time>
      </trkpt>
      <trkpt lat="45.72726" lon="6.54982">
        <ele>723.9</ele>
        <time>2022-06-15T09:54:14Z</time>
      </trkpt>
      <trkpt lat="45.72725" lon="6.54984">
        <ele>723.9</ele>
        <time>2022-06-15T09:54:15Z</time>
      </trkpt>
      <trkpt lat="45.72723" lon="6.54986">
        <ele>723.7</ele>
        <time>2022-06-15T09:54:16Z</time>
      </trkpt>
      <trkpt lat="45.72722" lon="6.54988">
        <ele>723.7</ele>
        <time>2022-06-15T09:54:17Z</time>
      </trkpt>
      <trkpt lat="45.7272" lon="6.54991">
        <ele>724</ele>
        <time>2022-06-15T09:54:18Z</time>
      </trkpt>
      <trkpt lat="45.72719" lon="6.54993">
        <ele>724.2</ele>
        <time>2022-06-15T09:54:19Z</time>
      </trkpt>
      <trkpt lat="45.72717" lon="6.54995">
        <ele>724.5</ele>
        <time>2022-06-15T09:54:20Z</time>
      </trkpt>
      <trkpt lat="45.72716" lon="6.54997">
        <ele>724.7</ele>
        <time>2022-06-15T09:54:21Z</time>
      </trkpt>
      <trkpt lat="45.72714" lon="6.54999">
        <ele>724.9</ele>
        <time>2022-06-15T09:54:22Z</time>
      </trkpt>
      <trkpt lat="45.72713" lon="6.55001">
        <ele>725.1</ele>
        <time>2022-06-15T09:54:23Z</time>
      </trkpt>
      <trkpt lat="45.72711" lon="6.55003">
        <ele>725.2</ele>
        <time>2022-06-15T09:54:24Z</time>
      </trkpt>
      <trkpt lat="45.72709" lon="6.55005">
        <ele>725.4</ele>
        <time>2022-06-15T09:54:25Z</time>
      </trkpt>
      <trkpt lat="45.72707" lon="6.55007">
        <ele>725.5</ele>
        <time>2022-06-15T09:54:26Z</time>
      </trkpt>
      <trkpt lat="45.72706" lon="6.55009">
        <ele>725.7</ele>
        <time>2022-06-15T09:54:27Z</time>
      </trkpt>
      <trkpt lat="45.72704" lon="6.55012">
        <ele>725.8</ele>
        <time>2022-06-15T09:54:28Z</time>
      </trkpt>
      <trkpt lat="45.72702" lon="6.55014">
        <ele>726</ele>
        <time>2022-06-15T09:54:29Z</time>
      </trkpt>
      <trkpt lat="45.72701" lon="6.55016">
        <ele>726.1</ele>
        <time>2022-06-15T09:54:30Z</time>
      </trkpt>
      <trkpt lat="45.72699" lon="6.55018">
        <ele>726.3</ele>
        <time>2022-06-15T09:54:31Z</time>
      </trkpt>
      <trkpt lat="45.72698" lon="6.55021">
        <ele>726.5</ele>
        <time>2022-06-15T09:54:32Z</time>
      </trkpt>
      <trkpt lat="45.72696" lon="6.55024">
        <ele>726.7</ele>
        <time>2022-06-15T09:54:33Z</time>
      </trkpt>
      <trkpt lat="45.72695" lon="6.55026">
        <ele>726.9</ele>
        <time>2022-06-15T09:54:34Z</time>
      </trkpt>
      <trkpt lat="45.72694" lon="6.55029">
        <ele>727</ele>
        <time>2022-06-15T09:54:35Z</time>
      </trkpt>
      <trkpt lat="45.72692" lon="6.55032">
        <ele>727.1</ele>
        <time>2022-06-15T09:54:36Z</time>
      </trkpt>
      <trkpt lat="45.72692" lon="6.55035">
        <ele>727.2</ele>
        <time>2022-06-15T09:54:37Z</time>
      </trkpt>
      <trkpt lat="45.72691" lon="6.55038">
        <ele>727.3</ele>
        <time>2022-06-15T09:54:38Z</time>
      </trkpt>
      <trkpt lat="45.7269" lon="6.55041">
        <ele>727.4</ele>
        <time>2022-06-15T09:54:39Z</time>
      </trkpt>
      <trkpt lat="45.72689" lon="6.55044">
        <ele>727.5</ele>
        <time>2022-06-15T09:54:40Z</time>
      </trkpt>
      <trkpt lat="45.72689" lon="6.55047">
        <ele>727.5</ele>
        <time>2022-06-15T09:54:41Z</time>
      </trkpt>
      <trkpt lat="45.72688" lon="6.5505">
        <ele>727.6</ele>
        <time>2022-06-15T09:54:42Z</time>
      </trkpt>
      <trkpt lat="45.72688" lon="6.55053">
        <ele>727.7</ele>
        <time>2022-06-15T09:54:43Z</time>
      </trkpt>
      <trkpt lat="45.72687" lon="6.55056">
        <ele>727.7</ele>
        <time>2022-06-15T09:54:44Z</time>
      </trkpt>
      <trkpt lat="45.72686" lon="6.55059">
        <ele>727.8</ele>
        <time>2022-06-15T09:54:45Z</time>
      </trkpt>
      <trkpt lat="45.72686" lon="6.55063">
        <ele>727.8</ele>
        <time>2022-06-15T09:54:46Z</time>
      </trkpt>
      <trkpt lat="45.72686" lon="6.55067">
        <ele>727.9</ele>
        <time>2022-06-15T09:54:47Z</time>
      </trkpt>
      <trkpt lat="45.72686" lon="6.55069">
        <ele>727.9</ele>
        <time>2022-06-15T09:54:48Z</time>
      </trkpt>
      <trkpt lat="45.72686" lon="6.55072">
        <ele>727.9</ele>
        <time>2022-06-15T09:54:49Z</time>
      </trkpt>
      <trkpt lat="45.72686" lon="6.55076">
        <ele>728</ele>
        <time>2022-06-15T09:54:50Z</time>
      </trkpt>
      <trkpt lat="45.72686" lon="6.5508">
        <ele>728</ele>
        <time>2022-06-15T09:54:51Z</time>
      </trkpt>
      <trkpt lat="45.72686" lon="6.55083">
        <ele>728.1</ele>
        <time>2022-06-15T09:54:52Z</time>
      </trkpt>
      <trkpt lat="45.72686" lon="6.55086">
        <ele>728.1</ele>
        <time>2022-06-15T09:54:53Z</time>
      </trkpt>
      <trkpt lat="45.72686" lon="6.5509">
        <ele>728.2</ele>
        <time>2022-06-15T09:54:54Z</time>
      </trkpt>
      <trkpt lat="45.72687" lon="6.55093">
        <ele>728.3</ele>
        <time>2022-06-15T09:54:55Z</time>
      </trkpt>
      <trkpt lat="45.72688" lon="6.55097">
        <ele>728.5</ele>
        <time>2022-06-15T09:54:56Z</time>
      </trkpt>
      <trkpt lat="45.72688" lon="6.551">
        <ele>728.6</ele>
        <time>2022-06-15T09:54:57Z</time>
      </trkpt>
      <trkpt lat="45.72689" lon="6.55104">
        <ele>728.8</ele>
        <time>2022-06-15T09:54:58Z</time>
      </trkpt>
      <trkpt lat="45.7269" lon="6.55107">
        <ele>729</ele>
        <time>2022-06-15T09:54:59Z</time>
      </trkpt>
      <trkpt lat="45.72691" lon="6.5511">
        <ele>729.3</ele>
        <time>2022-06-15T09:55:00Z</time>
      </trkpt>
      <trkpt lat="45.72691" lon="6.55113">
        <ele>729.5</ele>
        <time>2022-06-15T09:55:01Z</time>
      </trkpt>
      <trkpt lat="45.72692" lon="6.55117">
        <ele>729.8</ele>
        <time>2022-06-15T09:55:02Z</time>
      </trkpt>
      <trkpt lat="45.72693" lon="6.5512">
        <ele>730</ele>
        <time>2022-06-15T09:55:03Z</time>
      </trkpt>
      <trkpt lat="45.72693" lon="6.55123">
        <ele>730.2</ele>
        <time>2022-06-15T09:55:04Z</time>
      </trkpt>
      <trkpt lat="45.72694" lon="6.55127">
        <ele>730.4</ele>
        <time>2022-06-15T09:55:05Z</time>
      </trkpt>
      <trkpt lat="45.72694" lon="6.5513">
        <ele>730.6</ele>
        <time>2022-06-15T09:55:06Z</time>
      </trkpt>
      <trkpt lat="45.72695" lon="6.55133">
        <ele>730.8</ele>
        <time>2022-06-15T09:55:07Z</time>
      </trkpt>
      <trkpt lat="45.72695" lon="6.55137">
        <ele>730.9</ele>
        <time>2022-06-15T09:55:08Z</time>
      </trkpt>
      <trkpt lat="45.72694" lon="6.5514">
        <ele>731</ele>
        <time>2022-06-15T09:55:09Z</time>
      </trkpt>
      <trkpt lat="45.72694" lon="6.55144">
        <ele>731.1</ele>
        <time>2022-06-15T09:55:10Z</time>
      </trkpt>
      <trkpt lat="45.72694" lon="6.55149">
        <ele>731.3</ele>
        <time>2022-06-15T09:55:11Z</time>
      </trkpt>
      <trkpt lat="45.72694" lon="6.55151">
        <ele>731.3</ele>
        <time>2022-06-15T09:55:12Z</time>
      </trkpt>
      <trkpt lat="45.72694" lon="6.55155">
        <ele>731.4</ele>
        <time>2022-06-15T09:55:13Z</time>
      </trkpt>
      <trkpt lat="45.72694" lon="6.55158">
        <ele>731.5</ele>
        <time>2022-06-15T09:55:14Z</time>
      </trkpt>
      <trkpt lat="45.72693" lon="6.55161">
        <ele>731.5</ele>
        <time>2022-06-15T09:55:15Z</time>
      </trkpt>
      <trkpt lat="45.72692" lon="6.55164">
        <ele>731.5</ele>
        <time>2022-06-15T09:55:16Z</time>
      </trkpt>
      <trkpt lat="45.72692" lon="6.55168">
        <ele>731.6</ele>
        <time>2022-06-15T09:55:17Z</time>
      </trkpt>
      <trkpt lat="45.72692" lon="6.55171">
        <ele>731.6</ele>
        <time>2022-06-15T09:55:18Z</time>
      </trkpt>
      <trkpt lat="45.72691" lon="6.55174">
        <ele>731.6</ele>
        <time>2022-06-15T09:55:19Z</time>
      </trkpt>
      <trkpt lat="45.72691" lon="6.55177">
        <ele>731.6</ele>
        <time>2022-06-15T09:55:20Z</time>
      </trkpt>
      <trkpt lat="45.7269" lon="6.55181">
        <ele>731.7</ele>
        <time>2022-06-15T09:55:21Z</time>
      </trkpt>
      <trkpt lat="45.7269" lon="6.55184">
        <ele>731.7</ele>
        <time>2022-06-15T09:55:22Z</time>
      </trkpt>
      <trkpt lat="45.7269" lon="6.55189">
        <ele>731.9</ele>
        <time>2022-06-15T09:55:23Z</time>
      </trkpt>
      <trkpt lat="45.7269" lon="6.55191">
        <ele>731.9</ele>
        <time>2022-06-15T09:55:24Z</time>
      </trkpt>
      <trkpt lat="45.7269" lon="6.55195">
        <ele>731.9</ele>
        <time>2022-06-15T09:55:25Z</time>
      </trkpt>
      <trkpt lat="45.7269" lon="6.55199">
        <ele>732.1</ele>
        <time>2022-06-15T09:55:26Z</time>
      </trkpt>
      <trkpt lat="45.7269" lon="6.55203">
        <ele>732.2</ele>
        <time>2022-06-15T09:55:27Z</time>
      </trkpt>
      <trkpt lat="45.7269" lon="6.55208">
        <ele>732.5</ele>
        <time>2022-06-15T09:55:28Z</time>
      </trkpt>
      <trkpt lat="45.7269" lon="6.5521">
        <ele>732.6</ele>
        <time>2022-06-15T09:55:29Z</time>
      </trkpt>
      <trkpt lat="45.72691" lon="6.55214">
        <ele>732.9</ele>
        <time>2022-06-15T09:55:30Z</time>
      </trkpt>
      <trkpt lat="45.72691" lon="6.55218">
        <ele>733.1</ele>
        <time>2022-06-15T09:55:31Z</time>
      </trkpt>
      <trkpt lat="45.72692" lon="6.55223">
        <ele>733.4</ele>
        <time>2022-06-15T09:55:32Z</time>
      </trkpt>
      <trkpt lat="45.72692" lon="6.55225">
        <ele>733.5</ele>
        <time>2022-06-15T09:55:33Z</time>
      </trkpt>
      <trkpt lat="45.72692" lon="6.55229">
        <ele>733.7</ele>
        <time>2022-06-15T09:55:34Z</time>
      </trkpt>
      <trkpt lat="45.72692" lon="6.55233">
        <ele>733.9</ele>
        <time>2022-06-15T09:55:35Z</time>
      </trkpt>
      <trkpt lat="45.72693" lon="6.55237">
        <ele>734.1</ele>
        <time>2022-06-15T09:55:36Z</time>
      </trkpt>
      <trkpt lat="45.72693" lon="6.5524">
        <ele>734.3</ele>
        <time>2022-06-15T09:55:37Z</time>
      </trkpt>
      <trkpt lat="45.72694" lon="6.55244">
        <ele>734.6</ele>
        <time>2022-06-15T09:55:38Z</time>
      </trkpt>
      <trkpt lat="45.72694" lon="6.55248">
        <ele>734.7</ele>
        <time>2022-06-15T09:55:39Z</time>
      </trkpt>
      <trkpt lat="45.72694" lon="6.55251">
        <ele>734.8</ele>
        <time>2022-06-15T09:55:40Z</time>
      </trkpt>
      <trkpt lat="45.72694" lon="6.55255">
        <ele>734.9</ele>
        <time>2022-06-15T09:55:41Z</time>
      </trkpt>
      <trkpt lat="45.72694" lon="6.55259">
        <ele>735</ele>
        <time>2022-06-15T09:55:42Z</time>
      </trkpt>
      <trkpt lat="45.72695" lon="6.55262">
        <ele>735</ele>
        <time>2022-06-15T09:55:43Z</time>
      </trkpt>
      <trkpt lat="45.72695" lon="6.55267">
        <ele>735.2</ele>
        <time>2022-06-15T09:55:44Z</time>
      </trkpt>
      <trkpt lat="45.72696" lon="6.55269">
        <ele>735.3</ele>
        <time>2022-06-15T09:55:45Z</time>
      </trkpt>
      <trkpt lat="45.72696" lon="6.55273">
        <ele>735.4</ele>
        <time>2022-06-15T09:55:46Z</time>
      </trkpt>
      <trkpt lat="45.72697" lon="6.55277">
        <ele>735.6</ele>
        <time>2022-06-15T09:55:47Z</time>
      </trkpt>
      <trkpt lat="45.72697" lon="6.5528">
        <ele>735.9</ele>
        <time>2022-06-15T09:55:48Z</time>
      </trkpt>
      <trkpt lat="45.72698" lon="6.55284">
        <ele>736.5</ele>
        <time>2022-06-15T09:55:49Z</time>
      </trkpt>
      <trkpt lat="45.72699" lon="6.55288">
        <ele>736.9</ele>
        <time>2022-06-15T09:55:50Z</time>
      </trkpt>
      <trkpt lat="45.72699" lon="6.55291">
        <ele>737.3</ele>
        <time>2022-06-15T09:55:51Z</time>
      </trkpt>
      <trkpt lat="45.72699" lon="6.55295">
        <ele>737.6</ele>
        <time>2022-06-15T09:55:52Z</time>
      </trkpt>
      <trkpt lat="45.72699" lon="6.55299">
        <ele>737.8</ele>
        <time>2022-06-15T09:55:53Z</time>
      </trkpt>
      <trkpt lat="45.72699" lon="6.55302">
        <ele>738.1</ele>
        <time>2022-06-15T09:55:54Z</time>
      </trkpt>
      <trkpt lat="45.72699" lon="6.55306">
        <ele>738.3</ele>
        <time>2022-06-15T09:55:55Z</time>
      </trkpt>
      <trkpt lat="45.72699" lon="6.5531">
        <ele>738.5</ele>
        <time>2022-06-15T09:55:56Z</time>
      </trkpt>
      <trkpt lat="45.727" lon="6.55313">
        <ele>738.7</ele>
        <time>2022-06-15T09:55:57Z</time>
      </trkpt>
      <trkpt lat="45.727" lon="6.55317">
        <ele>738.9</ele>
        <time>2022-06-15T09:55:58Z</time>
      </trkpt>
      <trkpt lat="45.72699" lon="6.55321">
        <ele>738.9</ele>
        <time>2022-06-15T09:55:59Z</time>
      </trkpt>
      <trkpt lat="45.72699" lon="6.55325">
        <ele>739</ele>
        <time>2022-06-15T09:56:00Z</time>
      </trkpt>
      <trkpt lat="45.72699" lon="6.55328">
        <ele>739.1</ele>
        <time>2022-06-15T09:56:01Z</time>
      </trkpt>
      <trkpt lat="45.72699" lon="6.55332">
        <ele>739.3</ele>
        <time>2022-06-15T09:56:02Z</time>
      </trkpt>
      <trkpt lat="45.72699" lon="6.55335">
        <ele>739.5</ele>
        <time>2022-06-15T09:56:03Z</time>
      </trkpt>
      <trkpt lat="45.72699" lon="6.55339">
        <ele>739.6</ele>
        <time>2022-06-15T09:56:04Z</time>
      </trkpt>
      <trkpt lat="45.72699" lon="6.55342">
        <ele>739.7</ele>
        <time>2022-06-15T09:56:05Z</time>
      </trkpt>
      <trkpt lat="45.72699" lon="6.55346">
        <ele>739.9</ele>
        <time>2022-06-15T09:56:06Z</time>
      </trkpt>
      <trkpt lat="45.72698" lon="6.55349">
        <ele>739.9</ele>
        <time>2022-06-15T09:56:07Z</time>
      </trkpt>
      <trkpt lat="45.72698" lon="6.55353">
        <ele>740.1</ele>
        <time>2022-06-15T09:56:08Z</time>
      </trkpt>
      <trkpt lat="45.72697" lon="6.55356">
        <ele>740.1</ele>
        <time>2022-06-15T09:56:09Z</time>
      </trkpt>
      <trkpt lat="45.72697" lon="6.5536">
        <ele>740.3</ele>
        <time>2022-06-15T09:56:10Z</time>
      </trkpt>
      <trkpt lat="45.72696" lon="6.55363">
        <ele>740.4</ele>
        <time>2022-06-15T09:56:11Z</time>
      </trkpt>
      <trkpt lat="45.72696" lon="6.55366">
        <ele>740.6</ele>
        <time>2022-06-15T09:56:12Z</time>
      </trkpt>
      <trkpt lat="45.72696" lon="6.5537">
        <ele>740.8</ele>
        <time>2022-06-15T09:56:13Z</time>
      </trkpt>
      <trkpt lat="45.72695" lon="6.55374">
        <ele>741.1</ele>
        <time>2022-06-15T09:56:14Z</time>
      </trkpt>
      <trkpt lat="45.72695" lon="6.55377">
        <ele>741.3</ele>
        <time>2022-06-15T09:56:15Z</time>
      </trkpt>
      <trkpt lat="45.72696" lon="6.55381">
        <ele>741.7</ele>
        <time>2022-06-15T09:56:16Z</time>
      </trkpt>
      <trkpt lat="45.72696" lon="6.55384">
        <ele>742</ele>
        <time>2022-06-15T09:56:17Z</time>
      </trkpt>
      <trkpt lat="45.72697" lon="6.55387">
        <ele>742.4</ele>
        <time>2022-06-15T09:56:18Z</time>
      </trkpt>
      <trkpt lat="45.72699" lon="6.5539">
        <ele>742.9</ele>
        <time>2022-06-15T09:56:19Z</time>
      </trkpt>
      <trkpt lat="45.727" lon="6.55392">
        <ele>743.5</ele>
        <time>2022-06-15T09:56:20Z</time>
      </trkpt>
      <trkpt lat="45.72703" lon="6.55394">
        <ele>744.2</ele>
        <time>2022-06-15T09:56:21Z</time>
      </trkpt>
      <trkpt lat="45.72705" lon="6.55395">
        <ele>744.9</ele>
        <time>2022-06-15T09:56:22Z</time>
      </trkpt>
      <trkpt lat="45.72708" lon="6.55396">
        <ele>745.8</ele>
        <time>2022-06-15T09:56:23Z</time>
      </trkpt>
      <trkpt lat="45.7271" lon="6.55396">
        <ele>746.6</ele>
        <time>2022-06-15T09:56:24Z</time>
      </trkpt>
      <trkpt lat="45.72713" lon="6.55395">
        <ele>747.2</ele>
        <time>2022-06-15T09:56:25Z</time>
      </trkpt>
      <trkpt lat="45.72715" lon="6.55394">
        <ele>747.5</ele>
        <time>2022-06-15T09:56:26Z</time>
      </trkpt>
      <trkpt lat="45.72718" lon="6.55392">
        <ele>747.6</ele>
        <time>2022-06-15T09:56:27Z</time>
      </trkpt>
      <trkpt lat="45.72719" lon="6.55389">
        <ele>747.4</ele>
        <time>2022-06-15T09:56:28Z</time>
      </trkpt>
      <trkpt lat="45.72721" lon="6.55386">
        <ele>747.4</ele>
        <time>2022-06-15T09:56:29Z</time>
      </trkpt>
      <trkpt lat="45.72722" lon="6.55383">
        <ele>747.3</ele>
        <time>2022-06-15T09:56:30Z</time>
      </trkpt>
      <trkpt lat="45.72723" lon="6.5538">
        <ele>747.4</ele>
        <time>2022-06-15T09:56:31Z</time>
      </trkpt>
      <trkpt lat="45.72724" lon="6.55377">
        <ele>747.7</ele>
        <time>2022-06-15T09:56:32Z</time>
      </trkpt>
      <trkpt lat="45.72724" lon="6.55373">
        <ele>747.5</ele>
        <time>2022-06-15T09:56:33Z</time>
      </trkpt>
      <trkpt lat="45.72724" lon="6.55369">
        <ele>747.2</ele>
        <time>2022-06-15T09:56:34Z</time>
      </trkpt>
      <trkpt lat="45.72725" lon="6.55366">
        <ele>747.1</ele>
        <time>2022-06-15T09:56:35Z</time>
      </trkpt>
      <trkpt lat="45.72725" lon="6.55362">
        <ele>746.9</ele>
        <time>2022-06-15T09:56:36Z</time>
      </trkpt>
      <trkpt lat="45.72725" lon="6.55358">
        <ele>747.1</ele>
        <time>2022-06-15T09:56:37Z</time>
      </trkpt>
      <trkpt lat="45.72726" lon="6.55355">
        <ele>747.5</ele>
        <time>2022-06-15T09:56:38Z</time>
      </trkpt>
      <trkpt lat="45.72726" lon="6.55351">
        <ele>747.8</ele>
        <time>2022-06-15T09:56:39Z</time>
      </trkpt>
      <trkpt lat="45.72727" lon="6.55348">
        <ele>748.1</ele>
        <time>2022-06-15T09:56:40Z</time>
      </trkpt>
      <trkpt lat="45.72727" lon="6.55344">
        <ele>748.3</ele>
        <time>2022-06-15T09:56:41Z</time>
      </trkpt>
      <trkpt lat="45.72728" lon="6.55341">
        <ele>748.7</ele>
        <time>2022-06-15T09:56:42Z</time>
      </trkpt>
      <trkpt lat="45.72728" lon="6.55337">
        <ele>749</ele>
        <time>2022-06-15T09:56:43Z</time>
      </trkpt>
      <trkpt lat="45.72729" lon="6.55334">
        <ele>749.5</ele>
        <time>2022-06-15T09:56:44Z</time>
      </trkpt>
      <trkpt lat="45.7273" lon="6.5533">
        <ele>750</ele>
        <time>2022-06-15T09:56:45Z</time>
      </trkpt>
      <trkpt lat="45.72732" lon="6.55327">
        <ele>750.5</ele>
        <time>2022-06-15T09:56:46Z</time>
      </trkpt>
      <trkpt lat="45.72733" lon="6.55324">
        <ele>750.9</ele>
        <time>2022-06-15T09:56:47Z</time>
      </trkpt>
      <trkpt lat="45.72734" lon="6.55321">
        <ele>751.5</ele>
        <time>2022-06-15T09:56:48Z</time>
      </trkpt>
      <trkpt lat="45.72735" lon="6.55318">
        <ele>752</ele>
        <time>2022-06-15T09:56:49Z</time>
      </trkpt>
      <trkpt lat="45.72737" lon="6.55315">
        <ele>752.6</ele>
        <time>2022-06-15T09:56:50Z</time>
      </trkpt>
      <trkpt lat="45.72738" lon="6.55312">
        <ele>753.2</ele>
        <time>2022-06-15T09:56:51Z</time>
      </trkpt>
      <trkpt lat="45.72739" lon="6.55309">
        <ele>753.6</ele>
        <time>2022-06-15T09:56:52Z</time>
      </trkpt>
      <trkpt lat="45.7274" lon="6.55305">
        <ele>754.1</ele>
        <time>2022-06-15T09:56:53Z</time>
      </trkpt>
      <trkpt lat="45.72742" lon="6.55302">
        <ele>754.2</ele>
        <time>2022-06-15T09:56:54Z</time>
      </trkpt>
      <trkpt lat="45.72743" lon="6.55299">
        <ele>754.1</ele>
        <time>2022-06-15T09:56:55Z</time>
      </trkpt>
      <trkpt lat="45.72744" lon="6.55295">
        <ele>754.1</ele>
        <time>2022-06-15T09:56:56Z</time>
      </trkpt>
      <trkpt lat="45.72746" lon="6.55292">
        <ele>754.1</ele>
        <time>2022-06-15T09:56:57Z</time>
      </trkpt>
      <trkpt lat="45.72747" lon="6.55289">
        <ele>754</ele>
        <time>2022-06-15T09:56:58Z</time>
      </trkpt>
      <trkpt lat="45.72748" lon="6.55286">
        <ele>753.8</ele>
        <time>2022-06-15T09:56:59Z</time>
      </trkpt>
      <trkpt lat="45.72749" lon="6.55283">
        <ele>753.6</ele>
        <time>2022-06-15T09:57:00Z</time>
      </trkpt>
      <trkpt lat="45.7275" lon="6.55279">
        <ele>753.4</ele>
        <time>2022-06-15T09:57:01Z</time>
      </trkpt>
      <trkpt lat="45.72751" lon="6.55277">
        <ele>753.6</ele>
        <time>2022-06-15T09:57:02Z</time>
      </trkpt>
      <trkpt lat="45.72753" lon="6.55273">
        <ele>753.8</ele>
        <time>2022-06-15T09:57:03Z</time>
      </trkpt>
      <trkpt lat="45.72754" lon="6.5527">
        <ele>754.2</ele>
        <time>2022-06-15T09:57:04Z</time>
      </trkpt>
      <trkpt lat="45.72755" lon="6.55267">
        <ele>754.5</ele>
        <time>2022-06-15T09:57:05Z</time>
      </trkpt>
      <trkpt lat="45.72756" lon="6.55264">
        <ele>754.8</ele>
        <time>2022-06-15T09:57:06Z</time>
      </trkpt>
      <trkpt lat="45.72757" lon="6.5526">
        <ele>754.9</ele>
        <time>2022-06-15T09:57:07Z</time>
      </trkpt>
      <trkpt lat="45.72758" lon="6.55257">
        <ele>755.2</ele>
        <time>2022-06-15T09:57:08Z</time>
      </trkpt>
      <trkpt lat="45.72759" lon="6.55254">
        <ele>755.4</ele>
        <time>2022-06-15T09:57:09Z</time>
      </trkpt>
      <trkpt lat="45.7276" lon="6.5525">
        <ele>755.6</ele>
        <time>2022-06-15T09:57:10Z</time>
      </trkpt>
      <trkpt lat="45.72761" lon="6.55247">
        <ele>755.9</ele>
        <time>2022-06-15T09:57:11Z</time>
      </trkpt>
      <trkpt lat="45.72762" lon="6.55244">
        <ele>756.2</ele>
        <time>2022-06-15T09:57:12Z</time>
      </trkpt>
      <trkpt lat="45.72763" lon="6.5524">
        <ele>756.5</ele>
        <time>2022-06-15T09:57:13Z</time>
      </trkpt>
      <trkpt lat="45.72764" lon="6.55237">
        <ele>756.7</ele>
        <time>2022-06-15T09:57:14Z</time>
      </trkpt>
      <trkpt lat="45.72765" lon="6.55234">
        <ele>756.9</ele>
        <time>2022-06-15T09:57:15Z</time>
      </trkpt>
      <trkpt lat="45.72766" lon="6.5523">
        <ele>756.9</ele>
        <time>2022-06-15T09:57:16Z</time>
      </trkpt>
      <trkpt lat="45.72766" lon="6.55227">
        <ele>757</ele>
        <time>2022-06-15T09:57:17Z</time>
      </trkpt>
      <trkpt lat="45.72767" lon="6.55223">
        <ele>757</ele>
        <time>2022-06-15T09:57:18Z</time>
      </trkpt>
      <trkpt lat="45.72768" lon="6.5522">
        <ele>757</ele>
        <time>2022-06-15T09:57:19Z</time>
      </trkpt>
      <trkpt lat="45.72768" lon="6.55216">
        <ele>757.1</ele>
        <time>2022-06-15T09:57:20Z</time>
      </trkpt>
      <trkpt lat="45.72769" lon="6.55213">
        <ele>757.2</ele>
        <time>2022-06-15T09:57:21Z</time>
      </trkpt>
      <trkpt lat="45.7277" lon="6.5521">
        <ele>757.3</ele>
        <time>2022-06-15T09:57:22Z</time>
      </trkpt>
      <trkpt lat="45.7277" lon="6.55206">
        <ele>757.5</ele>
        <time>2022-06-15T09:57:23Z</time>
      </trkpt>
      <trkpt lat="45.72771" lon="6.55203">
        <ele>757.6</ele>
        <time>2022-06-15T09:57:24Z</time>
      </trkpt>
      <trkpt lat="45.72772" lon="6.552">
        <ele>757.6</ele>
        <time>2022-06-15T09:57:25Z</time>
      </trkpt>
      <trkpt lat="45.72772" lon="6.55196">
        <ele>757.6</ele>
        <time>2022-06-15T09:57:26Z</time>
      </trkpt>
      <trkpt lat="45.72773" lon="6.55193">
        <ele>757.8</ele>
        <time>2022-06-15T09:57:27Z</time>
      </trkpt>
      <trkpt lat="45.72774" lon="6.5519">
        <ele>757.9</ele>
        <time>2022-06-15T09:57:28Z</time>
      </trkpt>
      <trkpt lat="45.72774" lon="6.55186">
        <ele>757.8</ele>
        <time>2022-06-15T09:57:29Z</time>
      </trkpt>
      <trkpt lat="45.72774" lon="6.55183">
        <ele>757.8</ele>
        <time>2022-06-15T09:57:30Z</time>
      </trkpt>
      <trkpt lat="45.72775" lon="6.55179">
        <ele>757.6</ele>
        <time>2022-06-15T09:57:31Z</time>
      </trkpt>
      <trkpt lat="45.72775" lon="6.55175">
        <ele>757.5</ele>
        <time>2022-06-15T09:57:32Z</time>
      </trkpt>
      <trkpt lat="45.72775" lon="6.55172">
        <ele>757.3</ele>
        <time>2022-06-15T09:57:33Z</time>
      </trkpt>
      <trkpt lat="45.72775" lon="6.55168">
        <ele>757.1</ele>
        <time>2022-06-15T09:57:34Z</time>
      </trkpt>
      <trkpt lat="45.72775" lon="6.55165">
        <ele>756.9</ele>
        <time>2022-06-15T09:57:35Z</time>
      </trkpt>
      <trkpt lat="45.72775" lon="6.55161">
        <ele>756.7</ele>
        <time>2022-06-15T09:57:36Z</time>
      </trkpt>
      <trkpt lat="45.72775" lon="6.55157">
        <ele>756.7</ele>
        <time>2022-06-15T09:57:37Z</time>
      </trkpt>
      <trkpt lat="45.72775" lon="6.55154">
        <ele>756.6</ele>
        <time>2022-06-15T09:57:38Z</time>
      </trkpt>
      <trkpt lat="45.72776" lon="6.5515">
        <ele>756.6</ele>
        <time>2022-06-15T09:57:39Z</time>
      </trkpt>
      <trkpt lat="45.72776" lon="6.55147">
        <ele>756.5</ele>
        <time>2022-06-15T09:57:40Z</time>
      </trkpt>
      <trkpt lat="45.72776" lon="6.55143">
        <ele>756.5</ele>
        <time>2022-06-15T09:57:41Z</time>
      </trkpt>
      <trkpt lat="45.72776" lon="6.5514">
        <ele>756.4</ele>
        <time>2022-06-15T09:57:42Z</time>
      </trkpt>
      <trkpt lat="45.72776" lon="6.55136">
        <ele>756.4</ele>
        <time>2022-06-15T09:57:43Z</time>
      </trkpt>
      <trkpt lat="45.72776" lon="6.55132">
        <ele>756.6</ele>
        <time>2022-06-15T09:57:44Z</time>
      </trkpt>
      <trkpt lat="45.72777" lon="6.55129">
        <ele>757</ele>
        <time>2022-06-15T09:57:45Z</time>
      </trkpt>
      <trkpt lat="45.72778" lon="6.55125">
        <ele>757.4</ele>
        <time>2022-06-15T09:57:46Z</time>
      </trkpt>
      <trkpt lat="45.72779" lon="6.55122">
        <ele>758</ele>
        <time>2022-06-15T09:57:47Z</time>
      </trkpt>
      <trkpt lat="45.72781" lon="6.55119">
        <ele>759.2</ele>
        <time>2022-06-15T09:57:48Z</time>
      </trkpt>
      <trkpt lat="45.72783" lon="6.55117">
        <ele>760.5</ele>
        <time>2022-06-15T09:57:49Z</time>
      </trkpt>
      <trkpt lat="45.72785" lon="6.55116">
        <ele>761.7</ele>
        <time>2022-06-15T09:57:50Z</time>
      </trkpt>
      <trkpt lat="45.72787" lon="6.55117">
        <ele>762.9</ele>
        <time>2022-06-15T09:57:51Z</time>
      </trkpt>
      <trkpt lat="45.72789" lon="6.55118">
        <ele>763.8</ele>
        <time>2022-06-15T09:57:52Z</time>
      </trkpt>
      <trkpt lat="45.72791" lon="6.55121">
        <ele>764.4</ele>
        <time>2022-06-15T09:57:53Z</time>
      </trkpt>
      <trkpt lat="45.72791" lon="6.55124">
        <ele>764.6</ele>
        <time>2022-06-15T09:57:54Z</time>
      </trkpt>
      <trkpt lat="45.72792" lon="6.55128">
        <ele>764.7</ele>
        <time>2022-06-15T09:57:55Z</time>
      </trkpt>
      <trkpt lat="45.72792" lon="6.55131">
        <ele>764.6</ele>
        <time>2022-06-15T09:57:56Z</time>
      </trkpt>
      <trkpt lat="45.72792" lon="6.55135">
        <ele>764.3</ele>
        <time>2022-06-15T09:57:57Z</time>
      </trkpt>
      <trkpt lat="45.72791" lon="6.55138">
        <ele>763.8</ele>
        <time>2022-06-15T09:57:58Z</time>
      </trkpt>
      <trkpt lat="45.7279" lon="6.55141">
        <ele>763.3</ele>
        <time>2022-06-15T09:57:59Z</time>
      </trkpt>
      <trkpt lat="45.72789" lon="6.55144">
        <ele>762.9</ele>
        <time>2022-06-15T09:58:00Z</time>
      </trkpt>
      <trkpt lat="45.72788" lon="6.55147">
        <ele>762.6</ele>
        <time>2022-06-15T09:58:01Z</time>
      </trkpt>
      <trkpt lat="45.72788" lon="6.5515">
        <ele>762.6</ele>
        <time>2022-06-15T09:58:02Z</time>
      </trkpt>
      <trkpt lat="45.72787" lon="6.55154">
        <ele>762.5</ele>
        <time>2022-06-15T09:58:03Z</time>
      </trkpt>
      <trkpt lat="45.72787" lon="6.55157">
        <ele>762.6</ele>
        <time>2022-06-15T09:58:04Z</time>
      </trkpt>
      <trkpt lat="45.72787" lon="6.5516">
        <ele>762.7</ele>
        <time>2022-06-15T09:58:05Z</time>
      </trkpt>
      <trkpt lat="45.72787" lon="6.55164">
        <ele>762.8</ele>
        <time>2022-06-15T09:58:06Z</time>
      </trkpt>
      <trkpt lat="45.72787" lon="6.55167">
        <ele>762.8</ele>
        <time>2022-06-15T09:58:07Z</time>
      </trkpt>
      <trkpt lat="45.72786" lon="6.5517">
        <ele>762.8</ele>
        <time>2022-06-15T09:58:08Z</time>
      </trkpt>
      <trkpt lat="45.72786" lon="6.55173">
        <ele>762.8</ele>
        <time>2022-06-15T09:58:09Z</time>
      </trkpt>
      <trkpt lat="45.72786" lon="6.55177">
        <ele>762.8</ele>
        <time>2022-06-15T09:58:10Z</time>
      </trkpt>
      <trkpt lat="45.72786" lon="6.5518">
        <ele>763</ele>
        <time>2022-06-15T09:58:11Z</time>
      </trkpt>
      <trkpt lat="45.72785" lon="6.55183">
        <ele>763.1</ele>
        <time>2022-06-15T09:58:12Z</time>
      </trkpt>
      <trkpt lat="45.72785" lon="6.55186">
        <ele>763.2</ele>
        <time>2022-06-15T09:58:13Z</time>
      </trkpt>
      <trkpt lat="45.72785" lon="6.5519">
        <ele>763.2</ele>
        <time>2022-06-15T09:58:14Z</time>
      </trkpt>
      <trkpt lat="45.72785" lon="6.55193">
        <ele>763.3</ele>
        <time>2022-06-15T09:58:15Z</time>
      </trkpt>
      <trkpt lat="45.72784" lon="6.55196">
        <ele>763.3</ele>
        <time>2022-06-15T09:58:16Z</time>
      </trkpt>
      <trkpt lat="45.72784" lon="6.552">
        <ele>763.3</ele>
        <time>2022-06-15T09:58:17Z</time>
      </trkpt>
      <trkpt lat="45.72783" lon="6.55203">
        <ele>763.4</ele>
        <time>2022-06-15T09:58:18Z</time>
      </trkpt>
      <trkpt lat="45.72783" lon="6.55206">
        <ele>763.5</ele>
        <time>2022-06-15T09:58:19Z</time>
      </trkpt>
      <trkpt lat="45.72783" lon="6.5521">
        <ele>763.7</ele>
        <time>2022-06-15T09:58:20Z</time>
      </trkpt>
      <trkpt lat="45.72783" lon="6.55213">
        <ele>763.9</ele>
        <time>2022-06-15T09:58:21Z</time>
      </trkpt>
      <trkpt lat="45.72783" lon="6.55217">
        <ele>764</ele>
        <time>2022-06-15T09:58:22Z</time>
      </trkpt>
      <trkpt lat="45.72782" lon="6.5522">
        <ele>764</ele>
        <time>2022-06-15T09:58:23Z</time>
      </trkpt>
      <trkpt lat="45.72782" lon="6.55224">
        <ele>764.2</ele>
        <time>2022-06-15T09:58:24Z</time>
      </trkpt>
      <trkpt lat="45.72781" lon="6.55227">
        <ele>764.3</ele>
        <time>2022-06-15T09:58:25Z</time>
      </trkpt>
      <trkpt lat="45.72781" lon="6.55231">
        <ele>764.3</ele>
        <time>2022-06-15T09:58:26Z</time>
      </trkpt>
      <trkpt lat="45.7278" lon="6.55234">
        <ele>764.4</ele>
        <time>2022-06-15T09:58:27Z</time>
      </trkpt>
      <trkpt lat="45.7278" lon="6.55237">
        <ele>764.5</ele>
        <time>2022-06-15T09:58:28Z</time>
      </trkpt>
      <trkpt lat="45.72779" lon="6.55241">
        <ele>764.6</ele>
        <time>2022-06-15T09:58:29Z</time>
      </trkpt>
      <trkpt lat="45.72779" lon="6.55244">
        <ele>764.7</ele>
        <time>2022-06-15T09:58:30Z</time>
      </trkpt>
      <trkpt lat="45.72778" lon="6.55247">
        <ele>764.6</ele>
        <time>2022-06-15T09:58:31Z</time>
      </trkpt>
      <trkpt lat="45.72777" lon="6.5525">
        <ele>764.5</ele>
        <time>2022-06-15T09:58:32Z</time>
      </trkpt>
      <trkpt lat="45.72776" lon="6.55253">
        <ele>764.5</ele>
        <time>2022-06-15T09:58:33Z</time>
      </trkpt>
      <trkpt lat="45.72776" lon="6.55257">
        <ele>764.5</ele>
        <time>2022-06-15T09:58:34Z</time>
      </trkpt>
      <trkpt lat="45.72775" lon="6.5526">
        <ele>764.5</ele>
        <time>2022-06-15T09:58:35Z</time>
      </trkpt>
      <trkpt lat="45.72774" lon="6.55263">
        <ele>764.6</ele>
        <time>2022-06-15T09:58:36Z</time>
      </trkpt>
      <trkpt lat="45.72774" lon="6.55267">
        <ele>764.5</ele>
        <time>2022-06-15T09:58:37Z</time>
      </trkpt>
      <trkpt lat="45.72773" lon="6.5527">
        <ele>764.6</ele>
        <time>2022-06-15T09:58:38Z</time>
      </trkpt>
      <trkpt lat="45.72773" lon="6.55273">
        <ele>764.6</ele>
        <time>2022-06-15T09:58:39Z</time>
      </trkpt>
      <trkpt lat="45.72772" lon="6.55277">
        <ele>764.7</ele>
        <time>2022-06-15T09:58:40Z</time>
      </trkpt>
      <trkpt lat="45.72772" lon="6.5528">
        <ele>764.9</ele>
        <time>2022-06-15T09:58:41Z</time>
      </trkpt>
      <trkpt lat="45.72771" lon="6.55283">
        <ele>765.2</ele>
        <time>2022-06-15T09:58:42Z</time>
      </trkpt>
      <trkpt lat="45.72771" lon="6.55286">
        <ele>765.5</ele>
        <time>2022-06-15T09:58:43Z</time>
      </trkpt>
      <trkpt lat="45.72771" lon="6.5529">
        <ele>765.7</ele>
        <time>2022-06-15T09:58:44Z</time>
      </trkpt>
      <trkpt lat="45.7277" lon="6.55293">
        <ele>766</ele>
        <time>2022-06-15T09:58:45Z</time>
      </trkpt>
      <trkpt lat="45.7277" lon="6.55297">
        <ele>766.4</ele>
        <time>2022-06-15T09:58:46Z</time>
      </trkpt>
      <trkpt lat="45.7277" lon="6.553">
        <ele>766.8</ele>
        <time>2022-06-15T09:58:47Z</time>
      </trkpt>
      <trkpt lat="45.7277" lon="6.55303">
        <ele>767.3</ele>
        <time>2022-06-15T09:58:48Z</time>
      </trkpt>
      <trkpt lat="45.7277" lon="6.55306">
        <ele>767.8</ele>
        <time>2022-06-15T09:58:49Z</time>
      </trkpt>
      <trkpt lat="45.7277" lon="6.55309">
        <ele>767.9</ele>
        <time>2022-06-15T09:58:50Z</time>
      </trkpt>
      <trkpt lat="45.7277" lon="6.55313">
        <ele>768.1</ele>
        <time>2022-06-15T09:58:51Z</time>
      </trkpt>
      <trkpt lat="45.7277" lon="6.55316">
        <ele>768.2</ele>
        <time>2022-06-15T09:58:52Z</time>
      </trkpt>
      <trkpt lat="45.7277" lon="6.55319">
        <ele>768.2</ele>
        <time>2022-06-15T09:58:53Z</time>
      </trkpt>
      <trkpt lat="45.72769" lon="6.55322">
        <ele>768.3</ele>
        <time>2022-06-15T09:58:54Z</time>
      </trkpt>
      <trkpt lat="45.72769" lon="6.55326">
        <ele>768.2</ele>
        <time>2022-06-15T09:58:55Z</time>
      </trkpt>
      <trkpt lat="45.72768" lon="6.55329">
        <ele>768.3</ele>
        <time>2022-06-15T09:58:56Z</time>
      </trkpt>
      <trkpt lat="45.72768" lon="6.55332">
        <ele>768.4</ele>
        <time>2022-06-15T09:58:57Z</time>
      </trkpt>
      <trkpt lat="45.72768" lon="6.55336">
        <ele>768.7</ele>
        <time>2022-06-15T09:58:58Z</time>
      </trkpt>
      <trkpt lat="45.72768" lon="6.55339">
        <ele>769</ele>
        <time>2022-06-15T09:58:59Z</time>
      </trkpt>
      <trkpt lat="45.72767" lon="6.55343">
        <ele>769.2</ele>
        <time>2022-06-15T09:59:00Z</time>
      </trkpt>
      <trkpt lat="45.72767" lon="6.55346">
        <ele>769.6</ele>
        <time>2022-06-15T09:59:01Z</time>
      </trkpt>
      <trkpt lat="45.72767" lon="6.55349">
        <ele>769.9</ele>
        <time>2022-06-15T09:59:02Z</time>
      </trkpt>
      <trkpt lat="45.72766" lon="6.55353">
        <ele>770.2</ele>
        <time>2022-06-15T09:59:03Z</time>
      </trkpt>
      <trkpt lat="45.72766" lon="6.55356">
        <ele>770.5</ele>
        <time>2022-06-15T09:59:04Z</time>
      </trkpt>
      <trkpt lat="45.72766" lon="6.5536">
        <ele>770.9</ele>
        <time>2022-06-15T09:59:05Z</time>
      </trkpt>
      <trkpt lat="45.72765" lon="6.55363">
        <ele>771.1</ele>
        <time>2022-06-15T09:59:06Z</time>
      </trkpt>
      <trkpt lat="45.72765" lon="6.55366">
        <ele>771.2</ele>
        <time>2022-06-15T09:59:07Z</time>
      </trkpt>
      <trkpt lat="45.72764" lon="6.5537">
        <ele>771.4</ele>
        <time>2022-06-15T09:59:08Z</time>
      </trkpt>
      <trkpt lat="45.72764" lon="6.55373">
        <ele>771.6</ele>
        <time>2022-06-15T09:59:09Z</time>
      </trkpt>
      <trkpt lat="45.72764" lon="6.55376">
        <ele>771.8</ele>
        <time>2022-06-15T09:59:10Z</time>
      </trkpt>
      <trkpt lat="45.72763" lon="6.5538">
        <ele>771.9</ele>
        <time>2022-06-15T09:59:11Z</time>
      </trkpt>
      <trkpt lat="45.72763" lon="6.55383">
        <ele>772</ele>
        <time>2022-06-15T09:59:12Z</time>
      </trkpt>
      <trkpt lat="45.72762" lon="6.55387">
        <ele>772.2</ele>
        <time>2022-06-15T09:59:13Z</time>
      </trkpt>
      <trkpt lat="45.72762" lon="6.5539">
        <ele>772.4</ele>
        <time>2022-06-15T09:59:14Z</time>
      </trkpt>
      <trkpt lat="45.72762" lon="6.55393">
        <ele>772.8</ele>
        <time>2022-06-15T09:59:15Z</time>
      </trkpt>
      <trkpt lat="45.72762" lon="6.55396">
        <ele>773.1</ele>
        <time>2022-06-15T09:59:16Z</time>
      </trkpt>
      <trkpt lat="45.72761" lon="6.554">
        <ele>773.3</ele>
        <time>2022-06-15T09:59:17Z</time>
      </trkpt>
      <trkpt lat="45.72761" lon="6.55403">
        <ele>773.6</ele>
        <time>2022-06-15T09:59:18Z</time>
      </trkpt>
      <trkpt lat="45.72761" lon="6.55406">
        <ele>773.9</ele>
        <time>2022-06-15T09:59:19Z</time>
      </trkpt>
      <trkpt lat="45.7276" lon="6.55409">
        <ele>774.2</ele>
        <time>2022-06-15T09:59:20Z</time>
      </trkpt>
      <trkpt lat="45.7276" lon="6.55413">
        <ele>774.5</ele>
        <time>2022-06-15T09:59:21Z</time>
      </trkpt>
      <trkpt lat="45.7276" lon="6.55416">
        <ele>774.7</ele>
        <time>2022-06-15T09:59:22Z</time>
      </trkpt>
      <trkpt lat="45.7276" lon="6.55419">
        <ele>775</ele>
        <time>2022-06-15T09:59:23Z</time>
      </trkpt>
      <trkpt lat="45.7276" lon="6.55422">
        <ele>775.4</ele>
        <time>2022-06-15T09:59:24Z</time>
      </trkpt>
      <trkpt lat="45.7276" lon="6.55425">
        <ele>775.8</ele>
        <time>2022-06-15T09:59:25Z</time>
      </trkpt>
      <trkpt lat="45.72761" lon="6.55428">
        <ele>776.2</ele>
        <time>2022-06-15T09:59:26Z</time>
      </trkpt>
      <trkpt lat="45.72761" lon="6.55432">
        <ele>776.5</ele>
        <time>2022-06-15T09:59:27Z</time>
      </trkpt>
      <trkpt lat="45.72761" lon="6.55435">
        <ele>776.8</ele>
        <time>2022-06-15T09:59:28Z</time>
      </trkpt>
      <trkpt lat="45.72761" lon="6.55438">
        <ele>777.1</ele>
        <time>2022-06-15T09:59:29Z</time>
      </trkpt>
      <trkpt lat="45.7276" lon="6.55441">
        <ele>777.3</ele>
        <time>2022-06-15T09:59:30Z</time>
      </trkpt>
      <trkpt lat="45.7276" lon="6.55445">
        <ele>777.5</ele>
        <time>2022-06-15T09:59:31Z</time>
      </trkpt>
      <trkpt lat="45.7276" lon="6.55448">
        <ele>777.6</ele>
        <time>2022-06-15T09:59:32Z</time>
      </trkpt>
      <trkpt lat="45.7276" lon="6.55451">
        <ele>777.7</ele>
        <time>2022-06-15T09:59:33Z</time>
      </trkpt>
      <trkpt lat="45.7276" lon="6.55454">
        <ele>778</ele>
        <time>2022-06-15T09:59:34Z</time>
      </trkpt>
      <trkpt lat="45.7276" lon="6.55458">
        <ele>778.1</ele>
        <time>2022-06-15T09:59:35Z</time>
      </trkpt>
      <trkpt lat="45.7276" lon="6.55461">
        <ele>778.3</ele>
        <time>2022-06-15T09:59:36Z</time>
      </trkpt>
      <trkpt lat="45.7276" lon="6.55464">
        <ele>778.5</ele>
        <time>2022-06-15T09:59:37Z</time>
      </trkpt>
      <trkpt lat="45.7276" lon="6.55468">
        <ele>778.7</ele>
        <time>2022-06-15T09:59:38Z</time>
      </trkpt>
      <trkpt lat="45.7276" lon="6.55471">
        <ele>778.7</ele>
        <time>2022-06-15T09:59:39Z</time>
      </trkpt>
      <trkpt lat="45.7276" lon="6.55474">
        <ele>779</ele>
        <time>2022-06-15T09:59:40Z</time>
      </trkpt>
      <trkpt lat="45.7276" lon="6.55477">
        <ele>779.5</ele>
        <time>2022-06-15T09:59:41Z</time>
      </trkpt>
      <trkpt lat="45.72759" lon="6.5548">
        <ele>779.6</ele>
        <time>2022-06-15T09:59:42Z</time>
      </trkpt>
      <trkpt lat="45.72758" lon="6.55483">
        <ele>779.8</ele>
        <time>2022-06-15T09:59:43Z</time>
      </trkpt>
      <trkpt lat="45.72758" lon="6.55486">
        <ele>780.2</ele>
        <time>2022-06-15T09:59:44Z</time>
      </trkpt>
      <trkpt lat="45.72758" lon="6.55489">
        <ele>780.5</ele>
        <time>2022-06-15T09:59:45Z</time>
      </trkpt>
      <trkpt lat="45.72758" lon="6.55492">
        <ele>780.9</ele>
        <time>2022-06-15T09:59:46Z</time>
      </trkpt>
      <trkpt lat="45.72757" lon="6.55495">
        <ele>781.1</ele>
        <time>2022-06-15T09:59:47Z</time>
      </trkpt>
      <trkpt lat="45.72757" lon="6.55498">
        <ele>781.4</ele>
        <time>2022-06-15T09:59:48Z</time>
      </trkpt>
      <trkpt lat="45.72756" lon="6.55501">
        <ele>781.6</ele>
        <time>2022-06-15T09:59:49Z</time>
      </trkpt>
      <trkpt lat="45.72755" lon="6.55504">
        <ele>781.7</ele>
        <time>2022-06-15T09:59:50Z</time>
      </trkpt>
      <trkpt lat="45.72755" lon="6.55507">
        <ele>781.7</ele>
        <time>2022-06-15T09:59:51Z</time>
      </trkpt>
      <trkpt lat="45.72754" lon="6.55509">
        <ele>781.6</ele>
        <time>2022-06-15T09:59:52Z</time>
      </trkpt>
      <trkpt lat="45.72753" lon="6.55512">
        <ele>781.5</ele>
        <time>2022-06-15T09:59:53Z</time>
      </trkpt>
      <trkpt lat="45.72752" lon="6.55515">
        <ele>781.4</ele>
        <time>2022-06-15T09:59:54Z</time>
      </trkpt>
      <trkpt lat="45.72751" lon="6.55518">
        <ele>781.4</ele>
        <time>2022-06-15T09:59:55Z</time>
      </trkpt>
      <trkpt lat="45.7275" lon="6.55521">
        <ele>781.3</ele>
        <time>2022-06-15T09:59:56Z</time>
      </trkpt>
      <trkpt lat="45.72749" lon="6.55523">
        <ele>781.2</ele>
        <time>2022-06-15T09:59:57Z</time>
      </trkpt>
      <trkpt lat="45.72748" lon="6.55526">
        <ele>781.3</ele>
        <time>2022-06-15T09:59:58Z</time>
      </trkpt>
      <trkpt lat="45.72748" lon="6.55529">
        <ele>781.4</ele>
        <time>2022-06-15T09:59:59Z</time>
      </trkpt>
      <trkpt lat="45.72747" lon="6.55532">
        <ele>781.6</ele>
        <time>2022-06-15T10:00:00Z</time>
      </trkpt>
      <trkpt lat="45.72745" lon="6.55534">
        <ele>781.7</ele>
        <time>2022-06-15T10:00:01Z</time>
      </trkpt>
      <trkpt lat="45.72744" lon="6.55537">
        <ele>781.8</ele>
        <time>2022-06-15T10:00:02Z</time>
      </trkpt>
      <trkpt lat="45.72743" lon="6.5554">
        <ele>781.9</ele>
        <time>2022-06-15T10:00:03Z</time>
      </trkpt>
      <trkpt lat="45.72741" lon="6.55542">
        <ele>781.9</ele>
        <time>2022-06-15T10:00:04Z</time>
      </trkpt>
      <trkpt lat="45.7274" lon="6.55545">
        <ele>782</ele>
        <time>2022-06-15T10:00:05Z</time>
      </trkpt>
      <trkpt lat="45.72738" lon="6.55548">
        <ele>782.1</ele>
        <time>2022-06-15T10:00:06Z</time>
      </trkpt>
      <trkpt lat="45.72737" lon="6.5555">
        <ele>782.2</ele>
        <time>2022-06-15T10:00:07Z</time>
      </trkpt>
      <trkpt lat="45.72736" lon="6.55552">
        <ele>782.2</ele>
        <time>2022-06-15T10:00:08Z</time>
      </trkpt>
      <trkpt lat="45.72734" lon="6.55555">
        <ele>782.3</ele>
        <time>2022-06-15T10:00:09Z</time>
      </trkpt>
      <trkpt lat="45.72733" lon="6.55557">
        <ele>782.3</ele>
        <time>2022-06-15T10:00:10Z</time>
      </trkpt>
      <trkpt lat="45.72731" lon="6.55559">
        <ele>782.2</ele>
        <time>2022-06-15T10:00:11Z</time>
      </trkpt>
      <trkpt lat="45.7273" lon="6.55561">
        <ele>782.1</ele>
        <time>2022-06-15T10:00:12Z</time>
      </trkpt>
      <trkpt lat="45.72729" lon="6.55564">
        <ele>782.1</ele>
        <time>2022-06-15T10:00:13Z</time>
      </trkpt>
      <trkpt lat="45.72727" lon="6.55566">
        <ele>782.1</ele>
        <time>2022-06-15T10:00:14Z</time>
      </trkpt>
      <trkpt lat="45.72726" lon="6.55569">
        <ele>782.2</ele>
        <time>2022-06-15T10:00:15Z</time>
      </trkpt>
      <trkpt lat="45.72724" lon="6.55571">
        <ele>782.2</ele>
        <time>2022-06-15T10:00:16Z</time>
      </trkpt>
      <trkpt lat="45.72723" lon="6.55574">
        <ele>782.4</ele>
        <time>2022-06-15T10:00:17Z</time>
      </trkpt>
      <trkpt lat="45.72722" lon="6.55577">
        <ele>782.7</ele>
        <time>2022-06-15T10:00:18Z</time>
      </trkpt>
      <trkpt lat="45.72721" lon="6.5558">
        <ele>783.1</ele>
        <time>2022-06-15T10:00:19Z</time>
      </trkpt>
      <trkpt lat="45.72721" lon="6.55584">
        <ele>783.6</ele>
        <time>2022-06-15T10:00:20Z</time>
      </trkpt>
      <trkpt lat="45.72721" lon="6.55588">
        <ele>784.2</ele>
        <time>2022-06-15T10:00:21Z</time>
      </trkpt>
      <trkpt lat="45.72721" lon="6.55591">
        <ele>785</ele>
        <time>2022-06-15T10:00:22Z</time>
      </trkpt>
      <trkpt lat="45.72722" lon="6.55594">
        <ele>786</ele>
        <time>2022-06-15T10:00:23Z</time>
      </trkpt>
      <trkpt lat="45.72724" lon="6.55597">
        <ele>787</ele>
        <time>2022-06-15T10:00:24Z</time>
      </trkpt>
      <trkpt lat="45.72726" lon="6.556">
        <ele>788.1</ele>
        <time>2022-06-15T10:00:25Z</time>
      </trkpt>
      <trkpt lat="45.72728" lon="6.55601">
        <ele>789.4</ele>
        <time>2022-06-15T10:00:26Z</time>
      </trkpt>
      <trkpt lat="45.72731" lon="6.55603">
        <ele>790.7</ele>
        <time>2022-06-15T10:00:27Z</time>
      </trkpt>
      <trkpt lat="45.72734" lon="6.55603">
        <ele>791.7</ele>
        <time>2022-06-15T10:00:28Z</time>
      </trkpt>
      <trkpt lat="45.72736" lon="6.55602">
        <ele>792.5</ele>
        <time>2022-06-15T10:00:29Z</time>
      </trkpt>
      <trkpt lat="45.72739" lon="6.55601">
        <ele>793</ele>
        <time>2022-06-15T10:00:30Z</time>
      </trkpt>
      <trkpt lat="45.72741" lon="6.556">
        <ele>793.6</ele>
        <time>2022-06-15T10:00:31Z</time>
      </trkpt>
      <trkpt lat="45.72744" lon="6.55599">
        <ele>793.9</ele>
        <time>2022-06-15T10:00:32Z</time>
      </trkpt>
      <trkpt lat="45.72745" lon="6.55597">
        <ele>793.7</ele>
        <time>2022-06-15T10:00:33Z</time>
      </trkpt>
      <trkpt lat="45.72747" lon="6.55594">
        <ele>793.3</ele>
        <time>2022-06-15T10:00:34Z</time>
      </trkpt>
      <trkpt lat="45.72749" lon="6.55591">
        <ele>792.6</ele>
        <time>2022-06-15T10:00:35Z</time>
      </trkpt>
      <trkpt lat="45.7275" lon="6.55588">
        <ele>791.6</ele>
        <time>2022-06-15T10:00:36Z</time>
      </trkpt>
      <trkpt lat="45.72751" lon="6.55584">
        <ele>790.9</ele>
        <time>2022-06-15T10:00:37Z</time>
      </trkpt>
      <trkpt lat="45.72752" lon="6.55581">
        <ele>791</ele>
        <time>2022-06-15T10:00:38Z</time>
      </trkpt>
      <trkpt lat="45.72753" lon="6.55577">
        <ele>791.1</ele>
        <time>2022-06-15T10:00:39Z</time>
      </trkpt>
      <trkpt lat="45.72754" lon="6.55574">
        <ele>791.3</ele>
        <time>2022-06-15T10:00:40Z</time>
      </trkpt>
      <trkpt lat="45.72755" lon="6.5557">
        <ele>791.4</ele>
        <time>2022-06-15T10:00:41Z</time>
      </trkpt>
      <trkpt lat="45.72756" lon="6.55567">
        <ele>791.6</ele>
        <time>2022-06-15T10:00:42Z</time>
      </trkpt>
      <trkpt lat="45.72758" lon="6.55564">
        <ele>791.9</ele>
        <time>2022-06-15T10:00:43Z</time>
      </trkpt>
      <trkpt lat="45.72759" lon="6.55561">
        <ele>792</ele>
        <time>2022-06-15T10:00:44Z</time>
      </trkpt>
      <trkpt lat="45.7276" lon="6.55557">
        <ele>792</ele>
        <time>2022-06-15T10:00:45Z</time>
      </trkpt>
      <trkpt lat="45.72761" lon="6.55554">
        <ele>792.1</ele>
        <time>2022-06-15T10:00:46Z</time>
      </trkpt>
      <trkpt lat="45.72762" lon="6.55551">
        <ele>792</ele>
        <time>2022-06-15T10:00:47Z</time>
      </trkpt>
      <trkpt lat="45.72763" lon="6.55548">
        <ele>792</ele>
        <time>2022-06-15T10:00:48Z</time>
      </trkpt>
      <trkpt lat="45.72764" lon="6.55544">
        <ele>791.9</ele>
        <time>2022-06-15T10:00:49Z</time>
      </trkpt>
      <trkpt lat="45.72766" lon="6.55541">
        <ele>792</ele>
        <time>2022-06-15T10:00:50Z</time>
      </trkpt>
      <trkpt lat="45.72767" lon="6.55539">
        <ele>792</ele>
        <time>2022-06-15T10:00:51Z</time>
      </trkpt>
      <trkpt lat="45.72768" lon="6.55536">
        <ele>792</ele>
        <time>2022-06-15T10:00:52Z</time>
      </trkpt>
      <trkpt lat="45.7277" lon="6.55533">
        <ele>792.2</ele>
        <time>2022-06-15T10:00:53Z</time>
      </trkpt>
      <trkpt lat="45.72771" lon="6.5553">
        <ele>792.2</ele>
        <time>2022-06-15T10:00:54Z</time>
      </trkpt>
      <trkpt lat="45.72772" lon="6.55527">
        <ele>792.2</ele>
        <time>2022-06-15T10:00:55Z</time>
      </trkpt>
      <trkpt lat="45.72774" lon="6.55524">
        <ele>792.5</ele>
        <time>2022-06-15T10:00:56Z</time>
      </trkpt>
      <trkpt lat="45.72775" lon="6.55521">
        <ele>792.7</ele>
        <time>2022-06-15T10:00:57Z</time>
      </trkpt>
      <trkpt lat="45.72776" lon="6.55518">
        <ele>792.9</ele>
        <time>2022-06-15T10:00:58Z</time>
      </trkpt>
      <trkpt lat="45.72778" lon="6.55516">
        <ele>793.2</ele>
        <time>2022-06-15T10:00:59Z</time>
      </trkpt>
      <trkpt lat="45.72779" lon="6.55513">
        <ele>793.4</ele>
        <time>2022-06-15T10:01:00Z</time>
      </trkpt>
      <trkpt lat="45.7278" lon="6.5551">
        <ele>793.6</ele>
        <time>2022-06-15T10:01:01Z</time>
      </trkpt>
      <trkpt lat="45.72782" lon="6.55507">
        <ele>793.8</ele>
        <time>2022-06-15T10:01:02Z</time>
      </trkpt>
      <trkpt lat="45.72783" lon="6.55505">
        <ele>793.9</ele>
        <time>2022-06-15T10:01:03Z</time>
      </trkpt>
      <trkpt lat="45.72784" lon="6.55502">
        <ele>794.1</ele>
        <time>2022-06-15T10:01:04Z</time>
      </trkpt>
      <trkpt lat="45.72786" lon="6.555">
        <ele>794.3</ele>
        <time>2022-06-15T10:01:05Z</time>
      </trkpt>
      <trkpt lat="45.72787" lon="6.55497">
        <ele>794.6</ele>
        <time>2022-06-15T10:01:06Z</time>
      </trkpt>
      <trkpt lat="45.72789" lon="6.55494">
        <ele>794.9</ele>
        <time>2022-06-15T10:01:07Z</time>
      </trkpt>
      <trkpt lat="45.7279" lon="6.55492">
        <ele>795</ele>
        <time>2022-06-15T10:01:08Z</time>
      </trkpt>
      <trkpt lat="45.72791" lon="6.55489">
        <ele>795.1</ele>
        <time>2022-06-15T10:01:09Z</time>
      </trkpt>
      <trkpt lat="45.72793" lon="6.55486">
        <ele>795.4</ele>
        <time>2022-06-15T10:01:10Z</time>
      </trkpt>
      <trkpt lat="45.72794" lon="6.55483">
        <ele>795.5</ele>
        <time>2022-06-15T10:01:11Z</time>
      </trkpt>
      <trkpt lat="45.72796" lon="6.55481">
        <ele>795.7</ele>
        <time>2022-06-15T10:01:12Z</time>
      </trkpt>
      <trkpt lat="45.72797" lon="6.55478">
        <ele>795.8</ele>
        <time>2022-06-15T10:01:13Z</time>
      </trkpt>
      <trkpt lat="45.72798" lon="6.55476">
        <ele>795.9</ele>
        <time>2022-06-15T10:01:14Z</time>
      </trkpt>
      <trkpt lat="45.728" lon="6.55473">
        <ele>796</ele>
        <time>2022-06-15T10:01:15Z</time>
      </trkpt>
      <trkpt lat="45.72801" lon="6.55471">
        <ele>796.1</ele>
        <time>2022-06-15T10:01:16Z</time>
      </trkpt>
      <trkpt lat="45.72802" lon="6.55468">
        <ele>796.3</ele>
        <time>2022-06-15T10:01:17Z</time>
      </trkpt>
      <trkpt lat="45.72804" lon="6.55466">
        <ele>796.5</ele>
        <time>2022-06-15T10:01:18Z</time>
      </trkpt>
      <trkpt lat="45.72805" lon="6.55464">
        <ele>796.7</ele>
        <time>2022-06-15T10:01:19Z</time>
      </trkpt>
      <trkpt lat="45.72807" lon="6.55461">
        <ele>796.7</ele>
        <time>2022-06-15T10:01:20Z</time>
      </trkpt>
      <trkpt lat="45.72808" lon="6.55459">
        <ele>796.9</ele>
        <time>2022-06-15T10:01:21Z</time>
      </trkpt>
      <trkpt lat="45.7281" lon="6.55456">
        <ele>797</ele>
        <time>2022-06-15T10:01:22Z</time>
      </trkpt>
      <trkpt lat="45.72811" lon="6.55453">
        <ele>797</ele>
        <time>2022-06-15T10:01:23Z</time>
      </trkpt>
      <trkpt lat="45.72812" lon="6.55451">
        <ele>797.1</ele>
        <time>2022-06-15T10:01:24Z</time>
      </trkpt>
      <trkpt lat="45.72814" lon="6.55448">
        <ele>797.2</ele>
        <time>2022-06-15T10:01:25Z</time>
      </trkpt>
      <trkpt lat="45.72815" lon="6.55446">
        <ele>797.2</ele>
        <time>2022-06-15T10:01:26Z</time>
      </trkpt>
      <trkpt lat="45.72817" lon="6.55443">
        <ele>797.5</ele>
        <time>2022-06-15T10:01:27Z</time>
      </trkpt>
      <trkpt lat="45.72818" lon="6.5544">
        <ele>797.7</ele>
        <time>2022-06-15T10:01:28Z</time>
      </trkpt>
      <trkpt lat="45.7282" lon="6.55438">
        <ele>797.9</ele>
        <time>2022-06-15T10:01:29Z</time>
      </trkpt>
      <trkpt lat="45.72821" lon="6.55435">
        <ele>798.2</ele>
        <time>2022-06-15T10:01:30Z</time>
      </trkpt>
      <trkpt lat="45.72822" lon="6.55432">
        <ele>798.3</ele>
        <time>2022-06-15T10:01:31Z</time>
      </trkpt>
      <trkpt lat="45.72824" lon="6.5543">
        <ele>798.4</ele>
        <time>2022-06-15T10:01:32Z</time>
      </trkpt>
      <trkpt lat="45.72825" lon="6.55427">
        <ele>798.6</ele>
        <time>2022-06-15T10:01:33Z</time>
      </trkpt>
      <trkpt lat="45.72826" lon="6.55424">
        <ele>798.6</ele>
        <time>2022-06-15T10:01:34Z</time>
      </trkpt>
      <trkpt lat="45.72827" lon="6.55421">
        <ele>798.7</ele>
        <time>2022-06-15T10:01:35Z</time>
      </trkpt>
      <trkpt lat="45.72829" lon="6.55418">
        <ele>798.8</ele>
        <time>2022-06-15T10:01:36Z</time>
      </trkpt>
      <trkpt lat="45.7283" lon="6.55415">
        <ele>798.9</ele>
        <time>2022-06-15T10:01:37Z</time>
      </trkpt>
      <trkpt lat="45.7283" lon="6.55412">
        <ele>799.1</ele>
        <time>2022-06-15T10:01:38Z</time>
      </trkpt>
      <trkpt lat="45.72831" lon="6.55408">
        <ele>799.3</ele>
        <time>2022-06-15T10:01:39Z</time>
      </trkpt>
      <trkpt lat="45.72832" lon="6.55405">
        <ele>799.7</ele>
        <time>2022-06-15T10:01:40Z</time>
      </trkpt>
      <trkpt lat="45.72833" lon="6.55402">
        <ele>799.9</ele>
        <time>2022-06-15T10:01:41Z</time>
      </trkpt>
      <trkpt lat="45.72834" lon="6.55399">
        <ele>800.4</ele>
        <time>2022-06-15T10:01:42Z</time>
      </trkpt>
      <trkpt lat="45.72835" lon="6.55395">
        <ele>800.8</ele>
        <time>2022-06-15T10:01:43Z</time>
      </trkpt>
      <trkpt lat="45.72836" lon="6.55392">
        <ele>801.1</ele>
        <time>2022-06-15T10:01:44Z</time>
      </trkpt>
      <trkpt lat="45.72836" lon="6.55389">
        <ele>801.4</ele>
        <time>2022-06-15T10:01:45Z</time>
      </trkpt>
      <trkpt lat="45.72837" lon="6.55386">
        <ele>801.7</ele>
        <time>2022-06-15T10:01:46Z</time>
      </trkpt>
      <trkpt lat="45.72837" lon="6.55383">
        <ele>802</ele>
        <time>2022-06-15T10:01:47Z</time>
      </trkpt>
      <trkpt lat="45.72838" lon="6.55379">
        <ele>802.5</ele>
        <time>2022-06-15T10:01:48Z</time>
      </trkpt>
      <trkpt lat="45.72839" lon="6.55376">
        <ele>802.9</ele>
        <time>2022-06-15T10:01:49Z</time>
      </trkpt>
      <trkpt lat="45.72839" lon="6.55373">
        <ele>803.4</ele>
        <time>2022-06-15T10:01:50Z</time>
      </trkpt>
      <trkpt lat="45.7284" lon="6.5537">
        <ele>803.6</ele>
        <time>2022-06-15T10:01:51Z</time>
      </trkpt>
      <trkpt lat="45.7284" lon="6.55367">
        <ele>803.7</ele>
        <time>2022-06-15T10:01:52Z</time>
      </trkpt>
      <trkpt lat="45.7284" lon="6.55364">
        <ele>804</ele>
        <time>2022-06-15T10:01:53Z</time>
      </trkpt>
      <trkpt lat="45.72841" lon="6.55361">
        <ele>804.4</ele>
        <time>2022-06-15T10:01:54Z</time>
      </trkpt>
      <trkpt lat="45.72841" lon="6.55358">
        <ele>804.8</ele>
        <time>2022-06-15T10:01:55Z</time>
      </trkpt>
      <trkpt lat="45.72842" lon="6.55355">
        <ele>805.3</ele>
        <time>2022-06-15T10:01:56Z</time>
      </trkpt>
      <trkpt lat="45.72842" lon="6.55352">
        <ele>805.7</ele>
        <time>2022-06-15T10:01:57Z</time>
      </trkpt>
      <trkpt lat="45.72843" lon="6.55348">
        <ele>806.1</ele>
        <time>2022-06-15T10:01:58Z</time>
      </trkpt>
      <trkpt lat="45.72843" lon="6.55345">
        <ele>806.5</ele>
        <time>2022-06-15T10:01:59Z</time>
      </trkpt>
      <trkpt lat="45.72844" lon="6.55342">
        <ele>806.8</ele>
        <time>2022-06-15T10:02:00Z</time>
      </trkpt>
      <trkpt lat="45.72844" lon="6.55339">
        <ele>807.2</ele>
        <time>2022-06-15T10:02:01Z</time>
      </trkpt>
      <trkpt lat="45.72845" lon="6.55336">
        <ele>807.6</ele>
        <time>2022-06-15T10:02:02Z</time>
      </trkpt>
      <trkpt lat="45.72845" lon="6.55332">
        <ele>807.6</ele>
        <time>2022-06-15T10:02:03Z</time>
      </trkpt>
      <trkpt lat="45.72845" lon="6.55329">
        <ele>807.5</ele>
        <time>2022-06-15T10:02:04Z</time>
      </trkpt>
      <trkpt lat="45.72845" lon="6.55326">
        <ele>807.3</ele>
        <time>2022-06-15T10:02:05Z</time>
      </trkpt>
      <trkpt lat="45.72845" lon="6.55323">
        <ele>807.3</ele>
        <time>2022-06-15T10:02:06Z</time>
      </trkpt>
      <trkpt lat="45.72846" lon="6.5532">
        <ele>807.4</ele>
        <time>2022-06-15T10:02:07Z</time>
      </trkpt>
      <trkpt lat="45.72846" lon="6.55317">
        <ele>807.7</ele>
        <time>2022-06-15T10:02:08Z</time>
      </trkpt>
      <trkpt lat="45.72847" lon="6.55314">
        <ele>807.9</ele>
        <time>2022-06-15T10:02:09Z</time>
      </trkpt>
      <trkpt lat="45.72848" lon="6.5531">
        <ele>808.1</ele>
        <time>2022-06-15T10:02:10Z</time>
      </trkpt>
      <trkpt lat="45.72848" lon="6.55307">
        <ele>808.3</ele>
        <time>2022-06-15T10:02:11Z</time>
      </trkpt>
      <trkpt lat="45.72849" lon="6.55303">
        <ele>808.5</ele>
        <time>2022-06-15T10:02:12Z</time>
      </trkpt>
      <trkpt lat="45.7285" lon="6.553">
        <ele>808.5</ele>
        <time>2022-06-15T10:02:13Z</time>
      </trkpt>
      <trkpt lat="45.7285" lon="6.55297">
        <ele>808.3</ele>
        <time>2022-06-15T10:02:14Z</time>
      </trkpt>
      <trkpt lat="45.7285" lon="6.55293">
        <ele>808.1</ele>
        <time>2022-06-15T10:02:15Z</time>
      </trkpt>
      <trkpt lat="45.7285" lon="6.5529">
        <ele>808</ele>
        <time>2022-06-15T10:02:16Z</time>
      </trkpt>
      <trkpt lat="45.72851" lon="6.55287">
        <ele>808.3</ele>
        <time>2022-06-15T10:02:17Z</time>
      </trkpt>
      <trkpt lat="45.72852" lon="6.55284">
        <ele>808.6</ele>
        <time>2022-06-15T10:02:18Z</time>
      </trkpt>
      <trkpt lat="45.72852" lon="6.55281">
        <ele>808.6</ele>
        <time>2022-06-15T10:02:19Z</time>
      </trkpt>
      <trkpt lat="45.72853" lon="6.55278">
        <ele>808.6</ele>
        <time>2022-06-15T10:02:20Z</time>
      </trkpt>
      <trkpt lat="45.72853" lon="6.55275">
        <ele>808.7</ele>
        <time>2022-06-15T10:02:21Z</time>
      </trkpt>
      <trkpt lat="45.72854" lon="6.55272">
        <ele>809</ele>
        <time>2022-06-15T10:02:22Z</time>
      </trkpt>
      <trkpt lat="45.72855" lon="6.55269">
        <ele>809.3</ele>
        <time>2022-06-15T10:02:23Z</time>
      </trkpt>
      <trkpt lat="45.72855" lon="6.55265">
        <ele>809.3</ele>
        <time>2022-06-15T10:02:24Z</time>
      </trkpt>
      <trkpt lat="45.72855" lon="6.55262">
        <ele>809.4</ele>
        <time>2022-06-15T10:02:25Z</time>
      </trkpt>
      <trkpt lat="45.72856" lon="6.55259">
        <ele>809.6</ele>
        <time>2022-06-15T10:02:26Z</time>
      </trkpt>
      <trkpt lat="45.72856" lon="6.55256">
        <ele>809.6</ele>
        <time>2022-06-15T10:02:27Z</time>
      </trkpt>
      <trkpt lat="45.72856" lon="6.55252">
        <ele>809.7</ele>
        <time>2022-06-15T10:02:28Z</time>
      </trkpt>
      <trkpt lat="45.72857" lon="6.55249">
        <ele>810</ele>
        <time>2022-06-15T10:02:29Z</time>
      </trkpt>
      <trkpt lat="45.72857" lon="6.55246">
        <ele>810.2</ele>
        <time>2022-06-15T10:02:30Z</time>
      </trkpt>
      <trkpt lat="45.72858" lon="6.55243">
        <ele>810.3</ele>
        <time>2022-06-15T10:02:31Z</time>
      </trkpt>
      <trkpt lat="45.72858" lon="6.55239">
        <ele>810.7</ele>
        <time>2022-06-15T10:02:32Z</time>
      </trkpt>
      <trkpt lat="45.72859" lon="6.55236">
        <ele>810.9</ele>
        <time>2022-06-15T10:02:33Z</time>
      </trkpt>
      <trkpt lat="45.72859" lon="6.55233">
        <ele>811.1</ele>
        <time>2022-06-15T10:02:34Z</time>
      </trkpt>
      <trkpt lat="45.7286" lon="6.5523">
        <ele>811.5</ele>
        <time>2022-06-15T10:02:35Z</time>
      </trkpt>
      <trkpt lat="45.72861" lon="6.55227">
        <ele>811.8</ele>
        <time>2022-06-15T10:02:36Z</time>
      </trkpt>
      <trkpt lat="45.72861" lon="6.55224">
        <ele>812.2</ele>
        <time>2022-06-15T10:02:37Z</time>
      </trkpt>
      <trkpt lat="45.72862" lon="6.55221">
        <ele>812.7</ele>
        <time>2022-06-15T10:02:38Z</time>
      </trkpt>
      <trkpt lat="45.72863" lon="6.55217">
        <ele>812.9</ele>
        <time>2022-06-15T10:02:39Z</time>
      </trkpt>
      <trkpt lat="45.72863" lon="6.55214">
        <ele>813</ele>
        <time>2022-06-15T10:02:40Z</time>
      </trkpt>
      <trkpt lat="45.72863" lon="6.55211">
        <ele>813</ele>
        <time>2022-06-15T10:02:41Z</time>
      </trkpt>
      <trkpt lat="45.72864" lon="6.55208">
        <ele>813.5</ele>
        <time>2022-06-15T10:02:42Z</time>
      </trkpt>
      <trkpt lat="45.72865" lon="6.55205">
        <ele>813.8</ele>
        <time>2022-06-15T10:02:43Z</time>
      </trkpt>
      <trkpt lat="45.72866" lon="6.55202">
        <ele>814.2</ele>
        <time>2022-06-15T10:02:44Z</time>
      </trkpt>
      <trkpt lat="45.72866" lon="6.55199">
        <ele>814.4</ele>
        <time>2022-06-15T10:02:45Z</time>
      </trkpt>
      <trkpt lat="45.72866" lon="6.55196">
        <ele>814.4</ele>
        <time>2022-06-15T10:02:46Z</time>
      </trkpt>
      <trkpt lat="45.72867" lon="6.55193">
        <ele>814.7</ele>
        <time>2022-06-15T10:02:47Z</time>
      </trkpt>
      <trkpt lat="45.72868" lon="6.55191">
        <ele>815.4</ele>
        <time>2022-06-15T10:02:48Z</time>
      </trkpt>
      <trkpt lat="45.72869" lon="6.55188">
        <ele>816</ele>
        <time>2022-06-15T10:02:49Z</time>
      </trkpt>
      <trkpt lat="45.7287" lon="6.55185">
        <ele>816.6</ele>
        <time>2022-06-15T10:02:50Z</time>
      </trkpt>
      <trkpt lat="45.7287" lon="6.55182">
        <ele>816.9</ele>
        <time>2022-06-15T10:02:51Z</time>
      </trkpt>
      <trkpt lat="45.72871" lon="6.55179">
        <ele>817.3</ele>
        <time>2022-06-15T10:02:52Z</time>
      </trkpt>
      <trkpt lat="45.72871" lon="6.55176">
        <ele>817.7</ele>
        <time>2022-06-15T10:02:53Z</time>
      </trkpt>
      <trkpt lat="45.72871" lon="6.55172">
        <ele>817.4</ele>
        <time>2022-06-15T10:02:54Z</time>
      </trkpt>
      <trkpt lat="45.72871" lon="6.55169">
        <ele>817.3</ele>
        <time>2022-06-15T10:02:55Z</time>
      </trkpt>
      <trkpt lat="45.72871" lon="6.55165">
        <ele>817.2</ele>
        <time>2022-06-15T10:02:56Z</time>
      </trkpt>
      <trkpt lat="45.72872" lon="6.55163">
        <ele>817.4</ele>
        <time>2022-06-15T10:02:57Z</time>
      </trkpt>
      <trkpt lat="45.72872" lon="6.5516">
        <ele>817.7</ele>
        <time>2022-06-15T10:02:58Z</time>
      </trkpt>
      <trkpt lat="45.72872" lon="6.55157">
        <ele>817.8</ele>
        <time>2022-06-15T10:02:59Z</time>
      </trkpt>
      <trkpt lat="45.72872" lon="6.55153">
        <ele>817.7</ele>
        <time>2022-06-15T10:03:00Z</time>
      </trkpt>
      <trkpt lat="45.72872" lon="6.5515">
        <ele>817.6</ele>
        <time>2022-06-15T10:03:01Z</time>
      </trkpt>
      <trkpt lat="45.72872" lon="6.55147">
        <ele>817.6</ele>
        <time>2022-06-15T10:03:02Z</time>
      </trkpt>
      <trkpt lat="45.72872" lon="6.55143">
        <ele>817.6</ele>
        <time>2022-06-15T10:03:03Z</time>
      </trkpt>
      <trkpt lat="45.72872" lon="6.5514">
        <ele>817.5</ele>
        <time>2022-06-15T10:03:04Z</time>
      </trkpt>
      <trkpt lat="45.72872" lon="6.55136">
        <ele>817.6</ele>
        <time>2022-06-15T10:03:05Z</time>
      </trkpt>
      <trkpt lat="45.72872" lon="6.55133">
        <ele>817.6</ele>
        <time>2022-06-15T10:03:06Z</time>
      </trkpt>
      <trkpt lat="45.72872" lon="6.55129">
        <ele>817.5</ele>
        <time>2022-06-15T10:03:07Z</time>
      </trkpt>
      <trkpt lat="45.72872" lon="6.55126">
        <ele>817.7</ele>
        <time>2022-06-15T10:03:08Z</time>
      </trkpt>
      <trkpt lat="45.72872" lon="6.55122">
        <ele>817.9</ele>
        <time>2022-06-15T10:03:09Z</time>
      </trkpt>
      <trkpt lat="45.72872" lon="6.55119">
        <ele>818.1</ele>
        <time>2022-06-15T10:03:10Z</time>
      </trkpt>
      <trkpt lat="45.72872" lon="6.55116">
        <ele>818.3</ele>
        <time>2022-06-15T10:03:11Z</time>
      </trkpt>
      <trkpt lat="45.72872" lon="6.55113">
        <ele>818.3</ele>
        <time>2022-06-15T10:03:12Z</time>
      </trkpt>
      <trkpt lat="45.72872" lon="6.5511">
        <ele>818.3</ele>
        <time>2022-06-15T10:03:13Z</time>
      </trkpt>
      <trkpt lat="45.72872" lon="6.55107">
        <ele>818.3</ele>
        <time>2022-06-15T10:03:14Z</time>
      </trkpt>
      <trkpt lat="45.72872" lon="6.55104">
        <ele>818.5</ele>
        <time>2022-06-15T10:03:15Z</time>
      </trkpt>
      <trkpt lat="45.72871" lon="6.55101">
        <ele>818.5</ele>
        <time>2022-06-15T10:03:16Z</time>
      </trkpt>
      <trkpt lat="45.72871" lon="6.55098">
        <ele>818.6</ele>
        <time>2022-06-15T10:03:17Z</time>
      </trkpt>
      <trkpt lat="45.72871" lon="6.55094">
        <ele>818.7</ele>
        <time>2022-06-15T10:03:18Z</time>
      </trkpt>
      <trkpt lat="45.72871" lon="6.55091">
        <ele>818.9</ele>
        <time>2022-06-15T10:03:19Z</time>
      </trkpt>
      <trkpt lat="45.72871" lon="6.55088">
        <ele>819.2</ele>
        <time>2022-06-15T10:03:20Z</time>
      </trkpt>
      <trkpt lat="45.72872" lon="6.55086">
        <ele>819.5</ele>
        <time>2022-06-15T10:03:21Z</time>
      </trkpt>
      <trkpt lat="45.72872" lon="6.55083">
        <ele>819.6</ele>
        <time>2022-06-15T10:03:22Z</time>
      </trkpt>
      <trkpt lat="45.72871" lon="6.55079">
        <ele>819.5</ele>
        <time>2022-06-15T10:03:23Z</time>
      </trkpt>
      <trkpt lat="45.72871" lon="6.55075">
        <ele>819.4</ele>
        <time>2022-06-15T10:03:24Z</time>
      </trkpt>
      <trkpt lat="45.7287" lon="6.55071">
        <ele>819.4</ele>
        <time>2022-06-15T10:03:25Z</time>
      </trkpt>
      <trkpt lat="45.7287" lon="6.55068">
        <ele>819.5</ele>
        <time>2022-06-15T10:03:26Z</time>
      </trkpt>
      <trkpt lat="45.72871" lon="6.55064">
        <ele>819.8</ele>
        <time>2022-06-15T10:03:27Z</time>
      </trkpt>
      <trkpt lat="45.72871" lon="6.55061">
        <ele>820.1</ele>
        <time>2022-06-15T10:03:28Z</time>
      </trkpt>
      <trkpt lat="45.72872" lon="6.55058">
        <ele>820.4</ele>
        <time>2022-06-15T10:03:29Z</time>
      </trkpt>
      <trkpt lat="45.72872" lon="6.55054">
        <ele>820.5</ele>
        <time>2022-06-15T10:03:30Z</time>
      </trkpt>
      <trkpt lat="45.72873" lon="6.55051">
        <ele>820.5</ele>
        <time>2022-06-15T10:03:31Z</time>
      </trkpt>
      <trkpt lat="45.72873" lon="6.55048">
        <ele>820.5</ele>
        <time>2022-06-15T10:03:32Z</time>
      </trkpt>
      <trkpt lat="45.72874" lon="6.55045">
        <ele>820.4</ele>
        <time>2022-06-15T10:03:33Z</time>
      </trkpt>
      <trkpt lat="45.72875" lon="6.55042">
        <ele>820.5</ele>
        <time>2022-06-15T10:03:34Z</time>
      </trkpt>
      <trkpt lat="45.72877" lon="6.55039">
        <ele>820.8</ele>
        <time>2022-06-15T10:03:35Z</time>
      </trkpt>
      <trkpt lat="45.72878" lon="6.55037">
        <ele>821</ele>
        <time>2022-06-15T10:03:36Z</time>
      </trkpt>
      <trkpt lat="45.7288" lon="6.55034">
        <ele>821.2</ele>
        <time>2022-06-15T10:03:37Z</time>
      </trkpt>
      <trkpt lat="45.72881" lon="6.55032">
        <ele>821.1</ele>
        <time>2022-06-15T10:03:38Z</time>
      </trkpt>
      <trkpt lat="45.72882" lon="6.55029">
        <ele>821.1</ele>
        <time>2022-06-15T10:03:39Z</time>
      </trkpt>
      <trkpt lat="45.72884" lon="6.55026">
        <ele>821.2</ele>
        <time>2022-06-15T10:03:40Z</time>
      </trkpt>
      <trkpt lat="45.72886" lon="6.55024">
        <ele>821.3</ele>
        <time>2022-06-15T10:03:41Z</time>
      </trkpt>
      <trkpt lat="45.72887" lon="6.55022">
        <ele>821.4</ele>
        <time>2022-06-15T10:03:42Z</time>
      </trkpt>
      <trkpt lat="45.7289" lon="6.5502">
        <ele>821.6</ele>
        <time>2022-06-15T10:03:43Z</time>
      </trkpt>
      <trkpt lat="45.72891" lon="6.55017">
        <ele>821.3</ele>
        <time>2022-06-15T10:03:44Z</time>
      </trkpt>
      <trkpt lat="45.72893" lon="6.55015">
        <ele>821.1</ele>
        <time>2022-06-15T10:03:45Z</time>
      </trkpt>
      <trkpt lat="45.72895" lon="6.55013">
        <ele>820.9</ele>
        <time>2022-06-15T10:03:46Z</time>
      </trkpt>
      <trkpt lat="45.72897" lon="6.55011">
        <ele>820.8</ele>
        <time>2022-06-15T10:03:47Z</time>
      </trkpt>
      <trkpt lat="45.72899" lon="6.5501">
        <ele>820.8</ele>
        <time>2022-06-15T10:03:48Z</time>
      </trkpt>
      <trkpt lat="45.72902" lon="6.55009">
        <ele>821</ele>
        <time>2022-06-15T10:03:49Z</time>
      </trkpt>
      <trkpt lat="45.72904" lon="6.55008">
        <ele>821.2</ele>
        <time>2022-06-15T10:03:50Z</time>
      </trkpt>
      <trkpt lat="45.72907" lon="6.55007">
        <ele>821.3</ele>
        <time>2022-06-15T10:03:51Z</time>
      </trkpt>
      <trkpt lat="45.72909" lon="6.55005">
        <ele>821.4</ele>
        <time>2022-06-15T10:03:52Z</time>
      </trkpt>
      <trkpt lat="45.72911" lon="6.55004">
        <ele>821.5</ele>
        <time>2022-06-15T10:03:53Z</time>
      </trkpt>
      <trkpt lat="45.72913" lon="6.55003">
        <ele>821.8</ele>
        <time>2022-06-15T10:03:54Z</time>
      </trkpt>
      <trkpt lat="45.72915" lon="6.55003">
        <ele>822</ele>
        <time>2022-06-15T10:03:55Z</time>
      </trkpt>
      <trkpt lat="45.72918" lon="6.55004">
        <ele>822.3</ele>
        <time>2022-06-15T10:03:56Z</time>
      </trkpt>
      <trkpt lat="45.7292" lon="6.55005">
        <ele>822.6</ele>
        <time>2022-06-15T10:03:57Z</time>
      </trkpt>
      <trkpt lat="45.72921" lon="6.55007">
        <ele>822.9</ele>
        <time>2022-06-15T10:03:58Z</time>
      </trkpt>
      <trkpt lat="45.72922" lon="6.5501">
        <ele>823.3</ele>
        <time>2022-06-15T10:03:59Z</time>
      </trkpt>
      <trkpt lat="45.72923" lon="6.55013">
        <ele>823.6</ele>
        <time>2022-06-15T10:04:00Z</time>
      </trkpt>
      <trkpt lat="45.72923" lon="6.55017">
        <ele>823.9</ele>
        <time>2022-06-15T10:04:01Z</time>
      </trkpt>
      <trkpt lat="45.72922" lon="6.5502">
        <ele>824.1</ele>
        <time>2022-06-15T10:04:02Z</time>
      </trkpt>
      <trkpt lat="45.72921" lon="6.55023">
        <ele>824.2</ele>
        <time>2022-06-15T10:04:03Z</time>
      </trkpt>
      <trkpt lat="45.72919" lon="6.55026">
        <ele>824.1</ele>
        <time>2022-06-15T10:04:04Z</time>
      </trkpt>
      <trkpt lat="45.72917" lon="6.55028">
        <ele>824</ele>
        <time>2022-06-15T10:04:05Z</time>
      </trkpt>
      <trkpt lat="45.72914" lon="6.55029">
        <ele>824.2</ele>
        <time>2022-06-15T10:04:06Z</time>
      </trkpt>
      <trkpt lat="45.72912" lon="6.5503">
        <ele>824.5</ele>
        <time>2022-06-15T10:04:07Z</time>
      </trkpt>
      <trkpt lat="45.7291" lon="6.55031">
        <ele>824.7</ele>
        <time>2022-06-15T10:04:08Z</time>
      </trkpt>
      <trkpt lat="45.72907" lon="6.55032">
        <ele>824.7</ele>
        <time>2022-06-15T10:04:09Z</time>
      </trkpt>
      <trkpt lat="45.72905" lon="6.55033">
        <ele>824.9</ele>
        <time>2022-06-15T10:04:10Z</time>
      </trkpt>
      <trkpt lat="45.72903" lon="6.55034">
        <ele>825</ele>
        <time>2022-06-15T10:04:11Z</time>
      </trkpt>
      <trkpt lat="45.72901" lon="6.55035">
        <ele>825.1</ele>
        <time>2022-06-15T10:04:12Z</time>
      </trkpt>
      <trkpt lat="45.72899" lon="6.55037">
        <ele>825.3</ele>
        <time>2022-06-15T10:04:13Z</time>
      </trkpt>
      <trkpt lat="45.72897" lon="6.55039">
        <ele>825.5</ele>
        <time>2022-06-15T10:04:14Z</time>
      </trkpt>
      <trkpt lat="45.72895" lon="6.55041">
        <ele>825.8</ele>
        <time>2022-06-15T10:04:15Z</time>
      </trkpt>
      <trkpt lat="45.72893" lon="6.55043">
        <ele>826.2</ele>
        <time>2022-06-15T10:04:16Z</time>
      </trkpt>
      <trkpt lat="45.72891" lon="6.55046">
        <ele>826.5</ele>
        <time>2022-06-15T10:04:17Z</time>
      </trkpt>
      <trkpt lat="45.7289" lon="6.55049">
        <ele>826.9</ele>
        <time>2022-06-15T10:04:18Z</time>
      </trkpt>
      <trkpt lat="45.72889" lon="6.55052">
        <ele>827.3</ele>
        <time>2022-06-15T10:04:19Z</time>
      </trkpt>
      <trkpt lat="45.72888" lon="6.55055">
        <ele>827.5</ele>
        <time>2022-06-15T10:04:20Z</time>
      </trkpt>
      <trkpt lat="45.72887" lon="6.55058">
        <ele>827.4</ele>
        <time>2022-06-15T10:04:21Z</time>
      </trkpt>
      <trkpt lat="45.72887" lon="6.55062">
        <ele>827.2</ele>
        <time>2022-06-15T10:04:22Z</time>
      </trkpt>
      <trkpt lat="45.72886" lon="6.55065">
        <ele>827</ele>
        <time>2022-06-15T10:04:23Z</time>
      </trkpt>
      <trkpt lat="45.72885" lon="6.55068">
        <ele>826.7</ele>
        <time>2022-06-15T10:04:24Z</time>
      </trkpt>
      <trkpt lat="45.72885" lon="6.55072">
        <ele>826.7</ele>
        <time>2022-06-15T10:04:25Z</time>
      </trkpt>
      <trkpt lat="45.72885" lon="6.55075">
        <ele>826.7</ele>
        <time>2022-06-15T10:04:26Z</time>
      </trkpt>
      <trkpt lat="45.72885" lon="6.55078">
        <ele>826.8</ele>
        <time>2022-06-15T10:04:27Z</time>
      </trkpt>
      <trkpt lat="45.72885" lon="6.55081">
        <ele>826.8</ele>
        <time>2022-06-15T10:04:28Z</time>
      </trkpt>
      <trkpt lat="45.72885" lon="6.55085">
        <ele>826.9</ele>
        <time>2022-06-15T10:04:29Z</time>
      </trkpt>
      <trkpt lat="45.72885" lon="6.55088">
        <ele>826.9</ele>
        <time>2022-06-15T10:04:30Z</time>
      </trkpt>
      <trkpt lat="45.72886" lon="6.55092">
        <ele>826.9</ele>
        <time>2022-06-15T10:04:31Z</time>
      </trkpt>
      <trkpt lat="45.72886" lon="6.55095">
        <ele>827</ele>
        <time>2022-06-15T10:04:32Z</time>
      </trkpt>
      <trkpt lat="45.72887" lon="6.55098">
        <ele>827.2</ele>
        <time>2022-06-15T10:04:33Z</time>
      </trkpt>
      <trkpt lat="45.72887" lon="6.55101">
        <ele>827.3</ele>
        <time>2022-06-15T10:04:34Z</time>
      </trkpt>
      <trkpt lat="45.72888" lon="6.55104">
        <ele>827.8</ele>
        <time>2022-06-15T10:04:35Z</time>
      </trkpt>
      <trkpt lat="45.72889" lon="6.55107">
        <ele>828.2</ele>
        <time>2022-06-15T10:04:36Z</time>
      </trkpt>
      <trkpt lat="45.7289" lon="6.5511">
        <ele>828.5</ele>
        <time>2022-06-15T10:04:37Z</time>
      </trkpt>
      <trkpt lat="45.72891" lon="6.55114">
        <ele>828.8</ele>
        <time>2022-06-15T10:04:38Z</time>
      </trkpt>
      <trkpt lat="45.72891" lon="6.55117">
        <ele>829.2</ele>
        <time>2022-06-15T10:04:39Z</time>
      </trkpt>
      <trkpt lat="45.72892" lon="6.5512">
        <ele>829.6</ele>
        <time>2022-06-15T10:04:40Z</time>
      </trkpt>
      <trkpt lat="45.72892" lon="6.55123">
        <ele>829.8</ele>
        <time>2022-06-15T10:04:41Z</time>
      </trkpt>
      <trkpt lat="45.72893" lon="6.55127">
        <ele>830.1</ele>
        <time>2022-06-15T10:04:42Z</time>
      </trkpt>
      <trkpt lat="45.72893" lon="6.5513">
        <ele>830.5</ele>
        <time>2022-06-15T10:04:43Z</time>
      </trkpt>
      <trkpt lat="45.72894" lon="6.55133">
        <ele>830.9</ele>
        <time>2022-06-15T10:04:44Z</time>
      </trkpt>
      <trkpt lat="45.72894" lon="6.55137">
        <ele>831.1</ele>
        <time>2022-06-15T10:04:45Z</time>
      </trkpt>
      <trkpt lat="45.72894" lon="6.5514">
        <ele>831.4</ele>
        <time>2022-06-15T10:04:46Z</time>
      </trkpt>
      <trkpt lat="45.72895" lon="6.55143">
        <ele>831.6</ele>
        <time>2022-06-15T10:04:47Z</time>
      </trkpt>
      <trkpt lat="45.72895" lon="6.55146">
        <ele>831.8</ele>
        <time>2022-06-15T10:04:48Z</time>
      </trkpt>
      <trkpt lat="45.72895" lon="6.55149">
        <ele>832</ele>
        <time>2022-06-15T10:04:49Z</time>
      </trkpt>
      <trkpt lat="45.72895" lon="6.55152">
        <ele>832.2</ele>
        <time>2022-06-15T10:04:50Z</time>
      </trkpt>
      <trkpt lat="45.72896" lon="6.55155">
        <ele>832.4</ele>
        <time>2022-06-15T10:04:51Z</time>
      </trkpt>
      <trkpt lat="45.72896" lon="6.55159">
        <ele>832.6</ele>
        <time>2022-06-15T10:04:52Z</time>
      </trkpt>
      <trkpt lat="45.72896" lon="6.55162">
        <ele>832.7</ele>
        <time>2022-06-15T10:04:53Z</time>
      </trkpt>
      <trkpt lat="45.72895" lon="6.55165">
        <ele>832.7</ele>
        <time>2022-06-15T10:04:54Z</time>
      </trkpt>
      <trkpt lat="45.72895" lon="6.55169">
        <ele>832.9</ele>
        <time>2022-06-15T10:04:55Z</time>
      </trkpt>
      <trkpt lat="45.72895" lon="6.55172">
        <ele>833.2</ele>
        <time>2022-06-15T10:04:56Z</time>
      </trkpt>
      <trkpt lat="45.72895" lon="6.55175">
        <ele>833.5</ele>
        <time>2022-06-15T10:04:57Z</time>
      </trkpt>
      <trkpt lat="45.72895" lon="6.55179">
        <ele>833.9</ele>
        <time>2022-06-15T10:04:58Z</time>
      </trkpt>
      <trkpt lat="45.72894" lon="6.55182">
        <ele>834.1</ele>
        <time>2022-06-15T10:04:59Z</time>
      </trkpt>
      <trkpt lat="45.72894" lon="6.55185">
        <ele>834.2</ele>
        <time>2022-06-15T10:05:00Z</time>
      </trkpt>
      <trkpt lat="45.72893" lon="6.55188">
        <ele>834.4</ele>
        <time>2022-06-15T10:05:01Z</time>
      </trkpt>
      <trkpt lat="45.72893" lon="6.55191">
        <ele>834.7</ele>
        <time>2022-06-15T10:05:02Z</time>
      </trkpt>
      <trkpt lat="45.72893" lon="6.55194">
        <ele>835</ele>
        <time>2022-06-15T10:05:03Z</time>
      </trkpt>
      <trkpt lat="45.72893" lon="6.55197">
        <ele>835.1</ele>
        <time>2022-06-15T10:05:04Z</time>
      </trkpt>
      <trkpt lat="45.72892" lon="6.552">
        <ele>835.3</ele>
        <time>2022-06-15T10:05:05Z</time>
      </trkpt>
      <trkpt lat="45.72892" lon="6.55203">
        <ele>835.5</ele>
        <time>2022-06-15T10:05:06Z</time>
      </trkpt>
      <trkpt lat="45.72892" lon="6.55206">
        <ele>835.5</ele>
        <time>2022-06-15T10:05:07Z</time>
      </trkpt>
      <trkpt lat="45.72891" lon="6.55209">
        <ele>835.7</ele>
        <time>2022-06-15T10:05:08Z</time>
      </trkpt>
      <trkpt lat="45.72891" lon="6.55213">
        <ele>835.8</ele>
        <time>2022-06-15T10:05:09Z</time>
      </trkpt>
      <trkpt lat="45.72891" lon="6.55216">
        <ele>835.8</ele>
        <time>2022-06-15T10:05:10Z</time>
      </trkpt>
      <trkpt lat="45.72891" lon="6.55219">
        <ele>836.3</ele>
        <time>2022-06-15T10:05:11Z</time>
      </trkpt>
      <trkpt lat="45.72891" lon="6.55222">
        <ele>836.6</ele>
        <time>2022-06-15T10:05:12Z</time>
      </trkpt>
      <trkpt lat="45.72891" lon="6.55226">
        <ele>836.7</ele>
        <time>2022-06-15T10:05:13Z</time>
      </trkpt>
      <trkpt lat="45.72891" lon="6.55229">
        <ele>837</ele>
        <time>2022-06-15T10:05:14Z</time>
      </trkpt>
      <trkpt lat="45.72891" lon="6.55232">
        <ele>837.3</ele>
        <time>2022-06-15T10:05:15Z</time>
      </trkpt>
      <trkpt lat="45.72891" lon="6.55236">
        <ele>837.9</ele>
        <time>2022-06-15T10:05:16Z</time>
      </trkpt>
      <trkpt lat="45.72891" lon="6.55239">
        <ele>838.4</ele>
        <time>2022-06-15T10:05:17Z</time>
      </trkpt>
      <trkpt lat="45.72891" lon="6.55242">
        <ele>838.8</ele>
        <time>2022-06-15T10:05:18Z</time>
      </trkpt>
      <trkpt lat="45.72891" lon="6.55245">
        <ele>839.4</ele>
        <time>2022-06-15T10:05:19Z</time>
      </trkpt>
      <trkpt lat="45.72892" lon="6.55248">
        <ele>839.9</ele>
        <time>2022-06-15T10:05:20Z</time>
      </trkpt>
      <trkpt lat="45.72892" lon="6.55252">
        <ele>840.2</ele>
        <time>2022-06-15T10:05:21Z</time>
      </trkpt>
      <trkpt lat="45.72892" lon="6.55255">
        <ele>840.7</ele>
        <time>2022-06-15T10:05:22Z</time>
      </trkpt>
      <trkpt lat="45.72892" lon="6.55258">
        <ele>840.8</ele>
        <time>2022-06-15T10:05:23Z</time>
      </trkpt>
      <trkpt lat="45.72892" lon="6.55261">
        <ele>840.8</ele>
        <time>2022-06-15T10:05:24Z</time>
      </trkpt>
      <trkpt lat="45.72892" lon="6.55264">
        <ele>840.8</ele>
        <time>2022-06-15T10:05:25Z</time>
      </trkpt>
      <trkpt lat="45.72892" lon="6.55268">
        <ele>840.8</ele>
        <time>2022-06-15T10:05:26Z</time>
      </trkpt>
      <trkpt lat="45.72892" lon="6.55271">
        <ele>841.1</ele>
        <time>2022-06-15T10:05:27Z</time>
      </trkpt>
      <trkpt lat="45.72893" lon="6.55274">
        <ele>841.4</ele>
        <time>2022-06-15T10:05:28Z</time>
      </trkpt>
      <trkpt lat="45.72893" lon="6.55277">
        <ele>841.9</ele>
        <time>2022-06-15T10:05:29Z</time>
      </trkpt>
      <trkpt lat="45.72893" lon="6.55281">
        <ele>842.3</ele>
        <time>2022-06-15T10:05:30Z</time>
      </trkpt>
      <trkpt lat="45.72893" lon="6.55284">
        <ele>842.6</ele>
        <time>2022-06-15T10:05:31Z</time>
      </trkpt>
      <trkpt lat="45.72893" lon="6.55287">
        <ele>843</ele>
        <time>2022-06-15T10:05:32Z</time>
      </trkpt>
      <trkpt lat="45.72893" lon="6.5529">
        <ele>843.2</ele>
        <time>2022-06-15T10:05:33Z</time>
      </trkpt>
      <trkpt lat="45.72893" lon="6.55293">
        <ele>843.3</ele>
        <time>2022-06-15T10:05:34Z</time>
      </trkpt>
      <trkpt lat="45.72894" lon="6.55297">
        <ele>843.8</ele>
        <time>2022-06-15T10:05:35Z</time>
      </trkpt>
      <trkpt lat="45.72893" lon="6.553">
        <ele>843.6</ele>
        <time>2022-06-15T10:05:36Z</time>
      </trkpt>
      <trkpt lat="45.72893" lon="6.55303">
        <ele>843.4</ele>
        <time>2022-06-15T10:05:37Z</time>
      </trkpt>
      <trkpt lat="45.72893" lon="6.55306">
        <ele>843.8</ele>
        <time>2022-06-15T10:05:38Z</time>
      </trkpt>
      <trkpt lat="45.72894" lon="6.55309">
        <ele>844</ele>
        <time>2022-06-15T10:05:39Z</time>
      </trkpt>
      <trkpt lat="45.72894" lon="6.55313">
        <ele>844.4</ele>
        <time>2022-06-15T10:05:40Z</time>
      </trkpt>
      <trkpt lat="45.72894" lon="6.55316">
        <ele>845</ele>
        <time>2022-06-15T10:05:41Z</time>
      </trkpt>
      <trkpt lat="45.72895" lon="6.55319">
        <ele>845.3</ele>
        <time>2022-06-15T10:05:42Z</time>
      </trkpt>
      <trkpt lat="45.72895" lon="6.55322">
        <ele>845.2</ele>
        <time>2022-06-15T10:05:43Z</time>
      </trkpt>
      <trkpt lat="45.72895" lon="6.55325">
        <ele>845.1</ele>
        <time>2022-06-15T10:05:44Z</time>
      </trkpt>
      <trkpt lat="45.72895" lon="6.55328">
        <ele>845.2</ele>
        <time>2022-06-15T10:05:45Z</time>
      </trkpt>
      <trkpt lat="45.72895" lon="6.55332">
        <ele>845.5</ele>
        <time>2022-06-15T10:05:46Z</time>
      </trkpt>
      <trkpt lat="45.72895" lon="6.55335">
        <ele>845.5</ele>
        <time>2022-06-15T10:05:47Z</time>
      </trkpt>
      <trkpt lat="45.72896" lon="6.55338">
        <ele>845.5</ele>
        <time>2022-06-15T10:05:48Z</time>
      </trkpt>
      <trkpt lat="45.72896" lon="6.55341">
        <ele>845.6</ele>
        <time>2022-06-15T10:05:49Z</time>
      </trkpt>
      <trkpt lat="45.72897" lon="6.55344">
        <ele>845.9</ele>
        <time>2022-06-15T10:05:50Z</time>
      </trkpt>
      <trkpt lat="45.72897" lon="6.55347">
        <ele>845.9</ele>
        <time>2022-06-15T10:05:51Z</time>
      </trkpt>
      <trkpt lat="45.72898" lon="6.5535">
        <ele>846</ele>
        <time>2022-06-15T10:05:52Z</time>
      </trkpt>
      <trkpt lat="45.72898" lon="6.55353">
        <ele>845.8</ele>
        <time>2022-06-15T10:05:53Z</time>
      </trkpt>
      <trkpt lat="45.72898" lon="6.55356">
        <ele>845.7</ele>
        <time>2022-06-15T10:05:54Z</time>
      </trkpt>
      <trkpt lat="45.72899" lon="6.55359">
        <ele>845.8</ele>
        <time>2022-06-15T10:05:55Z</time>
      </trkpt>
      <trkpt lat="45.72899" lon="6.55362">
        <ele>845.9</ele>
        <time>2022-06-15T10:05:56Z</time>
      </trkpt>
      <trkpt lat="45.729" lon="6.55364">
        <ele>846.1</ele>
        <time>2022-06-15T10:05:57Z</time>
      </trkpt>
      <trkpt lat="45.72901" lon="6.55367">
        <ele>846.2</ele>
        <time>2022-06-15T10:05:58Z</time>
      </trkpt>
      <trkpt lat="45.72902" lon="6.5537">
        <ele>846.3</ele>
        <time>2022-06-15T10:05:59Z</time>
      </trkpt>
      <trkpt lat="45.72902" lon="6.55373">
        <ele>846.2</ele>
        <time>2022-06-15T10:06:00Z</time>
      </trkpt>
      <trkpt lat="45.72903" lon="6.55376">
        <ele>846.1</ele>
        <time>2022-06-15T10:06:01Z</time>
      </trkpt>
      <trkpt lat="45.72903" lon="6.55379">
        <ele>846.2</ele>
        <time>2022-06-15T10:06:02Z</time>
      </trkpt>
      <trkpt lat="45.72904" lon="6.55382">
        <ele>846.2</ele>
        <time>2022-06-15T10:06:03Z</time>
      </trkpt>
      <trkpt lat="45.72905" lon="6.55385">
        <ele>846.3</ele>
        <time>2022-06-15T10:06:04Z</time>
      </trkpt>
      <trkpt lat="45.72905" lon="6.55388">
        <ele>846.1</ele>
        <time>2022-06-15T10:06:05Z</time>
      </trkpt>
      <trkpt lat="45.72906" lon="6.55391">
        <ele>846.2</ele>
        <time>2022-06-15T10:06:06Z</time>
      </trkpt>
      <trkpt lat="45.72907" lon="6.55394">
        <ele>846.3</ele>
        <time>2022-06-15T10:06:07Z</time>
      </trkpt>
      <trkpt lat="45.72907" lon="6.55397">
        <ele>846.1</ele>
        <time>2022-06-15T10:06:08Z</time>
      </trkpt>
      <trkpt lat="45.72908" lon="6.55401">
        <ele>846</ele>
        <time>2022-06-15T10:06:09Z</time>
      </trkpt>
      <trkpt lat="45.72909" lon="6.55404">
        <ele>845.9</ele>
        <time>2022-06-15T10:06:10Z</time>
      </trkpt>
      <trkpt lat="45.72909" lon="6.55407">
        <ele>845.7</ele>
        <time>2022-06-15T10:06:11Z</time>
      </trkpt>
      <trkpt lat="45.7291" lon="6.5541">
        <ele>845.4</ele>
        <time>2022-06-15T10:06:12Z</time>
      </trkpt>
      <trkpt lat="45.72911" lon="6.55413">
        <ele>845.5</ele>
        <time>2022-06-15T10:06:13Z</time>
      </trkpt>
      <trkpt lat="45.72912" lon="6.55416">
        <ele>845.6</ele>
        <time>2022-06-15T10:06:14Z</time>
      </trkpt>
      <trkpt lat="45.72912" lon="6.55419">
        <ele>845.8</ele>
        <time>2022-06-15T10:06:15Z</time>
      </trkpt>
      <trkpt lat="45.72913" lon="6.55422">
        <ele>846.1</ele>
        <time>2022-06-15T10:06:16Z</time>
      </trkpt>
      <trkpt lat="45.72914" lon="6.55425">
        <ele>846.2</ele>
        <time>2022-06-15T10:06:17Z</time>
      </trkpt>
      <trkpt lat="45.72914" lon="6.55429">
        <ele>846.3</ele>
        <time>2022-06-15T10:06:18Z</time>
      </trkpt>
      <trkpt lat="45.72915" lon="6.55432">
        <ele>846.7</ele>
        <time>2022-06-15T10:06:19Z</time>
      </trkpt>
      <trkpt lat="45.72916" lon="6.55435">
        <ele>847.2</ele>
        <time>2022-06-15T10:06:20Z</time>
      </trkpt>
      <trkpt lat="45.72917" lon="6.55438">
        <ele>847.4</ele>
        <time>2022-06-15T10:06:21Z</time>
      </trkpt>
      <trkpt lat="45.72917" lon="6.55441">
        <ele>847.9</ele>
        <time>2022-06-15T10:06:22Z</time>
      </trkpt>
      <trkpt lat="45.72918" lon="6.55444">
        <ele>848.3</ele>
        <time>2022-06-15T10:06:23Z</time>
      </trkpt>
      <trkpt lat="45.72918" lon="6.55448">
        <ele>849.1</ele>
        <time>2022-06-15T10:06:24Z</time>
      </trkpt>
      <trkpt lat="45.72919" lon="6.55451">
        <ele>849.9</ele>
        <time>2022-06-15T10:06:25Z</time>
      </trkpt>
      <trkpt lat="45.7292" lon="6.55454">
        <ele>850.1</ele>
        <time>2022-06-15T10:06:26Z</time>
      </trkpt>
      <trkpt lat="45.7292" lon="6.55457">
        <ele>850.6</ele>
        <time>2022-06-15T10:06:27Z</time>
      </trkpt>
      <trkpt lat="45.72921" lon="6.5546">
        <ele>851</ele>
        <time>2022-06-15T10:06:28Z</time>
      </trkpt>
      <trkpt lat="45.72922" lon="6.55463">
        <ele>851.3</ele>
        <time>2022-06-15T10:06:29Z</time>
      </trkpt>
      <trkpt lat="45.72923" lon="6.55466">
        <ele>851.5</ele>
        <time>2022-06-15T10:06:30Z</time>
      </trkpt>
      <trkpt lat="45.72923" lon="6.55469">
        <ele>851.2</ele>
        <time>2022-06-15T10:06:31Z</time>
      </trkpt>
      <trkpt lat="45.72923" lon="6.55472">
        <ele>851.1</ele>
        <time>2022-06-15T10:06:32Z</time>
      </trkpt>
      <trkpt lat="45.72924" lon="6.55475">
        <ele>851.3</ele>
        <time>2022-06-15T10:06:33Z</time>
      </trkpt>
      <trkpt lat="45.72924" lon="6.55478">
        <ele>851.6</ele>
        <time>2022-06-15T10:06:34Z</time>
      </trkpt>
      <trkpt lat="45.72925" lon="6.55481">
        <ele>852</ele>
        <time>2022-06-15T10:06:35Z</time>
      </trkpt>
      <trkpt lat="45.72925" lon="6.55485">
        <ele>852.1</ele>
        <time>2022-06-15T10:06:36Z</time>
      </trkpt>
      <trkpt lat="45.72926" lon="6.55488">
        <ele>852.2</ele>
        <time>2022-06-15T10:06:37Z</time>
      </trkpt>
      <trkpt lat="45.72926" lon="6.55491">
        <ele>852.1</ele>
        <time>2022-06-15T10:06:38Z</time>
      </trkpt>
      <trkpt lat="45.72926" lon="6.55494">
        <ele>851.9</ele>
        <time>2022-06-15T10:06:39Z</time>
      </trkpt>
      <trkpt lat="45.72926" lon="6.55497">
        <ele>851.8</ele>
        <time>2022-06-15T10:06:40Z</time>
      </trkpt>
      <trkpt lat="45.72926" lon="6.555">
        <ele>851.8</ele>
        <time>2022-06-15T10:06:41Z</time>
      </trkpt>
      <trkpt lat="45.72926" lon="6.55503">
        <ele>852</ele>
        <time>2022-06-15T10:06:42Z</time>
      </trkpt>
      <trkpt lat="45.72926" lon="6.55507">
        <ele>852.3</ele>
        <time>2022-06-15T10:06:43Z</time>
      </trkpt>
      <trkpt lat="45.72927" lon="6.55509">
        <ele>852.7</ele>
        <time>2022-06-15T10:06:44Z</time>
      </trkpt>
      <trkpt lat="45.72927" lon="6.55513">
        <ele>853.1</ele>
        <time>2022-06-15T10:06:45Z</time>
      </trkpt>
      <trkpt lat="45.72927" lon="6.55516">
        <ele>853.3</ele>
        <time>2022-06-15T10:06:46Z</time>
      </trkpt>
      <trkpt lat="45.72927" lon="6.55519">
        <ele>853.4</ele>
        <time>2022-06-15T10:06:47Z</time>
      </trkpt>
      <trkpt lat="45.72927" lon="6.55522">
        <ele>853.6</ele>
        <time>2022-06-15T10:06:48Z</time>
      </trkpt>
      <trkpt lat="45.72927" lon="6.55526">
        <ele>853.5</ele>
        <time>2022-06-15T10:06:49Z</time>
      </trkpt>
      <trkpt lat="45.72927" lon="6.55529">
        <ele>853.7</ele>
        <time>2022-06-15T10:06:50Z</time>
      </trkpt>
      <trkpt lat="45.72927" lon="6.55533">
        <ele>854</ele>
        <time>2022-06-15T10:06:51Z</time>
      </trkpt>
      <trkpt lat="45.72927" lon="6.55536">
        <ele>854.5</ele>
        <time>2022-06-15T10:06:52Z</time>
      </trkpt>
      <trkpt lat="45.72927" lon="6.55539">
        <ele>854.9</ele>
        <time>2022-06-15T10:06:53Z</time>
      </trkpt>
      <trkpt lat="45.72927" lon="6.55543">
        <ele>855.2</ele>
        <time>2022-06-15T10:06:54Z</time>
      </trkpt>
      <trkpt lat="45.72927" lon="6.55546">
        <ele>855.3</ele>
        <time>2022-06-15T10:06:55Z</time>
      </trkpt>
      <trkpt lat="45.72927" lon="6.55549">
        <ele>855.4</ele>
        <time>2022-06-15T10:06:56Z</time>
      </trkpt>
      <trkpt lat="45.72927" lon="6.55553">
        <ele>855.7</ele>
        <time>2022-06-15T10:06:57Z</time>
      </trkpt>
      <trkpt lat="45.72926" lon="6.55556">
        <ele>855.8</ele>
        <time>2022-06-15T10:06:58Z</time>
      </trkpt>
      <trkpt lat="45.72926" lon="6.55559">
        <ele>856.1</ele>
        <time>2022-06-15T10:06:59Z</time>
      </trkpt>
      <trkpt lat="45.72926" lon="6.55563">
        <ele>856.2</ele>
        <time>2022-06-15T10:07:00Z</time>
      </trkpt>
      <trkpt lat="45.72926" lon="6.55566">
        <ele>856.5</ele>
        <time>2022-06-15T10:07:01Z</time>
      </trkpt>
      <trkpt lat="45.72925" lon="6.55569">
        <ele>856.6</ele>
        <time>2022-06-15T10:07:02Z</time>
      </trkpt>
      <trkpt lat="45.72925" lon="6.55573">
        <ele>856.7</ele>
        <time>2022-06-15T10:07:03Z</time>
      </trkpt>
      <trkpt lat="45.72924" lon="6.55576">
        <ele>856.8</ele>
        <time>2022-06-15T10:07:04Z</time>
      </trkpt>
      <trkpt lat="45.72924" lon="6.55579">
        <ele>857</ele>
        <time>2022-06-15T10:07:05Z</time>
      </trkpt>
      <trkpt lat="45.72924" lon="6.55582">
        <ele>857.1</ele>
        <time>2022-06-15T10:07:06Z</time>
      </trkpt>
      <trkpt lat="45.72923" lon="6.55585">
        <ele>857.1</ele>
        <time>2022-06-15T10:07:07Z</time>
      </trkpt>
      <trkpt lat="45.72923" lon="6.55589">
        <ele>857.2</ele>
        <time>2022-06-15T10:07:08Z</time>
      </trkpt>
      <trkpt lat="45.72922" lon="6.55592">
        <ele>857.3</ele>
        <time>2022-06-15T10:07:09Z</time>
      </trkpt>
      <trkpt lat="45.72922" lon="6.55595">
        <ele>857.5</ele>
        <time>2022-06-15T10:07:10Z</time>
      </trkpt>
      <trkpt lat="45.72922" lon="6.55598">
        <ele>857.6</ele>
        <time>2022-06-15T10:07:11Z</time>
      </trkpt>
      <trkpt lat="45.72921" lon="6.55601">
        <ele>857.7</ele>
        <time>2022-06-15T10:07:12Z</time>
      </trkpt>
      <trkpt lat="45.72921" lon="6.55603">
        <ele>857.8</ele>
        <time>2022-06-15T10:07:13Z</time>
      </trkpt>
      <trkpt lat="45.7292" lon="6.55606">
        <ele>857.9</ele>
        <time>2022-06-15T10:07:14Z</time>
      </trkpt>
      <trkpt lat="45.7292" lon="6.5561">
        <ele>858.2</ele>
        <time>2022-06-15T10:07:15Z</time>
      </trkpt>
      <trkpt lat="45.7292" lon="6.55613">
        <ele>858.4</ele>
        <time>2022-06-15T10:07:16Z</time>
      </trkpt>
      <trkpt lat="45.7292" lon="6.55616">
        <ele>858.5</ele>
        <time>2022-06-15T10:07:17Z</time>
      </trkpt>
      <trkpt lat="45.7292" lon="6.55619">
        <ele>858.7</ele>
        <time>2022-06-15T10:07:18Z</time>
      </trkpt>
      <trkpt lat="45.72919" lon="6.55622">
        <ele>858.8</ele>
        <time>2022-06-15T10:07:19Z</time>
      </trkpt>
      <trkpt lat="45.72919" lon="6.55625">
        <ele>858.9</ele>
        <time>2022-06-15T10:07:20Z</time>
      </trkpt>
      <trkpt lat="45.72919" lon="6.55628">
        <ele>859.1</ele>
        <time>2022-06-15T10:07:21Z</time>
      </trkpt>
      <trkpt lat="45.72919" lon="6.55632">
        <ele>859.4</ele>
        <time>2022-06-15T10:07:22Z</time>
      </trkpt>
      <trkpt lat="45.7292" lon="6.55635">
        <ele>859.7</ele>
        <time>2022-06-15T10:07:23Z</time>
      </trkpt>
      <trkpt lat="45.7292" lon="6.55638">
        <ele>860</ele>
        <time>2022-06-15T10:07:24Z</time>
      </trkpt>
      <trkpt lat="45.7292" lon="6.55641">
        <ele>860</ele>
        <time>2022-06-15T10:07:25Z</time>
      </trkpt>
      <trkpt lat="45.7292" lon="6.55644">
        <ele>860.1</ele>
        <time>2022-06-15T10:07:26Z</time>
      </trkpt>
      <trkpt lat="45.7292" lon="6.55647">
        <ele>860.1</ele>
        <time>2022-06-15T10:07:27Z</time>
      </trkpt>
      <trkpt lat="45.7292" lon="6.5565">
        <ele>860.2</ele>
        <time>2022-06-15T10:07:28Z</time>
      </trkpt>
      <trkpt lat="45.7292" lon="6.55653">
        <ele>860.2</ele>
        <time>2022-06-15T10:07:29Z</time>
      </trkpt>
      <trkpt lat="45.7292" lon="6.55656">
        <ele>860.3</ele>
        <time>2022-06-15T10:07:30Z</time>
      </trkpt>
      <trkpt lat="45.72921" lon="6.55659">
        <ele>860.4</ele>
        <time>2022-06-15T10:07:31Z</time>
      </trkpt>
      <trkpt lat="45.72921" lon="6.55662">
        <ele>860.7</ele>
        <time>2022-06-15T10:07:32Z</time>
      </trkpt>
      <trkpt lat="45.72922" lon="6.55665">
        <ele>861</ele>
        <time>2022-06-15T10:07:33Z</time>
      </trkpt>
      <trkpt lat="45.72923" lon="6.55668">
        <ele>861.3</ele>
        <time>2022-06-15T10:07:34Z</time>
      </trkpt>
      <trkpt lat="45.72924" lon="6.55671">
        <ele>861.5</ele>
        <time>2022-06-15T10:07:35Z</time>
      </trkpt>
      <trkpt lat="45.72924" lon="6.55674">
        <ele>861.6</ele>
        <time>2022-06-15T10:07:36Z</time>
      </trkpt>
      <trkpt lat="45.72925" lon="6.55677">
        <ele>861.9</ele>
        <time>2022-06-15T10:07:37Z</time>
      </trkpt>
      <trkpt lat="45.72925" lon="6.5568">
        <ele>862</ele>
        <time>2022-06-15T10:07:38Z</time>
      </trkpt>
      <trkpt lat="45.72926" lon="6.55683">
        <ele>862.3</ele>
        <time>2022-06-15T10:07:39Z</time>
      </trkpt>
      <trkpt lat="45.72927" lon="6.55686">
        <ele>862.5</ele>
        <time>2022-06-15T10:07:40Z</time>
      </trkpt>
      <trkpt lat="45.72927" lon="6.5569">
        <ele>862.7</ele>
        <time>2022-06-15T10:07:41Z</time>
      </trkpt>
      <trkpt lat="45.72927" lon="6.55693">
        <ele>862.8</ele>
        <time>2022-06-15T10:07:42Z</time>
      </trkpt>
      <trkpt lat="45.72928" lon="6.55696">
        <ele>863</ele>
        <time>2022-06-15T10:07:43Z</time>
      </trkpt>
      <trkpt lat="45.72928" lon="6.557">
        <ele>863.2</ele>
        <time>2022-06-15T10:07:44Z</time>
      </trkpt>
      <trkpt lat="45.72928" lon="6.55703">
        <ele>863.3</ele>
        <time>2022-06-15T10:07:45Z</time>
      </trkpt>
      <trkpt lat="45.72928" lon="6.55707">
        <ele>863.5</ele>
        <time>2022-06-15T10:07:46Z</time>
      </trkpt>
      <trkpt lat="45.72928" lon="6.5571">
        <ele>863.8</ele>
        <time>2022-06-15T10:07:47Z</time>
      </trkpt>
      <trkpt lat="45.72928" lon="6.55713">
        <ele>863.9</ele>
        <time>2022-06-15T10:07:48Z</time>
      </trkpt>
      <trkpt lat="45.72928" lon="6.55716">
        <ele>864.2</ele>
        <time>2022-06-15T10:07:49Z</time>
      </trkpt>
      <trkpt lat="45.72928" lon="6.5572">
        <ele>864.4</ele>
        <time>2022-06-15T10:07:50Z</time>
      </trkpt>
      <trkpt lat="45.72928" lon="6.55724">
        <ele>864.5</ele>
        <time>2022-06-15T10:07:51Z</time>
      </trkpt>
      <trkpt lat="45.72928" lon="6.55727">
        <ele>864.5</ele>
        <time>2022-06-15T10:07:52Z</time>
      </trkpt>
      <trkpt lat="45.72928" lon="6.5573">
        <ele>864.6</ele>
        <time>2022-06-15T10:07:53Z</time>
      </trkpt>
      <trkpt lat="45.72929" lon="6.55734">
        <ele>864.7</ele>
        <time>2022-06-15T10:07:54Z</time>
      </trkpt>
      <trkpt lat="45.72929" lon="6.55737">
        <ele>864.7</ele>
        <time>2022-06-15T10:07:55Z</time>
      </trkpt>
      <trkpt lat="45.72929" lon="6.5574">
        <ele>864.8</ele>
        <time>2022-06-15T10:07:56Z</time>
      </trkpt>
      <trkpt lat="45.72929" lon="6.55743">
        <ele>864.8</ele>
        <time>2022-06-15T10:07:57Z</time>
      </trkpt>
      <trkpt lat="45.72929" lon="6.55747">
        <ele>864.9</ele>
        <time>2022-06-15T10:07:58Z</time>
      </trkpt>
      <trkpt lat="45.72929" lon="6.5575">
        <ele>864.9</ele>
        <time>2022-06-15T10:07:59Z</time>
      </trkpt>
      <trkpt lat="45.7293" lon="6.55753">
        <ele>865.3</ele>
        <time>2022-06-15T10:08:00Z</time>
      </trkpt>
      <trkpt lat="45.7293" lon="6.55756">
        <ele>865.5</ele>
        <time>2022-06-15T10:08:01Z</time>
      </trkpt>
      <trkpt lat="45.7293" lon="6.5576">
        <ele>865.8</ele>
        <time>2022-06-15T10:08:02Z</time>
      </trkpt>
      <trkpt lat="45.7293" lon="6.55763">
        <ele>866</ele>
        <time>2022-06-15T10:08:03Z</time>
      </trkpt>
      <trkpt lat="45.7293" lon="6.55766">
        <ele>866.2</ele>
        <time>2022-06-15T10:08:04Z</time>
      </trkpt>
      <trkpt lat="45.7293" lon="6.55769">
        <ele>866.4</ele>
        <time>2022-06-15T10:08:05Z</time>
      </trkpt>
      <trkpt lat="45.7293" lon="6.55772">
        <ele>866.6</ele>
        <time>2022-06-15T10:08:06Z</time>
      </trkpt>
      <trkpt lat="45.72931" lon="6.55775">
        <ele>866.9</ele>
        <time>2022-06-15T10:08:07Z</time>
      </trkpt>
      <trkpt lat="45.72931" lon="6.55778">
        <ele>867.2</ele>
        <time>2022-06-15T10:08:08Z</time>
      </trkpt>
      <trkpt lat="45.72931" lon="6.55781">
        <ele>867.5</ele>
        <time>2022-06-15T10:08:09Z</time>
      </trkpt>
      <trkpt lat="45.72932" lon="6.55784">
        <ele>867.9</ele>
        <time>2022-06-15T10:08:10Z</time>
      </trkpt>
      <trkpt lat="45.72932" lon="6.55787">
        <ele>868.2</ele>
        <time>2022-06-15T10:08:11Z</time>
      </trkpt>
      <trkpt lat="45.72932" lon="6.5579">
        <ele>868.5</ele>
        <time>2022-06-15T10:08:12Z</time>
      </trkpt>
      <trkpt lat="45.72932" lon="6.55793">
        <ele>868.7</ele>
        <time>2022-06-15T10:08:13Z</time>
      </trkpt>
      <trkpt lat="45.72932" lon="6.55796">
        <ele>868.9</ele>
        <time>2022-06-15T10:08:14Z</time>
      </trkpt>
      <trkpt lat="45.72932" lon="6.558">
        <ele>869</ele>
        <time>2022-06-15T10:08:15Z</time>
      </trkpt>
      <trkpt lat="45.72932" lon="6.55803">
        <ele>869.2</ele>
        <time>2022-06-15T10:08:16Z</time>
      </trkpt>
      <trkpt lat="45.72932" lon="6.55806">
        <ele>869.4</ele>
        <time>2022-06-15T10:08:17Z</time>
      </trkpt>
      <trkpt lat="45.72932" lon="6.55809">
        <ele>869.7</ele>
        <time>2022-06-15T10:08:18Z</time>
      </trkpt>
      <trkpt lat="45.72932" lon="6.55813">
        <ele>869.9</ele>
        <time>2022-06-15T10:08:19Z</time>
      </trkpt>
      <trkpt lat="45.72932" lon="6.55816">
        <ele>870.1</ele>
        <time>2022-06-15T10:08:20Z</time>
      </trkpt>
      <trkpt lat="45.72932" lon="6.55819">
        <ele>870.4</ele>
        <time>2022-06-15T10:08:21Z</time>
      </trkpt>
      <trkpt lat="45.72932" lon="6.55822">
        <ele>870.6</ele>
        <time>2022-06-15T10:08:22Z</time>
      </trkpt>
      <trkpt lat="45.72932" lon="6.55826">
        <ele>870.8</ele>
        <time>2022-06-15T10:08:23Z</time>
      </trkpt>
      <trkpt lat="45.72932" lon="6.55827">
        <ele>870.9</ele>
        <time>2022-06-15T10:08:24Z</time>
      </trkpt>
      <trkpt lat="45.72932" lon="6.5583">
        <ele>871.2</ele>
        <time>2022-06-15T10:08:25Z</time>
      </trkpt>
      <trkpt lat="45.72932" lon="6.55834">
        <ele>871.4</ele>
        <time>2022-06-15T10:08:26Z</time>
      </trkpt>
      <trkpt lat="45.72931" lon="6.55837">
        <ele>871.4</ele>
        <time>2022-06-15T10:08:27Z</time>
      </trkpt>
      <trkpt lat="45.72931" lon="6.5584">
        <ele>871.6</ele>
        <time>2022-06-15T10:08:28Z</time>
      </trkpt>
      <trkpt lat="45.72931" lon="6.55844">
        <ele>871.7</ele>
        <time>2022-06-15T10:08:29Z</time>
      </trkpt>
      <trkpt lat="45.72931" lon="6.55848">
        <ele>872</ele>
        <time>2022-06-15T10:08:30Z</time>
      </trkpt>
      <trkpt lat="45.72932" lon="6.55852">
        <ele>872.3</ele>
        <time>2022-06-15T10:08:31Z</time>
      </trkpt>
      <trkpt lat="45.72932" lon="6.55855">
        <ele>872.5</ele>
        <time>2022-06-15T10:08:32Z</time>
      </trkpt>
      <trkpt lat="45.72932" lon="6.55859">
        <ele>872.8</ele>
        <time>2022-06-15T10:08:33Z</time>
      </trkpt>
      <trkpt lat="45.72932" lon="6.55863">
        <ele>873</ele>
        <time>2022-06-15T10:08:34Z</time>
      </trkpt>
      <trkpt lat="45.72933" lon="6.55866">
        <ele>873.2</ele>
        <time>2022-06-15T10:08:35Z</time>
      </trkpt>
      <trkpt lat="45.72933" lon="6.55869">
        <ele>873.4</ele>
        <time>2022-06-15T10:08:36Z</time>
      </trkpt>
      <trkpt lat="45.72934" lon="6.55873">
        <ele>873.6</ele>
        <time>2022-06-15T10:08:37Z</time>
      </trkpt>
      <trkpt lat="45.72934" lon="6.55876">
        <ele>873.8</ele>
        <time>2022-06-15T10:08:38Z</time>
      </trkpt>
      <trkpt lat="45.72935" lon="6.55879">
        <ele>874.1</ele>
        <time>2022-06-15T10:08:39Z</time>
      </trkpt>
      <trkpt lat="45.72936" lon="6.55882">
        <ele>874.3</ele>
        <time>2022-06-15T10:08:40Z</time>
      </trkpt>
      <trkpt lat="45.72936" lon="6.55885">
        <ele>874.5</ele>
        <time>2022-06-15T10:08:41Z</time>
      </trkpt>
      <trkpt lat="45.72936" lon="6.55889">
        <ele>874.6</ele>
        <time>2022-06-15T10:08:42Z</time>
      </trkpt>
      <trkpt lat="45.72937" lon="6.55892">
        <ele>874.8</ele>
        <time>2022-06-15T10:08:43Z</time>
      </trkpt>
      <trkpt lat="45.72937" lon="6.55895">
        <ele>874.9</ele>
        <time>2022-06-15T10:08:44Z</time>
      </trkpt>
      <trkpt lat="45.72938" lon="6.55899">
        <ele>875</ele>
        <time>2022-06-15T10:08:45Z</time>
      </trkpt>
      <trkpt lat="45.72938" lon="6.55902">
        <ele>875.1</ele>
        <time>2022-06-15T10:08:46Z</time>
      </trkpt>
      <trkpt lat="45.72938" lon="6.55906">
        <ele>875.2</ele>
        <time>2022-06-15T10:08:47Z</time>
      </trkpt>
      <trkpt lat="45.72939" lon="6.55909">
        <ele>875.3</ele>
        <time>2022-06-15T10:08:48Z</time>
      </trkpt>
      <trkpt lat="45.72939" lon="6.55913">
        <ele>875.3</ele>
        <time>2022-06-15T10:08:49Z</time>
      </trkpt>
      <trkpt lat="45.72939" lon="6.55917">
        <ele>875.4</ele>
        <time>2022-06-15T10:08:50Z</time>
      </trkpt>
      <trkpt lat="45.72939" lon="6.5592">
        <ele>875.4</ele>
        <time>2022-06-15T10:08:51Z</time>
      </trkpt>
      <trkpt lat="45.72939" lon="6.55923">
        <ele>875.5</ele>
        <time>2022-06-15T10:08:52Z</time>
      </trkpt>
      <trkpt lat="45.7294" lon="6.55927">
        <ele>875.7</ele>
        <time>2022-06-15T10:08:53Z</time>
      </trkpt>
      <trkpt lat="45.7294" lon="6.5593">
        <ele>875.7</ele>
        <time>2022-06-15T10:08:54Z</time>
      </trkpt>
      <trkpt lat="45.72941" lon="6.55933">
        <ele>875.9</ele>
        <time>2022-06-15T10:08:55Z</time>
      </trkpt>
      <trkpt lat="45.72941" lon="6.55936">
        <ele>876</ele>
        <time>2022-06-15T10:08:56Z</time>
      </trkpt>
      <trkpt lat="45.72942" lon="6.55939">
        <ele>876.1</ele>
        <time>2022-06-15T10:08:57Z</time>
      </trkpt>
      <trkpt lat="45.72942" lon="6.55942">
        <ele>876.1</ele>
        <time>2022-06-15T10:08:58Z</time>
      </trkpt>
      <trkpt lat="45.72942" lon="6.55945">
        <ele>876.1</ele>
        <time>2022-06-15T10:08:59Z</time>
      </trkpt>
      <trkpt lat="45.72942" lon="6.55948">
        <ele>876.2</ele>
        <time>2022-06-15T10:09:00Z</time>
      </trkpt>
      <trkpt lat="45.72941" lon="6.5595">
        <ele>876.1</ele>
        <time>2022-06-15T10:09:01Z</time>
      </trkpt>
      <trkpt lat="45.72941" lon="6.55953">
        <ele>876.3</ele>
        <time>2022-06-15T10:09:02Z</time>
      </trkpt>
      <trkpt lat="45.72942" lon="6.55957">
        <ele>876.6</ele>
        <time>2022-06-15T10:09:03Z</time>
      </trkpt>
      <trkpt lat="45.72942" lon="6.5596">
        <ele>876.7</ele>
        <time>2022-06-15T10:09:04Z</time>
      </trkpt>
      <trkpt lat="45.72942" lon="6.55963">
        <ele>876.9</ele>
        <time>2022-06-15T10:09:05Z</time>
      </trkpt>
      <trkpt lat="45.72942" lon="6.55966">
        <ele>877.1</ele>
        <time>2022-06-15T10:09:06Z</time>
      </trkpt>
      <trkpt lat="45.72942" lon="6.5597">
        <ele>877.2</ele>
        <time>2022-06-15T10:09:07Z</time>
      </trkpt>
      <trkpt lat="45.72942" lon="6.55972">
        <ele>877.3</ele>
        <time>2022-06-15T10:09:08Z</time>
      </trkpt>
      <trkpt lat="45.72942" lon="6.55976">
        <ele>877.3</ele>
        <time>2022-06-15T10:09:09Z</time>
      </trkpt>
      <trkpt lat="45.72942" lon="6.55979">
        <ele>877.4</ele>
        <time>2022-06-15T10:09:10Z</time>
      </trkpt>
      <trkpt lat="45.72942" lon="6.55981">
        <ele>877.4</ele>
        <time>2022-06-15T10:09:11Z</time>
      </trkpt>
      <trkpt lat="45.72943" lon="6.55984">
        <ele>877.8</ele>
        <time>2022-06-15T10:09:12Z</time>
      </trkpt>
      <trkpt lat="45.72943" lon="6.55987">
        <ele>878.1</ele>
        <time>2022-06-15T10:09:13Z</time>
      </trkpt>
      <trkpt lat="45.72943" lon="6.5599">
        <ele>878.3</ele>
        <time>2022-06-15T10:09:14Z</time>
      </trkpt>
      <trkpt lat="45.72944" lon="6.55993">
        <ele>878.4</ele>
        <time>2022-06-15T10:09:15Z</time>
      </trkpt>
      <trkpt lat="45.72943" lon="6.55995">
        <ele>878.5</ele>
        <time>2022-06-15T10:09:16Z</time>
      </trkpt>
      <trkpt lat="45.72943" lon="6.55997">
        <ele>878.5</ele>
        <time>2022-06-15T10:09:17Z</time>
      </trkpt>
      <trkpt lat="45.72943" lon="6.56">
        <ele>878.7</ele>
        <time>2022-06-15T10:09:18Z</time>
      </trkpt>
      <trkpt lat="45.72943" lon="6.56003">
        <ele>878.7</ele>
        <time>2022-06-15T10:09:19Z</time>
      </trkpt>
      <trkpt lat="45.72943" lon="6.56006">
        <ele>879.1</ele>
        <time>2022-06-15T10:09:20Z</time>
      </trkpt>
      <trkpt lat="45.72944" lon="6.5601">
        <ele>879.5</ele>
        <time>2022-06-15T10:09:21Z</time>
      </trkpt>
      <trkpt lat="45.72944" lon="6.56012">
        <ele>879.6</ele>
        <time>2022-06-15T10:09:22Z</time>
      </trkpt>
      <trkpt lat="45.72944" lon="6.56016">
        <ele>879.8</ele>
        <time>2022-06-15T10:09:23Z</time>
      </trkpt>
      <trkpt lat="45.72944" lon="6.5602">
        <ele>880.3</ele>
        <time>2022-06-15T10:09:24Z</time>
      </trkpt>
      <trkpt lat="45.72944" lon="6.56023">
        <ele>880.6</ele>
        <time>2022-06-15T10:09:25Z</time>
      </trkpt>
      <trkpt lat="45.72944" lon="6.56026">
        <ele>880.8</ele>
        <time>2022-06-15T10:09:26Z</time>
      </trkpt>
      <trkpt lat="45.72945" lon="6.56029">
        <ele>881.2</ele>
        <time>2022-06-15T10:09:27Z</time>
      </trkpt>
      <trkpt lat="45.72945" lon="6.56031">
        <ele>881.2</ele>
        <time>2022-06-15T10:09:28Z</time>
      </trkpt>
      <trkpt lat="45.72945" lon="6.56035">
        <ele>881.3</ele>
        <time>2022-06-15T10:09:29Z</time>
      </trkpt>
      <trkpt lat="45.72945" lon="6.56038">
        <ele>881.5</ele>
        <time>2022-06-15T10:09:30Z</time>
      </trkpt>
      <trkpt lat="45.72945" lon="6.56041">
        <ele>881.9</ele>
        <time>2022-06-15T10:09:31Z</time>
      </trkpt>
      <trkpt lat="45.72945" lon="6.56044">
        <ele>882.2</ele>
        <time>2022-06-15T10:09:32Z</time>
      </trkpt>
      <trkpt lat="45.72945" lon="6.56048">
        <ele>882.3</ele>
        <time>2022-06-15T10:09:33Z</time>
      </trkpt>
      <trkpt lat="45.72946" lon="6.56051">
        <ele>882.6</ele>
        <time>2022-06-15T10:09:34Z</time>
      </trkpt>
      <trkpt lat="45.72946" lon="6.56055">
        <ele>883.1</ele>
        <time>2022-06-15T10:09:35Z</time>
      </trkpt>
      <trkpt lat="45.72946" lon="6.56058">
        <ele>883.2</ele>
        <time>2022-06-15T10:09:36Z</time>
      </trkpt>
      <trkpt lat="45.72947" lon="6.56061">
        <ele>883.5</ele>
        <time>2022-06-15T10:09:37Z</time>
      </trkpt>
      <trkpt lat="45.72948" lon="6.56064">
        <ele>884</ele>
        <time>2022-06-15T10:09:38Z</time>
      </trkpt>
      <trkpt lat="45.72949" lon="6.56069">
        <ele>884.6</ele>
        <time>2022-06-15T10:09:39Z</time>
      </trkpt>
      <trkpt lat="45.72949" lon="6.56072">
        <ele>884.9</ele>
        <time>2022-06-15T10:09:40Z</time>
      </trkpt>
      <trkpt lat="45.7295" lon="6.56075">
        <ele>885.3</ele>
        <time>2022-06-15T10:09:41Z</time>
      </trkpt>
      <trkpt lat="45.72951" lon="6.56079">
        <ele>885.7</ele>
        <time>2022-06-15T10:09:42Z</time>
      </trkpt>
      <trkpt lat="45.72951" lon="6.56083">
        <ele>885.9</ele>
        <time>2022-06-15T10:09:43Z</time>
      </trkpt>
      <trkpt lat="45.72951" lon="6.56086">
        <ele>885.7</ele>
        <time>2022-06-15T10:09:44Z</time>
      </trkpt>
      <trkpt lat="45.7295" lon="6.5609">
        <ele>885.6</ele>
        <time>2022-06-15T10:09:45Z</time>
      </trkpt>
      <trkpt lat="45.7295" lon="6.56094">
        <ele>885.5</ele>
        <time>2022-06-15T10:09:46Z</time>
      </trkpt>
      <trkpt lat="45.7295" lon="6.56097">
        <ele>885.5</ele>
        <time>2022-06-15T10:09:47Z</time>
      </trkpt>
      <trkpt lat="45.7295" lon="6.56101">
        <ele>885.4</ele>
        <time>2022-06-15T10:09:48Z</time>
      </trkpt>
      <trkpt lat="45.7295" lon="6.56105">
        <ele>885.5</ele>
        <time>2022-06-15T10:09:49Z</time>
      </trkpt>
      <trkpt lat="45.7295" lon="6.56108">
        <ele>885.4</ele>
        <time>2022-06-15T10:09:50Z</time>
      </trkpt>
      <trkpt lat="45.72951" lon="6.56112">
        <ele>885.8</ele>
        <time>2022-06-15T10:09:51Z</time>
      </trkpt>
      <trkpt lat="45.72951" lon="6.56115">
        <ele>886</ele>
        <time>2022-06-15T10:09:52Z</time>
      </trkpt>
      <trkpt lat="45.7295" lon="6.56117">
        <ele>885.9</ele>
        <time>2022-06-15T10:09:53Z</time>
      </trkpt>
      <trkpt lat="45.7295" lon="6.5612">
        <ele>886.2</ele>
        <time>2022-06-15T10:09:54Z</time>
      </trkpt>
      <trkpt lat="45.72951" lon="6.56123">
        <ele>886.9</ele>
        <time>2022-06-15T10:09:55Z</time>
      </trkpt>
      <trkpt lat="45.72951" lon="6.56127">
        <ele>887.2</ele>
        <time>2022-06-15T10:09:56Z</time>
      </trkpt>
      <trkpt lat="45.72951" lon="6.5613">
        <ele>887.6</ele>
        <time>2022-06-15T10:09:57Z</time>
      </trkpt>
      <trkpt lat="45.72951" lon="6.56133">
        <ele>887.6</ele>
        <time>2022-06-15T10:09:58Z</time>
      </trkpt>
      <trkpt lat="45.7295" lon="6.56136">
        <ele>887.7</ele>
        <time>2022-06-15T10:09:59Z</time>
      </trkpt>
      <trkpt lat="45.7295" lon="6.5614">
        <ele>887.7</ele>
        <time>2022-06-15T10:10:00Z</time>
      </trkpt>
      <trkpt lat="45.72949" lon="6.56143">
        <ele>887.7</ele>
        <time>2022-06-15T10:10:01Z</time>
      </trkpt>
      <trkpt lat="45.72949" lon="6.56147">
        <ele>887.8</ele>
        <time>2022-06-15T10:10:02Z</time>
      </trkpt>
      <trkpt lat="45.72948" lon="6.56151">
        <ele>887.9</ele>
        <time>2022-06-15T10:10:03Z</time>
      </trkpt>
      <trkpt lat="45.72948" lon="6.56154">
        <ele>888.1</ele>
        <time>2022-06-15T10:10:04Z</time>
      </trkpt>
      <trkpt lat="45.72948" lon="6.56158">
        <ele>888.4</ele>
        <time>2022-06-15T10:10:05Z</time>
      </trkpt>
      <trkpt lat="45.72947" lon="6.56161">
        <ele>888.5</ele>
        <time>2022-06-15T10:10:06Z</time>
      </trkpt>
      <trkpt lat="45.72947" lon="6.56164">
        <ele>888.6</ele>
        <time>2022-06-15T10:10:07Z</time>
      </trkpt>
      <trkpt lat="45.72946" lon="6.56167">
        <ele>888.6</ele>
        <time>2022-06-15T10:10:08Z</time>
      </trkpt>
      <trkpt lat="45.72946" lon="6.5617">
        <ele>888.7</ele>
        <time>2022-06-15T10:10:09Z</time>
      </trkpt>
      <trkpt lat="45.72945" lon="6.56174">
        <ele>888.8</ele>
        <time>2022-06-15T10:10:10Z</time>
      </trkpt>
      <trkpt lat="45.72945" lon="6.56177">
        <ele>888.9</ele>
        <time>2022-06-15T10:10:11Z</time>
      </trkpt>
      <trkpt lat="45.72945" lon="6.5618">
        <ele>889</ele>
        <time>2022-06-15T10:10:12Z</time>
      </trkpt>
      <trkpt lat="45.72945" lon="6.56183">
        <ele>889.2</ele>
        <time>2022-06-15T10:10:13Z</time>
      </trkpt>
      <trkpt lat="45.72945" lon="6.56187">
        <ele>889.5</ele>
        <time>2022-06-15T10:10:14Z</time>
      </trkpt>
      <trkpt lat="45.72944" lon="6.5619">
        <ele>889.7</ele>
        <time>2022-06-15T10:10:15Z</time>
      </trkpt>
      <trkpt lat="45.72944" lon="6.56194">
        <ele>890</ele>
        <time>2022-06-15T10:10:16Z</time>
      </trkpt>
      <trkpt lat="45.72944" lon="6.56197">
        <ele>890.2</ele>
        <time>2022-06-15T10:10:17Z</time>
      </trkpt>
      <trkpt lat="45.72945" lon="6.56201">
        <ele>890.5</ele>
        <time>2022-06-15T10:10:18Z</time>
      </trkpt>
      <trkpt lat="45.72945" lon="6.56204">
        <ele>890.7</ele>
        <time>2022-06-15T10:10:19Z</time>
      </trkpt>
      <trkpt lat="45.72945" lon="6.56207">
        <ele>891</ele>
        <time>2022-06-15T10:10:20Z</time>
      </trkpt>
      <trkpt lat="45.72945" lon="6.56211">
        <ele>891.2</ele>
        <time>2022-06-15T10:10:21Z</time>
      </trkpt>
      <trkpt lat="45.72946" lon="6.56214">
        <ele>891.6</ele>
        <time>2022-06-15T10:10:22Z</time>
      </trkpt>
      <trkpt lat="45.72946" lon="6.56218">
        <ele>891.9</ele>
        <time>2022-06-15T10:10:23Z</time>
      </trkpt>
      <trkpt lat="45.72947" lon="6.56221">
        <ele>892.2</ele>
        <time>2022-06-15T10:10:24Z</time>
      </trkpt>
      <trkpt lat="45.72949" lon="6.56224">
        <ele>892.6</ele>
        <time>2022-06-15T10:10:25Z</time>
      </trkpt>
      <trkpt lat="45.7295" lon="6.56227">
        <ele>893</ele>
        <time>2022-06-15T10:10:26Z</time>
      </trkpt>
      <trkpt lat="45.72952" lon="6.56229">
        <ele>893.5</ele>
        <time>2022-06-15T10:10:27Z</time>
      </trkpt>
      <trkpt lat="45.72955" lon="6.56231">
        <ele>894</ele>
        <time>2022-06-15T10:10:28Z</time>
      </trkpt>
      <trkpt lat="45.72957" lon="6.56233">
        <ele>894.4</ele>
        <time>2022-06-15T10:10:29Z</time>
      </trkpt>
      <trkpt lat="45.7296" lon="6.56233">
        <ele>894.8</ele>
        <time>2022-06-15T10:10:30Z</time>
      </trkpt>
      <trkpt lat="45.72963" lon="6.56232">
        <ele>895.1</ele>
        <time>2022-06-15T10:10:31Z</time>
      </trkpt>
      <trkpt lat="45.72965" lon="6.56231">
        <ele>895.4</ele>
        <time>2022-06-15T10:10:32Z</time>
      </trkpt>
      <trkpt lat="45.72968" lon="6.56229">
        <ele>895.5</ele>
        <time>2022-06-15T10:10:33Z</time>
      </trkpt>
      <trkpt lat="45.7297" lon="6.56227">
        <ele>895.4</ele>
        <time>2022-06-15T10:10:34Z</time>
      </trkpt>
      <trkpt lat="45.72972" lon="6.56224">
        <ele>895.2</ele>
        <time>2022-06-15T10:10:35Z</time>
      </trkpt>
      <trkpt lat="45.72974" lon="6.5622">
        <ele>896.3</ele>
        <time>2022-06-15T10:10:36Z</time>
      </trkpt>
      <trkpt lat="45.72975" lon="6.56217">
        <ele>897.3</ele>
        <time>2022-06-15T10:10:37Z</time>
      </trkpt>
      <trkpt lat="45.72975" lon="6.56213">
        <ele>897.8</ele>
        <time>2022-06-15T10:10:38Z</time>
      </trkpt>
      <trkpt lat="45.72975" lon="6.56209">
        <ele>898.1</ele>
        <time>2022-06-15T10:10:39Z</time>
      </trkpt>
      <trkpt lat="45.72975" lon="6.56204">
        <ele>898.1</ele>
        <time>2022-06-15T10:10:40Z</time>
      </trkpt>
      <trkpt lat="45.72975" lon="6.56201">
        <ele>898.1</ele>
        <time>2022-06-15T10:10:41Z</time>
      </trkpt>
      <trkpt lat="45.72975" lon="6.56197">
        <ele>897.8</ele>
        <time>2022-06-15T10:10:42Z</time>
      </trkpt>
      <trkpt lat="45.72975" lon="6.56193">
        <ele>898</ele>
        <time>2022-06-15T10:10:43Z</time>
      </trkpt>
      <trkpt lat="45.72975" lon="6.5619">
        <ele>898.3</ele>
        <time>2022-06-15T10:10:44Z</time>
      </trkpt>
      <trkpt lat="45.72975" lon="6.56186">
        <ele>898.8</ele>
        <time>2022-06-15T10:10:45Z</time>
      </trkpt>
      <trkpt lat="45.72975" lon="6.56182">
        <ele>899.3</ele>
        <time>2022-06-15T10:10:46Z</time>
      </trkpt>
      <trkpt lat="45.72976" lon="6.56178">
        <ele>899.9</ele>
        <time>2022-06-15T10:10:47Z</time>
      </trkpt>
      <trkpt lat="45.72975" lon="6.56174">
        <ele>900.1</ele>
        <time>2022-06-15T10:10:48Z</time>
      </trkpt>
      <trkpt lat="45.72975" lon="6.5617">
        <ele>900.4</ele>
        <time>2022-06-15T10:10:49Z</time>
      </trkpt>
      <trkpt lat="45.72976" lon="6.56167">
        <ele>901</ele>
        <time>2022-06-15T10:10:50Z</time>
      </trkpt>
      <trkpt lat="45.72975" lon="6.56163">
        <ele>900.7</ele>
        <time>2022-06-15T10:10:51Z</time>
      </trkpt>
      <trkpt lat="45.72975" lon="6.56159">
        <ele>900.8</ele>
        <time>2022-06-15T10:10:52Z</time>
      </trkpt>
      <trkpt lat="45.72975" lon="6.56155">
        <ele>901.1</ele>
        <time>2022-06-15T10:10:53Z</time>
      </trkpt>
      <trkpt lat="45.72975" lon="6.56152">
        <ele>901.3</ele>
        <time>2022-06-15T10:10:54Z</time>
      </trkpt>
      <trkpt lat="45.72975" lon="6.56147">
        <ele>901.1</ele>
        <time>2022-06-15T10:10:55Z</time>
      </trkpt>
      <trkpt lat="45.72975" lon="6.56143">
        <ele>901.1</ele>
        <time>2022-06-15T10:10:56Z</time>
      </trkpt>
      <trkpt lat="45.72975" lon="6.56139">
        <ele>901.2</ele>
        <time>2022-06-15T10:10:57Z</time>
      </trkpt>
      <trkpt lat="45.72975" lon="6.56135">
        <ele>901.2</ele>
        <time>2022-06-15T10:10:58Z</time>
      </trkpt>
      <trkpt lat="45.72975" lon="6.56132">
        <ele>901.5</ele>
        <time>2022-06-15T10:10:59Z</time>
      </trkpt>
      <trkpt lat="45.72976" lon="6.56128">
        <ele>901.8</ele>
        <time>2022-06-15T10:11:00Z</time>
      </trkpt>
      <trkpt lat="45.72976" lon="6.56124">
        <ele>901.9</ele>
        <time>2022-06-15T10:11:01Z</time>
      </trkpt>
      <trkpt lat="45.72976" lon="6.5612">
        <ele>901.9</ele>
        <time>2022-06-15T10:11:02Z</time>
      </trkpt>
      <trkpt lat="45.72976" lon="6.56116">
        <ele>902.1</ele>
        <time>2022-06-15T10:11:03Z</time>
      </trkpt>
      <trkpt lat="45.72976" lon="6.56112">
        <ele>902.4</ele>
        <time>2022-06-15T10:11:04Z</time>
      </trkpt>
      <trkpt lat="45.72977" lon="6.56108">
        <ele>902.7</ele>
        <time>2022-06-15T10:11:05Z</time>
      </trkpt>
      <trkpt lat="45.72977" lon="6.56104">
        <ele>903.4</ele>
        <time>2022-06-15T10:11:06Z</time>
      </trkpt>
      <trkpt lat="45.72978" lon="6.561">
        <ele>903.9</ele>
        <time>2022-06-15T10:11:07Z</time>
      </trkpt>
      <trkpt lat="45.72978" lon="6.56096">
        <ele>904.2</ele>
        <time>2022-06-15T10:11:08Z</time>
      </trkpt>
      <trkpt lat="45.72979" lon="6.56092">
        <ele>904.7</ele>
        <time>2022-06-15T10:11:09Z</time>
      </trkpt>
      <trkpt lat="45.72979" lon="6.56088">
        <ele>904.9</ele>
        <time>2022-06-15T10:11:10Z</time>
      </trkpt>
      <trkpt lat="45.72979" lon="6.56084">
        <ele>904.9</ele>
        <time>2022-06-15T10:11:11Z</time>
      </trkpt>
      <trkpt lat="45.72979" lon="6.5608">
        <ele>905.4</ele>
        <time>2022-06-15T10:11:12Z</time>
      </trkpt>
      <trkpt lat="45.7298" lon="6.56076">
        <ele>905.8</ele>
        <time>2022-06-15T10:11:13Z</time>
      </trkpt>
      <trkpt lat="45.7298" lon="6.56072">
        <ele>905.8</ele>
        <time>2022-06-15T10:11:14Z</time>
      </trkpt>
      <trkpt lat="45.7298" lon="6.56068">
        <ele>906.2</ele>
        <time>2022-06-15T10:11:15Z</time>
      </trkpt>
      <trkpt lat="45.7298" lon="6.56064">
        <ele>906.6</ele>
        <time>2022-06-15T10:11:16Z</time>
      </trkpt>
      <trkpt lat="45.72981" lon="6.56061">
        <ele>906.9</ele>
        <time>2022-06-15T10:11:17Z</time>
      </trkpt>
      <trkpt lat="45.72981" lon="6.56057">
        <ele>906.9</ele>
        <time>2022-06-15T10:11:18Z</time>
      </trkpt>
      <trkpt lat="45.72981" lon="6.56053">
        <ele>907.3</ele>
        <time>2022-06-15T10:11:19Z</time>
      </trkpt>
      <trkpt lat="45.72981" lon="6.56049">
        <ele>907.9</ele>
        <time>2022-06-15T10:11:20Z</time>
      </trkpt>
      <trkpt lat="45.72982" lon="6.56046">
        <ele>908.5</ele>
        <time>2022-06-15T10:11:21Z</time>
      </trkpt>
      <trkpt lat="45.72982" lon="6.56042">
        <ele>909.3</ele>
        <time>2022-06-15T10:11:22Z</time>
      </trkpt>
      <trkpt lat="45.72982" lon="6.56039">
        <ele>909.7</ele>
        <time>2022-06-15T10:11:23Z</time>
      </trkpt>
      <trkpt lat="45.72983" lon="6.56035">
        <ele>910.5</ele>
        <time>2022-06-15T10:11:24Z</time>
      </trkpt>
      <trkpt lat="45.72983" lon="6.56031">
        <ele>911.6</ele>
        <time>2022-06-15T10:11:25Z</time>
      </trkpt>
      <trkpt lat="45.72984" lon="6.56028">
        <ele>912.3</ele>
        <time>2022-06-15T10:11:26Z</time>
      </trkpt>
      <trkpt lat="45.72984" lon="6.56024">
        <ele>912.7</ele>
        <time>2022-06-15T10:11:27Z</time>
      </trkpt>
      <trkpt lat="45.72985" lon="6.5602">
        <ele>912.7</ele>
        <time>2022-06-15T10:11:28Z</time>
      </trkpt>
      <trkpt lat="45.72985" lon="6.56017">
        <ele>912.9</ele>
        <time>2022-06-15T10:11:29Z</time>
      </trkpt>
      <trkpt lat="45.72986" lon="6.56013">
        <ele>913</ele>
        <time>2022-06-15T10:11:30Z</time>
      </trkpt>
      <trkpt lat="45.72986" lon="6.56009">
        <ele>913.2</ele>
        <time>2022-06-15T10:11:31Z</time>
      </trkpt>
      <trkpt lat="45.72987" lon="6.56006">
        <ele>913.7</ele>
        <time>2022-06-15T10:11:32Z</time>
      </trkpt>
      <trkpt lat="45.72987" lon="6.56002">
        <ele>913.9</ele>
        <time>2022-06-15T10:11:33Z</time>
      </trkpt>
      <trkpt lat="45.72988" lon="6.55999">
        <ele>914</ele>
        <time>2022-06-15T10:11:34Z</time>
      </trkpt>
      <trkpt lat="45.72989" lon="6.55996">
        <ele>914.3</ele>
        <time>2022-06-15T10:11:35Z</time>
      </trkpt>
      <trkpt lat="45.72989" lon="6.55992">
        <ele>914.3</ele>
        <time>2022-06-15T10:11:36Z</time>
      </trkpt>
      <trkpt lat="45.7299" lon="6.55988">
        <ele>914.3</ele>
        <time>2022-06-15T10:11:37Z</time>
      </trkpt>
      <trkpt lat="45.7299" lon="6.55985">
        <ele>914.3</ele>
        <time>2022-06-15T10:11:38Z</time>
      </trkpt>
      <trkpt lat="45.72991" lon="6.55981">
        <ele>914.3</ele>
        <time>2022-06-15T10:11:39Z</time>
      </trkpt>
      <trkpt lat="45.72991" lon="6.55978">
        <ele>914.6</ele>
        <time>2022-06-15T10:11:40Z</time>
      </trkpt>
      <trkpt lat="45.72992" lon="6.55975">
        <ele>914.7</ele>
        <time>2022-06-15T10:11:41Z</time>
      </trkpt>
      <trkpt lat="45.72992" lon="6.55971">
        <ele>914.5</ele>
        <time>2022-06-15T10:11:42Z</time>
      </trkpt>
      <trkpt lat="45.72993" lon="6.55967">
        <ele>914.8</ele>
        <time>2022-06-15T10:11:43Z</time>
      </trkpt>
      <trkpt lat="45.72993" lon="6.55964">
        <ele>915.4</ele>
        <time>2022-06-15T10:11:44Z</time>
      </trkpt>
      <trkpt lat="45.72994" lon="6.5596">
        <ele>916</ele>
        <time>2022-06-15T10:11:45Z</time>
      </trkpt>
      <trkpt lat="45.72994" lon="6.55956">
        <ele>916.5</ele>
        <time>2022-06-15T10:11:46Z</time>
      </trkpt>
      <trkpt lat="45.72995" lon="6.55952">
        <ele>917</ele>
        <time>2022-06-15T10:11:47Z</time>
      </trkpt>
      <trkpt lat="45.72995" lon="6.55948">
        <ele>917.4</ele>
        <time>2022-06-15T10:11:48Z</time>
      </trkpt>
      <trkpt lat="45.72996" lon="6.55945">
        <ele>918.1</ele>
        <time>2022-06-15T10:11:49Z</time>
      </trkpt>
      <trkpt lat="45.72997" lon="6.55941">
        <ele>918.4</ele>
        <time>2022-06-15T10:11:50Z</time>
      </trkpt>
      <trkpt lat="45.72997" lon="6.55938">
        <ele>918.5</ele>
        <time>2022-06-15T10:11:51Z</time>
      </trkpt>
      <trkpt lat="45.72998" lon="6.55934">
        <ele>918.6</ele>
        <time>2022-06-15T10:11:52Z</time>
      </trkpt>
      <trkpt lat="45.72998" lon="6.5593">
        <ele>918.6</ele>
        <time>2022-06-15T10:11:53Z</time>
      </trkpt>
      <trkpt lat="45.72998" lon="6.55926">
        <ele>918.3</ele>
        <time>2022-06-15T10:11:54Z</time>
      </trkpt>
      <trkpt lat="45.72999" lon="6.55922">
        <ele>918.2</ele>
        <time>2022-06-15T10:11:55Z</time>
      </trkpt>
      <trkpt lat="45.72999" lon="6.55918">
        <ele>917.9</ele>
        <time>2022-06-15T10:11:56Z</time>
      </trkpt>
      <trkpt lat="45.72999" lon="6.55915">
        <ele>918</ele>
        <time>2022-06-15T10:11:57Z</time>
      </trkpt>
      <trkpt lat="45.73" lon="6.55911">
        <ele>917.6</ele>
        <time>2022-06-15T10:11:58Z</time>
      </trkpt>
      <trkpt lat="45.73" lon="6.55908">
        <ele>917.6</ele>
        <time>2022-06-15T10:11:59Z</time>
      </trkpt>
      <trkpt lat="45.73001" lon="6.55904">
        <ele>917.2</ele>
        <time>2022-06-15T10:12:00Z</time>
      </trkpt>
      <trkpt lat="45.73001" lon="6.559">
        <ele>916.8</ele>
        <time>2022-06-15T10:12:01Z</time>
      </trkpt>
      <trkpt lat="45.73001" lon="6.55896">
        <ele>916.2</ele>
        <time>2022-06-15T10:12:02Z</time>
      </trkpt>
      <trkpt lat="45.73001" lon="6.55893">
        <ele>915.6</ele>
        <time>2022-06-15T10:12:03Z</time>
      </trkpt>
      <trkpt lat="45.73001" lon="6.55889">
        <ele>914.9</ele>
        <time>2022-06-15T10:12:04Z</time>
      </trkpt>
      <trkpt lat="45.73001" lon="6.55886">
        <ele>914.4</ele>
        <time>2022-06-15T10:12:05Z</time>
      </trkpt>
      <trkpt lat="45.73002" lon="6.55882">
        <ele>914.3</ele>
        <time>2022-06-15T10:12:06Z</time>
      </trkpt>
      <trkpt lat="45.73002" lon="6.55878">
        <ele>913.8</ele>
        <time>2022-06-15T10:12:07Z</time>
      </trkpt>
      <trkpt lat="45.73002" lon="6.55875">
        <ele>913.3</ele>
        <time>2022-06-15T10:12:08Z</time>
      </trkpt>
      <trkpt lat="45.73002" lon="6.55872">
        <ele>913.5</ele>
        <time>2022-06-15T10:12:09Z</time>
      </trkpt>
      <trkpt lat="45.73003" lon="6.55869">
        <ele>913.7</ele>
        <time>2022-06-15T10:12:10Z</time>
      </trkpt>
      <trkpt lat="45.73003" lon="6.55866">
        <ele>913.3</ele>
        <time>2022-06-15T10:12:11Z</time>
      </trkpt>
      <trkpt lat="45.73004" lon="6.55862">
        <ele>913.6</ele>
        <time>2022-06-15T10:12:12Z</time>
      </trkpt>
      <trkpt lat="45.73005" lon="6.55858">
        <ele>913.8</ele>
        <time>2022-06-15T10:12:13Z</time>
      </trkpt>
      <trkpt lat="45.73006" lon="6.55855">
        <ele>914.6</ele>
        <time>2022-06-15T10:12:14Z</time>
      </trkpt>
      <trkpt lat="45.73008" lon="6.55853">
        <ele>916.1</ele>
        <time>2022-06-15T10:12:15Z</time>
      </trkpt>
      <trkpt lat="45.73009" lon="6.5585">
        <ele>917.2</ele>
        <time>2022-06-15T10:12:16Z</time>
      </trkpt>
      <trkpt lat="45.7301" lon="6.55847">
        <ele>917.8</ele>
        <time>2022-06-15T10:12:17Z</time>
      </trkpt>
      <trkpt lat="45.73011" lon="6.55844">
        <ele>918.5</ele>
        <time>2022-06-15T10:12:18Z</time>
      </trkpt>
      <trkpt lat="45.73012" lon="6.5584">
        <ele>918.9</ele>
        <time>2022-06-15T10:12:19Z</time>
      </trkpt>
      <trkpt lat="45.73012" lon="6.55837">
        <ele>919.1</ele>
        <time>2022-06-15T10:12:20Z</time>
      </trkpt>
      <trkpt lat="45.73013" lon="6.55834">
        <ele>919.4</ele>
        <time>2022-06-15T10:12:21Z</time>
      </trkpt>
      <trkpt lat="45.73013" lon="6.5583">
        <ele>919.9</ele>
        <time>2022-06-15T10:12:22Z</time>
      </trkpt>
      <trkpt lat="45.73014" lon="6.55827">
        <ele>920.1</ele>
        <time>2022-06-15T10:12:23Z</time>
      </trkpt>
      <trkpt lat="45.73015" lon="6.55824">
        <ele>920.7</ele>
        <time>2022-06-15T10:12:24Z</time>
      </trkpt>
      <trkpt lat="45.73015" lon="6.55821">
        <ele>921</ele>
        <time>2022-06-15T10:12:25Z</time>
      </trkpt>
      <trkpt lat="45.73016" lon="6.55817">
        <ele>921</ele>
        <time>2022-06-15T10:12:26Z</time>
      </trkpt>
      <trkpt lat="45.73016" lon="6.55813">
        <ele>920.9</ele>
        <time>2022-06-15T10:12:27Z</time>
      </trkpt>
      <trkpt lat="45.73016" lon="6.55809">
        <ele>920.7</ele>
        <time>2022-06-15T10:12:28Z</time>
      </trkpt>
      <trkpt lat="45.73016" lon="6.55805">
        <ele>920.7</ele>
        <time>2022-06-15T10:12:29Z</time>
      </trkpt>
      <trkpt lat="45.73017" lon="6.55802">
        <ele>920.7</ele>
        <time>2022-06-15T10:12:30Z</time>
      </trkpt>
      <trkpt lat="45.73017" lon="6.55798">
        <ele>920.9</ele>
        <time>2022-06-15T10:12:31Z</time>
      </trkpt>
      <trkpt lat="45.73018" lon="6.55796">
        <ele>921.1</ele>
        <time>2022-06-15T10:12:32Z</time>
      </trkpt>
      <trkpt lat="45.73019" lon="6.55793">
        <ele>921.6</ele>
        <time>2022-06-15T10:12:33Z</time>
      </trkpt>
      <trkpt lat="45.7302" lon="6.5579">
        <ele>922.2</ele>
        <time>2022-06-15T10:12:34Z</time>
      </trkpt>
      <trkpt lat="45.73021" lon="6.55787">
        <ele>922.5</ele>
        <time>2022-06-15T10:12:35Z</time>
      </trkpt>
      <trkpt lat="45.73022" lon="6.55785">
        <ele>922.8</ele>
        <time>2022-06-15T10:12:36Z</time>
      </trkpt>
      <trkpt lat="45.73023" lon="6.55782">
        <ele>923.1</ele>
        <time>2022-06-15T10:12:37Z</time>
      </trkpt>
      <trkpt lat="45.73024" lon="6.55779">
        <ele>923.2</ele>
        <time>2022-06-15T10:12:38Z</time>
      </trkpt>
      <trkpt lat="45.73025" lon="6.55777">
        <ele>923.9</ele>
        <time>2022-06-15T10:12:39Z</time>
      </trkpt>
      <trkpt lat="45.73026" lon="6.55774">
        <ele>923.8</ele>
        <time>2022-06-15T10:12:40Z</time>
      </trkpt>
      <trkpt lat="45.73026" lon="6.55771">
        <ele>923.6</ele>
        <time>2022-06-15T10:12:41Z</time>
      </trkpt>
      <trkpt lat="45.73026" lon="6.55767">
        <ele>923.4</ele>
        <time>2022-06-15T10:12:42Z</time>
      </trkpt>
      <trkpt lat="45.73027" lon="6.55764">
        <ele>923.4</ele>
        <time>2022-06-15T10:12:43Z</time>
      </trkpt>
      <trkpt lat="45.73028" lon="6.5576">
        <ele>923.3</ele>
        <time>2022-06-15T10:12:44Z</time>
      </trkpt>
      <trkpt lat="45.73028" lon="6.55757">
        <ele>923.3</ele>
        <time>2022-06-15T10:12:45Z</time>
      </trkpt>
      <trkpt lat="45.73029" lon="6.55753">
        <ele>923.2</ele>
        <time>2022-06-15T10:12:46Z</time>
      </trkpt>
      <trkpt lat="45.73029" lon="6.55749">
        <ele>922.8</ele>
        <time>2022-06-15T10:12:47Z</time>
      </trkpt>
      <trkpt lat="45.73029" lon="6.55746">
        <ele>922.7</ele>
        <time>2022-06-15T10:12:48Z</time>
      </trkpt>
      <trkpt lat="45.73029" lon="6.55742">
        <ele>922.5</ele>
        <time>2022-06-15T10:12:49Z</time>
      </trkpt>
      <trkpt lat="45.7303" lon="6.55739">
        <ele>922.4</ele>
        <time>2022-06-15T10:12:50Z</time>
      </trkpt>
      <trkpt lat="45.7303" lon="6.55736">
        <ele>922.4</ele>
        <time>2022-06-15T10:12:51Z</time>
      </trkpt>
      <trkpt lat="45.7303" lon="6.55732">
        <ele>922.1</ele>
        <time>2022-06-15T10:12:52Z</time>
      </trkpt>
      <trkpt lat="45.7303" lon="6.55728">
        <ele>921.9</ele>
        <time>2022-06-15T10:12:53Z</time>
      </trkpt>
      <trkpt lat="45.73031" lon="6.55724">
        <ele>921.9</ele>
        <time>2022-06-15T10:12:54Z</time>
      </trkpt>
      <trkpt lat="45.73032" lon="6.55721">
        <ele>922.4</ele>
        <time>2022-06-15T10:12:55Z</time>
      </trkpt>
      <trkpt lat="45.73032" lon="6.55718">
        <ele>922.8</ele>
        <time>2022-06-15T10:12:56Z</time>
      </trkpt>
      <trkpt lat="45.73032" lon="6.55714">
        <ele>923.1</ele>
        <time>2022-06-15T10:12:57Z</time>
      </trkpt>
      <trkpt lat="45.73033" lon="6.55711">
        <ele>923.3</ele>
        <time>2022-06-15T10:12:58Z</time>
      </trkpt>
      <trkpt lat="45.73033" lon="6.55707">
        <ele>923.3</ele>
        <time>2022-06-15T10:12:59Z</time>
      </trkpt>
      <trkpt lat="45.73033" lon="6.55704">
        <ele>923.6</ele>
        <time>2022-06-15T10:13:00Z</time>
      </trkpt>
      <trkpt lat="45.73033" lon="6.557">
        <ele>923.9</ele>
        <time>2022-06-15T10:13:01Z</time>
      </trkpt>
      <trkpt lat="45.73034" lon="6.55697">
        <ele>924.3</ele>
        <time>2022-06-15T10:13:02Z</time>
      </trkpt>
      <trkpt lat="45.73034" lon="6.55693">
        <ele>924.7</ele>
        <time>2022-06-15T10:13:03Z</time>
      </trkpt>
      <trkpt lat="45.73034" lon="6.5569">
        <ele>924.8</ele>
        <time>2022-06-15T10:13:04Z</time>
      </trkpt>
      <trkpt lat="45.73034" lon="6.55686">
        <ele>924.9</ele>
        <time>2022-06-15T10:13:05Z</time>
      </trkpt>
      <trkpt lat="45.73034" lon="6.55683">
        <ele>925.2</ele>
        <time>2022-06-15T10:13:06Z</time>
      </trkpt>
      <trkpt lat="45.73034" lon="6.55679">
        <ele>925.5</ele>
        <time>2022-06-15T10:13:07Z</time>
      </trkpt>
      <trkpt lat="45.73035" lon="6.55675">
        <ele>925.8</ele>
        <time>2022-06-15T10:13:08Z</time>
      </trkpt>
      <trkpt lat="45.73035" lon="6.55671">
        <ele>926</ele>
        <time>2022-06-15T10:13:09Z</time>
      </trkpt>
      <trkpt lat="45.73035" lon="6.55668">
        <ele>926.3</ele>
        <time>2022-06-15T10:13:10Z</time>
      </trkpt>
      <trkpt lat="45.73035" lon="6.55664">
        <ele>926.4</ele>
        <time>2022-06-15T10:13:11Z</time>
      </trkpt>
      <trkpt lat="45.73035" lon="6.5566">
        <ele>926.3</ele>
        <time>2022-06-15T10:13:12Z</time>
      </trkpt>
      <trkpt lat="45.73034" lon="6.55656">
        <ele>926.1</ele>
        <time>2022-06-15T10:13:13Z</time>
      </trkpt>
      <trkpt lat="45.73035" lon="6.55652">
        <ele>926.3</ele>
        <time>2022-06-15T10:13:14Z</time>
      </trkpt>
      <trkpt lat="45.73035" lon="6.55649">
        <ele>926.5</ele>
        <time>2022-06-15T10:13:15Z</time>
      </trkpt>
      <trkpt lat="45.73035" lon="6.55645">
        <ele>926.7</ele>
        <time>2022-06-15T10:13:16Z</time>
      </trkpt>
      <trkpt lat="45.73035" lon="6.55641">
        <ele>926.8</ele>
        <time>2022-06-15T10:13:17Z</time>
      </trkpt>
      <trkpt lat="45.73035" lon="6.55638">
        <ele>927</ele>
        <time>2022-06-15T10:13:18Z</time>
      </trkpt>
      <trkpt lat="45.73035" lon="6.55635">
        <ele>927.3</ele>
        <time>2022-06-15T10:13:19Z</time>
      </trkpt>
      <trkpt lat="45.73036" lon="6.55632">
        <ele>927.7</ele>
        <time>2022-06-15T10:13:20Z</time>
      </trkpt>
      <trkpt lat="45.73036" lon="6.55629">
        <ele>928</ele>
        <time>2022-06-15T10:13:21Z</time>
      </trkpt>
      <trkpt lat="45.73036" lon="6.55625">
        <ele>928.3</ele>
        <time>2022-06-15T10:13:22Z</time>
      </trkpt>
      <trkpt lat="45.73036" lon="6.55622">
        <ele>928.2</ele>
        <time>2022-06-15T10:13:23Z</time>
      </trkpt>
      <trkpt lat="45.73035" lon="6.55618">
        <ele>928.2</ele>
        <time>2022-06-15T10:13:24Z</time>
      </trkpt>
      <trkpt lat="45.73035" lon="6.55614">
        <ele>928.1</ele>
        <time>2022-06-15T10:13:25Z</time>
      </trkpt>
      <trkpt lat="45.73035" lon="6.55611">
        <ele>928.1</ele>
        <time>2022-06-15T10:13:26Z</time>
      </trkpt>
      <trkpt lat="45.73035" lon="6.55607">
        <ele>928.2</ele>
        <time>2022-06-15T10:13:27Z</time>
      </trkpt>
      <trkpt lat="45.73035" lon="6.55604">
        <ele>928.4</ele>
        <time>2022-06-15T10:13:28Z</time>
      </trkpt>
      <trkpt lat="45.73035" lon="6.556">
        <ele>928.9</ele>
        <time>2022-06-15T10:13:29Z</time>
      </trkpt>
      <trkpt lat="45.73035" lon="6.55596">
        <ele>929.1</ele>
        <time>2022-06-15T10:13:30Z</time>
      </trkpt>
      <trkpt lat="45.73035" lon="6.55592">
        <ele>929.4</ele>
        <time>2022-06-15T10:13:31Z</time>
      </trkpt>
      <trkpt lat="45.73035" lon="6.55589">
        <ele>929.8</ele>
        <time>2022-06-15T10:13:32Z</time>
      </trkpt>
      <trkpt lat="45.73035" lon="6.55585">
        <ele>930.1</ele>
        <time>2022-06-15T10:13:33Z</time>
      </trkpt>
      <trkpt lat="45.73035" lon="6.55581">
        <ele>930.3</ele>
        <time>2022-06-15T10:13:34Z</time>
      </trkpt>
      <trkpt lat="45.73035" lon="6.55577">
        <ele>930.4</ele>
        <time>2022-06-15T10:13:35Z</time>
      </trkpt>
      <trkpt lat="45.73035" lon="6.55573">
        <ele>930.3</ele>
        <time>2022-06-15T10:13:36Z</time>
      </trkpt>
      <trkpt lat="45.73035" lon="6.55569">
        <ele>930.9</ele>
        <time>2022-06-15T10:13:37Z</time>
      </trkpt>
      <trkpt lat="45.73036" lon="6.55566">
        <ele>931.5</ele>
        <time>2022-06-15T10:13:38Z</time>
      </trkpt>
      <trkpt lat="45.73036" lon="6.55563">
        <ele>931.9</ele>
        <time>2022-06-15T10:13:39Z</time>
      </trkpt>
      <trkpt lat="45.73036" lon="6.55559">
        <ele>931.8</ele>
        <time>2022-06-15T10:13:40Z</time>
      </trkpt>
      <trkpt lat="45.73035" lon="6.55555">
        <ele>931.5</ele>
        <time>2022-06-15T10:13:41Z</time>
      </trkpt>
      <trkpt lat="45.73035" lon="6.55551">
        <ele>931.3</ele>
        <time>2022-06-15T10:13:42Z</time>
      </trkpt>
      <trkpt lat="45.73035" lon="6.55548">
        <ele>931.4</ele>
        <time>2022-06-15T10:13:43Z</time>
      </trkpt>
      <trkpt lat="45.73035" lon="6.55545">
        <ele>931.6</ele>
        <time>2022-06-15T10:13:44Z</time>
      </trkpt>
      <trkpt lat="45.73035" lon="6.55541">
        <ele>931.6</ele>
        <time>2022-06-15T10:13:45Z</time>
      </trkpt>
      <trkpt lat="45.73035" lon="6.55537">
        <ele>931.8</ele>
        <time>2022-06-15T10:13:46Z</time>
      </trkpt>
      <trkpt lat="45.73036" lon="6.55534">
        <ele>932</ele>
        <time>2022-06-15T10:13:47Z</time>
      </trkpt>
      <trkpt lat="45.73035" lon="6.5553">
        <ele>931.7</ele>
        <time>2022-06-15T10:13:48Z</time>
      </trkpt>
      <trkpt lat="45.73035" lon="6.55526">
        <ele>931.8</ele>
        <time>2022-06-15T10:13:49Z</time>
      </trkpt>
      <trkpt lat="45.73035" lon="6.55523">
        <ele>932.2</ele>
        <time>2022-06-15T10:13:50Z</time>
      </trkpt>
      <trkpt lat="45.73036" lon="6.55519">
        <ele>932.8</ele>
        <time>2022-06-15T10:13:51Z</time>
      </trkpt>
      <trkpt lat="45.73037" lon="6.55516">
        <ele>933.3</ele>
        <time>2022-06-15T10:13:52Z</time>
      </trkpt>
      <trkpt lat="45.73037" lon="6.55512">
        <ele>933.9</ele>
        <time>2022-06-15T10:13:53Z</time>
      </trkpt>
      <trkpt lat="45.73038" lon="6.55509">
        <ele>934.4</ele>
        <time>2022-06-15T10:13:54Z</time>
      </trkpt>
      <trkpt lat="45.73039" lon="6.55505">
        <ele>935</ele>
        <time>2022-06-15T10:13:55Z</time>
      </trkpt>
      <trkpt lat="45.7304" lon="6.55502">
        <ele>935.7</ele>
        <time>2022-06-15T10:13:56Z</time>
      </trkpt>
      <trkpt lat="45.7304" lon="6.55499">
        <ele>936.1</ele>
        <time>2022-06-15T10:13:57Z</time>
      </trkpt>
      <trkpt lat="45.73041" lon="6.55495">
        <ele>936.1</ele>
        <time>2022-06-15T10:13:58Z</time>
      </trkpt>
      <trkpt lat="45.73042" lon="6.55492">
        <ele>936.3</ele>
        <time>2022-06-15T10:13:59Z</time>
      </trkpt>
      <trkpt lat="45.73043" lon="6.55489">
        <ele>936.6</ele>
        <time>2022-06-15T10:14:00Z</time>
      </trkpt>
      <trkpt lat="45.73044" lon="6.55486">
        <ele>936.8</ele>
        <time>2022-06-15T10:14:01Z</time>
      </trkpt>
      <trkpt lat="45.73045" lon="6.55483">
        <ele>937.1</ele>
        <time>2022-06-15T10:14:02Z</time>
      </trkpt>
      <trkpt lat="45.73047" lon="6.5548">
        <ele>937.6</ele>
        <time>2022-06-15T10:14:03Z</time>
      </trkpt>
      <trkpt lat="45.73048" lon="6.55477">
        <ele>937.9</ele>
        <time>2022-06-15T10:14:04Z</time>
      </trkpt>
      <trkpt lat="45.7305" lon="6.55474">
        <ele>938.1</ele>
        <time>2022-06-15T10:14:05Z</time>
      </trkpt>
      <trkpt lat="45.73051" lon="6.55471">
        <ele>938.3</ele>
        <time>2022-06-15T10:14:06Z</time>
      </trkpt>
      <trkpt lat="45.73052" lon="6.55468">
        <ele>938.3</ele>
        <time>2022-06-15T10:14:07Z</time>
      </trkpt>
      <trkpt lat="45.73054" lon="6.55466">
        <ele>938.6</ele>
        <time>2022-06-15T10:14:08Z</time>
      </trkpt>
      <trkpt lat="45.73055" lon="6.55463">
        <ele>938.5</ele>
        <time>2022-06-15T10:14:09Z</time>
      </trkpt>
      <trkpt lat="45.73056" lon="6.5546">
        <ele>938.8</ele>
        <time>2022-06-15T10:14:10Z</time>
      </trkpt>
      <trkpt lat="45.73057" lon="6.55457">
        <ele>939.5</ele>
        <time>2022-06-15T10:14:11Z</time>
      </trkpt>
      <trkpt lat="45.73058" lon="6.55454">
        <ele>940.3</ele>
        <time>2022-06-15T10:14:12Z</time>
      </trkpt>
      <trkpt lat="45.7306" lon="6.55452">
        <ele>941.1</ele>
        <time>2022-06-15T10:14:13Z</time>
      </trkpt>
      <trkpt lat="45.73061" lon="6.55449">
        <ele>942.1</ele>
        <time>2022-06-15T10:14:14Z</time>
      </trkpt>
      <trkpt lat="45.73062" lon="6.55447">
        <ele>942.9</ele>
        <time>2022-06-15T10:14:15Z</time>
      </trkpt>
      <trkpt lat="45.73063" lon="6.55444">
        <ele>943.8</ele>
        <time>2022-06-15T10:14:16Z</time>
      </trkpt>
      <trkpt lat="45.73065" lon="6.55442">
        <ele>944.7</ele>
        <time>2022-06-15T10:14:17Z</time>
      </trkpt>
      <trkpt lat="45.73066" lon="6.55439">
        <ele>945.6</ele>
        <time>2022-06-15T10:14:18Z</time>
      </trkpt>
      <trkpt lat="45.73067" lon="6.55437">
        <ele>946.3</ele>
        <time>2022-06-15T10:14:19Z</time>
      </trkpt>
      <trkpt lat="45.73068" lon="6.55434">
        <ele>946.2</ele>
        <time>2022-06-15T10:14:20Z</time>
      </trkpt>
      <trkpt lat="45.73069" lon="6.55431">
        <ele>946.4</ele>
        <time>2022-06-15T10:14:21Z</time>
      </trkpt>
      <trkpt lat="45.7307" lon="6.55428">
        <ele>946.3</ele>
        <time>2022-06-15T10:14:22Z</time>
      </trkpt>
      <trkpt lat="45.73072" lon="6.55425">
        <ele>946.6</ele>
        <time>2022-06-15T10:14:23Z</time>
      </trkpt>
      <trkpt lat="45.73072" lon="6.55422">
        <ele>946.1</ele>
        <time>2022-06-15T10:14:24Z</time>
      </trkpt>
      <trkpt lat="45.73074" lon="6.5542">
        <ele>946.2</ele>
        <time>2022-06-15T10:14:25Z</time>
      </trkpt>
      <trkpt lat="45.73075" lon="6.55417">
        <ele>945.8</ele>
        <time>2022-06-15T10:14:26Z</time>
      </trkpt>
      <trkpt lat="45.73076" lon="6.55415">
        <ele>945.6</ele>
        <time>2022-06-15T10:14:27Z</time>
      </trkpt>
      <trkpt lat="45.73077" lon="6.55412">
        <ele>945.3</ele>
        <time>2022-06-15T10:14:28Z</time>
      </trkpt>
      <trkpt lat="45.73078" lon="6.5541">
        <ele>945.3</ele>
        <time>2022-06-15T10:14:29Z</time>
      </trkpt>
      <trkpt lat="45.73079" lon="6.55408">
        <ele>945.2</ele>
        <time>2022-06-15T10:14:30Z</time>
      </trkpt>
      <trkpt lat="45.73081" lon="6.55406">
        <ele>945.3</ele>
        <time>2022-06-15T10:14:31Z</time>
      </trkpt>
      <trkpt lat="45.73082" lon="6.55404">
        <ele>945.3</ele>
        <time>2022-06-15T10:14:32Z</time>
      </trkpt>
      <trkpt lat="45.73083" lon="6.55402">
        <ele>945.4</ele>
        <time>2022-06-15T10:14:33Z</time>
      </trkpt>
      <trkpt lat="45.73085" lon="6.55399">
        <ele>945.8</ele>
        <time>2022-06-15T10:14:34Z</time>
      </trkpt>
      <trkpt lat="45.73086" lon="6.55398">
        <ele>946.7</ele>
        <time>2022-06-15T10:14:35Z</time>
      </trkpt>
      <trkpt lat="45.73088" lon="6.55395">
        <ele>947</ele>
        <time>2022-06-15T10:14:36Z</time>
      </trkpt>
      <trkpt lat="45.73089" lon="6.55393">
        <ele>947.5</ele>
        <time>2022-06-15T10:14:37Z</time>
      </trkpt>
      <trkpt lat="45.73091" lon="6.55391">
        <ele>948.4</ele>
        <time>2022-06-15T10:14:38Z</time>
      </trkpt>
      <trkpt lat="45.73092" lon="6.55389">
        <ele>949.3</ele>
        <time>2022-06-15T10:14:39Z</time>
      </trkpt>
      <trkpt lat="45.73094" lon="6.55387">
        <ele>950.8</ele>
        <time>2022-06-15T10:14:40Z</time>
      </trkpt>
      <trkpt lat="45.73095" lon="6.55384">
        <ele>951.1</ele>
        <time>2022-06-15T10:14:41Z</time>
      </trkpt>
      <trkpt lat="45.73096" lon="6.55381">
        <ele>951.5</ele>
        <time>2022-06-15T10:14:42Z</time>
      </trkpt>
      <trkpt lat="45.73097" lon="6.55379">
        <ele>952.3</ele>
        <time>2022-06-15T10:14:43Z</time>
      </trkpt>
      <trkpt lat="45.73098" lon="6.55375">
        <ele>952.6</ele>
        <time>2022-06-15T10:14:44Z</time>
      </trkpt>
      <trkpt lat="45.73099" lon="6.55372">
        <ele>952.9</ele>
        <time>2022-06-15T10:14:45Z</time>
      </trkpt>
      <trkpt lat="45.73101" lon="6.5537">
        <ele>953.6</ele>
        <time>2022-06-15T10:14:46Z</time>
      </trkpt>
      <trkpt lat="45.73101" lon="6.55367">
        <ele>953.5</ele>
        <time>2022-06-15T10:14:47Z</time>
      </trkpt>
      <trkpt lat="45.73102" lon="6.55363">
        <ele>953.3</ele>
        <time>2022-06-15T10:14:48Z</time>
      </trkpt>
      <trkpt lat="45.73103" lon="6.55361">
        <ele>953.3</ele>
        <time>2022-06-15T10:14:49Z</time>
      </trkpt>
      <trkpt lat="45.73104" lon="6.55358">
        <ele>952.8</ele>
        <time>2022-06-15T10:14:50Z</time>
      </trkpt>
      <trkpt lat="45.73105" lon="6.55355">
        <ele>952.2</ele>
        <time>2022-06-15T10:14:51Z</time>
      </trkpt>
      <trkpt lat="45.73106" lon="6.55352">
        <ele>951.5</ele>
        <time>2022-06-15T10:14:52Z</time>
      </trkpt>
      <trkpt lat="45.73107" lon="6.55349">
        <ele>950.8</ele>
        <time>2022-06-15T10:14:53Z</time>
      </trkpt>
      <trkpt lat="45.73108" lon="6.55347">
        <ele>950.3</ele>
        <time>2022-06-15T10:14:54Z</time>
      </trkpt>
      <trkpt lat="45.7311" lon="6.55344">
        <ele>949.9</ele>
        <time>2022-06-15T10:14:55Z</time>
      </trkpt>
      <trkpt lat="45.73111" lon="6.55342">
        <ele>949.1</ele>
        <time>2022-06-15T10:14:56Z</time>
      </trkpt>
      <trkpt lat="45.73112" lon="6.55339">
        <ele>948.5</ele>
        <time>2022-06-15T10:14:57Z</time>
      </trkpt>
      <trkpt lat="45.73113" lon="6.55337">
        <ele>948.3</ele>
        <time>2022-06-15T10:14:58Z</time>
      </trkpt>
      <trkpt lat="45.73115" lon="6.55334">
        <ele>948.4</ele>
        <time>2022-06-15T10:14:59Z</time>
      </trkpt>
      <trkpt lat="45.73117" lon="6.55332">
        <ele>948.8</ele>
        <time>2022-06-15T10:15:00Z</time>
      </trkpt>
      <trkpt lat="45.73118" lon="6.5533">
        <ele>949.6</ele>
        <time>2022-06-15T10:15:01Z</time>
      </trkpt>
      <trkpt lat="45.73119" lon="6.55327">
        <ele>949.8</ele>
        <time>2022-06-15T10:15:02Z</time>
      </trkpt>
      <trkpt lat="45.7312" lon="6.55324">
        <ele>950</ele>
        <time>2022-06-15T10:15:03Z</time>
      </trkpt>
      <trkpt lat="45.73122" lon="6.55322">
        <ele>950.5</ele>
        <time>2022-06-15T10:15:04Z</time>
      </trkpt>
      <trkpt lat="45.73123" lon="6.5532">
        <ele>951</ele>
        <time>2022-06-15T10:15:05Z</time>
      </trkpt>
      <trkpt lat="45.73125" lon="6.55318">
        <ele>951.7</ele>
        <time>2022-06-15T10:15:06Z</time>
      </trkpt>
      <trkpt lat="45.73126" lon="6.55315">
        <ele>951.9</ele>
        <time>2022-06-15T10:15:07Z</time>
      </trkpt>
      <trkpt lat="45.73128" lon="6.55313">
        <ele>952.3</ele>
        <time>2022-06-15T10:15:08Z</time>
      </trkpt>
      <trkpt lat="45.73129" lon="6.55311">
        <ele>952.3</ele>
        <time>2022-06-15T10:15:09Z</time>
      </trkpt>
      <trkpt lat="45.7313" lon="6.55309">
        <ele>952.4</ele>
        <time>2022-06-15T10:15:10Z</time>
      </trkpt>
      <trkpt lat="45.73131" lon="6.55306">
        <ele>951.8</ele>
        <time>2022-06-15T10:15:11Z</time>
      </trkpt>
      <trkpt lat="45.73132" lon="6.55303">
        <ele>951.9</ele>
        <time>2022-06-15T10:15:12Z</time>
      </trkpt>
      <trkpt lat="45.73133" lon="6.55301">
        <ele>951.8</ele>
        <time>2022-06-15T10:15:13Z</time>
      </trkpt>
      <trkpt lat="45.73135" lon="6.55299">
        <ele>952.1</ele>
        <time>2022-06-15T10:15:14Z</time>
      </trkpt>
      <trkpt lat="45.73136" lon="6.55296">
        <ele>952.1</ele>
        <time>2022-06-15T10:15:15Z</time>
      </trkpt>
      <trkpt lat="45.73136" lon="6.55291">
        <ele>950.6</ele>
        <time>2022-06-15T10:15:16Z</time>
      </trkpt>
      <trkpt lat="45.73137" lon="6.55288">
        <ele>950.4</ele>
        <time>2022-06-15T10:15:17Z</time>
      </trkpt>
      <trkpt lat="45.73138" lon="6.55286">
        <ele>950.2</ele>
        <time>2022-06-15T10:15:18Z</time>
      </trkpt>
      <trkpt lat="45.73139" lon="6.55283">
        <ele>950</ele>
        <time>2022-06-15T10:15:19Z</time>
      </trkpt>
      <trkpt lat="45.7314" lon="6.5528">
        <ele>949.8</ele>
        <time>2022-06-15T10:15:20Z</time>
      </trkpt>
      <trkpt lat="45.73141" lon="6.55278">
        <ele>949.2</ele>
        <time>2022-06-15T10:15:21Z</time>
      </trkpt>
      <trkpt lat="45.73142" lon="6.55274">
        <ele>948.9</ele>
        <time>2022-06-15T10:15:22Z</time>
      </trkpt>
      <trkpt lat="45.73144" lon="6.55272">
        <ele>948.9</ele>
        <time>2022-06-15T10:15:23Z</time>
      </trkpt>
      <trkpt lat="45.73145" lon="6.55269">
        <ele>948.7</ele>
        <time>2022-06-15T10:15:24Z</time>
      </trkpt>
      <trkpt lat="45.73147" lon="6.55267">
        <ele>948.6</ele>
        <time>2022-06-15T10:15:25Z</time>
      </trkpt>
      <trkpt lat="45.73149" lon="6.55265">
        <ele>948.6</ele>
        <time>2022-06-15T10:15:26Z</time>
      </trkpt>
      <trkpt lat="45.7315" lon="6.55262">
        <ele>948.5</ele>
        <time>2022-06-15T10:15:27Z</time>
      </trkpt>
      <trkpt lat="45.73151" lon="6.55259">
        <ele>948.3</ele>
        <time>2022-06-15T10:15:28Z</time>
      </trkpt>
      <trkpt lat="45.73153" lon="6.55257">
        <ele>948.2</ele>
        <time>2022-06-15T10:15:29Z</time>
      </trkpt>
      <trkpt lat="45.73154" lon="6.55255">
        <ele>948.2</ele>
        <time>2022-06-15T10:15:30Z</time>
      </trkpt>
      <trkpt lat="45.73156" lon="6.55253">
        <ele>948.1</ele>
        <time>2022-06-15T10:15:31Z</time>
      </trkpt>
      <trkpt lat="45.73158" lon="6.55251">
        <ele>948.1</ele>
        <time>2022-06-15T10:15:32Z</time>
      </trkpt>
      <trkpt lat="45.73159" lon="6.55249">
        <ele>948.1</ele>
        <time>2022-06-15T10:15:33Z</time>
      </trkpt>
      <trkpt lat="45.73161" lon="6.55247">
        <ele>948.2</ele>
        <time>2022-06-15T10:15:34Z</time>
      </trkpt>
      <trkpt lat="45.73163" lon="6.55245">
        <ele>948.2</ele>
        <time>2022-06-15T10:15:35Z</time>
      </trkpt>
      <trkpt lat="45.73164" lon="6.55243">
        <ele>948.4</ele>
        <time>2022-06-15T10:15:36Z</time>
      </trkpt>
      <trkpt lat="45.73166" lon="6.55241">
        <ele>948.6</ele>
        <time>2022-06-15T10:15:37Z</time>
      </trkpt>
      <trkpt lat="45.73168" lon="6.55239">
        <ele>949.4</ele>
        <time>2022-06-15T10:15:38Z</time>
      </trkpt>
      <trkpt lat="45.7317" lon="6.55237">
        <ele>950.2</ele>
        <time>2022-06-15T10:15:39Z</time>
      </trkpt>
      <trkpt lat="45.73172" lon="6.55235">
        <ele>951.1</ele>
        <time>2022-06-15T10:15:40Z</time>
      </trkpt>
      <trkpt lat="45.73174" lon="6.55233">
        <ele>951.7</ele>
        <time>2022-06-15T10:15:41Z</time>
      </trkpt>
      <trkpt lat="45.73176" lon="6.55231">
        <ele>952.4</ele>
        <time>2022-06-15T10:15:42Z</time>
      </trkpt>
      <trkpt lat="45.73178" lon="6.55229">
        <ele>953.1</ele>
        <time>2022-06-15T10:15:43Z</time>
      </trkpt>
      <trkpt lat="45.7318" lon="6.55227">
        <ele>953.9</ele>
        <time>2022-06-15T10:15:44Z</time>
      </trkpt>
      <trkpt lat="45.73181" lon="6.55225">
        <ele>954.5</ele>
        <time>2022-06-15T10:15:45Z</time>
      </trkpt>
      <trkpt lat="45.73183" lon="6.55224">
        <ele>955.2</ele>
        <time>2022-06-15T10:15:46Z</time>
      </trkpt>
      <trkpt lat="45.73185" lon="6.55222">
        <ele>955.9</ele>
        <time>2022-06-15T10:15:47Z</time>
      </trkpt>
      <trkpt lat="45.73187" lon="6.55221">
        <ele>956.2</ele>
        <time>2022-06-15T10:15:48Z</time>
      </trkpt>
      <trkpt lat="45.73189" lon="6.55219">
        <ele>956.4</ele>
        <time>2022-06-15T10:15:49Z</time>
      </trkpt>
      <trkpt lat="45.73191" lon="6.55218">
        <ele>957</ele>
        <time>2022-06-15T10:15:50Z</time>
      </trkpt>
      <trkpt lat="45.73192" lon="6.55217">
        <ele>957.4</ele>
        <time>2022-06-15T10:15:51Z</time>
      </trkpt>
      <trkpt lat="45.73194" lon="6.55214">
        <ele>957.4</ele>
        <time>2022-06-15T10:15:52Z</time>
      </trkpt>
      <trkpt lat="45.73196" lon="6.55213">
        <ele>958</ele>
        <time>2022-06-15T10:15:53Z</time>
      </trkpt>
      <trkpt lat="45.73198" lon="6.55212">
        <ele>958.4</ele>
        <time>2022-06-15T10:15:54Z</time>
      </trkpt>
      <trkpt lat="45.73199" lon="6.5521">
        <ele>958.6</ele>
        <time>2022-06-15T10:15:55Z</time>
      </trkpt>
      <trkpt lat="45.73201" lon="6.55208">
        <ele>959</ele>
        <time>2022-06-15T10:15:56Z</time>
      </trkpt>
      <trkpt lat="45.73203" lon="6.55206">
        <ele>959.2</ele>
        <time>2022-06-15T10:15:57Z</time>
      </trkpt>
      <trkpt lat="45.73204" lon="6.55203">
        <ele>959.2</ele>
        <time>2022-06-15T10:15:58Z</time>
      </trkpt>
      <trkpt lat="45.73206" lon="6.55201">
        <ele>959.1</ele>
        <time>2022-06-15T10:15:59Z</time>
      </trkpt>
      <trkpt lat="45.73208" lon="6.55198">
        <ele>959.1</ele>
        <time>2022-06-15T10:16:00Z</time>
      </trkpt>
      <trkpt lat="45.73209" lon="6.55195">
        <ele>959.1</ele>
        <time>2022-06-15T10:16:01Z</time>
      </trkpt>
      <trkpt lat="45.73211" lon="6.55193">
        <ele>959.3</ele>
        <time>2022-06-15T10:16:02Z</time>
      </trkpt>
      <trkpt lat="45.73213" lon="6.5519">
        <ele>959.4</ele>
        <time>2022-06-15T10:16:03Z</time>
      </trkpt>
      <trkpt lat="45.73214" lon="6.55188">
        <ele>959.7</ele>
        <time>2022-06-15T10:16:04Z</time>
      </trkpt>
      <trkpt lat="45.73216" lon="6.55185">
        <ele>959.6</ele>
        <time>2022-06-15T10:16:05Z</time>
      </trkpt>
      <trkpt lat="45.73217" lon="6.55183">
        <ele>959.5</ele>
        <time>2022-06-15T10:16:06Z</time>
      </trkpt>
      <trkpt lat="45.73218" lon="6.5518">
        <ele>959.5</ele>
        <time>2022-06-15T10:16:07Z</time>
      </trkpt>
      <trkpt lat="45.7322" lon="6.55177">
        <ele>959.3</ele>
        <time>2022-06-15T10:16:08Z</time>
      </trkpt>
      <trkpt lat="45.73221" lon="6.55175">
        <ele>959.5</ele>
        <time>2022-06-15T10:16:09Z</time>
      </trkpt>
      <trkpt lat="45.73222" lon="6.55172">
        <ele>959.3</ele>
        <time>2022-06-15T10:16:10Z</time>
      </trkpt>
      <trkpt lat="45.73224" lon="6.55169">
        <ele>958.8</ele>
        <time>2022-06-15T10:16:11Z</time>
      </trkpt>
      <trkpt lat="45.73225" lon="6.55165">
        <ele>958.3</ele>
        <time>2022-06-15T10:16:12Z</time>
      </trkpt>
      <trkpt lat="45.73225" lon="6.55161">
        <ele>957.9</ele>
        <time>2022-06-15T10:16:13Z</time>
      </trkpt>
      <trkpt lat="45.73225" lon="6.55157">
        <ele>957.7</ele>
        <time>2022-06-15T10:16:14Z</time>
      </trkpt>
      <trkpt lat="45.73225" lon="6.55153">
        <ele>957.4</ele>
        <time>2022-06-15T10:16:15Z</time>
      </trkpt>
      <trkpt lat="45.73225" lon="6.55149">
        <ele>957</ele>
        <time>2022-06-15T10:16:16Z</time>
      </trkpt>
      <trkpt lat="45.73225" lon="6.55145">
        <ele>956.5</ele>
        <time>2022-06-15T10:16:17Z</time>
      </trkpt>
      <trkpt lat="45.73224" lon="6.55141">
        <ele>956</ele>
        <time>2022-06-15T10:16:18Z</time>
      </trkpt>
      <trkpt lat="45.73224" lon="6.55137">
        <ele>956.3</ele>
        <time>2022-06-15T10:16:19Z</time>
      </trkpt>
      <trkpt lat="45.73223" lon="6.55133">
        <ele>957</ele>
        <time>2022-06-15T10:16:20Z</time>
      </trkpt>
      <trkpt lat="45.73222" lon="6.5513">
        <ele>957.6</ele>
        <time>2022-06-15T10:16:21Z</time>
      </trkpt>
      <trkpt lat="45.73221" lon="6.55126">
        <ele>958.4</ele>
        <time>2022-06-15T10:16:22Z</time>
      </trkpt>
      <trkpt lat="45.7322" lon="6.55123">
        <ele>959.1</ele>
        <time>2022-06-15T10:16:23Z</time>
      </trkpt>
      <trkpt lat="45.73218" lon="6.5512">
        <ele>959.4</ele>
        <time>2022-06-15T10:16:24Z</time>
      </trkpt>
      <trkpt lat="45.73217" lon="6.55117">
        <ele>959.9</ele>
        <time>2022-06-15T10:16:25Z</time>
      </trkpt>
      <trkpt lat="45.73217" lon="6.55114">
        <ele>960.6</ele>
        <time>2022-06-15T10:16:26Z</time>
      </trkpt>
      <trkpt lat="45.73216" lon="6.55111">
        <ele>961</ele>
        <time>2022-06-15T10:16:27Z</time>
      </trkpt>
      <trkpt lat="45.73214" lon="6.55108">
        <ele>960.9</ele>
        <time>2022-06-15T10:16:28Z</time>
      </trkpt>
      <trkpt lat="45.73214" lon="6.55105">
        <ele>961.2</ele>
        <time>2022-06-15T10:16:29Z</time>
      </trkpt>
      <trkpt lat="45.73213" lon="6.55101">
        <ele>961.5</ele>
        <time>2022-06-15T10:16:30Z</time>
      </trkpt>
      <trkpt lat="45.73213" lon="6.55098">
        <ele>961.8</ele>
        <time>2022-06-15T10:16:31Z</time>
      </trkpt>
      <trkpt lat="45.73212" lon="6.55096">
        <ele>962.1</ele>
        <time>2022-06-15T10:16:32Z</time>
      </trkpt>
      <trkpt lat="45.73212" lon="6.55092">
        <ele>962.4</ele>
        <time>2022-06-15T10:16:33Z</time>
      </trkpt>
      <trkpt lat="45.73211" lon="6.55089">
        <ele>962.6</ele>
        <time>2022-06-15T10:16:34Z</time>
      </trkpt>
      <trkpt lat="45.73211" lon="6.55086">
        <ele>963.2</ele>
        <time>2022-06-15T10:16:35Z</time>
      </trkpt>
      <trkpt lat="45.73211" lon="6.55083">
        <ele>963.5</ele>
        <time>2022-06-15T10:16:36Z</time>
      </trkpt>
      <trkpt lat="45.7321" lon="6.55079">
        <ele>963.9</ele>
        <time>2022-06-15T10:16:37Z</time>
      </trkpt>
      <trkpt lat="45.7321" lon="6.55075">
        <ele>964.1</ele>
        <time>2022-06-15T10:16:38Z</time>
      </trkpt>
      <trkpt lat="45.73209" lon="6.55072">
        <ele>964.4</ele>
        <time>2022-06-15T10:16:39Z</time>
      </trkpt>
      <trkpt lat="45.73208" lon="6.55068">
        <ele>964.4</ele>
        <time>2022-06-15T10:16:40Z</time>
      </trkpt>
      <trkpt lat="45.73208" lon="6.55064">
        <ele>964.9</ele>
        <time>2022-06-15T10:16:41Z</time>
      </trkpt>
      <trkpt lat="45.73208" lon="6.5506">
        <ele>965.3</ele>
        <time>2022-06-15T10:16:42Z</time>
      </trkpt>
      <trkpt lat="45.73207" lon="6.55056">
        <ele>965.6</ele>
        <time>2022-06-15T10:16:43Z</time>
      </trkpt>
      <trkpt lat="45.73207" lon="6.55053">
        <ele>965.6</ele>
        <time>2022-06-15T10:16:44Z</time>
      </trkpt>
      <trkpt lat="45.73206" lon="6.55049">
        <ele>965.5</ele>
        <time>2022-06-15T10:16:45Z</time>
      </trkpt>
      <trkpt lat="45.73206" lon="6.55045">
        <ele>966.3</ele>
        <time>2022-06-15T10:16:46Z</time>
      </trkpt>
      <trkpt lat="45.73207" lon="6.55042">
        <ele>967.3</ele>
        <time>2022-06-15T10:16:47Z</time>
      </trkpt>
      <trkpt lat="45.73207" lon="6.55039">
        <ele>967.9</ele>
        <time>2022-06-15T10:16:48Z</time>
      </trkpt>
      <trkpt lat="45.73207" lon="6.55035">
        <ele>967.9</ele>
        <time>2022-06-15T10:16:49Z</time>
      </trkpt>
      <trkpt lat="45.73207" lon="6.55031">
        <ele>968.4</ele>
        <time>2022-06-15T10:16:50Z</time>
      </trkpt>
      <trkpt lat="45.73206" lon="6.55027">
        <ele>968.3</ele>
        <time>2022-06-15T10:16:51Z</time>
      </trkpt>
      <trkpt lat="45.73206" lon="6.55023">
        <ele>968.9</ele>
        <time>2022-06-15T10:16:52Z</time>
      </trkpt>
      <trkpt lat="45.73206" lon="6.55019">
        <ele>969.6</ele>
        <time>2022-06-15T10:16:53Z</time>
      </trkpt>
      <trkpt lat="45.73206" lon="6.55015">
        <ele>970</ele>
        <time>2022-06-15T10:16:54Z</time>
      </trkpt>
      <trkpt lat="45.73206" lon="6.55012">
        <ele>970.2</ele>
        <time>2022-06-15T10:16:55Z</time>
      </trkpt>
      <trkpt lat="45.73205" lon="6.55008">
        <ele>970.5</ele>
        <time>2022-06-15T10:16:56Z</time>
      </trkpt>
      <trkpt lat="45.73205" lon="6.55004">
        <ele>970.7</ele>
        <time>2022-06-15T10:16:57Z</time>
      </trkpt>
      <trkpt lat="45.73205" lon="6.55001">
        <ele>971.3</ele>
        <time>2022-06-15T10:16:58Z</time>
      </trkpt>
      <trkpt lat="45.73206" lon="6.54997">
        <ele>971.6</ele>
        <time>2022-06-15T10:16:59Z</time>
      </trkpt>
      <trkpt lat="45.73206" lon="6.54993">
        <ele>971.7</ele>
        <time>2022-06-15T10:17:00Z</time>
      </trkpt>
      <trkpt lat="45.73206" lon="6.54989">
        <ele>971.6</ele>
        <time>2022-06-15T10:17:01Z</time>
      </trkpt>
      <trkpt lat="45.73206" lon="6.54985">
        <ele>971.7</ele>
        <time>2022-06-15T10:17:02Z</time>
      </trkpt>
      <trkpt lat="45.73206" lon="6.54981">
        <ele>971.9</ele>
        <time>2022-06-15T10:17:03Z</time>
      </trkpt>
      <trkpt lat="45.73206" lon="6.54977">
        <ele>971.9</ele>
        <time>2022-06-15T10:17:04Z</time>
      </trkpt>
      <trkpt lat="45.73206" lon="6.54973">
        <ele>972.1</ele>
        <time>2022-06-15T10:17:05Z</time>
      </trkpt>
      <trkpt lat="45.73206" lon="6.5497">
        <ele>972</ele>
        <time>2022-06-15T10:17:06Z</time>
      </trkpt>
      <trkpt lat="45.73206" lon="6.54966">
        <ele>971.9</ele>
        <time>2022-06-15T10:17:07Z</time>
      </trkpt>
      <trkpt lat="45.73207" lon="6.54962">
        <ele>971.8</ele>
        <time>2022-06-15T10:17:08Z</time>
      </trkpt>
      <trkpt lat="45.73208" lon="6.54959">
        <ele>972.1</ele>
        <time>2022-06-15T10:17:09Z</time>
      </trkpt>
      <trkpt lat="45.73208" lon="6.54956">
        <ele>972.2</ele>
        <time>2022-06-15T10:17:10Z</time>
      </trkpt>
      <trkpt lat="45.73208" lon="6.54952">
        <ele>972</ele>
        <time>2022-06-15T10:17:11Z</time>
      </trkpt>
      <trkpt lat="45.73209" lon="6.54949">
        <ele>972</ele>
        <time>2022-06-15T10:17:12Z</time>
      </trkpt>
      <trkpt lat="45.7321" lon="6.54945">
        <ele>972</ele>
        <time>2022-06-15T10:17:13Z</time>
      </trkpt>
      <trkpt lat="45.7321" lon="6.54942">
        <ele>972.3</ele>
        <time>2022-06-15T10:17:14Z</time>
      </trkpt>
      <trkpt lat="45.73211" lon="6.54939">
        <ele>972.9</ele>
        <time>2022-06-15T10:17:15Z</time>
      </trkpt>
      <trkpt lat="45.73212" lon="6.54936">
        <ele>973.4</ele>
        <time>2022-06-15T10:17:16Z</time>
      </trkpt>
      <trkpt lat="45.73213" lon="6.54933">
        <ele>973.8</ele>
        <time>2022-06-15T10:17:17Z</time>
      </trkpt>
      <trkpt lat="45.73213" lon="6.54929">
        <ele>974.2</ele>
        <time>2022-06-15T10:17:18Z</time>
      </trkpt>
      <trkpt lat="45.73215" lon="6.54926">
        <ele>974.8</ele>
        <time>2022-06-15T10:17:19Z</time>
      </trkpt>
      <trkpt lat="45.73215" lon="6.54923">
        <ele>975.2</ele>
        <time>2022-06-15T10:17:20Z</time>
      </trkpt>
      <trkpt lat="45.73216" lon="6.54919">
        <ele>975.7</ele>
        <time>2022-06-15T10:17:21Z</time>
      </trkpt>
      <trkpt lat="45.73217" lon="6.54915">
        <ele>976.1</ele>
        <time>2022-06-15T10:17:22Z</time>
      </trkpt>
      <trkpt lat="45.73217" lon="6.54911">
        <ele>976.2</ele>
        <time>2022-06-15T10:17:23Z</time>
      </trkpt>
      <trkpt lat="45.73217" lon="6.54907">
        <ele>976.2</ele>
        <time>2022-06-15T10:17:24Z</time>
      </trkpt>
      <trkpt lat="45.73217" lon="6.54903">
        <ele>976.2</ele>
        <time>2022-06-15T10:17:25Z</time>
      </trkpt>
      <trkpt lat="45.73217" lon="6.54898">
        <ele>976.2</ele>
        <time>2022-06-15T10:17:26Z</time>
      </trkpt>
      <trkpt lat="45.73217" lon="6.54895">
        <ele>976.1</ele>
        <time>2022-06-15T10:17:27Z</time>
      </trkpt>
      <trkpt lat="45.73216" lon="6.54891">
        <ele>976.1</ele>
        <time>2022-06-15T10:17:28Z</time>
      </trkpt>
      <trkpt lat="45.73216" lon="6.54887">
        <ele>976</ele>
        <time>2022-06-15T10:17:29Z</time>
      </trkpt>
      <trkpt lat="45.73215" lon="6.54883">
        <ele>975.9</ele>
        <time>2022-06-15T10:17:30Z</time>
      </trkpt>
      <trkpt lat="45.73214" lon="6.5488">
        <ele>975.9</ele>
        <time>2022-06-15T10:17:31Z</time>
      </trkpt>
      <trkpt lat="45.73214" lon="6.54876">
        <ele>976</ele>
        <time>2022-06-15T10:17:32Z</time>
      </trkpt>
      <trkpt lat="45.73213" lon="6.54872">
        <ele>975.9</ele>
        <time>2022-06-15T10:17:33Z</time>
      </trkpt>
      <trkpt lat="45.73212" lon="6.54868">
        <ele>975.8</ele>
        <time>2022-06-15T10:17:34Z</time>
      </trkpt>
      <trkpt lat="45.73211" lon="6.54865">
        <ele>975.9</ele>
        <time>2022-06-15T10:17:35Z</time>
      </trkpt>
      <trkpt lat="45.73211" lon="6.54861">
        <ele>976</ele>
        <time>2022-06-15T10:17:36Z</time>
      </trkpt>
      <trkpt lat="45.73211" lon="6.54858">
        <ele>976.2</ele>
        <time>2022-06-15T10:17:37Z</time>
      </trkpt>
      <trkpt lat="45.7321" lon="6.54854">
        <ele>976.4</ele>
        <time>2022-06-15T10:17:38Z</time>
      </trkpt>
      <trkpt lat="45.7321" lon="6.54851">
        <ele>976.5</ele>
        <time>2022-06-15T10:17:39Z</time>
      </trkpt>
      <trkpt lat="45.73209" lon="6.54848">
        <ele>976.6</ele>
        <time>2022-06-15T10:17:40Z</time>
      </trkpt>
      <trkpt lat="45.73208" lon="6.54844">
        <ele>976.8</ele>
        <time>2022-06-15T10:17:41Z</time>
      </trkpt>
      <trkpt lat="45.73207" lon="6.54841">
        <ele>976.8</ele>
        <time>2022-06-15T10:17:42Z</time>
      </trkpt>
      <trkpt lat="45.73207" lon="6.54837">
        <ele>977</ele>
        <time>2022-06-15T10:17:43Z</time>
      </trkpt>
      <trkpt lat="45.73206" lon="6.54834">
        <ele>977.2</ele>
        <time>2022-06-15T10:17:44Z</time>
      </trkpt>
      <trkpt lat="45.73206" lon="6.54831">
        <ele>977.4</ele>
        <time>2022-06-15T10:17:45Z</time>
      </trkpt>
      <trkpt lat="45.73206" lon="6.54827">
        <ele>977.5</ele>
        <time>2022-06-15T10:17:46Z</time>
      </trkpt>
      <trkpt lat="45.73205" lon="6.54824">
        <ele>977.4</ele>
        <time>2022-06-15T10:17:47Z</time>
      </trkpt>
      <trkpt lat="45.73204" lon="6.54821">
        <ele>977.4</ele>
        <time>2022-06-15T10:17:48Z</time>
      </trkpt>
      <trkpt lat="45.73204" lon="6.54818">
        <ele>977.5</ele>
        <time>2022-06-15T10:17:49Z</time>
      </trkpt>
      <trkpt lat="45.73203" lon="6.54814">
        <ele>977.5</ele>
        <time>2022-06-15T10:17:50Z</time>
      </trkpt>
      <trkpt lat="45.73203" lon="6.54811">
        <ele>977.6</ele>
        <time>2022-06-15T10:17:51Z</time>
      </trkpt>
      <trkpt lat="45.73202" lon="6.54807">
        <ele>977.7</ele>
        <time>2022-06-15T10:17:52Z</time>
      </trkpt>
      <trkpt lat="45.73202" lon="6.54804">
        <ele>977.9</ele>
        <time>2022-06-15T10:17:53Z</time>
      </trkpt>
      <trkpt lat="45.73201" lon="6.548">
        <ele>978.1</ele>
        <time>2022-06-15T10:17:54Z</time>
      </trkpt>
      <trkpt lat="45.73201" lon="6.54797">
        <ele>978.4</ele>
        <time>2022-06-15T10:17:55Z</time>
      </trkpt>
      <trkpt lat="45.73201" lon="6.54793">
        <ele>978.5</ele>
        <time>2022-06-15T10:17:56Z</time>
      </trkpt>
      <trkpt lat="45.732" lon="6.54789">
        <ele>978.6</ele>
        <time>2022-06-15T10:17:57Z</time>
      </trkpt>
      <trkpt lat="45.73199" lon="6.54785">
        <ele>978.8</ele>
        <time>2022-06-15T10:17:58Z</time>
      </trkpt>
      <trkpt lat="45.73198" lon="6.54782">
        <ele>979</ele>
        <time>2022-06-15T10:17:59Z</time>
      </trkpt>
      <trkpt lat="45.73198" lon="6.54778">
        <ele>979.1</ele>
        <time>2022-06-15T10:18:00Z</time>
      </trkpt>
      <trkpt lat="45.73197" lon="6.54774">
        <ele>979.2</ele>
        <time>2022-06-15T10:18:01Z</time>
      </trkpt>
      <trkpt lat="45.73197" lon="6.5477">
        <ele>979.4</ele>
        <time>2022-06-15T10:18:02Z</time>
      </trkpt>
      <trkpt lat="45.73196" lon="6.54767">
        <ele>979.4</ele>
        <time>2022-06-15T10:18:03Z</time>
      </trkpt>
      <trkpt lat="45.73195" lon="6.54763">
        <ele>979.1</ele>
        <time>2022-06-15T10:18:04Z</time>
      </trkpt>
      <trkpt lat="45.73194" lon="6.54759">
        <ele>979</ele>
        <time>2022-06-15T10:18:05Z</time>
      </trkpt>
      <trkpt lat="45.73193" lon="6.54756">
        <ele>979</ele>
        <time>2022-06-15T10:18:06Z</time>
      </trkpt>
      <trkpt lat="45.73192" lon="6.54752">
        <ele>979.1</ele>
        <time>2022-06-15T10:18:07Z</time>
      </trkpt>
      <trkpt lat="45.73192" lon="6.54749">
        <ele>979.2</ele>
        <time>2022-06-15T10:18:08Z</time>
      </trkpt>
      <trkpt lat="45.73191" lon="6.54746">
        <ele>979.2</ele>
        <time>2022-06-15T10:18:09Z</time>
      </trkpt>
      <trkpt lat="45.7319" lon="6.54743">
        <ele>979.2</ele>
        <time>2022-06-15T10:18:10Z</time>
      </trkpt>
      <trkpt lat="45.7319" lon="6.54739">
        <ele>979.4</ele>
        <time>2022-06-15T10:18:11Z</time>
      </trkpt>
      <trkpt lat="45.73189" lon="6.54736">
        <ele>979.6</ele>
        <time>2022-06-15T10:18:12Z</time>
      </trkpt>
      <trkpt lat="45.73189" lon="6.54733">
        <ele>979.8</ele>
        <time>2022-06-15T10:18:13Z</time>
      </trkpt>
      <trkpt lat="45.73189" lon="6.5473">
        <ele>980</ele>
        <time>2022-06-15T10:18:14Z</time>
      </trkpt>
      <trkpt lat="45.73188" lon="6.54726">
        <ele>980.2</ele>
        <time>2022-06-15T10:18:15Z</time>
      </trkpt>
      <trkpt lat="45.73187" lon="6.54723">
        <ele>980.3</ele>
        <time>2022-06-15T10:18:16Z</time>
      </trkpt>
      <trkpt lat="45.73187" lon="6.5472">
        <ele>981</ele>
        <time>2022-06-15T10:18:17Z</time>
      </trkpt>
      <trkpt lat="45.73186" lon="6.54717">
        <ele>981.7</ele>
        <time>2022-06-15T10:18:18Z</time>
      </trkpt>
      <trkpt lat="45.73186" lon="6.54714">
        <ele>982.5</ele>
        <time>2022-06-15T10:18:19Z</time>
      </trkpt>
      <trkpt lat="45.73185" lon="6.5471">
        <ele>983.3</ele>
        <time>2022-06-15T10:18:20Z</time>
      </trkpt>
      <trkpt lat="45.73184" lon="6.54706">
        <ele>984</ele>
        <time>2022-06-15T10:18:21Z</time>
      </trkpt>
      <trkpt lat="45.73184" lon="6.54703">
        <ele>984.7</ele>
        <time>2022-06-15T10:18:22Z</time>
      </trkpt>
      <trkpt lat="45.73183" lon="6.54699">
        <ele>985.4</ele>
        <time>2022-06-15T10:18:23Z</time>
      </trkpt>
      <trkpt lat="45.73183" lon="6.54696">
        <ele>985.8</ele>
        <time>2022-06-15T10:18:24Z</time>
      </trkpt>
      <trkpt lat="45.73182" lon="6.54693">
        <ele>985.9</ele>
        <time>2022-06-15T10:18:25Z</time>
      </trkpt>
      <trkpt lat="45.73181" lon="6.5469">
        <ele>986.1</ele>
        <time>2022-06-15T10:18:26Z</time>
      </trkpt>
      <trkpt lat="45.73181" lon="6.54687">
        <ele>986.4</ele>
        <time>2022-06-15T10:18:27Z</time>
      </trkpt>
      <trkpt lat="45.7318" lon="6.54683">
        <ele>986.4</ele>
        <time>2022-06-15T10:18:28Z</time>
      </trkpt>
      <trkpt lat="45.7318" lon="6.5468">
        <ele>986.6</ele>
        <time>2022-06-15T10:18:29Z</time>
      </trkpt>
      <trkpt lat="45.73178" lon="6.54677">
        <ele>986.4</ele>
        <time>2022-06-15T10:18:30Z</time>
      </trkpt>
      <trkpt lat="45.73178" lon="6.54673">
        <ele>986.6</ele>
        <time>2022-06-15T10:18:31Z</time>
      </trkpt>
      <trkpt lat="45.73178" lon="6.5467">
        <ele>987</ele>
        <time>2022-06-15T10:18:32Z</time>
      </trkpt>
      <trkpt lat="45.73177" lon="6.54667">
        <ele>987.1</ele>
        <time>2022-06-15T10:18:33Z</time>
      </trkpt>
      <trkpt lat="45.73176" lon="6.54664">
        <ele>987.1</ele>
        <time>2022-06-15T10:18:34Z</time>
      </trkpt>
      <trkpt lat="45.73176" lon="6.5466">
        <ele>986.9</ele>
        <time>2022-06-15T10:18:35Z</time>
      </trkpt>
      <trkpt lat="45.73175" lon="6.54657">
        <ele>986.8</ele>
        <time>2022-06-15T10:18:36Z</time>
      </trkpt>
      <trkpt lat="45.73174" lon="6.54654">
        <ele>986.8</ele>
        <time>2022-06-15T10:18:37Z</time>
      </trkpt>
      <trkpt lat="45.73174" lon="6.5465">
        <ele>986.7</ele>
        <time>2022-06-15T10:18:38Z</time>
      </trkpt>
      <trkpt lat="45.73174" lon="6.54647">
        <ele>986.9</ele>
        <time>2022-06-15T10:18:39Z</time>
      </trkpt>
      <trkpt lat="45.73173" lon="6.54643">
        <ele>987</ele>
        <time>2022-06-15T10:18:40Z</time>
      </trkpt>
      <trkpt lat="45.73173" lon="6.5464">
        <ele>987</ele>
        <time>2022-06-15T10:18:41Z</time>
      </trkpt>
      <trkpt lat="45.73173" lon="6.54636">
        <ele>987.1</ele>
        <time>2022-06-15T10:18:42Z</time>
      </trkpt>
      <trkpt lat="45.73172" lon="6.54633">
        <ele>987.2</ele>
        <time>2022-06-15T10:18:43Z</time>
      </trkpt>
      <trkpt lat="45.73172" lon="6.5463">
        <ele>987.2</ele>
        <time>2022-06-15T10:18:44Z</time>
      </trkpt>
      <trkpt lat="45.73171" lon="6.54627">
        <ele>987.2</ele>
        <time>2022-06-15T10:18:45Z</time>
      </trkpt>
      <trkpt lat="45.73171" lon="6.54624">
        <ele>987.4</ele>
        <time>2022-06-15T10:18:46Z</time>
      </trkpt>
      <trkpt lat="45.73171" lon="6.54621">
        <ele>987.6</ele>
        <time>2022-06-15T10:18:47Z</time>
      </trkpt>
      <trkpt lat="45.73171" lon="6.54618">
        <ele>987.6</ele>
        <time>2022-06-15T10:18:48Z</time>
      </trkpt>
      <trkpt lat="45.73171" lon="6.54614">
        <ele>987.7</ele>
        <time>2022-06-15T10:18:49Z</time>
      </trkpt>
      <trkpt lat="45.7317" lon="6.54611">
        <ele>987.8</ele>
        <time>2022-06-15T10:18:50Z</time>
      </trkpt>
      <trkpt lat="45.73171" lon="6.54608">
        <ele>988.4</ele>
        <time>2022-06-15T10:18:51Z</time>
      </trkpt>
      <trkpt lat="45.7317" lon="6.54604">
        <ele>988.9</ele>
        <time>2022-06-15T10:18:52Z</time>
      </trkpt>
      <trkpt lat="45.7317" lon="6.546">
        <ele>989.5</ele>
        <time>2022-06-15T10:18:53Z</time>
      </trkpt>
      <trkpt lat="45.7317" lon="6.54597">
        <ele>989.9</ele>
        <time>2022-06-15T10:18:54Z</time>
      </trkpt>
      <trkpt lat="45.7317" lon="6.54594">
        <ele>990.5</ele>
        <time>2022-06-15T10:18:55Z</time>
      </trkpt>
      <trkpt lat="45.7317" lon="6.54591">
        <ele>990.9</ele>
        <time>2022-06-15T10:18:56Z</time>
      </trkpt>
      <trkpt lat="45.7317" lon="6.54587">
        <ele>991.5</ele>
        <time>2022-06-15T10:18:57Z</time>
      </trkpt>
      <trkpt lat="45.73171" lon="6.54584">
        <ele>992.1</ele>
        <time>2022-06-15T10:18:58Z</time>
      </trkpt>
      <trkpt lat="45.73171" lon="6.54581">
        <ele>992.2</ele>
        <time>2022-06-15T10:18:59Z</time>
      </trkpt>
      <trkpt lat="45.73171" lon="6.54577">
        <ele>992.2</ele>
        <time>2022-06-15T10:19:00Z</time>
      </trkpt>
      <trkpt lat="45.73172" lon="6.54575">
        <ele>992.5</ele>
        <time>2022-06-15T10:19:01Z</time>
      </trkpt>
      <trkpt lat="45.73174" lon="6.54573">
        <ele>993</ele>
        <time>2022-06-15T10:19:02Z</time>
      </trkpt>
      <trkpt lat="45.73175" lon="6.54571">
        <ele>993.3</ele>
        <time>2022-06-15T10:19:03Z</time>
      </trkpt>
      <trkpt lat="45.73175" lon="6.54568">
        <ele>993.5</ele>
        <time>2022-06-15T10:19:04Z</time>
      </trkpt>
      <trkpt lat="45.73176" lon="6.54565">
        <ele>993.9</ele>
        <time>2022-06-15T10:19:05Z</time>
      </trkpt>
      <trkpt lat="45.73177" lon="6.54562">
        <ele>994</ele>
        <time>2022-06-15T10:19:06Z</time>
      </trkpt>
      <trkpt lat="45.73177" lon="6.54559">
        <ele>994.2</ele>
        <time>2022-06-15T10:19:07Z</time>
      </trkpt>
      <trkpt lat="45.73177" lon="6.54556">
        <ele>994.1</ele>
        <time>2022-06-15T10:19:08Z</time>
      </trkpt>
      <trkpt lat="45.73178" lon="6.54553">
        <ele>994.6</ele>
        <time>2022-06-15T10:19:09Z</time>
      </trkpt>
      <trkpt lat="45.73178" lon="6.5455">
        <ele>994.9</ele>
        <time>2022-06-15T10:19:10Z</time>
      </trkpt>
      <trkpt lat="45.73178" lon="6.54546">
        <ele>995.2</ele>
        <time>2022-06-15T10:19:11Z</time>
      </trkpt>
      <trkpt lat="45.73178" lon="6.54542">
        <ele>995.2</ele>
        <time>2022-06-15T10:19:12Z</time>
      </trkpt>
      <trkpt lat="45.73178" lon="6.54538">
        <ele>995.5</ele>
        <time>2022-06-15T10:19:13Z</time>
      </trkpt>
      <trkpt lat="45.73178" lon="6.54534">
        <ele>995.6</ele>
        <time>2022-06-15T10:19:14Z</time>
      </trkpt>
      <trkpt lat="45.73179" lon="6.54531">
        <ele>996.2</ele>
        <time>2022-06-15T10:19:15Z</time>
      </trkpt>
      <trkpt lat="45.73179" lon="6.54528">
        <ele>996.7</ele>
        <time>2022-06-15T10:19:16Z</time>
      </trkpt>
      <trkpt lat="45.7318" lon="6.54525">
        <ele>997.3</ele>
        <time>2022-06-15T10:19:17Z</time>
      </trkpt>
      <trkpt lat="45.7318" lon="6.54522">
        <ele>997.9</ele>
        <time>2022-06-15T10:19:18Z</time>
      </trkpt>
      <trkpt lat="45.73181" lon="6.54518">
        <ele>998.4</ele>
        <time>2022-06-15T10:19:19Z</time>
      </trkpt>
      <trkpt lat="45.73181" lon="6.54515">
        <ele>998.7</ele>
        <time>2022-06-15T10:19:20Z</time>
      </trkpt>
      <trkpt lat="45.73181" lon="6.54512">
        <ele>999.3</ele>
        <time>2022-06-15T10:19:21Z</time>
      </trkpt>
      <trkpt lat="45.73182" lon="6.54509">
        <ele>999.9</ele>
        <time>2022-06-15T10:19:22Z</time>
      </trkpt>
      <trkpt lat="45.73182" lon="6.54506">
        <ele>1000.7</ele>
        <time>2022-06-15T10:19:23Z</time>
      </trkpt>
      <trkpt lat="45.73183" lon="6.54503">
        <ele>1001.4</ele>
        <time>2022-06-15T10:19:24Z</time>
      </trkpt>
      <trkpt lat="45.73184" lon="6.545">
        <ele>1002.2</ele>
        <time>2022-06-15T10:19:25Z</time>
      </trkpt>
      <trkpt lat="45.73184" lon="6.54497">
        <ele>1002.7</ele>
        <time>2022-06-15T10:19:26Z</time>
      </trkpt>
      <trkpt lat="45.73185" lon="6.54494">
        <ele>1003</ele>
        <time>2022-06-15T10:19:27Z</time>
      </trkpt>
      <trkpt lat="45.73186" lon="6.54492">
        <ele>1003.5</ele>
        <time>2022-06-15T10:19:28Z</time>
      </trkpt>
      <trkpt lat="45.73186" lon="6.54489">
        <ele>1003.6</ele>
        <time>2022-06-15T10:19:29Z</time>
      </trkpt>
      <trkpt lat="45.73187" lon="6.54487">
        <ele>1004.1</ele>
        <time>2022-06-15T10:19:30Z</time>
      </trkpt>
      <trkpt lat="45.73187" lon="6.54483">
        <ele>1004</ele>
        <time>2022-06-15T10:19:31Z</time>
      </trkpt>
      <trkpt lat="45.73186" lon="6.5448">
        <ele>1003.8</ele>
        <time>2022-06-15T10:19:32Z</time>
      </trkpt>
      <trkpt lat="45.73186" lon="6.54476">
        <ele>1003.6</ele>
        <time>2022-06-15T10:19:33Z</time>
      </trkpt>
      <trkpt lat="45.73185" lon="6.54471">
        <ele>1003.1</ele>
        <time>2022-06-15T10:19:34Z</time>
      </trkpt>
      <trkpt lat="45.73185" lon="6.54468">
        <ele>1003.1</ele>
        <time>2022-06-15T10:19:35Z</time>
      </trkpt>
      <trkpt lat="45.73185" lon="6.54464">
        <ele>1002.9</ele>
        <time>2022-06-15T10:19:36Z</time>
      </trkpt>
      <trkpt lat="45.73184" lon="6.5446">
        <ele>1002.9</ele>
        <time>2022-06-15T10:19:37Z</time>
      </trkpt>
      <trkpt lat="45.73184" lon="6.54457">
        <ele>1002.7</ele>
        <time>2022-06-15T10:19:38Z</time>
      </trkpt>
      <trkpt lat="45.73183" lon="6.54453">
        <ele>1002.6</ele>
        <time>2022-06-15T10:19:39Z</time>
      </trkpt>
      <trkpt lat="45.73183" lon="6.54449">
        <ele>1002.6</ele>
        <time>2022-06-15T10:19:40Z</time>
      </trkpt>
      <trkpt lat="45.73182" lon="6.54446">
        <ele>1002.3</ele>
        <time>2022-06-15T10:19:41Z</time>
      </trkpt>
      <trkpt lat="45.73182" lon="6.54443">
        <ele>1002.4</ele>
        <time>2022-06-15T10:19:42Z</time>
      </trkpt>
      <trkpt lat="45.73181" lon="6.5444">
        <ele>1002.8</ele>
        <time>2022-06-15T10:19:43Z</time>
      </trkpt>
      <trkpt lat="45.7318" lon="6.54436">
        <ele>1003.2</ele>
        <time>2022-06-15T10:19:44Z</time>
      </trkpt>
      <trkpt lat="45.73179" lon="6.54433">
        <ele>1003.2</ele>
        <time>2022-06-15T10:19:45Z</time>
      </trkpt>
      <trkpt lat="45.73178" lon="6.5443">
        <ele>1003.5</ele>
        <time>2022-06-15T10:19:46Z</time>
      </trkpt>
      <trkpt lat="45.73178" lon="6.54427">
        <ele>1003.7</ele>
        <time>2022-06-15T10:19:47Z</time>
      </trkpt>
      <trkpt lat="45.73177" lon="6.54424">
        <ele>1003.8</ele>
        <time>2022-06-15T10:19:48Z</time>
      </trkpt>
      <trkpt lat="45.73176" lon="6.54421">
        <ele>1003.7</ele>
        <time>2022-06-15T10:19:49Z</time>
      </trkpt>
      <trkpt lat="45.73174" lon="6.54418">
        <ele>1003.6</ele>
        <time>2022-06-15T10:19:50Z</time>
      </trkpt>
      <trkpt lat="45.73173" lon="6.54415">
        <ele>1003.6</ele>
        <time>2022-06-15T10:19:51Z</time>
      </trkpt>
      <trkpt lat="45.73172" lon="6.54412">
        <ele>1003.4</ele>
        <time>2022-06-15T10:19:52Z</time>
      </trkpt>
      <trkpt lat="45.73171" lon="6.54409">
        <ele>1003.4</ele>
        <time>2022-06-15T10:19:53Z</time>
      </trkpt>
      <trkpt lat="45.7317" lon="6.54406">
        <ele>1003.3</ele>
        <time>2022-06-15T10:19:54Z</time>
      </trkpt>
      <trkpt lat="45.73169" lon="6.54403">
        <ele>1003.2</ele>
        <time>2022-06-15T10:19:55Z</time>
      </trkpt>
      <trkpt lat="45.73168" lon="6.544">
        <ele>1003.3</ele>
        <time>2022-06-15T10:19:56Z</time>
      </trkpt>
      <trkpt lat="45.73167" lon="6.54397">
        <ele>1003.3</ele>
        <time>2022-06-15T10:19:57Z</time>
      </trkpt>
      <trkpt lat="45.73166" lon="6.54394">
        <ele>1003.6</ele>
        <time>2022-06-15T10:19:58Z</time>
      </trkpt>
      <trkpt lat="45.73165" lon="6.54392">
        <ele>1003.9</ele>
        <time>2022-06-15T10:19:59Z</time>
      </trkpt>
      <trkpt lat="45.73164" lon="6.54389">
        <ele>1004.1</ele>
        <time>2022-06-15T10:20:00Z</time>
      </trkpt>
      <trkpt lat="45.73163" lon="6.54386">
        <ele>1004.4</ele>
        <time>2022-06-15T10:20:01Z</time>
      </trkpt>
      <trkpt lat="45.73162" lon="6.54384">
        <ele>1004.5</ele>
        <time>2022-06-15T10:20:02Z</time>
      </trkpt>
      <trkpt lat="45.7316" lon="6.54381">
        <ele>1004.7</ele>
        <time>2022-06-15T10:20:03Z</time>
      </trkpt>
      <trkpt lat="45.73159" lon="6.54378">
        <ele>1005</ele>
        <time>2022-06-15T10:20:04Z</time>
      </trkpt>
      <trkpt lat="45.73158" lon="6.54375">
        <ele>1005.4</ele>
        <time>2022-06-15T10:20:05Z</time>
      </trkpt>
      <trkpt lat="45.73157" lon="6.54372">
        <ele>1005.5</ele>
        <time>2022-06-15T10:20:06Z</time>
      </trkpt>
      <trkpt lat="45.73156" lon="6.54369">
        <ele>1005.8</ele>
        <time>2022-06-15T10:20:07Z</time>
      </trkpt>
      <trkpt lat="45.73155" lon="6.54367">
        <ele>1006.1</ele>
        <time>2022-06-15T10:20:08Z</time>
      </trkpt>
      <trkpt lat="45.73155" lon="6.54364">
        <ele>1006.6</ele>
        <time>2022-06-15T10:20:09Z</time>
      </trkpt>
      <trkpt lat="45.73153" lon="6.5436">
        <ele>1006.9</ele>
        <time>2022-06-15T10:20:10Z</time>
      </trkpt>
      <trkpt lat="45.73152" lon="6.54358">
        <ele>1007</ele>
        <time>2022-06-15T10:20:11Z</time>
      </trkpt>
      <trkpt lat="45.73151" lon="6.54355">
        <ele>1007.2</ele>
        <time>2022-06-15T10:20:12Z</time>
      </trkpt>
      <trkpt lat="45.7315" lon="6.54352">
        <ele>1007.2</ele>
        <time>2022-06-15T10:20:13Z</time>
      </trkpt>
      <trkpt lat="45.73149" lon="6.54349">
        <ele>1007.2</ele>
        <time>2022-06-15T10:20:14Z</time>
      </trkpt>
      <trkpt lat="45.73147" lon="6.54345">
        <ele>1007.1</ele>
        <time>2022-06-15T10:20:15Z</time>
      </trkpt>
      <trkpt lat="45.73146" lon="6.54342">
        <ele>1006.9</ele>
        <time>2022-06-15T10:20:16Z</time>
      </trkpt>
      <trkpt lat="45.73145" lon="6.5434">
        <ele>1006.8</ele>
        <time>2022-06-15T10:20:17Z</time>
      </trkpt>
      <trkpt lat="45.73144" lon="6.54337">
        <ele>1006.6</ele>
        <time>2022-06-15T10:20:18Z</time>
      </trkpt>
      <trkpt lat="45.73143" lon="6.54334">
        <ele>1006.4</ele>
        <time>2022-06-15T10:20:19Z</time>
      </trkpt>
      <trkpt lat="45.73142" lon="6.5433">
        <ele>1006.6</ele>
        <time>2022-06-15T10:20:20Z</time>
      </trkpt>
      <trkpt lat="45.73142" lon="6.54327">
        <ele>1006.8</ele>
        <time>2022-06-15T10:20:21Z</time>
      </trkpt>
      <trkpt lat="45.73142" lon="6.54324">
        <ele>1007.1</ele>
        <time>2022-06-15T10:20:22Z</time>
      </trkpt>
      <trkpt lat="45.73141" lon="6.5432">
        <ele>1007.4</ele>
        <time>2022-06-15T10:20:23Z</time>
      </trkpt>
      <trkpt lat="45.73141" lon="6.54317">
        <ele>1007.9</ele>
        <time>2022-06-15T10:20:24Z</time>
      </trkpt>
      <trkpt lat="45.73141" lon="6.54313">
        <ele>1008.5</ele>
        <time>2022-06-15T10:20:25Z</time>
      </trkpt>
      <trkpt lat="45.73141" lon="6.5431">
        <ele>1008.8</ele>
        <time>2022-06-15T10:20:26Z</time>
      </trkpt>
      <trkpt lat="45.73141" lon="6.54306">
        <ele>1009.5</ele>
        <time>2022-06-15T10:20:27Z</time>
      </trkpt>
      <trkpt lat="45.73141" lon="6.54303">
        <ele>1009.7</ele>
        <time>2022-06-15T10:20:28Z</time>
      </trkpt>
      <trkpt lat="45.73142" lon="6.543">
        <ele>1010.2</ele>
        <time>2022-06-15T10:20:29Z</time>
      </trkpt>
      <trkpt lat="45.73142" lon="6.54298">
        <ele>1010.7</ele>
        <time>2022-06-15T10:20:30Z</time>
      </trkpt>
      <trkpt lat="45.73143" lon="6.54295">
        <ele>1011.2</ele>
        <time>2022-06-15T10:20:31Z</time>
      </trkpt>
      <trkpt lat="45.73144" lon="6.54292">
        <ele>1011.7</ele>
        <time>2022-06-15T10:20:32Z</time>
      </trkpt>
      <trkpt lat="45.73144" lon="6.54289">
        <ele>1012.3</ele>
        <time>2022-06-15T10:20:33Z</time>
      </trkpt>
      <trkpt lat="45.73146" lon="6.54287">
        <ele>1013.3</ele>
        <time>2022-06-15T10:20:34Z</time>
      </trkpt>
      <trkpt lat="45.73146" lon="6.54284">
        <ele>1013.9</ele>
        <time>2022-06-15T10:20:35Z</time>
      </trkpt>
      <trkpt lat="45.73148" lon="6.54281">
        <ele>1015.1</ele>
        <time>2022-06-15T10:20:36Z</time>
      </trkpt>
      <trkpt lat="45.73149" lon="6.54278">
        <ele>1016.2</ele>
        <time>2022-06-15T10:20:37Z</time>
      </trkpt>
      <trkpt lat="45.73151" lon="6.54276">
        <ele>1017.4</ele>
        <time>2022-06-15T10:20:38Z</time>
      </trkpt>
      <trkpt lat="45.73152" lon="6.54274">
        <ele>1018.2</ele>
        <time>2022-06-15T10:20:39Z</time>
      </trkpt>
      <trkpt lat="45.73153" lon="6.54272">
        <ele>1018.8</ele>
        <time>2022-06-15T10:20:40Z</time>
      </trkpt>
      <trkpt lat="45.73154" lon="6.54269">
        <ele>1019.3</ele>
        <time>2022-06-15T10:20:41Z</time>
      </trkpt>
      <trkpt lat="45.73155" lon="6.54266">
        <ele>1019.7</ele>
        <time>2022-06-15T10:20:42Z</time>
      </trkpt>
      <trkpt lat="45.73156" lon="6.54263">
        <ele>1020</ele>
        <time>2022-06-15T10:20:43Z</time>
      </trkpt>
      <trkpt lat="45.73157" lon="6.5426">
        <ele>1020.3</ele>
        <time>2022-06-15T10:20:44Z</time>
      </trkpt>
      <trkpt lat="45.73158" lon="6.54257">
        <ele>1020.2</ele>
        <time>2022-06-15T10:20:45Z</time>
      </trkpt>
      <trkpt lat="45.73158" lon="6.54254">
        <ele>1020.1</ele>
        <time>2022-06-15T10:20:46Z</time>
      </trkpt>
      <trkpt lat="45.73159" lon="6.5425">
        <ele>1019.9</ele>
        <time>2022-06-15T10:20:47Z</time>
      </trkpt>
      <trkpt lat="45.7316" lon="6.54247">
        <ele>1020.1</ele>
        <time>2022-06-15T10:20:48Z</time>
      </trkpt>
      <trkpt lat="45.73161" lon="6.54245">
        <ele>1020.7</ele>
        <time>2022-06-15T10:20:49Z</time>
      </trkpt>
      <trkpt lat="45.73162" lon="6.54241">
        <ele>1020.7</ele>
        <time>2022-06-15T10:20:50Z</time>
      </trkpt>
      <trkpt lat="45.73163" lon="6.54238">
        <ele>1020.4</ele>
        <time>2022-06-15T10:20:51Z</time>
      </trkpt>
      <trkpt lat="45.73163" lon="6.54234">
        <ele>1020.2</ele>
        <time>2022-06-15T10:20:52Z</time>
      </trkpt>
      <trkpt lat="45.73164" lon="6.54231">
        <ele>1019.8</ele>
        <time>2022-06-15T10:20:53Z</time>
      </trkpt>
      <trkpt lat="45.73164" lon="6.54227">
        <ele>1019.2</ele>
        <time>2022-06-15T10:20:54Z</time>
      </trkpt>
      <trkpt lat="45.73165" lon="6.54223">
        <ele>1018.8</ele>
        <time>2022-06-15T10:20:55Z</time>
      </trkpt>
      <trkpt lat="45.73165" lon="6.5422">
        <ele>1018.4</ele>
        <time>2022-06-15T10:20:56Z</time>
      </trkpt>
      <trkpt lat="45.73166" lon="6.54216">
        <ele>1018.2</ele>
        <time>2022-06-15T10:20:57Z</time>
      </trkpt>
      <trkpt lat="45.73166" lon="6.54213">
        <ele>1017.9</ele>
        <time>2022-06-15T10:20:58Z</time>
      </trkpt>
      <trkpt lat="45.73167" lon="6.54209">
        <ele>1017.6</ele>
        <time>2022-06-15T10:20:59Z</time>
      </trkpt>
      <trkpt lat="45.73168" lon="6.54206">
        <ele>1017.8</ele>
        <time>2022-06-15T10:21:00Z</time>
      </trkpt>
      <trkpt lat="45.73168" lon="6.54203">
        <ele>1017.7</ele>
        <time>2022-06-15T10:21:01Z</time>
      </trkpt>
      <trkpt lat="45.73169" lon="6.54199">
        <ele>1017.4</ele>
        <time>2022-06-15T10:21:02Z</time>
      </trkpt>
      <trkpt lat="45.73169" lon="6.54196">
        <ele>1017.2</ele>
        <time>2022-06-15T10:21:03Z</time>
      </trkpt>
      <trkpt lat="45.7317" lon="6.54193">
        <ele>1017.2</ele>
        <time>2022-06-15T10:21:04Z</time>
      </trkpt>
      <trkpt lat="45.73171" lon="6.5419">
        <ele>1017.7</ele>
        <time>2022-06-15T10:21:05Z</time>
      </trkpt>
      <trkpt lat="45.73171" lon="6.54186">
        <ele>1018.1</ele>
        <time>2022-06-15T10:21:06Z</time>
      </trkpt>
      <trkpt lat="45.73172" lon="6.54183">
        <ele>1018.4</ele>
        <time>2022-06-15T10:21:07Z</time>
      </trkpt>
      <trkpt lat="45.73173" lon="6.5418">
        <ele>1018.9</ele>
        <time>2022-06-15T10:21:08Z</time>
      </trkpt>
      <trkpt lat="45.73174" lon="6.54177">
        <ele>1019</ele>
        <time>2022-06-15T10:21:09Z</time>
      </trkpt>
      <trkpt lat="45.73174" lon="6.54173">
        <ele>1019</ele>
        <time>2022-06-15T10:21:10Z</time>
      </trkpt>
      <trkpt lat="45.73175" lon="6.5417">
        <ele>1019.1</ele>
        <time>2022-06-15T10:21:11Z</time>
      </trkpt>
      <trkpt lat="45.73176" lon="6.54167">
        <ele>1019.3</ele>
        <time>2022-06-15T10:21:12Z</time>
      </trkpt>
      <trkpt lat="45.73177" lon="6.54164">
        <ele>1019.4</ele>
        <time>2022-06-15T10:21:13Z</time>
      </trkpt>
      <trkpt lat="45.73178" lon="6.54161">
        <ele>1019.6</ele>
        <time>2022-06-15T10:21:14Z</time>
      </trkpt>
      <trkpt lat="45.73179" lon="6.54158">
        <ele>1019.9</ele>
        <time>2022-06-15T10:21:15Z</time>
      </trkpt>
      <trkpt lat="45.73179" lon="6.54155">
        <ele>1019.9</ele>
        <time>2022-06-15T10:21:16Z</time>
      </trkpt>
      <trkpt lat="45.7318" lon="6.54151">
        <ele>1019.9</ele>
        <time>2022-06-15T10:21:17Z</time>
      </trkpt>
      <trkpt lat="45.73181" lon="6.54148">
        <ele>1020.1</ele>
        <time>2022-06-15T10:21:18Z</time>
      </trkpt>
      <trkpt lat="45.73182" lon="6.54145">
        <ele>1020.3</ele>
        <time>2022-06-15T10:21:19Z</time>
      </trkpt>
      <trkpt lat="45.73183" lon="6.54142">
        <ele>1020.3</ele>
        <time>2022-06-15T10:21:20Z</time>
      </trkpt>
      <trkpt lat="45.73183" lon="6.54139">
        <ele>1020.3</ele>
        <time>2022-06-15T10:21:21Z</time>
      </trkpt>
      <trkpt lat="45.73184" lon="6.54135">
        <ele>1019.9</ele>
        <time>2022-06-15T10:21:22Z</time>
      </trkpt>
      <trkpt lat="45.73186" lon="6.54132">
        <ele>1019.7</ele>
        <time>2022-06-15T10:21:23Z</time>
      </trkpt>
      <trkpt lat="45.73187" lon="6.54129">
        <ele>1019.5</ele>
        <time>2022-06-15T10:21:24Z</time>
      </trkpt>
      <trkpt lat="45.73188" lon="6.54126">
        <ele>1019.3</ele>
        <time>2022-06-15T10:21:25Z</time>
      </trkpt>
      <trkpt lat="45.73189" lon="6.54122">
        <ele>1018.7</ele>
        <time>2022-06-15T10:21:26Z</time>
      </trkpt>
      <trkpt lat="45.7319" lon="6.54119">
        <ele>1018.2</ele>
        <time>2022-06-15T10:21:27Z</time>
      </trkpt>
      <trkpt lat="45.7319" lon="6.54115">
        <ele>1017.8</ele>
        <time>2022-06-15T10:21:28Z</time>
      </trkpt>
      <trkpt lat="45.73191" lon="6.54111">
        <ele>1017.2</ele>
        <time>2022-06-15T10:21:29Z</time>
      </trkpt>
      <trkpt lat="45.73192" lon="6.54108">
        <ele>1017.7</ele>
        <time>2022-06-15T10:21:30Z</time>
      </trkpt>
      <trkpt lat="45.73193" lon="6.54105">
        <ele>1018.1</ele>
        <time>2022-06-15T10:21:31Z</time>
      </trkpt>
      <trkpt lat="45.73195" lon="6.54102">
        <ele>1018.7</ele>
        <time>2022-06-15T10:21:32Z</time>
      </trkpt>
      <trkpt lat="45.73196" lon="6.54099">
        <ele>1019.1</ele>
        <time>2022-06-15T10:21:33Z</time>
      </trkpt>
      <trkpt lat="45.73197" lon="6.54096">
        <ele>1019.3</ele>
        <time>2022-06-15T10:21:34Z</time>
      </trkpt>
      <trkpt lat="45.73199" lon="6.54093">
        <ele>1019.3</ele>
        <time>2022-06-15T10:21:35Z</time>
      </trkpt>
      <trkpt lat="45.732" lon="6.54089">
        <ele>1019.3</ele>
        <time>2022-06-15T10:21:36Z</time>
      </trkpt>
      <trkpt lat="45.73201" lon="6.54086">
        <ele>1019.2</ele>
        <time>2022-06-15T10:21:37Z</time>
      </trkpt>
      <trkpt lat="45.73202" lon="6.54083">
        <ele>1019</ele>
        <time>2022-06-15T10:21:38Z</time>
      </trkpt>
      <trkpt lat="45.73203" lon="6.5408">
        <ele>1018.8</ele>
        <time>2022-06-15T10:21:39Z</time>
      </trkpt>
      <trkpt lat="45.73204" lon="6.54077">
        <ele>1018.6</ele>
        <time>2022-06-15T10:21:40Z</time>
      </trkpt>
      <trkpt lat="45.73205" lon="6.54073">
        <ele>1018.5</ele>
        <time>2022-06-15T10:21:41Z</time>
      </trkpt>
      <trkpt lat="45.73206" lon="6.5407">
        <ele>1018.4</ele>
        <time>2022-06-15T10:21:42Z</time>
      </trkpt>
      <trkpt lat="45.73208" lon="6.54067">
        <ele>1018.4</ele>
        <time>2022-06-15T10:21:43Z</time>
      </trkpt>
      <trkpt lat="45.73209" lon="6.54065">
        <ele>1018.5</ele>
        <time>2022-06-15T10:21:44Z</time>
      </trkpt>
      <trkpt lat="45.73211" lon="6.54062">
        <ele>1018.6</ele>
        <time>2022-06-15T10:21:45Z</time>
      </trkpt>
      <trkpt lat="45.73213" lon="6.5406">
        <ele>1018.9</ele>
        <time>2022-06-15T10:21:46Z</time>
      </trkpt>
      <trkpt lat="45.73215" lon="6.54058">
        <ele>1019.3</ele>
        <time>2022-06-15T10:21:47Z</time>
      </trkpt>
      <trkpt lat="45.73217" lon="6.54057">
        <ele>1019.8</ele>
        <time>2022-06-15T10:21:48Z</time>
      </trkpt>
      <trkpt lat="45.7322" lon="6.54056">
        <ele>1020.3</ele>
        <time>2022-06-15T10:21:49Z</time>
      </trkpt>
      <trkpt lat="45.73222" lon="6.54056">
        <ele>1021</ele>
        <time>2022-06-15T10:21:50Z</time>
      </trkpt>
      <trkpt lat="45.73225" lon="6.54057">
        <ele>1021.9</ele>
        <time>2022-06-15T10:21:51Z</time>
      </trkpt>
      <trkpt lat="45.73227" lon="6.54059">
        <ele>1022.8</ele>
        <time>2022-06-15T10:21:52Z</time>
      </trkpt>
      <trkpt lat="45.73229" lon="6.54062">
        <ele>1023.7</ele>
        <time>2022-06-15T10:21:53Z</time>
      </trkpt>
      <trkpt lat="45.7323" lon="6.54065">
        <ele>1024.5</ele>
        <time>2022-06-15T10:21:54Z</time>
      </trkpt>
      <trkpt lat="45.7323" lon="6.54069">
        <ele>1025</ele>
        <time>2022-06-15T10:21:55Z</time>
      </trkpt>
      <trkpt lat="45.7323" lon="6.54072">
        <ele>1025.4</ele>
        <time>2022-06-15T10:21:56Z</time>
      </trkpt>
      <trkpt lat="45.73229" lon="6.54076">
        <ele>1025.5</ele>
        <time>2022-06-15T10:21:57Z</time>
      </trkpt>
      <trkpt lat="45.73229" lon="6.5408">
        <ele>1025.5</ele>
        <time>2022-06-15T10:21:58Z</time>
      </trkpt>
      <trkpt lat="45.73227" lon="6.54083">
        <ele>1024.9</ele>
        <time>2022-06-15T10:21:59Z</time>
      </trkpt>
      <trkpt lat="45.73226" lon="6.54086">
        <ele>1024.9</ele>
        <time>2022-06-15T10:22:00Z</time>
      </trkpt>
      <trkpt lat="45.73224" lon="6.54089">
        <ele>1024.7</ele>
        <time>2022-06-15T10:22:01Z</time>
      </trkpt>
      <trkpt lat="45.73222" lon="6.54092">
        <ele>1024.9</ele>
        <time>2022-06-15T10:22:02Z</time>
      </trkpt>
      <trkpt lat="45.7322" lon="6.54095">
        <ele>1025.3</ele>
        <time>2022-06-15T10:22:03Z</time>
      </trkpt>
      <trkpt lat="45.73218" lon="6.54098">
        <ele>1025.7</ele>
        <time>2022-06-15T10:22:04Z</time>
      </trkpt>
      <trkpt lat="45.73216" lon="6.541">
        <ele>1025.8</ele>
        <time>2022-06-15T10:22:05Z</time>
      </trkpt>
      <trkpt lat="45.73214" lon="6.54103">
        <ele>1026</ele>
        <time>2022-06-15T10:22:06Z</time>
      </trkpt>
      <trkpt lat="45.73213" lon="6.54106">
        <ele>1026.1</ele>
        <time>2022-06-15T10:22:07Z</time>
      </trkpt>
      <trkpt lat="45.73211" lon="6.54108">
        <ele>1026</ele>
        <time>2022-06-15T10:22:08Z</time>
      </trkpt>
      <trkpt lat="45.73209" lon="6.54111">
        <ele>1025.6</ele>
        <time>2022-06-15T10:22:09Z</time>
      </trkpt>
      <trkpt lat="45.73207" lon="6.54113">
        <ele>1025.6</ele>
        <time>2022-06-15T10:22:10Z</time>
      </trkpt>
      <trkpt lat="45.73206" lon="6.54116">
        <ele>1025.9</ele>
        <time>2022-06-15T10:22:11Z</time>
      </trkpt>
      <trkpt lat="45.73205" lon="6.54119">
        <ele>1026</ele>
        <time>2022-06-15T10:22:12Z</time>
      </trkpt>
      <trkpt lat="45.73204" lon="6.54122">
        <ele>1026.4</ele>
        <time>2022-06-15T10:22:13Z</time>
      </trkpt>
      <trkpt lat="45.73202" lon="6.54125">
        <ele>1026.4</ele>
        <time>2022-06-15T10:22:14Z</time>
      </trkpt>
      <trkpt lat="45.73201" lon="6.54128">
        <ele>1026.8</ele>
        <time>2022-06-15T10:22:15Z</time>
      </trkpt>
      <trkpt lat="45.732" lon="6.54131">
        <ele>1027</ele>
        <time>2022-06-15T10:22:16Z</time>
      </trkpt>
      <trkpt lat="45.73198" lon="6.54134">
        <ele>1027</ele>
        <time>2022-06-15T10:22:17Z</time>
      </trkpt>
      <trkpt lat="45.73197" lon="6.54138">
        <ele>1027.1</ele>
        <time>2022-06-15T10:22:18Z</time>
      </trkpt>
      <trkpt lat="45.73196" lon="6.54141">
        <ele>1026.9</ele>
        <time>2022-06-15T10:22:19Z</time>
      </trkpt>
      <trkpt lat="45.73195" lon="6.54144">
        <ele>1026.7</ele>
        <time>2022-06-15T10:22:20Z</time>
      </trkpt>
      <trkpt lat="45.73193" lon="6.54147">
        <ele>1026.6</ele>
        <time>2022-06-15T10:22:21Z</time>
      </trkpt>
      <trkpt lat="45.73192" lon="6.54151">
        <ele>1026.5</ele>
        <time>2022-06-15T10:22:22Z</time>
      </trkpt>
      <trkpt lat="45.73192" lon="6.54154">
        <ele>1026.6</ele>
        <time>2022-06-15T10:22:23Z</time>
      </trkpt>
      <trkpt lat="45.73191" lon="6.54158">
        <ele>1026.8</ele>
        <time>2022-06-15T10:22:24Z</time>
      </trkpt>
      <trkpt lat="45.7319" lon="6.54161">
        <ele>1026.7</ele>
        <time>2022-06-15T10:22:25Z</time>
      </trkpt>
      <trkpt lat="45.73189" lon="6.54165">
        <ele>1026.6</ele>
        <time>2022-06-15T10:22:26Z</time>
      </trkpt>
      <trkpt lat="45.73188" lon="6.54168">
        <ele>1026.7</ele>
        <time>2022-06-15T10:22:27Z</time>
      </trkpt>
      <trkpt lat="45.73188" lon="6.54171">
        <ele>1027.1</ele>
        <time>2022-06-15T10:22:28Z</time>
      </trkpt>
      <trkpt lat="45.73187" lon="6.54175">
        <ele>1027.4</ele>
        <time>2022-06-15T10:22:29Z</time>
      </trkpt>
      <trkpt lat="45.73187" lon="6.54178">
        <ele>1027.6</ele>
        <time>2022-06-15T10:22:30Z</time>
      </trkpt>
      <trkpt lat="45.73186" lon="6.54182">
        <ele>1028</ele>
        <time>2022-06-15T10:22:31Z</time>
      </trkpt>
      <trkpt lat="45.73185" lon="6.54185">
        <ele>1028</ele>
        <time>2022-06-15T10:22:32Z</time>
      </trkpt>
      <trkpt lat="45.73185" lon="6.54189">
        <ele>1028.2</ele>
        <time>2022-06-15T10:22:33Z</time>
      </trkpt>
      <trkpt lat="45.73184" lon="6.54192">
        <ele>1028.5</ele>
        <time>2022-06-15T10:22:34Z</time>
      </trkpt>
      <trkpt lat="45.73183" lon="6.54196">
        <ele>1028.5</ele>
        <time>2022-06-15T10:22:35Z</time>
      </trkpt>
      <trkpt lat="45.73183" lon="6.54199">
        <ele>1029.4</ele>
        <time>2022-06-15T10:22:36Z</time>
      </trkpt>
      <trkpt lat="45.73182" lon="6.54203">
        <ele>1030.2</ele>
        <time>2022-06-15T10:22:37Z</time>
      </trkpt>
      <trkpt lat="45.73182" lon="6.54207">
        <ele>1030.7</ele>
        <time>2022-06-15T10:22:38Z</time>
      </trkpt>
      <trkpt lat="45.73181" lon="6.54211">
        <ele>1031.1</ele>
        <time>2022-06-15T10:22:39Z</time>
      </trkpt>
      <trkpt lat="45.7318" lon="6.54215">
        <ele>1031.4</ele>
        <time>2022-06-15T10:22:40Z</time>
      </trkpt>
      <trkpt lat="45.73179" lon="6.54218">
        <ele>1031.7</ele>
        <time>2022-06-15T10:22:41Z</time>
      </trkpt>
      <trkpt lat="45.73179" lon="6.54222">
        <ele>1032.2</ele>
        <time>2022-06-15T10:22:42Z</time>
      </trkpt>
      <trkpt lat="45.73178" lon="6.54226">
        <ele>1031.9</ele>
        <time>2022-06-15T10:22:43Z</time>
      </trkpt>
      <trkpt lat="45.73177" lon="6.5423">
        <ele>1031.7</ele>
        <time>2022-06-15T10:22:44Z</time>
      </trkpt>
      <trkpt lat="45.73176" lon="6.54234">
        <ele>1031.8</ele>
        <time>2022-06-15T10:22:45Z</time>
      </trkpt>
      <trkpt lat="45.73176" lon="6.54239">
        <ele>1032.6</ele>
        <time>2022-06-15T10:22:46Z</time>
      </trkpt>
      <trkpt lat="45.73176" lon="6.54245">
        <ele>1032.9</ele>
        <time>2022-06-15T10:22:47Z</time>
      </trkpt>
      <trkpt lat="45.73175" lon="6.54249">
        <ele>1032.7</ele>
        <time>2022-06-15T10:22:48Z</time>
      </trkpt>
      <trkpt lat="45.73174" lon="6.54254">
        <ele>1032.8</ele>
        <time>2022-06-15T10:22:49Z</time>
      </trkpt>
      <trkpt lat="45.73174" lon="6.54259">
        <ele>1032.9</ele>
        <time>2022-06-15T10:22:50Z</time>
      </trkpt>
      <trkpt lat="45.73174" lon="6.54263">
        <ele>1033.3</ele>
        <time>2022-06-15T10:22:51Z</time>
      </trkpt>
      <trkpt lat="45.73174" lon="6.54268">
        <ele>1034.1</ele>
        <time>2022-06-15T10:22:52Z</time>
      </trkpt>
      <trkpt lat="45.73174" lon="6.54273">
        <ele>1034.8</ele>
        <time>2022-06-15T10:22:53Z</time>
      </trkpt>
      <trkpt lat="45.73174" lon="6.54278">
        <ele>1035.4</ele>
        <time>2022-06-15T10:22:54Z</time>
      </trkpt>
      <trkpt lat="45.73175" lon="6.54284">
        <ele>1034.9</ele>
        <time>2022-06-15T10:22:55Z</time>
      </trkpt>
      <trkpt lat="45.73176" lon="6.54289">
        <ele>1034.6</ele>
        <time>2022-06-15T10:22:56Z</time>
      </trkpt>
      <trkpt lat="45.73177" lon="6.54294">
        <ele>1034.3</ele>
        <time>2022-06-15T10:22:57Z</time>
      </trkpt>
      <trkpt lat="45.73178" lon="6.54298">
        <ele>1034.2</ele>
        <time>2022-06-15T10:22:58Z</time>
      </trkpt>
      <trkpt lat="45.73179" lon="6.54303">
        <ele>1033.9</ele>
        <time>2022-06-15T10:22:59Z</time>
      </trkpt>
      <trkpt lat="45.7318" lon="6.54307">
        <ele>1033.6</ele>
        <time>2022-06-15T10:23:00Z</time>
      </trkpt>
      <trkpt lat="45.73182" lon="6.5431">
        <ele>1033.2</ele>
        <time>2022-06-15T10:23:01Z</time>
      </trkpt>
      <trkpt lat="45.73183" lon="6.54314">
        <ele>1033</ele>
        <time>2022-06-15T10:23:02Z</time>
      </trkpt>
      <trkpt lat="45.73185" lon="6.54317">
        <ele>1032.9</ele>
        <time>2022-06-15T10:23:03Z</time>
      </trkpt>
      <trkpt lat="45.73187" lon="6.54321">
        <ele>1033</ele>
        <time>2022-06-15T10:23:04Z</time>
      </trkpt>
      <trkpt lat="45.73188" lon="6.54325">
        <ele>1032.8</ele>
        <time>2022-06-15T10:23:05Z</time>
      </trkpt>
      <trkpt lat="45.7319" lon="6.54328">
        <ele>1033</ele>
        <time>2022-06-15T10:23:06Z</time>
      </trkpt>
      <trkpt lat="45.73192" lon="6.54332">
        <ele>1033.2</ele>
        <time>2022-06-15T10:23:07Z</time>
      </trkpt>
      <trkpt lat="45.73194" lon="6.54335">
        <ele>1033.4</ele>
        <time>2022-06-15T10:23:08Z</time>
      </trkpt>
      <trkpt lat="45.73196" lon="6.54338">
        <ele>1033.7</ele>
        <time>2022-06-15T10:23:09Z</time>
      </trkpt>
      <trkpt lat="45.73198" lon="6.54342">
        <ele>1034.2</ele>
        <time>2022-06-15T10:23:10Z</time>
      </trkpt>
      <trkpt lat="45.73199" lon="6.54345">
        <ele>1034.4</ele>
        <time>2022-06-15T10:23:11Z</time>
      </trkpt>
      <trkpt lat="45.73201" lon="6.54349">
        <ele>1034.7</ele>
        <time>2022-06-15T10:23:12Z</time>
      </trkpt>
      <trkpt lat="45.73203" lon="6.54352">
        <ele>1035</ele>
        <time>2022-06-15T10:23:13Z</time>
      </trkpt>
      <trkpt lat="45.73205" lon="6.54355">
        <ele>1035.5</ele>
        <time>2022-06-15T10:23:14Z</time>
      </trkpt>
      <trkpt lat="45.73206" lon="6.54359">
        <ele>1035.9</ele>
        <time>2022-06-15T10:23:15Z</time>
      </trkpt>
      <trkpt lat="45.73208" lon="6.54362">
        <ele>1036.3</ele>
        <time>2022-06-15T10:23:16Z</time>
      </trkpt>
      <trkpt lat="45.7321" lon="6.54365">
        <ele>1036.4</ele>
        <time>2022-06-15T10:23:17Z</time>
      </trkpt>
      <trkpt lat="45.73212" lon="6.54369">
        <ele>1036.3</ele>
        <time>2022-06-15T10:23:18Z</time>
      </trkpt>
      <trkpt lat="45.73213" lon="6.54373">
        <ele>1036.3</ele>
        <time>2022-06-15T10:23:19Z</time>
      </trkpt>
      <trkpt lat="45.73215" lon="6.54376">
        <ele>1036.3</ele>
        <time>2022-06-15T10:23:20Z</time>
      </trkpt>
      <trkpt lat="45.73216" lon="6.5438">
        <ele>1036</ele>
        <time>2022-06-15T10:23:21Z</time>
      </trkpt>
      <trkpt lat="45.73218" lon="6.54384">
        <ele>1035.8</ele>
        <time>2022-06-15T10:23:22Z</time>
      </trkpt>
      <trkpt lat="45.73219" lon="6.54387">
        <ele>1035.6</ele>
        <time>2022-06-15T10:23:23Z</time>
      </trkpt>
      <trkpt lat="45.7322" lon="6.54391">
        <ele>1035.7</ele>
        <time>2022-06-15T10:23:24Z</time>
      </trkpt>
      <trkpt lat="45.73222" lon="6.54394">
        <ele>1036.1</ele>
        <time>2022-06-15T10:23:25Z</time>
      </trkpt>
      <trkpt lat="45.73223" lon="6.54397">
        <ele>1036.6</ele>
        <time>2022-06-15T10:23:26Z</time>
      </trkpt>
      <trkpt lat="45.73225" lon="6.54401">
        <ele>1037</ele>
        <time>2022-06-15T10:23:27Z</time>
      </trkpt>
      <trkpt lat="45.73227" lon="6.54404">
        <ele>1037.4</ele>
        <time>2022-06-15T10:23:28Z</time>
      </trkpt>
      <trkpt lat="45.73228" lon="6.54408">
        <ele>1037.6</ele>
        <time>2022-06-15T10:23:29Z</time>
      </trkpt>
      <trkpt lat="45.73229" lon="6.54411">
        <ele>1037.5</ele>
        <time>2022-06-15T10:23:30Z</time>
      </trkpt>
      <trkpt lat="45.73231" lon="6.54415">
        <ele>1037.6</ele>
        <time>2022-06-15T10:23:31Z</time>
      </trkpt>
      <trkpt lat="45.73232" lon="6.54419">
        <ele>1037.3</ele>
        <time>2022-06-15T10:23:32Z</time>
      </trkpt>
      <trkpt lat="45.73233" lon="6.54422">
        <ele>1037</ele>
        <time>2022-06-15T10:23:33Z</time>
      </trkpt>
      <trkpt lat="45.73234" lon="6.54426">
        <ele>1036.9</ele>
        <time>2022-06-15T10:23:34Z</time>
      </trkpt>
      <trkpt lat="45.73235" lon="6.5443">
        <ele>1036.7</ele>
        <time>2022-06-15T10:23:35Z</time>
      </trkpt>
      <trkpt lat="45.73236" lon="6.54433">
        <ele>1036.6</ele>
        <time>2022-06-15T10:23:36Z</time>
      </trkpt>
      <trkpt lat="45.73238" lon="6.54437">
        <ele>1036.6</ele>
        <time>2022-06-15T10:23:37Z</time>
      </trkpt>
      <trkpt lat="45.73239" lon="6.54441">
        <ele>1036.6</ele>
        <time>2022-06-15T10:23:38Z</time>
      </trkpt>
      <trkpt lat="45.7324" lon="6.54445">
        <ele>1036.6</ele>
        <time>2022-06-15T10:23:39Z</time>
      </trkpt>
      <trkpt lat="45.73241" lon="6.54449">
        <ele>1037.1</ele>
        <time>2022-06-15T10:23:40Z</time>
      </trkpt>
      <trkpt lat="45.73242" lon="6.54452">
        <ele>1037.5</ele>
        <time>2022-06-15T10:23:41Z</time>
      </trkpt>
      <trkpt lat="45.73243" lon="6.54456">
        <ele>1038</ele>
        <time>2022-06-15T10:23:42Z</time>
      </trkpt>
      <trkpt lat="45.73244" lon="6.54459">
        <ele>1038.3</ele>
        <time>2022-06-15T10:23:43Z</time>
      </trkpt>
      <trkpt lat="45.73245" lon="6.54463">
        <ele>1038.6</ele>
        <time>2022-06-15T10:23:44Z</time>
      </trkpt>
      <trkpt lat="45.73246" lon="6.54467">
        <ele>1038.9</ele>
        <time>2022-06-15T10:23:45Z</time>
      </trkpt>
      <trkpt lat="45.73247" lon="6.54471">
        <ele>1039.3</ele>
        <time>2022-06-15T10:23:46Z</time>
      </trkpt>
      <trkpt lat="45.73248" lon="6.54474">
        <ele>1039.6</ele>
        <time>2022-06-15T10:23:47Z</time>
      </trkpt>
      <trkpt lat="45.73249" lon="6.54478">
        <ele>1039.9</ele>
        <time>2022-06-15T10:23:48Z</time>
      </trkpt>
      <trkpt lat="45.7325" lon="6.54481">
        <ele>1040.3</ele>
        <time>2022-06-15T10:23:49Z</time>
      </trkpt>
      <trkpt lat="45.73251" lon="6.54485">
        <ele>1040.6</ele>
        <time>2022-06-15T10:23:50Z</time>
      </trkpt>
      <trkpt lat="45.73252" lon="6.54488">
        <ele>1040.8</ele>
        <time>2022-06-15T10:23:51Z</time>
      </trkpt>
      <trkpt lat="45.73253" lon="6.54492">
        <ele>1041</ele>
        <time>2022-06-15T10:23:52Z</time>
      </trkpt>
      <trkpt lat="45.73254" lon="6.54496">
        <ele>1041.2</ele>
        <time>2022-06-15T10:23:53Z</time>
      </trkpt>
      <trkpt lat="45.73255" lon="6.54499">
        <ele>1041.3</ele>
        <time>2022-06-15T10:23:54Z</time>
      </trkpt>
      <trkpt lat="45.73257" lon="6.54503">
        <ele>1041.5</ele>
        <time>2022-06-15T10:23:55Z</time>
      </trkpt>
      <trkpt lat="45.73258" lon="6.54506">
        <ele>1041.7</ele>
        <time>2022-06-15T10:23:56Z</time>
      </trkpt>
      <trkpt lat="45.73259" lon="6.5451">
        <ele>1041.7</ele>
        <time>2022-06-15T10:23:57Z</time>
      </trkpt>
      <trkpt lat="45.7326" lon="6.54513">
        <ele>1041.8</ele>
        <time>2022-06-15T10:23:58Z</time>
      </trkpt>
      <trkpt lat="45.73262" lon="6.54517">
        <ele>1041.9</ele>
        <time>2022-06-15T10:23:59Z</time>
      </trkpt>
      <trkpt lat="45.73263" lon="6.5452">
        <ele>1042.1</ele>
        <time>2022-06-15T10:24:00Z</time>
      </trkpt>
      <trkpt lat="45.73265" lon="6.54524">
        <ele>1042.2</ele>
        <time>2022-06-15T10:24:01Z</time>
      </trkpt>
      <trkpt lat="45.73266" lon="6.54527">
        <ele>1042.5</ele>
        <time>2022-06-15T10:24:02Z</time>
      </trkpt>
      <trkpt lat="45.73268" lon="6.5453">
        <ele>1042.8</ele>
        <time>2022-06-15T10:24:03Z</time>
      </trkpt>
      <trkpt lat="45.7327" lon="6.54533">
        <ele>1043.1</ele>
        <time>2022-06-15T10:24:04Z</time>
      </trkpt>
      <trkpt lat="45.73271" lon="6.54536">
        <ele>1043.4</ele>
        <time>2022-06-15T10:24:05Z</time>
      </trkpt>
      <trkpt lat="45.73273" lon="6.54539">
        <ele>1043.6</ele>
        <time>2022-06-15T10:24:06Z</time>
      </trkpt>
      <trkpt lat="45.73274" lon="6.54542">
        <ele>1044</ele>
        <time>2022-06-15T10:24:07Z</time>
      </trkpt>
      <trkpt lat="45.73276" lon="6.54545">
        <ele>1044.4</ele>
        <time>2022-06-15T10:24:08Z</time>
      </trkpt>
      <trkpt lat="45.73278" lon="6.54548">
        <ele>1044.8</ele>
        <time>2022-06-15T10:24:09Z</time>
      </trkpt>
      <trkpt lat="45.73279" lon="6.54551">
        <ele>1044.9</ele>
        <time>2022-06-15T10:24:10Z</time>
      </trkpt>
      <trkpt lat="45.73281" lon="6.54553">
        <ele>1044.9</ele>
        <time>2022-06-15T10:24:11Z</time>
      </trkpt>
      <trkpt lat="45.73283" lon="6.54557">
        <ele>1044.7</ele>
        <time>2022-06-15T10:24:12Z</time>
      </trkpt>
      <trkpt lat="45.73285" lon="6.5456">
        <ele>1044.4</ele>
        <time>2022-06-15T10:24:13Z</time>
      </trkpt>
      <trkpt lat="45.73286" lon="6.54562">
        <ele>1044.4</ele>
        <time>2022-06-15T10:24:14Z</time>
      </trkpt>
      <trkpt lat="45.73288" lon="6.54565">
        <ele>1044.2</ele>
        <time>2022-06-15T10:24:15Z</time>
      </trkpt>
      <trkpt lat="45.73289" lon="6.54569">
        <ele>1044.2</ele>
        <time>2022-06-15T10:24:16Z</time>
      </trkpt>
      <trkpt lat="45.73291" lon="6.54572">
        <ele>1044.2</ele>
        <time>2022-06-15T10:24:17Z</time>
      </trkpt>
      <trkpt lat="45.73292" lon="6.54575">
        <ele>1044.3</ele>
        <time>2022-06-15T10:24:18Z</time>
      </trkpt>
      <trkpt lat="45.73294" lon="6.54578">
        <ele>1044.4</ele>
        <time>2022-06-15T10:24:19Z</time>
      </trkpt>
      <trkpt lat="45.73295" lon="6.54582">
        <ele>1044.4</ele>
        <time>2022-06-15T10:24:20Z</time>
      </trkpt>
      <trkpt lat="45.73296" lon="6.54585">
        <ele>1044.8</ele>
        <time>2022-06-15T10:24:21Z</time>
      </trkpt>
      <trkpt lat="45.73298" lon="6.54588">
        <ele>1045.4</ele>
        <time>2022-06-15T10:24:22Z</time>
      </trkpt>
      <trkpt lat="45.73299" lon="6.54592">
        <ele>1045.7</ele>
        <time>2022-06-15T10:24:23Z</time>
      </trkpt>
      <trkpt lat="45.733" lon="6.54595">
        <ele>1046</ele>
        <time>2022-06-15T10:24:24Z</time>
      </trkpt>
      <trkpt lat="45.733" lon="6.54599">
        <ele>1046.3</ele>
        <time>2022-06-15T10:24:25Z</time>
      </trkpt>
      <trkpt lat="45.73301" lon="6.54603">
        <ele>1046.6</ele>
        <time>2022-06-15T10:24:26Z</time>
      </trkpt>
      <trkpt lat="45.73302" lon="6.54607">
        <ele>1047.1</ele>
        <time>2022-06-15T10:24:27Z</time>
      </trkpt>
      <trkpt lat="45.73303" lon="6.5461">
        <ele>1047.7</ele>
        <time>2022-06-15T10:24:28Z</time>
      </trkpt>
      <trkpt lat="45.73304" lon="6.54614">
        <ele>1048.1</ele>
        <time>2022-06-15T10:24:29Z</time>
      </trkpt>
      <trkpt lat="45.73305" lon="6.54618">
        <ele>1048.5</ele>
        <time>2022-06-15T10:24:30Z</time>
      </trkpt>
      <trkpt lat="45.73307" lon="6.54621">
        <ele>1049.1</ele>
        <time>2022-06-15T10:24:31Z</time>
      </trkpt>
      <trkpt lat="45.73308" lon="6.54624">
        <ele>1049.5</ele>
        <time>2022-06-15T10:24:32Z</time>
      </trkpt>
      <trkpt lat="45.73308" lon="6.54628">
        <ele>1049.6</ele>
        <time>2022-06-15T10:24:33Z</time>
      </trkpt>
      <trkpt lat="45.73309" lon="6.54631">
        <ele>1049.8</ele>
        <time>2022-06-15T10:24:34Z</time>
      </trkpt>
      <trkpt lat="45.7331" lon="6.54634">
        <ele>1050.1</ele>
        <time>2022-06-15T10:24:35Z</time>
      </trkpt>
      <trkpt lat="45.73311" lon="6.54638">
        <ele>1050.3</ele>
        <time>2022-06-15T10:24:36Z</time>
      </trkpt>
      <trkpt lat="45.73312" lon="6.54641">
        <ele>1050.3</ele>
        <time>2022-06-15T10:24:37Z</time>
      </trkpt>
      <trkpt lat="45.73313" lon="6.54644">
        <ele>1050.1</ele>
        <time>2022-06-15T10:24:38Z</time>
      </trkpt>
      <trkpt lat="45.73314" lon="6.54648">
        <ele>1049.9</ele>
        <time>2022-06-15T10:24:39Z</time>
      </trkpt>
      <trkpt lat="45.73316" lon="6.54651">
        <ele>1049.9</ele>
        <time>2022-06-15T10:24:40Z</time>
      </trkpt>
      <trkpt lat="45.73317" lon="6.54654">
        <ele>1049.8</ele>
        <time>2022-06-15T10:24:41Z</time>
      </trkpt>
      <trkpt lat="45.73318" lon="6.54658">
        <ele>1049.7</ele>
        <time>2022-06-15T10:24:42Z</time>
      </trkpt>
      <trkpt lat="45.7332" lon="6.54662">
        <ele>1049.5</ele>
        <time>2022-06-15T10:24:43Z</time>
      </trkpt>
      <trkpt lat="45.73321" lon="6.54665">
        <ele>1049.3</ele>
        <time>2022-06-15T10:24:44Z</time>
      </trkpt>
      <trkpt lat="45.73322" lon="6.54669">
        <ele>1049.3</ele>
        <time>2022-06-15T10:24:45Z</time>
      </trkpt>
      <trkpt lat="45.73323" lon="6.54673">
        <ele>1049.5</ele>
        <time>2022-06-15T10:24:46Z</time>
      </trkpt>
      <trkpt lat="45.73324" lon="6.54676">
        <ele>1049.8</ele>
        <time>2022-06-15T10:24:47Z</time>
      </trkpt>
      <trkpt lat="45.73325" lon="6.5468">
        <ele>1050</ele>
        <time>2022-06-15T10:24:48Z</time>
      </trkpt>
      <trkpt lat="45.73326" lon="6.54684">
        <ele>1050.2</ele>
        <time>2022-06-15T10:24:49Z</time>
      </trkpt>
      <trkpt lat="45.73327" lon="6.54687">
        <ele>1050.5</ele>
        <time>2022-06-15T10:24:50Z</time>
      </trkpt>
      <trkpt lat="45.73328" lon="6.5469">
        <ele>1051</ele>
        <time>2022-06-15T10:24:51Z</time>
      </trkpt>
      <trkpt lat="45.73329" lon="6.54694">
        <ele>1051.4</ele>
        <time>2022-06-15T10:24:52Z</time>
      </trkpt>
      <trkpt lat="45.7333" lon="6.54697">
        <ele>1051.9</ele>
        <time>2022-06-15T10:24:53Z</time>
      </trkpt>
      <trkpt lat="45.73331" lon="6.54701">
        <ele>1052.2</ele>
        <time>2022-06-15T10:24:54Z</time>
      </trkpt>
      <trkpt lat="45.73332" lon="6.54704">
        <ele>1052.7</ele>
        <time>2022-06-15T10:24:55Z</time>
      </trkpt>
      <trkpt lat="45.73333" lon="6.54708">
        <ele>1053.2</ele>
        <time>2022-06-15T10:24:56Z</time>
      </trkpt>
      <trkpt lat="45.73334" lon="6.54711">
        <ele>1053.9</ele>
        <time>2022-06-15T10:24:57Z</time>
      </trkpt>
      <trkpt lat="45.73335" lon="6.54715">
        <ele>1054.4</ele>
        <time>2022-06-15T10:24:58Z</time>
      </trkpt>
      <trkpt lat="45.73337" lon="6.54718">
        <ele>1055.1</ele>
        <time>2022-06-15T10:24:59Z</time>
      </trkpt>
      <trkpt lat="45.73338" lon="6.54721">
        <ele>1055.8</ele>
        <time>2022-06-15T10:25:00Z</time>
      </trkpt>
      <trkpt lat="45.73339" lon="6.54724">
        <ele>1056.2</ele>
        <time>2022-06-15T10:25:01Z</time>
      </trkpt>
      <trkpt lat="45.7334" lon="6.54728">
        <ele>1056.5</ele>
        <time>2022-06-15T10:25:02Z</time>
      </trkpt>
      <trkpt lat="45.73341" lon="6.54731">
        <ele>1057</ele>
        <time>2022-06-15T10:25:03Z</time>
      </trkpt>
      <trkpt lat="45.73342" lon="6.54734">
        <ele>1057.4</ele>
        <time>2022-06-15T10:25:04Z</time>
      </trkpt>
      <trkpt lat="45.73344" lon="6.54738">
        <ele>1057.7</ele>
        <time>2022-06-15T10:25:05Z</time>
      </trkpt>
      <trkpt lat="45.73345" lon="6.54741">
        <ele>1058.1</ele>
        <time>2022-06-15T10:25:06Z</time>
      </trkpt>
      <trkpt lat="45.73346" lon="6.54745">
        <ele>1058.2</ele>
        <time>2022-06-15T10:25:07Z</time>
      </trkpt>
      <trkpt lat="45.73347" lon="6.54748">
        <ele>1058.3</ele>
        <time>2022-06-15T10:25:08Z</time>
      </trkpt>
      <trkpt lat="45.73349" lon="6.54752">
        <ele>1058.2</ele>
        <time>2022-06-15T10:25:09Z</time>
      </trkpt>
      <trkpt lat="45.7335" lon="6.54755">
        <ele>1057.7</ele>
        <time>2022-06-15T10:25:10Z</time>
      </trkpt>
      <trkpt lat="45.73351" lon="6.54759">
        <ele>1057.5</ele>
        <time>2022-06-15T10:25:11Z</time>
      </trkpt>
      <trkpt lat="45.73352" lon="6.54762">
        <ele>1057.3</ele>
        <time>2022-06-15T10:25:12Z</time>
      </trkpt>
      <trkpt lat="45.73353" lon="6.54765">
        <ele>1057</ele>
        <time>2022-06-15T10:25:13Z</time>
      </trkpt>
      <trkpt lat="45.73355" lon="6.54769">
        <ele>1056.8</ele>
        <time>2022-06-15T10:25:14Z</time>
      </trkpt>
      <trkpt lat="45.73356" lon="6.54773">
        <ele>1056.4</ele>
        <time>2022-06-15T10:25:15Z</time>
      </trkpt>
      <trkpt lat="45.73357" lon="6.54776">
        <ele>1056.1</ele>
        <time>2022-06-15T10:25:16Z</time>
      </trkpt>
      <trkpt lat="45.73358" lon="6.5478">
        <ele>1056.2</ele>
        <time>2022-06-15T10:25:17Z</time>
      </trkpt>
      <trkpt lat="45.73359" lon="6.54784">
        <ele>1056.4</ele>
        <time>2022-06-15T10:25:18Z</time>
      </trkpt>
      <trkpt lat="45.7336" lon="6.54788">
        <ele>1056.7</ele>
        <time>2022-06-15T10:25:19Z</time>
      </trkpt>
      <trkpt lat="45.73361" lon="6.54792">
        <ele>1057.1</ele>
        <time>2022-06-15T10:25:20Z</time>
      </trkpt>
      <trkpt lat="45.73361" lon="6.54797">
        <ele>1057.4</ele>
        <time>2022-06-15T10:25:21Z</time>
      </trkpt>
      <trkpt lat="45.73362" lon="6.54801">
        <ele>1057.8</ele>
        <time>2022-06-15T10:25:22Z</time>
      </trkpt>
      <trkpt lat="45.73363" lon="6.54806">
        <ele>1057.9</ele>
        <time>2022-06-15T10:25:23Z</time>
      </trkpt>
      <trkpt lat="45.73363" lon="6.5481">
        <ele>1058.4</ele>
        <time>2022-06-15T10:25:24Z</time>
      </trkpt>
      <trkpt lat="45.73363" lon="6.54815">
        <ele>1058.6</ele>
        <time>2022-06-15T10:25:25Z</time>
      </trkpt>
      <trkpt lat="45.73363" lon="6.54819">
        <ele>1058.8</ele>
        <time>2022-06-15T10:25:26Z</time>
      </trkpt>
      <trkpt lat="45.73363" lon="6.54823">
        <ele>1058.8</ele>
        <time>2022-06-15T10:25:27Z</time>
      </trkpt>
      <trkpt lat="45.73363" lon="6.54828">
        <ele>1059</ele>
        <time>2022-06-15T10:25:28Z</time>
      </trkpt>
      <trkpt lat="45.73363" lon="6.54833">
        <ele>1058.9</ele>
        <time>2022-06-15T10:25:29Z</time>
      </trkpt>
      <trkpt lat="45.73362" lon="6.54837">
        <ele>1058.8</ele>
        <time>2022-06-15T10:25:30Z</time>
      </trkpt>
      <trkpt lat="45.73361" lon="6.54842">
        <ele>1058.6</ele>
        <time>2022-06-15T10:25:31Z</time>
      </trkpt>
      <trkpt lat="45.73361" lon="6.54846">
        <ele>1058.6</ele>
        <time>2022-06-15T10:25:32Z</time>
      </trkpt>
      <trkpt lat="45.7336" lon="6.54851">
        <ele>1058.7</ele>
        <time>2022-06-15T10:25:33Z</time>
      </trkpt>
      <trkpt lat="45.73359" lon="6.54855">
        <ele>1058.4</ele>
        <time>2022-06-15T10:25:34Z</time>
      </trkpt>
      <trkpt lat="45.73358" lon="6.5486">
        <ele>1058.3</ele>
        <time>2022-06-15T10:25:35Z</time>
      </trkpt>
      <trkpt lat="45.73357" lon="6.54864">
        <ele>1058.8</ele>
        <time>2022-06-15T10:25:36Z</time>
      </trkpt>
      <trkpt lat="45.73356" lon="6.54868">
        <ele>1059.3</ele>
        <time>2022-06-15T10:25:37Z</time>
      </trkpt>
      <trkpt lat="45.73355" lon="6.54873">
        <ele>1059.8</ele>
        <time>2022-06-15T10:25:38Z</time>
      </trkpt>
      <trkpt lat="45.73353" lon="6.54876">
        <ele>1060.2</ele>
        <time>2022-06-15T10:25:39Z</time>
      </trkpt>
      <trkpt lat="45.73352" lon="6.54881">
        <ele>1060.8</ele>
        <time>2022-06-15T10:25:40Z</time>
      </trkpt>
      <trkpt lat="45.73351" lon="6.54885">
        <ele>1061.5</ele>
        <time>2022-06-15T10:25:41Z</time>
      </trkpt>
      <trkpt lat="45.7335" lon="6.54889">
        <ele>1061.9</ele>
        <time>2022-06-15T10:25:42Z</time>
      </trkpt>
      <trkpt lat="45.73348" lon="6.54893">
        <ele>1062</ele>
        <time>2022-06-15T10:25:43Z</time>
      </trkpt>
      <trkpt lat="45.73348" lon="6.54897">
        <ele>1062.2</ele>
        <time>2022-06-15T10:25:44Z</time>
      </trkpt>
      <trkpt lat="45.73347" lon="6.54901">
        <ele>1062.3</ele>
        <time>2022-06-15T10:25:45Z</time>
      </trkpt>
      <trkpt lat="45.73346" lon="6.54906">
        <ele>1062.7</ele>
        <time>2022-06-15T10:25:46Z</time>
      </trkpt>
      <trkpt lat="45.73345" lon="6.5491">
        <ele>1062.8</ele>
        <time>2022-06-15T10:25:47Z</time>
      </trkpt>
      <trkpt lat="45.73344" lon="6.54914">
        <ele>1062.9</ele>
        <time>2022-06-15T10:25:48Z</time>
      </trkpt>
      <trkpt lat="45.73343" lon="6.54918">
        <ele>1063.1</ele>
        <time>2022-06-15T10:25:49Z</time>
      </trkpt>
      <trkpt lat="45.73341" lon="6.54921">
        <ele>1063</ele>
        <time>2022-06-15T10:25:50Z</time>
      </trkpt>
      <trkpt lat="45.7334" lon="6.54925">
        <ele>1062.9</ele>
        <time>2022-06-15T10:25:51Z</time>
      </trkpt>
      <trkpt lat="45.73339" lon="6.54929">
        <ele>1062.7</ele>
        <time>2022-06-15T10:25:52Z</time>
      </trkpt>
      <trkpt lat="45.73338" lon="6.54933">
        <ele>1062.7</ele>
        <time>2022-06-15T10:25:53Z</time>
      </trkpt>
      <trkpt lat="45.73338" lon="6.54938">
        <ele>1062.7</ele>
        <time>2022-06-15T10:25:54Z</time>
      </trkpt>
      <trkpt lat="45.73337" lon="6.54942">
        <ele>1062.5</ele>
        <time>2022-06-15T10:25:55Z</time>
      </trkpt>
      <trkpt lat="45.73336" lon="6.54946">
        <ele>1062.6</ele>
        <time>2022-06-15T10:25:56Z</time>
      </trkpt>
      <trkpt lat="45.73336" lon="6.5495">
        <ele>1062.7</ele>
        <time>2022-06-15T10:25:57Z</time>
      </trkpt>
      <trkpt lat="45.73336" lon="6.54955">
        <ele>1062.8</ele>
        <time>2022-06-15T10:25:58Z</time>
      </trkpt>
      <trkpt lat="45.73336" lon="6.54959">
        <ele>1063.1</ele>
        <time>2022-06-15T10:25:59Z</time>
      </trkpt>
      <trkpt lat="45.73335" lon="6.54963">
        <ele>1063.3</ele>
        <time>2022-06-15T10:26:00Z</time>
      </trkpt>
      <trkpt lat="45.73336" lon="6.54967">
        <ele>1063.8</ele>
        <time>2022-06-15T10:26:01Z</time>
      </trkpt>
      <trkpt lat="45.73336" lon="6.54971">
        <ele>1064.2</ele>
        <time>2022-06-15T10:26:02Z</time>
      </trkpt>
      <trkpt lat="45.73337" lon="6.54975">
        <ele>1064.3</ele>
        <time>2022-06-15T10:26:03Z</time>
      </trkpt>
      <trkpt lat="45.73337" lon="6.5498">
        <ele>1064.2</ele>
        <time>2022-06-15T10:26:04Z</time>
      </trkpt>
      <trkpt lat="45.73338" lon="6.54985">
        <ele>1064.3</ele>
        <time>2022-06-15T10:26:05Z</time>
      </trkpt>
      <trkpt lat="45.73339" lon="6.54989">
        <ele>1064.3</ele>
        <time>2022-06-15T10:26:06Z</time>
      </trkpt>
      <trkpt lat="45.7334" lon="6.54994">
        <ele>1064.5</ele>
        <time>2022-06-15T10:26:07Z</time>
      </trkpt>
      <trkpt lat="45.73341" lon="6.54999">
        <ele>1064.6</ele>
        <time>2022-06-15T10:26:08Z</time>
      </trkpt>
      <trkpt lat="45.73343" lon="6.55003">
        <ele>1064.7</ele>
        <time>2022-06-15T10:26:09Z</time>
      </trkpt>
      <trkpt lat="45.73345" lon="6.55007">
        <ele>1064.7</ele>
        <time>2022-06-15T10:26:10Z</time>
      </trkpt>
      <trkpt lat="45.73348" lon="6.55012">
        <ele>1064.9</ele>
        <time>2022-06-15T10:26:11Z</time>
      </trkpt>
      <trkpt lat="45.7335" lon="6.55016">
        <ele>1065</ele>
        <time>2022-06-15T10:26:12Z</time>
      </trkpt>
      <trkpt lat="45.73352" lon="6.5502">
        <ele>1065.1</ele>
        <time>2022-06-15T10:26:13Z</time>
      </trkpt>
      <trkpt lat="45.73354" lon="6.55025">
        <ele>1065.1</ele>
        <time>2022-06-15T10:26:14Z</time>
      </trkpt>
      <trkpt lat="45.73355" lon="6.55029">
        <ele>1065</ele>
        <time>2022-06-15T10:26:15Z</time>
      </trkpt>
      <trkpt lat="45.73358" lon="6.55035">
        <ele>1065.4</ele>
        <time>2022-06-15T10:26:16Z</time>
      </trkpt>
      <trkpt lat="45.7336" lon="6.55039">
        <ele>1066.3</ele>
        <time>2022-06-15T10:26:17Z</time>
      </trkpt>
      <trkpt lat="45.73363" lon="6.55043">
        <ele>1067.3</ele>
        <time>2022-06-15T10:26:18Z</time>
      </trkpt>
      <trkpt lat="45.73366" lon="6.55047">
        <ele>1068</ele>
        <time>2022-06-15T10:26:19Z</time>
      </trkpt>
      <trkpt lat="45.73369" lon="6.55052">
        <ele>1068.7</ele>
        <time>2022-06-15T10:26:20Z</time>
      </trkpt>
      <trkpt lat="45.73372" lon="6.55055">
        <ele>1069.5</ele>
        <time>2022-06-15T10:26:21Z</time>
      </trkpt>
      <trkpt lat="45.73376" lon="6.55059">
        <ele>1069.6</ele>
        <time>2022-06-15T10:26:22Z</time>
      </trkpt>
      <trkpt lat="45.73379" lon="6.55063">
        <ele>1069.4</ele>
        <time>2022-06-15T10:26:23Z</time>
      </trkpt>
      <trkpt lat="45.73383" lon="6.55067">
        <ele>1069.2</ele>
        <time>2022-06-15T10:26:24Z</time>
      </trkpt>
      <trkpt lat="45.73386" lon="6.55071">
        <ele>1068.7</ele>
        <time>2022-06-15T10:26:25Z</time>
      </trkpt>
      <trkpt lat="45.73389" lon="6.55074">
        <ele>1068.2</ele>
        <time>2022-06-15T10:26:26Z</time>
      </trkpt>
      <trkpt lat="45.73393" lon="6.55078">
        <ele>1068.4</ele>
        <time>2022-06-15T10:26:27Z</time>
      </trkpt>
      <trkpt lat="45.73396" lon="6.55081">
        <ele>1068.6</ele>
        <time>2022-06-15T10:26:28Z</time>
      </trkpt>
      <trkpt lat="45.73399" lon="6.55084">
        <ele>1068.5</ele>
        <time>2022-06-15T10:26:29Z</time>
      </trkpt>
      <trkpt lat="45.73403" lon="6.55088">
        <ele>1068.5</ele>
        <time>2022-06-15T10:26:30Z</time>
      </trkpt>
      <trkpt lat="45.73407" lon="6.55091">
        <ele>1068.5</ele>
        <time>2022-06-15T10:26:31Z</time>
      </trkpt>
      <trkpt lat="45.7341" lon="6.55095">
        <ele>1068.8</ele>
        <time>2022-06-15T10:26:32Z</time>
      </trkpt>
      <trkpt lat="45.73414" lon="6.55098">
        <ele>1069.6</ele>
        <time>2022-06-15T10:26:33Z</time>
      </trkpt>
      <trkpt lat="45.73418" lon="6.55102">
        <ele>1070.1</ele>
        <time>2022-06-15T10:26:34Z</time>
      </trkpt>
      <trkpt lat="45.73422" lon="6.55107">
        <ele>1070.2</ele>
        <time>2022-06-15T10:26:35Z</time>
      </trkpt>
      <trkpt lat="45.73425" lon="6.55113">
        <ele>1069.9</ele>
        <time>2022-06-15T10:26:36Z</time>
      </trkpt>
      <trkpt lat="45.73427" lon="6.55119">
        <ele>1069.6</ele>
        <time>2022-06-15T10:26:37Z</time>
      </trkpt>
      <trkpt lat="45.73428" lon="6.55126">
        <ele>1068.5</ele>
        <time>2022-06-15T10:26:38Z</time>
      </trkpt>
      <trkpt lat="45.73428" lon="6.55133">
        <ele>1066.6</ele>
        <time>2022-06-15T10:26:39Z</time>
      </trkpt>
      <trkpt lat="45.73427" lon="6.55139">
        <ele>1064.5</ele>
        <time>2022-06-15T10:26:40Z</time>
      </trkpt>
      <trkpt lat="45.73426" lon="6.55144">
        <ele>1065.1</ele>
        <time>2022-06-15T10:26:41Z</time>
      </trkpt>
      <trkpt lat="45.73423" lon="6.5515">
        <ele>1065.6</ele>
        <time>2022-06-15T10:26:42Z</time>
      </trkpt>
      <trkpt lat="45.73421" lon="6.55156">
        <ele>1066.2</ele>
        <time>2022-06-15T10:26:43Z</time>
      </trkpt>
      <trkpt lat="45.73418" lon="6.55162">
        <ele>1066.9</ele>
        <time>2022-06-15T10:26:44Z</time>
      </trkpt>
      <trkpt lat="45.73416" lon="6.55168">
        <ele>1067.8</ele>
        <time>2022-06-15T10:26:45Z</time>
      </trkpt>
      <trkpt lat="45.73414" lon="6.55174">
        <ele>1068</ele>
        <time>2022-06-15T10:26:46Z</time>
      </trkpt>
      <trkpt lat="45.73412" lon="6.5518">
        <ele>1068.4</ele>
        <time>2022-06-15T10:26:47Z</time>
      </trkpt>
      <trkpt lat="45.7341" lon="6.55185">
        <ele>1068.7</ele>
        <time>2022-06-15T10:26:48Z</time>
      </trkpt>
      <trkpt lat="45.73408" lon="6.5519">
        <ele>1069.2</ele>
        <time>2022-06-15T10:26:49Z</time>
      </trkpt>
      <trkpt lat="45.73406" lon="6.55196">
        <ele>1070</ele>
        <time>2022-06-15T10:26:50Z</time>
      </trkpt>
      <trkpt lat="45.73404" lon="6.55201">
        <ele>1070.9</ele>
        <time>2022-06-15T10:26:51Z</time>
      </trkpt>
      <trkpt lat="45.73402" lon="6.55206">
        <ele>1071.3</ele>
        <time>2022-06-15T10:26:52Z</time>
      </trkpt>
      <trkpt lat="45.73401" lon="6.55212">
        <ele>1071.8</ele>
        <time>2022-06-15T10:26:53Z</time>
      </trkpt>
      <trkpt lat="45.73399" lon="6.55218">
        <ele>1072.1</ele>
        <time>2022-06-15T10:26:54Z</time>
      </trkpt>
      <trkpt lat="45.73398" lon="6.55224">
        <ele>1072.3</ele>
        <time>2022-06-15T10:26:55Z</time>
      </trkpt>
      <trkpt lat="45.73397" lon="6.55229">
        <ele>1072</ele>
        <time>2022-06-15T10:26:56Z</time>
      </trkpt>
      <trkpt lat="45.73396" lon="6.55235">
        <ele>1071.8</ele>
        <time>2022-06-15T10:26:57Z</time>
      </trkpt>
      <trkpt lat="45.73395" lon="6.55241">
        <ele>1071.8</ele>
        <time>2022-06-15T10:26:58Z</time>
      </trkpt>
      <trkpt lat="45.73394" lon="6.55246">
        <ele>1071.7</ele>
        <time>2022-06-15T10:26:59Z</time>
      </trkpt>
      <trkpt lat="45.73394" lon="6.55252">
        <ele>1071.7</ele>
        <time>2022-06-15T10:27:00Z</time>
      </trkpt>
      <trkpt lat="45.73393" lon="6.55258">
        <ele>1071.7</ele>
        <time>2022-06-15T10:27:01Z</time>
      </trkpt>
      <trkpt lat="45.73393" lon="6.55263">
        <ele>1071.9</ele>
        <time>2022-06-15T10:27:02Z</time>
      </trkpt>
      <trkpt lat="45.73393" lon="6.55269">
        <ele>1072.1</ele>
        <time>2022-06-15T10:27:03Z</time>
      </trkpt>
      <trkpt lat="45.73392" lon="6.55274">
        <ele>1072.3</ele>
        <time>2022-06-15T10:27:04Z</time>
      </trkpt>
      <trkpt lat="45.73392" lon="6.5528">
        <ele>1072.5</ele>
        <time>2022-06-15T10:27:05Z</time>
      </trkpt>
      <trkpt lat="45.73393" lon="6.55285">
        <ele>1072.8</ele>
        <time>2022-06-15T10:27:06Z</time>
      </trkpt>
      <trkpt lat="45.73393" lon="6.55291">
        <ele>1073</ele>
        <time>2022-06-15T10:27:07Z</time>
      </trkpt>
      <trkpt lat="45.73393" lon="6.55296">
        <ele>1073.2</ele>
        <time>2022-06-15T10:27:08Z</time>
      </trkpt>
      <trkpt lat="45.73393" lon="6.55301">
        <ele>1073.3</ele>
        <time>2022-06-15T10:27:09Z</time>
      </trkpt>
      <trkpt lat="45.73393" lon="6.55307">
        <ele>1073.6</ele>
        <time>2022-06-15T10:27:10Z</time>
      </trkpt>
      <trkpt lat="45.73394" lon="6.55313">
        <ele>1074.2</ele>
        <time>2022-06-15T10:27:11Z</time>
      </trkpt>
      <trkpt lat="45.73394" lon="6.55318">
        <ele>1074.6</ele>
        <time>2022-06-15T10:27:12Z</time>
      </trkpt>
      <trkpt lat="45.73394" lon="6.55323">
        <ele>1075</ele>
        <time>2022-06-15T10:27:13Z</time>
      </trkpt>
      <trkpt lat="45.73394" lon="6.55328">
        <ele>1075.3</ele>
        <time>2022-06-15T10:27:14Z</time>
      </trkpt>
      <trkpt lat="45.73394" lon="6.55333">
        <ele>1075.7</ele>
        <time>2022-06-15T10:27:15Z</time>
      </trkpt>
      <trkpt lat="45.73394" lon="6.55338">
        <ele>1076.1</ele>
        <time>2022-06-15T10:27:16Z</time>
      </trkpt>
      <trkpt lat="45.73394" lon="6.55343">
        <ele>1076.5</ele>
        <time>2022-06-15T10:27:17Z</time>
      </trkpt>
      <trkpt lat="45.73393" lon="6.55347">
        <ele>1076.6</ele>
        <time>2022-06-15T10:27:18Z</time>
      </trkpt>
      <trkpt lat="45.73393" lon="6.55351">
        <ele>1076.7</ele>
        <time>2022-06-15T10:27:19Z</time>
      </trkpt>
      <trkpt lat="45.73392" lon="6.55355">
        <ele>1076.7</ele>
        <time>2022-06-15T10:27:20Z</time>
      </trkpt>
      <trkpt lat="45.73392" lon="6.55359">
        <ele>1076.9</ele>
        <time>2022-06-15T10:27:21Z</time>
      </trkpt>
      <trkpt lat="45.73391" lon="6.55363">
        <ele>1077.1</ele>
        <time>2022-06-15T10:27:22Z</time>
      </trkpt>
      <trkpt lat="45.7339" lon="6.55366">
        <ele>1077.1</ele>
        <time>2022-06-15T10:27:23Z</time>
      </trkpt>
      <trkpt lat="45.73389" lon="6.5537">
        <ele>1077.1</ele>
        <time>2022-06-15T10:27:24Z</time>
      </trkpt>
      <trkpt lat="45.73388" lon="6.55375">
        <ele>1077.2</ele>
        <time>2022-06-15T10:27:25Z</time>
      </trkpt>
      <trkpt lat="45.73388" lon="6.55379">
        <ele>1077.4</ele>
        <time>2022-06-15T10:27:26Z</time>
      </trkpt>
      <trkpt lat="45.73387" lon="6.55382">
        <ele>1077.5</ele>
        <time>2022-06-15T10:27:27Z</time>
      </trkpt>
      <trkpt lat="45.73386" lon="6.55386">
        <ele>1077.7</ele>
        <time>2022-06-15T10:27:28Z</time>
      </trkpt>
      <trkpt lat="45.73386" lon="6.5539">
        <ele>1077.9</ele>
        <time>2022-06-15T10:27:29Z</time>
      </trkpt>
      <trkpt lat="45.73385" lon="6.55394">
        <ele>1078</ele>
        <time>2022-06-15T10:27:30Z</time>
      </trkpt>
      <trkpt lat="45.73384" lon="6.55398">
        <ele>1078.1</ele>
        <time>2022-06-15T10:27:31Z</time>
      </trkpt>
      <trkpt lat="45.73384" lon="6.55401">
        <ele>1078.2</ele>
        <time>2022-06-15T10:27:32Z</time>
      </trkpt>
      <trkpt lat="45.73383" lon="6.55405">
        <ele>1078.3</ele>
        <time>2022-06-15T10:27:33Z</time>
      </trkpt>
      <trkpt lat="45.73382" lon="6.55409">
        <ele>1078.4</ele>
        <time>2022-06-15T10:27:34Z</time>
      </trkpt>
      <trkpt lat="45.73382" lon="6.55413">
        <ele>1078.5</ele>
        <time>2022-06-15T10:27:35Z</time>
      </trkpt>
      <trkpt lat="45.73382" lon="6.55416">
        <ele>1078.8</ele>
        <time>2022-06-15T10:27:36Z</time>
      </trkpt>
      <trkpt lat="45.73382" lon="6.5542">
        <ele>1079.1</ele>
        <time>2022-06-15T10:27:37Z</time>
      </trkpt>
      <trkpt lat="45.73381" lon="6.55424">
        <ele>1079.4</ele>
        <time>2022-06-15T10:27:38Z</time>
      </trkpt>
      <trkpt lat="45.73381" lon="6.55427">
        <ele>1079.7</ele>
        <time>2022-06-15T10:27:39Z</time>
      </trkpt>
      <trkpt lat="45.73381" lon="6.55431">
        <ele>1080</ele>
        <time>2022-06-15T10:27:40Z</time>
      </trkpt>
      <trkpt lat="45.73381" lon="6.55434">
        <ele>1080.3</ele>
        <time>2022-06-15T10:27:41Z</time>
      </trkpt>
      <trkpt lat="45.73381" lon="6.55438">
        <ele>1080.6</ele>
        <time>2022-06-15T10:27:42Z</time>
      </trkpt>
      <trkpt lat="45.73381" lon="6.55441">
        <ele>1080.9</ele>
        <time>2022-06-15T10:27:43Z</time>
      </trkpt>
      <trkpt lat="45.73381" lon="6.55444">
        <ele>1081.1</ele>
        <time>2022-06-15T10:27:44Z</time>
      </trkpt>
      <trkpt lat="45.73381" lon="6.55448">
        <ele>1081.3</ele>
        <time>2022-06-15T10:27:45Z</time>
      </trkpt>
      <trkpt lat="45.73381" lon="6.55451">
        <ele>1081.4</ele>
        <time>2022-06-15T10:27:46Z</time>
      </trkpt>
      <trkpt lat="45.73381" lon="6.55455">
        <ele>1081.6</ele>
        <time>2022-06-15T10:27:47Z</time>
      </trkpt>
      <trkpt lat="45.73381" lon="6.55458">
        <ele>1081.7</ele>
        <time>2022-06-15T10:27:48Z</time>
      </trkpt>
      <trkpt lat="45.73381" lon="6.55461">
        <ele>1081.8</ele>
        <time>2022-06-15T10:27:49Z</time>
      </trkpt>
      <trkpt lat="45.73381" lon="6.55464">
        <ele>1081.9</ele>
        <time>2022-06-15T10:27:50Z</time>
      </trkpt>
      <trkpt lat="45.7338" lon="6.55467">
        <ele>1081.7</ele>
        <time>2022-06-15T10:27:51Z</time>
      </trkpt>
      <trkpt lat="45.7338" lon="6.5547">
        <ele>1081.5</ele>
        <time>2022-06-15T10:27:52Z</time>
      </trkpt>
      <trkpt lat="45.73379" lon="6.55474">
        <ele>1081.5</ele>
        <time>2022-06-15T10:27:53Z</time>
      </trkpt>
      <trkpt lat="45.73379" lon="6.55477">
        <ele>1081.7</ele>
        <time>2022-06-15T10:27:54Z</time>
      </trkpt>
      <trkpt lat="45.73379" lon="6.5548">
        <ele>1082.1</ele>
        <time>2022-06-15T10:27:55Z</time>
      </trkpt>
      <trkpt lat="45.7338" lon="6.55483">
        <ele>1082.5</ele>
        <time>2022-06-15T10:27:56Z</time>
      </trkpt>
      <trkpt lat="45.7338" lon="6.55487">
        <ele>1082.8</ele>
        <time>2022-06-15T10:27:57Z</time>
      </trkpt>
      <trkpt lat="45.7338" lon="6.5549">
        <ele>1083.1</ele>
        <time>2022-06-15T10:27:58Z</time>
      </trkpt>
      <trkpt lat="45.73379" lon="6.55493">
        <ele>1083.2</ele>
        <time>2022-06-15T10:27:59Z</time>
      </trkpt>
      <trkpt lat="45.73379" lon="6.55496">
        <ele>1083.5</ele>
        <time>2022-06-15T10:28:00Z</time>
      </trkpt>
      <trkpt lat="45.73379" lon="6.55499">
        <ele>1083.7</ele>
        <time>2022-06-15T10:28:01Z</time>
      </trkpt>
      <trkpt lat="45.73379" lon="6.55503">
        <ele>1083.9</ele>
        <time>2022-06-15T10:28:02Z</time>
      </trkpt>
      <trkpt lat="45.73379" lon="6.55506">
        <ele>1084.1</ele>
        <time>2022-06-15T10:28:03Z</time>
      </trkpt>
      <trkpt lat="45.73379" lon="6.55509">
        <ele>1084.2</ele>
        <time>2022-06-15T10:28:04Z</time>
      </trkpt>
      <trkpt lat="45.7338" lon="6.55512">
        <ele>1084.5</ele>
        <time>2022-06-15T10:28:05Z</time>
      </trkpt>
      <trkpt lat="45.7338" lon="6.55516">
        <ele>1084.7</ele>
        <time>2022-06-15T10:28:06Z</time>
      </trkpt>
      <trkpt lat="45.7338" lon="6.55519">
        <ele>1084.9</ele>
        <time>2022-06-15T10:28:07Z</time>
      </trkpt>
      <trkpt lat="45.7338" lon="6.55522">
        <ele>1085.2</ele>
        <time>2022-06-15T10:28:08Z</time>
      </trkpt>
      <trkpt lat="45.7338" lon="6.55525">
        <ele>1085.4</ele>
        <time>2022-06-15T10:28:09Z</time>
      </trkpt>
      <trkpt lat="45.7338" lon="6.55529">
        <ele>1085.8</ele>
        <time>2022-06-15T10:28:10Z</time>
      </trkpt>
      <trkpt lat="45.73381" lon="6.55532">
        <ele>1086</ele>
        <time>2022-06-15T10:28:11Z</time>
      </trkpt>
      <trkpt lat="45.73381" lon="6.55536">
        <ele>1086.3</ele>
        <time>2022-06-15T10:28:12Z</time>
      </trkpt>
      <trkpt lat="45.73381" lon="6.55539">
        <ele>1086.4</ele>
        <time>2022-06-15T10:28:13Z</time>
      </trkpt>
      <trkpt lat="45.73381" lon="6.55542">
        <ele>1086.7</ele>
        <time>2022-06-15T10:28:14Z</time>
      </trkpt>
      <trkpt lat="45.73382" lon="6.55546">
        <ele>1086.9</ele>
        <time>2022-06-15T10:28:15Z</time>
      </trkpt>
      <trkpt lat="45.73382" lon="6.55549">
        <ele>1087.1</ele>
        <time>2022-06-15T10:28:16Z</time>
      </trkpt>
      <trkpt lat="45.73382" lon="6.55553">
        <ele>1087.3</ele>
        <time>2022-06-15T10:28:17Z</time>
      </trkpt>
      <trkpt lat="45.73382" lon="6.55556">
        <ele>1087.5</ele>
        <time>2022-06-15T10:28:18Z</time>
      </trkpt>
      <trkpt lat="45.73382" lon="6.5556">
        <ele>1087.6</ele>
        <time>2022-06-15T10:28:19Z</time>
      </trkpt>
      <trkpt lat="45.73383" lon="6.55563">
        <ele>1087.6</ele>
        <time>2022-06-15T10:28:20Z</time>
      </trkpt>
      <trkpt lat="45.73383" lon="6.55567">
        <ele>1087.6</ele>
        <time>2022-06-15T10:28:21Z</time>
      </trkpt>
      <trkpt lat="45.73383" lon="6.5557">
        <ele>1087.7</ele>
        <time>2022-06-15T10:28:22Z</time>
      </trkpt>
      <trkpt lat="45.73383" lon="6.55573">
        <ele>1087.6</ele>
        <time>2022-06-15T10:28:23Z</time>
      </trkpt>
      <trkpt lat="45.73383" lon="6.55577">
        <ele>1087.3</ele>
        <time>2022-06-15T10:28:24Z</time>
      </trkpt>
      <trkpt lat="45.73383" lon="6.5558">
        <ele>1087.3</ele>
        <time>2022-06-15T10:28:25Z</time>
      </trkpt>
      <trkpt lat="45.73383" lon="6.55584">
        <ele>1087.2</ele>
        <time>2022-06-15T10:28:26Z</time>
      </trkpt>
      <trkpt lat="45.73383" lon="6.55587">
        <ele>1087.9</ele>
        <time>2022-06-15T10:28:27Z</time>
      </trkpt>
      <trkpt lat="45.73383" lon="6.5559">
        <ele>1088.4</ele>
        <time>2022-06-15T10:28:28Z</time>
      </trkpt>
      <trkpt lat="45.73383" lon="6.55594">
        <ele>1089</ele>
        <time>2022-06-15T10:28:29Z</time>
      </trkpt>
      <trkpt lat="45.73383" lon="6.55597">
        <ele>1089.6</ele>
        <time>2022-06-15T10:28:30Z</time>
      </trkpt>
      <trkpt lat="45.73382" lon="6.55601">
        <ele>1090</ele>
        <time>2022-06-15T10:28:31Z</time>
      </trkpt>
      <trkpt lat="45.73382" lon="6.55604">
        <ele>1090.3</ele>
        <time>2022-06-15T10:28:32Z</time>
      </trkpt>
      <trkpt lat="45.73381" lon="6.55607">
        <ele>1090.5</ele>
        <time>2022-06-15T10:28:33Z</time>
      </trkpt>
      <trkpt lat="45.73381" lon="6.5561">
        <ele>1091</ele>
        <time>2022-06-15T10:28:34Z</time>
      </trkpt>
      <trkpt lat="45.73381" lon="6.55614">
        <ele>1091.4</ele>
        <time>2022-06-15T10:28:35Z</time>
      </trkpt>
      <trkpt lat="45.7338" lon="6.55617">
        <ele>1091.6</ele>
        <time>2022-06-15T10:28:36Z</time>
      </trkpt>
      <trkpt lat="45.7338" lon="6.5562">
        <ele>1091.8</ele>
        <time>2022-06-15T10:28:37Z</time>
      </trkpt>
      <trkpt lat="45.73379" lon="6.55624">
        <ele>1092.2</ele>
        <time>2022-06-15T10:28:38Z</time>
      </trkpt>
      <trkpt lat="45.73379" lon="6.55627">
        <ele>1092.6</ele>
        <time>2022-06-15T10:28:39Z</time>
      </trkpt>
      <trkpt lat="45.73378" lon="6.5563">
        <ele>1092.5</ele>
        <time>2022-06-15T10:28:40Z</time>
      </trkpt>
      <trkpt lat="45.73378" lon="6.55633">
        <ele>1092.6</ele>
        <time>2022-06-15T10:28:41Z</time>
      </trkpt>
      <trkpt lat="45.73377" lon="6.55636">
        <ele>1092.9</ele>
        <time>2022-06-15T10:28:42Z</time>
      </trkpt>
      <trkpt lat="45.73377" lon="6.5564">
        <ele>1093.2</ele>
        <time>2022-06-15T10:28:43Z</time>
      </trkpt>
      <trkpt lat="45.73376" lon="6.55643">
        <ele>1093.8</ele>
        <time>2022-06-15T10:28:44Z</time>
      </trkpt>
      <trkpt lat="45.73375" lon="6.55646">
        <ele>1094.5</ele>
        <time>2022-06-15T10:28:45Z</time>
      </trkpt>
      <trkpt lat="45.73374" lon="6.55649">
        <ele>1094.9</ele>
        <time>2022-06-15T10:28:46Z</time>
      </trkpt>
      <trkpt lat="45.73373" lon="6.55653">
        <ele>1095.5</ele>
        <time>2022-06-15T10:28:47Z</time>
      </trkpt>
      <trkpt lat="45.73372" lon="6.55656">
        <ele>1096.1</ele>
        <time>2022-06-15T10:28:48Z</time>
      </trkpt>
      <trkpt lat="45.73371" lon="6.55659">
        <ele>1096.9</ele>
        <time>2022-06-15T10:28:49Z</time>
      </trkpt>
      <trkpt lat="45.7337" lon="6.55662">
        <ele>1097.3</ele>
        <time>2022-06-15T10:28:50Z</time>
      </trkpt>
      <trkpt lat="45.73369" lon="6.55666">
        <ele>1097.8</ele>
        <time>2022-06-15T10:28:51Z</time>
      </trkpt>
      <trkpt lat="45.73368" lon="6.55669">
        <ele>1097.6</ele>
        <time>2022-06-15T10:28:52Z</time>
      </trkpt>
      <trkpt lat="45.73366" lon="6.55672">
        <ele>1096.9</ele>
        <time>2022-06-15T10:28:53Z</time>
      </trkpt>
      <trkpt lat="45.73365" lon="6.55675">
        <ele>1096.1</ele>
        <time>2022-06-15T10:28:54Z</time>
      </trkpt>
      <trkpt lat="45.73363" lon="6.55678">
        <ele>1095.3</ele>
        <time>2022-06-15T10:28:55Z</time>
      </trkpt>
      <trkpt lat="45.73362" lon="6.55681">
        <ele>1094.7</ele>
        <time>2022-06-15T10:28:56Z</time>
      </trkpt>
      <trkpt lat="45.73361" lon="6.55684">
        <ele>1094</ele>
        <time>2022-06-15T10:28:57Z</time>
      </trkpt>
      <trkpt lat="45.73359" lon="6.55688">
        <ele>1093.6</ele>
        <time>2022-06-15T10:28:58Z</time>
      </trkpt>
      <trkpt lat="45.73358" lon="6.55691">
        <ele>1093.3</ele>
        <time>2022-06-15T10:28:59Z</time>
      </trkpt>
      <trkpt lat="45.73357" lon="6.55694">
        <ele>1092.9</ele>
        <time>2022-06-15T10:29:00Z</time>
      </trkpt>
      <trkpt lat="45.73355" lon="6.55696">
        <ele>1093</ele>
        <time>2022-06-15T10:29:01Z</time>
      </trkpt>
      <trkpt lat="45.73354" lon="6.55699">
        <ele>1093.4</ele>
        <time>2022-06-15T10:29:02Z</time>
      </trkpt>
      <trkpt lat="45.73352" lon="6.55701">
        <ele>1093.7</ele>
        <time>2022-06-15T10:29:03Z</time>
      </trkpt>
      <trkpt lat="45.73351" lon="6.55704">
        <ele>1094.2</ele>
        <time>2022-06-15T10:29:04Z</time>
      </trkpt>
      <trkpt lat="45.73349" lon="6.55707">
        <ele>1094.7</ele>
        <time>2022-06-15T10:29:05Z</time>
      </trkpt>
      <trkpt lat="45.73348" lon="6.5571">
        <ele>1095.2</ele>
        <time>2022-06-15T10:29:06Z</time>
      </trkpt>
      <trkpt lat="45.73346" lon="6.55712">
        <ele>1095.4</ele>
        <time>2022-06-15T10:29:07Z</time>
      </trkpt>
      <trkpt lat="45.73344" lon="6.55715">
        <ele>1095.8</ele>
        <time>2022-06-15T10:29:08Z</time>
      </trkpt>
      <trkpt lat="45.73343" lon="6.55717">
        <ele>1096.1</ele>
        <time>2022-06-15T10:29:09Z</time>
      </trkpt>
      <trkpt lat="45.73341" lon="6.5572">
        <ele>1096.8</ele>
        <time>2022-06-15T10:29:10Z</time>
      </trkpt>
      <trkpt lat="45.7334" lon="6.55723">
        <ele>1097.4</ele>
        <time>2022-06-15T10:29:11Z</time>
      </trkpt>
      <trkpt lat="45.73338" lon="6.55725">
        <ele>1097.3</ele>
        <time>2022-06-15T10:29:12Z</time>
      </trkpt>
      <trkpt lat="45.73336" lon="6.55727">
        <ele>1097.3</ele>
        <time>2022-06-15T10:29:13Z</time>
      </trkpt>
      <trkpt lat="45.73334" lon="6.5573">
        <ele>1097.2</ele>
        <time>2022-06-15T10:29:14Z</time>
      </trkpt>
      <trkpt lat="45.73332" lon="6.55732">
        <ele>1097.3</ele>
        <time>2022-06-15T10:29:15Z</time>
      </trkpt>
      <trkpt lat="45.73331" lon="6.55735">
        <ele>1097.6</ele>
        <time>2022-06-15T10:29:16Z</time>
      </trkpt>
      <trkpt lat="45.73329" lon="6.55737">
        <ele>1097.9</ele>
        <time>2022-06-15T10:29:17Z</time>
      </trkpt>
      <trkpt lat="45.73328" lon="6.5574">
        <ele>1098.3</ele>
        <time>2022-06-15T10:29:18Z</time>
      </trkpt>
      <trkpt lat="45.73326" lon="6.55742">
        <ele>1098.7</ele>
        <time>2022-06-15T10:29:19Z</time>
      </trkpt>
      <trkpt lat="45.73324" lon="6.55744">
        <ele>1099</ele>
        <time>2022-06-15T10:29:20Z</time>
      </trkpt>
      <trkpt lat="45.73323" lon="6.55746">
        <ele>1099.5</ele>
        <time>2022-06-15T10:29:21Z</time>
      </trkpt>
      <trkpt lat="45.73321" lon="6.55749">
        <ele>1100.2</ele>
        <time>2022-06-15T10:29:22Z</time>
      </trkpt>
      <trkpt lat="45.73319" lon="6.55751">
        <ele>1100.6</ele>
        <time>2022-06-15T10:29:23Z</time>
      </trkpt>
      <trkpt lat="45.73317" lon="6.55753">
        <ele>1100.9</ele>
        <time>2022-06-15T10:29:24Z</time>
      </trkpt>
      <trkpt lat="45.73316" lon="6.55756">
        <ele>1101.2</ele>
        <time>2022-06-15T10:29:25Z</time>
      </trkpt>
      <trkpt lat="45.73314" lon="6.55759">
        <ele>1101.4</ele>
        <time>2022-06-15T10:29:26Z</time>
      </trkpt>
      <trkpt lat="45.73313" lon="6.55762">
        <ele>1101.5</ele>
        <time>2022-06-15T10:29:27Z</time>
      </trkpt>
      <trkpt lat="45.73311" lon="6.55765">
        <ele>1101.5</ele>
        <time>2022-06-15T10:29:28Z</time>
      </trkpt>
      <trkpt lat="45.73309" lon="6.55768">
        <ele>1101.4</ele>
        <time>2022-06-15T10:29:29Z</time>
      </trkpt>
      <trkpt lat="45.73307" lon="6.55772">
        <ele>1101.2</ele>
        <time>2022-06-15T10:29:30Z</time>
      </trkpt>
      <trkpt lat="45.73306" lon="6.55775">
        <ele>1100.7</ele>
        <time>2022-06-15T10:29:31Z</time>
      </trkpt>
      <trkpt lat="45.73304" lon="6.55778">
        <ele>1099.9</ele>
        <time>2022-06-15T10:29:32Z</time>
      </trkpt>
      <trkpt lat="45.73303" lon="6.55781">
        <ele>1099.6</ele>
        <time>2022-06-15T10:29:33Z</time>
      </trkpt>
      <trkpt lat="45.73302" lon="6.55785">
        <ele>1099.6</ele>
        <time>2022-06-15T10:29:34Z</time>
      </trkpt>
      <trkpt lat="45.73301" lon="6.55788">
        <ele>1099.5</ele>
        <time>2022-06-15T10:29:35Z</time>
      </trkpt>
      <trkpt lat="45.73301" lon="6.55792">
        <ele>1099.9</ele>
        <time>2022-06-15T10:29:36Z</time>
      </trkpt>
      <trkpt lat="45.73301" lon="6.55795">
        <ele>1100.1</ele>
        <time>2022-06-15T10:29:37Z</time>
      </trkpt>
      <trkpt lat="45.733" lon="6.55798">
        <ele>1100.4</ele>
        <time>2022-06-15T10:29:38Z</time>
      </trkpt>
      <trkpt lat="45.733" lon="6.55801">
        <ele>1100.6</ele>
        <time>2022-06-15T10:29:39Z</time>
      </trkpt>
      <trkpt lat="45.73299" lon="6.55804">
        <ele>1100.7</ele>
        <time>2022-06-15T10:29:40Z</time>
      </trkpt>
      <trkpt lat="45.73299" lon="6.55808">
        <ele>1101</ele>
        <time>2022-06-15T10:29:41Z</time>
      </trkpt>
      <trkpt lat="45.73299" lon="6.55811">
        <ele>1101.2</ele>
        <time>2022-06-15T10:29:42Z</time>
      </trkpt>
      <trkpt lat="45.73299" lon="6.55814">
        <ele>1101.4</ele>
        <time>2022-06-15T10:29:43Z</time>
      </trkpt>
      <trkpt lat="45.73298" lon="6.55818">
        <ele>1101.5</ele>
        <time>2022-06-15T10:29:44Z</time>
      </trkpt>
      <trkpt lat="45.73298" lon="6.55821">
        <ele>1101.8</ele>
        <time>2022-06-15T10:29:45Z</time>
      </trkpt>
      <trkpt lat="45.73299" lon="6.55824">
        <ele>1102.4</ele>
        <time>2022-06-15T10:29:46Z</time>
      </trkpt>
      <trkpt lat="45.73299" lon="6.55827">
        <ele>1102.8</ele>
        <time>2022-06-15T10:29:47Z</time>
      </trkpt>
      <trkpt lat="45.73299" lon="6.5583">
        <ele>1103.3</ele>
        <time>2022-06-15T10:29:48Z</time>
      </trkpt>
      <trkpt lat="45.73299" lon="6.55833">
        <ele>1103.6</ele>
        <time>2022-06-15T10:29:49Z</time>
      </trkpt>
      <trkpt lat="45.73299" lon="6.55837">
        <ele>1103.8</ele>
        <time>2022-06-15T10:29:50Z</time>
      </trkpt>
      <trkpt lat="45.73299" lon="6.5584">
        <ele>1104</ele>
        <time>2022-06-15T10:29:51Z</time>
      </trkpt>
      <trkpt lat="45.73299" lon="6.55843">
        <ele>1104.4</ele>
        <time>2022-06-15T10:29:52Z</time>
      </trkpt>
      <trkpt lat="45.73299" lon="6.55846">
        <ele>1104.7</ele>
        <time>2022-06-15T10:29:53Z</time>
      </trkpt>
      <trkpt lat="45.73299" lon="6.55849">
        <ele>1105.3</ele>
        <time>2022-06-15T10:29:54Z</time>
      </trkpt>
      <trkpt lat="45.73299" lon="6.55852">
        <ele>1105.7</ele>
        <time>2022-06-15T10:29:55Z</time>
      </trkpt>
      <trkpt lat="45.733" lon="6.55856">
        <ele>1106.3</ele>
        <time>2022-06-15T10:29:56Z</time>
      </trkpt>
      <trkpt lat="45.733" lon="6.55859">
        <ele>1106.7</ele>
        <time>2022-06-15T10:29:57Z</time>
      </trkpt>
      <trkpt lat="45.733" lon="6.55862">
        <ele>1107.1</ele>
        <time>2022-06-15T10:29:58Z</time>
      </trkpt>
      <trkpt lat="45.733" lon="6.55865">
        <ele>1107.4</ele>
        <time>2022-06-15T10:29:59Z</time>
      </trkpt>
      <trkpt lat="45.733" lon="6.55868">
        <ele>1107.7</ele>
        <time>2022-06-15T10:30:00Z</time>
      </trkpt>
      <trkpt lat="45.73299" lon="6.55872">
        <ele>1108</ele>
        <time>2022-06-15T10:30:01Z</time>
      </trkpt>
      <trkpt lat="45.73299" lon="6.55875">
        <ele>1108.2</ele>
        <time>2022-06-15T10:30:02Z</time>
      </trkpt>
      <trkpt lat="45.73299" lon="6.55878">
        <ele>1108.6</ele>
        <time>2022-06-15T10:30:03Z</time>
      </trkpt>
      <trkpt lat="45.73299" lon="6.55881">
        <ele>1109.1</ele>
        <time>2022-06-15T10:30:04Z</time>
      </trkpt>
      <trkpt lat="45.73299" lon="6.55885">
        <ele>1109.3</ele>
        <time>2022-06-15T10:30:05Z</time>
      </trkpt>
      <trkpt lat="45.73299" lon="6.55888">
        <ele>1109.7</ele>
        <time>2022-06-15T10:30:06Z</time>
      </trkpt>
      <trkpt lat="45.73299" lon="6.55892">
        <ele>1109.8</ele>
        <time>2022-06-15T10:30:07Z</time>
      </trkpt>
      <trkpt lat="45.73299" lon="6.55895">
        <ele>1109.9</ele>
        <time>2022-06-15T10:30:08Z</time>
      </trkpt>
      <trkpt lat="45.73299" lon="6.55899">
        <ele>1109.9</ele>
        <time>2022-06-15T10:30:09Z</time>
      </trkpt>
      <trkpt lat="45.73299" lon="6.55902">
        <ele>1109.8</ele>
        <time>2022-06-15T10:30:10Z</time>
      </trkpt>
      <trkpt lat="45.73299" lon="6.55906">
        <ele>1109.6</ele>
        <time>2022-06-15T10:30:11Z</time>
      </trkpt>
      <trkpt lat="45.73298" lon="6.55909">
        <ele>1109.4</ele>
        <time>2022-06-15T10:30:12Z</time>
      </trkpt>
      <trkpt lat="45.73298" lon="6.55913">
        <ele>1109.3</ele>
        <time>2022-06-15T10:30:13Z</time>
      </trkpt>
      <trkpt lat="45.73298" lon="6.55916">
        <ele>1109.3</ele>
        <time>2022-06-15T10:30:14Z</time>
      </trkpt>
      <trkpt lat="45.73298" lon="6.55919">
        <ele>1109.3</ele>
        <time>2022-06-15T10:30:15Z</time>
      </trkpt>
      <trkpt lat="45.73298" lon="6.55922">
        <ele>1109.5</ele>
        <time>2022-06-15T10:30:16Z</time>
      </trkpt>
      <trkpt lat="45.73298" lon="6.55926">
        <ele>1109.6</ele>
        <time>2022-06-15T10:30:17Z</time>
      </trkpt>
      <trkpt lat="45.73297" lon="6.55929">
        <ele>1109.5</ele>
        <time>2022-06-15T10:30:18Z</time>
      </trkpt>
      <trkpt lat="45.73297" lon="6.55932">
        <ele>1109.6</ele>
        <time>2022-06-15T10:30:19Z</time>
      </trkpt>
      <trkpt lat="45.73297" lon="6.55936">
        <ele>1109.8</ele>
        <time>2022-06-15T10:30:20Z</time>
      </trkpt>
      <trkpt lat="45.73296" lon="6.55939">
        <ele>1109.6</ele>
        <time>2022-06-15T10:30:21Z</time>
      </trkpt>
      <trkpt lat="45.73296" lon="6.55942">
        <ele>1109.4</ele>
        <time>2022-06-15T10:30:22Z</time>
      </trkpt>
      <trkpt lat="45.73295" lon="6.55945">
        <ele>1109.4</ele>
        <time>2022-06-15T10:30:23Z</time>
      </trkpt>
      <trkpt lat="45.73295" lon="6.55949">
        <ele>1109.9</ele>
        <time>2022-06-15T10:30:24Z</time>
      </trkpt>
      <trkpt lat="45.73294" lon="6.55952">
        <ele>1110.3</ele>
        <time>2022-06-15T10:30:25Z</time>
      </trkpt>
      <trkpt lat="45.73294" lon="6.55955">
        <ele>1110.9</ele>
        <time>2022-06-15T10:30:26Z</time>
      </trkpt>
      <trkpt lat="45.73293" lon="6.55959">
        <ele>1111.4</ele>
        <time>2022-06-15T10:30:27Z</time>
      </trkpt>
      <trkpt lat="45.73292" lon="6.55962">
        <ele>1111.7</ele>
        <time>2022-06-15T10:30:28Z</time>
      </trkpt>
      <trkpt lat="45.73291" lon="6.55966">
        <ele>1111.9</ele>
        <time>2022-06-15T10:30:29Z</time>
      </trkpt>
      <trkpt lat="45.7329" lon="6.55969">
        <ele>1112.2</ele>
        <time>2022-06-15T10:30:30Z</time>
      </trkpt>
      <trkpt lat="45.73289" lon="6.55972">
        <ele>1112.5</ele>
        <time>2022-06-15T10:30:31Z</time>
      </trkpt>
      <trkpt lat="45.73288" lon="6.55976">
        <ele>1112.5</ele>
        <time>2022-06-15T10:30:32Z</time>
      </trkpt>
      <trkpt lat="45.73287" lon="6.55979">
        <ele>1112.5</ele>
        <time>2022-06-15T10:30:33Z</time>
      </trkpt>
      <trkpt lat="45.73286" lon="6.55982">
        <ele>1112.6</ele>
        <time>2022-06-15T10:30:34Z</time>
      </trkpt>
      <trkpt lat="45.73285" lon="6.55984">
        <ele>1112.7</ele>
        <time>2022-06-15T10:30:35Z</time>
      </trkpt>
      <trkpt lat="45.73284" lon="6.55987">
        <ele>1113</ele>
        <time>2022-06-15T10:30:36Z</time>
      </trkpt>
      <trkpt lat="45.73283" lon="6.5599">
        <ele>1113</ele>
        <time>2022-06-15T10:30:37Z</time>
      </trkpt>
      <trkpt lat="45.73281" lon="6.55993">
        <ele>1113.3</ele>
        <time>2022-06-15T10:30:38Z</time>
      </trkpt>
      <trkpt lat="45.7328" lon="6.55996">
        <ele>1113.5</ele>
        <time>2022-06-15T10:30:39Z</time>
      </trkpt>
      <trkpt lat="45.73279" lon="6.55999">
        <ele>1113.9</ele>
        <time>2022-06-15T10:30:40Z</time>
      </trkpt>
      <trkpt lat="45.73278" lon="6.56002">
        <ele>1114.6</ele>
        <time>2022-06-15T10:30:41Z</time>
      </trkpt>
      <trkpt lat="45.73277" lon="6.56005">
        <ele>1115.3</ele>
        <time>2022-06-15T10:30:42Z</time>
      </trkpt>
      <trkpt lat="45.73275" lon="6.56008">
        <ele>1116</ele>
        <time>2022-06-15T10:30:43Z</time>
      </trkpt>
      <trkpt lat="45.73274" lon="6.56011">
        <ele>1116.6</ele>
        <time>2022-06-15T10:30:44Z</time>
      </trkpt>
      <trkpt lat="45.73273" lon="6.56014">
        <ele>1117.1</ele>
        <time>2022-06-15T10:30:45Z</time>
      </trkpt>
      <trkpt lat="45.73271" lon="6.56017">
        <ele>1117.6</ele>
        <time>2022-06-15T10:30:46Z</time>
      </trkpt>
      <trkpt lat="45.7327" lon="6.5602">
        <ele>1118.2</ele>
        <time>2022-06-15T10:30:47Z</time>
      </trkpt>
      <trkpt lat="45.73269" lon="6.56022">
        <ele>1118.6</ele>
        <time>2022-06-15T10:30:48Z</time>
      </trkpt>
      <trkpt lat="45.73267" lon="6.56025">
        <ele>1119.1</ele>
        <time>2022-06-15T10:30:49Z</time>
      </trkpt>
      <trkpt lat="45.73266" lon="6.56028">
        <ele>1119.6</ele>
        <time>2022-06-15T10:30:50Z</time>
      </trkpt>
      <trkpt lat="45.73265" lon="6.56031">
        <ele>1119.8</ele>
        <time>2022-06-15T10:30:51Z</time>
      </trkpt>
      <trkpt lat="45.73264" lon="6.56034">
        <ele>1120</ele>
        <time>2022-06-15T10:30:52Z</time>
      </trkpt>
      <trkpt lat="45.73263" lon="6.56038">
        <ele>1120.3</ele>
        <time>2022-06-15T10:30:53Z</time>
      </trkpt>
      <trkpt lat="45.73262" lon="6.56041">
        <ele>1120.6</ele>
        <time>2022-06-15T10:30:54Z</time>
      </trkpt>
      <trkpt lat="45.73261" lon="6.56044">
        <ele>1120.7</ele>
        <time>2022-06-15T10:30:55Z</time>
      </trkpt>
      <trkpt lat="45.7326" lon="6.56047">
        <ele>1120.9</ele>
        <time>2022-06-15T10:30:56Z</time>
      </trkpt>
      <trkpt lat="45.73259" lon="6.5605">
        <ele>1121.1</ele>
        <time>2022-06-15T10:30:57Z</time>
      </trkpt>
      <trkpt lat="45.73258" lon="6.56053">
        <ele>1121.3</ele>
        <time>2022-06-15T10:30:58Z</time>
      </trkpt>
      <trkpt lat="45.73258" lon="6.56057">
        <ele>1121.6</ele>
        <time>2022-06-15T10:30:59Z</time>
      </trkpt>
      <trkpt lat="45.73258" lon="6.5606">
        <ele>1121.6</ele>
        <time>2022-06-15T10:31:00Z</time>
      </trkpt>
      <trkpt lat="45.73257" lon="6.56064">
        <ele>1121.6</ele>
        <time>2022-06-15T10:31:01Z</time>
      </trkpt>
      <trkpt lat="45.73257" lon="6.56067">
        <ele>1121.8</ele>
        <time>2022-06-15T10:31:02Z</time>
      </trkpt>
      <trkpt lat="45.73257" lon="6.5607">
        <ele>1121.8</ele>
        <time>2022-06-15T10:31:03Z</time>
      </trkpt>
      <trkpt lat="45.73256" lon="6.56074">
        <ele>1121.8</ele>
        <time>2022-06-15T10:31:04Z</time>
      </trkpt>
      <trkpt lat="45.73256" lon="6.56078">
        <ele>1122</ele>
        <time>2022-06-15T10:31:05Z</time>
      </trkpt>
      <trkpt lat="45.73257" lon="6.56081">
        <ele>1122.4</ele>
        <time>2022-06-15T10:31:06Z</time>
      </trkpt>
      <trkpt lat="45.73258" lon="6.56085">
        <ele>1122.4</ele>
        <time>2022-06-15T10:31:07Z</time>
      </trkpt>
      <trkpt lat="45.73259" lon="6.56088">
        <ele>1122.1</ele>
        <time>2022-06-15T10:31:08Z</time>
      </trkpt>
      <trkpt lat="45.7326" lon="6.56091">
        <ele>1121.6</ele>
        <time>2022-06-15T10:31:09Z</time>
      </trkpt>
      <trkpt lat="45.73261" lon="6.56095">
        <ele>1121</ele>
        <time>2022-06-15T10:31:10Z</time>
      </trkpt>
      <trkpt lat="45.73262" lon="6.56099">
        <ele>1120.6</ele>
        <time>2022-06-15T10:31:11Z</time>
      </trkpt>
      <trkpt lat="45.73264" lon="6.56102">
        <ele>1120.2</ele>
        <time>2022-06-15T10:31:12Z</time>
      </trkpt>
      <trkpt lat="45.73265" lon="6.56105">
        <ele>1119.8</ele>
        <time>2022-06-15T10:31:13Z</time>
      </trkpt>
      <trkpt lat="45.73267" lon="6.56108">
        <ele>1119.5</ele>
        <time>2022-06-15T10:31:14Z</time>
      </trkpt>
      <trkpt lat="45.73268" lon="6.56112">
        <ele>1119.1</ele>
        <time>2022-06-15T10:31:15Z</time>
      </trkpt>
      <trkpt lat="45.7327" lon="6.56114">
        <ele>1119.2</ele>
        <time>2022-06-15T10:31:16Z</time>
      </trkpt>
      <trkpt lat="45.73272" lon="6.56118">
        <ele>1119.3</ele>
        <time>2022-06-15T10:31:17Z</time>
      </trkpt>
      <trkpt lat="45.73274" lon="6.56121">
        <ele>1119.5</ele>
        <time>2022-06-15T10:31:18Z</time>
      </trkpt>
      <trkpt lat="45.73276" lon="6.56123">
        <ele>1119.7</ele>
        <time>2022-06-15T10:31:19Z</time>
      </trkpt>
      <trkpt lat="45.73278" lon="6.56126">
        <ele>1119.8</ele>
        <time>2022-06-15T10:31:20Z</time>
      </trkpt>
      <trkpt lat="45.7328" lon="6.5613">
        <ele>1119.6</ele>
        <time>2022-06-15T10:31:21Z</time>
      </trkpt>
      <trkpt lat="45.73282" lon="6.56132">
        <ele>1119.5</ele>
        <time>2022-06-15T10:31:22Z</time>
      </trkpt>
      <trkpt lat="45.73284" lon="6.56135">
        <ele>1119.5</ele>
        <time>2022-06-15T10:31:23Z</time>
      </trkpt>
      <trkpt lat="45.73287" lon="6.56137">
        <ele>1119.5</ele>
        <time>2022-06-15T10:31:24Z</time>
      </trkpt>
      <trkpt lat="45.73289" lon="6.5614">
        <ele>1119.5</ele>
        <time>2022-06-15T10:31:25Z</time>
      </trkpt>
      <trkpt lat="45.73291" lon="6.56143">
        <ele>1119.4</ele>
        <time>2022-06-15T10:31:26Z</time>
      </trkpt>
      <trkpt lat="45.73294" lon="6.56145">
        <ele>1119.3</ele>
        <time>2022-06-15T10:31:27Z</time>
      </trkpt>
      <trkpt lat="45.73296" lon="6.56148">
        <ele>1119.4</ele>
        <time>2022-06-15T10:31:28Z</time>
      </trkpt>
      <trkpt lat="45.73299" lon="6.56151">
        <ele>1119.6</ele>
        <time>2022-06-15T10:31:29Z</time>
      </trkpt>
      <trkpt lat="45.73302" lon="6.56154">
        <ele>1120.1</ele>
        <time>2022-06-15T10:31:30Z</time>
      </trkpt>
      <trkpt lat="45.73305" lon="6.56157">
        <ele>1120.5</ele>
        <time>2022-06-15T10:31:31Z</time>
      </trkpt>
      <trkpt lat="45.73308" lon="6.56161">
        <ele>1121.2</ele>
        <time>2022-06-15T10:31:32Z</time>
      </trkpt>
      <trkpt lat="45.73311" lon="6.56165">
        <ele>1121.7</ele>
        <time>2022-06-15T10:31:33Z</time>
      </trkpt>
      <trkpt lat="45.73314" lon="6.56168">
        <ele>1122.1</ele>
        <time>2022-06-15T10:31:34Z</time>
      </trkpt>
      <trkpt lat="45.73317" lon="6.56171">
        <ele>1122.1</ele>
        <time>2022-06-15T10:31:35Z</time>
      </trkpt>
      <trkpt lat="45.7332" lon="6.56174">
        <ele>1121.9</ele>
        <time>2022-06-15T10:31:36Z</time>
      </trkpt>
      <trkpt lat="45.73323" lon="6.56177">
        <ele>1122.1</ele>
        <time>2022-06-15T10:31:37Z</time>
      </trkpt>
      <trkpt lat="45.73325" lon="6.5618">
        <ele>1122.2</ele>
        <time>2022-06-15T10:31:38Z</time>
      </trkpt>
      <trkpt lat="45.73328" lon="6.56184">
        <ele>1122.3</ele>
        <time>2022-06-15T10:31:39Z</time>
      </trkpt>
      <trkpt lat="45.73331" lon="6.56188">
        <ele>1122.6</ele>
        <time>2022-06-15T10:31:40Z</time>
      </trkpt>
      <trkpt lat="45.73333" lon="6.56191">
        <ele>1122.7</ele>
        <time>2022-06-15T10:31:41Z</time>
      </trkpt>
      <trkpt lat="45.73336" lon="6.56195">
        <ele>1123</ele>
        <time>2022-06-15T10:31:42Z</time>
      </trkpt>
      <trkpt lat="45.73338" lon="6.56199">
        <ele>1122.4</ele>
        <time>2022-06-15T10:31:43Z</time>
      </trkpt>
      <trkpt lat="45.7334" lon="6.56202">
        <ele>1121.9</ele>
        <time>2022-06-15T10:31:44Z</time>
      </trkpt>
      <trkpt lat="45.73343" lon="6.56206">
        <ele>1121.8</ele>
        <time>2022-06-15T10:31:45Z</time>
      </trkpt>
      <trkpt lat="45.73345" lon="6.5621">
        <ele>1121.6</ele>
        <time>2022-06-15T10:31:46Z</time>
      </trkpt>
      <trkpt lat="45.73349" lon="6.56213">
        <ele>1122.3</ele>
        <time>2022-06-15T10:31:47Z</time>
      </trkpt>
      <trkpt lat="45.73352" lon="6.56215">
        <ele>1123.3</ele>
        <time>2022-06-15T10:31:48Z</time>
      </trkpt>
      <trkpt lat="45.73355" lon="6.56219">
        <ele>1123.7</ele>
        <time>2022-06-15T10:31:49Z</time>
      </trkpt>
      <trkpt lat="45.73358" lon="6.56222">
        <ele>1124.5</ele>
        <time>2022-06-15T10:31:50Z</time>
      </trkpt>
      <trkpt lat="45.73362" lon="6.56224">
        <ele>1125.9</ele>
        <time>2022-06-15T10:31:51Z</time>
      </trkpt>
      <trkpt lat="45.73366" lon="6.56227">
        <ele>1125.7</ele>
        <time>2022-06-15T10:31:52Z</time>
      </trkpt>
      <trkpt lat="45.73369" lon="6.56231">
        <ele>1125.5</ele>
        <time>2022-06-15T10:31:53Z</time>
      </trkpt>
      <trkpt lat="45.73372" lon="6.56235">
        <ele>1125.6</ele>
        <time>2022-06-15T10:31:54Z</time>
      </trkpt>
      <trkpt lat="45.73375" lon="6.56239">
        <ele>1125.5</ele>
        <time>2022-06-15T10:31:55Z</time>
      </trkpt>
      <trkpt lat="45.73378" lon="6.56243">
        <ele>1125.5</ele>
        <time>2022-06-15T10:31:56Z</time>
      </trkpt>
      <trkpt lat="45.73381" lon="6.56247">
        <ele>1125.8</ele>
        <time>2022-06-15T10:31:57Z</time>
      </trkpt>
      <trkpt lat="45.73384" lon="6.56252">
        <ele>1126.2</ele>
        <time>2022-06-15T10:31:58Z</time>
      </trkpt>
      <trkpt lat="45.73387" lon="6.56256">
        <ele>1126.4</ele>
        <time>2022-06-15T10:31:59Z</time>
      </trkpt>
      <trkpt lat="45.73389" lon="6.56261">
        <ele>1126.7</ele>
        <time>2022-06-15T10:32:00Z</time>
      </trkpt>
      <trkpt lat="45.73391" lon="6.56265">
        <ele>1127.2</ele>
        <time>2022-06-15T10:32:01Z</time>
      </trkpt>
      <trkpt lat="45.73394" lon="6.56269">
        <ele>1127.6</ele>
        <time>2022-06-15T10:32:02Z</time>
      </trkpt>
      <trkpt lat="45.73396" lon="6.56272">
        <ele>1127.8</ele>
        <time>2022-06-15T10:32:03Z</time>
      </trkpt>
      <trkpt lat="45.73398" lon="6.56275">
        <ele>1128</ele>
        <time>2022-06-15T10:32:04Z</time>
      </trkpt>
      <trkpt lat="45.73399" lon="6.56279">
        <ele>1127.8</ele>
        <time>2022-06-15T10:32:05Z</time>
      </trkpt>
      <trkpt lat="45.73401" lon="6.56283">
        <ele>1127.6</ele>
        <time>2022-06-15T10:32:06Z</time>
      </trkpt>
      <trkpt lat="45.73403" lon="6.56287">
        <ele>1127.6</ele>
        <time>2022-06-15T10:32:07Z</time>
      </trkpt>
      <trkpt lat="45.73405" lon="6.5629">
        <ele>1127.9</ele>
        <time>2022-06-15T10:32:08Z</time>
      </trkpt>
      <trkpt lat="45.73406" lon="6.56294">
        <ele>1127.8</ele>
        <time>2022-06-15T10:32:09Z</time>
      </trkpt>
      <trkpt lat="45.73408" lon="6.56298">
        <ele>1128.1</ele>
        <time>2022-06-15T10:32:10Z</time>
      </trkpt>
      <trkpt lat="45.73409" lon="6.56301">
        <ele>1128.2</ele>
        <time>2022-06-15T10:32:11Z</time>
      </trkpt>
      <trkpt lat="45.73411" lon="6.56305">
        <ele>1128.4</ele>
        <time>2022-06-15T10:32:12Z</time>
      </trkpt>
      <trkpt lat="45.73413" lon="6.56308">
        <ele>1129.1</ele>
        <time>2022-06-15T10:32:13Z</time>
      </trkpt>
      <trkpt lat="45.73414" lon="6.56311">
        <ele>1129.5</ele>
        <time>2022-06-15T10:32:14Z</time>
      </trkpt>
      <trkpt lat="45.73415" lon="6.56315">
        <ele>1130</ele>
        <time>2022-06-15T10:32:15Z</time>
      </trkpt>
      <trkpt lat="45.73416" lon="6.56318">
        <ele>1130.3</ele>
        <time>2022-06-15T10:32:16Z</time>
      </trkpt>
      <trkpt lat="45.73417" lon="6.56322">
        <ele>1130.7</ele>
        <time>2022-06-15T10:32:17Z</time>
      </trkpt>
      <trkpt lat="45.73418" lon="6.56325">
        <ele>1131.5</ele>
        <time>2022-06-15T10:32:18Z</time>
      </trkpt>
      <trkpt lat="45.7342" lon="6.56328">
        <ele>1132.2</ele>
        <time>2022-06-15T10:32:19Z</time>
      </trkpt>
      <trkpt lat="45.73422" lon="6.56331">
        <ele>1132.9</ele>
        <time>2022-06-15T10:32:20Z</time>
      </trkpt>
      <trkpt lat="45.73424" lon="6.56335">
        <ele>1133.3</ele>
        <time>2022-06-15T10:32:21Z</time>
      </trkpt>
      <trkpt lat="45.73425" lon="6.56338">
        <ele>1133</ele>
        <time>2022-06-15T10:32:22Z</time>
      </trkpt>
      <trkpt lat="45.73427" lon="6.56342">
        <ele>1132.8</ele>
        <time>2022-06-15T10:32:23Z</time>
      </trkpt>
      <trkpt lat="45.73428" lon="6.56345">
        <ele>1132.5</ele>
        <time>2022-06-15T10:32:24Z</time>
      </trkpt>
      <trkpt lat="45.73429" lon="6.56349">
        <ele>1132.4</ele>
        <time>2022-06-15T10:32:25Z</time>
      </trkpt>
      <trkpt lat="45.73431" lon="6.56352">
        <ele>1132.5</ele>
        <time>2022-06-15T10:32:26Z</time>
      </trkpt>
      <trkpt lat="45.73432" lon="6.56355">
        <ele>1132.3</ele>
        <time>2022-06-15T10:32:27Z</time>
      </trkpt>
      <trkpt lat="45.73434" lon="6.56358">
        <ele>1132.3</ele>
        <time>2022-06-15T10:32:28Z</time>
      </trkpt>
      <trkpt lat="45.73436" lon="6.56361">
        <ele>1132.5</ele>
        <time>2022-06-15T10:32:29Z</time>
      </trkpt>
      <trkpt lat="45.73437" lon="6.56364">
        <ele>1132.8</ele>
        <time>2022-06-15T10:32:30Z</time>
      </trkpt>
      <trkpt lat="45.73439" lon="6.56367">
        <ele>1133.1</ele>
        <time>2022-06-15T10:32:31Z</time>
      </trkpt>
      <trkpt lat="45.73441" lon="6.56371">
        <ele>1133.4</ele>
        <time>2022-06-15T10:32:32Z</time>
      </trkpt>
      <trkpt lat="45.73443" lon="6.56374">
        <ele>1134</ele>
        <time>2022-06-15T10:32:33Z</time>
      </trkpt>
      <trkpt lat="45.73444" lon="6.56376">
        <ele>1134.6</ele>
        <time>2022-06-15T10:32:34Z</time>
      </trkpt>
      <trkpt lat="45.73446" lon="6.56379">
        <ele>1135.1</ele>
        <time>2022-06-15T10:32:35Z</time>
      </trkpt>
      <trkpt lat="45.73447" lon="6.56381">
        <ele>1135.8</ele>
        <time>2022-06-15T10:32:36Z</time>
      </trkpt>
      <trkpt lat="45.73449" lon="6.56385">
        <ele>1136</ele>
        <time>2022-06-15T10:32:37Z</time>
      </trkpt>
      <trkpt lat="45.73451" lon="6.56388">
        <ele>1136.1</ele>
        <time>2022-06-15T10:32:38Z</time>
      </trkpt>
      <trkpt lat="45.73453" lon="6.5639">
        <ele>1136.4</ele>
        <time>2022-06-15T10:32:39Z</time>
      </trkpt>
      <trkpt lat="45.73455" lon="6.56393">
        <ele>1136.6</ele>
        <time>2022-06-15T10:32:40Z</time>
      </trkpt>
      <trkpt lat="45.73457" lon="6.56396">
        <ele>1136.9</ele>
        <time>2022-06-15T10:32:41Z</time>
      </trkpt>
      <trkpt lat="45.73459" lon="6.56398">
        <ele>1137.1</ele>
        <time>2022-06-15T10:32:42Z</time>
      </trkpt>
      <trkpt lat="45.73461" lon="6.564">
        <ele>1137.4</ele>
        <time>2022-06-15T10:32:43Z</time>
      </trkpt>
      <trkpt lat="45.73463" lon="6.56403">
        <ele>1137.5</ele>
        <time>2022-06-15T10:32:44Z</time>
      </trkpt>
      <trkpt lat="45.73466" lon="6.56405">
        <ele>1137.8</ele>
        <time>2022-06-15T10:32:45Z</time>
      </trkpt>
      <trkpt lat="45.73468" lon="6.56407">
        <ele>1138</ele>
        <time>2022-06-15T10:32:46Z</time>
      </trkpt>
      <trkpt lat="45.7347" lon="6.5641">
        <ele>1138.3</ele>
        <time>2022-06-15T10:32:47Z</time>
      </trkpt>
      <trkpt lat="45.73472" lon="6.56412">
        <ele>1138.6</ele>
        <time>2022-06-15T10:32:48Z</time>
      </trkpt>
      <trkpt lat="45.73475" lon="6.56414">
        <ele>1138.6</ele>
        <time>2022-06-15T10:32:49Z</time>
      </trkpt>
      <trkpt lat="45.73477" lon="6.56415">
        <ele>1138.4</ele>
        <time>2022-06-15T10:32:50Z</time>
      </trkpt>
      <trkpt lat="45.7348" lon="6.56417">
        <ele>1138.4</ele>
        <time>2022-06-15T10:32:51Z</time>
      </trkpt>
      <trkpt lat="45.73483" lon="6.56418">
        <ele>1138.8</ele>
        <time>2022-06-15T10:32:52Z</time>
      </trkpt>
      <trkpt lat="45.73486" lon="6.56419">
        <ele>1139.2</ele>
        <time>2022-06-15T10:32:53Z</time>
      </trkpt>
      <trkpt lat="45.73488" lon="6.5642">
        <ele>1139.6</ele>
        <time>2022-06-15T10:32:54Z</time>
      </trkpt>
      <trkpt lat="45.73491" lon="6.56421">
        <ele>1139.9</ele>
        <time>2022-06-15T10:32:55Z</time>
      </trkpt>
      <trkpt lat="45.73494" lon="6.56422">
        <ele>1140.3</ele>
        <time>2022-06-15T10:32:56Z</time>
      </trkpt>
      <trkpt lat="45.73496" lon="6.56424">
        <ele>1140.5</ele>
        <time>2022-06-15T10:32:57Z</time>
      </trkpt>
      <trkpt lat="45.73499" lon="6.56425">
        <ele>1140.9</ele>
        <time>2022-06-15T10:32:58Z</time>
      </trkpt>
      <trkpt lat="45.73502" lon="6.56426">
        <ele>1141.4</ele>
        <time>2022-06-15T10:32:59Z</time>
      </trkpt>
      <trkpt lat="45.73504" lon="6.56427">
        <ele>1141.9</ele>
        <time>2022-06-15T10:33:00Z</time>
      </trkpt>
      <trkpt lat="45.73507" lon="6.56428">
        <ele>1142.4</ele>
        <time>2022-06-15T10:33:01Z</time>
      </trkpt>
      <trkpt lat="45.73509" lon="6.56429">
        <ele>1142.7</ele>
        <time>2022-06-15T10:33:02Z</time>
      </trkpt>
      <trkpt lat="45.73512" lon="6.5643">
        <ele>1143</ele>
        <time>2022-06-15T10:33:03Z</time>
      </trkpt>
      <trkpt lat="45.73514" lon="6.5643">
        <ele>1143.4</ele>
        <time>2022-06-15T10:33:04Z</time>
      </trkpt>
      <trkpt lat="45.73517" lon="6.56432">
        <ele>1143.5</ele>
        <time>2022-06-15T10:33:05Z</time>
      </trkpt>
      <trkpt lat="45.73519" lon="6.56433">
        <ele>1143.7</ele>
        <time>2022-06-15T10:33:06Z</time>
      </trkpt>
      <trkpt lat="45.73522" lon="6.56434">
        <ele>1143.6</ele>
        <time>2022-06-15T10:33:07Z</time>
      </trkpt>
      <trkpt lat="45.73525" lon="6.56435">
        <ele>1143.6</ele>
        <time>2022-06-15T10:33:08Z</time>
      </trkpt>
      <trkpt lat="45.73527" lon="6.56436">
        <ele>1143.4</ele>
        <time>2022-06-15T10:33:09Z</time>
      </trkpt>
      <trkpt lat="45.7353" lon="6.56438">
        <ele>1143.2</ele>
        <time>2022-06-15T10:33:10Z</time>
      </trkpt>
      <trkpt lat="45.73532" lon="6.56439">
        <ele>1143.1</ele>
        <time>2022-06-15T10:33:11Z</time>
      </trkpt>
      <trkpt lat="45.73535" lon="6.56441">
        <ele>1142.8</ele>
        <time>2022-06-15T10:33:12Z</time>
      </trkpt>
      <trkpt lat="45.73538" lon="6.56442">
        <ele>1142.8</ele>
        <time>2022-06-15T10:33:13Z</time>
      </trkpt>
      <trkpt lat="45.7354" lon="6.56442">
        <ele>1142.9</ele>
        <time>2022-06-15T10:33:14Z</time>
      </trkpt>
      <trkpt lat="45.73543" lon="6.56443">
        <ele>1143.1</ele>
        <time>2022-06-15T10:33:15Z</time>
      </trkpt>
      <trkpt lat="45.73546" lon="6.56444">
        <ele>1143</ele>
        <time>2022-06-15T10:33:16Z</time>
      </trkpt>
      <trkpt lat="45.73548" lon="6.56444">
        <ele>1143.3</ele>
        <time>2022-06-15T10:33:17Z</time>
      </trkpt>
      <trkpt lat="45.73551" lon="6.56445">
        <ele>1143.3</ele>
        <time>2022-06-15T10:33:18Z</time>
      </trkpt>
      <trkpt lat="45.73554" lon="6.56446">
        <ele>1143.3</ele>
        <time>2022-06-15T10:33:19Z</time>
      </trkpt>
      <trkpt lat="45.73556" lon="6.56446">
        <ele>1143.6</ele>
        <time>2022-06-15T10:33:20Z</time>
      </trkpt>
      <trkpt lat="45.73559" lon="6.56447">
        <ele>1144.1</ele>
        <time>2022-06-15T10:33:21Z</time>
      </trkpt>
      <trkpt lat="45.73561" lon="6.56448">
        <ele>1144.4</ele>
        <time>2022-06-15T10:33:22Z</time>
      </trkpt>
      <trkpt lat="45.73564" lon="6.56449">
        <ele>1144.7</ele>
        <time>2022-06-15T10:33:23Z</time>
      </trkpt>
      <trkpt lat="45.73566" lon="6.5645">
        <ele>1144.9</ele>
        <time>2022-06-15T10:33:24Z</time>
      </trkpt>
      <trkpt lat="45.73569" lon="6.56451">
        <ele>1145</ele>
        <time>2022-06-15T10:33:25Z</time>
      </trkpt>
      <trkpt lat="45.73571" lon="6.56452">
        <ele>1145.3</ele>
        <time>2022-06-15T10:33:26Z</time>
      </trkpt>
      <trkpt lat="45.73574" lon="6.56453">
        <ele>1145.5</ele>
        <time>2022-06-15T10:33:27Z</time>
      </trkpt>
      <trkpt lat="45.73577" lon="6.56454">
        <ele>1145.9</ele>
        <time>2022-06-15T10:33:28Z</time>
      </trkpt>
      <trkpt lat="45.73579" lon="6.56455">
        <ele>1146.4</ele>
        <time>2022-06-15T10:33:29Z</time>
      </trkpt>
      <trkpt lat="45.73582" lon="6.56456">
        <ele>1146.7</ele>
        <time>2022-06-15T10:33:30Z</time>
      </trkpt>
      <trkpt lat="45.73585" lon="6.56457">
        <ele>1146.9</ele>
        <time>2022-06-15T10:33:31Z</time>
      </trkpt>
      <trkpt lat="45.73587" lon="6.56458">
        <ele>1147.4</ele>
        <time>2022-06-15T10:33:32Z</time>
      </trkpt>
      <trkpt lat="45.7359" lon="6.56458">
        <ele>1147.8</ele>
        <time>2022-06-15T10:33:33Z</time>
      </trkpt>
      <trkpt lat="45.73592" lon="6.56459">
        <ele>1148.4</ele>
        <time>2022-06-15T10:33:34Z</time>
      </trkpt>
      <trkpt lat="45.73595" lon="6.56459">
        <ele>1148.9</ele>
        <time>2022-06-15T10:33:35Z</time>
      </trkpt>
      <trkpt lat="45.73597" lon="6.5646">
        <ele>1149.2</ele>
        <time>2022-06-15T10:33:36Z</time>
      </trkpt>
      <trkpt lat="45.736" lon="6.56461">
        <ele>1149.5</ele>
        <time>2022-06-15T10:33:37Z</time>
      </trkpt>
      <trkpt lat="45.73602" lon="6.56462">
        <ele>1149.9</ele>
        <time>2022-06-15T10:33:38Z</time>
      </trkpt>
      <trkpt lat="45.73605" lon="6.56463">
        <ele>1150.3</ele>
        <time>2022-06-15T10:33:39Z</time>
      </trkpt>
      <trkpt lat="45.73607" lon="6.56464">
        <ele>1150.5</ele>
        <time>2022-06-15T10:33:40Z</time>
      </trkpt>
      <trkpt lat="45.73609" lon="6.56465">
        <ele>1150.5</ele>
        <time>2022-06-15T10:33:41Z</time>
      </trkpt>
      <trkpt lat="45.73612" lon="6.56466">
        <ele>1150.8</ele>
        <time>2022-06-15T10:33:42Z</time>
      </trkpt>
      <trkpt lat="45.73614" lon="6.56467">
        <ele>1150.6</ele>
        <time>2022-06-15T10:33:43Z</time>
      </trkpt>
      <trkpt lat="45.73616" lon="6.56468">
        <ele>1150.5</ele>
        <time>2022-06-15T10:33:44Z</time>
      </trkpt>
      <trkpt lat="45.73619" lon="6.56469">
        <ele>1150.5</ele>
        <time>2022-06-15T10:33:45Z</time>
      </trkpt>
      <trkpt lat="45.73621" lon="6.56469">
        <ele>1150.5</ele>
        <time>2022-06-15T10:33:46Z</time>
      </trkpt>
      <trkpt lat="45.73623" lon="6.5647">
        <ele>1150.1</ele>
        <time>2022-06-15T10:33:47Z</time>
      </trkpt>
      <trkpt lat="45.73625" lon="6.56472">
        <ele>1149.7</ele>
        <time>2022-06-15T10:33:48Z</time>
      </trkpt>
      <trkpt lat="45.73627" lon="6.56473">
        <ele>1149.5</ele>
        <time>2022-06-15T10:33:49Z</time>
      </trkpt>
      <trkpt lat="45.73629" lon="6.56474">
        <ele>1149.3</ele>
        <time>2022-06-15T10:33:50Z</time>
      </trkpt>
      <trkpt lat="45.73632" lon="6.56475">
        <ele>1149.3</ele>
        <time>2022-06-15T10:33:51Z</time>
      </trkpt>
      <trkpt lat="45.73634" lon="6.56476">
        <ele>1149.3</ele>
        <time>2022-06-15T10:33:52Z</time>
      </trkpt>
      <trkpt lat="45.73637" lon="6.56477">
        <ele>1149.1</ele>
        <time>2022-06-15T10:33:53Z</time>
      </trkpt>
      <trkpt lat="45.7364" lon="6.56478">
        <ele>1149.2</ele>
        <time>2022-06-15T10:33:54Z</time>
      </trkpt>
      <trkpt lat="45.73642" lon="6.56479">
        <ele>1149.8</ele>
        <time>2022-06-15T10:33:55Z</time>
      </trkpt>
      <trkpt lat="45.73645" lon="6.5648">
        <ele>1150.5</ele>
        <time>2022-06-15T10:33:56Z</time>
      </trkpt>
      <trkpt lat="45.73647" lon="6.56481">
        <ele>1150.8</ele>
        <time>2022-06-15T10:33:57Z</time>
      </trkpt>
      <trkpt lat="45.73649" lon="6.56482">
        <ele>1151</ele>
        <time>2022-06-15T10:33:58Z</time>
      </trkpt>
      <trkpt lat="45.73652" lon="6.56483">
        <ele>1151.7</ele>
        <time>2022-06-15T10:33:59Z</time>
      </trkpt>
      <trkpt lat="45.73654" lon="6.56483">
        <ele>1152.5</ele>
        <time>2022-06-15T10:34:00Z</time>
      </trkpt>
      <trkpt lat="45.73656" lon="6.56483">
        <ele>1153.2</ele>
        <time>2022-06-15T10:34:01Z</time>
      </trkpt>
      <trkpt lat="45.73659" lon="6.56483">
        <ele>1153.9</ele>
        <time>2022-06-15T10:34:02Z</time>
      </trkpt>
      <trkpt lat="45.73661" lon="6.56484">
        <ele>1154.2</ele>
        <time>2022-06-15T10:34:03Z</time>
      </trkpt>
      <trkpt lat="45.73663" lon="6.56486">
        <ele>1154.2</ele>
        <time>2022-06-15T10:34:04Z</time>
      </trkpt>
      <trkpt lat="45.73665" lon="6.56487">
        <ele>1154.4</ele>
        <time>2022-06-15T10:34:05Z</time>
      </trkpt>
      <trkpt lat="45.73667" lon="6.56488">
        <ele>1154.7</ele>
        <time>2022-06-15T10:34:06Z</time>
      </trkpt>
      <trkpt lat="45.73669" lon="6.5649">
        <ele>1154.4</ele>
        <time>2022-06-15T10:34:07Z</time>
      </trkpt>
      <trkpt lat="45.73671" lon="6.56493">
        <ele>1154</ele>
        <time>2022-06-15T10:34:08Z</time>
      </trkpt>
      <trkpt lat="45.73673" lon="6.56494">
        <ele>1153.8</ele>
        <time>2022-06-15T10:34:09Z</time>
      </trkpt>
      <trkpt lat="45.73676" lon="6.56496">
        <ele>1153.8</ele>
        <time>2022-06-15T10:34:10Z</time>
      </trkpt>
      <trkpt lat="45.73678" lon="6.56497">
        <ele>1153.6</ele>
        <time>2022-06-15T10:34:11Z</time>
      </trkpt>
      <trkpt lat="45.73679" lon="6.56499">
        <ele>1153.3</ele>
        <time>2022-06-15T10:34:12Z</time>
      </trkpt>
      <trkpt lat="45.73682" lon="6.565">
        <ele>1153.2</ele>
        <time>2022-06-15T10:34:13Z</time>
      </trkpt>
      <trkpt lat="45.73684" lon="6.56502">
        <ele>1153.2</ele>
        <time>2022-06-15T10:34:14Z</time>
      </trkpt>
      <trkpt lat="45.73687" lon="6.56503">
        <ele>1153.3</ele>
        <time>2022-06-15T10:34:15Z</time>
      </trkpt>
      <trkpt lat="45.73689" lon="6.56505">
        <ele>1153.5</ele>
        <time>2022-06-15T10:34:16Z</time>
      </trkpt>
      <trkpt lat="45.73691" lon="6.56507">
        <ele>1153.5</ele>
        <time>2022-06-15T10:34:17Z</time>
      </trkpt>
      <trkpt lat="45.73693" lon="6.56509">
        <ele>1153.7</ele>
        <time>2022-06-15T10:34:18Z</time>
      </trkpt>
      <trkpt lat="45.73695" lon="6.56511">
        <ele>1154</ele>
        <time>2022-06-15T10:34:19Z</time>
      </trkpt>
      <trkpt lat="45.73697" lon="6.56513">
        <ele>1154.5</ele>
        <time>2022-06-15T10:34:20Z</time>
      </trkpt>
      <trkpt lat="45.73699" lon="6.56515">
        <ele>1154.9</ele>
        <time>2022-06-15T10:34:21Z</time>
      </trkpt>
      <trkpt lat="45.73701" lon="6.56517">
        <ele>1155.2</ele>
        <time>2022-06-15T10:34:22Z</time>
      </trkpt>
      <trkpt lat="45.73703" lon="6.56519">
        <ele>1155.3</ele>
        <time>2022-06-15T10:34:23Z</time>
      </trkpt>
      <trkpt lat="45.73705" lon="6.56521">
        <ele>1155.5</ele>
        <time>2022-06-15T10:34:24Z</time>
      </trkpt>
      <trkpt lat="45.73707" lon="6.56523">
        <ele>1155.4</ele>
        <time>2022-06-15T10:34:25Z</time>
      </trkpt>
      <trkpt lat="45.73709" lon="6.56524">
        <ele>1155.4</ele>
        <time>2022-06-15T10:34:26Z</time>
      </trkpt>
      <trkpt lat="45.73711" lon="6.56526">
        <ele>1155.4</ele>
        <time>2022-06-15T10:34:27Z</time>
      </trkpt>
      <trkpt lat="45.73713" lon="6.56528">
        <ele>1155.1</ele>
        <time>2022-06-15T10:34:28Z</time>
      </trkpt>
      <trkpt lat="45.73714" lon="6.5653">
        <ele>1155</ele>
        <time>2022-06-15T10:34:29Z</time>
      </trkpt>
      <trkpt lat="45.73716" lon="6.56533">
        <ele>1154.8</ele>
        <time>2022-06-15T10:34:30Z</time>
      </trkpt>
      <trkpt lat="45.73718" lon="6.56536">
        <ele>1154.5</ele>
        <time>2022-06-15T10:34:31Z</time>
      </trkpt>
      <trkpt lat="45.73719" lon="6.56538">
        <ele>1154.2</ele>
        <time>2022-06-15T10:34:32Z</time>
      </trkpt>
      <trkpt lat="45.73721" lon="6.56541">
        <ele>1154.3</ele>
        <time>2022-06-15T10:34:33Z</time>
      </trkpt>
      <trkpt lat="45.73723" lon="6.56543">
        <ele>1154.7</ele>
        <time>2022-06-15T10:34:34Z</time>
      </trkpt>
      <trkpt lat="45.73725" lon="6.56545">
        <ele>1155.2</ele>
        <time>2022-06-15T10:34:35Z</time>
      </trkpt>
      <trkpt lat="45.73727" lon="6.56547">
        <ele>1155.7</ele>
        <time>2022-06-15T10:34:36Z</time>
      </trkpt>
      <trkpt lat="45.73729" lon="6.56549">
        <ele>1156.1</ele>
        <time>2022-06-15T10:34:37Z</time>
      </trkpt>
      <trkpt lat="45.73732" lon="6.56551">
        <ele>1156.6</ele>
        <time>2022-06-15T10:34:38Z</time>
      </trkpt>
      <trkpt lat="45.73734" lon="6.56552">
        <ele>1157</ele>
        <time>2022-06-15T10:34:39Z</time>
      </trkpt>
      <trkpt lat="45.73736" lon="6.56554">
        <ele>1157.2</ele>
        <time>2022-06-15T10:34:40Z</time>
      </trkpt>
      <trkpt lat="45.73738" lon="6.56556">
        <ele>1157.1</ele>
        <time>2022-06-15T10:34:41Z</time>
      </trkpt>
      <trkpt lat="45.7374" lon="6.56558">
        <ele>1157.3</ele>
        <time>2022-06-15T10:34:42Z</time>
      </trkpt>
      <trkpt lat="45.73742" lon="6.5656">
        <ele>1157.4</ele>
        <time>2022-06-15T10:34:43Z</time>
      </trkpt>
      <trkpt lat="45.73744" lon="6.56561">
        <ele>1157.7</ele>
        <time>2022-06-15T10:34:44Z</time>
      </trkpt>
      <trkpt lat="45.73746" lon="6.56563">
        <ele>1158.1</ele>
        <time>2022-06-15T10:34:45Z</time>
      </trkpt>
      <trkpt lat="45.73749" lon="6.56565">
        <ele>1158.6</ele>
        <time>2022-06-15T10:34:46Z</time>
      </trkpt>
      <trkpt lat="45.73751" lon="6.56567">
        <ele>1159.3</ele>
        <time>2022-06-15T10:34:47Z</time>
      </trkpt>
      <trkpt lat="45.73753" lon="6.56569">
        <ele>1160.1</ele>
        <time>2022-06-15T10:34:48Z</time>
      </trkpt>
      <trkpt lat="45.73755" lon="6.56571">
        <ele>1160.4</ele>
        <time>2022-06-15T10:34:49Z</time>
      </trkpt>
      <trkpt lat="45.73757" lon="6.56572">
        <ele>1160.8</ele>
        <time>2022-06-15T10:34:50Z</time>
      </trkpt>
      <trkpt lat="45.7376" lon="6.56574">
        <ele>1161.5</ele>
        <time>2022-06-15T10:34:51Z</time>
      </trkpt>
      <trkpt lat="45.73762" lon="6.56575">
        <ele>1161.9</ele>
        <time>2022-06-15T10:34:52Z</time>
      </trkpt>
      <trkpt lat="45.73765" lon="6.56577">
        <ele>1162.2</ele>
        <time>2022-06-15T10:34:53Z</time>
      </trkpt>
      <trkpt lat="45.73767" lon="6.56578">
        <ele>1162.6</ele>
        <time>2022-06-15T10:34:54Z</time>
      </trkpt>
      <trkpt lat="45.7377" lon="6.56578">
        <ele>1163.2</ele>
        <time>2022-06-15T10:34:55Z</time>
      </trkpt>
      <trkpt lat="45.73773" lon="6.5658">
        <ele>1163.3</ele>
        <time>2022-06-15T10:34:56Z</time>
      </trkpt>
      <trkpt lat="45.73775" lon="6.56581">
        <ele>1163</ele>
        <time>2022-06-15T10:34:57Z</time>
      </trkpt>
      <trkpt lat="45.73778" lon="6.56582">
        <ele>1162.8</ele>
        <time>2022-06-15T10:34:58Z</time>
      </trkpt>
      <trkpt lat="45.7378" lon="6.56583">
        <ele>1162.6</ele>
        <time>2022-06-15T10:34:59Z</time>
      </trkpt>
      <trkpt lat="45.73783" lon="6.56584">
        <ele>1162.6</ele>
        <time>2022-06-15T10:35:00Z</time>
      </trkpt>
      <trkpt lat="45.73785" lon="6.56585">
        <ele>1162.7</ele>
        <time>2022-06-15T10:35:01Z</time>
      </trkpt>
      <trkpt lat="45.73787" lon="6.56587">
        <ele>1162.2</ele>
        <time>2022-06-15T10:35:02Z</time>
      </trkpt>
      <trkpt lat="45.7379" lon="6.56588">
        <ele>1162.2</ele>
        <time>2022-06-15T10:35:03Z</time>
      </trkpt>
      <trkpt lat="45.73792" lon="6.56589">
        <ele>1162.2</ele>
        <time>2022-06-15T10:35:04Z</time>
      </trkpt>
      <trkpt lat="45.73794" lon="6.5659">
        <ele>1162.3</ele>
        <time>2022-06-15T10:35:05Z</time>
      </trkpt>
      <trkpt lat="45.73797" lon="6.56592">
        <ele>1162.4</ele>
        <time>2022-06-15T10:35:06Z</time>
      </trkpt>
      <trkpt lat="45.73799" lon="6.56592">
        <ele>1162.8</ele>
        <time>2022-06-15T10:35:07Z</time>
      </trkpt>
      <trkpt lat="45.73802" lon="6.56594">
        <ele>1163</ele>
        <time>2022-06-15T10:35:08Z</time>
      </trkpt>
      <trkpt lat="45.73804" lon="6.56595">
        <ele>1163.3</ele>
        <time>2022-06-15T10:35:09Z</time>
      </trkpt>
      <trkpt lat="45.73806" lon="6.56596">
        <ele>1163.6</ele>
        <time>2022-06-15T10:35:10Z</time>
      </trkpt>
      <trkpt lat="45.73809" lon="6.56597">
        <ele>1164.3</ele>
        <time>2022-06-15T10:35:11Z</time>
      </trkpt>
      <trkpt lat="45.73811" lon="6.56599">
        <ele>1164.7</ele>
        <time>2022-06-15T10:35:12Z</time>
      </trkpt>
      <trkpt lat="45.73813" lon="6.566">
        <ele>1165.2</ele>
        <time>2022-06-15T10:35:13Z</time>
      </trkpt>
      <trkpt lat="45.73815" lon="6.56601">
        <ele>1165.6</ele>
        <time>2022-06-15T10:35:14Z</time>
      </trkpt>
      <trkpt lat="45.73818" lon="6.56602">
        <ele>1165.9</ele>
        <time>2022-06-15T10:35:15Z</time>
      </trkpt>
      <trkpt lat="45.7382" lon="6.56604">
        <ele>1165.8</ele>
        <time>2022-06-15T10:35:16Z</time>
      </trkpt>
      <trkpt lat="45.73822" lon="6.56607">
        <ele>1165.5</ele>
        <time>2022-06-15T10:35:17Z</time>
      </trkpt>
      <trkpt lat="45.73824" lon="6.56609">
        <ele>1165.1</ele>
        <time>2022-06-15T10:35:18Z</time>
      </trkpt>
      <trkpt lat="45.73825" lon="6.56612">
        <ele>1164.6</ele>
        <time>2022-06-15T10:35:19Z</time>
      </trkpt>
      <trkpt lat="45.73828" lon="6.56614">
        <ele>1165</ele>
        <time>2022-06-15T10:35:20Z</time>
      </trkpt>
      <trkpt lat="45.73829" lon="6.56617">
        <ele>1165.2</ele>
        <time>2022-06-15T10:35:21Z</time>
      </trkpt>
      <trkpt lat="45.73831" lon="6.56619">
        <ele>1165.8</ele>
        <time>2022-06-15T10:35:22Z</time>
      </trkpt>
      <trkpt lat="45.73833" lon="6.56622">
        <ele>1166.4</ele>
        <time>2022-06-15T10:35:23Z</time>
      </trkpt>
      <trkpt lat="45.73835" lon="6.56625">
        <ele>1167.4</ele>
        <time>2022-06-15T10:35:24Z</time>
      </trkpt>
      <trkpt lat="45.73836" lon="6.56628">
        <ele>1168</ele>
        <time>2022-06-15T10:35:25Z</time>
      </trkpt>
      <trkpt lat="45.73837" lon="6.56631">
        <ele>1168.8</ele>
        <time>2022-06-15T10:35:26Z</time>
      </trkpt>
      <trkpt lat="45.73838" lon="6.56634">
        <ele>1169.5</ele>
        <time>2022-06-15T10:35:27Z</time>
      </trkpt>
      <trkpt lat="45.7384" lon="6.56637">
        <ele>1170</ele>
        <time>2022-06-15T10:35:28Z</time>
      </trkpt>
      <trkpt lat="45.73841" lon="6.5664">
        <ele>1170.4</ele>
        <time>2022-06-15T10:35:29Z</time>
      </trkpt>
      <trkpt lat="45.73842" lon="6.56643">
        <ele>1170.5</ele>
        <time>2022-06-15T10:35:30Z</time>
      </trkpt>
      <trkpt lat="45.73843" lon="6.56646">
        <ele>1170.6</ele>
        <time>2022-06-15T10:35:31Z</time>
      </trkpt>
      <trkpt lat="45.73844" lon="6.56648">
        <ele>1170.7</ele>
        <time>2022-06-15T10:35:32Z</time>
      </trkpt>
      <trkpt lat="45.73846" lon="6.56651">
        <ele>1171</ele>
        <time>2022-06-15T10:35:33Z</time>
      </trkpt>
      <trkpt lat="45.73847" lon="6.56654">
        <ele>1171.3</ele>
        <time>2022-06-15T10:35:34Z</time>
      </trkpt>
      <trkpt lat="45.73849" lon="6.56656">
        <ele>1171.6</ele>
        <time>2022-06-15T10:35:35Z</time>
      </trkpt>
      <trkpt lat="45.7385" lon="6.56659">
        <ele>1171.5</ele>
        <time>2022-06-15T10:35:36Z</time>
      </trkpt>
      <trkpt lat="45.73851" lon="6.56662">
        <ele>1171.5</ele>
        <time>2022-06-15T10:35:37Z</time>
      </trkpt>
      <trkpt lat="45.73852" lon="6.56665">
        <ele>1171.4</ele>
        <time>2022-06-15T10:35:38Z</time>
      </trkpt>
      <trkpt lat="45.73853" lon="6.56668">
        <ele>1171.2</ele>
        <time>2022-06-15T10:35:39Z</time>
      </trkpt>
      <trkpt lat="45.73854" lon="6.56671">
        <ele>1171.4</ele>
        <time>2022-06-15T10:35:40Z</time>
      </trkpt>
      <trkpt lat="45.73856" lon="6.56674">
        <ele>1171.7</ele>
        <time>2022-06-15T10:35:41Z</time>
      </trkpt>
      <trkpt lat="45.73857" lon="6.56677">
        <ele>1171.9</ele>
        <time>2022-06-15T10:35:42Z</time>
      </trkpt>
      <trkpt lat="45.73858" lon="6.56679">
        <ele>1172.2</ele>
        <time>2022-06-15T10:35:43Z</time>
      </trkpt>
      <trkpt lat="45.73859" lon="6.56681">
        <ele>1172.3</ele>
        <time>2022-06-15T10:35:44Z</time>
      </trkpt>
      <trkpt lat="45.73859" lon="6.56683">
        <ele>1172.1</ele>
        <time>2022-06-15T10:35:45Z</time>
      </trkpt>
      <trkpt lat="45.73858" lon="6.56684">
        <ele>1171.8</ele>
        <time>2022-06-15T10:35:46Z</time>
      </trkpt>
      <trkpt lat="45.73857" lon="6.56685">
        <ele>1171.2</ele>
        <time>2022-06-15T10:35:47Z</time>
      </trkpt>
      <trkpt lat="45.73856" lon="6.56685">
        <ele>1170.8</ele>
        <time>2022-06-15T10:35:48Z</time>
      </trkpt>
      <trkpt lat="45.73856" lon="6.56685">
        <ele>1170.5</ele>
        <time>2022-06-15T10:35:49Z</time>
      </trkpt>
      <trkpt lat="45.73855" lon="6.56686">
        <ele>1170.1</ele>
        <time>2022-06-15T10:35:50Z</time>
      </trkpt>
      <trkpt lat="45.73855" lon="6.56688">
        <ele>1170</ele>
        <time>2022-06-15T10:35:51Z</time>
      </trkpt>
      <trkpt lat="45.73855" lon="6.56689">
        <ele>1169.8</ele>
        <time>2022-06-15T10:35:52Z</time>
      </trkpt>
      <trkpt lat="45.73855" lon="6.56689">
        <ele>1169.7</ele>
        <time>2022-06-15T10:35:53Z</time>
      </trkpt>
      <trkpt lat="45.73855" lon="6.56689">
        <ele>1169.7</ele>
        <time>2022-06-15T10:35:54Z</time>
      </trkpt>
      <trkpt lat="45.73855" lon="6.56689">
        <ele>1169.7</ele>
        <time>2022-06-15T10:35:55Z</time>
      </trkpt>
      <trkpt lat="45.73861" lon="6.56691">
        <ele>1172.1</ele>
        <time>2022-06-15T10:38:15Z</time>
      </trkpt>
      <trkpt lat="45.73862" lon="6.56692">
        <ele>1172.6</ele>
        <time>2022-06-15T10:38:16Z</time>
      </trkpt>
      <trkpt lat="45.73863" lon="6.56694">
        <ele>1173.3</ele>
        <time>2022-06-15T10:38:17Z</time>
      </trkpt>
      <trkpt lat="45.73864" lon="6.56696">
        <ele>1173.7</ele>
        <time>2022-06-15T10:38:18Z</time>
      </trkpt>
      <trkpt lat="45.73865" lon="6.56697">
        <ele>1174</ele>
        <time>2022-06-15T10:38:19Z</time>
      </trkpt>
      <trkpt lat="45.73866" lon="6.56699">
        <ele>1174.2</ele>
        <time>2022-06-15T10:38:20Z</time>
      </trkpt>
      <trkpt lat="45.73867" lon="6.567">
        <ele>1174.3</ele>
        <time>2022-06-15T10:38:21Z</time>
      </trkpt>
      <trkpt lat="45.73868" lon="6.56702">
        <ele>1174.5</ele>
        <time>2022-06-15T10:38:22Z</time>
      </trkpt>
      <trkpt lat="45.73868" lon="6.56704">
        <ele>1174.6</ele>
        <time>2022-06-15T10:38:23Z</time>
      </trkpt>
      <trkpt lat="45.73869" lon="6.56705">
        <ele>1174.6</ele>
        <time>2022-06-15T10:38:24Z</time>
      </trkpt>
      <trkpt lat="45.73869" lon="6.56706">
        <ele>1174.6</ele>
        <time>2022-06-15T10:38:25Z</time>
      </trkpt>
      <trkpt lat="45.7387" lon="6.56708">
        <ele>1174.5</ele>
        <time>2022-06-15T10:38:26Z</time>
      </trkpt>
      <trkpt lat="45.73871" lon="6.5671">
        <ele>1174.6</ele>
        <time>2022-06-15T10:38:27Z</time>
      </trkpt>
      <trkpt lat="45.73872" lon="6.56712">
        <ele>1174.7</ele>
        <time>2022-06-15T10:38:28Z</time>
      </trkpt>
      <trkpt lat="45.73874" lon="6.56714">
        <ele>1175.1</ele>
        <time>2022-06-15T10:38:29Z</time>
      </trkpt>
      <trkpt lat="45.73875" lon="6.56716">
        <ele>1175.1</ele>
        <time>2022-06-15T10:38:30Z</time>
      </trkpt>
      <trkpt lat="45.73876" lon="6.56718">
        <ele>1175.2</ele>
        <time>2022-06-15T10:38:31Z</time>
      </trkpt>
      <trkpt lat="45.73877" lon="6.56721">
        <ele>1175</ele>
        <time>2022-06-15T10:38:32Z</time>
      </trkpt>
      <trkpt lat="45.73879" lon="6.56724">
        <ele>1175</ele>
        <time>2022-06-15T10:38:33Z</time>
      </trkpt>
      <trkpt lat="45.7388" lon="6.56726">
        <ele>1175.1</ele>
        <time>2022-06-15T10:38:34Z</time>
      </trkpt>
      <trkpt lat="45.73882" lon="6.56729">
        <ele>1175.2</ele>
        <time>2022-06-15T10:38:35Z</time>
      </trkpt>
      <trkpt lat="45.73883" lon="6.56731">
        <ele>1175.3</ele>
        <time>2022-06-15T10:38:36Z</time>
      </trkpt>
      <trkpt lat="45.73884" lon="6.56734">
        <ele>1175.4</ele>
        <time>2022-06-15T10:38:37Z</time>
      </trkpt>
      <trkpt lat="45.73885" lon="6.56736">
        <ele>1175.6</ele>
        <time>2022-06-15T10:38:38Z</time>
      </trkpt>
      <trkpt lat="45.73886" lon="6.56739">
        <ele>1175.7</ele>
        <time>2022-06-15T10:38:39Z</time>
      </trkpt>
      <trkpt lat="45.73887" lon="6.56742">
        <ele>1176</ele>
        <time>2022-06-15T10:38:40Z</time>
      </trkpt>
      <trkpt lat="45.73888" lon="6.56744">
        <ele>1176.1</ele>
        <time>2022-06-15T10:38:41Z</time>
      </trkpt>
      <trkpt lat="45.73889" lon="6.56747">
        <ele>1176.2</ele>
        <time>2022-06-15T10:38:42Z</time>
      </trkpt>
      <trkpt lat="45.7389" lon="6.5675">
        <ele>1176.4</ele>
        <time>2022-06-15T10:38:43Z</time>
      </trkpt>
      <trkpt lat="45.73891" lon="6.56752">
        <ele>1176.6</ele>
        <time>2022-06-15T10:38:44Z</time>
      </trkpt>
      <trkpt lat="45.73891" lon="6.56755">
        <ele>1176.6</ele>
        <time>2022-06-15T10:38:45Z</time>
      </trkpt>
      <trkpt lat="45.73892" lon="6.56757">
        <ele>1176.7</ele>
        <time>2022-06-15T10:38:46Z</time>
      </trkpt>
      <trkpt lat="45.73893" lon="6.5676">
        <ele>1176.9</ele>
        <time>2022-06-15T10:38:47Z</time>
      </trkpt>
      <trkpt lat="45.73895" lon="6.56763">
        <ele>1177.2</ele>
        <time>2022-06-15T10:38:48Z</time>
      </trkpt>
      <trkpt lat="45.73896" lon="6.56765">
        <ele>1177.6</ele>
        <time>2022-06-15T10:38:49Z</time>
      </trkpt>
      <trkpt lat="45.73897" lon="6.56768">
        <ele>1177.8</ele>
        <time>2022-06-15T10:38:50Z</time>
      </trkpt>
      <trkpt lat="45.73898" lon="6.5677">
        <ele>1178.2</ele>
        <time>2022-06-15T10:38:51Z</time>
      </trkpt>
      <trkpt lat="45.73899" lon="6.56772">
        <ele>1178.4</ele>
        <time>2022-06-15T10:38:52Z</time>
      </trkpt>
      <trkpt lat="45.73901" lon="6.56775">
        <ele>1178.7</ele>
        <time>2022-06-15T10:38:53Z</time>
      </trkpt>
      <trkpt lat="45.73902" lon="6.56778">
        <ele>1179</ele>
        <time>2022-06-15T10:38:54Z</time>
      </trkpt>
      <trkpt lat="45.73903" lon="6.5678">
        <ele>1179.1</ele>
        <time>2022-06-15T10:38:55Z</time>
      </trkpt>
      <trkpt lat="45.73904" lon="6.56783">
        <ele>1179.2</ele>
        <time>2022-06-15T10:38:56Z</time>
      </trkpt>
      <trkpt lat="45.73905" lon="6.56785">
        <ele>1179.1</ele>
        <time>2022-06-15T10:38:57Z</time>
      </trkpt>
      <trkpt lat="45.73906" lon="6.56788">
        <ele>1179</ele>
        <time>2022-06-15T10:38:58Z</time>
      </trkpt>
      <trkpt lat="45.73907" lon="6.56791">
        <ele>1179.1</ele>
        <time>2022-06-15T10:38:59Z</time>
      </trkpt>
      <trkpt lat="45.73908" lon="6.56794">
        <ele>1179.1</ele>
        <time>2022-06-15T10:39:00Z</time>
      </trkpt>
      <trkpt lat="45.73909" lon="6.56797">
        <ele>1179.2</ele>
        <time>2022-06-15T10:39:01Z</time>
      </trkpt>
      <trkpt lat="45.7391" lon="6.56799">
        <ele>1179.4</ele>
        <time>2022-06-15T10:39:02Z</time>
      </trkpt>
      <trkpt lat="45.73912" lon="6.56802">
        <ele>1179.6</ele>
        <time>2022-06-15T10:39:03Z</time>
      </trkpt>
      <trkpt lat="45.73913" lon="6.56804">
        <ele>1179.8</ele>
        <time>2022-06-15T10:39:04Z</time>
      </trkpt>
      <trkpt lat="45.73914" lon="6.56807">
        <ele>1180.1</ele>
        <time>2022-06-15T10:39:05Z</time>
      </trkpt>
      <trkpt lat="45.73915" lon="6.5681">
        <ele>1180.1</ele>
        <time>2022-06-15T10:39:06Z</time>
      </trkpt>
      <trkpt lat="45.73916" lon="6.56812">
        <ele>1180.1</ele>
        <time>2022-06-15T10:39:07Z</time>
      </trkpt>
      <trkpt lat="45.73918" lon="6.56815">
        <ele>1180.2</ele>
        <time>2022-06-15T10:39:08Z</time>
      </trkpt>
      <trkpt lat="45.73919" lon="6.56817">
        <ele>1180.1</ele>
        <time>2022-06-15T10:39:09Z</time>
      </trkpt>
      <trkpt lat="45.7392" lon="6.56819">
        <ele>1180.2</ele>
        <time>2022-06-15T10:39:10Z</time>
      </trkpt>
      <trkpt lat="45.73921" lon="6.5682">
        <ele>1180.5</ele>
        <time>2022-06-15T10:39:11Z</time>
      </trkpt>
      <trkpt lat="45.73923" lon="6.56822">
        <ele>1180.6</ele>
        <time>2022-06-15T10:39:12Z</time>
      </trkpt>
      <trkpt lat="45.73924" lon="6.56824">
        <ele>1180.6</ele>
        <time>2022-06-15T10:39:13Z</time>
      </trkpt>
      <trkpt lat="45.73926" lon="6.56826">
        <ele>1180.6</ele>
        <time>2022-06-15T10:39:14Z</time>
      </trkpt>
      <trkpt lat="45.73928" lon="6.56828">
        <ele>1181</ele>
        <time>2022-06-15T10:39:15Z</time>
      </trkpt>
      <trkpt lat="45.73929" lon="6.5683">
        <ele>1181.2</ele>
        <time>2022-06-15T10:39:16Z</time>
      </trkpt>
      <trkpt lat="45.73931" lon="6.56832">
        <ele>1181.1</ele>
        <time>2022-06-15T10:39:17Z</time>
      </trkpt>
      <trkpt lat="45.73932" lon="6.56833">
        <ele>1181.2</ele>
        <time>2022-06-15T10:39:18Z</time>
      </trkpt>
      <trkpt lat="45.73934" lon="6.56835">
        <ele>1181.3</ele>
        <time>2022-06-15T10:39:19Z</time>
      </trkpt>
      <trkpt lat="45.73936" lon="6.56837">
        <ele>1181.5</ele>
        <time>2022-06-15T10:39:20Z</time>
      </trkpt>
      <trkpt lat="45.73938" lon="6.56839">
        <ele>1181.9</ele>
        <time>2022-06-15T10:39:21Z</time>
      </trkpt>
      <trkpt lat="45.7394" lon="6.5684">
        <ele>1182.2</ele>
        <time>2022-06-15T10:39:22Z</time>
      </trkpt>
      <trkpt lat="45.73941" lon="6.56841">
        <ele>1182.5</ele>
        <time>2022-06-15T10:39:23Z</time>
      </trkpt>
      <trkpt lat="45.73943" lon="6.56843">
        <ele>1183</ele>
        <time>2022-06-15T10:39:24Z</time>
      </trkpt>
      <trkpt lat="45.73945" lon="6.56844">
        <ele>1183.7</ele>
        <time>2022-06-15T10:39:25Z</time>
      </trkpt>
      <trkpt lat="45.73947" lon="6.56845">
        <ele>1184.1</ele>
        <time>2022-06-15T10:39:26Z</time>
      </trkpt>
      <trkpt lat="45.73949" lon="6.56847">
        <ele>1184.3</ele>
        <time>2022-06-15T10:39:27Z</time>
      </trkpt>
      <trkpt lat="45.73951" lon="6.56848">
        <ele>1184.6</ele>
        <time>2022-06-15T10:39:28Z</time>
      </trkpt>
      <trkpt lat="45.73953" lon="6.5685">
        <ele>1184.9</ele>
        <time>2022-06-15T10:39:29Z</time>
      </trkpt>
      <trkpt lat="45.73955" lon="6.56852">
        <ele>1185.1</ele>
        <time>2022-06-15T10:39:30Z</time>
      </trkpt>
      <trkpt lat="45.73957" lon="6.56854">
        <ele>1185.3</ele>
        <time>2022-06-15T10:39:31Z</time>
      </trkpt>
      <trkpt lat="45.73959" lon="6.56855">
        <ele>1185.6</ele>
        <time>2022-06-15T10:39:32Z</time>
      </trkpt>
      <trkpt lat="45.73961" lon="6.56857">
        <ele>1185.7</ele>
        <time>2022-06-15T10:39:33Z</time>
      </trkpt>
      <trkpt lat="45.73963" lon="6.56858">
        <ele>1185.9</ele>
        <time>2022-06-15T10:39:34Z</time>
      </trkpt>
      <trkpt lat="45.73965" lon="6.56859">
        <ele>1186.1</ele>
        <time>2022-06-15T10:39:35Z</time>
      </trkpt>
      <trkpt lat="45.73966" lon="6.56861">
        <ele>1186.2</ele>
        <time>2022-06-15T10:39:36Z</time>
      </trkpt>
      <trkpt lat="45.73968" lon="6.56863">
        <ele>1186.1</ele>
        <time>2022-06-15T10:39:37Z</time>
      </trkpt>
      <trkpt lat="45.73969" lon="6.56864">
        <ele>1185.8</ele>
        <time>2022-06-15T10:39:38Z</time>
      </trkpt>
      <trkpt lat="45.73971" lon="6.56866">
        <ele>1185.8</ele>
        <time>2022-06-15T10:39:39Z</time>
      </trkpt>
      <trkpt lat="45.73973" lon="6.56867">
        <ele>1186.1</ele>
        <time>2022-06-15T10:39:40Z</time>
      </trkpt>
      <trkpt lat="45.73975" lon="6.56869">
        <ele>1186.4</ele>
        <time>2022-06-15T10:39:41Z</time>
      </trkpt>
      <trkpt lat="45.73977" lon="6.5687">
        <ele>1186.8</ele>
        <time>2022-06-15T10:39:42Z</time>
      </trkpt>
      <trkpt lat="45.73979" lon="6.56871">
        <ele>1187.2</ele>
        <time>2022-06-15T10:39:43Z</time>
      </trkpt>
      <trkpt lat="45.7398" lon="6.56873">
        <ele>1187.4</ele>
        <time>2022-06-15T10:39:44Z</time>
      </trkpt>
      <trkpt lat="45.73982" lon="6.56874">
        <ele>1187.8</ele>
        <time>2022-06-15T10:39:45Z</time>
      </trkpt>
      <trkpt lat="45.73984" lon="6.56875">
        <ele>1188.1</ele>
        <time>2022-06-15T10:39:46Z</time>
      </trkpt>
      <trkpt lat="45.73986" lon="6.56877">
        <ele>1188.4</ele>
        <time>2022-06-15T10:39:47Z</time>
      </trkpt>
      <trkpt lat="45.73988" lon="6.56878">
        <ele>1188.6</ele>
        <time>2022-06-15T10:39:48Z</time>
      </trkpt>
      <trkpt lat="45.7399" lon="6.56879">
        <ele>1188.9</ele>
        <time>2022-06-15T10:39:49Z</time>
      </trkpt>
      <trkpt lat="45.73992" lon="6.5688">
        <ele>1189.4</ele>
        <time>2022-06-15T10:39:50Z</time>
      </trkpt>
      <trkpt lat="45.73995" lon="6.56881">
        <ele>1189.8</ele>
        <time>2022-06-15T10:39:51Z</time>
      </trkpt>
      <trkpt lat="45.73996" lon="6.56882">
        <ele>1190.1</ele>
        <time>2022-06-15T10:39:52Z</time>
      </trkpt>
      <trkpt lat="45.73998" lon="6.56883">
        <ele>1190.2</ele>
        <time>2022-06-15T10:39:53Z</time>
      </trkpt>
      <trkpt lat="45.74" lon="6.56884">
        <ele>1190.7</ele>
        <time>2022-06-15T10:39:54Z</time>
      </trkpt>
      <trkpt lat="45.74002" lon="6.56885">
        <ele>1190.6</ele>
        <time>2022-06-15T10:39:55Z</time>
      </trkpt>
      <trkpt lat="45.74004" lon="6.56886">
        <ele>1190.6</ele>
        <time>2022-06-15T10:39:56Z</time>
      </trkpt>
      <trkpt lat="45.74006" lon="6.56887">
        <ele>1190.4</ele>
        <time>2022-06-15T10:39:57Z</time>
      </trkpt>
      <trkpt lat="45.74008" lon="6.56888">
        <ele>1190.5</ele>
        <time>2022-06-15T10:39:58Z</time>
      </trkpt>
      <trkpt lat="45.74011" lon="6.56889">
        <ele>1190.8</ele>
        <time>2022-06-15T10:39:59Z</time>
      </trkpt>
      <trkpt lat="45.74013" lon="6.5689">
        <ele>1190.9</ele>
        <time>2022-06-15T10:40:00Z</time>
      </trkpt>
      <trkpt lat="45.74015" lon="6.56891">
        <ele>1191.1</ele>
        <time>2022-06-15T10:40:01Z</time>
      </trkpt>
      <trkpt lat="45.74018" lon="6.56892">
        <ele>1191.3</ele>
        <time>2022-06-15T10:40:02Z</time>
      </trkpt>
      <trkpt lat="45.7402" lon="6.56893">
        <ele>1191.5</ele>
        <time>2022-06-15T10:40:03Z</time>
      </trkpt>
      <trkpt lat="45.74021" lon="6.56895">
        <ele>1191.4</ele>
        <time>2022-06-15T10:40:04Z</time>
      </trkpt>
      <trkpt lat="45.74023" lon="6.56897">
        <ele>1191.3</ele>
        <time>2022-06-15T10:40:05Z</time>
      </trkpt>
      <trkpt lat="45.74025" lon="6.56899">
        <ele>1191.2</ele>
        <time>2022-06-15T10:40:06Z</time>
      </trkpt>
      <trkpt lat="45.74027" lon="6.569">
        <ele>1191.3</ele>
        <time>2022-06-15T10:40:07Z</time>
      </trkpt>
      <trkpt lat="45.74028" lon="6.56902">
        <ele>1191.3</ele>
        <time>2022-06-15T10:40:08Z</time>
      </trkpt>
      <trkpt lat="45.7403" lon="6.56904">
        <ele>1191.6</ele>
        <time>2022-06-15T10:40:09Z</time>
      </trkpt>
      <trkpt lat="45.74032" lon="6.56906">
        <ele>1191.9</ele>
        <time>2022-06-15T10:40:10Z</time>
      </trkpt>
      <trkpt lat="45.74034" lon="6.56908">
        <ele>1191.9</ele>
        <time>2022-06-15T10:40:11Z</time>
      </trkpt>
      <trkpt lat="45.74035" lon="6.56911">
        <ele>1191.9</ele>
        <time>2022-06-15T10:40:12Z</time>
      </trkpt>
      <trkpt lat="45.74037" lon="6.56913">
        <ele>1192</ele>
        <time>2022-06-15T10:40:13Z</time>
      </trkpt>
      <trkpt lat="45.74038" lon="6.56915">
        <ele>1192.1</ele>
        <time>2022-06-15T10:40:14Z</time>
      </trkpt>
      <trkpt lat="45.7404" lon="6.56917">
        <ele>1192.2</ele>
        <time>2022-06-15T10:40:15Z</time>
      </trkpt>
      <trkpt lat="45.74042" lon="6.56919">
        <ele>1192.3</ele>
        <time>2022-06-15T10:40:16Z</time>
      </trkpt>
      <trkpt lat="45.74043" lon="6.56922">
        <ele>1192.3</ele>
        <time>2022-06-15T10:40:17Z</time>
      </trkpt>
      <trkpt lat="45.74044" lon="6.56924">
        <ele>1192.4</ele>
        <time>2022-06-15T10:40:18Z</time>
      </trkpt>
      <trkpt lat="45.74046" lon="6.56926">
        <ele>1192.8</ele>
        <time>2022-06-15T10:40:19Z</time>
      </trkpt>
      <trkpt lat="45.74048" lon="6.56928">
        <ele>1193.1</ele>
        <time>2022-06-15T10:40:20Z</time>
      </trkpt>
      <trkpt lat="45.74049" lon="6.5693">
        <ele>1193.5</ele>
        <time>2022-06-15T10:40:21Z</time>
      </trkpt>
      <trkpt lat="45.74051" lon="6.56932">
        <ele>1193.8</ele>
        <time>2022-06-15T10:40:22Z</time>
      </trkpt>
      <trkpt lat="45.74052" lon="6.56934">
        <ele>1194.2</ele>
        <time>2022-06-15T10:40:23Z</time>
      </trkpt>
      <trkpt lat="45.74054" lon="6.56937">
        <ele>1194.3</ele>
        <time>2022-06-15T10:40:24Z</time>
      </trkpt>
      <trkpt lat="45.74055" lon="6.56939">
        <ele>1194.7</ele>
        <time>2022-06-15T10:40:25Z</time>
      </trkpt>
      <trkpt lat="45.74057" lon="6.56941">
        <ele>1195.2</ele>
        <time>2022-06-15T10:40:26Z</time>
      </trkpt>
      <trkpt lat="45.74058" lon="6.56943">
        <ele>1195.7</ele>
        <time>2022-06-15T10:40:27Z</time>
      </trkpt>
      <trkpt lat="45.7406" lon="6.56945">
        <ele>1196.1</ele>
        <time>2022-06-15T10:40:28Z</time>
      </trkpt>
      <trkpt lat="45.74062" lon="6.56947">
        <ele>1196.4</ele>
        <time>2022-06-15T10:40:29Z</time>
      </trkpt>
      <trkpt lat="45.74063" lon="6.56949">
        <ele>1196.5</ele>
        <time>2022-06-15T10:40:30Z</time>
      </trkpt>
      <trkpt lat="45.74065" lon="6.56951">
        <ele>1196.8</ele>
        <time>2022-06-15T10:40:31Z</time>
      </trkpt>
      <trkpt lat="45.74066" lon="6.56953">
        <ele>1197</ele>
        <time>2022-06-15T10:40:32Z</time>
      </trkpt>
      <trkpt lat="45.74068" lon="6.56956">
        <ele>1197.3</ele>
        <time>2022-06-15T10:40:33Z</time>
      </trkpt>
      <trkpt lat="45.7407" lon="6.56957">
        <ele>1197.8</ele>
        <time>2022-06-15T10:40:34Z</time>
      </trkpt>
      <trkpt lat="45.74072" lon="6.5696">
        <ele>1198.2</ele>
        <time>2022-06-15T10:40:35Z</time>
      </trkpt>
      <trkpt lat="45.74074" lon="6.56961">
        <ele>1198.9</ele>
        <time>2022-06-15T10:40:36Z</time>
      </trkpt>
      <trkpt lat="45.74076" lon="6.56963">
        <ele>1199.3</ele>
        <time>2022-06-15T10:40:37Z</time>
      </trkpt>
      <trkpt lat="45.74078" lon="6.56965">
        <ele>1199.6</ele>
        <time>2022-06-15T10:40:38Z</time>
      </trkpt>
      <trkpt lat="45.7408" lon="6.56967">
        <ele>1199.6</ele>
        <time>2022-06-15T10:40:39Z</time>
      </trkpt>
      <trkpt lat="45.74081" lon="6.5697">
        <ele>1199.7</ele>
        <time>2022-06-15T10:40:40Z</time>
      </trkpt>
      <trkpt lat="45.74083" lon="6.56972">
        <ele>1199.8</ele>
        <time>2022-06-15T10:40:41Z</time>
      </trkpt>
      <trkpt lat="45.74084" lon="6.56975">
        <ele>1199.8</ele>
        <time>2022-06-15T10:40:42Z</time>
      </trkpt>
      <trkpt lat="45.74086" lon="6.56977">
        <ele>1200.2</ele>
        <time>2022-06-15T10:40:43Z</time>
      </trkpt>
      <trkpt lat="45.74088" lon="6.56979">
        <ele>1200.4</ele>
        <time>2022-06-15T10:40:44Z</time>
      </trkpt>
      <trkpt lat="45.7409" lon="6.56981">
        <ele>1200.7</ele>
        <time>2022-06-15T10:40:45Z</time>
      </trkpt>
      <trkpt lat="45.74092" lon="6.56983">
        <ele>1201.1</ele>
        <time>2022-06-15T10:40:46Z</time>
      </trkpt>
      <trkpt lat="45.74094" lon="6.56985">
        <ele>1201.5</ele>
        <time>2022-06-15T10:40:47Z</time>
      </trkpt>
      <trkpt lat="45.74096" lon="6.56987">
        <ele>1201.8</ele>
        <time>2022-06-15T10:40:48Z</time>
      </trkpt>
      <trkpt lat="45.74098" lon="6.56989">
        <ele>1202</ele>
        <time>2022-06-15T10:40:49Z</time>
      </trkpt>
      <trkpt lat="45.741" lon="6.56991">
        <ele>1202</ele>
        <time>2022-06-15T10:40:50Z</time>
      </trkpt>
      <trkpt lat="45.74102" lon="6.56993">
        <ele>1202.3</ele>
        <time>2022-06-15T10:40:51Z</time>
      </trkpt>
      <trkpt lat="45.74104" lon="6.56995">
        <ele>1202.4</ele>
        <time>2022-06-15T10:40:52Z</time>
      </trkpt>
      <trkpt lat="45.74106" lon="6.56996">
        <ele>1202.6</ele>
        <time>2022-06-15T10:40:53Z</time>
      </trkpt>
      <trkpt lat="45.74107" lon="6.56998">
        <ele>1202.3</ele>
        <time>2022-06-15T10:40:54Z</time>
      </trkpt>
      <trkpt lat="45.74109" lon="6.57001">
        <ele>1202.1</ele>
        <time>2022-06-15T10:40:55Z</time>
      </trkpt>
      <trkpt lat="45.74111" lon="6.57002">
        <ele>1202.4</ele>
        <time>2022-06-15T10:40:56Z</time>
      </trkpt>
      <trkpt lat="45.74113" lon="6.57003">
        <ele>1202.5</ele>
        <time>2022-06-15T10:40:57Z</time>
      </trkpt>
      <trkpt lat="45.74115" lon="6.57005">
        <ele>1202.3</ele>
        <time>2022-06-15T10:40:58Z</time>
      </trkpt>
      <trkpt lat="45.74117" lon="6.57006">
        <ele>1202.4</ele>
        <time>2022-06-15T10:40:59Z</time>
      </trkpt>
      <trkpt lat="45.74118" lon="6.57008">
        <ele>1202.4</ele>
        <time>2022-06-15T10:41:00Z</time>
      </trkpt>
      <trkpt lat="45.7412" lon="6.57009">
        <ele>1202.5</ele>
        <time>2022-06-15T10:41:01Z</time>
      </trkpt>
      <trkpt lat="45.74122" lon="6.5701">
        <ele>1202.6</ele>
        <time>2022-06-15T10:41:02Z</time>
      </trkpt>
      <trkpt lat="45.74125" lon="6.57011">
        <ele>1202.8</ele>
        <time>2022-06-15T10:41:03Z</time>
      </trkpt>
      <trkpt lat="45.74127" lon="6.57012">
        <ele>1203.2</ele>
        <time>2022-06-15T10:41:04Z</time>
      </trkpt>
      <trkpt lat="45.74128" lon="6.57013">
        <ele>1203.2</ele>
        <time>2022-06-15T10:41:05Z</time>
      </trkpt>
      <trkpt lat="45.7413" lon="6.57014">
        <ele>1203.3</ele>
        <time>2022-06-15T10:41:06Z</time>
      </trkpt>
      <trkpt lat="45.74132" lon="6.57015">
        <ele>1203.5</ele>
        <time>2022-06-15T10:41:07Z</time>
      </trkpt>
      <trkpt lat="45.74134" lon="6.57016">
        <ele>1203.7</ele>
        <time>2022-06-15T10:41:08Z</time>
      </trkpt>
      <trkpt lat="45.74136" lon="6.57017">
        <ele>1203.9</ele>
        <time>2022-06-15T10:41:09Z</time>
      </trkpt>
      <trkpt lat="45.74138" lon="6.57018">
        <ele>1204</ele>
        <time>2022-06-15T10:41:10Z</time>
      </trkpt>
      <trkpt lat="45.7414" lon="6.57019">
        <ele>1204.4</ele>
        <time>2022-06-15T10:41:11Z</time>
      </trkpt>
      <trkpt lat="45.74142" lon="6.5702">
        <ele>1204.6</ele>
        <time>2022-06-15T10:41:12Z</time>
      </trkpt>
      <trkpt lat="45.74145" lon="6.57021">
        <ele>1205</ele>
        <time>2022-06-15T10:41:13Z</time>
      </trkpt>
      <trkpt lat="45.74147" lon="6.57021">
        <ele>1205.6</ele>
        <time>2022-06-15T10:41:14Z</time>
      </trkpt>
      <trkpt lat="45.74149" lon="6.57022">
        <ele>1205.9</ele>
        <time>2022-06-15T10:41:15Z</time>
      </trkpt>
      <trkpt lat="45.74151" lon="6.57023">
        <ele>1206.2</ele>
        <time>2022-06-15T10:41:16Z</time>
      </trkpt>
      <trkpt lat="45.74154" lon="6.57024">
        <ele>1206.3</ele>
        <time>2022-06-15T10:41:17Z</time>
      </trkpt>
      <trkpt lat="45.74156" lon="6.57025">
        <ele>1206.8</ele>
        <time>2022-06-15T10:41:18Z</time>
      </trkpt>
      <trkpt lat="45.74158" lon="6.57025">
        <ele>1207.1</ele>
        <time>2022-06-15T10:41:19Z</time>
      </trkpt>
      <trkpt lat="45.74161" lon="6.57027">
        <ele>1207.1</ele>
        <time>2022-06-15T10:41:20Z</time>
      </trkpt>
      <trkpt lat="45.74163" lon="6.57028">
        <ele>1207</ele>
        <time>2022-06-15T10:41:21Z</time>
      </trkpt>
      <trkpt lat="45.74165" lon="6.57029">
        <ele>1207</ele>
        <time>2022-06-15T10:41:22Z</time>
      </trkpt>
      <trkpt lat="45.74166" lon="6.5703">
        <ele>1207</ele>
        <time>2022-06-15T10:41:23Z</time>
      </trkpt>
      <trkpt lat="45.74169" lon="6.57031">
        <ele>1207.2</ele>
        <time>2022-06-15T10:41:24Z</time>
      </trkpt>
      <trkpt lat="45.74171" lon="6.57032">
        <ele>1207.4</ele>
        <time>2022-06-15T10:41:25Z</time>
      </trkpt>
      <trkpt lat="45.74173" lon="6.57033">
        <ele>1207.8</ele>
        <time>2022-06-15T10:41:26Z</time>
      </trkpt>
      <trkpt lat="45.74175" lon="6.57034">
        <ele>1207.9</ele>
        <time>2022-06-15T10:41:27Z</time>
      </trkpt>
      <trkpt lat="45.74177" lon="6.57035">
        <ele>1208</ele>
        <time>2022-06-15T10:41:28Z</time>
      </trkpt>
      <trkpt lat="45.74179" lon="6.57037">
        <ele>1207.9</ele>
        <time>2022-06-15T10:41:29Z</time>
      </trkpt>
      <trkpt lat="45.74181" lon="6.57038">
        <ele>1208</ele>
        <time>2022-06-15T10:41:30Z</time>
      </trkpt>
      <trkpt lat="45.74183" lon="6.57039">
        <ele>1208</ele>
        <time>2022-06-15T10:41:31Z</time>
      </trkpt>
      <trkpt lat="45.74184" lon="6.57041">
        <ele>1207.7</ele>
        <time>2022-06-15T10:41:32Z</time>
      </trkpt>
      <trkpt lat="45.74187" lon="6.57042">
        <ele>1207.9</ele>
        <time>2022-06-15T10:41:33Z</time>
      </trkpt>
      <trkpt lat="45.74189" lon="6.57042">
        <ele>1208.3</ele>
        <time>2022-06-15T10:41:34Z</time>
      </trkpt>
      <trkpt lat="45.74191" lon="6.57043">
        <ele>1208.7</ele>
        <time>2022-06-15T10:41:35Z</time>
      </trkpt>
      <trkpt lat="45.74194" lon="6.57043">
        <ele>1209.2</ele>
        <time>2022-06-15T10:41:36Z</time>
      </trkpt>
      <trkpt lat="45.74196" lon="6.57044">
        <ele>1209.6</ele>
        <time>2022-06-15T10:41:37Z</time>
      </trkpt>
      <trkpt lat="45.74198" lon="6.57044">
        <ele>1209.7</ele>
        <time>2022-06-15T10:41:38Z</time>
      </trkpt>
      <trkpt lat="45.74201" lon="6.57045">
        <ele>1210</ele>
        <time>2022-06-15T10:41:39Z</time>
      </trkpt>
      <trkpt lat="45.74204" lon="6.57046">
        <ele>1210.2</ele>
        <time>2022-06-15T10:41:40Z</time>
      </trkpt>
      <trkpt lat="45.74206" lon="6.57047">
        <ele>1210.3</ele>
        <time>2022-06-15T10:41:41Z</time>
      </trkpt>
      <trkpt lat="45.74208" lon="6.57048">
        <ele>1210.7</ele>
        <time>2022-06-15T10:41:42Z</time>
      </trkpt>
      <trkpt lat="45.7421" lon="6.57049">
        <ele>1210.7</ele>
        <time>2022-06-15T10:41:43Z</time>
      </trkpt>
      <trkpt lat="45.74213" lon="6.5705">
        <ele>1211</ele>
        <time>2022-06-15T10:41:44Z</time>
      </trkpt>
      <trkpt lat="45.74215" lon="6.57051">
        <ele>1211.2</ele>
        <time>2022-06-15T10:41:45Z</time>
      </trkpt>
      <trkpt lat="45.74217" lon="6.57052">
        <ele>1211.6</ele>
        <time>2022-06-15T10:41:46Z</time>
      </trkpt>
      <trkpt lat="45.74219" lon="6.57053">
        <ele>1211.9</ele>
        <time>2022-06-15T10:41:47Z</time>
      </trkpt>
      <trkpt lat="45.74222" lon="6.57053">
        <ele>1212.4</ele>
        <time>2022-06-15T10:41:48Z</time>
      </trkpt>
      <trkpt lat="45.74224" lon="6.57055">
        <ele>1212.5</ele>
        <time>2022-06-15T10:41:49Z</time>
      </trkpt>
      <trkpt lat="45.74226" lon="6.57055">
        <ele>1212.7</ele>
        <time>2022-06-15T10:41:50Z</time>
      </trkpt>
      <trkpt lat="45.74228" lon="6.57056">
        <ele>1212.8</ele>
        <time>2022-06-15T10:41:51Z</time>
      </trkpt>
      <trkpt lat="45.7423" lon="6.57058">
        <ele>1212.6</ele>
        <time>2022-06-15T10:41:52Z</time>
      </trkpt>
      <trkpt lat="45.74232" lon="6.57059">
        <ele>1212.6</ele>
        <time>2022-06-15T10:41:53Z</time>
      </trkpt>
      <trkpt lat="45.74234" lon="6.5706">
        <ele>1212.4</ele>
        <time>2022-06-15T10:41:54Z</time>
      </trkpt>
      <trkpt lat="45.74237" lon="6.57062">
        <ele>1212.4</ele>
        <time>2022-06-15T10:41:55Z</time>
      </trkpt>
      <trkpt lat="45.74239" lon="6.57063">
        <ele>1212.4</ele>
        <time>2022-06-15T10:41:56Z</time>
      </trkpt>
      <trkpt lat="45.74241" lon="6.57065">
        <ele>1212.5</ele>
        <time>2022-06-15T10:41:57Z</time>
      </trkpt>
      <trkpt lat="45.74243" lon="6.57067">
        <ele>1212.6</ele>
        <time>2022-06-15T10:41:58Z</time>
      </trkpt>
      <trkpt lat="45.74245" lon="6.57068">
        <ele>1212.8</ele>
        <time>2022-06-15T10:41:59Z</time>
      </trkpt>
      <trkpt lat="45.74247" lon="6.5707">
        <ele>1213.1</ele>
        <time>2022-06-15T10:42:00Z</time>
      </trkpt>
      <trkpt lat="45.74249" lon="6.57071">
        <ele>1213.4</ele>
        <time>2022-06-15T10:42:01Z</time>
      </trkpt>
      <trkpt lat="45.74252" lon="6.57073">
        <ele>1213.8</ele>
        <time>2022-06-15T10:42:02Z</time>
      </trkpt>
      <trkpt lat="45.74254" lon="6.57075">
        <ele>1214</ele>
        <time>2022-06-15T10:42:03Z</time>
      </trkpt>
      <trkpt lat="45.74256" lon="6.57076">
        <ele>1214.2</ele>
        <time>2022-06-15T10:42:04Z</time>
      </trkpt>
      <trkpt lat="45.74258" lon="6.57077">
        <ele>1214.3</ele>
        <time>2022-06-15T10:42:05Z</time>
      </trkpt>
      <trkpt lat="45.7426" lon="6.57079">
        <ele>1214.3</ele>
        <time>2022-06-15T10:42:06Z</time>
      </trkpt>
      <trkpt lat="45.74262" lon="6.57081">
        <ele>1214.4</ele>
        <time>2022-06-15T10:42:07Z</time>
      </trkpt>
      <trkpt lat="45.74264" lon="6.57082">
        <ele>1214.5</ele>
        <time>2022-06-15T10:42:08Z</time>
      </trkpt>
      <trkpt lat="45.74267" lon="6.57083">
        <ele>1214.6</ele>
        <time>2022-06-15T10:42:09Z</time>
      </trkpt>
      <trkpt lat="45.74269" lon="6.57085">
        <ele>1214.7</ele>
        <time>2022-06-15T10:42:10Z</time>
      </trkpt>
      <trkpt lat="45.74271" lon="6.57086">
        <ele>1214.9</ele>
        <time>2022-06-15T10:42:11Z</time>
      </trkpt>
      <trkpt lat="45.74274" lon="6.57087">
        <ele>1215.3</ele>
        <time>2022-06-15T10:42:12Z</time>
      </trkpt>
      <trkpt lat="45.74277" lon="6.57088">
        <ele>1215.8</ele>
        <time>2022-06-15T10:42:13Z</time>
      </trkpt>
      <trkpt lat="45.7428" lon="6.57088">
        <ele>1215.6</ele>
        <time>2022-06-15T10:42:14Z</time>
      </trkpt>
      <trkpt lat="45.74283" lon="6.57089">
        <ele>1215</ele>
        <time>2022-06-15T10:42:15Z</time>
      </trkpt>
      <trkpt lat="45.74286" lon="6.57088">
        <ele>1214.5</ele>
        <time>2022-06-15T10:42:16Z</time>
      </trkpt>
      <trkpt lat="45.7429" lon="6.57088">
        <ele>1213.9</ele>
        <time>2022-06-15T10:42:17Z</time>
      </trkpt>
      <trkpt lat="45.74293" lon="6.57088">
        <ele>1213.4</ele>
        <time>2022-06-15T10:42:18Z</time>
      </trkpt>
      <trkpt lat="45.74297" lon="6.57088">
        <ele>1212.7</ele>
        <time>2022-06-15T10:42:19Z</time>
      </trkpt>
      <trkpt lat="45.743" lon="6.57088">
        <ele>1212.1</ele>
        <time>2022-06-15T10:42:20Z</time>
      </trkpt>
      <trkpt lat="45.74304" lon="6.57089">
        <ele>1211.4</ele>
        <time>2022-06-15T10:42:21Z</time>
      </trkpt>
      <trkpt lat="45.74308" lon="6.5709">
        <ele>1212.2</ele>
        <time>2022-06-15T10:42:22Z</time>
      </trkpt>
      <trkpt lat="45.74311" lon="6.57092">
        <ele>1213.8</ele>
        <time>2022-06-15T10:42:23Z</time>
      </trkpt>
      <trkpt lat="45.74313" lon="6.57095">
        <ele>1214.8</ele>
        <time>2022-06-15T10:42:24Z</time>
      </trkpt>
      <trkpt lat="45.74315" lon="6.57099">
        <ele>1215.2</ele>
        <time>2022-06-15T10:42:25Z</time>
      </trkpt>
      <trkpt lat="45.74317" lon="6.57102">
        <ele>1215.3</ele>
        <time>2022-06-15T10:42:26Z</time>
      </trkpt>
      <trkpt lat="45.74319" lon="6.57106">
        <ele>1215.3</ele>
        <time>2022-06-15T10:42:27Z</time>
      </trkpt>
      <trkpt lat="45.74321" lon="6.5711">
        <ele>1214.7</ele>
        <time>2022-06-15T10:42:28Z</time>
      </trkpt>
      <trkpt lat="45.74323" lon="6.57114">
        <ele>1214.9</ele>
        <time>2022-06-15T10:42:29Z</time>
      </trkpt>
      <trkpt lat="45.74325" lon="6.57119">
        <ele>1215.3</ele>
        <time>2022-06-15T10:42:30Z</time>
      </trkpt>
      <trkpt lat="45.74327" lon="6.57124">
        <ele>1215.7</ele>
        <time>2022-06-15T10:42:31Z</time>
      </trkpt>
      <trkpt lat="45.74329" lon="6.57129">
        <ele>1216.1</ele>
        <time>2022-06-15T10:42:32Z</time>
      </trkpt>
      <trkpt lat="45.74331" lon="6.57133">
        <ele>1216.6</ele>
        <time>2022-06-15T10:42:33Z</time>
      </trkpt>
      <trkpt lat="45.74334" lon="6.57138">
        <ele>1217.1</ele>
        <time>2022-06-15T10:42:34Z</time>
      </trkpt>
      <trkpt lat="45.74337" lon="6.57143">
        <ele>1216.9</ele>
        <time>2022-06-15T10:42:35Z</time>
      </trkpt>
      <trkpt lat="45.7434" lon="6.57147">
        <ele>1216.5</ele>
        <time>2022-06-15T10:42:36Z</time>
      </trkpt>
      <trkpt lat="45.74344" lon="6.57152">
        <ele>1216.2</ele>
        <time>2022-06-15T10:42:37Z</time>
      </trkpt>
      <trkpt lat="45.74348" lon="6.57156">
        <ele>1215.9</ele>
        <time>2022-06-15T10:42:38Z</time>
      </trkpt>
      <trkpt lat="45.74353" lon="6.57161">
        <ele>1215.5</ele>
        <time>2022-06-15T10:42:39Z</time>
      </trkpt>
      <trkpt lat="45.74358" lon="6.57165">
        <ele>1214.7</ele>
        <time>2022-06-15T10:42:40Z</time>
      </trkpt>
      <trkpt lat="45.74362" lon="6.57171">
        <ele>1213.8</ele>
        <time>2022-06-15T10:42:41Z</time>
      </trkpt>
      <trkpt lat="45.74368" lon="6.57176">
        <ele>1213.2</ele>
        <time>2022-06-15T10:42:42Z</time>
      </trkpt>
      <trkpt lat="45.74374" lon="6.57182">
        <ele>1212.5</ele>
        <time>2022-06-15T10:42:43Z</time>
      </trkpt>
      <trkpt lat="45.7438" lon="6.57188">
        <ele>1212</ele>
        <time>2022-06-15T10:42:44Z</time>
      </trkpt>
      <trkpt lat="45.74386" lon="6.57195">
        <ele>1211.2</ele>
        <time>2022-06-15T10:42:45Z</time>
      </trkpt>
      <trkpt lat="45.74393" lon="6.57201">
        <ele>1210.2</ele>
        <time>2022-06-15T10:42:46Z</time>
      </trkpt>
      <trkpt lat="45.74399" lon="6.57208">
        <ele>1209.5</ele>
        <time>2022-06-15T10:42:47Z</time>
      </trkpt>
      <trkpt lat="45.74407" lon="6.57215">
        <ele>1208.8</ele>
        <time>2022-06-15T10:42:48Z</time>
      </trkpt>
      <trkpt lat="45.74415" lon="6.57223">
        <ele>1208.3</ele>
        <time>2022-06-15T10:42:49Z</time>
      </trkpt>
      <trkpt lat="45.74423" lon="6.57231">
        <ele>1207.7</ele>
        <time>2022-06-15T10:42:50Z</time>
      </trkpt>
      <trkpt lat="45.7443" lon="6.5724">
        <ele>1206.8</ele>
        <time>2022-06-15T10:42:51Z</time>
      </trkpt>
      <trkpt lat="45.74439" lon="6.57249">
        <ele>1205.9</ele>
        <time>2022-06-15T10:42:52Z</time>
      </trkpt>
      <trkpt lat="45.74447" lon="6.57258">
        <ele>1204.8</ele>
        <time>2022-06-15T10:42:53Z</time>
      </trkpt>
      <trkpt lat="45.74455" lon="6.57267">
        <ele>1203.6</ele>
        <time>2022-06-15T10:42:54Z</time>
      </trkpt>
      <trkpt lat="45.74464" lon="6.57275">
        <ele>1202.9</ele>
        <time>2022-06-15T10:42:55Z</time>
      </trkpt>
      <trkpt lat="45.74474" lon="6.57284">
        <ele>1201.8</ele>
        <time>2022-06-15T10:42:56Z</time>
      </trkpt>
      <trkpt lat="45.74484" lon="6.57292">
        <ele>1199.8</ele>
        <time>2022-06-15T10:42:57Z</time>
      </trkpt>
      <trkpt lat="45.74494" lon="6.57301">
        <ele>1198.3</ele>
        <time>2022-06-15T10:42:58Z</time>
      </trkpt>
      <trkpt lat="45.74505" lon="6.57311">
        <ele>1196.8</ele>
        <time>2022-06-15T10:42:59Z</time>
      </trkpt>
      <trkpt lat="45.74514" lon="6.57323">
        <ele>1195.3</ele>
        <time>2022-06-15T10:43:00Z</time>
      </trkpt>
      <trkpt lat="45.74522" lon="6.57334">
        <ele>1194.6</ele>
        <time>2022-06-15T10:43:01Z</time>
      </trkpt>
      <trkpt lat="45.74532" lon="6.57347">
        <ele>1193.4</ele>
        <time>2022-06-15T10:43:02Z</time>
      </trkpt>
      <trkpt lat="45.74542" lon="6.57358">
        <ele>1192.8</ele>
        <time>2022-06-15T10:43:03Z</time>
      </trkpt>
      <trkpt lat="45.74553" lon="6.5737">
        <ele>1193.6</ele>
        <time>2022-06-15T10:43:04Z</time>
      </trkpt>
      <trkpt lat="45.74563" lon="6.57381">
        <ele>1192.6</ele>
        <time>2022-06-15T10:43:05Z</time>
      </trkpt>
      <trkpt lat="45.74573" lon="6.57392">
        <ele>1191.5</ele>
        <time>2022-06-15T10:43:06Z</time>
      </trkpt>
      <trkpt lat="45.74582" lon="6.57403">
        <ele>1191.2</ele>
        <time>2022-06-15T10:43:07Z</time>
      </trkpt>
      <trkpt lat="45.74592" lon="6.57412">
        <ele>1190.9</ele>
        <time>2022-06-15T10:43:08Z</time>
      </trkpt>
      <trkpt lat="45.74603" lon="6.57419">
        <ele>1190.6</ele>
        <time>2022-06-15T10:43:09Z</time>
      </trkpt>
      <trkpt lat="45.74614" lon="6.57424">
        <ele>1190.5</ele>
        <time>2022-06-15T10:43:10Z</time>
      </trkpt>
      <trkpt lat="45.74626" lon="6.5743">
        <ele>1190.1</ele>
        <time>2022-06-15T10:43:11Z</time>
      </trkpt>
      <trkpt lat="45.74636" lon="6.57439">
        <ele>1190</ele>
        <time>2022-06-15T10:43:12Z</time>
      </trkpt>
      <trkpt lat="45.74643" lon="6.5745">
        <ele>1190.6</ele>
        <time>2022-06-15T10:43:13Z</time>
      </trkpt>
      <trkpt lat="45.74649" lon="6.5746">
        <ele>1191.1</ele>
        <time>2022-06-15T10:43:14Z</time>
      </trkpt>
      <trkpt lat="45.74655" lon="6.57469">
        <ele>1191.6</ele>
        <time>2022-06-15T10:43:15Z</time>
      </trkpt>
      <trkpt lat="45.7466" lon="6.57476">
        <ele>1192.1</ele>
        <time>2022-06-15T10:43:16Z</time>
      </trkpt>
      <trkpt lat="45.74666" lon="6.57482">
        <ele>1192.6</ele>
        <time>2022-06-15T10:43:17Z</time>
      </trkpt>
      <trkpt lat="45.74671" lon="6.57486">
        <ele>1193.1</ele>
        <time>2022-06-15T10:43:18Z</time>
      </trkpt>
      <trkpt lat="45.74675" lon="6.5749">
        <ele>1193.6</ele>
        <time>2022-06-15T10:43:19Z</time>
      </trkpt>
      <trkpt lat="45.74679" lon="6.57494">
        <ele>1194</ele>
        <time>2022-06-15T10:43:20Z</time>
      </trkpt>
      <trkpt lat="45.74683" lon="6.57497">
        <ele>1194.5</ele>
        <time>2022-06-15T10:43:21Z</time>
      </trkpt>
      <trkpt lat="45.74688" lon="6.575">
        <ele>1195.1</ele>
        <time>2022-06-15T10:43:22Z</time>
      </trkpt>
      <trkpt lat="45.74692" lon="6.57502">
        <ele>1195.7</ele>
        <time>2022-06-15T10:43:23Z</time>
      </trkpt>
      <trkpt lat="45.74695" lon="6.57504">
        <ele>1196.1</ele>
        <time>2022-06-15T10:43:24Z</time>
      </trkpt>
      <trkpt lat="45.74698" lon="6.57506">
        <ele>1196.3</ele>
        <time>2022-06-15T10:43:25Z</time>
      </trkpt>
      <trkpt lat="45.74701" lon="6.57509">
        <ele>1196.4</ele>
        <time>2022-06-15T10:43:26Z</time>
      </trkpt>
      <trkpt lat="45.74704" lon="6.5751">
        <ele>1196.7</ele>
        <time>2022-06-15T10:43:27Z</time>
      </trkpt>
      <trkpt lat="45.74707" lon="6.57512">
        <ele>1197</ele>
        <time>2022-06-15T10:43:28Z</time>
      </trkpt>
      <trkpt lat="45.7471" lon="6.57513">
        <ele>1197.2</ele>
        <time>2022-06-15T10:43:29Z</time>
      </trkpt>
      <trkpt lat="45.74712" lon="6.57515">
        <ele>1197.5</ele>
        <time>2022-06-15T10:43:30Z</time>
      </trkpt>
      <trkpt lat="45.74715" lon="6.57516">
        <ele>1197.8</ele>
        <time>2022-06-15T10:43:31Z</time>
      </trkpt>
      <trkpt lat="45.74718" lon="6.57518">
        <ele>1198.1</ele>
        <time>2022-06-15T10:43:32Z</time>
      </trkpt>
      <trkpt lat="45.7472" lon="6.57519">
        <ele>1198.4</ele>
        <time>2022-06-15T10:43:33Z</time>
      </trkpt>
      <trkpt lat="45.74723" lon="6.5752">
        <ele>1198.7</ele>
        <time>2022-06-15T10:43:34Z</time>
      </trkpt>
      <trkpt lat="45.74725" lon="6.57522">
        <ele>1198.9</ele>
        <time>2022-06-15T10:43:35Z</time>
      </trkpt>
      <trkpt lat="45.74727" lon="6.57523">
        <ele>1199.1</ele>
        <time>2022-06-15T10:43:36Z</time>
      </trkpt>
      <trkpt lat="45.7473" lon="6.57524">
        <ele>1199.4</ele>
        <time>2022-06-15T10:43:37Z</time>
      </trkpt>
      <trkpt lat="45.74732" lon="6.57525">
        <ele>1199.8</ele>
        <time>2022-06-15T10:43:38Z</time>
      </trkpt>
      <trkpt lat="45.74735" lon="6.57526">
        <ele>1200.1</ele>
        <time>2022-06-15T10:43:39Z</time>
      </trkpt>
      <trkpt lat="45.74737" lon="6.57527">
        <ele>1200.4</ele>
        <time>2022-06-15T10:43:40Z</time>
      </trkpt>
      <trkpt lat="45.74739" lon="6.57528">
        <ele>1200.7</ele>
        <time>2022-06-15T10:43:41Z</time>
      </trkpt>
      <trkpt lat="45.74741" lon="6.57529">
        <ele>1200.9</ele>
        <time>2022-06-15T10:43:42Z</time>
      </trkpt>
      <trkpt lat="45.74744" lon="6.5753">
        <ele>1201.1</ele>
        <time>2022-06-15T10:43:43Z</time>
      </trkpt>
      <trkpt lat="45.74746" lon="6.57531">
        <ele>1201.4</ele>
        <time>2022-06-15T10:43:44Z</time>
      </trkpt>
      <trkpt lat="45.74748" lon="6.57532">
        <ele>1201.6</ele>
        <time>2022-06-15T10:43:45Z</time>
      </trkpt>
      <trkpt lat="45.7475" lon="6.57533">
        <ele>1201.7</ele>
        <time>2022-06-15T10:43:46Z</time>
      </trkpt>
      <trkpt lat="45.74752" lon="6.57534">
        <ele>1201.9</ele>
        <time>2022-06-15T10:43:47Z</time>
      </trkpt>
      <trkpt lat="45.74754" lon="6.57536">
        <ele>1202</ele>
        <time>2022-06-15T10:43:48Z</time>
      </trkpt>
      <trkpt lat="45.74756" lon="6.57537">
        <ele>1202</ele>
        <time>2022-06-15T10:43:49Z</time>
      </trkpt>
      <trkpt lat="45.74758" lon="6.57539">
        <ele>1202.1</ele>
        <time>2022-06-15T10:43:50Z</time>
      </trkpt>
      <trkpt lat="45.7476" lon="6.5754">
        <ele>1202.2</ele>
        <time>2022-06-15T10:43:51Z</time>
      </trkpt>
      <trkpt lat="45.74762" lon="6.57541">
        <ele>1202.4</ele>
        <time>2022-06-15T10:43:52Z</time>
      </trkpt>
      <trkpt lat="45.74764" lon="6.57542">
        <ele>1202.6</ele>
        <time>2022-06-15T10:43:53Z</time>
      </trkpt>
      <trkpt lat="45.74766" lon="6.57542">
        <ele>1202.9</ele>
        <time>2022-06-15T10:43:54Z</time>
      </trkpt>
      <trkpt lat="45.74769" lon="6.57543">
        <ele>1203.1</ele>
        <time>2022-06-15T10:43:55Z</time>
      </trkpt>
      <trkpt lat="45.74771" lon="6.57544">
        <ele>1203.3</ele>
        <time>2022-06-15T10:43:56Z</time>
      </trkpt>
      <trkpt lat="45.74773" lon="6.57545">
        <ele>1203.4</ele>
        <time>2022-06-15T10:43:57Z</time>
      </trkpt>
      <trkpt lat="45.74775" lon="6.57546">
        <ele>1203.5</ele>
        <time>2022-06-15T10:43:58Z</time>
      </trkpt>
      <trkpt lat="45.74777" lon="6.57547">
        <ele>1203.7</ele>
        <time>2022-06-15T10:43:59Z</time>
      </trkpt>
      <trkpt lat="45.7478" lon="6.57548">
        <ele>1203.9</ele>
        <time>2022-06-15T10:44:00Z</time>
      </trkpt>
      <trkpt lat="45.74782" lon="6.57548">
        <ele>1204</ele>
        <time>2022-06-15T10:44:01Z</time>
      </trkpt>
      <trkpt lat="45.74784" lon="6.57549">
        <ele>1204.2</ele>
        <time>2022-06-15T10:44:02Z</time>
      </trkpt>
      <trkpt lat="45.74786" lon="6.5755">
        <ele>1204.4</ele>
        <time>2022-06-15T10:44:03Z</time>
      </trkpt>
      <trkpt lat="45.74788" lon="6.57551">
        <ele>1204.5</ele>
        <time>2022-06-15T10:44:04Z</time>
      </trkpt>
      <trkpt lat="45.74791" lon="6.57551">
        <ele>1204.7</ele>
        <time>2022-06-15T10:44:05Z</time>
      </trkpt>
      <trkpt lat="45.74793" lon="6.57552">
        <ele>1204.8</ele>
        <time>2022-06-15T10:44:06Z</time>
      </trkpt>
      <trkpt lat="45.74795" lon="6.57553">
        <ele>1204.9</ele>
        <time>2022-06-15T10:44:07Z</time>
      </trkpt>
      <trkpt lat="45.74797" lon="6.57554">
        <ele>1204.9</ele>
        <time>2022-06-15T10:44:08Z</time>
      </trkpt>
      <trkpt lat="45.748" lon="6.57555">
        <ele>1205.1</ele>
        <time>2022-06-15T10:44:09Z</time>
      </trkpt>
      <trkpt lat="45.74802" lon="6.57555">
        <ele>1205.4</ele>
        <time>2022-06-15T10:44:10Z</time>
      </trkpt>
      <trkpt lat="45.74804" lon="6.57556">
        <ele>1205.6</ele>
        <time>2022-06-15T10:44:11Z</time>
      </trkpt>
      <trkpt lat="45.74806" lon="6.57557">
        <ele>1205.8</ele>
        <time>2022-06-15T10:44:12Z</time>
      </trkpt>
      <trkpt lat="45.74808" lon="6.57558">
        <ele>1206.1</ele>
        <time>2022-06-15T10:44:13Z</time>
      </trkpt>
      <trkpt lat="45.74811" lon="6.57559">
        <ele>1206.3</ele>
        <time>2022-06-15T10:44:14Z</time>
      </trkpt>
      <trkpt lat="45.74813" lon="6.5756">
        <ele>1206.6</ele>
        <time>2022-06-15T10:44:15Z</time>
      </trkpt>
      <trkpt lat="45.74815" lon="6.57561">
        <ele>1206.9</ele>
        <time>2022-06-15T10:44:16Z</time>
      </trkpt>
      <trkpt lat="45.74817" lon="6.57561">
        <ele>1207.2</ele>
        <time>2022-06-15T10:44:17Z</time>
      </trkpt>
      <trkpt lat="45.74819" lon="6.57561">
        <ele>1207.5</ele>
        <time>2022-06-15T10:44:18Z</time>
      </trkpt>
      <trkpt lat="45.74821" lon="6.57562">
        <ele>1207.7</ele>
        <time>2022-06-15T10:44:19Z</time>
      </trkpt>
      <trkpt lat="45.74823" lon="6.57563">
        <ele>1208</ele>
        <time>2022-06-15T10:44:20Z</time>
      </trkpt>
      <trkpt lat="45.74825" lon="6.57563">
        <ele>1208.2</ele>
        <time>2022-06-15T10:44:21Z</time>
      </trkpt>
      <trkpt lat="45.74827" lon="6.57564">
        <ele>1208.4</ele>
        <time>2022-06-15T10:44:22Z</time>
      </trkpt>
      <trkpt lat="45.7483" lon="6.57565">
        <ele>1208.7</ele>
        <time>2022-06-15T10:44:23Z</time>
      </trkpt>
      <trkpt lat="45.74832" lon="6.57566">
        <ele>1208.8</ele>
        <time>2022-06-15T10:44:24Z</time>
      </trkpt>
      <trkpt lat="45.74834" lon="6.57567">
        <ele>1209</ele>
        <time>2022-06-15T10:44:25Z</time>
      </trkpt>
      <trkpt lat="45.74836" lon="6.57567">
        <ele>1209.3</ele>
        <time>2022-06-15T10:44:26Z</time>
      </trkpt>
      <trkpt lat="45.74838" lon="6.57568">
        <ele>1209.5</ele>
        <time>2022-06-15T10:44:27Z</time>
      </trkpt>
      <trkpt lat="45.7484" lon="6.57569">
        <ele>1209.7</ele>
        <time>2022-06-15T10:44:28Z</time>
      </trkpt>
      <trkpt lat="45.74842" lon="6.57571">
        <ele>1209.9</ele>
        <time>2022-06-15T10:44:29Z</time>
      </trkpt>
      <trkpt lat="45.74844" lon="6.57572">
        <ele>1209.9</ele>
        <time>2022-06-15T10:44:30Z</time>
      </trkpt>
      <trkpt lat="45.74846" lon="6.57574">
        <ele>1209.9</ele>
        <time>2022-06-15T10:44:31Z</time>
      </trkpt>
      <trkpt lat="45.74847" lon="6.57576">
        <ele>1209.9</ele>
        <time>2022-06-15T10:44:32Z</time>
      </trkpt>
      <trkpt lat="45.74849" lon="6.57577">
        <ele>1210</ele>
        <time>2022-06-15T10:44:33Z</time>
      </trkpt>
      <trkpt lat="45.74851" lon="6.57579">
        <ele>1210.1</ele>
        <time>2022-06-15T10:44:34Z</time>
      </trkpt>
      <trkpt lat="45.74853" lon="6.57581">
        <ele>1210.1</ele>
        <time>2022-06-15T10:44:35Z</time>
      </trkpt>
      <trkpt lat="45.74854" lon="6.57583">
        <ele>1210.1</ele>
        <time>2022-06-15T10:44:36Z</time>
      </trkpt>
      <trkpt lat="45.74856" lon="6.57585">
        <ele>1210.2</ele>
        <time>2022-06-15T10:44:37Z</time>
      </trkpt>
      <trkpt lat="45.74858" lon="6.57587">
        <ele>1210.4</ele>
        <time>2022-06-15T10:44:38Z</time>
      </trkpt>
      <trkpt lat="45.74859" lon="6.5759">
        <ele>1210.5</ele>
        <time>2022-06-15T10:44:39Z</time>
      </trkpt>
      <trkpt lat="45.74861" lon="6.57592">
        <ele>1210.7</ele>
        <time>2022-06-15T10:44:40Z</time>
      </trkpt>
      <trkpt lat="45.74862" lon="6.57594">
        <ele>1210.9</ele>
        <time>2022-06-15T10:44:41Z</time>
      </trkpt>
      <trkpt lat="45.74864" lon="6.57596">
        <ele>1211.1</ele>
        <time>2022-06-15T10:44:42Z</time>
      </trkpt>
      <trkpt lat="45.74866" lon="6.57598">
        <ele>1211.3</ele>
        <time>2022-06-15T10:44:43Z</time>
      </trkpt>
      <trkpt lat="45.74868" lon="6.576">
        <ele>1211.4</ele>
        <time>2022-06-15T10:44:44Z</time>
      </trkpt>
      <trkpt lat="45.74869" lon="6.57602">
        <ele>1211.6</ele>
        <time>2022-06-15T10:44:45Z</time>
      </trkpt>
      <trkpt lat="45.74871" lon="6.57603">
        <ele>1211.7</ele>
        <time>2022-06-15T10:44:46Z</time>
      </trkpt>
      <trkpt lat="45.74873" lon="6.57605">
        <ele>1211.8</ele>
        <time>2022-06-15T10:44:47Z</time>
      </trkpt>
      <trkpt lat="45.74873" lon="6.57605">
        <ele>1211.8</ele>
        <time>2022-06-15T10:44:48Z</time>
      </trkpt>
      <trkpt lat="45.74873" lon="6.57605">
        <ele>1211.8</ele>
        <time>2022-06-15T10:44:49Z</time>
      </trkpt>
      <trkpt lat="45.74873" lon="6.57605">
        <ele>1211.8</ele>
        <time>2022-06-15T10:44:50Z</time>
      </trkpt>
      <trkpt lat="45.74879" lon="6.57609">
        <ele>1212.3</ele>
        <time>2022-06-15T10:47:04Z</time>
      </trkpt>
      <trkpt lat="45.74881" lon="6.5761">
        <ele>1212.5</ele>
        <time>2022-06-15T10:47:05Z</time>
      </trkpt>
      <trkpt lat="45.74883" lon="6.57611">
        <ele>1212.7</ele>
        <time>2022-06-15T10:47:06Z</time>
      </trkpt>
      <trkpt lat="45.74885" lon="6.57612">
        <ele>1213</ele>
        <time>2022-06-15T10:47:07Z</time>
      </trkpt>
      <trkpt lat="45.74887" lon="6.57613">
        <ele>1213.2</ele>
        <time>2022-06-15T10:47:08Z</time>
      </trkpt>
      <trkpt lat="45.74889" lon="6.57614">
        <ele>1213.4</ele>
        <time>2022-06-15T10:47:09Z</time>
      </trkpt>
      <trkpt lat="45.74891" lon="6.57615">
        <ele>1213.6</ele>
        <time>2022-06-15T10:47:10Z</time>
      </trkpt>
      <trkpt lat="45.74893" lon="6.57616">
        <ele>1213.8</ele>
        <time>2022-06-15T10:47:11Z</time>
      </trkpt>
      <trkpt lat="45.74895" lon="6.57618">
        <ele>1213.9</ele>
        <time>2022-06-15T10:47:12Z</time>
      </trkpt>
      <trkpt lat="45.74897" lon="6.57619">
        <ele>1214</ele>
        <time>2022-06-15T10:47:13Z</time>
      </trkpt>
      <trkpt lat="45.74899" lon="6.5762">
        <ele>1214.3</ele>
        <time>2022-06-15T10:47:14Z</time>
      </trkpt>
      <trkpt lat="45.74901" lon="6.57621">
        <ele>1214.6</ele>
        <time>2022-06-15T10:47:15Z</time>
      </trkpt>
      <trkpt lat="45.74903" lon="6.57622">
        <ele>1215</ele>
        <time>2022-06-15T10:47:16Z</time>
      </trkpt>
      <trkpt lat="45.74905" lon="6.57623">
        <ele>1215.2</ele>
        <time>2022-06-15T10:47:17Z</time>
      </trkpt>
      <trkpt lat="45.74907" lon="6.57624">
        <ele>1215.4</ele>
        <time>2022-06-15T10:47:18Z</time>
      </trkpt>
      <trkpt lat="45.74909" lon="6.57625">
        <ele>1215.7</ele>
        <time>2022-06-15T10:47:19Z</time>
      </trkpt>
      <trkpt lat="45.74911" lon="6.57626">
        <ele>1215.9</ele>
        <time>2022-06-15T10:47:20Z</time>
      </trkpt>
      <trkpt lat="45.74913" lon="6.57627">
        <ele>1216.2</ele>
        <time>2022-06-15T10:47:21Z</time>
      </trkpt>
      <trkpt lat="45.74915" lon="6.57628">
        <ele>1216.5</ele>
        <time>2022-06-15T10:47:22Z</time>
      </trkpt>
      <trkpt lat="45.74917" lon="6.57628">
        <ele>1216.8</ele>
        <time>2022-06-15T10:47:23Z</time>
      </trkpt>
      <trkpt lat="45.74919" lon="6.57629">
        <ele>1217</ele>
        <time>2022-06-15T10:47:24Z</time>
      </trkpt>
      <trkpt lat="45.74921" lon="6.5763">
        <ele>1217.2</ele>
        <time>2022-06-15T10:47:25Z</time>
      </trkpt>
      <trkpt lat="45.74923" lon="6.57631">
        <ele>1217.4</ele>
        <time>2022-06-15T10:47:26Z</time>
      </trkpt>
      <trkpt lat="45.74925" lon="6.57631">
        <ele>1217.6</ele>
        <time>2022-06-15T10:47:27Z</time>
      </trkpt>
      <trkpt lat="45.74927" lon="6.57632">
        <ele>1217.8</ele>
        <time>2022-06-15T10:47:28Z</time>
      </trkpt>
      <trkpt lat="45.74929" lon="6.57632">
        <ele>1218.1</ele>
        <time>2022-06-15T10:47:29Z</time>
      </trkpt>
      <trkpt lat="45.74931" lon="6.57633">
        <ele>1218.4</ele>
        <time>2022-06-15T10:47:30Z</time>
      </trkpt>
      <trkpt lat="45.74933" lon="6.57633">
        <ele>1218.6</ele>
        <time>2022-06-15T10:47:31Z</time>
      </trkpt>
      <trkpt lat="45.74935" lon="6.57634">
        <ele>1218.7</ele>
        <time>2022-06-15T10:47:32Z</time>
      </trkpt>
      <trkpt lat="45.74937" lon="6.57635">
        <ele>1218.9</ele>
        <time>2022-06-15T10:47:33Z</time>
      </trkpt>
      <trkpt lat="45.74939" lon="6.57635">
        <ele>1219.1</ele>
        <time>2022-06-15T10:47:34Z</time>
      </trkpt>
      <trkpt lat="45.74941" lon="6.57636">
        <ele>1219.4</ele>
        <time>2022-06-15T10:47:35Z</time>
      </trkpt>
      <trkpt lat="45.74943" lon="6.57636">
        <ele>1219.6</ele>
        <time>2022-06-15T10:47:36Z</time>
      </trkpt>
      <trkpt lat="45.74945" lon="6.57637">
        <ele>1219.8</ele>
        <time>2022-06-15T10:47:37Z</time>
      </trkpt>
      <trkpt lat="45.74947" lon="6.57637">
        <ele>1219.9</ele>
        <time>2022-06-15T10:47:38Z</time>
      </trkpt>
      <trkpt lat="45.74949" lon="6.57638">
        <ele>1219.9</ele>
        <time>2022-06-15T10:47:39Z</time>
      </trkpt>
      <trkpt lat="45.74952" lon="6.57639">
        <ele>1220.1</ele>
        <time>2022-06-15T10:47:40Z</time>
      </trkpt>
      <trkpt lat="45.74954" lon="6.57639">
        <ele>1220.3</ele>
        <time>2022-06-15T10:47:41Z</time>
      </trkpt>
      <trkpt lat="45.74956" lon="6.57639">
        <ele>1220.6</ele>
        <time>2022-06-15T10:47:42Z</time>
      </trkpt>
      <trkpt lat="45.74958" lon="6.57639">
        <ele>1220.8</ele>
        <time>2022-06-15T10:47:43Z</time>
      </trkpt>
      <trkpt lat="45.7496" lon="6.5764">
        <ele>1221</ele>
        <time>2022-06-15T10:47:44Z</time>
      </trkpt>
      <trkpt lat="45.74962" lon="6.5764">
        <ele>1221.2</ele>
        <time>2022-06-15T10:47:45Z</time>
      </trkpt>
      <trkpt lat="45.74964" lon="6.57641">
        <ele>1221.2</ele>
        <time>2022-06-15T10:47:46Z</time>
      </trkpt>
      <trkpt lat="45.74966" lon="6.57642">
        <ele>1221.1</ele>
        <time>2022-06-15T10:47:47Z</time>
      </trkpt>
      <trkpt lat="45.74968" lon="6.57643">
        <ele>1221.1</ele>
        <time>2022-06-15T10:47:48Z</time>
      </trkpt>
      <trkpt lat="45.7497" lon="6.57644">
        <ele>1221.1</ele>
        <time>2022-06-15T10:47:49Z</time>
      </trkpt>
      <trkpt lat="45.74972" lon="6.57645">
        <ele>1221.2</ele>
        <time>2022-06-15T10:47:50Z</time>
      </trkpt>
      <trkpt lat="45.74974" lon="6.57646">
        <ele>1221.5</ele>
        <time>2022-06-15T10:47:51Z</time>
      </trkpt>
      <trkpt lat="45.74975" lon="6.57647">
        <ele>1221.7</ele>
        <time>2022-06-15T10:47:52Z</time>
      </trkpt>
      <trkpt lat="45.74977" lon="6.57648">
        <ele>1221.9</ele>
        <time>2022-06-15T10:47:53Z</time>
      </trkpt>
      <trkpt lat="45.74978" lon="6.57649">
        <ele>1221.9</ele>
        <time>2022-06-15T10:47:54Z</time>
      </trkpt>
      <trkpt lat="45.7498" lon="6.57651">
        <ele>1222.1</ele>
        <time>2022-06-15T10:47:55Z</time>
      </trkpt>
      <trkpt lat="45.74982" lon="6.57652">
        <ele>1222.2</ele>
        <time>2022-06-15T10:47:56Z</time>
      </trkpt>
      <trkpt lat="45.74984" lon="6.57653">
        <ele>1222.5</ele>
        <time>2022-06-15T10:47:57Z</time>
      </trkpt>
      <trkpt lat="45.74986" lon="6.57654">
        <ele>1222.8</ele>
        <time>2022-06-15T10:47:58Z</time>
      </trkpt>
      <trkpt lat="45.74988" lon="6.57655">
        <ele>1223.2</ele>
        <time>2022-06-15T10:47:59Z</time>
      </trkpt>
      <trkpt lat="45.7499" lon="6.57656">
        <ele>1223.6</ele>
        <time>2022-06-15T10:48:00Z</time>
      </trkpt>
      <trkpt lat="45.74992" lon="6.57657">
        <ele>1223.9</ele>
        <time>2022-06-15T10:48:01Z</time>
      </trkpt>
      <trkpt lat="45.74994" lon="6.57657">
        <ele>1224.3</ele>
        <time>2022-06-15T10:48:02Z</time>
      </trkpt>
      <trkpt lat="45.74996" lon="6.57658">
        <ele>1224.6</ele>
        <time>2022-06-15T10:48:03Z</time>
      </trkpt>
      <trkpt lat="45.74998" lon="6.57659">
        <ele>1224.8</ele>
        <time>2022-06-15T10:48:04Z</time>
      </trkpt>
      <trkpt lat="45.75" lon="6.57661">
        <ele>1225</ele>
        <time>2022-06-15T10:48:05Z</time>
      </trkpt>
      <trkpt lat="45.75002" lon="6.57661">
        <ele>1225.1</ele>
        <time>2022-06-15T10:48:06Z</time>
      </trkpt>
      <trkpt lat="45.75004" lon="6.57662">
        <ele>1225.1</ele>
        <time>2022-06-15T10:48:07Z</time>
      </trkpt>
      <trkpt lat="45.75006" lon="6.57663">
        <ele>1225.2</ele>
        <time>2022-06-15T10:48:08Z</time>
      </trkpt>
      <trkpt lat="45.75008" lon="6.57664">
        <ele>1225.1</ele>
        <time>2022-06-15T10:48:09Z</time>
      </trkpt>
      <trkpt lat="45.75009" lon="6.57665">
        <ele>1225.1</ele>
        <time>2022-06-15T10:48:10Z</time>
      </trkpt>
      <trkpt lat="45.75011" lon="6.57666">
        <ele>1225</ele>
        <time>2022-06-15T10:48:11Z</time>
      </trkpt>
      <trkpt lat="45.75013" lon="6.57667">
        <ele>1224.9</ele>
        <time>2022-06-15T10:48:12Z</time>
      </trkpt>
      <trkpt lat="45.75015" lon="6.57668">
        <ele>1224.8</ele>
        <time>2022-06-15T10:48:13Z</time>
      </trkpt>
      <trkpt lat="45.75017" lon="6.57669">
        <ele>1224.8</ele>
        <time>2022-06-15T10:48:14Z</time>
      </trkpt>
      <trkpt lat="45.75019" lon="6.57669">
        <ele>1224.8</ele>
        <time>2022-06-15T10:48:15Z</time>
      </trkpt>
      <trkpt lat="45.75021" lon="6.5767">
        <ele>1224.8</ele>
        <time>2022-06-15T10:48:16Z</time>
      </trkpt>
      <trkpt lat="45.75023" lon="6.57671">
        <ele>1224.9</ele>
        <time>2022-06-15T10:48:17Z</time>
      </trkpt>
      <trkpt lat="45.75025" lon="6.57671">
        <ele>1225.1</ele>
        <time>2022-06-15T10:48:18Z</time>
      </trkpt>
      <trkpt lat="45.75027" lon="6.57672">
        <ele>1225.1</ele>
        <time>2022-06-15T10:48:19Z</time>
      </trkpt>
      <trkpt lat="45.75029" lon="6.57672">
        <ele>1225.2</ele>
        <time>2022-06-15T10:48:20Z</time>
      </trkpt>
      <trkpt lat="45.75031" lon="6.57673">
        <ele>1225.3</ele>
        <time>2022-06-15T10:48:21Z</time>
      </trkpt>
      <trkpt lat="45.75033" lon="6.57674">
        <ele>1225.5</ele>
        <time>2022-06-15T10:48:22Z</time>
      </trkpt>
      <trkpt lat="45.75035" lon="6.57674">
        <ele>1225.6</ele>
        <time>2022-06-15T10:48:23Z</time>
      </trkpt>
      <trkpt lat="45.75037" lon="6.57675">
        <ele>1225.8</ele>
        <time>2022-06-15T10:48:24Z</time>
      </trkpt>
      <trkpt lat="45.75039" lon="6.57676">
        <ele>1226</ele>
        <time>2022-06-15T10:48:25Z</time>
      </trkpt>
      <trkpt lat="45.75041" lon="6.57676">
        <ele>1226.1</ele>
        <time>2022-06-15T10:48:26Z</time>
      </trkpt>
      <trkpt lat="45.75043" lon="6.57677">
        <ele>1226.3</ele>
        <time>2022-06-15T10:48:27Z</time>
      </trkpt>
      <trkpt lat="45.75045" lon="6.57678">
        <ele>1226.4</ele>
        <time>2022-06-15T10:48:28Z</time>
      </trkpt>
      <trkpt lat="45.75047" lon="6.57678">
        <ele>1226.7</ele>
        <time>2022-06-15T10:48:29Z</time>
      </trkpt>
      <trkpt lat="45.75049" lon="6.57678">
        <ele>1227</ele>
        <time>2022-06-15T10:48:30Z</time>
      </trkpt>
      <trkpt lat="45.75051" lon="6.57678">
        <ele>1227.4</ele>
        <time>2022-06-15T10:48:31Z</time>
      </trkpt>
      <trkpt lat="45.75053" lon="6.57678">
        <ele>1227.8</ele>
        <time>2022-06-15T10:48:32Z</time>
      </trkpt>
      <trkpt lat="45.75055" lon="6.57678">
        <ele>1228.2</ele>
        <time>2022-06-15T10:48:33Z</time>
      </trkpt>
      <trkpt lat="45.75058" lon="6.57678">
        <ele>1228.4</ele>
        <time>2022-06-15T10:48:34Z</time>
      </trkpt>
      <trkpt lat="45.7506" lon="6.57678">
        <ele>1228.6</ele>
        <time>2022-06-15T10:48:35Z</time>
      </trkpt>
      <trkpt lat="45.75062" lon="6.57678">
        <ele>1228.7</ele>
        <time>2022-06-15T10:48:36Z</time>
      </trkpt>
      <trkpt lat="45.75063" lon="6.57678">
        <ele>1228.8</ele>
        <time>2022-06-15T10:48:37Z</time>
      </trkpt>
      <trkpt lat="45.75065" lon="6.57678">
        <ele>1229</ele>
        <time>2022-06-15T10:48:38Z</time>
      </trkpt>
      <trkpt lat="45.75067" lon="6.57677">
        <ele>1229.4</ele>
        <time>2022-06-15T10:48:39Z</time>
      </trkpt>
      <trkpt lat="45.7507" lon="6.57676">
        <ele>1229.8</ele>
        <time>2022-06-15T10:48:40Z</time>
      </trkpt>
      <trkpt lat="45.75072" lon="6.57675">
        <ele>1230.3</ele>
        <time>2022-06-15T10:48:41Z</time>
      </trkpt>
      <trkpt lat="45.75075" lon="6.57674">
        <ele>1230.8</ele>
        <time>2022-06-15T10:48:42Z</time>
      </trkpt>
      <trkpt lat="45.75077" lon="6.57674">
        <ele>1231.1</ele>
        <time>2022-06-15T10:48:43Z</time>
      </trkpt>
      <trkpt lat="45.75079" lon="6.57674">
        <ele>1231.2</ele>
        <time>2022-06-15T10:48:44Z</time>
      </trkpt>
      <trkpt lat="45.75081" lon="6.57674">
        <ele>1231.1</ele>
        <time>2022-06-15T10:48:45Z</time>
      </trkpt>
      <trkpt lat="45.75083" lon="6.57675">
        <ele>1231</ele>
        <time>2022-06-15T10:48:46Z</time>
      </trkpt>
      <trkpt lat="45.75085" lon="6.57676">
        <ele>1231.4</ele>
        <time>2022-06-15T10:48:47Z</time>
      </trkpt>
      <trkpt lat="45.75087" lon="6.57677">
        <ele>1231.8</ele>
        <time>2022-06-15T10:48:48Z</time>
      </trkpt>
      <trkpt lat="45.7509" lon="6.57677">
        <ele>1232.5</ele>
        <time>2022-06-15T10:48:49Z</time>
      </trkpt>
      <trkpt lat="45.75092" lon="6.57679">
        <ele>1232.8</ele>
        <time>2022-06-15T10:48:50Z</time>
      </trkpt>
      <trkpt lat="45.75094" lon="6.5768">
        <ele>1233</ele>
        <time>2022-06-15T10:48:51Z</time>
      </trkpt>
      <trkpt lat="45.75096" lon="6.57682">
        <ele>1233.4</ele>
        <time>2022-06-15T10:48:52Z</time>
      </trkpt>
      <trkpt lat="45.75098" lon="6.57683">
        <ele>1233.7</ele>
        <time>2022-06-15T10:48:53Z</time>
      </trkpt>
      <trkpt lat="45.751" lon="6.57685">
        <ele>1234</ele>
        <time>2022-06-15T10:48:54Z</time>
      </trkpt>
      <trkpt lat="45.75102" lon="6.57686">
        <ele>1234.3</ele>
        <time>2022-06-15T10:48:55Z</time>
      </trkpt>
      <trkpt lat="45.75104" lon="6.57688">
        <ele>1234.6</ele>
        <time>2022-06-15T10:48:56Z</time>
      </trkpt>
      <trkpt lat="45.75107" lon="6.57689">
        <ele>1234.9</ele>
        <time>2022-06-15T10:48:57Z</time>
      </trkpt>
      <trkpt lat="45.75108" lon="6.57691">
        <ele>1235</ele>
        <time>2022-06-15T10:48:58Z</time>
      </trkpt>
      <trkpt lat="45.7511" lon="6.57693">
        <ele>1235</ele>
        <time>2022-06-15T10:48:59Z</time>
      </trkpt>
      <trkpt lat="45.75112" lon="6.57695">
        <ele>1235.2</ele>
        <time>2022-06-15T10:49:00Z</time>
      </trkpt>
      <trkpt lat="45.75114" lon="6.57697">
        <ele>1235.4</ele>
        <time>2022-06-15T10:49:01Z</time>
      </trkpt>
      <trkpt lat="45.75116" lon="6.57699">
        <ele>1235.7</ele>
        <time>2022-06-15T10:49:02Z</time>
      </trkpt>
      <trkpt lat="45.75117" lon="6.57701">
        <ele>1235.8</ele>
        <time>2022-06-15T10:49:03Z</time>
      </trkpt>
      <trkpt lat="45.75119" lon="6.57703">
        <ele>1236</ele>
        <time>2022-06-15T10:49:04Z</time>
      </trkpt>
      <trkpt lat="45.7512" lon="6.57705">
        <ele>1236.1</ele>
        <time>2022-06-15T10:49:05Z</time>
      </trkpt>
      <trkpt lat="45.75122" lon="6.57708">
        <ele>1236.3</ele>
        <time>2022-06-15T10:49:06Z</time>
      </trkpt>
      <trkpt lat="45.75123" lon="6.5771">
        <ele>1236.3</ele>
        <time>2022-06-15T10:49:07Z</time>
      </trkpt>
      <trkpt lat="45.75125" lon="6.57713">
        <ele>1236.4</ele>
        <time>2022-06-15T10:49:08Z</time>
      </trkpt>
      <trkpt lat="45.75126" lon="6.57715">
        <ele>1236.3</ele>
        <time>2022-06-15T10:49:09Z</time>
      </trkpt>
      <trkpt lat="45.75127" lon="6.57718">
        <ele>1236.2</ele>
        <time>2022-06-15T10:49:10Z</time>
      </trkpt>
      <trkpt lat="45.75128" lon="6.57721">
        <ele>1236.2</ele>
        <time>2022-06-15T10:49:11Z</time>
      </trkpt>
      <trkpt lat="45.75129" lon="6.57723">
        <ele>1236.2</ele>
        <time>2022-06-15T10:49:12Z</time>
      </trkpt>
      <trkpt lat="45.7513" lon="6.57726">
        <ele>1236.5</ele>
        <time>2022-06-15T10:49:13Z</time>
      </trkpt>
      <trkpt lat="45.7513" lon="6.57729">
        <ele>1236.7</ele>
        <time>2022-06-15T10:49:14Z</time>
      </trkpt>
      <trkpt lat="45.75131" lon="6.57732">
        <ele>1237</ele>
        <time>2022-06-15T10:49:15Z</time>
      </trkpt>
      <trkpt lat="45.75132" lon="6.57735">
        <ele>1237.1</ele>
        <time>2022-06-15T10:49:16Z</time>
      </trkpt>
      <trkpt lat="45.75132" lon="6.57738">
        <ele>1237.3</ele>
        <time>2022-06-15T10:49:17Z</time>
      </trkpt>
      <trkpt lat="45.75133" lon="6.57741">
        <ele>1237.6</ele>
        <time>2022-06-15T10:49:18Z</time>
      </trkpt>
      <trkpt lat="45.75134" lon="6.57743">
        <ele>1237.9</ele>
        <time>2022-06-15T10:49:19Z</time>
      </trkpt>
      <trkpt lat="45.75135" lon="6.57746">
        <ele>1238.2</ele>
        <time>2022-06-15T10:49:20Z</time>
      </trkpt>
      <trkpt lat="45.75135" lon="6.57749">
        <ele>1238.5</ele>
        <time>2022-06-15T10:49:21Z</time>
      </trkpt>
      <trkpt lat="45.75136" lon="6.57751">
        <ele>1238.6</ele>
        <time>2022-06-15T10:49:22Z</time>
      </trkpt>
      <trkpt lat="45.75137" lon="6.57754">
        <ele>1238.8</ele>
        <time>2022-06-15T10:49:23Z</time>
      </trkpt>
      <trkpt lat="45.75138" lon="6.57756">
        <ele>1239</ele>
        <time>2022-06-15T10:49:24Z</time>
      </trkpt>
      <trkpt lat="45.75139" lon="6.57759">
        <ele>1239.2</ele>
        <time>2022-06-15T10:49:25Z</time>
      </trkpt>
      <trkpt lat="45.75141" lon="6.57761">
        <ele>1239.3</ele>
        <time>2022-06-15T10:49:26Z</time>
      </trkpt>
      <trkpt lat="45.75142" lon="6.57763">
        <ele>1239.5</ele>
        <time>2022-06-15T10:49:27Z</time>
      </trkpt>
      <trkpt lat="45.75144" lon="6.57765">
        <ele>1239.7</ele>
        <time>2022-06-15T10:49:28Z</time>
      </trkpt>
      <trkpt lat="45.75145" lon="6.57767">
        <ele>1239.8</ele>
        <time>2022-06-15T10:49:29Z</time>
      </trkpt>
      <trkpt lat="45.75147" lon="6.57768">
        <ele>1240</ele>
        <time>2022-06-15T10:49:30Z</time>
      </trkpt>
      <trkpt lat="45.75148" lon="6.5777">
        <ele>1240.2</ele>
        <time>2022-06-15T10:49:31Z</time>
      </trkpt>
      <trkpt lat="45.7515" lon="6.57771">
        <ele>1240.5</ele>
        <time>2022-06-15T10:49:32Z</time>
      </trkpt>
      <trkpt lat="45.75152" lon="6.57772">
        <ele>1240.7</ele>
        <time>2022-06-15T10:49:33Z</time>
      </trkpt>
      <trkpt lat="45.75154" lon="6.57773">
        <ele>1241</ele>
        <time>2022-06-15T10:49:34Z</time>
      </trkpt>
      <trkpt lat="45.75156" lon="6.57774">
        <ele>1241.2</ele>
        <time>2022-06-15T10:49:35Z</time>
      </trkpt>
      <trkpt lat="45.75157" lon="6.57775">
        <ele>1241.4</ele>
        <time>2022-06-15T10:49:36Z</time>
      </trkpt>
      <trkpt lat="45.75159" lon="6.57776">
        <ele>1241.7</ele>
        <time>2022-06-15T10:49:37Z</time>
      </trkpt>
      <trkpt lat="45.75162" lon="6.57777">
        <ele>1242</ele>
        <time>2022-06-15T10:49:38Z</time>
      </trkpt>
      <trkpt lat="45.75164" lon="6.57778">
        <ele>1242.2</ele>
        <time>2022-06-15T10:49:39Z</time>
      </trkpt>
      <trkpt lat="45.75166" lon="6.57779">
        <ele>1242.3</ele>
        <time>2022-06-15T10:49:40Z</time>
      </trkpt>
      <trkpt lat="45.75168" lon="6.57781">
        <ele>1242.2</ele>
        <time>2022-06-15T10:49:41Z</time>
      </trkpt>
      <trkpt lat="45.7517" lon="6.57782">
        <ele>1242.1</ele>
        <time>2022-06-15T10:49:42Z</time>
      </trkpt>
      <trkpt lat="45.75172" lon="6.57783">
        <ele>1241.9</ele>
        <time>2022-06-15T10:49:43Z</time>
      </trkpt>
      <trkpt lat="45.75174" lon="6.57784">
        <ele>1241.8</ele>
        <time>2022-06-15T10:49:44Z</time>
      </trkpt>
      <trkpt lat="45.75176" lon="6.57785">
        <ele>1241.9</ele>
        <time>2022-06-15T10:49:45Z</time>
      </trkpt>
      <trkpt lat="45.75178" lon="6.57785">
        <ele>1241.9</ele>
        <time>2022-06-15T10:49:46Z</time>
      </trkpt>
      <trkpt lat="45.7518" lon="6.57786">
        <ele>1242</ele>
        <time>2022-06-15T10:49:47Z</time>
      </trkpt>
      <trkpt lat="45.75182" lon="6.57786">
        <ele>1242.1</ele>
        <time>2022-06-15T10:49:48Z</time>
      </trkpt>
      <trkpt lat="45.75184" lon="6.57786">
        <ele>1242.3</ele>
        <time>2022-06-15T10:49:49Z</time>
      </trkpt>
      <trkpt lat="45.75186" lon="6.57786">
        <ele>1242.8</ele>
        <time>2022-06-15T10:49:50Z</time>
      </trkpt>
      <trkpt lat="45.75188" lon="6.57784">
        <ele>1243.5</ele>
        <time>2022-06-15T10:49:51Z</time>
      </trkpt>
      <trkpt lat="45.7519" lon="6.57782">
        <ele>1244.3</ele>
        <time>2022-06-15T10:49:52Z</time>
      </trkpt>
      <trkpt lat="45.75191" lon="6.5778">
        <ele>1245.1</ele>
        <time>2022-06-15T10:49:53Z</time>
      </trkpt>
      <trkpt lat="45.75192" lon="6.57777">
        <ele>1246</ele>
        <time>2022-06-15T10:49:54Z</time>
      </trkpt>
      <trkpt lat="45.75193" lon="6.57774">
        <ele>1246.9</ele>
        <time>2022-06-15T10:49:55Z</time>
      </trkpt>
      <trkpt lat="45.75193" lon="6.57771">
        <ele>1247.6</ele>
        <time>2022-06-15T10:49:56Z</time>
      </trkpt>
      <trkpt lat="45.75192" lon="6.57768">
        <ele>1248.3</ele>
        <time>2022-06-15T10:49:57Z</time>
      </trkpt>
      <trkpt lat="45.75192" lon="6.57765">
        <ele>1248.8</ele>
        <time>2022-06-15T10:49:58Z</time>
      </trkpt>
      <trkpt lat="45.7519" lon="6.57763">
        <ele>1249.3</ele>
        <time>2022-06-15T10:49:59Z</time>
      </trkpt>
      <trkpt lat="45.75189" lon="6.57761">
        <ele>1249.6</ele>
        <time>2022-06-15T10:50:00Z</time>
      </trkpt>
      <trkpt lat="45.75187" lon="6.57759">
        <ele>1249.7</ele>
        <time>2022-06-15T10:50:01Z</time>
      </trkpt>
      <trkpt lat="45.75184" lon="6.57758">
        <ele>1249.7</ele>
        <time>2022-06-15T10:50:02Z</time>
      </trkpt>
      <trkpt lat="45.75182" lon="6.57757">
        <ele>1249.6</ele>
        <time>2022-06-15T10:50:03Z</time>
      </trkpt>
      <trkpt lat="45.7518" lon="6.57756">
        <ele>1249.6</ele>
        <time>2022-06-15T10:50:04Z</time>
      </trkpt>
      <trkpt lat="45.75178" lon="6.57755">
        <ele>1249.6</ele>
        <time>2022-06-15T10:50:05Z</time>
      </trkpt>
      <trkpt lat="45.75176" lon="6.57754">
        <ele>1249.5</ele>
        <time>2022-06-15T10:50:06Z</time>
      </trkpt>
      <trkpt lat="45.75174" lon="6.57753">
        <ele>1249.5</ele>
        <time>2022-06-15T10:50:07Z</time>
      </trkpt>
      <trkpt lat="45.75172" lon="6.57752">
        <ele>1249.3</ele>
        <time>2022-06-15T10:50:08Z</time>
      </trkpt>
      <trkpt lat="45.7517" lon="6.57751">
        <ele>1249.2</ele>
        <time>2022-06-15T10:50:09Z</time>
      </trkpt>
      <trkpt lat="45.75168" lon="6.5775">
        <ele>1249.2</ele>
        <time>2022-06-15T10:50:10Z</time>
      </trkpt>
      <trkpt lat="45.75166" lon="6.57748">
        <ele>1249</ele>
        <time>2022-06-15T10:50:11Z</time>
      </trkpt>
      <trkpt lat="45.75165" lon="6.57745">
        <ele>1248.9</ele>
        <time>2022-06-15T10:50:12Z</time>
      </trkpt>
      <trkpt lat="45.75165" lon="6.57742">
        <ele>1249</ele>
        <time>2022-06-15T10:50:13Z</time>
      </trkpt>
      <trkpt lat="45.75165" lon="6.57738">
        <ele>1249.2</ele>
        <time>2022-06-15T10:50:14Z</time>
      </trkpt>
      <trkpt lat="45.75165" lon="6.57735">
        <ele>1249.3</ele>
        <time>2022-06-15T10:50:15Z</time>
      </trkpt>
      <trkpt lat="45.75164" lon="6.57732">
        <ele>1249.4</ele>
        <time>2022-06-15T10:50:16Z</time>
      </trkpt>
      <trkpt lat="45.75164" lon="6.57729">
        <ele>1249.6</ele>
        <time>2022-06-15T10:50:17Z</time>
      </trkpt>
      <trkpt lat="45.75164" lon="6.57725">
        <ele>1249.7</ele>
        <time>2022-06-15T10:50:18Z</time>
      </trkpt>
      <trkpt lat="45.75164" lon="6.57722">
        <ele>1249.9</ele>
        <time>2022-06-15T10:50:19Z</time>
      </trkpt>
      <trkpt lat="45.75164" lon="6.57719">
        <ele>1250.1</ele>
        <time>2022-06-15T10:50:20Z</time>
      </trkpt>
      <trkpt lat="45.75164" lon="6.57716">
        <ele>1250.2</ele>
        <time>2022-06-15T10:50:21Z</time>
      </trkpt>
      <trkpt lat="45.75164" lon="6.57711">
        <ele>1250.3</ele>
        <time>2022-06-15T10:50:22Z</time>
      </trkpt>
      <trkpt lat="45.75163" lon="6.57707">
        <ele>1250.4</ele>
        <time>2022-06-15T10:50:23Z</time>
      </trkpt>
      <trkpt lat="45.75163" lon="6.57704">
        <ele>1250.5</ele>
        <time>2022-06-15T10:50:24Z</time>
      </trkpt>
      <trkpt lat="45.75163" lon="6.57701">
        <ele>1250.6</ele>
        <time>2022-06-15T10:50:25Z</time>
      </trkpt>
      <trkpt lat="45.75163" lon="6.57697">
        <ele>1250.7</ele>
        <time>2022-06-15T10:50:26Z</time>
      </trkpt>
      <trkpt lat="45.75162" lon="6.57694">
        <ele>1250.7</ele>
        <time>2022-06-15T10:50:27Z</time>
      </trkpt>
      <trkpt lat="45.75161" lon="6.57691">
        <ele>1251.5</ele>
        <time>2022-06-15T10:50:28Z</time>
      </trkpt>
      <trkpt lat="45.7516" lon="6.57687">
        <ele>1252.2</ele>
        <time>2022-06-15T10:50:29Z</time>
      </trkpt>
      <trkpt lat="45.75159" lon="6.57684">
        <ele>1252.8</ele>
        <time>2022-06-15T10:50:30Z</time>
      </trkpt>
      <trkpt lat="45.75158" lon="6.57681">
        <ele>1253.4</ele>
        <time>2022-06-15T10:50:31Z</time>
      </trkpt>
      <trkpt lat="45.75156" lon="6.57677">
        <ele>1253.9</ele>
        <time>2022-06-15T10:50:32Z</time>
      </trkpt>
      <trkpt lat="45.75154" lon="6.57674">
        <ele>1254.2</ele>
        <time>2022-06-15T10:50:33Z</time>
      </trkpt>
      <trkpt lat="45.75152" lon="6.57671">
        <ele>1254.5</ele>
        <time>2022-06-15T10:50:34Z</time>
      </trkpt>
      <trkpt lat="45.7515" lon="6.57669">
        <ele>1254.7</ele>
        <time>2022-06-15T10:50:35Z</time>
      </trkpt>
      <trkpt lat="45.75149" lon="6.57666">
        <ele>1254.9</ele>
        <time>2022-06-15T10:50:36Z</time>
      </trkpt>
      <trkpt lat="45.75147" lon="6.57664">
        <ele>1254.9</ele>
        <time>2022-06-15T10:50:37Z</time>
      </trkpt>
      <trkpt lat="45.75145" lon="6.57661">
        <ele>1255.1</ele>
        <time>2022-06-15T10:50:38Z</time>
      </trkpt>
      <trkpt lat="45.75143" lon="6.57658">
        <ele>1255.1</ele>
        <time>2022-06-15T10:50:39Z</time>
      </trkpt>
      <trkpt lat="45.75141" lon="6.57655">
        <ele>1255.2</ele>
        <time>2022-06-15T10:50:40Z</time>
      </trkpt>
      <trkpt lat="45.7514" lon="6.57653">
        <ele>1255.2</ele>
        <time>2022-06-15T10:50:41Z</time>
      </trkpt>
      <trkpt lat="45.75138" lon="6.5765">
        <ele>1255.2</ele>
        <time>2022-06-15T10:50:42Z</time>
      </trkpt>
      <trkpt lat="45.75136" lon="6.57648">
        <ele>1255.4</ele>
        <time>2022-06-15T10:50:43Z</time>
      </trkpt>
      <trkpt lat="45.75134" lon="6.57645">
        <ele>1255.7</ele>
        <time>2022-06-15T10:50:44Z</time>
      </trkpt>
      <trkpt lat="45.75133" lon="6.57642">
        <ele>1255.9</ele>
        <time>2022-06-15T10:50:45Z</time>
      </trkpt>
      <trkpt lat="45.75131" lon="6.5764">
        <ele>1256.1</ele>
        <time>2022-06-15T10:50:46Z</time>
      </trkpt>
      <trkpt lat="45.75129" lon="6.57637">
        <ele>1256.4</ele>
        <time>2022-06-15T10:50:47Z</time>
      </trkpt>
      <trkpt lat="45.75127" lon="6.57634">
        <ele>1256.7</ele>
        <time>2022-06-15T10:50:48Z</time>
      </trkpt>
      <trkpt lat="45.75125" lon="6.57632">
        <ele>1256.9</ele>
        <time>2022-06-15T10:50:49Z</time>
      </trkpt>
      <trkpt lat="45.75124" lon="6.5763">
        <ele>1257.2</ele>
        <time>2022-06-15T10:50:50Z</time>
      </trkpt>
      <trkpt lat="45.75122" lon="6.57628">
        <ele>1257.4</ele>
        <time>2022-06-15T10:50:51Z</time>
      </trkpt>
      <trkpt lat="45.7512" lon="6.57625">
        <ele>1257.5</ele>
        <time>2022-06-15T10:50:52Z</time>
      </trkpt>
      <trkpt lat="45.75119" lon="6.57623">
        <ele>1257.7</ele>
        <time>2022-06-15T10:50:53Z</time>
      </trkpt>
      <trkpt lat="45.75117" lon="6.57621">
        <ele>1257.8</ele>
        <time>2022-06-15T10:50:54Z</time>
      </trkpt>
      <trkpt lat="45.75115" lon="6.57619">
        <ele>1257.9</ele>
        <time>2022-06-15T10:50:55Z</time>
      </trkpt>
      <trkpt lat="45.75114" lon="6.57617">
        <ele>1258.1</ele>
        <time>2022-06-15T10:50:56Z</time>
      </trkpt>
      <trkpt lat="45.75112" lon="6.57615">
        <ele>1258.2</ele>
        <time>2022-06-15T10:50:57Z</time>
      </trkpt>
      <trkpt lat="45.7511" lon="6.57613">
        <ele>1258.5</ele>
        <time>2022-06-15T10:50:58Z</time>
      </trkpt>
      <trkpt lat="45.75109" lon="6.57611">
        <ele>1258.9</ele>
        <time>2022-06-15T10:50:59Z</time>
      </trkpt>
      <trkpt lat="45.75107" lon="6.57609">
        <ele>1259.6</ele>
        <time>2022-06-15T10:51:00Z</time>
      </trkpt>
      <trkpt lat="45.75106" lon="6.57607">
        <ele>1260.3</ele>
        <time>2022-06-15T10:51:01Z</time>
      </trkpt>
      <trkpt lat="45.75104" lon="6.57605">
        <ele>1260.9</ele>
        <time>2022-06-15T10:51:02Z</time>
      </trkpt>
      <trkpt lat="45.75103" lon="6.57603">
        <ele>1261.5</ele>
        <time>2022-06-15T10:51:03Z</time>
      </trkpt>
      <trkpt lat="45.75101" lon="6.57602">
        <ele>1261.7</ele>
        <time>2022-06-15T10:51:04Z</time>
      </trkpt>
      <trkpt lat="45.75099" lon="6.57601">
        <ele>1262</ele>
        <time>2022-06-15T10:51:05Z</time>
      </trkpt>
      <trkpt lat="45.75097" lon="6.576">
        <ele>1262.1</ele>
        <time>2022-06-15T10:51:06Z</time>
      </trkpt>
      <trkpt lat="45.75095" lon="6.57599">
        <ele>1262.3</ele>
        <time>2022-06-15T10:51:07Z</time>
      </trkpt>
      <trkpt lat="45.75092" lon="6.57599">
        <ele>1262.4</ele>
        <time>2022-06-15T10:51:08Z</time>
      </trkpt>
      <trkpt lat="45.7509" lon="6.57598">
        <ele>1262.5</ele>
        <time>2022-06-15T10:51:09Z</time>
      </trkpt>
      <trkpt lat="45.75088" lon="6.57597">
        <ele>1262.8</ele>
        <time>2022-06-15T10:51:10Z</time>
      </trkpt>
      <trkpt lat="45.75086" lon="6.57596">
        <ele>1263.1</ele>
        <time>2022-06-15T10:51:11Z</time>
      </trkpt>
      <trkpt lat="45.75084" lon="6.57596">
        <ele>1263.2</ele>
        <time>2022-06-15T10:51:12Z</time>
      </trkpt>
      <trkpt lat="45.75082" lon="6.57595">
        <ele>1263.2</ele>
        <time>2022-06-15T10:51:13Z</time>
      </trkpt>
      <trkpt lat="45.75079" lon="6.57594">
        <ele>1263.1</ele>
        <time>2022-06-15T10:51:14Z</time>
      </trkpt>
      <trkpt lat="45.75077" lon="6.57594">
        <ele>1263</ele>
        <time>2022-06-15T10:51:15Z</time>
      </trkpt>
      <trkpt lat="45.75075" lon="6.57593">
        <ele>1263</ele>
        <time>2022-06-15T10:51:16Z</time>
      </trkpt>
      <trkpt lat="45.75073" lon="6.57592">
        <ele>1263.1</ele>
        <time>2022-06-15T10:51:17Z</time>
      </trkpt>
      <trkpt lat="45.75071" lon="6.5759">
        <ele>1263.2</ele>
        <time>2022-06-15T10:51:18Z</time>
      </trkpt>
      <trkpt lat="45.75069" lon="6.57589">
        <ele>1263.3</ele>
        <time>2022-06-15T10:51:19Z</time>
      </trkpt>
      <trkpt lat="45.75066" lon="6.57588">
        <ele>1263.4</ele>
        <time>2022-06-15T10:51:20Z</time>
      </trkpt>
      <trkpt lat="45.75064" lon="6.57587">
        <ele>1263.5</ele>
        <time>2022-06-15T10:51:21Z</time>
      </trkpt>
      <trkpt lat="45.75062" lon="6.57585">
        <ele>1263.7</ele>
        <time>2022-06-15T10:51:22Z</time>
      </trkpt>
      <trkpt lat="45.75061" lon="6.57583">
        <ele>1263.9</ele>
        <time>2022-06-15T10:51:23Z</time>
      </trkpt>
      <trkpt lat="45.75059" lon="6.57582">
        <ele>1263.9</ele>
        <time>2022-06-15T10:51:24Z</time>
      </trkpt>
      <trkpt lat="45.75057" lon="6.57581">
        <ele>1264</ele>
        <time>2022-06-15T10:51:25Z</time>
      </trkpt>
      <trkpt lat="45.75055" lon="6.57579">
        <ele>1264</ele>
        <time>2022-06-15T10:51:26Z</time>
      </trkpt>
      <trkpt lat="45.75053" lon="6.57577">
        <ele>1264</ele>
        <time>2022-06-15T10:51:27Z</time>
      </trkpt>
      <trkpt lat="45.75051" lon="6.57575">
        <ele>1264.2</ele>
        <time>2022-06-15T10:51:28Z</time>
      </trkpt>
      <trkpt lat="45.75049" lon="6.57573">
        <ele>1264.4</ele>
        <time>2022-06-15T10:51:29Z</time>
      </trkpt>
      <trkpt lat="45.75047" lon="6.57571">
        <ele>1264.6</ele>
        <time>2022-06-15T10:51:30Z</time>
      </trkpt>
      <trkpt lat="45.75045" lon="6.57569">
        <ele>1264.7</ele>
        <time>2022-06-15T10:51:31Z</time>
      </trkpt>
      <trkpt lat="45.75044" lon="6.57567">
        <ele>1264.9</ele>
        <time>2022-06-15T10:51:32Z</time>
      </trkpt>
      <trkpt lat="45.75042" lon="6.57565">
        <ele>1265.3</ele>
        <time>2022-06-15T10:51:33Z</time>
      </trkpt>
      <trkpt lat="45.75041" lon="6.57562">
        <ele>1265.8</ele>
        <time>2022-06-15T10:51:34Z</time>
      </trkpt>
      <trkpt lat="45.75039" lon="6.5756">
        <ele>1266.2</ele>
        <time>2022-06-15T10:51:35Z</time>
      </trkpt>
      <trkpt lat="45.75038" lon="6.57558">
        <ele>1266.4</ele>
        <time>2022-06-15T10:51:36Z</time>
      </trkpt>
      <trkpt lat="45.75036" lon="6.57556">
        <ele>1266.7</ele>
        <time>2022-06-15T10:51:37Z</time>
      </trkpt>
      <trkpt lat="45.75034" lon="6.57554">
        <ele>1266.8</ele>
        <time>2022-06-15T10:51:38Z</time>
      </trkpt>
      <trkpt lat="45.75033" lon="6.57552">
        <ele>1267.1</ele>
        <time>2022-06-15T10:51:39Z</time>
      </trkpt>
      <trkpt lat="45.75031" lon="6.57549">
        <ele>1267.3</ele>
        <time>2022-06-15T10:51:40Z</time>
      </trkpt>
      <trkpt lat="45.7503" lon="6.57547">
        <ele>1267.5</ele>
        <time>2022-06-15T10:51:41Z</time>
      </trkpt>
      <trkpt lat="45.75029" lon="6.57544">
        <ele>1267.7</ele>
        <time>2022-06-15T10:51:42Z</time>
      </trkpt>
      <trkpt lat="45.75028" lon="6.57542">
        <ele>1267.9</ele>
        <time>2022-06-15T10:51:43Z</time>
      </trkpt>
      <trkpt lat="45.75026" lon="6.57539">
        <ele>1268</ele>
        <time>2022-06-15T10:51:44Z</time>
      </trkpt>
      <trkpt lat="45.75025" lon="6.57537">
        <ele>1268.1</ele>
        <time>2022-06-15T10:51:45Z</time>
      </trkpt>
      <trkpt lat="45.75024" lon="6.57534">
        <ele>1268.3</ele>
        <time>2022-06-15T10:51:46Z</time>
      </trkpt>
      <trkpt lat="45.75023" lon="6.57532">
        <ele>1268.5</ele>
        <time>2022-06-15T10:51:47Z</time>
      </trkpt>
      <trkpt lat="45.75022" lon="6.57529">
        <ele>1268.6</ele>
        <time>2022-06-15T10:51:48Z</time>
      </trkpt>
      <trkpt lat="45.75021" lon="6.57527">
        <ele>1268.9</ele>
        <time>2022-06-15T10:51:49Z</time>
      </trkpt>
      <trkpt lat="45.7502" lon="6.57524">
        <ele>1269.4</ele>
        <time>2022-06-15T10:51:50Z</time>
      </trkpt>
      <trkpt lat="45.75019" lon="6.57522">
        <ele>1269.8</ele>
        <time>2022-06-15T10:51:51Z</time>
      </trkpt>
      <trkpt lat="45.75018" lon="6.57519">
        <ele>1270.2</ele>
        <time>2022-06-15T10:51:52Z</time>
      </trkpt>
      <trkpt lat="45.75017" lon="6.57516">
        <ele>1270.6</ele>
        <time>2022-06-15T10:51:53Z</time>
      </trkpt>
      <trkpt lat="45.75015" lon="6.57514">
        <ele>1270.8</ele>
        <time>2022-06-15T10:51:54Z</time>
      </trkpt>
      <trkpt lat="45.75014" lon="6.57512">
        <ele>1271.1</ele>
        <time>2022-06-15T10:51:55Z</time>
      </trkpt>
      <trkpt lat="45.75012" lon="6.57509">
        <ele>1271.2</ele>
        <time>2022-06-15T10:51:56Z</time>
      </trkpt>
      <trkpt lat="45.7501" lon="6.57507">
        <ele>1271.5</ele>
        <time>2022-06-15T10:51:57Z</time>
      </trkpt>
      <trkpt lat="45.75008" lon="6.57505">
        <ele>1271.5</ele>
        <time>2022-06-15T10:51:58Z</time>
      </trkpt>
      <trkpt lat="45.75006" lon="6.57504">
        <ele>1271.5</ele>
        <time>2022-06-15T10:51:59Z</time>
      </trkpt>
      <trkpt lat="45.75005" lon="6.57502">
        <ele>1271.5</ele>
        <time>2022-06-15T10:52:00Z</time>
      </trkpt>
      <trkpt lat="45.75003" lon="6.57501">
        <ele>1271.5</ele>
        <time>2022-06-15T10:52:01Z</time>
      </trkpt>
      <trkpt lat="45.75001" lon="6.57499">
        <ele>1271.6</ele>
        <time>2022-06-15T10:52:02Z</time>
      </trkpt>
      <trkpt lat="45.74999" lon="6.57497">
        <ele>1271.9</ele>
        <time>2022-06-15T10:52:03Z</time>
      </trkpt>
      <trkpt lat="45.74997" lon="6.57496">
        <ele>1272.2</ele>
        <time>2022-06-15T10:52:04Z</time>
      </trkpt>
      <trkpt lat="45.74995" lon="6.57495">
        <ele>1272.4</ele>
        <time>2022-06-15T10:52:05Z</time>
      </trkpt>
      <trkpt lat="45.74993" lon="6.57494">
        <ele>1272.7</ele>
        <time>2022-06-15T10:52:06Z</time>
      </trkpt>
      <trkpt lat="45.74991" lon="6.57493">
        <ele>1273</ele>
        <time>2022-06-15T10:52:07Z</time>
      </trkpt>
      <trkpt lat="45.74989" lon="6.57492">
        <ele>1273.4</ele>
        <time>2022-06-15T10:52:08Z</time>
      </trkpt>
      <trkpt lat="45.74987" lon="6.57491">
        <ele>1273.6</ele>
        <time>2022-06-15T10:52:09Z</time>
      </trkpt>
      <trkpt lat="45.74984" lon="6.57489">
        <ele>1273.9</ele>
        <time>2022-06-15T10:52:10Z</time>
      </trkpt>
      <trkpt lat="45.74982" lon="6.57488">
        <ele>1274.1</ele>
        <time>2022-06-15T10:52:11Z</time>
      </trkpt>
      <trkpt lat="45.7498" lon="6.57487">
        <ele>1274.3</ele>
        <time>2022-06-15T10:52:12Z</time>
      </trkpt>
      <trkpt lat="45.74978" lon="6.57486">
        <ele>1274.5</ele>
        <time>2022-06-15T10:52:13Z</time>
      </trkpt>
      <trkpt lat="45.74976" lon="6.57485">
        <ele>1274.6</ele>
        <time>2022-06-15T10:52:14Z</time>
      </trkpt>
      <trkpt lat="45.74975" lon="6.57484">
        <ele>1274.8</ele>
        <time>2022-06-15T10:52:15Z</time>
      </trkpt>
      <trkpt lat="45.74973" lon="6.57483">
        <ele>1275.1</ele>
        <time>2022-06-15T10:52:16Z</time>
      </trkpt>
      <trkpt lat="45.74971" lon="6.57481">
        <ele>1275</ele>
        <time>2022-06-15T10:52:17Z</time>
      </trkpt>
      <trkpt lat="45.74969" lon="6.5748">
        <ele>1274.8</ele>
        <time>2022-06-15T10:52:18Z</time>
      </trkpt>
      <trkpt lat="45.74967" lon="6.57478">
        <ele>1274.5</ele>
        <time>2022-06-15T10:52:19Z</time>
      </trkpt>
      <trkpt lat="45.74965" lon="6.57477">
        <ele>1274.2</ele>
        <time>2022-06-15T10:52:20Z</time>
      </trkpt>
      <trkpt lat="45.74963" lon="6.57476">
        <ele>1274</ele>
        <time>2022-06-15T10:52:21Z</time>
      </trkpt>
      <trkpt lat="45.74961" lon="6.57474">
        <ele>1273.9</ele>
        <time>2022-06-15T10:52:22Z</time>
      </trkpt>
      <trkpt lat="45.74959" lon="6.57472">
        <ele>1273.8</ele>
        <time>2022-06-15T10:52:23Z</time>
      </trkpt>
      <trkpt lat="45.74957" lon="6.57471">
        <ele>1273.8</ele>
        <time>2022-06-15T10:52:24Z</time>
      </trkpt>
      <trkpt lat="45.74955" lon="6.57469">
        <ele>1273.7</ele>
        <time>2022-06-15T10:52:25Z</time>
      </trkpt>
      <trkpt lat="45.74954" lon="6.57467">
        <ele>1273.8</ele>
        <time>2022-06-15T10:52:26Z</time>
      </trkpt>
      <trkpt lat="45.74952" lon="6.57465">
        <ele>1273.7</ele>
        <time>2022-06-15T10:52:27Z</time>
      </trkpt>
      <trkpt lat="45.7495" lon="6.57463">
        <ele>1273.9</ele>
        <time>2022-06-15T10:52:28Z</time>
      </trkpt>
      <trkpt lat="45.74949" lon="6.57461">
        <ele>1274.2</ele>
        <time>2022-06-15T10:52:29Z</time>
      </trkpt>
      <trkpt lat="45.74948" lon="6.57458">
        <ele>1274.6</ele>
        <time>2022-06-15T10:52:30Z</time>
      </trkpt>
      <trkpt lat="45.74946" lon="6.57456">
        <ele>1274.8</ele>
        <time>2022-06-15T10:52:31Z</time>
      </trkpt>
      <trkpt lat="45.74945" lon="6.57454">
        <ele>1275</ele>
        <time>2022-06-15T10:52:32Z</time>
      </trkpt>
      <trkpt lat="45.74943" lon="6.57452">
        <ele>1275.1</ele>
        <time>2022-06-15T10:52:33Z</time>
      </trkpt>
      <trkpt lat="45.74941" lon="6.57449">
        <ele>1275.4</ele>
        <time>2022-06-15T10:52:34Z</time>
      </trkpt>
      <trkpt lat="45.7494" lon="6.57447">
        <ele>1275.7</ele>
        <time>2022-06-15T10:52:35Z</time>
      </trkpt>
      <trkpt lat="45.74938" lon="6.57445">
        <ele>1275.8</ele>
        <time>2022-06-15T10:52:36Z</time>
      </trkpt>
      <trkpt lat="45.74936" lon="6.57443">
        <ele>1276</ele>
        <time>2022-06-15T10:52:37Z</time>
      </trkpt>
      <trkpt lat="45.74935" lon="6.57441">
        <ele>1276.2</ele>
        <time>2022-06-15T10:52:38Z</time>
      </trkpt>
      <trkpt lat="45.74933" lon="6.57439">
        <ele>1276.4</ele>
        <time>2022-06-15T10:52:39Z</time>
      </trkpt>
      <trkpt lat="45.74931" lon="6.57437">
        <ele>1276.4</ele>
        <time>2022-06-15T10:52:40Z</time>
      </trkpt>
      <trkpt lat="45.7493" lon="6.57435">
        <ele>1276.7</ele>
        <time>2022-06-15T10:52:41Z</time>
      </trkpt>
      <trkpt lat="45.74928" lon="6.57433">
        <ele>1277</ele>
        <time>2022-06-15T10:52:42Z</time>
      </trkpt>
      <trkpt lat="45.74927" lon="6.57432">
        <ele>1277.3</ele>
        <time>2022-06-15T10:52:43Z</time>
      </trkpt>
      <trkpt lat="45.74926" lon="6.5743">
        <ele>1277.7</ele>
        <time>2022-06-15T10:52:44Z</time>
      </trkpt>
      <trkpt lat="45.74925" lon="6.57428">
        <ele>1277.9</ele>
        <time>2022-06-15T10:52:45Z</time>
      </trkpt>
      <trkpt lat="45.74923" lon="6.57426">
        <ele>1278.2</ele>
        <time>2022-06-15T10:52:46Z</time>
      </trkpt>
      <trkpt lat="45.74921" lon="6.57424">
        <ele>1278.5</ele>
        <time>2022-06-15T10:52:47Z</time>
      </trkpt>
      <trkpt lat="45.7492" lon="6.57422">
        <ele>1278.8</ele>
        <time>2022-06-15T10:52:48Z</time>
      </trkpt>
      <trkpt lat="45.74919" lon="6.57421">
        <ele>1279</ele>
        <time>2022-06-15T10:52:49Z</time>
      </trkpt>
      <trkpt lat="45.74918" lon="6.57418">
        <ele>1279.7</ele>
        <time>2022-06-15T10:52:50Z</time>
      </trkpt>
      <trkpt lat="45.74916" lon="6.57415">
        <ele>1280.4</ele>
        <time>2022-06-15T10:52:51Z</time>
      </trkpt>
      <trkpt lat="45.74915" lon="6.57413">
        <ele>1281.1</ele>
        <time>2022-06-15T10:52:52Z</time>
      </trkpt>
      <trkpt lat="45.74913" lon="6.5741">
        <ele>1281.6</ele>
        <time>2022-06-15T10:52:53Z</time>
      </trkpt>
      <trkpt lat="45.74912" lon="6.57408">
        <ele>1282</ele>
        <time>2022-06-15T10:52:54Z</time>
      </trkpt>
      <trkpt lat="45.7491" lon="6.57406">
        <ele>1282.5</ele>
        <time>2022-06-15T10:52:55Z</time>
      </trkpt>
      <trkpt lat="45.74908" lon="6.57403">
        <ele>1282.9</ele>
        <time>2022-06-15T10:52:56Z</time>
      </trkpt>
      <trkpt lat="45.74906" lon="6.57401">
        <ele>1283.2</ele>
        <time>2022-06-15T10:52:57Z</time>
      </trkpt>
      <trkpt lat="45.74904" lon="6.57399">
        <ele>1283.6</ele>
        <time>2022-06-15T10:52:58Z</time>
      </trkpt>
      <trkpt lat="45.74901" lon="6.57397">
        <ele>1283.5</ele>
        <time>2022-06-15T10:52:59Z</time>
      </trkpt>
      <trkpt lat="45.74899" lon="6.57395">
        <ele>1283.7</ele>
        <time>2022-06-15T10:53:00Z</time>
      </trkpt>
      <trkpt lat="45.74897" lon="6.57393">
        <ele>1283.9</ele>
        <time>2022-06-15T10:53:01Z</time>
      </trkpt>
      <trkpt lat="45.74896" lon="6.5739">
        <ele>1284.4</ele>
        <time>2022-06-15T10:53:02Z</time>
      </trkpt>
      <trkpt lat="45.74894" lon="6.57388">
        <ele>1284.7</ele>
        <time>2022-06-15T10:53:03Z</time>
      </trkpt>
      <trkpt lat="45.74892" lon="6.57386">
        <ele>1285.4</ele>
        <time>2022-06-15T10:53:04Z</time>
      </trkpt>
      <trkpt lat="45.74891" lon="6.57384">
        <ele>1285.9</ele>
        <time>2022-06-15T10:53:05Z</time>
      </trkpt>
      <trkpt lat="45.74889" lon="6.57382">
        <ele>1286.1</ele>
        <time>2022-06-15T10:53:06Z</time>
      </trkpt>
      <trkpt lat="45.74888" lon="6.5738">
        <ele>1286.8</ele>
        <time>2022-06-15T10:53:07Z</time>
      </trkpt>
      <trkpt lat="45.74886" lon="6.57378">
        <ele>1287</ele>
        <time>2022-06-15T10:53:08Z</time>
      </trkpt>
      <trkpt lat="45.74884" lon="6.57378">
        <ele>1286.5</ele>
        <time>2022-06-15T10:53:09Z</time>
      </trkpt>
      <trkpt lat="45.74882" lon="6.57377">
        <ele>1286.4</ele>
        <time>2022-06-15T10:53:10Z</time>
      </trkpt>
      <trkpt lat="45.74881" lon="6.57375">
        <ele>1287</ele>
        <time>2022-06-15T10:53:11Z</time>
      </trkpt>
      <trkpt lat="45.74879" lon="6.57373">
        <ele>1287.3</ele>
        <time>2022-06-15T10:53:12Z</time>
      </trkpt>
      <trkpt lat="45.74878" lon="6.5737">
        <ele>1287.7</ele>
        <time>2022-06-15T10:53:13Z</time>
      </trkpt>
      <trkpt lat="45.74876" lon="6.57368">
        <ele>1287.9</ele>
        <time>2022-06-15T10:53:14Z</time>
      </trkpt>
      <trkpt lat="45.74874" lon="6.57366">
        <ele>1287.9</ele>
        <time>2022-06-15T10:53:15Z</time>
      </trkpt>
      <trkpt lat="45.74872" lon="6.57364">
        <ele>1288.1</ele>
        <time>2022-06-15T10:53:16Z</time>
      </trkpt>
      <trkpt lat="45.7487" lon="6.57362">
        <ele>1288</ele>
        <time>2022-06-15T10:53:17Z</time>
      </trkpt>
      <trkpt lat="45.74868" lon="6.5736">
        <ele>1288.2</ele>
        <time>2022-06-15T10:53:18Z</time>
      </trkpt>
      <trkpt lat="45.74867" lon="6.57357">
        <ele>1288.8</ele>
        <time>2022-06-15T10:53:19Z</time>
      </trkpt>
      <trkpt lat="45.74866" lon="6.57355">
        <ele>1289.6</ele>
        <time>2022-06-15T10:53:20Z</time>
      </trkpt>
      <trkpt lat="45.74865" lon="6.57353">
        <ele>1290.2</ele>
        <time>2022-06-15T10:53:21Z</time>
      </trkpt>
      <trkpt lat="45.74864" lon="6.57351">
        <ele>1290.5</ele>
        <time>2022-06-15T10:53:22Z</time>
      </trkpt>
      <trkpt lat="45.74862" lon="6.57349">
        <ele>1290.7</ele>
        <time>2022-06-15T10:53:23Z</time>
      </trkpt>
      <trkpt lat="45.7486" lon="6.57347">
        <ele>1291</ele>
        <time>2022-06-15T10:53:24Z</time>
      </trkpt>
      <trkpt lat="45.74859" lon="6.57345">
        <ele>1291.4</ele>
        <time>2022-06-15T10:53:25Z</time>
      </trkpt>
      <trkpt lat="45.74857" lon="6.57343">
        <ele>1291.6</ele>
        <time>2022-06-15T10:53:26Z</time>
      </trkpt>
      <trkpt lat="45.74855" lon="6.57342">
        <ele>1291.5</ele>
        <time>2022-06-15T10:53:27Z</time>
      </trkpt>
      <trkpt lat="45.74853" lon="6.5734">
        <ele>1291.7</ele>
        <time>2022-06-15T10:53:28Z</time>
      </trkpt>
      <trkpt lat="45.74851" lon="6.57338">
        <ele>1291.7</ele>
        <time>2022-06-15T10:53:29Z</time>
      </trkpt>
      <trkpt lat="45.74849" lon="6.57336">
        <ele>1292</ele>
        <time>2022-06-15T10:53:30Z</time>
      </trkpt>
      <trkpt lat="45.74847" lon="6.57334">
        <ele>1292.3</ele>
        <time>2022-06-15T10:53:31Z</time>
      </trkpt>
      <trkpt lat="45.74846" lon="6.57332">
        <ele>1292.5</ele>
        <time>2022-06-15T10:53:32Z</time>
      </trkpt>
      <trkpt lat="45.74844" lon="6.5733">
        <ele>1292.7</ele>
        <time>2022-06-15T10:53:33Z</time>
      </trkpt>
      <trkpt lat="45.74842" lon="6.57328">
        <ele>1292.8</ele>
        <time>2022-06-15T10:53:34Z</time>
      </trkpt>
      <trkpt lat="45.74841" lon="6.57326">
        <ele>1293</ele>
        <time>2022-06-15T10:53:35Z</time>
      </trkpt>
      <trkpt lat="45.74839" lon="6.57324">
        <ele>1293.1</ele>
        <time>2022-06-15T10:53:36Z</time>
      </trkpt>
      <trkpt lat="45.74836" lon="6.57322">
        <ele>1292.8</ele>
        <time>2022-06-15T10:53:37Z</time>
      </trkpt>
      <trkpt lat="45.74835" lon="6.5732">
        <ele>1293</ele>
        <time>2022-06-15T10:53:38Z</time>
      </trkpt>
      <trkpt lat="45.74833" lon="6.57317">
        <ele>1293.2</ele>
        <time>2022-06-15T10:53:39Z</time>
      </trkpt>
      <trkpt lat="45.74832" lon="6.57315">
        <ele>1293.5</ele>
        <time>2022-06-15T10:53:40Z</time>
      </trkpt>
      <trkpt lat="45.7483" lon="6.57313">
        <ele>1293.4</ele>
        <time>2022-06-15T10:53:41Z</time>
      </trkpt>
      <trkpt lat="45.74828" lon="6.57312">
        <ele>1293.2</ele>
        <time>2022-06-15T10:53:42Z</time>
      </trkpt>
      <trkpt lat="45.74826" lon="6.5731">
        <ele>1292.9</ele>
        <time>2022-06-15T10:53:43Z</time>
      </trkpt>
      <trkpt lat="45.74824" lon="6.57309">
        <ele>1292.7</ele>
        <time>2022-06-15T10:53:44Z</time>
      </trkpt>
      <trkpt lat="45.74822" lon="6.57307">
        <ele>1292.8</ele>
        <time>2022-06-15T10:53:45Z</time>
      </trkpt>
      <trkpt lat="45.7482" lon="6.57306">
        <ele>1292.7</ele>
        <time>2022-06-15T10:53:46Z</time>
      </trkpt>
      <trkpt lat="45.74819" lon="6.57303">
        <ele>1293.3</ele>
        <time>2022-06-15T10:53:47Z</time>
      </trkpt>
      <trkpt lat="45.74818" lon="6.57301">
        <ele>1293.5</ele>
        <time>2022-06-15T10:53:48Z</time>
      </trkpt>
      <trkpt lat="45.74816" lon="6.57299">
        <ele>1293.5</ele>
        <time>2022-06-15T10:53:49Z</time>
      </trkpt>
      <trkpt lat="45.74814" lon="6.57297">
        <ele>1293.7</ele>
        <time>2022-06-15T10:53:50Z</time>
      </trkpt>
      <trkpt lat="45.74813" lon="6.57295">
        <ele>1293.8</ele>
        <time>2022-06-15T10:53:51Z</time>
      </trkpt>
      <trkpt lat="45.74811" lon="6.57293">
        <ele>1293.8</ele>
        <time>2022-06-15T10:53:52Z</time>
      </trkpt>
      <trkpt lat="45.74809" lon="6.57291">
        <ele>1293.4</ele>
        <time>2022-06-15T10:53:53Z</time>
      </trkpt>
      <trkpt lat="45.74807" lon="6.57289">
        <ele>1293.3</ele>
        <time>2022-06-15T10:53:54Z</time>
      </trkpt>
      <trkpt lat="45.74806" lon="6.57287">
        <ele>1293.4</ele>
        <time>2022-06-15T10:53:55Z</time>
      </trkpt>
      <trkpt lat="45.74804" lon="6.57285">
        <ele>1293.5</ele>
        <time>2022-06-15T10:53:56Z</time>
      </trkpt>
      <trkpt lat="45.74803" lon="6.57283">
        <ele>1293.6</ele>
        <time>2022-06-15T10:53:57Z</time>
      </trkpt>
      <trkpt lat="45.74801" lon="6.57281">
        <ele>1293.7</ele>
        <time>2022-06-15T10:53:58Z</time>
      </trkpt>
      <trkpt lat="45.74799" lon="6.57279">
        <ele>1293.5</ele>
        <time>2022-06-15T10:53:59Z</time>
      </trkpt>
      <trkpt lat="45.74797" lon="6.57278">
        <ele>1293.4</ele>
        <time>2022-06-15T10:54:00Z</time>
      </trkpt>
      <trkpt lat="45.74796" lon="6.57276">
        <ele>1293.7</ele>
        <time>2022-06-15T10:54:01Z</time>
      </trkpt>
      <trkpt lat="45.74794" lon="6.57274">
        <ele>1293.7</ele>
        <time>2022-06-15T10:54:02Z</time>
      </trkpt>
      <trkpt lat="45.74792" lon="6.57272">
        <ele>1293.8</ele>
        <time>2022-06-15T10:54:03Z</time>
      </trkpt>
      <trkpt lat="45.7479" lon="6.5727">
        <ele>1293.9</ele>
        <time>2022-06-15T10:54:04Z</time>
      </trkpt>
      <trkpt lat="45.74788" lon="6.57267">
        <ele>1294.4</ele>
        <time>2022-06-15T10:54:05Z</time>
      </trkpt>
      <trkpt lat="45.74787" lon="6.57265">
        <ele>1295</ele>
        <time>2022-06-15T10:54:06Z</time>
      </trkpt>
      <trkpt lat="45.74786" lon="6.57262">
        <ele>1295.8</ele>
        <time>2022-06-15T10:54:07Z</time>
      </trkpt>
      <trkpt lat="45.74785" lon="6.57259">
        <ele>1296.4</ele>
        <time>2022-06-15T10:54:08Z</time>
      </trkpt>
      <trkpt lat="45.74784" lon="6.57256">
        <ele>1296.7</ele>
        <time>2022-06-15T10:54:09Z</time>
      </trkpt>
      <trkpt lat="45.74782" lon="6.57253">
        <ele>1296.9</ele>
        <time>2022-06-15T10:54:10Z</time>
      </trkpt>
      <trkpt lat="45.74781" lon="6.57251">
        <ele>1297</ele>
        <time>2022-06-15T10:54:11Z</time>
      </trkpt>
      <trkpt lat="45.7478" lon="6.57249">
        <ele>1297.3</ele>
        <time>2022-06-15T10:54:12Z</time>
      </trkpt>
      <trkpt lat="45.74778" lon="6.57246">
        <ele>1297.5</ele>
        <time>2022-06-15T10:54:13Z</time>
      </trkpt>
      <trkpt lat="45.74777" lon="6.57244">
        <ele>1297.6</ele>
        <time>2022-06-15T10:54:14Z</time>
      </trkpt>
      <trkpt lat="45.74776" lon="6.57241">
        <ele>1297.7</ele>
        <time>2022-06-15T10:54:15Z</time>
      </trkpt>
      <trkpt lat="45.74774" lon="6.57239">
        <ele>1297.6</ele>
        <time>2022-06-15T10:54:16Z</time>
      </trkpt>
      <trkpt lat="45.74773" lon="6.57236">
        <ele>1297.7</ele>
        <time>2022-06-15T10:54:17Z</time>
      </trkpt>
      <trkpt lat="45.74771" lon="6.57234">
        <ele>1297.9</ele>
        <time>2022-06-15T10:54:18Z</time>
      </trkpt>
      <trkpt lat="45.74771" lon="6.57231">
        <ele>1298.3</ele>
        <time>2022-06-15T10:54:19Z</time>
      </trkpt>
      <trkpt lat="45.7477" lon="6.57228">
        <ele>1299.1</ele>
        <time>2022-06-15T10:54:20Z</time>
      </trkpt>
      <trkpt lat="45.7477" lon="6.57225">
        <ele>1299.9</ele>
        <time>2022-06-15T10:54:21Z</time>
      </trkpt>
      <trkpt lat="45.74769" lon="6.57222">
        <ele>1300.9</ele>
        <time>2022-06-15T10:54:22Z</time>
      </trkpt>
      <trkpt lat="45.74769" lon="6.57219">
        <ele>1301.6</ele>
        <time>2022-06-15T10:54:23Z</time>
      </trkpt>
      <trkpt lat="45.74768" lon="6.57216">
        <ele>1302.2</ele>
        <time>2022-06-15T10:54:24Z</time>
      </trkpt>
      <trkpt lat="45.74768" lon="6.57214">
        <ele>1302.9</ele>
        <time>2022-06-15T10:54:25Z</time>
      </trkpt>
      <trkpt lat="45.74766" lon="6.5721">
        <ele>1303.4</ele>
        <time>2022-06-15T10:54:26Z</time>
      </trkpt>
      <trkpt lat="45.74766" lon="6.57208">
        <ele>1304</ele>
        <time>2022-06-15T10:54:27Z</time>
      </trkpt>
      <trkpt lat="45.74765" lon="6.57205">
        <ele>1304.9</ele>
        <time>2022-06-15T10:54:28Z</time>
      </trkpt>
      <trkpt lat="45.74764" lon="6.57202">
        <ele>1305.3</ele>
        <time>2022-06-15T10:54:29Z</time>
      </trkpt>
      <trkpt lat="45.74762" lon="6.57199">
        <ele>1305.6</ele>
        <time>2022-06-15T10:54:30Z</time>
      </trkpt>
      <trkpt lat="45.7476" lon="6.57197">
        <ele>1305.2</ele>
        <time>2022-06-15T10:54:31Z</time>
      </trkpt>
      <trkpt lat="45.74758" lon="6.57195">
        <ele>1305</ele>
        <time>2022-06-15T10:54:32Z</time>
      </trkpt>
      <trkpt lat="45.74755" lon="6.57194">
        <ele>1304.5</ele>
        <time>2022-06-15T10:54:33Z</time>
      </trkpt>
      <trkpt lat="45.74753" lon="6.57193">
        <ele>1304.1</ele>
        <time>2022-06-15T10:54:34Z</time>
      </trkpt>
      <trkpt lat="45.7475" lon="6.57191">
        <ele>1304.1</ele>
        <time>2022-06-15T10:54:35Z</time>
      </trkpt>
      <trkpt lat="45.74748" lon="6.5719">
        <ele>1304.1</ele>
        <time>2022-06-15T10:54:36Z</time>
      </trkpt>
      <trkpt lat="45.74746" lon="6.57189">
        <ele>1303.7</ele>
        <time>2022-06-15T10:54:37Z</time>
      </trkpt>
      <trkpt lat="45.74743" lon="6.57189">
        <ele>1303.4</ele>
        <time>2022-06-15T10:54:38Z</time>
      </trkpt>
      <trkpt lat="45.74741" lon="6.57189">
        <ele>1302.5</ele>
        <time>2022-06-15T10:54:39Z</time>
      </trkpt>
      <trkpt lat="45.74738" lon="6.57189">
        <ele>1301.6</ele>
        <time>2022-06-15T10:54:40Z</time>
      </trkpt>
      <trkpt lat="45.74736" lon="6.57189">
        <ele>1301.1</ele>
        <time>2022-06-15T10:54:41Z</time>
      </trkpt>
      <trkpt lat="45.74734" lon="6.57188">
        <ele>1301</ele>
        <time>2022-06-15T10:54:42Z</time>
      </trkpt>
      <trkpt lat="45.74732" lon="6.57187">
        <ele>1301.1</ele>
        <time>2022-06-15T10:54:43Z</time>
      </trkpt>
      <trkpt lat="45.74729" lon="6.57185">
        <ele>1301.4</ele>
        <time>2022-06-15T10:54:44Z</time>
      </trkpt>
      <trkpt lat="45.74727" lon="6.57184">
        <ele>1301.5</ele>
        <time>2022-06-15T10:54:45Z</time>
      </trkpt>
      <trkpt lat="45.74725" lon="6.57183">
        <ele>1301.4</ele>
        <time>2022-06-15T10:54:46Z</time>
      </trkpt>
      <trkpt lat="45.74723" lon="6.57182">
        <ele>1300.9</ele>
        <time>2022-06-15T10:54:47Z</time>
      </trkpt>
      <trkpt lat="45.74721" lon="6.57181">
        <ele>1301.2</ele>
        <time>2022-06-15T10:54:48Z</time>
      </trkpt>
      <trkpt lat="45.7472" lon="6.57179">
        <ele>1301.7</ele>
        <time>2022-06-15T10:54:49Z</time>
      </trkpt>
      <trkpt lat="45.74718" lon="6.57178">
        <ele>1301.9</ele>
        <time>2022-06-15T10:54:50Z</time>
      </trkpt>
      <trkpt lat="45.74716" lon="6.57176">
        <ele>1302.4</ele>
        <time>2022-06-15T10:54:51Z</time>
      </trkpt>
      <trkpt lat="45.74714" lon="6.57175">
        <ele>1302.5</ele>
        <time>2022-06-15T10:54:52Z</time>
      </trkpt>
      <trkpt lat="45.74713" lon="6.57174">
        <ele>1302.7</ele>
        <time>2022-06-15T10:54:53Z</time>
      </trkpt>
      <trkpt lat="45.74711" lon="6.57173">
        <ele>1303.2</ele>
        <time>2022-06-15T10:54:54Z</time>
      </trkpt>
      <trkpt lat="45.74709" lon="6.5717">
        <ele>1304.2</ele>
        <time>2022-06-15T10:54:55Z</time>
      </trkpt>
      <trkpt lat="45.74707" lon="6.57167">
        <ele>1305.1</ele>
        <time>2022-06-15T10:54:56Z</time>
      </trkpt>
      <trkpt lat="45.74706" lon="6.57165">
        <ele>1305.9</ele>
        <time>2022-06-15T10:54:57Z</time>
      </trkpt>
      <trkpt lat="45.74704" lon="6.57163">
        <ele>1306.2</ele>
        <time>2022-06-15T10:54:58Z</time>
      </trkpt>
      <trkpt lat="45.74702" lon="6.57162">
        <ele>1306.4</ele>
        <time>2022-06-15T10:54:59Z</time>
      </trkpt>
      <trkpt lat="45.747" lon="6.57159">
        <ele>1306.9</ele>
        <time>2022-06-15T10:55:00Z</time>
      </trkpt>
      <trkpt lat="45.74697" lon="6.57159">
        <ele>1306.5</ele>
        <time>2022-06-15T10:55:01Z</time>
      </trkpt>
      <trkpt lat="45.74695" lon="6.57158">
        <ele>1306.1</ele>
        <time>2022-06-15T10:55:02Z</time>
      </trkpt>
      <trkpt lat="45.74693" lon="6.57158">
        <ele>1305.6</ele>
        <time>2022-06-15T10:55:03Z</time>
      </trkpt>
      <trkpt lat="45.7469" lon="6.57158">
        <ele>1305</ele>
        <time>2022-06-15T10:55:04Z</time>
      </trkpt>
      <trkpt lat="45.74688" lon="6.57157">
        <ele>1304.9</ele>
        <time>2022-06-15T10:55:05Z</time>
      </trkpt>
      <trkpt lat="45.74686" lon="6.57155">
        <ele>1304.9</ele>
        <time>2022-06-15T10:55:06Z</time>
      </trkpt>
      <trkpt lat="45.74684" lon="6.57153">
        <ele>1305.2</ele>
        <time>2022-06-15T10:55:07Z</time>
      </trkpt>
      <trkpt lat="45.74682" lon="6.57152">
        <ele>1305.3</ele>
        <time>2022-06-15T10:55:08Z</time>
      </trkpt>
      <trkpt lat="45.74681" lon="6.5715">
        <ele>1305.6</ele>
        <time>2022-06-15T10:55:09Z</time>
      </trkpt>
      <trkpt lat="45.74679" lon="6.57148">
        <ele>1306.1</ele>
        <time>2022-06-15T10:55:10Z</time>
      </trkpt>
      <trkpt lat="45.74677" lon="6.57146">
        <ele>1306.3</ele>
        <time>2022-06-15T10:55:11Z</time>
      </trkpt>
      <trkpt lat="45.74675" lon="6.57144">
        <ele>1306.6</ele>
        <time>2022-06-15T10:55:12Z</time>
      </trkpt>
      <trkpt lat="45.74673" lon="6.57143">
        <ele>1306.6</ele>
        <time>2022-06-15T10:55:13Z</time>
      </trkpt>
      <trkpt lat="45.74671" lon="6.5714">
        <ele>1307.7</ele>
        <time>2022-06-15T10:55:14Z</time>
      </trkpt>
      <trkpt lat="45.7467" lon="6.57137">
        <ele>1308.2</ele>
        <time>2022-06-15T10:55:15Z</time>
      </trkpt>
      <trkpt lat="45.74668" lon="6.57135">
        <ele>1308.4</ele>
        <time>2022-06-15T10:55:16Z</time>
      </trkpt>
      <trkpt lat="45.74666" lon="6.57133">
        <ele>1308.7</ele>
        <time>2022-06-15T10:55:17Z</time>
      </trkpt>
      <trkpt lat="45.74665" lon="6.57131">
        <ele>1309</ele>
        <time>2022-06-15T10:55:18Z</time>
      </trkpt>
      <trkpt lat="45.74663" lon="6.5713">
        <ele>1309.2</ele>
        <time>2022-06-15T10:55:19Z</time>
      </trkpt>
      <trkpt lat="45.74661" lon="6.57128">
        <ele>1309.3</ele>
        <time>2022-06-15T10:55:20Z</time>
      </trkpt>
      <trkpt lat="45.74659" lon="6.57126">
        <ele>1309.5</ele>
        <time>2022-06-15T10:55:21Z</time>
      </trkpt>
      <trkpt lat="45.74657" lon="6.57125">
        <ele>1309.5</ele>
        <time>2022-06-15T10:55:22Z</time>
      </trkpt>
      <trkpt lat="45.74654" lon="6.57123">
        <ele>1309.5</ele>
        <time>2022-06-15T10:55:23Z</time>
      </trkpt>
      <trkpt lat="45.74653" lon="6.57121">
        <ele>1309.9</ele>
        <time>2022-06-15T10:55:24Z</time>
      </trkpt>
      <trkpt lat="45.7465" lon="6.5712">
        <ele>1309.9</ele>
        <time>2022-06-15T10:55:25Z</time>
      </trkpt>
      <trkpt lat="45.74648" lon="6.57118">
        <ele>1310</ele>
        <time>2022-06-15T10:55:26Z</time>
      </trkpt>
      <trkpt lat="45.74646" lon="6.57117">
        <ele>1309.9</ele>
        <time>2022-06-15T10:55:27Z</time>
      </trkpt>
      <trkpt lat="45.74644" lon="6.57116">
        <ele>1309.9</ele>
        <time>2022-06-15T10:55:28Z</time>
      </trkpt>
      <trkpt lat="45.74641" lon="6.57115">
        <ele>1309.9</ele>
        <time>2022-06-15T10:55:29Z</time>
      </trkpt>
      <trkpt lat="45.74639" lon="6.57114">
        <ele>1309.9</ele>
        <time>2022-06-15T10:55:30Z</time>
      </trkpt>
      <trkpt lat="45.74637" lon="6.57113">
        <ele>1310.1</ele>
        <time>2022-06-15T10:55:31Z</time>
      </trkpt>
      <trkpt lat="45.74634" lon="6.57111">
        <ele>1310.3</ele>
        <time>2022-06-15T10:55:32Z</time>
      </trkpt>
      <trkpt lat="45.74632" lon="6.57109">
        <ele>1310.6</ele>
        <time>2022-06-15T10:55:33Z</time>
      </trkpt>
      <trkpt lat="45.7463" lon="6.57108">
        <ele>1310.8</ele>
        <time>2022-06-15T10:55:34Z</time>
      </trkpt>
      <trkpt lat="45.74628" lon="6.57105">
        <ele>1311.3</ele>
        <time>2022-06-15T10:55:35Z</time>
      </trkpt>
      <trkpt lat="45.74626" lon="6.57102">
        <ele>1312</ele>
        <time>2022-06-15T10:55:36Z</time>
      </trkpt>
      <trkpt lat="45.74625" lon="6.57099">
        <ele>1312.6</ele>
        <time>2022-06-15T10:55:37Z</time>
      </trkpt>
      <trkpt lat="45.74623" lon="6.57097">
        <ele>1313</ele>
        <time>2022-06-15T10:55:38Z</time>
      </trkpt>
      <trkpt lat="45.74621" lon="6.57095">
        <ele>1313.2</ele>
        <time>2022-06-15T10:55:39Z</time>
      </trkpt>
      <trkpt lat="45.74619" lon="6.57093">
        <ele>1313.2</ele>
        <time>2022-06-15T10:55:40Z</time>
      </trkpt>
      <trkpt lat="45.74616" lon="6.57091">
        <ele>1313.1</ele>
        <time>2022-06-15T10:55:41Z</time>
      </trkpt>
      <trkpt lat="45.74614" lon="6.5709">
        <ele>1313.1</ele>
        <time>2022-06-15T10:55:42Z</time>
      </trkpt>
      <trkpt lat="45.74612" lon="6.57088">
        <ele>1313.1</ele>
        <time>2022-06-15T10:55:43Z</time>
      </trkpt>
      <trkpt lat="45.7461" lon="6.57086">
        <ele>1313.1</ele>
        <time>2022-06-15T10:55:44Z</time>
      </trkpt>
      <trkpt lat="45.74608" lon="6.57085">
        <ele>1313.2</ele>
        <time>2022-06-15T10:55:45Z</time>
      </trkpt>
      <trkpt lat="45.74606" lon="6.57083">
        <ele>1313.4</ele>
        <time>2022-06-15T10:55:46Z</time>
      </trkpt>
      <trkpt lat="45.74604" lon="6.57081">
        <ele>1313.8</ele>
        <time>2022-06-15T10:55:47Z</time>
      </trkpt>
      <trkpt lat="45.74602" lon="6.5708">
        <ele>1314.1</ele>
        <time>2022-06-15T10:55:48Z</time>
      </trkpt>
      <trkpt lat="45.746" lon="6.57078">
        <ele>1314.6</ele>
        <time>2022-06-15T10:55:49Z</time>
      </trkpt>
      <trkpt lat="45.74598" lon="6.57076">
        <ele>1314.9</ele>
        <time>2022-06-15T10:55:50Z</time>
      </trkpt>
      <trkpt lat="45.74596" lon="6.57074">
        <ele>1315.2</ele>
        <time>2022-06-15T10:55:51Z</time>
      </trkpt>
      <trkpt lat="45.74594" lon="6.57073">
        <ele>1315.5</ele>
        <time>2022-06-15T10:55:52Z</time>
      </trkpt>
      <trkpt lat="45.74592" lon="6.57071">
        <ele>1315.7</ele>
        <time>2022-06-15T10:55:53Z</time>
      </trkpt>
      <trkpt lat="45.7459" lon="6.5707">
        <ele>1315.7</ele>
        <time>2022-06-15T10:55:54Z</time>
      </trkpt>
      <trkpt lat="45.74588" lon="6.57069">
        <ele>1315.8</ele>
        <time>2022-06-15T10:55:55Z</time>
      </trkpt>
      <trkpt lat="45.74586" lon="6.57068">
        <ele>1315.8</ele>
        <time>2022-06-15T10:55:56Z</time>
      </trkpt>
      <trkpt lat="45.74584" lon="6.57067">
        <ele>1315.8</ele>
        <time>2022-06-15T10:55:57Z</time>
      </trkpt>
      <trkpt lat="45.74582" lon="6.57066">
        <ele>1316</ele>
        <time>2022-06-15T10:55:58Z</time>
      </trkpt>
      <trkpt lat="45.7458" lon="6.57065">
        <ele>1316.4</ele>
        <time>2022-06-15T10:55:59Z</time>
      </trkpt>
      <trkpt lat="45.74578" lon="6.57063">
        <ele>1316.9</ele>
        <time>2022-06-15T10:56:00Z</time>
      </trkpt>
      <trkpt lat="45.74576" lon="6.57062">
        <ele>1317.3</ele>
        <time>2022-06-15T10:56:01Z</time>
      </trkpt>
      <trkpt lat="45.74574" lon="6.57061">
        <ele>1317.7</ele>
        <time>2022-06-15T10:56:02Z</time>
      </trkpt>
      <trkpt lat="45.74572" lon="6.57059">
        <ele>1318.3</ele>
        <time>2022-06-15T10:56:03Z</time>
      </trkpt>
      <trkpt lat="45.7457" lon="6.57057">
        <ele>1319</ele>
        <time>2022-06-15T10:56:04Z</time>
      </trkpt>
      <trkpt lat="45.74568" lon="6.57055">
        <ele>1319.6</ele>
        <time>2022-06-15T10:56:05Z</time>
      </trkpt>
      <trkpt lat="45.74566" lon="6.57054">
        <ele>1320</ele>
        <time>2022-06-15T10:56:06Z</time>
      </trkpt>
      <trkpt lat="45.74564" lon="6.57052">
        <ele>1320.4</ele>
        <time>2022-06-15T10:56:07Z</time>
      </trkpt>
      <trkpt lat="45.74561" lon="6.57051">
        <ele>1320.6</ele>
        <time>2022-06-15T10:56:08Z</time>
      </trkpt>
      <trkpt lat="45.74559" lon="6.5705">
        <ele>1320.8</ele>
        <time>2022-06-15T10:56:09Z</time>
      </trkpt>
      <trkpt lat="45.74557" lon="6.57049">
        <ele>1320.9</ele>
        <time>2022-06-15T10:56:10Z</time>
      </trkpt>
      <trkpt lat="45.74555" lon="6.57047">
        <ele>1321</ele>
        <time>2022-06-15T10:56:11Z</time>
      </trkpt>
      <trkpt lat="45.74553" lon="6.57046">
        <ele>1320.8</ele>
        <time>2022-06-15T10:56:12Z</time>
      </trkpt>
      <trkpt lat="45.74551" lon="6.57045">
        <ele>1320.6</ele>
        <time>2022-06-15T10:56:13Z</time>
      </trkpt>
      <trkpt lat="45.74549" lon="6.57045">
        <ele>1320.5</ele>
        <time>2022-06-15T10:56:14Z</time>
      </trkpt>
      <trkpt lat="45.74547" lon="6.57043">
        <ele>1320.4</ele>
        <time>2022-06-15T10:56:15Z</time>
      </trkpt>
      <trkpt lat="45.74545" lon="6.57042">
        <ele>1320.5</ele>
        <time>2022-06-15T10:56:16Z</time>
      </trkpt>
      <trkpt lat="45.74543" lon="6.5704">
        <ele>1320.7</ele>
        <time>2022-06-15T10:56:17Z</time>
      </trkpt>
      <trkpt lat="45.74541" lon="6.57039">
        <ele>1320.9</ele>
        <time>2022-06-15T10:56:18Z</time>
      </trkpt>
      <trkpt lat="45.74539" lon="6.57037">
        <ele>1321.1</ele>
        <time>2022-06-15T10:56:19Z</time>
      </trkpt>
      <trkpt lat="45.74537" lon="6.57035">
        <ele>1321.5</ele>
        <time>2022-06-15T10:56:20Z</time>
      </trkpt>
      <trkpt lat="45.74536" lon="6.57034">
        <ele>1321.7</ele>
        <time>2022-06-15T10:56:21Z</time>
      </trkpt>
      <trkpt lat="45.74534" lon="6.57033">
        <ele>1321.9</ele>
        <time>2022-06-15T10:56:22Z</time>
      </trkpt>
      <trkpt lat="45.74532" lon="6.57031">
        <ele>1322.2</ele>
        <time>2022-06-15T10:56:23Z</time>
      </trkpt>
      <trkpt lat="45.7453" lon="6.5703">
        <ele>1322.5</ele>
        <time>2022-06-15T10:56:24Z</time>
      </trkpt>
      <trkpt lat="45.74528" lon="6.57028">
        <ele>1322.8</ele>
        <time>2022-06-15T10:56:25Z</time>
      </trkpt>
      <trkpt lat="45.74526" lon="6.57027">
        <ele>1323.3</ele>
        <time>2022-06-15T10:56:26Z</time>
      </trkpt>
      <trkpt lat="45.74524" lon="6.57025">
        <ele>1323.9</ele>
        <time>2022-06-15T10:56:27Z</time>
      </trkpt>
      <trkpt lat="45.74522" lon="6.57023">
        <ele>1324.6</ele>
        <time>2022-06-15T10:56:28Z</time>
      </trkpt>
      <trkpt lat="45.74521" lon="6.57021">
        <ele>1325.1</ele>
        <time>2022-06-15T10:56:29Z</time>
      </trkpt>
      <trkpt lat="45.74519" lon="6.5702">
        <ele>1325.4</ele>
        <time>2022-06-15T10:56:30Z</time>
      </trkpt>
      <trkpt lat="45.74517" lon="6.57018">
        <ele>1325.6</ele>
        <time>2022-06-15T10:56:31Z</time>
      </trkpt>
      <trkpt lat="45.74515" lon="6.57017">
        <ele>1325.8</ele>
        <time>2022-06-15T10:56:32Z</time>
      </trkpt>
      <trkpt lat="45.74513" lon="6.57015">
        <ele>1325.9</ele>
        <time>2022-06-15T10:56:33Z</time>
      </trkpt>
      <trkpt lat="45.74511" lon="6.57014">
        <ele>1325.8</ele>
        <time>2022-06-15T10:56:34Z</time>
      </trkpt>
      <trkpt lat="45.7451" lon="6.57012">
        <ele>1325.8</ele>
        <time>2022-06-15T10:56:35Z</time>
      </trkpt>
      <trkpt lat="45.74508" lon="6.5701">
        <ele>1325.7</ele>
        <time>2022-06-15T10:56:36Z</time>
      </trkpt>
      <trkpt lat="45.74506" lon="6.57008">
        <ele>1325.7</ele>
        <time>2022-06-15T10:56:37Z</time>
      </trkpt>
      <trkpt lat="45.74504" lon="6.57006">
        <ele>1325.6</ele>
        <time>2022-06-15T10:56:38Z</time>
      </trkpt>
      <trkpt lat="45.74503" lon="6.57004">
        <ele>1325.4</ele>
        <time>2022-06-15T10:56:39Z</time>
      </trkpt>
      <trkpt lat="45.74501" lon="6.57002">
        <ele>1325</ele>
        <time>2022-06-15T10:56:40Z</time>
      </trkpt>
      <trkpt lat="45.74499" lon="6.57">
        <ele>1324.8</ele>
        <time>2022-06-15T10:56:41Z</time>
      </trkpt>
      <trkpt lat="45.74497" lon="6.56998">
        <ele>1325</ele>
        <time>2022-06-15T10:56:42Z</time>
      </trkpt>
      <trkpt lat="45.74495" lon="6.56996">
        <ele>1325.2</ele>
        <time>2022-06-15T10:56:43Z</time>
      </trkpt>
      <trkpt lat="45.74494" lon="6.56994">
        <ele>1325.8</ele>
        <time>2022-06-15T10:56:44Z</time>
      </trkpt>
      <trkpt lat="45.74493" lon="6.56991">
        <ele>1326.4</ele>
        <time>2022-06-15T10:56:45Z</time>
      </trkpt>
      <trkpt lat="45.74492" lon="6.56988">
        <ele>1327</ele>
        <time>2022-06-15T10:56:46Z</time>
      </trkpt>
      <trkpt lat="45.74491" lon="6.56986">
        <ele>1327.5</ele>
        <time>2022-06-15T10:56:47Z</time>
      </trkpt>
      <trkpt lat="45.7449" lon="6.56983">
        <ele>1328</ele>
        <time>2022-06-15T10:56:48Z</time>
      </trkpt>
      <trkpt lat="45.74488" lon="6.56981">
        <ele>1328.4</ele>
        <time>2022-06-15T10:56:49Z</time>
      </trkpt>
      <trkpt lat="45.74487" lon="6.56979">
        <ele>1328.8</ele>
        <time>2022-06-15T10:56:50Z</time>
      </trkpt>
      <trkpt lat="45.74486" lon="6.56976">
        <ele>1329.2</ele>
        <time>2022-06-15T10:56:51Z</time>
      </trkpt>
      <trkpt lat="45.74485" lon="6.56974">
        <ele>1329.7</ele>
        <time>2022-06-15T10:56:52Z</time>
      </trkpt>
      <trkpt lat="45.74483" lon="6.56972">
        <ele>1329.9</ele>
        <time>2022-06-15T10:56:53Z</time>
      </trkpt>
      <trkpt lat="45.74482" lon="6.56969">
        <ele>1329.9</ele>
        <time>2022-06-15T10:56:54Z</time>
      </trkpt>
      <trkpt lat="45.7448" lon="6.56967">
        <ele>1329.9</ele>
        <time>2022-06-15T10:56:55Z</time>
      </trkpt>
      <trkpt lat="45.74479" lon="6.56965">
        <ele>1329.9</ele>
        <time>2022-06-15T10:56:56Z</time>
      </trkpt>
      <trkpt lat="45.74477" lon="6.56963">
        <ele>1329.8</ele>
        <time>2022-06-15T10:56:57Z</time>
      </trkpt>
      <trkpt lat="45.74476" lon="6.56961">
        <ele>1329.7</ele>
        <time>2022-06-15T10:56:58Z</time>
      </trkpt>
      <trkpt lat="45.74475" lon="6.56959">
        <ele>1329.6</ele>
        <time>2022-06-15T10:56:59Z</time>
      </trkpt>
      <trkpt lat="45.74473" lon="6.56956">
        <ele>1329.5</ele>
        <time>2022-06-15T10:57:00Z</time>
      </trkpt>
      <trkpt lat="45.74471" lon="6.56954">
        <ele>1329.4</ele>
        <time>2022-06-15T10:57:01Z</time>
      </trkpt>
      <trkpt lat="45.74469" lon="6.56953">
        <ele>1329.1</ele>
        <time>2022-06-15T10:57:02Z</time>
      </trkpt>
      <trkpt lat="45.74468" lon="6.5695">
        <ele>1329.1</ele>
        <time>2022-06-15T10:57:03Z</time>
      </trkpt>
      <trkpt lat="45.74466" lon="6.56948">
        <ele>1329.1</ele>
        <time>2022-06-15T10:57:04Z</time>
      </trkpt>
      <trkpt lat="45.74465" lon="6.56946">
        <ele>1329.2</ele>
        <time>2022-06-15T10:57:05Z</time>
      </trkpt>
      <trkpt lat="45.74463" lon="6.56943">
        <ele>1329.3</ele>
        <time>2022-06-15T10:57:06Z</time>
      </trkpt>
      <trkpt lat="45.74462" lon="6.5694">
        <ele>1329.5</ele>
        <time>2022-06-15T10:57:07Z</time>
      </trkpt>
      <trkpt lat="45.74461" lon="6.56938">
        <ele>1329.6</ele>
        <time>2022-06-15T10:57:08Z</time>
      </trkpt>
      <trkpt lat="45.7446" lon="6.56935">
        <ele>1329.9</ele>
        <time>2022-06-15T10:57:09Z</time>
      </trkpt>
      <trkpt lat="45.74459" lon="6.56932">
        <ele>1330</ele>
        <time>2022-06-15T10:57:10Z</time>
      </trkpt>
      <trkpt lat="45.74457" lon="6.56929">
        <ele>1330.3</ele>
        <time>2022-06-15T10:57:11Z</time>
      </trkpt>
      <trkpt lat="45.74457" lon="6.56926">
        <ele>1330.6</ele>
        <time>2022-06-15T10:57:12Z</time>
      </trkpt>
      <trkpt lat="45.74456" lon="6.56923">
        <ele>1331</ele>
        <time>2022-06-15T10:57:13Z</time>
      </trkpt>
      <trkpt lat="45.74455" lon="6.5692">
        <ele>1331.4</ele>
        <time>2022-06-15T10:57:14Z</time>
      </trkpt>
      <trkpt lat="45.74455" lon="6.56917">
        <ele>1331.8</ele>
        <time>2022-06-15T10:57:15Z</time>
      </trkpt>
      <trkpt lat="45.74454" lon="6.56913">
        <ele>1331.7</ele>
        <time>2022-06-15T10:57:16Z</time>
      </trkpt>
      <trkpt lat="45.74454" lon="6.5691">
        <ele>1331.7</ele>
        <time>2022-06-15T10:57:17Z</time>
      </trkpt>
      <trkpt lat="45.74454" lon="6.56907">
        <ele>1331.6</ele>
        <time>2022-06-15T10:57:18Z</time>
      </trkpt>
      <trkpt lat="45.74454" lon="6.56904">
        <ele>1331.6</ele>
        <time>2022-06-15T10:57:19Z</time>
      </trkpt>
      <trkpt lat="45.74454" lon="6.56901">
        <ele>1331.6</ele>
        <time>2022-06-15T10:57:20Z</time>
      </trkpt>
      <trkpt lat="45.74454" lon="6.56899">
        <ele>1331.6</ele>
        <time>2022-06-15T10:57:21Z</time>
      </trkpt>
      <trkpt lat="45.74455" lon="6.56896">
        <ele>1331.6</ele>
        <time>2022-06-15T10:57:22Z</time>
      </trkpt>
      <trkpt lat="45.74455" lon="6.56892">
        <ele>1331.7</ele>
        <time>2022-06-15T10:57:23Z</time>
      </trkpt>
      <trkpt lat="45.74456" lon="6.5689">
        <ele>1331.9</ele>
        <time>2022-06-15T10:57:24Z</time>
      </trkpt>
      <trkpt lat="45.74457" lon="6.56887">
        <ele>1332.2</ele>
        <time>2022-06-15T10:57:25Z</time>
      </trkpt>
      <trkpt lat="45.74458" lon="6.56884">
        <ele>1332.5</ele>
        <time>2022-06-15T10:57:26Z</time>
      </trkpt>
      <trkpt lat="45.74458" lon="6.56882">
        <ele>1332.9</ele>
        <time>2022-06-15T10:57:27Z</time>
      </trkpt>
      <trkpt lat="45.7446" lon="6.56879">
        <ele>1333.4</ele>
        <time>2022-06-15T10:57:28Z</time>
      </trkpt>
      <trkpt lat="45.7446" lon="6.56876">
        <ele>1333.7</ele>
        <time>2022-06-15T10:57:29Z</time>
      </trkpt>
      <trkpt lat="45.74461" lon="6.56873">
        <ele>1334</ele>
        <time>2022-06-15T10:57:30Z</time>
      </trkpt>
      <trkpt lat="45.74461" lon="6.5687">
        <ele>1334.3</ele>
        <time>2022-06-15T10:57:31Z</time>
      </trkpt>
      <trkpt lat="45.74462" lon="6.56867">
        <ele>1334.6</ele>
        <time>2022-06-15T10:57:32Z</time>
      </trkpt>
      <trkpt lat="45.74462" lon="6.56865">
        <ele>1334.9</ele>
        <time>2022-06-15T10:57:33Z</time>
      </trkpt>
      <trkpt lat="45.74463" lon="6.56861">
        <ele>1335.3</ele>
        <time>2022-06-15T10:57:34Z</time>
      </trkpt>
      <trkpt lat="45.74463" lon="6.56859">
        <ele>1335.4</ele>
        <time>2022-06-15T10:57:35Z</time>
      </trkpt>
      <trkpt lat="45.74464" lon="6.56856">
        <ele>1335.6</ele>
        <time>2022-06-15T10:57:36Z</time>
      </trkpt>
      <trkpt lat="45.74465" lon="6.56854">
        <ele>1335.7</ele>
        <time>2022-06-15T10:57:37Z</time>
      </trkpt>
      <trkpt lat="45.74465" lon="6.56851">
        <ele>1335.9</ele>
        <time>2022-06-15T10:57:38Z</time>
      </trkpt>
      <trkpt lat="45.74466" lon="6.56848">
        <ele>1336.2</ele>
        <time>2022-06-15T10:57:39Z</time>
      </trkpt>
      <trkpt lat="45.74467" lon="6.56845">
        <ele>1336.5</ele>
        <time>2022-06-15T10:57:40Z</time>
      </trkpt>
      <trkpt lat="45.74467" lon="6.56842">
        <ele>1336.5</ele>
        <time>2022-06-15T10:57:41Z</time>
      </trkpt>
      <trkpt lat="45.74467" lon="6.56839">
        <ele>1336.5</ele>
        <time>2022-06-15T10:57:42Z</time>
      </trkpt>
      <trkpt lat="45.74467" lon="6.56835">
        <ele>1336.6</ele>
        <time>2022-06-15T10:57:43Z</time>
      </trkpt>
      <trkpt lat="45.74467" lon="6.56832">
        <ele>1336.8</ele>
        <time>2022-06-15T10:57:44Z</time>
      </trkpt>
      <trkpt lat="45.74467" lon="6.5683">
        <ele>1337</ele>
        <time>2022-06-15T10:57:45Z</time>
      </trkpt>
      <trkpt lat="45.74467" lon="6.56827">
        <ele>1337.4</ele>
        <time>2022-06-15T10:57:46Z</time>
      </trkpt>
      <trkpt lat="45.74467" lon="6.56824">
        <ele>1337.7</ele>
        <time>2022-06-15T10:57:47Z</time>
      </trkpt>
      <trkpt lat="45.74467" lon="6.56822">
        <ele>1337.9</ele>
        <time>2022-06-15T10:57:48Z</time>
      </trkpt>
      <trkpt lat="45.74467" lon="6.5682">
        <ele>1338.1</ele>
        <time>2022-06-15T10:57:49Z</time>
      </trkpt>
      <trkpt lat="45.74467" lon="6.56817">
        <ele>1338.4</ele>
        <time>2022-06-15T10:57:50Z</time>
      </trkpt>
      <trkpt lat="45.74467" lon="6.56813">
        <ele>1338.6</ele>
        <time>2022-06-15T10:57:51Z</time>
      </trkpt>
      <trkpt lat="45.74466" lon="6.5681">
        <ele>1338.9</ele>
        <time>2022-06-15T10:57:52Z</time>
      </trkpt>
      <trkpt lat="45.74466" lon="6.56807">
        <ele>1339.2</ele>
        <time>2022-06-15T10:57:53Z</time>
      </trkpt>
      <trkpt lat="45.74465" lon="6.56803">
        <ele>1339.5</ele>
        <time>2022-06-15T10:57:54Z</time>
      </trkpt>
      <trkpt lat="45.74464" lon="6.568">
        <ele>1339.9</ele>
        <time>2022-06-15T10:57:55Z</time>
      </trkpt>
      <trkpt lat="45.74463" lon="6.56797">
        <ele>1340.3</ele>
        <time>2022-06-15T10:57:56Z</time>
      </trkpt>
      <trkpt lat="45.74462" lon="6.56794">
        <ele>1340.6</ele>
        <time>2022-06-15T10:57:57Z</time>
      </trkpt>
      <trkpt lat="45.74461" lon="6.56791">
        <ele>1340.9</ele>
        <time>2022-06-15T10:57:58Z</time>
      </trkpt>
      <trkpt lat="45.7446" lon="6.56788">
        <ele>1341.2</ele>
        <time>2022-06-15T10:57:59Z</time>
      </trkpt>
      <trkpt lat="45.74459" lon="6.56785">
        <ele>1341.5</ele>
        <time>2022-06-15T10:58:00Z</time>
      </trkpt>
      <trkpt lat="45.74457" lon="6.56782">
        <ele>1341.7</ele>
        <time>2022-06-15T10:58:01Z</time>
      </trkpt>
      <trkpt lat="45.74455" lon="6.56779">
        <ele>1342</ele>
        <time>2022-06-15T10:58:02Z</time>
      </trkpt>
      <trkpt lat="45.74454" lon="6.56777">
        <ele>1342.1</ele>
        <time>2022-06-15T10:58:03Z</time>
      </trkpt>
      <trkpt lat="45.74452" lon="6.56775">
        <ele>1342.1</ele>
        <time>2022-06-15T10:58:04Z</time>
      </trkpt>
      <trkpt lat="45.74451" lon="6.56772">
        <ele>1342.2</ele>
        <time>2022-06-15T10:58:05Z</time>
      </trkpt>
      <trkpt lat="45.74449" lon="6.5677">
        <ele>1342.1</ele>
        <time>2022-06-15T10:58:06Z</time>
      </trkpt>
      <trkpt lat="45.74447" lon="6.56768">
        <ele>1342.1</ele>
        <time>2022-06-15T10:58:07Z</time>
      </trkpt>
      <trkpt lat="45.74446" lon="6.56766">
        <ele>1342.1</ele>
        <time>2022-06-15T10:58:08Z</time>
      </trkpt>
      <trkpt lat="45.74445" lon="6.56763">
        <ele>1342.1</ele>
        <time>2022-06-15T10:58:09Z</time>
      </trkpt>
      <trkpt lat="45.74444" lon="6.56761">
        <ele>1342.2</ele>
        <time>2022-06-15T10:58:10Z</time>
      </trkpt>
      <trkpt lat="45.74443" lon="6.56758">
        <ele>1342.3</ele>
        <time>2022-06-15T10:58:11Z</time>
      </trkpt>
      <trkpt lat="45.74442" lon="6.56755">
        <ele>1342.5</ele>
        <time>2022-06-15T10:58:12Z</time>
      </trkpt>
      <trkpt lat="45.74441" lon="6.56753">
        <ele>1342.6</ele>
        <time>2022-06-15T10:58:13Z</time>
      </trkpt>
      <trkpt lat="45.7444" lon="6.5675">
        <ele>1342.8</ele>
        <time>2022-06-15T10:58:14Z</time>
      </trkpt>
      <trkpt lat="45.74438" lon="6.56748">
        <ele>1343.2</ele>
        <time>2022-06-15T10:58:15Z</time>
      </trkpt>
      <trkpt lat="45.74437" lon="6.56745">
        <ele>1343.6</ele>
        <time>2022-06-15T10:58:16Z</time>
      </trkpt>
      <trkpt lat="45.74436" lon="6.56743">
        <ele>1344</ele>
        <time>2022-06-15T10:58:17Z</time>
      </trkpt>
      <trkpt lat="45.74435" lon="6.5674">
        <ele>1344.4</ele>
        <time>2022-06-15T10:58:18Z</time>
      </trkpt>
      <trkpt lat="45.74433" lon="6.56738">
        <ele>1344.8</ele>
        <time>2022-06-15T10:58:19Z</time>
      </trkpt>
      <trkpt lat="45.74432" lon="6.56735">
        <ele>1345.1</ele>
        <time>2022-06-15T10:58:20Z</time>
      </trkpt>
      <trkpt lat="45.74431" lon="6.56732">
        <ele>1345.5</ele>
        <time>2022-06-15T10:58:21Z</time>
      </trkpt>
      <trkpt lat="45.7443" lon="6.5673">
        <ele>1345.8</ele>
        <time>2022-06-15T10:58:22Z</time>
      </trkpt>
      <trkpt lat="45.74429" lon="6.56727">
        <ele>1346</ele>
        <time>2022-06-15T10:58:23Z</time>
      </trkpt>
      <trkpt lat="45.74427" lon="6.56725">
        <ele>1346</ele>
        <time>2022-06-15T10:58:24Z</time>
      </trkpt>
      <trkpt lat="45.74426" lon="6.56723">
        <ele>1346.2</ele>
        <time>2022-06-15T10:58:25Z</time>
      </trkpt>
      <trkpt lat="45.74424" lon="6.56721">
        <ele>1346.2</ele>
        <time>2022-06-15T10:58:26Z</time>
      </trkpt>
      <trkpt lat="45.74423" lon="6.56719">
        <ele>1346.2</ele>
        <time>2022-06-15T10:58:27Z</time>
      </trkpt>
      <trkpt lat="45.74421" lon="6.56716">
        <ele>1346.2</ele>
        <time>2022-06-15T10:58:28Z</time>
      </trkpt>
      <trkpt lat="45.74419" lon="6.56714">
        <ele>1346.2</ele>
        <time>2022-06-15T10:58:29Z</time>
      </trkpt>
      <trkpt lat="45.74418" lon="6.56712">
        <ele>1346.3</ele>
        <time>2022-06-15T10:58:30Z</time>
      </trkpt>
      <trkpt lat="45.74417" lon="6.5671">
        <ele>1346.3</ele>
        <time>2022-06-15T10:58:31Z</time>
      </trkpt>
      <trkpt lat="45.74415" lon="6.56708">
        <ele>1346.5</ele>
        <time>2022-06-15T10:58:32Z</time>
      </trkpt>
      <trkpt lat="45.74413" lon="6.56706">
        <ele>1346.7</ele>
        <time>2022-06-15T10:58:33Z</time>
      </trkpt>
      <trkpt lat="45.74412" lon="6.56704">
        <ele>1346.8</ele>
        <time>2022-06-15T10:58:34Z</time>
      </trkpt>
      <trkpt lat="45.7441" lon="6.56703">
        <ele>1347</ele>
        <time>2022-06-15T10:58:35Z</time>
      </trkpt>
      <trkpt lat="45.74408" lon="6.56701">
        <ele>1347.2</ele>
        <time>2022-06-15T10:58:36Z</time>
      </trkpt>
      <trkpt lat="45.74407" lon="6.56699">
        <ele>1347.4</ele>
        <time>2022-06-15T10:58:37Z</time>
      </trkpt>
      <trkpt lat="45.74405" lon="6.56697">
        <ele>1347.7</ele>
        <time>2022-06-15T10:58:38Z</time>
      </trkpt>
      <trkpt lat="45.74403" lon="6.56695">
        <ele>1347.9</ele>
        <time>2022-06-15T10:58:39Z</time>
      </trkpt>
      <trkpt lat="45.74402" lon="6.56693">
        <ele>1348.2</ele>
        <time>2022-06-15T10:58:40Z</time>
      </trkpt>
      <trkpt lat="45.744" lon="6.56691">
        <ele>1348.4</ele>
        <time>2022-06-15T10:58:41Z</time>
      </trkpt>
      <trkpt lat="45.74398" lon="6.56689">
        <ele>1348.6</ele>
        <time>2022-06-15T10:58:42Z</time>
      </trkpt>
      <trkpt lat="45.74396" lon="6.56687">
        <ele>1348.9</ele>
        <time>2022-06-15T10:58:43Z</time>
      </trkpt>
      <trkpt lat="45.74395" lon="6.56685">
        <ele>1349.1</ele>
        <time>2022-06-15T10:58:44Z</time>
      </trkpt>
      <trkpt lat="45.74393" lon="6.56683">
        <ele>1349.3</ele>
        <time>2022-06-15T10:58:45Z</time>
      </trkpt>
      <trkpt lat="45.74391" lon="6.56681">
        <ele>1349.5</ele>
        <time>2022-06-15T10:58:46Z</time>
      </trkpt>
      <trkpt lat="45.7439" lon="6.56679">
        <ele>1349.7</ele>
        <time>2022-06-15T10:58:47Z</time>
      </trkpt>
      <trkpt lat="45.74389" lon="6.56677">
        <ele>1349.8</ele>
        <time>2022-06-15T10:58:48Z</time>
      </trkpt>
      <trkpt lat="45.74387" lon="6.56675">
        <ele>1349.9</ele>
        <time>2022-06-15T10:58:49Z</time>
      </trkpt>
      <trkpt lat="45.74386" lon="6.56673">
        <ele>1350</ele>
        <time>2022-06-15T10:58:50Z</time>
      </trkpt>
      <trkpt lat="45.74384" lon="6.56671">
        <ele>1350.1</ele>
        <time>2022-06-15T10:58:51Z</time>
      </trkpt>
      <trkpt lat="45.74382" lon="6.56668">
        <ele>1350.3</ele>
        <time>2022-06-15T10:58:52Z</time>
      </trkpt>
      <trkpt lat="45.7438" lon="6.56666">
        <ele>1350.5</ele>
        <time>2022-06-15T10:58:53Z</time>
      </trkpt>
      <trkpt lat="45.74379" lon="6.56664">
        <ele>1350.6</ele>
        <time>2022-06-15T10:58:54Z</time>
      </trkpt>
      <trkpt lat="45.74378" lon="6.56661">
        <ele>1350.8</ele>
        <time>2022-06-15T10:58:55Z</time>
      </trkpt>
      <trkpt lat="45.74377" lon="6.56658">
        <ele>1351</ele>
        <time>2022-06-15T10:58:56Z</time>
      </trkpt>
      <trkpt lat="45.74376" lon="6.56655">
        <ele>1351.4</ele>
        <time>2022-06-15T10:58:57Z</time>
      </trkpt>
      <trkpt lat="45.74375" lon="6.56651">
        <ele>1351.7</ele>
        <time>2022-06-15T10:58:58Z</time>
      </trkpt>
      <trkpt lat="45.74374" lon="6.56648">
        <ele>1352</ele>
        <time>2022-06-15T10:58:59Z</time>
      </trkpt>
      <trkpt lat="45.74372" lon="6.56644">
        <ele>1352.2</ele>
        <time>2022-06-15T10:59:00Z</time>
      </trkpt>
      <trkpt lat="45.74371" lon="6.56641">
        <ele>1352.4</ele>
        <time>2022-06-15T10:59:01Z</time>
      </trkpt>
      <trkpt lat="45.74369" lon="6.56638">
        <ele>1352.7</ele>
        <time>2022-06-15T10:59:02Z</time>
      </trkpt>
      <trkpt lat="45.74368" lon="6.56635">
        <ele>1352.9</ele>
        <time>2022-06-15T10:59:03Z</time>
      </trkpt>
      <trkpt lat="45.74367" lon="6.56631">
        <ele>1353.3</ele>
        <time>2022-06-15T10:59:04Z</time>
      </trkpt>
      <trkpt lat="45.74365" lon="6.56627">
        <ele>1353.6</ele>
        <time>2022-06-15T10:59:05Z</time>
      </trkpt>
      <trkpt lat="45.74364" lon="6.56623">
        <ele>1354</ele>
        <time>2022-06-15T10:59:06Z</time>
      </trkpt>
      <trkpt lat="45.74362" lon="6.56619">
        <ele>1354.2</ele>
        <time>2022-06-15T10:59:07Z</time>
      </trkpt>
      <trkpt lat="45.74361" lon="6.56616">
        <ele>1354.5</ele>
        <time>2022-06-15T10:59:08Z</time>
      </trkpt>
      <trkpt lat="45.74359" lon="6.56613">
        <ele>1354.6</ele>
        <time>2022-06-15T10:59:09Z</time>
      </trkpt>
      <trkpt lat="45.74357" lon="6.5661">
        <ele>1354.8</ele>
        <time>2022-06-15T10:59:10Z</time>
      </trkpt>
      <trkpt lat="45.74356" lon="6.56607">
        <ele>1355.2</ele>
        <time>2022-06-15T10:59:11Z</time>
      </trkpt>
      <trkpt lat="45.74355" lon="6.56603">
        <ele>1355.7</ele>
        <time>2022-06-15T10:59:12Z</time>
      </trkpt>
      <trkpt lat="45.74354" lon="6.56599">
        <ele>1356.2</ele>
        <time>2022-06-15T10:59:13Z</time>
      </trkpt>
      <trkpt lat="45.74353" lon="6.56596">
        <ele>1356.6</ele>
        <time>2022-06-15T10:59:14Z</time>
      </trkpt>
      <trkpt lat="45.74352" lon="6.56592">
        <ele>1357</ele>
        <time>2022-06-15T10:59:15Z</time>
      </trkpt>
      <trkpt lat="45.74351" lon="6.56589">
        <ele>1357.3</ele>
        <time>2022-06-15T10:59:16Z</time>
      </trkpt>
      <trkpt lat="45.74349" lon="6.56586">
        <ele>1357.5</ele>
        <time>2022-06-15T10:59:17Z</time>
      </trkpt>
      <trkpt lat="45.74348" lon="6.56583">
        <ele>1357.6</ele>
        <time>2022-06-15T10:59:18Z</time>
      </trkpt>
      <trkpt lat="45.74346" lon="6.5658">
        <ele>1357.6</ele>
        <time>2022-06-15T10:59:19Z</time>
      </trkpt>
      <trkpt lat="45.74345" lon="6.56576">
        <ele>1357.7</ele>
        <time>2022-06-15T10:59:20Z</time>
      </trkpt>
      <trkpt lat="45.74344" lon="6.56573">
        <ele>1357.8</ele>
        <time>2022-06-15T10:59:21Z</time>
      </trkpt>
      <trkpt lat="45.74342" lon="6.5657">
        <ele>1357.9</ele>
        <time>2022-06-15T10:59:22Z</time>
      </trkpt>
      <trkpt lat="45.74341" lon="6.56567">
        <ele>1358</ele>
        <time>2022-06-15T10:59:23Z</time>
      </trkpt>
      <trkpt lat="45.74339" lon="6.56564">
        <ele>1358</ele>
        <time>2022-06-15T10:59:24Z</time>
      </trkpt>
      <trkpt lat="45.74337" lon="6.56561">
        <ele>1358.1</ele>
        <time>2022-06-15T10:59:25Z</time>
      </trkpt>
      <trkpt lat="45.74336" lon="6.56558">
        <ele>1358.1</ele>
        <time>2022-06-15T10:59:26Z</time>
      </trkpt>
      <trkpt lat="45.74334" lon="6.56555">
        <ele>1358.2</ele>
        <time>2022-06-15T10:59:27Z</time>
      </trkpt>
      <trkpt lat="45.74333" lon="6.56552">
        <ele>1358.3</ele>
        <time>2022-06-15T10:59:28Z</time>
      </trkpt>
      <trkpt lat="45.74331" lon="6.56549">
        <ele>1358.3</ele>
        <time>2022-06-15T10:59:29Z</time>
      </trkpt>
      <trkpt lat="45.74329" lon="6.56546">
        <ele>1358.4</ele>
        <time>2022-06-15T10:59:30Z</time>
      </trkpt>
      <trkpt lat="45.74327" lon="6.56543">
        <ele>1358.5</ele>
        <time>2022-06-15T10:59:31Z</time>
      </trkpt>
      <trkpt lat="45.74325" lon="6.56541">
        <ele>1358.6</ele>
        <time>2022-06-15T10:59:32Z</time>
      </trkpt>
      <trkpt lat="45.74324" lon="6.56538">
        <ele>1358.9</ele>
        <time>2022-06-15T10:59:33Z</time>
      </trkpt>
      <trkpt lat="45.74322" lon="6.56535">
        <ele>1359.2</ele>
        <time>2022-06-15T10:59:34Z</time>
      </trkpt>
      <trkpt lat="45.74321" lon="6.56531">
        <ele>1359.5</ele>
        <time>2022-06-15T10:59:35Z</time>
      </trkpt>
      <trkpt lat="45.74319" lon="6.56528">
        <ele>1359.9</ele>
        <time>2022-06-15T10:59:36Z</time>
      </trkpt>
      <trkpt lat="45.74317" lon="6.56526">
        <ele>1360</ele>
        <time>2022-06-15T10:59:37Z</time>
      </trkpt>
      <trkpt lat="45.74316" lon="6.56523">
        <ele>1360.2</ele>
        <time>2022-06-15T10:59:38Z</time>
      </trkpt>
      <trkpt lat="45.74314" lon="6.5652">
        <ele>1360.3</ele>
        <time>2022-06-15T10:59:39Z</time>
      </trkpt>
      <trkpt lat="45.74313" lon="6.56517">
        <ele>1360.4</ele>
        <time>2022-06-15T10:59:40Z</time>
      </trkpt>
      <trkpt lat="45.74311" lon="6.56514">
        <ele>1360.5</ele>
        <time>2022-06-15T10:59:41Z</time>
      </trkpt>
      <trkpt lat="45.7431" lon="6.56511">
        <ele>1360.6</ele>
        <time>2022-06-15T10:59:42Z</time>
      </trkpt>
      <trkpt lat="45.74308" lon="6.56508">
        <ele>1360.7</ele>
        <time>2022-06-15T10:59:43Z</time>
      </trkpt>
      <trkpt lat="45.74307" lon="6.56505">
        <ele>1360.8</ele>
        <time>2022-06-15T10:59:44Z</time>
      </trkpt>
      <trkpt lat="45.74305" lon="6.56502">
        <ele>1360.8</ele>
        <time>2022-06-15T10:59:45Z</time>
      </trkpt>
      <trkpt lat="45.74304" lon="6.565">
        <ele>1360.8</ele>
        <time>2022-06-15T10:59:46Z</time>
      </trkpt>
      <trkpt lat="45.74302" lon="6.56497">
        <ele>1361.1</ele>
        <time>2022-06-15T10:59:47Z</time>
      </trkpt>
      <trkpt lat="45.74301" lon="6.56494">
        <ele>1361.4</ele>
        <time>2022-06-15T10:59:48Z</time>
      </trkpt>
      <trkpt lat="45.743" lon="6.56491">
        <ele>1361.9</ele>
        <time>2022-06-15T10:59:49Z</time>
      </trkpt>
      <trkpt lat="45.74299" lon="6.56488">
        <ele>1362.3</ele>
        <time>2022-06-15T10:59:50Z</time>
      </trkpt>
      <trkpt lat="45.74298" lon="6.56485">
        <ele>1362.7</ele>
        <time>2022-06-15T10:59:51Z</time>
      </trkpt>
      <trkpt lat="45.74296" lon="6.56482">
        <ele>1363.1</ele>
        <time>2022-06-15T10:59:52Z</time>
      </trkpt>
      <trkpt lat="45.74295" lon="6.56479">
        <ele>1363.5</ele>
        <time>2022-06-15T10:59:53Z</time>
      </trkpt>
      <trkpt lat="45.74293" lon="6.56476">
        <ele>1363.9</ele>
        <time>2022-06-15T10:59:54Z</time>
      </trkpt>
      <trkpt lat="45.74292" lon="6.56473">
        <ele>1364.3</ele>
        <time>2022-06-15T10:59:55Z</time>
      </trkpt>
      <trkpt lat="45.74291" lon="6.5647">
        <ele>1364.5</ele>
        <time>2022-06-15T10:59:56Z</time>
      </trkpt>
      <trkpt lat="45.74289" lon="6.56467">
        <ele>1364.7</ele>
        <time>2022-06-15T10:59:57Z</time>
      </trkpt>
      <trkpt lat="45.74288" lon="6.56464">
        <ele>1364.8</ele>
        <time>2022-06-15T10:59:58Z</time>
      </trkpt>
      <trkpt lat="45.74286" lon="6.56461">
        <ele>1364.8</ele>
        <time>2022-06-15T10:59:59Z</time>
      </trkpt>
      <trkpt lat="45.74285" lon="6.56457">
        <ele>1364.9</ele>
        <time>2022-06-15T11:00:00Z</time>
      </trkpt>
      <trkpt lat="45.74283" lon="6.56454">
        <ele>1365</ele>
        <time>2022-06-15T11:00:01Z</time>
      </trkpt>
      <trkpt lat="45.74282" lon="6.56451">
        <ele>1365.1</ele>
        <time>2022-06-15T11:00:02Z</time>
      </trkpt>
      <trkpt lat="45.7428" lon="6.56448">
        <ele>1365.1</ele>
        <time>2022-06-15T11:00:03Z</time>
      </trkpt>
      <trkpt lat="45.74279" lon="6.56444">
        <ele>1365.2</ele>
        <time>2022-06-15T11:00:04Z</time>
      </trkpt>
      <trkpt lat="45.74278" lon="6.56441">
        <ele>1365.3</ele>
        <time>2022-06-15T11:00:05Z</time>
      </trkpt>
      <trkpt lat="45.74276" lon="6.56438">
        <ele>1365.4</ele>
        <time>2022-06-15T11:00:06Z</time>
      </trkpt>
      <trkpt lat="45.74275" lon="6.56435">
        <ele>1365.6</ele>
        <time>2022-06-15T11:00:07Z</time>
      </trkpt>
      <trkpt lat="45.74273" lon="6.56432">
        <ele>1365.8</ele>
        <time>2022-06-15T11:00:08Z</time>
      </trkpt>
      <trkpt lat="45.74272" lon="6.56428">
        <ele>1365.9</ele>
        <time>2022-06-15T11:00:09Z</time>
      </trkpt>
      <trkpt lat="45.7427" lon="6.56425">
        <ele>1366</ele>
        <time>2022-06-15T11:00:10Z</time>
      </trkpt>
      <trkpt lat="45.7427" lon="6.56421">
        <ele>1366.2</ele>
        <time>2022-06-15T11:00:11Z</time>
      </trkpt>
      <trkpt lat="45.74269" lon="6.56417">
        <ele>1366.4</ele>
        <time>2022-06-15T11:00:12Z</time>
      </trkpt>
      <trkpt lat="45.74269" lon="6.56413">
        <ele>1366.4</ele>
        <time>2022-06-15T11:00:13Z</time>
      </trkpt>
      <trkpt lat="45.74269" lon="6.56409">
        <ele>1366.4</ele>
        <time>2022-06-15T11:00:14Z</time>
      </trkpt>
      <trkpt lat="45.74268" lon="6.56404">
        <ele>1366.4</ele>
        <time>2022-06-15T11:00:15Z</time>
      </trkpt>
      <trkpt lat="45.74268" lon="6.56399">
        <ele>1366.4</ele>
        <time>2022-06-15T11:00:16Z</time>
      </trkpt>
      <trkpt lat="45.74268" lon="6.56395">
        <ele>1366.5</ele>
        <time>2022-06-15T11:00:17Z</time>
      </trkpt>
      <trkpt lat="45.74269" lon="6.56391">
        <ele>1366.7</ele>
        <time>2022-06-15T11:00:18Z</time>
      </trkpt>
      <trkpt lat="45.7427" lon="6.56387">
        <ele>1366.9</ele>
        <time>2022-06-15T11:00:19Z</time>
      </trkpt>
      <trkpt lat="45.74271" lon="6.56384">
        <ele>1367</ele>
        <time>2022-06-15T11:00:20Z</time>
      </trkpt>
      <trkpt lat="45.74273" lon="6.5638">
        <ele>1367.2</ele>
        <time>2022-06-15T11:00:21Z</time>
      </trkpt>
      <trkpt lat="45.74275" lon="6.56377">
        <ele>1367.3</ele>
        <time>2022-06-15T11:00:22Z</time>
      </trkpt>
      <trkpt lat="45.74278" lon="6.56373">
        <ele>1367.4</ele>
        <time>2022-06-15T11:00:23Z</time>
      </trkpt>
      <trkpt lat="45.7428" lon="6.5637">
        <ele>1367.3</ele>
        <time>2022-06-15T11:00:24Z</time>
      </trkpt>
      <trkpt lat="45.74283" lon="6.56367">
        <ele>1367.2</ele>
        <time>2022-06-15T11:00:25Z</time>
      </trkpt>
      <trkpt lat="45.74285" lon="6.56365">
        <ele>1367.1</ele>
        <time>2022-06-15T11:00:26Z</time>
      </trkpt>
      <trkpt lat="45.74288" lon="6.56362">
        <ele>1367</ele>
        <time>2022-06-15T11:00:27Z</time>
      </trkpt>
      <trkpt lat="45.74291" lon="6.56359">
        <ele>1367</ele>
        <time>2022-06-15T11:00:28Z</time>
      </trkpt>
      <trkpt lat="45.74293" lon="6.56357">
        <ele>1367.1</ele>
        <time>2022-06-15T11:00:29Z</time>
      </trkpt>
      <trkpt lat="45.74296" lon="6.56354">
        <ele>1367.2</ele>
        <time>2022-06-15T11:00:30Z</time>
      </trkpt>
      <trkpt lat="45.74298" lon="6.56352">
        <ele>1367.4</ele>
        <time>2022-06-15T11:00:31Z</time>
      </trkpt>
      <trkpt lat="45.74301" lon="6.5635">
        <ele>1367.6</ele>
        <time>2022-06-15T11:00:32Z</time>
      </trkpt>
      <trkpt lat="45.74304" lon="6.56349">
        <ele>1367.8</ele>
        <time>2022-06-15T11:00:33Z</time>
      </trkpt>
      <trkpt lat="45.74306" lon="6.56347">
        <ele>1368.1</ele>
        <time>2022-06-15T11:00:34Z</time>
      </trkpt>
      <trkpt lat="45.74309" lon="6.56345">
        <ele>1368.4</ele>
        <time>2022-06-15T11:00:35Z</time>
      </trkpt>
      <trkpt lat="45.74312" lon="6.56343">
        <ele>1368.7</ele>
        <time>2022-06-15T11:00:36Z</time>
      </trkpt>
      <trkpt lat="45.74314" lon="6.56341">
        <ele>1369.1</ele>
        <time>2022-06-15T11:00:37Z</time>
      </trkpt>
      <trkpt lat="45.74317" lon="6.56338">
        <ele>1369.4</ele>
        <time>2022-06-15T11:00:38Z</time>
      </trkpt>
      <trkpt lat="45.74319" lon="6.56336">
        <ele>1369.8</ele>
        <time>2022-06-15T11:00:39Z</time>
      </trkpt>
      <trkpt lat="45.74321" lon="6.56334">
        <ele>1370.1</ele>
        <time>2022-06-15T11:00:40Z</time>
      </trkpt>
      <trkpt lat="45.74324" lon="6.56331">
        <ele>1370.3</ele>
        <time>2022-06-15T11:00:41Z</time>
      </trkpt>
      <trkpt lat="45.74326" lon="6.56329">
        <ele>1370.5</ele>
        <time>2022-06-15T11:00:42Z</time>
      </trkpt>
      <trkpt lat="45.74328" lon="6.56326">
        <ele>1370.8</ele>
        <time>2022-06-15T11:00:43Z</time>
      </trkpt>
      <trkpt lat="45.7433" lon="6.56323">
        <ele>1371</ele>
        <time>2022-06-15T11:00:44Z</time>
      </trkpt>
      <trkpt lat="45.74331" lon="6.5632">
        <ele>1371.3</ele>
        <time>2022-06-15T11:00:45Z</time>
      </trkpt>
      <trkpt lat="45.74333" lon="6.56317">
        <ele>1371.5</ele>
        <time>2022-06-15T11:00:46Z</time>
      </trkpt>
      <trkpt lat="45.74334" lon="6.56313">
        <ele>1371.9</ele>
        <time>2022-06-15T11:00:47Z</time>
      </trkpt>
      <trkpt lat="45.74335" lon="6.5631">
        <ele>1372.4</ele>
        <time>2022-06-15T11:00:48Z</time>
      </trkpt>
      <trkpt lat="45.74336" lon="6.56307">
        <ele>1372.8</ele>
        <time>2022-06-15T11:00:49Z</time>
      </trkpt>
      <trkpt lat="45.74337" lon="6.56304">
        <ele>1373.2</ele>
        <time>2022-06-15T11:00:50Z</time>
      </trkpt>
      <trkpt lat="45.74338" lon="6.56301">
        <ele>1373.8</ele>
        <time>2022-06-15T11:00:51Z</time>
      </trkpt>
      <trkpt lat="45.74338" lon="6.56298">
        <ele>1374.2</ele>
        <time>2022-06-15T11:00:52Z</time>
      </trkpt>
      <trkpt lat="45.74339" lon="6.56295">
        <ele>1374.6</ele>
        <time>2022-06-15T11:00:53Z</time>
      </trkpt>
      <trkpt lat="45.74338" lon="6.56291">
        <ele>1374.8</ele>
        <time>2022-06-15T11:00:54Z</time>
      </trkpt>
      <trkpt lat="45.74338" lon="6.56288">
        <ele>1375</ele>
        <time>2022-06-15T11:00:55Z</time>
      </trkpt>
      <trkpt lat="45.74338" lon="6.56285">
        <ele>1375.1</ele>
        <time>2022-06-15T11:00:56Z</time>
      </trkpt>
      <trkpt lat="45.74337" lon="6.56282">
        <ele>1375.1</ele>
        <time>2022-06-15T11:00:57Z</time>
      </trkpt>
      <trkpt lat="45.74337" lon="6.56278">
        <ele>1375.3</ele>
        <time>2022-06-15T11:00:58Z</time>
      </trkpt>
      <trkpt lat="45.74336" lon="6.56275">
        <ele>1375.5</ele>
        <time>2022-06-15T11:00:59Z</time>
      </trkpt>
      <trkpt lat="45.74336" lon="6.56272">
        <ele>1375.6</ele>
        <time>2022-06-15T11:01:00Z</time>
      </trkpt>
      <trkpt lat="45.74335" lon="6.56269">
        <ele>1375.6</ele>
        <time>2022-06-15T11:01:01Z</time>
      </trkpt>
      <trkpt lat="45.74334" lon="6.56266">
        <ele>1375.5</ele>
        <time>2022-06-15T11:01:02Z</time>
      </trkpt>
      <trkpt lat="45.74333" lon="6.56263">
        <ele>1375.6</ele>
        <time>2022-06-15T11:01:03Z</time>
      </trkpt>
      <trkpt lat="45.74332" lon="6.5626">
        <ele>1375.8</ele>
        <time>2022-06-15T11:01:04Z</time>
      </trkpt>
      <trkpt lat="45.74332" lon="6.56257">
        <ele>1376</ele>
        <time>2022-06-15T11:01:05Z</time>
      </trkpt>
      <trkpt lat="45.74331" lon="6.56254">
        <ele>1376.2</ele>
        <time>2022-06-15T11:01:06Z</time>
      </trkpt>
      <trkpt lat="45.7433" lon="6.56251">
        <ele>1376.4</ele>
        <time>2022-06-15T11:01:07Z</time>
      </trkpt>
      <trkpt lat="45.7433" lon="6.56248">
        <ele>1376.6</ele>
        <time>2022-06-15T11:01:08Z</time>
      </trkpt>
      <trkpt lat="45.74329" lon="6.56245">
        <ele>1376.9</ele>
        <time>2022-06-15T11:01:09Z</time>
      </trkpt>
      <trkpt lat="45.74328" lon="6.56243">
        <ele>1377</ele>
        <time>2022-06-15T11:01:10Z</time>
      </trkpt>
      <trkpt lat="45.74327" lon="6.5624">
        <ele>1377.2</ele>
        <time>2022-06-15T11:01:11Z</time>
      </trkpt>
      <trkpt lat="45.74327" lon="6.56236">
        <ele>1377.5</ele>
        <time>2022-06-15T11:01:12Z</time>
      </trkpt>
      <trkpt lat="45.74326" lon="6.56233">
        <ele>1377.8</ele>
        <time>2022-06-15T11:01:13Z</time>
      </trkpt>
      <trkpt lat="45.74326" lon="6.5623">
        <ele>1378</ele>
        <time>2022-06-15T11:01:14Z</time>
      </trkpt>
      <trkpt lat="45.74325" lon="6.56227">
        <ele>1378.3</ele>
        <time>2022-06-15T11:01:15Z</time>
      </trkpt>
      <trkpt lat="45.74324" lon="6.56224">
        <ele>1378.5</ele>
        <time>2022-06-15T11:01:16Z</time>
      </trkpt>
      <trkpt lat="45.74323" lon="6.56221">
        <ele>1378.7</ele>
        <time>2022-06-15T11:01:17Z</time>
      </trkpt>
      <trkpt lat="45.74322" lon="6.56218">
        <ele>1378.8</ele>
        <time>2022-06-15T11:01:18Z</time>
      </trkpt>
      <trkpt lat="45.74321" lon="6.56215">
        <ele>1379</ele>
        <time>2022-06-15T11:01:19Z</time>
      </trkpt>
      <trkpt lat="45.7432" lon="6.56212">
        <ele>1379</ele>
        <time>2022-06-15T11:01:20Z</time>
      </trkpt>
      <trkpt lat="45.74319" lon="6.56209">
        <ele>1379.1</ele>
        <time>2022-06-15T11:01:21Z</time>
      </trkpt>
      <trkpt lat="45.74318" lon="6.56207">
        <ele>1379.1</ele>
        <time>2022-06-15T11:01:22Z</time>
      </trkpt>
      <trkpt lat="45.74317" lon="6.56204">
        <ele>1379.2</ele>
        <time>2022-06-15T11:01:23Z</time>
      </trkpt>
      <trkpt lat="45.74316" lon="6.56201">
        <ele>1379.3</ele>
        <time>2022-06-15T11:01:24Z</time>
      </trkpt>
      <trkpt lat="45.74315" lon="6.56198">
        <ele>1379.5</ele>
        <time>2022-06-15T11:01:25Z</time>
      </trkpt>
      <trkpt lat="45.74315" lon="6.56195">
        <ele>1379.6</ele>
        <time>2022-06-15T11:01:26Z</time>
      </trkpt>
      <trkpt lat="45.74314" lon="6.56192">
        <ele>1379.8</ele>
        <time>2022-06-15T11:01:27Z</time>
      </trkpt>
      <trkpt lat="45.74313" lon="6.56189">
        <ele>1380</ele>
        <time>2022-06-15T11:01:28Z</time>
      </trkpt>
      <trkpt lat="45.74312" lon="6.56186">
        <ele>1380.3</ele>
        <time>2022-06-15T11:01:29Z</time>
      </trkpt>
      <trkpt lat="45.74312" lon="6.56183">
        <ele>1380.5</ele>
        <time>2022-06-15T11:01:30Z</time>
      </trkpt>
      <trkpt lat="45.74311" lon="6.5618">
        <ele>1380.8</ele>
        <time>2022-06-15T11:01:31Z</time>
      </trkpt>
      <trkpt lat="45.7431" lon="6.56177">
        <ele>1380.9</ele>
        <time>2022-06-15T11:01:32Z</time>
      </trkpt>
      <trkpt lat="45.7431" lon="6.56174">
        <ele>1381.1</ele>
        <time>2022-06-15T11:01:33Z</time>
      </trkpt>
      <trkpt lat="45.74309" lon="6.56171">
        <ele>1381.3</ele>
        <time>2022-06-15T11:01:34Z</time>
      </trkpt>
      <trkpt lat="45.74308" lon="6.56168">
        <ele>1381.5</ele>
        <time>2022-06-15T11:01:35Z</time>
      </trkpt>
      <trkpt lat="45.74308" lon="6.56165">
        <ele>1381.6</ele>
        <time>2022-06-15T11:01:36Z</time>
      </trkpt>
      <trkpt lat="45.74307" lon="6.56162">
        <ele>1381.6</ele>
        <time>2022-06-15T11:01:37Z</time>
      </trkpt>
      <trkpt lat="45.74306" lon="6.56159">
        <ele>1381.7</ele>
        <time>2022-06-15T11:01:38Z</time>
      </trkpt>
      <trkpt lat="45.74305" lon="6.56156">
        <ele>1381.7</ele>
        <time>2022-06-15T11:01:39Z</time>
      </trkpt>
      <trkpt lat="45.74305" lon="6.56153">
        <ele>1381.8</ele>
        <time>2022-06-15T11:01:40Z</time>
      </trkpt>
      <trkpt lat="45.74304" lon="6.5615">
        <ele>1382</ele>
        <time>2022-06-15T11:01:41Z</time>
      </trkpt>
      <trkpt lat="45.74304" lon="6.56147">
        <ele>1382.2</ele>
        <time>2022-06-15T11:01:42Z</time>
      </trkpt>
      <trkpt lat="45.74304" lon="6.56144">
        <ele>1382.4</ele>
        <time>2022-06-15T11:01:43Z</time>
      </trkpt>
      <trkpt lat="45.74303" lon="6.56141">
        <ele>1382.6</ele>
        <time>2022-06-15T11:01:44Z</time>
      </trkpt>
      <trkpt lat="45.74303" lon="6.56138">
        <ele>1382.7</ele>
        <time>2022-06-15T11:01:45Z</time>
      </trkpt>
      <trkpt lat="45.74303" lon="6.56135">
        <ele>1382.9</ele>
        <time>2022-06-15T11:01:46Z</time>
      </trkpt>
      <trkpt lat="45.74302" lon="6.56131">
        <ele>1383.1</ele>
        <time>2022-06-15T11:01:47Z</time>
      </trkpt>
      <trkpt lat="45.74302" lon="6.56128">
        <ele>1383.3</ele>
        <time>2022-06-15T11:01:48Z</time>
      </trkpt>
      <trkpt lat="45.74302" lon="6.56125">
        <ele>1383.5</ele>
        <time>2022-06-15T11:01:49Z</time>
      </trkpt>
      <trkpt lat="45.74301" lon="6.56122">
        <ele>1383.7</ele>
        <time>2022-06-15T11:01:50Z</time>
      </trkpt>
      <trkpt lat="45.74301" lon="6.56119">
        <ele>1383.9</ele>
        <time>2022-06-15T11:01:51Z</time>
      </trkpt>
      <trkpt lat="45.74301" lon="6.56116">
        <ele>1384.1</ele>
        <time>2022-06-15T11:01:52Z</time>
      </trkpt>
      <trkpt lat="45.74301" lon="6.56113">
        <ele>1384.3</ele>
        <time>2022-06-15T11:01:53Z</time>
      </trkpt>
      <trkpt lat="45.743" lon="6.5611">
        <ele>1384.5</ele>
        <time>2022-06-15T11:01:54Z</time>
      </trkpt>
      <trkpt lat="45.743" lon="6.56107">
        <ele>1384.8</ele>
        <time>2022-06-15T11:01:55Z</time>
      </trkpt>
      <trkpt lat="45.743" lon="6.56104">
        <ele>1385.1</ele>
        <time>2022-06-15T11:01:56Z</time>
      </trkpt>
      <trkpt lat="45.743" lon="6.56101">
        <ele>1385.4</ele>
        <time>2022-06-15T11:01:57Z</time>
      </trkpt>
      <trkpt lat="45.74299" lon="6.56098">
        <ele>1385.6</ele>
        <time>2022-06-15T11:01:58Z</time>
      </trkpt>
      <trkpt lat="45.74299" lon="6.56095">
        <ele>1385.9</ele>
        <time>2022-06-15T11:01:59Z</time>
      </trkpt>
      <trkpt lat="45.74299" lon="6.56092">
        <ele>1386.1</ele>
        <time>2022-06-15T11:02:00Z</time>
      </trkpt>
      <trkpt lat="45.74298" lon="6.56089">
        <ele>1386.4</ele>
        <time>2022-06-15T11:02:01Z</time>
      </trkpt>
      <trkpt lat="45.74298" lon="6.56087">
        <ele>1386.5</ele>
        <time>2022-06-15T11:02:02Z</time>
      </trkpt>
      <trkpt lat="45.74297" lon="6.56084">
        <ele>1386.8</ele>
        <time>2022-06-15T11:02:03Z</time>
      </trkpt>
      <trkpt lat="45.74296" lon="6.56081">
        <ele>1386.9</ele>
        <time>2022-06-15T11:02:04Z</time>
      </trkpt>
      <trkpt lat="45.74295" lon="6.56078">
        <ele>1387.1</ele>
        <time>2022-06-15T11:02:05Z</time>
      </trkpt>
      <trkpt lat="45.74294" lon="6.56075">
        <ele>1387.2</ele>
        <time>2022-06-15T11:02:06Z</time>
      </trkpt>
      <trkpt lat="45.74293" lon="6.56072">
        <ele>1387.3</ele>
        <time>2022-06-15T11:02:07Z</time>
      </trkpt>
      <trkpt lat="45.74292" lon="6.56069">
        <ele>1387.6</ele>
        <time>2022-06-15T11:02:08Z</time>
      </trkpt>
      <trkpt lat="45.74291" lon="6.56066">
        <ele>1387.8</ele>
        <time>2022-06-15T11:02:09Z</time>
      </trkpt>
      <trkpt lat="45.74291" lon="6.56063">
        <ele>1388.1</ele>
        <time>2022-06-15T11:02:10Z</time>
      </trkpt>
      <trkpt lat="45.7429" lon="6.5606">
        <ele>1388.3</ele>
        <time>2022-06-15T11:02:11Z</time>
      </trkpt>
      <trkpt lat="45.74288" lon="6.56058">
        <ele>1388.5</ele>
        <time>2022-06-15T11:02:12Z</time>
      </trkpt>
      <trkpt lat="45.74287" lon="6.56055">
        <ele>1388.7</ele>
        <time>2022-06-15T11:02:13Z</time>
      </trkpt>
      <trkpt lat="45.74285" lon="6.56053">
        <ele>1389</ele>
        <time>2022-06-15T11:02:14Z</time>
      </trkpt>
      <trkpt lat="45.74284" lon="6.5605">
        <ele>1389.3</ele>
        <time>2022-06-15T11:02:15Z</time>
      </trkpt>
      <trkpt lat="45.74282" lon="6.56048">
        <ele>1389.5</ele>
        <time>2022-06-15T11:02:16Z</time>
      </trkpt>
      <trkpt lat="45.74281" lon="6.56046">
        <ele>1389.7</ele>
        <time>2022-06-15T11:02:17Z</time>
      </trkpt>
      <trkpt lat="45.74279" lon="6.56044">
        <ele>1389.9</ele>
        <time>2022-06-15T11:02:18Z</time>
      </trkpt>
      <trkpt lat="45.74277" lon="6.56042">
        <ele>1390</ele>
        <time>2022-06-15T11:02:19Z</time>
      </trkpt>
      <trkpt lat="45.74275" lon="6.5604">
        <ele>1390.1</ele>
        <time>2022-06-15T11:02:20Z</time>
      </trkpt>
      <trkpt lat="45.74274" lon="6.56038">
        <ele>1390.3</ele>
        <time>2022-06-15T11:02:21Z</time>
      </trkpt>
      <trkpt lat="45.74272" lon="6.56036">
        <ele>1390.5</ele>
        <time>2022-06-15T11:02:22Z</time>
      </trkpt>
      <trkpt lat="45.74271" lon="6.56034">
        <ele>1390.7</ele>
        <time>2022-06-15T11:02:23Z</time>
      </trkpt>
      <trkpt lat="45.74269" lon="6.56032">
        <ele>1390.9</ele>
        <time>2022-06-15T11:02:24Z</time>
      </trkpt>
      <trkpt lat="45.74267" lon="6.5603">
        <ele>1391</ele>
        <time>2022-06-15T11:02:25Z</time>
      </trkpt>
      <trkpt lat="45.74266" lon="6.56027">
        <ele>1391.2</ele>
        <time>2022-06-15T11:02:26Z</time>
      </trkpt>
      <trkpt lat="45.74264" lon="6.56025">
        <ele>1391.4</ele>
        <time>2022-06-15T11:02:27Z</time>
      </trkpt>
      <trkpt lat="45.74262" lon="6.56023">
        <ele>1391.6</ele>
        <time>2022-06-15T11:02:28Z</time>
      </trkpt>
      <trkpt lat="45.7426" lon="6.56021">
        <ele>1391.8</ele>
        <time>2022-06-15T11:02:29Z</time>
      </trkpt>
      <trkpt lat="45.74259" lon="6.5602">
        <ele>1392</ele>
        <time>2022-06-15T11:02:30Z</time>
      </trkpt>
      <trkpt lat="45.74257" lon="6.56018">
        <ele>1392.2</ele>
        <time>2022-06-15T11:02:31Z</time>
      </trkpt>
      <trkpt lat="45.74255" lon="6.56016">
        <ele>1392.4</ele>
        <time>2022-06-15T11:02:32Z</time>
      </trkpt>
      <trkpt lat="45.74254" lon="6.56014">
        <ele>1392.7</ele>
        <time>2022-06-15T11:02:33Z</time>
      </trkpt>
      <trkpt lat="45.74252" lon="6.56012">
        <ele>1393</ele>
        <time>2022-06-15T11:02:34Z</time>
      </trkpt>
      <trkpt lat="45.7425" lon="6.56009">
        <ele>1393.3</ele>
        <time>2022-06-15T11:02:35Z</time>
      </trkpt>
      <trkpt lat="45.74248" lon="6.56008">
        <ele>1393.3</ele>
        <time>2022-06-15T11:02:36Z</time>
      </trkpt>
      <trkpt lat="45.74246" lon="6.56005">
        <ele>1393.4</ele>
        <time>2022-06-15T11:02:37Z</time>
      </trkpt>
      <trkpt lat="45.74245" lon="6.56003">
        <ele>1393.6</ele>
        <time>2022-06-15T11:02:38Z</time>
      </trkpt>
      <trkpt lat="45.74244" lon="6.56">
        <ele>1393.9</ele>
        <time>2022-06-15T11:02:39Z</time>
      </trkpt>
      <trkpt lat="45.74243" lon="6.55997">
        <ele>1394.4</ele>
        <time>2022-06-15T11:02:40Z</time>
      </trkpt>
      <trkpt lat="45.74241" lon="6.55994">
        <ele>1394.6</ele>
        <time>2022-06-15T11:02:41Z</time>
      </trkpt>
      <trkpt lat="45.7424" lon="6.55991">
        <ele>1395</ele>
        <time>2022-06-15T11:02:42Z</time>
      </trkpt>
      <trkpt lat="45.74238" lon="6.55988">
        <ele>1395.3</ele>
        <time>2022-06-15T11:02:43Z</time>
      </trkpt>
      <trkpt lat="45.74236" lon="6.55985">
        <ele>1395.6</ele>
        <time>2022-06-15T11:02:44Z</time>
      </trkpt>
      <trkpt lat="45.74235" lon="6.55981">
        <ele>1395.9</ele>
        <time>2022-06-15T11:02:45Z</time>
      </trkpt>
      <trkpt lat="45.74233" lon="6.55977">
        <ele>1396.3</ele>
        <time>2022-06-15T11:02:46Z</time>
      </trkpt>
      <trkpt lat="45.74232" lon="6.55974">
        <ele>1396.8</ele>
        <time>2022-06-15T11:02:47Z</time>
      </trkpt>
      <trkpt lat="45.74231" lon="6.5597">
        <ele>1397.3</ele>
        <time>2022-06-15T11:02:48Z</time>
      </trkpt>
      <trkpt lat="45.7423" lon="6.55966">
        <ele>1397.6</ele>
        <time>2022-06-15T11:02:49Z</time>
      </trkpt>
      <trkpt lat="45.74229" lon="6.55963">
        <ele>1398</ele>
        <time>2022-06-15T11:02:50Z</time>
      </trkpt>
      <trkpt lat="45.74227" lon="6.5596">
        <ele>1398.2</ele>
        <time>2022-06-15T11:02:51Z</time>
      </trkpt>
      <trkpt lat="45.74225" lon="6.55957">
        <ele>1398.4</ele>
        <time>2022-06-15T11:02:52Z</time>
      </trkpt>
      <trkpt lat="45.74224" lon="6.55954">
        <ele>1398.6</ele>
        <time>2022-06-15T11:02:53Z</time>
      </trkpt>
      <trkpt lat="45.74222" lon="6.55951">
        <ele>1398.7</ele>
        <time>2022-06-15T11:02:54Z</time>
      </trkpt>
      <trkpt lat="45.74221" lon="6.55949">
        <ele>1398.9</ele>
        <time>2022-06-15T11:02:55Z</time>
      </trkpt>
      <trkpt lat="45.7422" lon="6.55946">
        <ele>1399.1</ele>
        <time>2022-06-15T11:02:56Z</time>
      </trkpt>
      <trkpt lat="45.74218" lon="6.55943">
        <ele>1399.2</ele>
        <time>2022-06-15T11:02:57Z</time>
      </trkpt>
      <trkpt lat="45.74217" lon="6.5594">
        <ele>1399.3</ele>
        <time>2022-06-15T11:02:58Z</time>
      </trkpt>
      <trkpt lat="45.74217" lon="6.55937">
        <ele>1399.5</ele>
        <time>2022-06-15T11:02:59Z</time>
      </trkpt>
      <trkpt lat="45.74216" lon="6.55934">
        <ele>1399.6</ele>
        <time>2022-06-15T11:03:00Z</time>
      </trkpt>
      <trkpt lat="45.74215" lon="6.55931">
        <ele>1399.8</ele>
        <time>2022-06-15T11:03:01Z</time>
      </trkpt>
      <trkpt lat="45.74214" lon="6.55927">
        <ele>1400</ele>
        <time>2022-06-15T11:03:02Z</time>
      </trkpt>
      <trkpt lat="45.74214" lon="6.55924">
        <ele>1400.3</ele>
        <time>2022-06-15T11:03:03Z</time>
      </trkpt>
      <trkpt lat="45.74214" lon="6.55921">
        <ele>1400.7</ele>
        <time>2022-06-15T11:03:04Z</time>
      </trkpt>
      <trkpt lat="45.74214" lon="6.55918">
        <ele>1401.1</ele>
        <time>2022-06-15T11:03:05Z</time>
      </trkpt>
      <trkpt lat="45.74214" lon="6.55915">
        <ele>1401.4</ele>
        <time>2022-06-15T11:03:06Z</time>
      </trkpt>
      <trkpt lat="45.74214" lon="6.55912">
        <ele>1401.7</ele>
        <time>2022-06-15T11:03:07Z</time>
      </trkpt>
      <trkpt lat="45.74214" lon="6.55908">
        <ele>1402</ele>
        <time>2022-06-15T11:03:08Z</time>
      </trkpt>
      <trkpt lat="45.74214" lon="6.55905">
        <ele>1402.3</ele>
        <time>2022-06-15T11:03:09Z</time>
      </trkpt>
      <trkpt lat="45.74214" lon="6.55902">
        <ele>1402.5</ele>
        <time>2022-06-15T11:03:10Z</time>
      </trkpt>
      <trkpt lat="45.74214" lon="6.55899">
        <ele>1402.8</ele>
        <time>2022-06-15T11:03:11Z</time>
      </trkpt>
      <trkpt lat="45.74213" lon="6.55896">
        <ele>1402.9</ele>
        <time>2022-06-15T11:03:12Z</time>
      </trkpt>
      <trkpt lat="45.74213" lon="6.55892">
        <ele>1402.9</ele>
        <time>2022-06-15T11:03:13Z</time>
      </trkpt>
      <trkpt lat="45.74212" lon="6.55889">
        <ele>1403</ele>
        <time>2022-06-15T11:03:14Z</time>
      </trkpt>
      <trkpt lat="45.74211" lon="6.55886">
        <ele>1402.9</ele>
        <time>2022-06-15T11:03:15Z</time>
      </trkpt>
      <trkpt lat="45.74211" lon="6.55883">
        <ele>1402.8</ele>
        <time>2022-06-15T11:03:16Z</time>
      </trkpt>
      <trkpt lat="45.74211" lon="6.5588">
        <ele>1402.9</ele>
        <time>2022-06-15T11:03:17Z</time>
      </trkpt>
      <trkpt lat="45.7421" lon="6.55877">
        <ele>1402.9</ele>
        <time>2022-06-15T11:03:18Z</time>
      </trkpt>
      <trkpt lat="45.7421" lon="6.55874">
        <ele>1402.8</ele>
        <time>2022-06-15T11:03:19Z</time>
      </trkpt>
      <trkpt lat="45.74209" lon="6.55871">
        <ele>1402.7</ele>
        <time>2022-06-15T11:03:20Z</time>
      </trkpt>
      <trkpt lat="45.74208" lon="6.55868">
        <ele>1402.7</ele>
        <time>2022-06-15T11:03:21Z</time>
      </trkpt>
      <trkpt lat="45.74208" lon="6.55865">
        <ele>1402.7</ele>
        <time>2022-06-15T11:03:22Z</time>
      </trkpt>
      <trkpt lat="45.74207" lon="6.55862">
        <ele>1402.7</ele>
        <time>2022-06-15T11:03:23Z</time>
      </trkpt>
      <trkpt lat="45.74207" lon="6.55859">
        <ele>1402.9</ele>
        <time>2022-06-15T11:03:24Z</time>
      </trkpt>
      <trkpt lat="45.74207" lon="6.55856">
        <ele>1403.1</ele>
        <time>2022-06-15T11:03:25Z</time>
      </trkpt>
      <trkpt lat="45.74207" lon="6.55852">
        <ele>1403.5</ele>
        <time>2022-06-15T11:03:26Z</time>
      </trkpt>
      <trkpt lat="45.74206" lon="6.55849">
        <ele>1403.8</ele>
        <time>2022-06-15T11:03:27Z</time>
      </trkpt>
      <trkpt lat="45.74206" lon="6.55845">
        <ele>1404.1</ele>
        <time>2022-06-15T11:03:28Z</time>
      </trkpt>
      <trkpt lat="45.74206" lon="6.55842">
        <ele>1404.3</ele>
        <time>2022-06-15T11:03:29Z</time>
      </trkpt>
      <trkpt lat="45.74205" lon="6.55839">
        <ele>1404.5</ele>
        <time>2022-06-15T11:03:30Z</time>
      </trkpt>
      <trkpt lat="45.74204" lon="6.55836">
        <ele>1404.7</ele>
        <time>2022-06-15T11:03:31Z</time>
      </trkpt>
      <trkpt lat="45.74204" lon="6.55833">
        <ele>1405.1</ele>
        <time>2022-06-15T11:03:32Z</time>
      </trkpt>
      <trkpt lat="45.74203" lon="6.5583">
        <ele>1405.5</ele>
        <time>2022-06-15T11:03:33Z</time>
      </trkpt>
      <trkpt lat="45.74202" lon="6.55827">
        <ele>1405.8</ele>
        <time>2022-06-15T11:03:34Z</time>
      </trkpt>
      <trkpt lat="45.74201" lon="6.55824">
        <ele>1406.1</ele>
        <time>2022-06-15T11:03:35Z</time>
      </trkpt>
      <trkpt lat="45.742" lon="6.55821">
        <ele>1406.4</ele>
        <time>2022-06-15T11:03:36Z</time>
      </trkpt>
      <trkpt lat="45.74199" lon="6.55819">
        <ele>1406.7</ele>
        <time>2022-06-15T11:03:37Z</time>
      </trkpt>
      <trkpt lat="45.74197" lon="6.55816">
        <ele>1406.9</ele>
        <time>2022-06-15T11:03:38Z</time>
      </trkpt>
      <trkpt lat="45.74196" lon="6.55813">
        <ele>1407.1</ele>
        <time>2022-06-15T11:03:39Z</time>
      </trkpt>
      <trkpt lat="45.74195" lon="6.55811">
        <ele>1407.3</ele>
        <time>2022-06-15T11:03:40Z</time>
      </trkpt>
      <trkpt lat="45.74193" lon="6.55808">
        <ele>1407.3</ele>
        <time>2022-06-15T11:03:41Z</time>
      </trkpt>
      <trkpt lat="45.74191" lon="6.55806">
        <ele>1407.2</ele>
        <time>2022-06-15T11:03:42Z</time>
      </trkpt>
      <trkpt lat="45.7419" lon="6.55803">
        <ele>1407.2</ele>
        <time>2022-06-15T11:03:43Z</time>
      </trkpt>
      <trkpt lat="45.74188" lon="6.55801">
        <ele>1407.2</ele>
        <time>2022-06-15T11:03:44Z</time>
      </trkpt>
      <trkpt lat="45.74187" lon="6.55799">
        <ele>1407.3</ele>
        <time>2022-06-15T11:03:45Z</time>
      </trkpt>
      <trkpt lat="45.74185" lon="6.55796">
        <ele>1407.6</ele>
        <time>2022-06-15T11:03:46Z</time>
      </trkpt>
      <trkpt lat="45.74184" lon="6.55793">
        <ele>1407.8</ele>
        <time>2022-06-15T11:03:47Z</time>
      </trkpt>
      <trkpt lat="45.74183" lon="6.5579">
        <ele>1408</ele>
        <time>2022-06-15T11:03:48Z</time>
      </trkpt>
      <trkpt lat="45.74182" lon="6.55788">
        <ele>1408.3</ele>
        <time>2022-06-15T11:03:49Z</time>
      </trkpt>
      <trkpt lat="45.74181" lon="6.55784">
        <ele>1408.8</ele>
        <time>2022-06-15T11:03:50Z</time>
      </trkpt>
      <trkpt lat="45.7418" lon="6.55781">
        <ele>1409.3</ele>
        <time>2022-06-15T11:03:51Z</time>
      </trkpt>
      <trkpt lat="45.7418" lon="6.55778">
        <ele>1409.7</ele>
        <time>2022-06-15T11:03:52Z</time>
      </trkpt>
      <trkpt lat="45.74179" lon="6.55775">
        <ele>1409.8</ele>
        <time>2022-06-15T11:03:53Z</time>
      </trkpt>
      <trkpt lat="45.74178" lon="6.55772">
        <ele>1409.9</ele>
        <time>2022-06-15T11:03:54Z</time>
      </trkpt>
      <trkpt lat="45.74177" lon="6.55769">
        <ele>1410</ele>
        <time>2022-06-15T11:03:55Z</time>
      </trkpt>
      <trkpt lat="45.74177" lon="6.55766">
        <ele>1410.2</ele>
        <time>2022-06-15T11:03:56Z</time>
      </trkpt>
      <trkpt lat="45.74176" lon="6.55763">
        <ele>1410.3</ele>
        <time>2022-06-15T11:03:57Z</time>
      </trkpt>
      <trkpt lat="45.74176" lon="6.55759">
        <ele>1410.4</ele>
        <time>2022-06-15T11:03:58Z</time>
      </trkpt>
      <trkpt lat="45.74175" lon="6.55756">
        <ele>1410.6</ele>
        <time>2022-06-15T11:03:59Z</time>
      </trkpt>
      <trkpt lat="45.74175" lon="6.55753">
        <ele>1410.8</ele>
        <time>2022-06-15T11:04:00Z</time>
      </trkpt>
      <trkpt lat="45.74175" lon="6.5575">
        <ele>1411</ele>
        <time>2022-06-15T11:04:01Z</time>
      </trkpt>
      <trkpt lat="45.74175" lon="6.55746">
        <ele>1411.3</ele>
        <time>2022-06-15T11:04:02Z</time>
      </trkpt>
      <trkpt lat="45.74174" lon="6.55743">
        <ele>1411.6</ele>
        <time>2022-06-15T11:04:03Z</time>
      </trkpt>
      <trkpt lat="45.74174" lon="6.5574">
        <ele>1411.8</ele>
        <time>2022-06-15T11:04:04Z</time>
      </trkpt>
      <trkpt lat="45.74174" lon="6.55737">
        <ele>1412</ele>
        <time>2022-06-15T11:04:05Z</time>
      </trkpt>
      <trkpt lat="45.74173" lon="6.55734">
        <ele>1412.1</ele>
        <time>2022-06-15T11:04:06Z</time>
      </trkpt>
      <trkpt lat="45.74173" lon="6.5573">
        <ele>1412.3</ele>
        <time>2022-06-15T11:04:07Z</time>
      </trkpt>
      <trkpt lat="45.74173" lon="6.55727">
        <ele>1412.5</ele>
        <time>2022-06-15T11:04:08Z</time>
      </trkpt>
      <trkpt lat="45.74173" lon="6.55724">
        <ele>1412.7</ele>
        <time>2022-06-15T11:04:09Z</time>
      </trkpt>
      <trkpt lat="45.74172" lon="6.55721">
        <ele>1412.9</ele>
        <time>2022-06-15T11:04:10Z</time>
      </trkpt>
      <trkpt lat="45.74172" lon="6.55718">
        <ele>1413.1</ele>
        <time>2022-06-15T11:04:11Z</time>
      </trkpt>
      <trkpt lat="45.74172" lon="6.55715">
        <ele>1413.3</ele>
        <time>2022-06-15T11:04:12Z</time>
      </trkpt>
      <trkpt lat="45.74171" lon="6.55712">
        <ele>1413.5</ele>
        <time>2022-06-15T11:04:13Z</time>
      </trkpt>
      <trkpt lat="45.74171" lon="6.55709">
        <ele>1413.7</ele>
        <time>2022-06-15T11:04:14Z</time>
      </trkpt>
      <trkpt lat="45.74171" lon="6.55706">
        <ele>1414</ele>
        <time>2022-06-15T11:04:15Z</time>
      </trkpt>
      <trkpt lat="45.7417" lon="6.55702">
        <ele>1414.2</ele>
        <time>2022-06-15T11:04:16Z</time>
      </trkpt>
      <trkpt lat="45.7417" lon="6.55699">
        <ele>1414.4</ele>
        <time>2022-06-15T11:04:17Z</time>
      </trkpt>
      <trkpt lat="45.74169" lon="6.55696">
        <ele>1414.6</ele>
        <time>2022-06-15T11:04:18Z</time>
      </trkpt>
      <trkpt lat="45.74169" lon="6.55693">
        <ele>1414.8</ele>
        <time>2022-06-15T11:04:19Z</time>
      </trkpt>
      <trkpt lat="45.74169" lon="6.5569">
        <ele>1414.9</ele>
        <time>2022-06-15T11:04:20Z</time>
      </trkpt>
      <trkpt lat="45.74168" lon="6.55687">
        <ele>1415</ele>
        <time>2022-06-15T11:04:21Z</time>
      </trkpt>
      <trkpt lat="45.74168" lon="6.55684">
        <ele>1415</ele>
        <time>2022-06-15T11:04:22Z</time>
      </trkpt>
      <trkpt lat="45.74167" lon="6.55681">
        <ele>1415.2</ele>
        <time>2022-06-15T11:04:23Z</time>
      </trkpt>
      <trkpt lat="45.74167" lon="6.55678">
        <ele>1415.3</ele>
        <time>2022-06-15T11:04:24Z</time>
      </trkpt>
      <trkpt lat="45.74167" lon="6.55675">
        <ele>1415.5</ele>
        <time>2022-06-15T11:04:25Z</time>
      </trkpt>
      <trkpt lat="45.74167" lon="6.55672">
        <ele>1415.6</ele>
        <time>2022-06-15T11:04:26Z</time>
      </trkpt>
      <trkpt lat="45.74166" lon="6.55669">
        <ele>1415.7</ele>
        <time>2022-06-15T11:04:27Z</time>
      </trkpt>
      <trkpt lat="45.74165" lon="6.55666">
        <ele>1415.7</ele>
        <time>2022-06-15T11:04:28Z</time>
      </trkpt>
      <trkpt lat="45.74164" lon="6.55663">
        <ele>1415.7</ele>
        <time>2022-06-15T11:04:29Z</time>
      </trkpt>
      <trkpt lat="45.74163" lon="6.5566">
        <ele>1415.6</ele>
        <time>2022-06-15T11:04:30Z</time>
      </trkpt>
      <trkpt lat="45.74162" lon="6.55657">
        <ele>1415.6</ele>
        <time>2022-06-15T11:04:31Z</time>
      </trkpt>
      <trkpt lat="45.74161" lon="6.55654">
        <ele>1415.5</ele>
        <time>2022-06-15T11:04:32Z</time>
      </trkpt>
      <trkpt lat="45.74159" lon="6.55652">
        <ele>1415.5</ele>
        <time>2022-06-15T11:04:33Z</time>
      </trkpt>
      <trkpt lat="45.74159" lon="6.55648">
        <ele>1415.6</ele>
        <time>2022-06-15T11:04:34Z</time>
      </trkpt>
      <trkpt lat="45.74159" lon="6.55645">
        <ele>1415.8</ele>
        <time>2022-06-15T11:04:35Z</time>
      </trkpt>
      <trkpt lat="45.74159" lon="6.55642">
        <ele>1416</ele>
        <time>2022-06-15T11:04:36Z</time>
      </trkpt>
      <trkpt lat="45.74159" lon="6.55639">
        <ele>1416.3</ele>
        <time>2022-06-15T11:04:37Z</time>
      </trkpt>
      <trkpt lat="45.74161" lon="6.55636">
        <ele>1416.8</ele>
        <time>2022-06-15T11:04:38Z</time>
      </trkpt>
      <trkpt lat="45.74162" lon="6.55634">
        <ele>1417.3</ele>
        <time>2022-06-15T11:04:39Z</time>
      </trkpt>
      <trkpt lat="45.74164" lon="6.55633">
        <ele>1417.7</ele>
        <time>2022-06-15T11:04:40Z</time>
      </trkpt>
      <trkpt lat="45.74166" lon="6.55633">
        <ele>1418</ele>
        <time>2022-06-15T11:04:41Z</time>
      </trkpt>
      <trkpt lat="45.74168" lon="6.55634">
        <ele>1418.4</ele>
        <time>2022-06-15T11:04:42Z</time>
      </trkpt>
      <trkpt lat="45.7417" lon="6.55636">
        <ele>1418.6</ele>
        <time>2022-06-15T11:04:43Z</time>
      </trkpt>
      <trkpt lat="45.74172" lon="6.55638">
        <ele>1418.7</ele>
        <time>2022-06-15T11:04:44Z</time>
      </trkpt>
      <trkpt lat="45.74173" lon="6.55641">
        <ele>1418.9</ele>
        <time>2022-06-15T11:04:45Z</time>
      </trkpt>
      <trkpt lat="45.74174" lon="6.55644">
        <ele>1419.1</ele>
        <time>2022-06-15T11:04:46Z</time>
      </trkpt>
      <trkpt lat="45.74175" lon="6.55647">
        <ele>1419.3</ele>
        <time>2022-06-15T11:04:47Z</time>
      </trkpt>
      <trkpt lat="45.74176" lon="6.55651">
        <ele>1419.5</ele>
        <time>2022-06-15T11:04:48Z</time>
      </trkpt>
      <trkpt lat="45.74177" lon="6.55654">
        <ele>1419.6</ele>
        <time>2022-06-15T11:04:49Z</time>
      </trkpt>
      <trkpt lat="45.74178" lon="6.55657">
        <ele>1419.8</ele>
        <time>2022-06-15T11:04:50Z</time>
      </trkpt>
      <trkpt lat="45.74179" lon="6.55661">
        <ele>1419.9</ele>
        <time>2022-06-15T11:04:51Z</time>
      </trkpt>
      <trkpt lat="45.7418" lon="6.55664">
        <ele>1419.9</ele>
        <time>2022-06-15T11:04:52Z</time>
      </trkpt>
      <trkpt lat="45.7418" lon="6.55667">
        <ele>1419.8</ele>
        <time>2022-06-15T11:04:53Z</time>
      </trkpt>
      <trkpt lat="45.74181" lon="6.55671">
        <ele>1419.8</ele>
        <time>2022-06-15T11:04:54Z</time>
      </trkpt>
      <trkpt lat="45.74182" lon="6.55674">
        <ele>1419.8</ele>
        <time>2022-06-15T11:04:55Z</time>
      </trkpt>
      <trkpt lat="45.74183" lon="6.55677">
        <ele>1419.8</ele>
        <time>2022-06-15T11:04:56Z</time>
      </trkpt>
      <trkpt lat="45.74184" lon="6.5568">
        <ele>1419.9</ele>
        <time>2022-06-15T11:04:57Z</time>
      </trkpt>
      <trkpt lat="45.74185" lon="6.55683">
        <ele>1420</ele>
        <time>2022-06-15T11:04:58Z</time>
      </trkpt>
      <trkpt lat="45.74186" lon="6.55686">
        <ele>1420.2</ele>
        <time>2022-06-15T11:04:59Z</time>
      </trkpt>
      <trkpt lat="45.74187" lon="6.55689">
        <ele>1420.3</ele>
        <time>2022-06-15T11:05:00Z</time>
      </trkpt>
      <trkpt lat="45.74189" lon="6.55692">
        <ele>1420.5</ele>
        <time>2022-06-15T11:05:01Z</time>
      </trkpt>
      <trkpt lat="45.7419" lon="6.55695">
        <ele>1420.5</ele>
        <time>2022-06-15T11:05:02Z</time>
      </trkpt>
      <trkpt lat="45.74191" lon="6.55698">
        <ele>1420.6</ele>
        <time>2022-06-15T11:05:03Z</time>
      </trkpt>
      <trkpt lat="45.74192" lon="6.55701">
        <ele>1420.7</ele>
        <time>2022-06-15T11:05:04Z</time>
      </trkpt>
      <trkpt lat="45.74193" lon="6.55704">
        <ele>1420.8</ele>
        <time>2022-06-15T11:05:05Z</time>
      </trkpt>
      <trkpt lat="45.74194" lon="6.55706">
        <ele>1421</ele>
        <time>2022-06-15T11:05:06Z</time>
      </trkpt>
      <trkpt lat="45.74195" lon="6.55709">
        <ele>1421.2</ele>
        <time>2022-06-15T11:05:07Z</time>
      </trkpt>
      <trkpt lat="45.74196" lon="6.55712">
        <ele>1421.3</ele>
        <time>2022-06-15T11:05:08Z</time>
      </trkpt>
      <trkpt lat="45.74198" lon="6.55714">
        <ele>1421.5</ele>
        <time>2022-06-15T11:05:09Z</time>
      </trkpt>
      <trkpt lat="45.74199" lon="6.55717">
        <ele>1421.7</ele>
        <time>2022-06-15T11:05:10Z</time>
      </trkpt>
      <trkpt lat="45.742" lon="6.55719">
        <ele>1421.8</ele>
        <time>2022-06-15T11:05:11Z</time>
      </trkpt>
      <trkpt lat="45.74201" lon="6.55722">
        <ele>1422</ele>
        <time>2022-06-15T11:05:12Z</time>
      </trkpt>
      <trkpt lat="45.74203" lon="6.55725">
        <ele>1422</ele>
        <time>2022-06-15T11:05:13Z</time>
      </trkpt>
      <trkpt lat="45.74204" lon="6.55727">
        <ele>1422</ele>
        <time>2022-06-15T11:05:14Z</time>
      </trkpt>
      <trkpt lat="45.74205" lon="6.5573">
        <ele>1422</ele>
        <time>2022-06-15T11:05:15Z</time>
      </trkpt>
      <trkpt lat="45.74207" lon="6.55732">
        <ele>1422.2</ele>
        <time>2022-06-15T11:05:16Z</time>
      </trkpt>
      <trkpt lat="45.74208" lon="6.55734">
        <ele>1422.3</ele>
        <time>2022-06-15T11:05:17Z</time>
      </trkpt>
      <trkpt lat="45.7421" lon="6.55737">
        <ele>1422.4</ele>
        <time>2022-06-15T11:05:18Z</time>
      </trkpt>
      <trkpt lat="45.74211" lon="6.55739">
        <ele>1422.4</ele>
        <time>2022-06-15T11:05:19Z</time>
      </trkpt>
      <trkpt lat="45.74213" lon="6.55741">
        <ele>1422.5</ele>
        <time>2022-06-15T11:05:20Z</time>
      </trkpt>
      <trkpt lat="45.74214" lon="6.55744">
        <ele>1422.7</ele>
        <time>2022-06-15T11:05:21Z</time>
      </trkpt>
      <trkpt lat="45.74216" lon="6.55746">
        <ele>1422.9</ele>
        <time>2022-06-15T11:05:22Z</time>
      </trkpt>
      <trkpt lat="45.74218" lon="6.55747">
        <ele>1423.2</ele>
        <time>2022-06-15T11:05:23Z</time>
      </trkpt>
      <trkpt lat="45.7422" lon="6.55749">
        <ele>1423.5</ele>
        <time>2022-06-15T11:05:24Z</time>
      </trkpt>
      <trkpt lat="45.74222" lon="6.55751">
        <ele>1423.8</ele>
        <time>2022-06-15T11:05:25Z</time>
      </trkpt>
      <trkpt lat="45.74224" lon="6.55752">
        <ele>1423.9</ele>
        <time>2022-06-15T11:05:26Z</time>
      </trkpt>
      <trkpt lat="45.74226" lon="6.55754">
        <ele>1424</ele>
        <time>2022-06-15T11:05:27Z</time>
      </trkpt>
      <trkpt lat="45.74228" lon="6.55755">
        <ele>1424.1</ele>
        <time>2022-06-15T11:05:28Z</time>
      </trkpt>
      <trkpt lat="45.7423" lon="6.55756">
        <ele>1424.2</ele>
        <time>2022-06-15T11:05:29Z</time>
      </trkpt>
      <trkpt lat="45.74232" lon="6.55757">
        <ele>1424.4</ele>
        <time>2022-06-15T11:05:30Z</time>
      </trkpt>
      <trkpt lat="45.74234" lon="6.55758">
        <ele>1424.8</ele>
        <time>2022-06-15T11:05:31Z</time>
      </trkpt>
      <trkpt lat="45.74236" lon="6.55759">
        <ele>1425</ele>
        <time>2022-06-15T11:05:32Z</time>
      </trkpt>
      <trkpt lat="45.74238" lon="6.5576">
        <ele>1425.3</ele>
        <time>2022-06-15T11:05:33Z</time>
      </trkpt>
      <trkpt lat="45.74241" lon="6.55761">
        <ele>1425.6</ele>
        <time>2022-06-15T11:05:34Z</time>
      </trkpt>
      <trkpt lat="45.74243" lon="6.55762">
        <ele>1425.9</ele>
        <time>2022-06-15T11:05:35Z</time>
      </trkpt>
      <trkpt lat="45.74245" lon="6.55763">
        <ele>1426.1</ele>
        <time>2022-06-15T11:05:36Z</time>
      </trkpt>
      <trkpt lat="45.74247" lon="6.55764">
        <ele>1426.2</ele>
        <time>2022-06-15T11:05:37Z</time>
      </trkpt>
      <trkpt lat="45.74249" lon="6.55766">
        <ele>1426.4</ele>
        <time>2022-06-15T11:05:38Z</time>
      </trkpt>
      <trkpt lat="45.74251" lon="6.55767">
        <ele>1426.7</ele>
        <time>2022-06-15T11:05:39Z</time>
      </trkpt>
      <trkpt lat="45.74253" lon="6.55768">
        <ele>1426.9</ele>
        <time>2022-06-15T11:05:40Z</time>
      </trkpt>
      <trkpt lat="45.74255" lon="6.5577">
        <ele>1427</ele>
        <time>2022-06-15T11:05:41Z</time>
      </trkpt>
      <trkpt lat="45.74257" lon="6.55772">
        <ele>1427</ele>
        <time>2022-06-15T11:05:42Z</time>
      </trkpt>
      <trkpt lat="45.74259" lon="6.55774">
        <ele>1427.1</ele>
        <time>2022-06-15T11:05:43Z</time>
      </trkpt>
      <trkpt lat="45.7426" lon="6.55776">
        <ele>1427.3</ele>
        <time>2022-06-15T11:05:44Z</time>
      </trkpt>
      <trkpt lat="45.74262" lon="6.55778">
        <ele>1427.3</ele>
        <time>2022-06-15T11:05:45Z</time>
      </trkpt>
      <trkpt lat="45.74264" lon="6.55781">
        <ele>1427.4</ele>
        <time>2022-06-15T11:05:46Z</time>
      </trkpt>
      <trkpt lat="45.74265" lon="6.55783">
        <ele>1427.5</ele>
        <time>2022-06-15T11:05:47Z</time>
      </trkpt>
      <trkpt lat="45.74267" lon="6.55785">
        <ele>1427.5</ele>
        <time>2022-06-15T11:05:48Z</time>
      </trkpt>
      <trkpt lat="45.74268" lon="6.55787">
        <ele>1427.5</ele>
        <time>2022-06-15T11:05:49Z</time>
      </trkpt>
      <trkpt lat="45.7427" lon="6.55789">
        <ele>1427.6</ele>
        <time>2022-06-15T11:05:50Z</time>
      </trkpt>
      <trkpt lat="45.74271" lon="6.55791">
        <ele>1427.6</ele>
        <time>2022-06-15T11:05:51Z</time>
      </trkpt>
      <trkpt lat="45.74273" lon="6.55793">
        <ele>1427.7</ele>
        <time>2022-06-15T11:05:52Z</time>
      </trkpt>
      <trkpt lat="45.74274" lon="6.55795">
        <ele>1427.8</ele>
        <time>2022-06-15T11:05:53Z</time>
      </trkpt>
      <trkpt lat="45.74275" lon="6.55796">
        <ele>1427.9</ele>
        <time>2022-06-15T11:05:54Z</time>
      </trkpt>
      <trkpt lat="45.74275" lon="6.55797">
        <ele>1427.9</ele>
        <time>2022-06-15T11:05:55Z</time>
      </trkpt>
      <trkpt lat="45.74275" lon="6.55797">
        <ele>1427.9</ele>
        <time>2022-06-15T11:05:56Z</time>
      </trkpt>
      <trkpt lat="45.7428" lon="6.55798">
        <ele>1428.7</ele>
        <time>2022-06-15T11:07:38Z</time>
      </trkpt>
      <trkpt lat="45.74282" lon="6.55799">
        <ele>1428.8</ele>
        <time>2022-06-15T11:07:39Z</time>
      </trkpt>
      <trkpt lat="45.74284" lon="6.558">
        <ele>1428.9</ele>
        <time>2022-06-15T11:07:40Z</time>
      </trkpt>
      <trkpt lat="45.74286" lon="6.55801">
        <ele>1429.1</ele>
        <time>2022-06-15T11:07:41Z</time>
      </trkpt>
      <trkpt lat="45.74288" lon="6.55802">
        <ele>1429.1</ele>
        <time>2022-06-15T11:07:42Z</time>
      </trkpt>
      <trkpt lat="45.74291" lon="6.55804">
        <ele>1429.3</ele>
        <time>2022-06-15T11:07:43Z</time>
      </trkpt>
      <trkpt lat="45.74293" lon="6.55805">
        <ele>1429.4</ele>
        <time>2022-06-15T11:07:44Z</time>
      </trkpt>
      <trkpt lat="45.74296" lon="6.55806">
        <ele>1429.6</ele>
        <time>2022-06-15T11:07:45Z</time>
      </trkpt>
      <trkpt lat="45.74299" lon="6.55806">
        <ele>1430</ele>
        <time>2022-06-15T11:07:46Z</time>
      </trkpt>
      <trkpt lat="45.74302" lon="6.55805">
        <ele>1430.5</ele>
        <time>2022-06-15T11:07:47Z</time>
      </trkpt>
      <trkpt lat="45.74304" lon="6.55805">
        <ele>1430.9</ele>
        <time>2022-06-15T11:07:48Z</time>
      </trkpt>
      <trkpt lat="45.74307" lon="6.55806">
        <ele>1431.1</ele>
        <time>2022-06-15T11:07:49Z</time>
      </trkpt>
      <trkpt lat="45.7431" lon="6.55807">
        <ele>1431.2</ele>
        <time>2022-06-15T11:07:50Z</time>
      </trkpt>
      <trkpt lat="45.74312" lon="6.55807">
        <ele>1431.3</ele>
        <time>2022-06-15T11:07:51Z</time>
      </trkpt>
      <trkpt lat="45.74315" lon="6.55808">
        <ele>1431.4</ele>
        <time>2022-06-15T11:07:52Z</time>
      </trkpt>
      <trkpt lat="45.74317" lon="6.55809">
        <ele>1431.5</ele>
        <time>2022-06-15T11:07:53Z</time>
      </trkpt>
      <trkpt lat="45.7432" lon="6.55809">
        <ele>1431.7</ele>
        <time>2022-06-15T11:07:54Z</time>
      </trkpt>
      <trkpt lat="45.74322" lon="6.5581">
        <ele>1431.8</ele>
        <time>2022-06-15T11:07:55Z</time>
      </trkpt>
      <trkpt lat="45.74325" lon="6.5581">
        <ele>1431.9</ele>
        <time>2022-06-15T11:07:56Z</time>
      </trkpt>
      <trkpt lat="45.74327" lon="6.55811">
        <ele>1432</ele>
        <time>2022-06-15T11:07:57Z</time>
      </trkpt>
      <trkpt lat="45.74329" lon="6.55812">
        <ele>1432.2</ele>
        <time>2022-06-15T11:07:58Z</time>
      </trkpt>
      <trkpt lat="45.74332" lon="6.55812">
        <ele>1432.4</ele>
        <time>2022-06-15T11:07:59Z</time>
      </trkpt>
      <trkpt lat="45.74334" lon="6.55812">
        <ele>1432.7</ele>
        <time>2022-06-15T11:08:00Z</time>
      </trkpt>
      <trkpt lat="45.74336" lon="6.55813">
        <ele>1433</ele>
        <time>2022-06-15T11:08:01Z</time>
      </trkpt>
      <trkpt lat="45.74339" lon="6.55813">
        <ele>1433.3</ele>
        <time>2022-06-15T11:08:02Z</time>
      </trkpt>
      <trkpt lat="45.74341" lon="6.55814">
        <ele>1433.6</ele>
        <time>2022-06-15T11:08:03Z</time>
      </trkpt>
      <trkpt lat="45.74343" lon="6.55815">
        <ele>1433.9</ele>
        <time>2022-06-15T11:08:04Z</time>
      </trkpt>
      <trkpt lat="45.74345" lon="6.55815">
        <ele>1434.2</ele>
        <time>2022-06-15T11:08:05Z</time>
      </trkpt>
      <trkpt lat="45.74348" lon="6.55815">
        <ele>1434.6</ele>
        <time>2022-06-15T11:08:06Z</time>
      </trkpt>
      <trkpt lat="45.7435" lon="6.55816">
        <ele>1435</ele>
        <time>2022-06-15T11:08:07Z</time>
      </trkpt>
      <trkpt lat="45.74352" lon="6.55817">
        <ele>1435.3</ele>
        <time>2022-06-15T11:08:08Z</time>
      </trkpt>
      <trkpt lat="45.74354" lon="6.55817">
        <ele>1435.7</ele>
        <time>2022-06-15T11:08:09Z</time>
      </trkpt>
      <trkpt lat="45.74356" lon="6.55818">
        <ele>1435.9</ele>
        <time>2022-06-15T11:08:10Z</time>
      </trkpt>
      <trkpt lat="45.74359" lon="6.55819">
        <ele>1436</ele>
        <time>2022-06-15T11:08:11Z</time>
      </trkpt>
      <trkpt lat="45.74361" lon="6.55821">
        <ele>1436.1</ele>
        <time>2022-06-15T11:08:12Z</time>
      </trkpt>
      <trkpt lat="45.74363" lon="6.55822">
        <ele>1436.5</ele>
        <time>2022-06-15T11:08:13Z</time>
      </trkpt>
      <trkpt lat="45.74365" lon="6.55824">
        <ele>1436.9</ele>
        <time>2022-06-15T11:08:14Z</time>
      </trkpt>
      <trkpt lat="45.74366" lon="6.55826">
        <ele>1437.2</ele>
        <time>2022-06-15T11:08:15Z</time>
      </trkpt>
      <trkpt lat="45.74368" lon="6.55827">
        <ele>1437.6</ele>
        <time>2022-06-15T11:08:16Z</time>
      </trkpt>
      <trkpt lat="45.7437" lon="6.55829">
        <ele>1437.9</ele>
        <time>2022-06-15T11:08:17Z</time>
      </trkpt>
      <trkpt lat="45.74371" lon="6.55832">
        <ele>1438.2</ele>
        <time>2022-06-15T11:08:18Z</time>
      </trkpt>
      <trkpt lat="45.74372" lon="6.55834">
        <ele>1438.3</ele>
        <time>2022-06-15T11:08:19Z</time>
      </trkpt>
      <trkpt lat="45.74373" lon="6.55837">
        <ele>1438.4</ele>
        <time>2022-06-15T11:08:20Z</time>
      </trkpt>
      <trkpt lat="45.74374" lon="6.55839">
        <ele>1438.3</ele>
        <time>2022-06-15T11:08:21Z</time>
      </trkpt>
      <trkpt lat="45.74375" lon="6.55842">
        <ele>1438.2</ele>
        <time>2022-06-15T11:08:22Z</time>
      </trkpt>
      <trkpt lat="45.74376" lon="6.55845">
        <ele>1438.3</ele>
        <time>2022-06-15T11:08:23Z</time>
      </trkpt>
      <trkpt lat="45.74377" lon="6.55847">
        <ele>1438.4</ele>
        <time>2022-06-15T11:08:24Z</time>
      </trkpt>
      <trkpt lat="45.74378" lon="6.5585">
        <ele>1438.7</ele>
        <time>2022-06-15T11:08:25Z</time>
      </trkpt>
      <trkpt lat="45.74379" lon="6.55852">
        <ele>1438.9</ele>
        <time>2022-06-15T11:08:26Z</time>
      </trkpt>
      <trkpt lat="45.74379" lon="6.55855">
        <ele>1438.9</ele>
        <time>2022-06-15T11:08:27Z</time>
      </trkpt>
      <trkpt lat="45.7438" lon="6.55858">
        <ele>1438.8</ele>
        <time>2022-06-15T11:08:28Z</time>
      </trkpt>
      <trkpt lat="45.74381" lon="6.55861">
        <ele>1438.8</ele>
        <time>2022-06-15T11:08:29Z</time>
      </trkpt>
      <trkpt lat="45.74381" lon="6.55863">
        <ele>1438.8</ele>
        <time>2022-06-15T11:08:30Z</time>
      </trkpt>
      <trkpt lat="45.74382" lon="6.55866">
        <ele>1439</ele>
        <time>2022-06-15T11:08:31Z</time>
      </trkpt>
      <trkpt lat="45.74383" lon="6.55869">
        <ele>1439.2</ele>
        <time>2022-06-15T11:08:32Z</time>
      </trkpt>
      <trkpt lat="45.74384" lon="6.55871">
        <ele>1439.2</ele>
        <time>2022-06-15T11:08:33Z</time>
      </trkpt>
      <trkpt lat="45.74384" lon="6.55874">
        <ele>1439.2</ele>
        <time>2022-06-15T11:08:34Z</time>
      </trkpt>
      <trkpt lat="45.74385" lon="6.55876">
        <ele>1439.3</ele>
        <time>2022-06-15T11:08:35Z</time>
      </trkpt>
      <trkpt lat="45.74386" lon="6.55879">
        <ele>1439.3</ele>
        <time>2022-06-15T11:08:36Z</time>
      </trkpt>
      <trkpt lat="45.74386" lon="6.55882">
        <ele>1439.4</ele>
        <time>2022-06-15T11:08:37Z</time>
      </trkpt>
      <trkpt lat="45.74387" lon="6.55885">
        <ele>1439.5</ele>
        <time>2022-06-15T11:08:38Z</time>
      </trkpt>
      <trkpt lat="45.74388" lon="6.55888">
        <ele>1439.7</ele>
        <time>2022-06-15T11:08:39Z</time>
      </trkpt>
      <trkpt lat="45.74389" lon="6.5589">
        <ele>1439.9</ele>
        <time>2022-06-15T11:08:40Z</time>
      </trkpt>
      <trkpt lat="45.7439" lon="6.55893">
        <ele>1440</ele>
        <time>2022-06-15T11:08:41Z</time>
      </trkpt>
      <trkpt lat="45.74391" lon="6.55896">
        <ele>1440</ele>
        <time>2022-06-15T11:08:42Z</time>
      </trkpt>
      <trkpt lat="45.74392" lon="6.55898">
        <ele>1440.1</ele>
        <time>2022-06-15T11:08:43Z</time>
      </trkpt>
      <trkpt lat="45.74393" lon="6.55901">
        <ele>1440</ele>
        <time>2022-06-15T11:08:44Z</time>
      </trkpt>
      <trkpt lat="45.74394" lon="6.55904">
        <ele>1440.1</ele>
        <time>2022-06-15T11:08:45Z</time>
      </trkpt>
      <trkpt lat="45.74395" lon="6.55907">
        <ele>1440</ele>
        <time>2022-06-15T11:08:46Z</time>
      </trkpt>
      <trkpt lat="45.74396" lon="6.55909">
        <ele>1440</ele>
        <time>2022-06-15T11:08:47Z</time>
      </trkpt>
      <trkpt lat="45.74397" lon="6.55912">
        <ele>1439.9</ele>
        <time>2022-06-15T11:08:48Z</time>
      </trkpt>
      <trkpt lat="45.74398" lon="6.55915">
        <ele>1439.8</ele>
        <time>2022-06-15T11:08:49Z</time>
      </trkpt>
      <trkpt lat="45.74399" lon="6.55918">
        <ele>1439.8</ele>
        <time>2022-06-15T11:08:50Z</time>
      </trkpt>
      <trkpt lat="45.744" lon="6.55921">
        <ele>1439.8</ele>
        <time>2022-06-15T11:08:51Z</time>
      </trkpt>
      <trkpt lat="45.74401" lon="6.55923">
        <ele>1439.9</ele>
        <time>2022-06-15T11:08:52Z</time>
      </trkpt>
      <trkpt lat="45.74403" lon="6.55925">
        <ele>1440</ele>
        <time>2022-06-15T11:08:53Z</time>
      </trkpt>
      <trkpt lat="45.74404" lon="6.55928">
        <ele>1440.2</ele>
        <time>2022-06-15T11:08:54Z</time>
      </trkpt>
      <trkpt lat="45.74406" lon="6.5593">
        <ele>1440.5</ele>
        <time>2022-06-15T11:08:55Z</time>
      </trkpt>
      <trkpt lat="45.74407" lon="6.55932">
        <ele>1440.8</ele>
        <time>2022-06-15T11:08:56Z</time>
      </trkpt>
      <trkpt lat="45.74409" lon="6.55934">
        <ele>1441.3</ele>
        <time>2022-06-15T11:08:57Z</time>
      </trkpt>
      <trkpt lat="45.74411" lon="6.55935">
        <ele>1441.9</ele>
        <time>2022-06-15T11:08:58Z</time>
      </trkpt>
      <trkpt lat="45.74414" lon="6.55936">
        <ele>1442.6</ele>
        <time>2022-06-15T11:08:59Z</time>
      </trkpt>
      <trkpt lat="45.74416" lon="6.55936">
        <ele>1443.4</ele>
        <time>2022-06-15T11:09:00Z</time>
      </trkpt>
      <trkpt lat="45.74418" lon="6.55936">
        <ele>1443.9</ele>
        <time>2022-06-15T11:09:01Z</time>
      </trkpt>
      <trkpt lat="45.7442" lon="6.55934">
        <ele>1444.2</ele>
        <time>2022-06-15T11:09:02Z</time>
      </trkpt>
      <trkpt lat="45.74422" lon="6.55932">
        <ele>1444.6</ele>
        <time>2022-06-15T11:09:03Z</time>
      </trkpt>
      <trkpt lat="45.74423" lon="6.5593">
        <ele>1445</ele>
        <time>2022-06-15T11:09:04Z</time>
      </trkpt>
      <trkpt lat="45.74424" lon="6.55927">
        <ele>1445.4</ele>
        <time>2022-06-15T11:09:05Z</time>
      </trkpt>
      <trkpt lat="45.74424" lon="6.55924">
        <ele>1445.7</ele>
        <time>2022-06-15T11:09:06Z</time>
      </trkpt>
      <trkpt lat="45.74424" lon="6.55921">
        <ele>1445.9</ele>
        <time>2022-06-15T11:09:07Z</time>
      </trkpt>
      <trkpt lat="45.74423" lon="6.55918">
        <ele>1446</ele>
        <time>2022-06-15T11:09:08Z</time>
      </trkpt>
      <trkpt lat="45.74422" lon="6.55915">
        <ele>1446.2</ele>
        <time>2022-06-15T11:09:09Z</time>
      </trkpt>
      <trkpt lat="45.7442" lon="6.55912">
        <ele>1446.5</ele>
        <time>2022-06-15T11:09:10Z</time>
      </trkpt>
      <trkpt lat="45.74418" lon="6.55909">
        <ele>1446.7</ele>
        <time>2022-06-15T11:09:11Z</time>
      </trkpt>
      <trkpt lat="45.74416" lon="6.55906">
        <ele>1446.8</ele>
        <time>2022-06-15T11:09:12Z</time>
      </trkpt>
      <trkpt lat="45.74414" lon="6.55903">
        <ele>1446.6</ele>
        <time>2022-06-15T11:09:13Z</time>
      </trkpt>
      <trkpt lat="45.74412" lon="6.559">
        <ele>1446.4</ele>
        <time>2022-06-15T11:09:14Z</time>
      </trkpt>
      <trkpt lat="45.7441" lon="6.55897">
        <ele>1446.3</ele>
        <time>2022-06-15T11:09:15Z</time>
      </trkpt>
      <trkpt lat="45.74408" lon="6.55894">
        <ele>1446.2</ele>
        <time>2022-06-15T11:09:16Z</time>
      </trkpt>
      <trkpt lat="45.74407" lon="6.5589">
        <ele>1446.2</ele>
        <time>2022-06-15T11:09:17Z</time>
      </trkpt>
      <trkpt lat="45.74405" lon="6.55887">
        <ele>1446</ele>
        <time>2022-06-15T11:09:18Z</time>
      </trkpt>
      <trkpt lat="45.74404" lon="6.55883">
        <ele>1446</ele>
        <time>2022-06-15T11:09:19Z</time>
      </trkpt>
      <trkpt lat="45.74403" lon="6.55879">
        <ele>1445.9</ele>
        <time>2022-06-15T11:09:20Z</time>
      </trkpt>
      <trkpt lat="45.74403" lon="6.55876">
        <ele>1446.1</ele>
        <time>2022-06-15T11:09:21Z</time>
      </trkpt>
      <trkpt lat="45.74402" lon="6.55872">
        <ele>1446.3</ele>
        <time>2022-06-15T11:09:22Z</time>
      </trkpt>
      <trkpt lat="45.74402" lon="6.55868">
        <ele>1446.6</ele>
        <time>2022-06-15T11:09:23Z</time>
      </trkpt>
      <trkpt lat="45.74402" lon="6.55864">
        <ele>1446.8</ele>
        <time>2022-06-15T11:09:24Z</time>
      </trkpt>
      <trkpt lat="45.74402" lon="6.55861">
        <ele>1447.2</ele>
        <time>2022-06-15T11:09:25Z</time>
      </trkpt>
      <trkpt lat="45.74402" lon="6.55858">
        <ele>1447.4</ele>
        <time>2022-06-15T11:09:26Z</time>
      </trkpt>
      <trkpt lat="45.74402" lon="6.55855">
        <ele>1447.7</ele>
        <time>2022-06-15T11:09:27Z</time>
      </trkpt>
      <trkpt lat="45.74403" lon="6.55852">
        <ele>1447.9</ele>
        <time>2022-06-15T11:09:28Z</time>
      </trkpt>
      <trkpt lat="45.74403" lon="6.55848">
        <ele>1448.1</ele>
        <time>2022-06-15T11:09:29Z</time>
      </trkpt>
      <trkpt lat="45.74403" lon="6.55845">
        <ele>1448.4</ele>
        <time>2022-06-15T11:09:30Z</time>
      </trkpt>
      <trkpt lat="45.74403" lon="6.55842">
        <ele>1448.6</ele>
        <time>2022-06-15T11:09:31Z</time>
      </trkpt>
      <trkpt lat="45.74403" lon="6.55839">
        <ele>1448.9</ele>
        <time>2022-06-15T11:09:32Z</time>
      </trkpt>
      <trkpt lat="45.74404" lon="6.55836">
        <ele>1449.1</ele>
        <time>2022-06-15T11:09:33Z</time>
      </trkpt>
      <trkpt lat="45.74404" lon="6.55833">
        <ele>1449.3</ele>
        <time>2022-06-15T11:09:34Z</time>
      </trkpt>
      <trkpt lat="45.74404" lon="6.55829">
        <ele>1449.5</ele>
        <time>2022-06-15T11:09:35Z</time>
      </trkpt>
      <trkpt lat="45.74404" lon="6.55826">
        <ele>1449.7</ele>
        <time>2022-06-15T11:09:36Z</time>
      </trkpt>
      <trkpt lat="45.74404" lon="6.55823">
        <ele>1450</ele>
        <time>2022-06-15T11:09:37Z</time>
      </trkpt>
      <trkpt lat="45.74404" lon="6.5582">
        <ele>1450.2</ele>
        <time>2022-06-15T11:09:38Z</time>
      </trkpt>
      <trkpt lat="45.74404" lon="6.55817">
        <ele>1450.5</ele>
        <time>2022-06-15T11:09:39Z</time>
      </trkpt>
      <trkpt lat="45.74404" lon="6.55814">
        <ele>1450.8</ele>
        <time>2022-06-15T11:09:40Z</time>
      </trkpt>
      <trkpt lat="45.74404" lon="6.55811">
        <ele>1451</ele>
        <time>2022-06-15T11:09:41Z</time>
      </trkpt>
      <trkpt lat="45.74404" lon="6.55807">
        <ele>1451.2</ele>
        <time>2022-06-15T11:09:42Z</time>
      </trkpt>
      <trkpt lat="45.74404" lon="6.55804">
        <ele>1451.6</ele>
        <time>2022-06-15T11:09:43Z</time>
      </trkpt>
      <trkpt lat="45.74403" lon="6.55801">
        <ele>1452.1</ele>
        <time>2022-06-15T11:09:44Z</time>
      </trkpt>
      <trkpt lat="45.74402" lon="6.55798">
        <ele>1452.5</ele>
        <time>2022-06-15T11:09:45Z</time>
      </trkpt>
      <trkpt lat="45.74401" lon="6.55795">
        <ele>1452.9</ele>
        <time>2022-06-15T11:09:46Z</time>
      </trkpt>
      <trkpt lat="45.744" lon="6.55792">
        <ele>1453.2</ele>
        <time>2022-06-15T11:09:47Z</time>
      </trkpt>
      <trkpt lat="45.74399" lon="6.5579">
        <ele>1453.5</ele>
        <time>2022-06-15T11:09:48Z</time>
      </trkpt>
      <trkpt lat="45.74398" lon="6.55787">
        <ele>1453.7</ele>
        <time>2022-06-15T11:09:49Z</time>
      </trkpt>
      <trkpt lat="45.74396" lon="6.55785">
        <ele>1453.9</ele>
        <time>2022-06-15T11:09:50Z</time>
      </trkpt>
      <trkpt lat="45.74395" lon="6.55782">
        <ele>1454.2</ele>
        <time>2022-06-15T11:09:51Z</time>
      </trkpt>
      <trkpt lat="45.74393" lon="6.5578">
        <ele>1454.5</ele>
        <time>2022-06-15T11:09:52Z</time>
      </trkpt>
      <trkpt lat="45.74392" lon="6.55778">
        <ele>1454.7</ele>
        <time>2022-06-15T11:09:53Z</time>
      </trkpt>
      <trkpt lat="45.7439" lon="6.55776">
        <ele>1454.7</ele>
        <time>2022-06-15T11:09:54Z</time>
      </trkpt>
      <trkpt lat="45.74389" lon="6.55773">
        <ele>1454.8</ele>
        <time>2022-06-15T11:09:55Z</time>
      </trkpt>
      <trkpt lat="45.74387" lon="6.55771">
        <ele>1454.8</ele>
        <time>2022-06-15T11:09:56Z</time>
      </trkpt>
      <trkpt lat="45.74386" lon="6.55769">
        <ele>1455</ele>
        <time>2022-06-15T11:09:57Z</time>
      </trkpt>
      <trkpt lat="45.74384" lon="6.55766">
        <ele>1455.1</ele>
        <time>2022-06-15T11:09:58Z</time>
      </trkpt>
      <trkpt lat="45.74383" lon="6.55764">
        <ele>1455.2</ele>
        <time>2022-06-15T11:09:59Z</time>
      </trkpt>
      <trkpt lat="45.74381" lon="6.55762">
        <ele>1455.4</ele>
        <time>2022-06-15T11:10:00Z</time>
      </trkpt>
      <trkpt lat="45.7438" lon="6.5576">
        <ele>1455.5</ele>
        <time>2022-06-15T11:10:01Z</time>
      </trkpt>
      <trkpt lat="45.74379" lon="6.55757">
        <ele>1455.8</ele>
        <time>2022-06-15T11:10:02Z</time>
      </trkpt>
      <trkpt lat="45.74377" lon="6.55755">
        <ele>1456</ele>
        <time>2022-06-15T11:10:03Z</time>
      </trkpt>
      <trkpt lat="45.74376" lon="6.55752">
        <ele>1456.3</ele>
        <time>2022-06-15T11:10:04Z</time>
      </trkpt>
      <trkpt lat="45.74375" lon="6.5575">
        <ele>1456.5</ele>
        <time>2022-06-15T11:10:05Z</time>
      </trkpt>
      <trkpt lat="45.74374" lon="6.55747">
        <ele>1456.6</ele>
        <time>2022-06-15T11:10:06Z</time>
      </trkpt>
      <trkpt lat="45.74373" lon="6.55744">
        <ele>1456.8</ele>
        <time>2022-06-15T11:10:07Z</time>
      </trkpt>
      <trkpt lat="45.74372" lon="6.55742">
        <ele>1457</ele>
        <time>2022-06-15T11:10:08Z</time>
      </trkpt>
      <trkpt lat="45.74372" lon="6.55739">
        <ele>1457.3</ele>
        <time>2022-06-15T11:10:09Z</time>
      </trkpt>
      <trkpt lat="45.74371" lon="6.55736">
        <ele>1457.6</ele>
        <time>2022-06-15T11:10:10Z</time>
      </trkpt>
      <trkpt lat="45.74371" lon="6.55733">
        <ele>1457.8</ele>
        <time>2022-06-15T11:10:11Z</time>
      </trkpt>
      <trkpt lat="45.7437" lon="6.5573">
        <ele>1458</ele>
        <time>2022-06-15T11:10:12Z</time>
      </trkpt>
      <trkpt lat="45.74369" lon="6.55727">
        <ele>1458.2</ele>
        <time>2022-06-15T11:10:13Z</time>
      </trkpt>
      <trkpt lat="45.74369" lon="6.55724">
        <ele>1458.4</ele>
        <time>2022-06-15T11:10:14Z</time>
      </trkpt>
      <trkpt lat="45.74368" lon="6.55721">
        <ele>1458.6</ele>
        <time>2022-06-15T11:10:15Z</time>
      </trkpt>
      <trkpt lat="45.74367" lon="6.55718">
        <ele>1458.6</ele>
        <time>2022-06-15T11:10:16Z</time>
      </trkpt>
      <trkpt lat="45.74367" lon="6.55715">
        <ele>1458.7</ele>
        <time>2022-06-15T11:10:17Z</time>
      </trkpt>
      <trkpt lat="45.74366" lon="6.55712">
        <ele>1458.8</ele>
        <time>2022-06-15T11:10:18Z</time>
      </trkpt>
      <trkpt lat="45.74365" lon="6.55709">
        <ele>1458.9</ele>
        <time>2022-06-15T11:10:19Z</time>
      </trkpt>
      <trkpt lat="45.74364" lon="6.55706">
        <ele>1458.9</ele>
        <time>2022-06-15T11:10:20Z</time>
      </trkpt>
      <trkpt lat="45.74363" lon="6.55704">
        <ele>1458.8</ele>
        <time>2022-06-15T11:10:21Z</time>
      </trkpt>
      <trkpt lat="45.74362" lon="6.55701">
        <ele>1458.8</ele>
        <time>2022-06-15T11:10:22Z</time>
      </trkpt>
      <trkpt lat="45.74361" lon="6.55698">
        <ele>1458.7</ele>
        <time>2022-06-15T11:10:23Z</time>
      </trkpt>
      <trkpt lat="45.7436" lon="6.55696">
        <ele>1458.7</ele>
        <time>2022-06-15T11:10:24Z</time>
      </trkpt>
      <trkpt lat="45.74359" lon="6.55693">
        <ele>1458.9</ele>
        <time>2022-06-15T11:10:25Z</time>
      </trkpt>
      <trkpt lat="45.74358" lon="6.5569">
        <ele>1459.3</ele>
        <time>2022-06-15T11:10:26Z</time>
      </trkpt>
      <trkpt lat="45.74356" lon="6.55688">
        <ele>1459.6</ele>
        <time>2022-06-15T11:10:27Z</time>
      </trkpt>
      <trkpt lat="45.74355" lon="6.55686">
        <ele>1460</ele>
        <time>2022-06-15T11:10:28Z</time>
      </trkpt>
      <trkpt lat="45.74354" lon="6.55683">
        <ele>1460.3</ele>
        <time>2022-06-15T11:10:29Z</time>
      </trkpt>
      <trkpt lat="45.74352" lon="6.55681">
        <ele>1460.5</ele>
        <time>2022-06-15T11:10:30Z</time>
      </trkpt>
      <trkpt lat="45.74351" lon="6.55679">
        <ele>1460.8</ele>
        <time>2022-06-15T11:10:31Z</time>
      </trkpt>
      <trkpt lat="45.74349" lon="6.55677">
        <ele>1461.1</ele>
        <time>2022-06-15T11:10:32Z</time>
      </trkpt>
      <trkpt lat="45.74348" lon="6.55675">
        <ele>1461.5</ele>
        <time>2022-06-15T11:10:33Z</time>
      </trkpt>
      <trkpt lat="45.74346" lon="6.55673">
        <ele>1461.8</ele>
        <time>2022-06-15T11:10:34Z</time>
      </trkpt>
      <trkpt lat="45.74345" lon="6.55672">
        <ele>1462</ele>
        <time>2022-06-15T11:10:35Z</time>
      </trkpt>
      <trkpt lat="45.74343" lon="6.5567">
        <ele>1462.3</ele>
        <time>2022-06-15T11:10:36Z</time>
      </trkpt>
      <trkpt lat="45.74342" lon="6.55668">
        <ele>1462.6</ele>
        <time>2022-06-15T11:10:37Z</time>
      </trkpt>
      <trkpt lat="45.7434" lon="6.55666">
        <ele>1462.8</ele>
        <time>2022-06-15T11:10:38Z</time>
      </trkpt>
      <trkpt lat="45.74338" lon="6.55664">
        <ele>1463</ele>
        <time>2022-06-15T11:10:39Z</time>
      </trkpt>
      <trkpt lat="45.74337" lon="6.55662">
        <ele>1463.2</ele>
        <time>2022-06-15T11:10:40Z</time>
      </trkpt>
      <trkpt lat="45.74336" lon="6.55659">
        <ele>1463.4</ele>
        <time>2022-06-15T11:10:41Z</time>
      </trkpt>
      <trkpt lat="45.74334" lon="6.55657">
        <ele>1463.5</ele>
        <time>2022-06-15T11:10:42Z</time>
      </trkpt>
      <trkpt lat="45.74333" lon="6.55655">
        <ele>1463.6</ele>
        <time>2022-06-15T11:10:43Z</time>
      </trkpt>
      <trkpt lat="45.74332" lon="6.55652">
        <ele>1463.7</ele>
        <time>2022-06-15T11:10:44Z</time>
      </trkpt>
      <trkpt lat="45.74331" lon="6.5565">
        <ele>1463.9</ele>
        <time>2022-06-15T11:10:45Z</time>
      </trkpt>
      <trkpt lat="45.74329" lon="6.55647">
        <ele>1464</ele>
        <time>2022-06-15T11:10:46Z</time>
      </trkpt>
      <trkpt lat="45.74328" lon="6.55644">
        <ele>1464.1</ele>
        <time>2022-06-15T11:10:47Z</time>
      </trkpt>
      <trkpt lat="45.74327" lon="6.55641">
        <ele>1464.3</ele>
        <time>2022-06-15T11:10:48Z</time>
      </trkpt>
      <trkpt lat="45.74326" lon="6.55638">
        <ele>1464.5</ele>
        <time>2022-06-15T11:10:49Z</time>
      </trkpt>
      <trkpt lat="45.74326" lon="6.55636">
        <ele>1464.6</ele>
        <time>2022-06-15T11:10:50Z</time>
      </trkpt>
      <trkpt lat="45.74325" lon="6.55633">
        <ele>1464.8</ele>
        <time>2022-06-15T11:10:51Z</time>
      </trkpt>
      <trkpt lat="45.74325" lon="6.5563">
        <ele>1465</ele>
        <time>2022-06-15T11:10:52Z</time>
      </trkpt>
      <trkpt lat="45.74324" lon="6.55627">
        <ele>1465.1</ele>
        <time>2022-06-15T11:10:53Z</time>
      </trkpt>
      <trkpt lat="45.74324" lon="6.55623">
        <ele>1465.4</ele>
        <time>2022-06-15T11:10:54Z</time>
      </trkpt>
      <trkpt lat="45.74323" lon="6.5562">
        <ele>1465.6</ele>
        <time>2022-06-15T11:10:55Z</time>
      </trkpt>
      <trkpt lat="45.74322" lon="6.55617">
        <ele>1465.8</ele>
        <time>2022-06-15T11:10:56Z</time>
      </trkpt>
      <trkpt lat="45.74322" lon="6.55615">
        <ele>1466</ele>
        <time>2022-06-15T11:10:57Z</time>
      </trkpt>
      <trkpt lat="45.74322" lon="6.55612">
        <ele>1466.3</ele>
        <time>2022-06-15T11:10:58Z</time>
      </trkpt>
      <trkpt lat="45.74322" lon="6.55609">
        <ele>1466.5</ele>
        <time>2022-06-15T11:10:59Z</time>
      </trkpt>
      <trkpt lat="45.74323" lon="6.55606">
        <ele>1466.7</ele>
        <time>2022-06-15T11:11:00Z</time>
      </trkpt>
      <trkpt lat="45.74323" lon="6.55603">
        <ele>1466.8</ele>
        <time>2022-06-15T11:11:01Z</time>
      </trkpt>
      <trkpt lat="45.74323" lon="6.556">
        <ele>1466.9</ele>
        <time>2022-06-15T11:11:02Z</time>
      </trkpt>
      <trkpt lat="45.74323" lon="6.55597">
        <ele>1467</ele>
        <time>2022-06-15T11:11:03Z</time>
      </trkpt>
      <trkpt lat="45.74323" lon="6.55594">
        <ele>1467.2</ele>
        <time>2022-06-15T11:11:04Z</time>
      </trkpt>
      <trkpt lat="45.74323" lon="6.55591">
        <ele>1467.3</ele>
        <time>2022-06-15T11:11:05Z</time>
      </trkpt>
      <trkpt lat="45.74323" lon="6.55588">
        <ele>1467.4</ele>
        <time>2022-06-15T11:11:06Z</time>
      </trkpt>
      <trkpt lat="45.74323" lon="6.55585">
        <ele>1467.4</ele>
        <time>2022-06-15T11:11:07Z</time>
      </trkpt>
      <trkpt lat="45.74323" lon="6.55582">
        <ele>1467.7</ele>
        <time>2022-06-15T11:11:08Z</time>
      </trkpt>
      <trkpt lat="45.74322" lon="6.55579">
        <ele>1467.9</ele>
        <time>2022-06-15T11:11:09Z</time>
      </trkpt>
      <trkpt lat="45.74322" lon="6.55576">
        <ele>1468.2</ele>
        <time>2022-06-15T11:11:10Z</time>
      </trkpt>
      <trkpt lat="45.74322" lon="6.55573">
        <ele>1468.4</ele>
        <time>2022-06-15T11:11:11Z</time>
      </trkpt>
      <trkpt lat="45.74321" lon="6.55571">
        <ele>1468.6</ele>
        <time>2022-06-15T11:11:12Z</time>
      </trkpt>
      <trkpt lat="45.74321" lon="6.55568">
        <ele>1468.9</ele>
        <time>2022-06-15T11:11:13Z</time>
      </trkpt>
      <trkpt lat="45.7432" lon="6.55565">
        <ele>1469.1</ele>
        <time>2022-06-15T11:11:14Z</time>
      </trkpt>
      <trkpt lat="45.74319" lon="6.55562">
        <ele>1469.2</ele>
        <time>2022-06-15T11:11:15Z</time>
      </trkpt>
      <trkpt lat="45.74318" lon="6.55559">
        <ele>1469.4</ele>
        <time>2022-06-15T11:11:16Z</time>
      </trkpt>
      <trkpt lat="45.74318" lon="6.55556">
        <ele>1469.7</ele>
        <time>2022-06-15T11:11:17Z</time>
      </trkpt>
      <trkpt lat="45.74317" lon="6.55553">
        <ele>1469.9</ele>
        <time>2022-06-15T11:11:18Z</time>
      </trkpt>
      <trkpt lat="45.74317" lon="6.5555">
        <ele>1470.1</ele>
        <time>2022-06-15T11:11:19Z</time>
      </trkpt>
      <trkpt lat="45.74317" lon="6.55547">
        <ele>1470.4</ele>
        <time>2022-06-15T11:11:20Z</time>
      </trkpt>
      <trkpt lat="45.74317" lon="6.55544">
        <ele>1470.6</ele>
        <time>2022-06-15T11:11:21Z</time>
      </trkpt>
      <trkpt lat="45.74317" lon="6.55541">
        <ele>1470.8</ele>
        <time>2022-06-15T11:11:22Z</time>
      </trkpt>
      <trkpt lat="45.74316" lon="6.55538">
        <ele>1471</ele>
        <time>2022-06-15T11:11:23Z</time>
      </trkpt>
      <trkpt lat="45.74316" lon="6.55536">
        <ele>1471.2</ele>
        <time>2022-06-15T11:11:24Z</time>
      </trkpt>
      <trkpt lat="45.74315" lon="6.55533">
        <ele>1471.2</ele>
        <time>2022-06-15T11:11:25Z</time>
      </trkpt>
      <trkpt lat="45.74314" lon="6.5553">
        <ele>1471.3</ele>
        <time>2022-06-15T11:11:26Z</time>
      </trkpt>
      <trkpt lat="45.74313" lon="6.55528">
        <ele>1471.3</ele>
        <time>2022-06-15T11:11:27Z</time>
      </trkpt>
      <trkpt lat="45.74312" lon="6.55526">
        <ele>1471.4</ele>
        <time>2022-06-15T11:11:28Z</time>
      </trkpt>
      <trkpt lat="45.74311" lon="6.55523">
        <ele>1471.4</ele>
        <time>2022-06-15T11:11:29Z</time>
      </trkpt>
      <trkpt lat="45.7431" lon="6.5552">
        <ele>1471.6</ele>
        <time>2022-06-15T11:11:30Z</time>
      </trkpt>
      <trkpt lat="45.74309" lon="6.55518">
        <ele>1471.8</ele>
        <time>2022-06-15T11:11:31Z</time>
      </trkpt>
      <trkpt lat="45.74308" lon="6.55515">
        <ele>1471.9</ele>
        <time>2022-06-15T11:11:32Z</time>
      </trkpt>
      <trkpt lat="45.74307" lon="6.55512">
        <ele>1472.1</ele>
        <time>2022-06-15T11:11:33Z</time>
      </trkpt>
      <trkpt lat="45.74306" lon="6.55509">
        <ele>1472.1</ele>
        <time>2022-06-15T11:11:34Z</time>
      </trkpt>
      <trkpt lat="45.74306" lon="6.55507">
        <ele>1472.3</ele>
        <time>2022-06-15T11:11:35Z</time>
      </trkpt>
      <trkpt lat="45.74305" lon="6.55504">
        <ele>1472.3</ele>
        <time>2022-06-15T11:11:36Z</time>
      </trkpt>
      <trkpt lat="45.74304" lon="6.55501">
        <ele>1472.4</ele>
        <time>2022-06-15T11:11:37Z</time>
      </trkpt>
      <trkpt lat="45.74303" lon="6.55498">
        <ele>1472.5</ele>
        <time>2022-06-15T11:11:38Z</time>
      </trkpt>
      <trkpt lat="45.74302" lon="6.55495">
        <ele>1472.6</ele>
        <time>2022-06-15T11:11:39Z</time>
      </trkpt>
      <trkpt lat="45.74302" lon="6.55493">
        <ele>1472.7</ele>
        <time>2022-06-15T11:11:40Z</time>
      </trkpt>
      <trkpt lat="45.74302" lon="6.5549">
        <ele>1472.8</ele>
        <time>2022-06-15T11:11:41Z</time>
      </trkpt>
      <trkpt lat="45.74301" lon="6.55488">
        <ele>1472.8</ele>
        <time>2022-06-15T11:11:42Z</time>
      </trkpt>
      <trkpt lat="45.74301" lon="6.55485">
        <ele>1472.9</ele>
        <time>2022-06-15T11:11:43Z</time>
      </trkpt>
      <trkpt lat="45.743" lon="6.55482">
        <ele>1473.1</ele>
        <time>2022-06-15T11:11:44Z</time>
      </trkpt>
      <trkpt lat="45.743" lon="6.55479">
        <ele>1473.2</ele>
        <time>2022-06-15T11:11:45Z</time>
      </trkpt>
      <trkpt lat="45.743" lon="6.55476">
        <ele>1473.4</ele>
        <time>2022-06-15T11:11:46Z</time>
      </trkpt>
      <trkpt lat="45.743" lon="6.55473">
        <ele>1473.6</ele>
        <time>2022-06-15T11:11:47Z</time>
      </trkpt>
      <trkpt lat="45.743" lon="6.5547">
        <ele>1473.8</ele>
        <time>2022-06-15T11:11:48Z</time>
      </trkpt>
      <trkpt lat="45.743" lon="6.55467">
        <ele>1473.9</ele>
        <time>2022-06-15T11:11:49Z</time>
      </trkpt>
      <trkpt lat="45.743" lon="6.55464">
        <ele>1474.1</ele>
        <time>2022-06-15T11:11:50Z</time>
      </trkpt>
      <trkpt lat="45.743" lon="6.55461">
        <ele>1474.2</ele>
        <time>2022-06-15T11:11:51Z</time>
      </trkpt>
      <trkpt lat="45.743" lon="6.55458">
        <ele>1474.4</ele>
        <time>2022-06-15T11:11:52Z</time>
      </trkpt>
      <trkpt lat="45.743" lon="6.55455">
        <ele>1474.6</ele>
        <time>2022-06-15T11:11:53Z</time>
      </trkpt>
      <trkpt lat="45.74301" lon="6.55452">
        <ele>1474.8</ele>
        <time>2022-06-15T11:11:54Z</time>
      </trkpt>
      <trkpt lat="45.74301" lon="6.55449">
        <ele>1474.9</ele>
        <time>2022-06-15T11:11:55Z</time>
      </trkpt>
      <trkpt lat="45.74301" lon="6.55446">
        <ele>1475.1</ele>
        <time>2022-06-15T11:11:56Z</time>
      </trkpt>
      <trkpt lat="45.74301" lon="6.55443">
        <ele>1475.2</ele>
        <time>2022-06-15T11:11:57Z</time>
      </trkpt>
      <trkpt lat="45.74301" lon="6.5544">
        <ele>1475.4</ele>
        <time>2022-06-15T11:11:58Z</time>
      </trkpt>
      <trkpt lat="45.74302" lon="6.55436">
        <ele>1475.5</ele>
        <time>2022-06-15T11:11:59Z</time>
      </trkpt>
      <trkpt lat="45.74302" lon="6.55433">
        <ele>1475.7</ele>
        <time>2022-06-15T11:12:00Z</time>
      </trkpt>
      <trkpt lat="45.74303" lon="6.5543">
        <ele>1475.9</ele>
        <time>2022-06-15T11:12:01Z</time>
      </trkpt>
      <trkpt lat="45.74303" lon="6.55427">
        <ele>1476.1</ele>
        <time>2022-06-15T11:12:02Z</time>
      </trkpt>
      <trkpt lat="45.74304" lon="6.55424">
        <ele>1476.3</ele>
        <time>2022-06-15T11:12:03Z</time>
      </trkpt>
      <trkpt lat="45.74304" lon="6.5542">
        <ele>1476.4</ele>
        <time>2022-06-15T11:12:04Z</time>
      </trkpt>
      <trkpt lat="45.74304" lon="6.55417">
        <ele>1476.6</ele>
        <time>2022-06-15T11:12:05Z</time>
      </trkpt>
      <trkpt lat="45.74304" lon="6.55414">
        <ele>1476.7</ele>
        <time>2022-06-15T11:12:06Z</time>
      </trkpt>
      <trkpt lat="45.74305" lon="6.55411">
        <ele>1476.8</ele>
        <time>2022-06-15T11:12:07Z</time>
      </trkpt>
      <trkpt lat="45.74306" lon="6.55408">
        <ele>1477</ele>
        <time>2022-06-15T11:12:08Z</time>
      </trkpt>
      <trkpt lat="45.74306" lon="6.55405">
        <ele>1477.1</ele>
        <time>2022-06-15T11:12:09Z</time>
      </trkpt>
      <trkpt lat="45.74307" lon="6.55402">
        <ele>1477.3</ele>
        <time>2022-06-15T11:12:10Z</time>
      </trkpt>
      <trkpt lat="45.74308" lon="6.55399">
        <ele>1477.4</ele>
        <time>2022-06-15T11:12:11Z</time>
      </trkpt>
      <trkpt lat="45.74308" lon="6.55397">
        <ele>1477.6</ele>
        <time>2022-06-15T11:12:12Z</time>
      </trkpt>
      <trkpt lat="45.74309" lon="6.55394">
        <ele>1477.7</ele>
        <time>2022-06-15T11:12:13Z</time>
      </trkpt>
      <trkpt lat="45.7431" lon="6.55391">
        <ele>1477.8</ele>
        <time>2022-06-15T11:12:14Z</time>
      </trkpt>
      <trkpt lat="45.7431" lon="6.55388">
        <ele>1478</ele>
        <time>2022-06-15T11:12:15Z</time>
      </trkpt>
      <trkpt lat="45.7431" lon="6.55385">
        <ele>1478.1</ele>
        <time>2022-06-15T11:12:16Z</time>
      </trkpt>
      <trkpt lat="45.74311" lon="6.55382">
        <ele>1478.3</ele>
        <time>2022-06-15T11:12:17Z</time>
      </trkpt>
      <trkpt lat="45.74311" lon="6.55379">
        <ele>1478.4</ele>
        <time>2022-06-15T11:12:18Z</time>
      </trkpt>
      <trkpt lat="45.74311" lon="6.55376">
        <ele>1478.6</ele>
        <time>2022-06-15T11:12:19Z</time>
      </trkpt>
      <trkpt lat="45.74312" lon="6.55373">
        <ele>1478.7</ele>
        <time>2022-06-15T11:12:20Z</time>
      </trkpt>
      <trkpt lat="45.74312" lon="6.5537">
        <ele>1478.9</ele>
        <time>2022-06-15T11:12:21Z</time>
      </trkpt>
      <trkpt lat="45.74313" lon="6.55367">
        <ele>1479.1</ele>
        <time>2022-06-15T11:12:22Z</time>
      </trkpt>
      <trkpt lat="45.74313" lon="6.55364">
        <ele>1479.2</ele>
        <time>2022-06-15T11:12:23Z</time>
      </trkpt>
      <trkpt lat="45.74313" lon="6.55361">
        <ele>1479.4</ele>
        <time>2022-06-15T11:12:24Z</time>
      </trkpt>
      <trkpt lat="45.74314" lon="6.55358">
        <ele>1479.6</ele>
        <time>2022-06-15T11:12:25Z</time>
      </trkpt>
      <trkpt lat="45.74315" lon="6.55355">
        <ele>1479.8</ele>
        <time>2022-06-15T11:12:26Z</time>
      </trkpt>
      <trkpt lat="45.74315" lon="6.55352">
        <ele>1479.9</ele>
        <time>2022-06-15T11:12:27Z</time>
      </trkpt>
      <trkpt lat="45.74316" lon="6.55349">
        <ele>1480.1</ele>
        <time>2022-06-15T11:12:28Z</time>
      </trkpt>
      <trkpt lat="45.74316" lon="6.55346">
        <ele>1480.2</ele>
        <time>2022-06-15T11:12:29Z</time>
      </trkpt>
      <trkpt lat="45.74317" lon="6.55343">
        <ele>1480.4</ele>
        <time>2022-06-15T11:12:30Z</time>
      </trkpt>
      <trkpt lat="45.74317" lon="6.5534">
        <ele>1480.5</ele>
        <time>2022-06-15T11:12:31Z</time>
      </trkpt>
      <trkpt lat="45.74318" lon="6.55336">
        <ele>1480.7</ele>
        <time>2022-06-15T11:12:32Z</time>
      </trkpt>
      <trkpt lat="45.74318" lon="6.55333">
        <ele>1480.9</ele>
        <time>2022-06-15T11:12:33Z</time>
      </trkpt>
      <trkpt lat="45.74319" lon="6.5533">
        <ele>1481.1</ele>
        <time>2022-06-15T11:12:34Z</time>
      </trkpt>
      <trkpt lat="45.74319" lon="6.55327">
        <ele>1481.4</ele>
        <time>2022-06-15T11:12:35Z</time>
      </trkpt>
      <trkpt lat="45.74319" lon="6.55324">
        <ele>1481.6</ele>
        <time>2022-06-15T11:12:36Z</time>
      </trkpt>
      <trkpt lat="45.74319" lon="6.55321">
        <ele>1481.9</ele>
        <time>2022-06-15T11:12:37Z</time>
      </trkpt>
      <trkpt lat="45.74319" lon="6.55318">
        <ele>1482.1</ele>
        <time>2022-06-15T11:12:38Z</time>
      </trkpt>
      <trkpt lat="45.74319" lon="6.55315">
        <ele>1482.3</ele>
        <time>2022-06-15T11:12:39Z</time>
      </trkpt>
      <trkpt lat="45.74319" lon="6.55312">
        <ele>1482.5</ele>
        <time>2022-06-15T11:12:40Z</time>
      </trkpt>
      <trkpt lat="45.74319" lon="6.55309">
        <ele>1482.7</ele>
        <time>2022-06-15T11:12:41Z</time>
      </trkpt>
      <trkpt lat="45.74319" lon="6.55306">
        <ele>1482.9</ele>
        <time>2022-06-15T11:12:42Z</time>
      </trkpt>
      <trkpt lat="45.74319" lon="6.55303">
        <ele>1483.2</ele>
        <time>2022-06-15T11:12:43Z</time>
      </trkpt>
      <trkpt lat="45.74319" lon="6.553">
        <ele>1483.5</ele>
        <time>2022-06-15T11:12:44Z</time>
      </trkpt>
      <trkpt lat="45.74318" lon="6.55297">
        <ele>1483.8</ele>
        <time>2022-06-15T11:12:45Z</time>
      </trkpt>
      <trkpt lat="45.74318" lon="6.55294">
        <ele>1484.1</ele>
        <time>2022-06-15T11:12:46Z</time>
      </trkpt>
      <trkpt lat="45.74318" lon="6.55291">
        <ele>1484.3</ele>
        <time>2022-06-15T11:12:47Z</time>
      </trkpt>
      <trkpt lat="45.74317" lon="6.55288">
        <ele>1484.6</ele>
        <time>2022-06-15T11:12:48Z</time>
      </trkpt>
      <trkpt lat="45.74316" lon="6.55285">
        <ele>1484.8</ele>
        <time>2022-06-15T11:12:49Z</time>
      </trkpt>
      <trkpt lat="45.74316" lon="6.55282">
        <ele>1485</ele>
        <time>2022-06-15T11:12:50Z</time>
      </trkpt>
      <trkpt lat="45.74315" lon="6.55279">
        <ele>1485.3</ele>
        <time>2022-06-15T11:12:51Z</time>
      </trkpt>
      <trkpt lat="45.74315" lon="6.55276">
        <ele>1485.4</ele>
        <time>2022-06-15T11:12:52Z</time>
      </trkpt>
      <trkpt lat="45.74314" lon="6.55273">
        <ele>1485.5</ele>
        <time>2022-06-15T11:12:53Z</time>
      </trkpt>
      <trkpt lat="45.74313" lon="6.5527">
        <ele>1485.6</ele>
        <time>2022-06-15T11:12:54Z</time>
      </trkpt>
      <trkpt lat="45.74312" lon="6.55267">
        <ele>1485.7</ele>
        <time>2022-06-15T11:12:55Z</time>
      </trkpt>
      <trkpt lat="45.74312" lon="6.55264">
        <ele>1485.8</ele>
        <time>2022-06-15T11:12:56Z</time>
      </trkpt>
      <trkpt lat="45.74311" lon="6.55261">
        <ele>1486</ele>
        <time>2022-06-15T11:12:57Z</time>
      </trkpt>
      <trkpt lat="45.74311" lon="6.55258">
        <ele>1486.1</ele>
        <time>2022-06-15T11:12:58Z</time>
      </trkpt>
      <trkpt lat="45.7431" lon="6.55255">
        <ele>1486.3</ele>
        <time>2022-06-15T11:12:59Z</time>
      </trkpt>
      <trkpt lat="45.74309" lon="6.55252">
        <ele>1486.4</ele>
        <time>2022-06-15T11:13:00Z</time>
      </trkpt>
      <trkpt lat="45.74309" lon="6.55249">
        <ele>1486.5</ele>
        <time>2022-06-15T11:13:01Z</time>
      </trkpt>
      <trkpt lat="45.74308" lon="6.55246">
        <ele>1486.6</ele>
        <time>2022-06-15T11:13:02Z</time>
      </trkpt>
      <trkpt lat="45.74308" lon="6.55243">
        <ele>1486.8</ele>
        <time>2022-06-15T11:13:03Z</time>
      </trkpt>
      <trkpt lat="45.74307" lon="6.5524">
        <ele>1486.9</ele>
        <time>2022-06-15T11:13:04Z</time>
      </trkpt>
      <trkpt lat="45.74306" lon="6.55237">
        <ele>1486.9</ele>
        <time>2022-06-15T11:13:05Z</time>
      </trkpt>
      <trkpt lat="45.74305" lon="6.55234">
        <ele>1486.9</ele>
        <time>2022-06-15T11:13:06Z</time>
      </trkpt>
      <trkpt lat="45.74304" lon="6.55231">
        <ele>1487</ele>
        <time>2022-06-15T11:13:07Z</time>
      </trkpt>
      <trkpt lat="45.74304" lon="6.55228">
        <ele>1487.1</ele>
        <time>2022-06-15T11:13:08Z</time>
      </trkpt>
      <trkpt lat="45.74303" lon="6.55225">
        <ele>1487.1</ele>
        <time>2022-06-15T11:13:09Z</time>
      </trkpt>
      <trkpt lat="45.74302" lon="6.55222">
        <ele>1487.2</ele>
        <time>2022-06-15T11:13:10Z</time>
      </trkpt>
      <trkpt lat="45.74301" lon="6.55219">
        <ele>1487.3</ele>
        <time>2022-06-15T11:13:11Z</time>
      </trkpt>
      <trkpt lat="45.743" lon="6.55216">
        <ele>1487.4</ele>
        <time>2022-06-15T11:13:12Z</time>
      </trkpt>
      <trkpt lat="45.743" lon="6.55213">
        <ele>1487.5</ele>
        <time>2022-06-15T11:13:13Z</time>
      </trkpt>
      <trkpt lat="45.74299" lon="6.5521">
        <ele>1487.6</ele>
        <time>2022-06-15T11:13:14Z</time>
      </trkpt>
      <trkpt lat="45.74298" lon="6.55207">
        <ele>1487.7</ele>
        <time>2022-06-15T11:13:15Z</time>
      </trkpt>
      <trkpt lat="45.74298" lon="6.55205">
        <ele>1488</ele>
        <time>2022-06-15T11:13:16Z</time>
      </trkpt>
      <trkpt lat="45.74298" lon="6.55201">
        <ele>1488.2</ele>
        <time>2022-06-15T11:13:17Z</time>
      </trkpt>
      <trkpt lat="45.74297" lon="6.55199">
        <ele>1488.4</ele>
        <time>2022-06-15T11:13:18Z</time>
      </trkpt>
      <trkpt lat="45.74296" lon="6.55196">
        <ele>1488.6</ele>
        <time>2022-06-15T11:13:19Z</time>
      </trkpt>
      <trkpt lat="45.74296" lon="6.55193">
        <ele>1488.8</ele>
        <time>2022-06-15T11:13:20Z</time>
      </trkpt>
      <trkpt lat="45.74296" lon="6.5519">
        <ele>1489</ele>
        <time>2022-06-15T11:13:21Z</time>
      </trkpt>
      <trkpt lat="45.74295" lon="6.55187">
        <ele>1489.1</ele>
        <time>2022-06-15T11:13:22Z</time>
      </trkpt>
      <trkpt lat="45.74295" lon="6.55184">
        <ele>1489.4</ele>
        <time>2022-06-15T11:13:23Z</time>
      </trkpt>
      <trkpt lat="45.74295" lon="6.55181">
        <ele>1489.6</ele>
        <time>2022-06-15T11:13:24Z</time>
      </trkpt>
      <trkpt lat="45.74295" lon="6.55178">
        <ele>1489.9</ele>
        <time>2022-06-15T11:13:25Z</time>
      </trkpt>
      <trkpt lat="45.74295" lon="6.55175">
        <ele>1490.2</ele>
        <time>2022-06-15T11:13:26Z</time>
      </trkpt>
      <trkpt lat="45.74295" lon="6.55172">
        <ele>1490.5</ele>
        <time>2022-06-15T11:13:27Z</time>
      </trkpt>
      <trkpt lat="45.74296" lon="6.55169">
        <ele>1490.9</ele>
        <time>2022-06-15T11:13:28Z</time>
      </trkpt>
      <trkpt lat="45.74296" lon="6.55166">
        <ele>1491.1</ele>
        <time>2022-06-15T11:13:29Z</time>
      </trkpt>
      <trkpt lat="45.74296" lon="6.55163">
        <ele>1491.3</ele>
        <time>2022-06-15T11:13:30Z</time>
      </trkpt>
      <trkpt lat="45.74297" lon="6.5516">
        <ele>1491.5</ele>
        <time>2022-06-15T11:13:31Z</time>
      </trkpt>
      <trkpt lat="45.74297" lon="6.55158">
        <ele>1491.6</ele>
        <time>2022-06-15T11:13:32Z</time>
      </trkpt>
      <trkpt lat="45.74298" lon="6.55155">
        <ele>1491.8</ele>
        <time>2022-06-15T11:13:33Z</time>
      </trkpt>
      <trkpt lat="45.74298" lon="6.55152">
        <ele>1492</ele>
        <time>2022-06-15T11:13:34Z</time>
      </trkpt>
      <trkpt lat="45.74299" lon="6.55149">
        <ele>1492.1</ele>
        <time>2022-06-15T11:13:35Z</time>
      </trkpt>
      <trkpt lat="45.74299" lon="6.55146">
        <ele>1492.2</ele>
        <time>2022-06-15T11:13:36Z</time>
      </trkpt>
      <trkpt lat="45.743" lon="6.55143">
        <ele>1492.5</ele>
        <time>2022-06-15T11:13:37Z</time>
      </trkpt>
      <trkpt lat="45.74301" lon="6.55141">
        <ele>1492.7</ele>
        <time>2022-06-15T11:13:38Z</time>
      </trkpt>
      <trkpt lat="45.74301" lon="6.55138">
        <ele>1493</ele>
        <time>2022-06-15T11:13:39Z</time>
      </trkpt>
      <trkpt lat="45.74302" lon="6.55135">
        <ele>1493.3</ele>
        <time>2022-06-15T11:13:40Z</time>
      </trkpt>
      <trkpt lat="45.74303" lon="6.55133">
        <ele>1493.6</ele>
        <time>2022-06-15T11:13:41Z</time>
      </trkpt>
      <trkpt lat="45.74304" lon="6.5513">
        <ele>1493.9</ele>
        <time>2022-06-15T11:13:42Z</time>
      </trkpt>
      <trkpt lat="45.74304" lon="6.55127">
        <ele>1494.1</ele>
        <time>2022-06-15T11:13:43Z</time>
      </trkpt>
      <trkpt lat="45.74305" lon="6.55125">
        <ele>1494.4</ele>
        <time>2022-06-15T11:13:44Z</time>
      </trkpt>
      <trkpt lat="45.74306" lon="6.55122">
        <ele>1494.6</ele>
        <time>2022-06-15T11:13:45Z</time>
      </trkpt>
      <trkpt lat="45.74306" lon="6.55119">
        <ele>1494.8</ele>
        <time>2022-06-15T11:13:46Z</time>
      </trkpt>
      <trkpt lat="45.74307" lon="6.55116">
        <ele>1495.1</ele>
        <time>2022-06-15T11:13:47Z</time>
      </trkpt>
      <trkpt lat="45.74308" lon="6.55113">
        <ele>1495.3</ele>
        <time>2022-06-15T11:13:48Z</time>
      </trkpt>
      <trkpt lat="45.74308" lon="6.55111">
        <ele>1495.5</ele>
        <time>2022-06-15T11:13:49Z</time>
      </trkpt>
      <trkpt lat="45.74309" lon="6.55108">
        <ele>1495.5</ele>
        <time>2022-06-15T11:13:50Z</time>
      </trkpt>
      <trkpt lat="45.7431" lon="6.55106">
        <ele>1495.7</ele>
        <time>2022-06-15T11:13:51Z</time>
      </trkpt>
      <trkpt lat="45.7431" lon="6.55103">
        <ele>1495.8</ele>
        <time>2022-06-15T11:13:52Z</time>
      </trkpt>
      <trkpt lat="45.74311" lon="6.551">
        <ele>1495.8</ele>
        <time>2022-06-15T11:13:53Z</time>
      </trkpt>
      <trkpt lat="45.74311" lon="6.55098">
        <ele>1495.9</ele>
        <time>2022-06-15T11:13:54Z</time>
      </trkpt>
      <trkpt lat="45.74312" lon="6.55095">
        <ele>1496.1</ele>
        <time>2022-06-15T11:13:55Z</time>
      </trkpt>
      <trkpt lat="45.74313" lon="6.55092">
        <ele>1496.2</ele>
        <time>2022-06-15T11:13:56Z</time>
      </trkpt>
      <trkpt lat="45.74314" lon="6.55089">
        <ele>1496.3</ele>
        <time>2022-06-15T11:13:57Z</time>
      </trkpt>
      <trkpt lat="45.74315" lon="6.55087">
        <ele>1496.4</ele>
        <time>2022-06-15T11:13:58Z</time>
      </trkpt>
      <trkpt lat="45.74316" lon="6.55084">
        <ele>1496.5</ele>
        <time>2022-06-15T11:13:59Z</time>
      </trkpt>
      <trkpt lat="45.74317" lon="6.55082">
        <ele>1496.7</ele>
        <time>2022-06-15T11:14:00Z</time>
      </trkpt>
      <trkpt lat="45.74319" lon="6.5508">
        <ele>1496.9</ele>
        <time>2022-06-15T11:14:01Z</time>
      </trkpt>
      <trkpt lat="45.74321" lon="6.55079">
        <ele>1497.2</ele>
        <time>2022-06-15T11:14:02Z</time>
      </trkpt>
      <trkpt lat="45.74322" lon="6.55077">
        <ele>1497.5</ele>
        <time>2022-06-15T11:14:03Z</time>
      </trkpt>
      <trkpt lat="45.74324" lon="6.55075">
        <ele>1497.7</ele>
        <time>2022-06-15T11:14:04Z</time>
      </trkpt>
      <trkpt lat="45.74325" lon="6.55073">
        <ele>1497.9</ele>
        <time>2022-06-15T11:14:05Z</time>
      </trkpt>
      <trkpt lat="45.74327" lon="6.55071">
        <ele>1498.2</ele>
        <time>2022-06-15T11:14:06Z</time>
      </trkpt>
      <trkpt lat="45.74328" lon="6.55069">
        <ele>1498.4</ele>
        <time>2022-06-15T11:14:07Z</time>
      </trkpt>
      <trkpt lat="45.7433" lon="6.55067">
        <ele>1498.6</ele>
        <time>2022-06-15T11:14:08Z</time>
      </trkpt>
      <trkpt lat="45.74331" lon="6.55065">
        <ele>1498.8</ele>
        <time>2022-06-15T11:14:09Z</time>
      </trkpt>
      <trkpt lat="45.74333" lon="6.55064">
        <ele>1499</ele>
        <time>2022-06-15T11:14:10Z</time>
      </trkpt>
      <trkpt lat="45.74335" lon="6.55062">
        <ele>1499.2</ele>
        <time>2022-06-15T11:14:11Z</time>
      </trkpt>
      <trkpt lat="45.74336" lon="6.5506">
        <ele>1499.3</ele>
        <time>2022-06-15T11:14:12Z</time>
      </trkpt>
      <trkpt lat="45.74338" lon="6.55058">
        <ele>1499.5</ele>
        <time>2022-06-15T11:14:13Z</time>
      </trkpt>
      <trkpt lat="45.7434" lon="6.55057">
        <ele>1499.7</ele>
        <time>2022-06-15T11:14:14Z</time>
      </trkpt>
      <trkpt lat="45.74341" lon="6.55055">
        <ele>1499.8</ele>
        <time>2022-06-15T11:14:15Z</time>
      </trkpt>
      <trkpt lat="45.74343" lon="6.55053">
        <ele>1500</ele>
        <time>2022-06-15T11:14:16Z</time>
      </trkpt>
      <trkpt lat="45.74344" lon="6.55051">
        <ele>1500.1</ele>
        <time>2022-06-15T11:14:17Z</time>
      </trkpt>
      <trkpt lat="45.74346" lon="6.55049">
        <ele>1500.2</ele>
        <time>2022-06-15T11:14:18Z</time>
      </trkpt>
      <trkpt lat="45.74347" lon="6.55047">
        <ele>1500.3</ele>
        <time>2022-06-15T11:14:19Z</time>
      </trkpt>
      <trkpt lat="45.74349" lon="6.55045">
        <ele>1500.5</ele>
        <time>2022-06-15T11:14:20Z</time>
      </trkpt>
      <trkpt lat="45.7435" lon="6.55043">
        <ele>1500.6</ele>
        <time>2022-06-15T11:14:21Z</time>
      </trkpt>
      <trkpt lat="45.74352" lon="6.55041">
        <ele>1500.8</ele>
        <time>2022-06-15T11:14:22Z</time>
      </trkpt>
      <trkpt lat="45.74353" lon="6.55039">
        <ele>1501</ele>
        <time>2022-06-15T11:14:23Z</time>
      </trkpt>
      <trkpt lat="45.74355" lon="6.55037">
        <ele>1501.1</ele>
        <time>2022-06-15T11:14:24Z</time>
      </trkpt>
      <trkpt lat="45.74356" lon="6.55035">
        <ele>1501.3</ele>
        <time>2022-06-15T11:14:25Z</time>
      </trkpt>
      <trkpt lat="45.74358" lon="6.55033">
        <ele>1501.5</ele>
        <time>2022-06-15T11:14:26Z</time>
      </trkpt>
      <trkpt lat="45.74359" lon="6.55031">
        <ele>1501.7</ele>
        <time>2022-06-15T11:14:27Z</time>
      </trkpt>
      <trkpt lat="45.74361" lon="6.55029">
        <ele>1502</ele>
        <time>2022-06-15T11:14:28Z</time>
      </trkpt>
      <trkpt lat="45.74363" lon="6.55027">
        <ele>1502.2</ele>
        <time>2022-06-15T11:14:29Z</time>
      </trkpt>
      <trkpt lat="45.74364" lon="6.55025">
        <ele>1502.4</ele>
        <time>2022-06-15T11:14:30Z</time>
      </trkpt>
      <trkpt lat="45.74366" lon="6.55023">
        <ele>1502.7</ele>
        <time>2022-06-15T11:14:31Z</time>
      </trkpt>
      <trkpt lat="45.74368" lon="6.55021">
        <ele>1503</ele>
        <time>2022-06-15T11:14:32Z</time>
      </trkpt>
      <trkpt lat="45.74369" lon="6.5502">
        <ele>1503.3</ele>
        <time>2022-06-15T11:14:33Z</time>
      </trkpt>
      <trkpt lat="45.74371" lon="6.55018">
        <ele>1503.6</ele>
        <time>2022-06-15T11:14:34Z</time>
      </trkpt>
      <trkpt lat="45.74373" lon="6.55017">
        <ele>1503.9</ele>
        <time>2022-06-15T11:14:35Z</time>
      </trkpt>
      <trkpt lat="45.74375" lon="6.55015">
        <ele>1504.2</ele>
        <time>2022-06-15T11:14:36Z</time>
      </trkpt>
      <trkpt lat="45.74376" lon="6.55013">
        <ele>1504.5</ele>
        <time>2022-06-15T11:14:37Z</time>
      </trkpt>
      <trkpt lat="45.74378" lon="6.5501">
        <ele>1504.7</ele>
        <time>2022-06-15T11:14:38Z</time>
      </trkpt>
      <trkpt lat="45.74379" lon="6.55008">
        <ele>1505</ele>
        <time>2022-06-15T11:14:39Z</time>
      </trkpt>
      <trkpt lat="45.74381" lon="6.55006">
        <ele>1505.4</ele>
        <time>2022-06-15T11:14:40Z</time>
      </trkpt>
      <trkpt lat="45.74382" lon="6.55004">
        <ele>1505.7</ele>
        <time>2022-06-15T11:14:41Z</time>
      </trkpt>
      <trkpt lat="45.74384" lon="6.55002">
        <ele>1506.1</ele>
        <time>2022-06-15T11:14:42Z</time>
      </trkpt>
      <trkpt lat="45.74385" lon="6.55">
        <ele>1506.4</ele>
        <time>2022-06-15T11:14:43Z</time>
      </trkpt>
      <trkpt lat="45.74387" lon="6.54998">
        <ele>1506.6</ele>
        <time>2022-06-15T11:14:44Z</time>
      </trkpt>
      <trkpt lat="45.74389" lon="6.54996">
        <ele>1506.8</ele>
        <time>2022-06-15T11:14:45Z</time>
      </trkpt>
      <trkpt lat="45.7439" lon="6.54994">
        <ele>1506.9</ele>
        <time>2022-06-15T11:14:46Z</time>
      </trkpt>
      <trkpt lat="45.74392" lon="6.54992">
        <ele>1507.1</ele>
        <time>2022-06-15T11:14:47Z</time>
      </trkpt>
      <trkpt lat="45.74393" lon="6.5499">
        <ele>1507.3</ele>
        <time>2022-06-15T11:14:48Z</time>
      </trkpt>
      <trkpt lat="45.74395" lon="6.54988">
        <ele>1507.5</ele>
        <time>2022-06-15T11:14:49Z</time>
      </trkpt>
      <trkpt lat="45.74396" lon="6.54986">
        <ele>1507.7</ele>
        <time>2022-06-15T11:14:50Z</time>
      </trkpt>
      <trkpt lat="45.74398" lon="6.54983">
        <ele>1507.8</ele>
        <time>2022-06-15T11:14:51Z</time>
      </trkpt>
      <trkpt lat="45.74399" lon="6.54982">
        <ele>1508</ele>
        <time>2022-06-15T11:14:52Z</time>
      </trkpt>
      <trkpt lat="45.74401" lon="6.5498">
        <ele>1508.3</ele>
        <time>2022-06-15T11:14:53Z</time>
      </trkpt>
      <trkpt lat="45.74402" lon="6.54978">
        <ele>1508.5</ele>
        <time>2022-06-15T11:14:54Z</time>
      </trkpt>
      <trkpt lat="45.74404" lon="6.54976">
        <ele>1508.7</ele>
        <time>2022-06-15T11:14:55Z</time>
      </trkpt>
      <trkpt lat="45.74406" lon="6.54974">
        <ele>1509</ele>
        <time>2022-06-15T11:14:56Z</time>
      </trkpt>
      <trkpt lat="45.74407" lon="6.54973">
        <ele>1509.3</ele>
        <time>2022-06-15T11:14:57Z</time>
      </trkpt>
      <trkpt lat="45.74409" lon="6.54971">
        <ele>1509.4</ele>
        <time>2022-06-15T11:14:58Z</time>
      </trkpt>
      <trkpt lat="45.74411" lon="6.5497">
        <ele>1509.6</ele>
        <time>2022-06-15T11:14:59Z</time>
      </trkpt>
      <trkpt lat="45.74412" lon="6.54968">
        <ele>1509.8</ele>
        <time>2022-06-15T11:15:00Z</time>
      </trkpt>
      <trkpt lat="45.74413" lon="6.54966">
        <ele>1509.8</ele>
        <time>2022-06-15T11:15:01Z</time>
      </trkpt>
      <trkpt lat="45.74415" lon="6.54964">
        <ele>1510</ele>
        <time>2022-06-15T11:15:02Z</time>
      </trkpt>
      <trkpt lat="45.74416" lon="6.54963">
        <ele>1510.2</ele>
        <time>2022-06-15T11:15:03Z</time>
      </trkpt>
      <trkpt lat="45.74418" lon="6.54961">
        <ele>1510.3</ele>
        <time>2022-06-15T11:15:04Z</time>
      </trkpt>
      <trkpt lat="45.74419" lon="6.54959">
        <ele>1510.4</ele>
        <time>2022-06-15T11:15:05Z</time>
      </trkpt>
      <trkpt lat="45.7442" lon="6.54956">
        <ele>1510.3</ele>
        <time>2022-06-15T11:15:06Z</time>
      </trkpt>
      <trkpt lat="45.74421" lon="6.54953">
        <ele>1510.3</ele>
        <time>2022-06-15T11:15:07Z</time>
      </trkpt>
      <trkpt lat="45.74423" lon="6.5495">
        <ele>1510.3</ele>
        <time>2022-06-15T11:15:08Z</time>
      </trkpt>
      <trkpt lat="45.74424" lon="6.54948">
        <ele>1510.3</ele>
        <time>2022-06-15T11:15:09Z</time>
      </trkpt>
      <trkpt lat="45.74426" lon="6.54947">
        <ele>1510.5</ele>
        <time>2022-06-15T11:15:10Z</time>
      </trkpt>
      <trkpt lat="45.74427" lon="6.54945">
        <ele>1510.5</ele>
        <time>2022-06-15T11:15:11Z</time>
      </trkpt>
      <trkpt lat="45.74429" lon="6.54943">
        <ele>1510.5</ele>
        <time>2022-06-15T11:15:12Z</time>
      </trkpt>
      <trkpt lat="45.74431" lon="6.54942">
        <ele>1510.6</ele>
        <time>2022-06-15T11:15:13Z</time>
      </trkpt>
      <trkpt lat="45.74433" lon="6.54941">
        <ele>1510.7</ele>
        <time>2022-06-15T11:15:14Z</time>
      </trkpt>
      <trkpt lat="45.74435" lon="6.54939">
        <ele>1510.6</ele>
        <time>2022-06-15T11:15:15Z</time>
      </trkpt>
      <trkpt lat="45.74436" lon="6.54938">
        <ele>1510.7</ele>
        <time>2022-06-15T11:15:16Z</time>
      </trkpt>
      <trkpt lat="45.74438" lon="6.54936">
        <ele>1510.9</ele>
        <time>2022-06-15T11:15:17Z</time>
      </trkpt>
      <trkpt lat="45.7444" lon="6.54935">
        <ele>1511.1</ele>
        <time>2022-06-15T11:15:18Z</time>
      </trkpt>
      <trkpt lat="45.74441" lon="6.54933">
        <ele>1511.4</ele>
        <time>2022-06-15T11:15:19Z</time>
      </trkpt>
      <trkpt lat="45.74443" lon="6.54932">
        <ele>1511.7</ele>
        <time>2022-06-15T11:15:20Z</time>
      </trkpt>
      <trkpt lat="45.74445" lon="6.54931">
        <ele>1512.1</ele>
        <time>2022-06-15T11:15:21Z</time>
      </trkpt>
      <trkpt lat="45.74447" lon="6.5493">
        <ele>1512.2</ele>
        <time>2022-06-15T11:15:22Z</time>
      </trkpt>
      <trkpt lat="45.74449" lon="6.54929">
        <ele>1512.2</ele>
        <time>2022-06-15T11:15:23Z</time>
      </trkpt>
      <trkpt lat="45.74451" lon="6.54928">
        <ele>1512.3</ele>
        <time>2022-06-15T11:15:24Z</time>
      </trkpt>
      <trkpt lat="45.74453" lon="6.54927">
        <ele>1512.4</ele>
        <time>2022-06-15T11:15:25Z</time>
      </trkpt>
      <trkpt lat="45.74455" lon="6.54927">
        <ele>1512.6</ele>
        <time>2022-06-15T11:15:26Z</time>
      </trkpt>
      <trkpt lat="45.74457" lon="6.54926">
        <ele>1512.7</ele>
        <time>2022-06-15T11:15:27Z</time>
      </trkpt>
      <trkpt lat="45.74459" lon="6.54926">
        <ele>1512.8</ele>
        <time>2022-06-15T11:15:28Z</time>
      </trkpt>
      <trkpt lat="45.74461" lon="6.54925">
        <ele>1513</ele>
        <time>2022-06-15T11:15:29Z</time>
      </trkpt>
      <trkpt lat="45.74463" lon="6.54925">
        <ele>1513.1</ele>
        <time>2022-06-15T11:15:30Z</time>
      </trkpt>
      <trkpt lat="45.74465" lon="6.54926">
        <ele>1513.3</ele>
        <time>2022-06-15T11:15:31Z</time>
      </trkpt>
      <trkpt lat="45.74467" lon="6.54926">
        <ele>1513.5</ele>
        <time>2022-06-15T11:15:32Z</time>
      </trkpt>
      <trkpt lat="45.74469" lon="6.54926">
        <ele>1513.7</ele>
        <time>2022-06-15T11:15:33Z</time>
      </trkpt>
      <trkpt lat="45.74472" lon="6.54926">
        <ele>1513.9</ele>
        <time>2022-06-15T11:15:34Z</time>
      </trkpt>
      <trkpt lat="45.74474" lon="6.54926">
        <ele>1514</ele>
        <time>2022-06-15T11:15:35Z</time>
      </trkpt>
      <trkpt lat="45.74476" lon="6.54927">
        <ele>1514</ele>
        <time>2022-06-15T11:15:36Z</time>
      </trkpt>
      <trkpt lat="45.74478" lon="6.54928">
        <ele>1514.1</ele>
        <time>2022-06-15T11:15:37Z</time>
      </trkpt>
      <trkpt lat="45.7448" lon="6.54928">
        <ele>1514.2</ele>
        <time>2022-06-15T11:15:38Z</time>
      </trkpt>
      <trkpt lat="45.74482" lon="6.54929">
        <ele>1514.3</ele>
        <time>2022-06-15T11:15:39Z</time>
      </trkpt>
      <trkpt lat="45.74484" lon="6.5493">
        <ele>1514.4</ele>
        <time>2022-06-15T11:15:40Z</time>
      </trkpt>
      <trkpt lat="45.74487" lon="6.54931">
        <ele>1514.5</ele>
        <time>2022-06-15T11:15:41Z</time>
      </trkpt>
      <trkpt lat="45.74489" lon="6.54932">
        <ele>1514.7</ele>
        <time>2022-06-15T11:15:42Z</time>
      </trkpt>
      <trkpt lat="45.74491" lon="6.54933">
        <ele>1514.9</ele>
        <time>2022-06-15T11:15:43Z</time>
      </trkpt>
      <trkpt lat="45.74493" lon="6.54935">
        <ele>1515.2</ele>
        <time>2022-06-15T11:15:44Z</time>
      </trkpt>
      <trkpt lat="45.74496" lon="6.54937">
        <ele>1515.6</ele>
        <time>2022-06-15T11:15:45Z</time>
      </trkpt>
      <trkpt lat="45.74498" lon="6.54939">
        <ele>1516</ele>
        <time>2022-06-15T11:15:46Z</time>
      </trkpt>
      <trkpt lat="45.745" lon="6.54941">
        <ele>1516.4</ele>
        <time>2022-06-15T11:15:47Z</time>
      </trkpt>
      <trkpt lat="45.74503" lon="6.54944">
        <ele>1516.7</ele>
        <time>2022-06-15T11:15:48Z</time>
      </trkpt>
      <trkpt lat="45.74505" lon="6.54946">
        <ele>1516.8</ele>
        <time>2022-06-15T11:15:49Z</time>
      </trkpt>
      <trkpt lat="45.74507" lon="6.54948">
        <ele>1516.8</ele>
        <time>2022-06-15T11:15:50Z</time>
      </trkpt>
      <trkpt lat="45.7451" lon="6.54951">
        <ele>1516.9</ele>
        <time>2022-06-15T11:15:51Z</time>
      </trkpt>
      <trkpt lat="45.74512" lon="6.54953">
        <ele>1517</ele>
        <time>2022-06-15T11:15:52Z</time>
      </trkpt>
      <trkpt lat="45.74515" lon="6.54955">
        <ele>1517.1</ele>
        <time>2022-06-15T11:15:53Z</time>
      </trkpt>
      <trkpt lat="45.74518" lon="6.54957">
        <ele>1517.2</ele>
        <time>2022-06-15T11:15:54Z</time>
      </trkpt>
      <trkpt lat="45.74521" lon="6.54958">
        <ele>1517.2</ele>
        <time>2022-06-15T11:15:55Z</time>
      </trkpt>
      <trkpt lat="45.74523" lon="6.54958">
        <ele>1517.1</ele>
        <time>2022-06-15T11:15:56Z</time>
      </trkpt>
      <trkpt lat="45.74526" lon="6.54958">
        <ele>1517</ele>
        <time>2022-06-15T11:15:57Z</time>
      </trkpt>
      <trkpt lat="45.74529" lon="6.54958">
        <ele>1517</ele>
        <time>2022-06-15T11:15:58Z</time>
      </trkpt>
      <trkpt lat="45.74532" lon="6.54957">
        <ele>1517.2</ele>
        <time>2022-06-15T11:15:59Z</time>
      </trkpt>
      <trkpt lat="45.74535" lon="6.54956">
        <ele>1517.4</ele>
        <time>2022-06-15T11:16:00Z</time>
      </trkpt>
      <trkpt lat="45.74538" lon="6.54954">
        <ele>1517.6</ele>
        <time>2022-06-15T11:16:01Z</time>
      </trkpt>
      <trkpt lat="45.74541" lon="6.54952">
        <ele>1517.8</ele>
        <time>2022-06-15T11:16:02Z</time>
      </trkpt>
      <trkpt lat="45.74544" lon="6.54951">
        <ele>1518.1</ele>
        <time>2022-06-15T11:16:03Z</time>
      </trkpt>
      <trkpt lat="45.74546" lon="6.5495">
        <ele>1518.4</ele>
        <time>2022-06-15T11:16:04Z</time>
      </trkpt>
      <trkpt lat="45.74549" lon="6.54948">
        <ele>1518.8</ele>
        <time>2022-06-15T11:16:05Z</time>
      </trkpt>
      <trkpt lat="45.74551" lon="6.54947">
        <ele>1519.2</ele>
        <time>2022-06-15T11:16:06Z</time>
      </trkpt>
      <trkpt lat="45.74554" lon="6.54946">
        <ele>1519.6</ele>
        <time>2022-06-15T11:16:07Z</time>
      </trkpt>
      <trkpt lat="45.74556" lon="6.54945">
        <ele>1520</ele>
        <time>2022-06-15T11:16:08Z</time>
      </trkpt>
      <trkpt lat="45.74559" lon="6.54944">
        <ele>1520</ele>
        <time>2022-06-15T11:16:09Z</time>
      </trkpt>
      <trkpt lat="45.74561" lon="6.54942">
        <ele>1520</ele>
        <time>2022-06-15T11:16:10Z</time>
      </trkpt>
      <trkpt lat="45.74563" lon="6.54941">
        <ele>1520.1</ele>
        <time>2022-06-15T11:16:11Z</time>
      </trkpt>
      <trkpt lat="45.74565" lon="6.5494">
        <ele>1520.2</ele>
        <time>2022-06-15T11:16:12Z</time>
      </trkpt>
      <trkpt lat="45.74568" lon="6.54939">
        <ele>1520.3</ele>
        <time>2022-06-15T11:16:13Z</time>
      </trkpt>
      <trkpt lat="45.7457" lon="6.54938">
        <ele>1520.4</ele>
        <time>2022-06-15T11:16:14Z</time>
      </trkpt>
      <trkpt lat="45.74573" lon="6.54937">
        <ele>1520.5</ele>
        <time>2022-06-15T11:16:15Z</time>
      </trkpt>
      <trkpt lat="45.74575" lon="6.54936">
        <ele>1520.7</ele>
        <time>2022-06-15T11:16:16Z</time>
      </trkpt>
      <trkpt lat="45.74577" lon="6.54934">
        <ele>1520.9</ele>
        <time>2022-06-15T11:16:17Z</time>
      </trkpt>
      <trkpt lat="45.7458" lon="6.54933">
        <ele>1521.1</ele>
        <time>2022-06-15T11:16:18Z</time>
      </trkpt>
      <trkpt lat="45.74582" lon="6.54932">
        <ele>1521.3</ele>
        <time>2022-06-15T11:16:19Z</time>
      </trkpt>
      <trkpt lat="45.74584" lon="6.5493">
        <ele>1521.6</ele>
        <time>2022-06-15T11:16:20Z</time>
      </trkpt>
      <trkpt lat="45.74587" lon="6.54929">
        <ele>1521.9</ele>
        <time>2022-06-15T11:16:21Z</time>
      </trkpt>
      <trkpt lat="45.74589" lon="6.54929">
        <ele>1522.1</ele>
        <time>2022-06-15T11:16:22Z</time>
      </trkpt>
      <trkpt lat="45.74592" lon="6.54928">
        <ele>1522.4</ele>
        <time>2022-06-15T11:16:23Z</time>
      </trkpt>
      <trkpt lat="45.74594" lon="6.54927">
        <ele>1522.7</ele>
        <time>2022-06-15T11:16:24Z</time>
      </trkpt>
      <trkpt lat="45.74596" lon="6.54926">
        <ele>1522.9</ele>
        <time>2022-06-15T11:16:25Z</time>
      </trkpt>
      <trkpt lat="45.74599" lon="6.54925">
        <ele>1523.2</ele>
        <time>2022-06-15T11:16:26Z</time>
      </trkpt>
      <trkpt lat="45.74601" lon="6.54924">
        <ele>1523.5</ele>
        <time>2022-06-15T11:16:27Z</time>
      </trkpt>
      <trkpt lat="45.74603" lon="6.54923">
        <ele>1523.7</ele>
        <time>2022-06-15T11:16:28Z</time>
      </trkpt>
      <trkpt lat="45.74605" lon="6.54922">
        <ele>1524</ele>
        <time>2022-06-15T11:16:29Z</time>
      </trkpt>
      <trkpt lat="45.74608" lon="6.54921">
        <ele>1524.3</ele>
        <time>2022-06-15T11:16:30Z</time>
      </trkpt>
      <trkpt lat="45.7461" lon="6.5492">
        <ele>1524.6</ele>
        <time>2022-06-15T11:16:31Z</time>
      </trkpt>
      <trkpt lat="45.74612" lon="6.54919">
        <ele>1524.8</ele>
        <time>2022-06-15T11:16:32Z</time>
      </trkpt>
      <trkpt lat="45.74614" lon="6.54918">
        <ele>1525</ele>
        <time>2022-06-15T11:16:33Z</time>
      </trkpt>
      <trkpt lat="45.74616" lon="6.54918">
        <ele>1525.2</ele>
        <time>2022-06-15T11:16:34Z</time>
      </trkpt>
      <trkpt lat="45.74618" lon="6.54917">
        <ele>1525.5</ele>
        <time>2022-06-15T11:16:35Z</time>
      </trkpt>
      <trkpt lat="45.7462" lon="6.54916">
        <ele>1525.7</ele>
        <time>2022-06-15T11:16:36Z</time>
      </trkpt>
      <trkpt lat="45.74622" lon="6.54916">
        <ele>1525.8</ele>
        <time>2022-06-15T11:16:37Z</time>
      </trkpt>
      <trkpt lat="45.74624" lon="6.54915">
        <ele>1526</ele>
        <time>2022-06-15T11:16:38Z</time>
      </trkpt>
      <trkpt lat="45.74627" lon="6.54914">
        <ele>1526.2</ele>
        <time>2022-06-15T11:16:39Z</time>
      </trkpt>
      <trkpt lat="45.74629" lon="6.54914">
        <ele>1526.3</ele>
        <time>2022-06-15T11:16:40Z</time>
      </trkpt>
      <trkpt lat="45.74631" lon="6.54913">
        <ele>1526.5</ele>
        <time>2022-06-15T11:16:41Z</time>
      </trkpt>
      <trkpt lat="45.74633" lon="6.54913">
        <ele>1526.6</ele>
        <time>2022-06-15T11:16:42Z</time>
      </trkpt>
      <trkpt lat="45.74635" lon="6.54912">
        <ele>1526.7</ele>
        <time>2022-06-15T11:16:43Z</time>
      </trkpt>
      <trkpt lat="45.74637" lon="6.54912">
        <ele>1526.9</ele>
        <time>2022-06-15T11:16:44Z</time>
      </trkpt>
      <trkpt lat="45.74639" lon="6.54912">
        <ele>1527</ele>
        <time>2022-06-15T11:16:45Z</time>
      </trkpt>
      <trkpt lat="45.74642" lon="6.54911">
        <ele>1527</ele>
        <time>2022-06-15T11:16:46Z</time>
      </trkpt>
      <trkpt lat="45.74644" lon="6.5491">
        <ele>1527.1</ele>
        <time>2022-06-15T11:16:47Z</time>
      </trkpt>
      <trkpt lat="45.74646" lon="6.54909">
        <ele>1527.1</ele>
        <time>2022-06-15T11:16:48Z</time>
      </trkpt>
      <trkpt lat="45.74648" lon="6.54909">
        <ele>1527.2</ele>
        <time>2022-06-15T11:16:49Z</time>
      </trkpt>
      <trkpt lat="45.7465" lon="6.54909">
        <ele>1527.2</ele>
        <time>2022-06-15T11:16:50Z</time>
      </trkpt>
      <trkpt lat="45.74652" lon="6.54909">
        <ele>1527.3</ele>
        <time>2022-06-15T11:16:51Z</time>
      </trkpt>
      <trkpt lat="45.74655" lon="6.54909">
        <ele>1527.3</ele>
        <time>2022-06-15T11:16:52Z</time>
      </trkpt>
      <trkpt lat="45.74657" lon="6.54909">
        <ele>1527.4</ele>
        <time>2022-06-15T11:16:53Z</time>
      </trkpt>
      <trkpt lat="45.74659" lon="6.54909">
        <ele>1527.4</ele>
        <time>2022-06-15T11:16:54Z</time>
      </trkpt>
      <trkpt lat="45.74661" lon="6.54909">
        <ele>1527.5</ele>
        <time>2022-06-15T11:16:55Z</time>
      </trkpt>
      <trkpt lat="45.74663" lon="6.54908">
        <ele>1527.5</ele>
        <time>2022-06-15T11:16:56Z</time>
      </trkpt>
      <trkpt lat="45.74665" lon="6.54908">
        <ele>1527.6</ele>
        <time>2022-06-15T11:16:57Z</time>
      </trkpt>
      <trkpt lat="45.74668" lon="6.54908">
        <ele>1527.8</ele>
        <time>2022-06-15T11:16:58Z</time>
      </trkpt>
      <trkpt lat="45.7467" lon="6.54908">
        <ele>1528.1</ele>
        <time>2022-06-15T11:16:59Z</time>
      </trkpt>
      <trkpt lat="45.74672" lon="6.54907">
        <ele>1528.5</ele>
        <time>2022-06-15T11:17:00Z</time>
      </trkpt>
      <trkpt lat="45.74674" lon="6.54907">
        <ele>1528.8</ele>
        <time>2022-06-15T11:17:01Z</time>
      </trkpt>
      <trkpt lat="45.74676" lon="6.54907">
        <ele>1529.1</ele>
        <time>2022-06-15T11:17:02Z</time>
      </trkpt>
      <trkpt lat="45.74678" lon="6.54907">
        <ele>1529.5</ele>
        <time>2022-06-15T11:17:03Z</time>
      </trkpt>
      <trkpt lat="45.7468" lon="6.54907">
        <ele>1529.8</ele>
        <time>2022-06-15T11:17:04Z</time>
      </trkpt>
      <trkpt lat="45.74682" lon="6.54906">
        <ele>1530.1</ele>
        <time>2022-06-15T11:17:05Z</time>
      </trkpt>
      <trkpt lat="45.74684" lon="6.54906">
        <ele>1530.5</ele>
        <time>2022-06-15T11:17:06Z</time>
      </trkpt>
      <trkpt lat="45.74686" lon="6.54905">
        <ele>1530.8</ele>
        <time>2022-06-15T11:17:07Z</time>
      </trkpt>
      <trkpt lat="45.74689" lon="6.54905">
        <ele>1531.1</ele>
        <time>2022-06-15T11:17:08Z</time>
      </trkpt>
      <trkpt lat="45.74691" lon="6.54904">
        <ele>1531.4</ele>
        <time>2022-06-15T11:17:09Z</time>
      </trkpt>
      <trkpt lat="45.74693" lon="6.54903">
        <ele>1531.7</ele>
        <time>2022-06-15T11:17:10Z</time>
      </trkpt>
      <trkpt lat="45.74695" lon="6.54903">
        <ele>1532</ele>
        <time>2022-06-15T11:17:11Z</time>
      </trkpt>
      <trkpt lat="45.74697" lon="6.54902">
        <ele>1532.3</ele>
        <time>2022-06-15T11:17:12Z</time>
      </trkpt>
      <trkpt lat="45.74699" lon="6.549">
        <ele>1532.6</ele>
        <time>2022-06-15T11:17:13Z</time>
      </trkpt>
      <trkpt lat="45.74701" lon="6.549">
        <ele>1532.9</ele>
        <time>2022-06-15T11:17:14Z</time>
      </trkpt>
      <trkpt lat="45.74703" lon="6.54899">
        <ele>1533.2</ele>
        <time>2022-06-15T11:17:15Z</time>
      </trkpt>
      <trkpt lat="45.74705" lon="6.54897">
        <ele>1533.5</ele>
        <time>2022-06-15T11:17:16Z</time>
      </trkpt>
      <trkpt lat="45.74707" lon="6.54896">
        <ele>1533.8</ele>
        <time>2022-06-15T11:17:17Z</time>
      </trkpt>
      <trkpt lat="45.74709" lon="6.54895">
        <ele>1534.1</ele>
        <time>2022-06-15T11:17:18Z</time>
      </trkpt>
      <trkpt lat="45.74711" lon="6.54893">
        <ele>1534.4</ele>
        <time>2022-06-15T11:17:19Z</time>
      </trkpt>
      <trkpt lat="45.74713" lon="6.54891">
        <ele>1534.6</ele>
        <time>2022-06-15T11:17:20Z</time>
      </trkpt>
      <trkpt lat="45.74714" lon="6.5489">
        <ele>1534.9</ele>
        <time>2022-06-15T11:17:21Z</time>
      </trkpt>
      <trkpt lat="45.74716" lon="6.54888">
        <ele>1535.1</ele>
        <time>2022-06-15T11:17:22Z</time>
      </trkpt>
      <trkpt lat="45.74718" lon="6.54886">
        <ele>1535.3</ele>
        <time>2022-06-15T11:17:23Z</time>
      </trkpt>
      <trkpt lat="45.7472" lon="6.54884">
        <ele>1535.5</ele>
        <time>2022-06-15T11:17:24Z</time>
      </trkpt>
      <trkpt lat="45.74721" lon="6.54882">
        <ele>1535.6</ele>
        <time>2022-06-15T11:17:25Z</time>
      </trkpt>
      <trkpt lat="45.74723" lon="6.5488">
        <ele>1535.8</ele>
        <time>2022-06-15T11:17:26Z</time>
      </trkpt>
      <trkpt lat="45.74725" lon="6.54878">
        <ele>1536</ele>
        <time>2022-06-15T11:17:27Z</time>
      </trkpt>
      <trkpt lat="45.74726" lon="6.54876">
        <ele>1536.2</ele>
        <time>2022-06-15T11:17:28Z</time>
      </trkpt>
      <trkpt lat="45.74728" lon="6.54874">
        <ele>1536.4</ele>
        <time>2022-06-15T11:17:29Z</time>
      </trkpt>
      <trkpt lat="45.74729" lon="6.54871">
        <ele>1536.7</ele>
        <time>2022-06-15T11:17:30Z</time>
      </trkpt>
      <trkpt lat="45.74731" lon="6.54869">
        <ele>1536.9</ele>
        <time>2022-06-15T11:17:31Z</time>
      </trkpt>
      <trkpt lat="45.74732" lon="6.54867">
        <ele>1537.1</ele>
        <time>2022-06-15T11:17:32Z</time>
      </trkpt>
      <trkpt lat="45.74733" lon="6.54864">
        <ele>1537.4</ele>
        <time>2022-06-15T11:17:33Z</time>
      </trkpt>
      <trkpt lat="45.74735" lon="6.54862">
        <ele>1537.7</ele>
        <time>2022-06-15T11:17:34Z</time>
      </trkpt>
      <trkpt lat="45.74736" lon="6.54859">
        <ele>1537.9</ele>
        <time>2022-06-15T11:17:35Z</time>
      </trkpt>
      <trkpt lat="45.74737" lon="6.54857">
        <ele>1538.1</ele>
        <time>2022-06-15T11:17:36Z</time>
      </trkpt>
      <trkpt lat="45.74738" lon="6.54854">
        <ele>1538.2</ele>
        <time>2022-06-15T11:17:37Z</time>
      </trkpt>
      <trkpt lat="45.74739" lon="6.54851">
        <ele>1538.3</ele>
        <time>2022-06-15T11:17:38Z</time>
      </trkpt>
      <trkpt lat="45.7474" lon="6.54848">
        <ele>1538.4</ele>
        <time>2022-06-15T11:17:39Z</time>
      </trkpt>
      <trkpt lat="45.7474" lon="6.54845">
        <ele>1538.5</ele>
        <time>2022-06-15T11:17:40Z</time>
      </trkpt>
      <trkpt lat="45.74741" lon="6.54842">
        <ele>1538.6</ele>
        <time>2022-06-15T11:17:41Z</time>
      </trkpt>
      <trkpt lat="45.74742" lon="6.5484">
        <ele>1538.6</ele>
        <time>2022-06-15T11:17:42Z</time>
      </trkpt>
      <trkpt lat="45.74742" lon="6.54837">
        <ele>1538.6</ele>
        <time>2022-06-15T11:17:43Z</time>
      </trkpt>
      <trkpt lat="45.74743" lon="6.54834">
        <ele>1538.7</ele>
        <time>2022-06-15T11:17:44Z</time>
      </trkpt>
      <trkpt lat="45.74743" lon="6.54831">
        <ele>1538.9</ele>
        <time>2022-06-15T11:17:45Z</time>
      </trkpt>
      <trkpt lat="45.74744" lon="6.54828">
        <ele>1539.3</ele>
        <time>2022-06-15T11:17:46Z</time>
      </trkpt>
      <trkpt lat="45.74744" lon="6.54825">
        <ele>1539.6</ele>
        <time>2022-06-15T11:17:47Z</time>
      </trkpt>
      <trkpt lat="45.74745" lon="6.54822">
        <ele>1539.9</ele>
        <time>2022-06-15T11:17:48Z</time>
      </trkpt>
      <trkpt lat="45.74745" lon="6.54819">
        <ele>1540.2</ele>
        <time>2022-06-15T11:17:49Z</time>
      </trkpt>
      <trkpt lat="45.74746" lon="6.54816">
        <ele>1540.4</ele>
        <time>2022-06-15T11:17:50Z</time>
      </trkpt>
      <trkpt lat="45.74746" lon="6.54813">
        <ele>1540.7</ele>
        <time>2022-06-15T11:17:51Z</time>
      </trkpt>
      <trkpt lat="45.74746" lon="6.5481">
        <ele>1541</ele>
        <time>2022-06-15T11:17:52Z</time>
      </trkpt>
      <trkpt lat="45.74746" lon="6.54807">
        <ele>1541.2</ele>
        <time>2022-06-15T11:17:53Z</time>
      </trkpt>
      <trkpt lat="45.74747" lon="6.54804">
        <ele>1541.4</ele>
        <time>2022-06-15T11:17:54Z</time>
      </trkpt>
      <trkpt lat="45.74748" lon="6.54801">
        <ele>1541.5</ele>
        <time>2022-06-15T11:17:55Z</time>
      </trkpt>
      <trkpt lat="45.74748" lon="6.54798">
        <ele>1541.6</ele>
        <time>2022-06-15T11:17:56Z</time>
      </trkpt>
      <trkpt lat="45.74749" lon="6.54795">
        <ele>1541.7</ele>
        <time>2022-06-15T11:17:57Z</time>
      </trkpt>
      <trkpt lat="45.7475" lon="6.54793">
        <ele>1541.9</ele>
        <time>2022-06-15T11:17:58Z</time>
      </trkpt>
      <trkpt lat="45.7475" lon="6.5479">
        <ele>1542</ele>
        <time>2022-06-15T11:17:59Z</time>
      </trkpt>
      <trkpt lat="45.74751" lon="6.54787">
        <ele>1542.2</ele>
        <time>2022-06-15T11:18:00Z</time>
      </trkpt>
      <trkpt lat="45.74752" lon="6.54784">
        <ele>1542.4</ele>
        <time>2022-06-15T11:18:01Z</time>
      </trkpt>
      <trkpt lat="45.74754" lon="6.54781">
        <ele>1542.6</ele>
        <time>2022-06-15T11:18:02Z</time>
      </trkpt>
      <trkpt lat="45.74755" lon="6.54779">
        <ele>1542.9</ele>
        <time>2022-06-15T11:18:03Z</time>
      </trkpt>
      <trkpt lat="45.74756" lon="6.54777">
        <ele>1543</ele>
        <time>2022-06-15T11:18:04Z</time>
      </trkpt>
      <trkpt lat="45.74758" lon="6.54775">
        <ele>1543</ele>
        <time>2022-06-15T11:18:05Z</time>
      </trkpt>
      <trkpt lat="45.7476" lon="6.54773">
        <ele>1543</ele>
        <time>2022-06-15T11:18:06Z</time>
      </trkpt>
      <trkpt lat="45.74761" lon="6.54771">
        <ele>1543</ele>
        <time>2022-06-15T11:18:07Z</time>
      </trkpt>
      <trkpt lat="45.74763" lon="6.54769">
        <ele>1543.1</ele>
        <time>2022-06-15T11:18:08Z</time>
      </trkpt>
      <trkpt lat="45.74765" lon="6.54767">
        <ele>1543.1</ele>
        <time>2022-06-15T11:18:09Z</time>
      </trkpt>
      <trkpt lat="45.74766" lon="6.54766">
        <ele>1543.2</ele>
        <time>2022-06-15T11:18:10Z</time>
      </trkpt>
      <trkpt lat="45.74768" lon="6.54764">
        <ele>1543.5</ele>
        <time>2022-06-15T11:18:11Z</time>
      </trkpt>
      <trkpt lat="45.7477" lon="6.54763">
        <ele>1543.7</ele>
        <time>2022-06-15T11:18:12Z</time>
      </trkpt>
      <trkpt lat="45.74773" lon="6.54762">
        <ele>1544.1</ele>
        <time>2022-06-15T11:18:13Z</time>
      </trkpt>
      <trkpt lat="45.74775" lon="6.54761">
        <ele>1544.5</ele>
        <time>2022-06-15T11:18:14Z</time>
      </trkpt>
      <trkpt lat="45.74777" lon="6.5476">
        <ele>1544.8</ele>
        <time>2022-06-15T11:18:15Z</time>
      </trkpt>
      <trkpt lat="45.74779" lon="6.54759">
        <ele>1545</ele>
        <time>2022-06-15T11:18:16Z</time>
      </trkpt>
      <trkpt lat="45.74781" lon="6.54758">
        <ele>1545.1</ele>
        <time>2022-06-15T11:18:17Z</time>
      </trkpt>
      <trkpt lat="45.74783" lon="6.54757">
        <ele>1545.2</ele>
        <time>2022-06-15T11:18:18Z</time>
      </trkpt>
      <trkpt lat="45.74785" lon="6.54756">
        <ele>1545.3</ele>
        <time>2022-06-15T11:18:19Z</time>
      </trkpt>
      <trkpt lat="45.74787" lon="6.54755">
        <ele>1545.4</ele>
        <time>2022-06-15T11:18:20Z</time>
      </trkpt>
      <trkpt lat="45.74789" lon="6.54754">
        <ele>1545.5</ele>
        <time>2022-06-15T11:18:21Z</time>
      </trkpt>
      <trkpt lat="45.74791" lon="6.54753">
        <ele>1545.6</ele>
        <time>2022-06-15T11:18:22Z</time>
      </trkpt>
      <trkpt lat="45.74793" lon="6.54752">
        <ele>1545.8</ele>
        <time>2022-06-15T11:18:23Z</time>
      </trkpt>
      <trkpt lat="45.74795" lon="6.54751">
        <ele>1545.9</ele>
        <time>2022-06-15T11:18:24Z</time>
      </trkpt>
      <trkpt lat="45.74797" lon="6.5475">
        <ele>1546</ele>
        <time>2022-06-15T11:18:25Z</time>
      </trkpt>
      <trkpt lat="45.74799" lon="6.54749">
        <ele>1546.2</ele>
        <time>2022-06-15T11:18:26Z</time>
      </trkpt>
      <trkpt lat="45.74802" lon="6.54749">
        <ele>1546.5</ele>
        <time>2022-06-15T11:18:27Z</time>
      </trkpt>
      <trkpt lat="45.74804" lon="6.54749">
        <ele>1546.7</ele>
        <time>2022-06-15T11:18:28Z</time>
      </trkpt>
      <trkpt lat="45.74806" lon="6.54749">
        <ele>1547</ele>
        <time>2022-06-15T11:18:29Z</time>
      </trkpt>
      <trkpt lat="45.74808" lon="6.5475">
        <ele>1547.1</ele>
        <time>2022-06-15T11:18:30Z</time>
      </trkpt>
      <trkpt lat="45.7481" lon="6.5475">
        <ele>1547.3</ele>
        <time>2022-06-15T11:18:31Z</time>
      </trkpt>
      <trkpt lat="45.74812" lon="6.54751">
        <ele>1547.5</ele>
        <time>2022-06-15T11:18:32Z</time>
      </trkpt>
      <trkpt lat="45.74814" lon="6.54751">
        <ele>1547.7</ele>
        <time>2022-06-15T11:18:33Z</time>
      </trkpt>
      <trkpt lat="45.74816" lon="6.54752">
        <ele>1547.8</ele>
        <time>2022-06-15T11:18:34Z</time>
      </trkpt>
      <trkpt lat="45.74818" lon="6.54753">
        <ele>1548</ele>
        <time>2022-06-15T11:18:35Z</time>
      </trkpt>
      <trkpt lat="45.74821" lon="6.54754">
        <ele>1548.2</ele>
        <time>2022-06-15T11:18:36Z</time>
      </trkpt>
      <trkpt lat="45.74823" lon="6.54755">
        <ele>1548.4</ele>
        <time>2022-06-15T11:18:37Z</time>
      </trkpt>
      <trkpt lat="45.74825" lon="6.54756">
        <ele>1548.6</ele>
        <time>2022-06-15T11:18:38Z</time>
      </trkpt>
      <trkpt lat="45.74827" lon="6.54757">
        <ele>1548.7</ele>
        <time>2022-06-15T11:18:39Z</time>
      </trkpt>
      <trkpt lat="45.74829" lon="6.54758">
        <ele>1548.9</ele>
        <time>2022-06-15T11:18:40Z</time>
      </trkpt>
      <trkpt lat="45.74831" lon="6.5476">
        <ele>1549.1</ele>
        <time>2022-06-15T11:18:41Z</time>
      </trkpt>
      <trkpt lat="45.74832" lon="6.54761">
        <ele>1549.3</ele>
        <time>2022-06-15T11:18:42Z</time>
      </trkpt>
      <trkpt lat="45.74834" lon="6.54763">
        <ele>1549.5</ele>
        <time>2022-06-15T11:18:43Z</time>
      </trkpt>
      <trkpt lat="45.74836" lon="6.54764">
        <ele>1549.6</ele>
        <time>2022-06-15T11:18:44Z</time>
      </trkpt>
      <trkpt lat="45.74838" lon="6.54765">
        <ele>1549.8</ele>
        <time>2022-06-15T11:18:45Z</time>
      </trkpt>
      <trkpt lat="45.7484" lon="6.54766">
        <ele>1550</ele>
        <time>2022-06-15T11:18:46Z</time>
      </trkpt>
      <trkpt lat="45.74842" lon="6.54767">
        <ele>1550.1</ele>
        <time>2022-06-15T11:18:47Z</time>
      </trkpt>
      <trkpt lat="45.74845" lon="6.54769">
        <ele>1550.3</ele>
        <time>2022-06-15T11:18:48Z</time>
      </trkpt>
      <trkpt lat="45.74847" lon="6.5477">
        <ele>1550.6</ele>
        <time>2022-06-15T11:18:49Z</time>
      </trkpt>
      <trkpt lat="45.74849" lon="6.54772">
        <ele>1550.8</ele>
        <time>2022-06-15T11:18:50Z</time>
      </trkpt>
      <trkpt lat="45.74851" lon="6.54773">
        <ele>1551</ele>
        <time>2022-06-15T11:18:51Z</time>
      </trkpt>
      <trkpt lat="45.74853" lon="6.54773">
        <ele>1551.1</ele>
        <time>2022-06-15T11:18:52Z</time>
      </trkpt>
      <trkpt lat="45.74856" lon="6.54774">
        <ele>1551.4</ele>
        <time>2022-06-15T11:18:53Z</time>
      </trkpt>
      <trkpt lat="45.74858" lon="6.54775">
        <ele>1551.6</ele>
        <time>2022-06-15T11:18:54Z</time>
      </trkpt>
      <trkpt lat="45.74861" lon="6.54775">
        <ele>1551.8</ele>
        <time>2022-06-15T11:18:55Z</time>
      </trkpt>
      <trkpt lat="45.74864" lon="6.54775">
        <ele>1552</ele>
        <time>2022-06-15T11:18:56Z</time>
      </trkpt>
      <trkpt lat="45.74867" lon="6.54774">
        <ele>1552.1</ele>
        <time>2022-06-15T11:18:57Z</time>
      </trkpt>
      <trkpt lat="45.74869" lon="6.54774">
        <ele>1552.3</ele>
        <time>2022-06-15T11:18:58Z</time>
      </trkpt>
      <trkpt lat="45.74872" lon="6.54774">
        <ele>1552.5</ele>
        <time>2022-06-15T11:18:59Z</time>
      </trkpt>
      <trkpt lat="45.74874" lon="6.54774">
        <ele>1552.7</ele>
        <time>2022-06-15T11:19:00Z</time>
      </trkpt>
      <trkpt lat="45.74877" lon="6.54774">
        <ele>1552.9</ele>
        <time>2022-06-15T11:19:01Z</time>
      </trkpt>
      <trkpt lat="45.74881" lon="6.54774">
        <ele>1553.1</ele>
        <time>2022-06-15T11:19:02Z</time>
      </trkpt>
      <trkpt lat="45.74884" lon="6.54773">
        <ele>1553.3</ele>
        <time>2022-06-15T11:19:03Z</time>
      </trkpt>
      <trkpt lat="45.74887" lon="6.54772">
        <ele>1553.5</ele>
        <time>2022-06-15T11:19:04Z</time>
      </trkpt>
      <trkpt lat="45.7489" lon="6.54772">
        <ele>1553.7</ele>
        <time>2022-06-15T11:19:05Z</time>
      </trkpt>
      <trkpt lat="45.74893" lon="6.54771">
        <ele>1554.1</ele>
        <time>2022-06-15T11:19:06Z</time>
      </trkpt>
      <trkpt lat="45.74896" lon="6.5477">
        <ele>1554.4</ele>
        <time>2022-06-15T11:19:07Z</time>
      </trkpt>
      <trkpt lat="45.74899" lon="6.54769">
        <ele>1554.7</ele>
        <time>2022-06-15T11:19:08Z</time>
      </trkpt>
      <trkpt lat="45.74901" lon="6.54769">
        <ele>1554.9</ele>
        <time>2022-06-15T11:19:09Z</time>
      </trkpt>
      <trkpt lat="45.74904" lon="6.54768">
        <ele>1555.3</ele>
        <time>2022-06-15T11:19:10Z</time>
      </trkpt>
      <trkpt lat="45.74907" lon="6.54767">
        <ele>1555.5</ele>
        <time>2022-06-15T11:19:11Z</time>
      </trkpt>
      <trkpt lat="45.74909" lon="6.54767">
        <ele>1555.8</ele>
        <time>2022-06-15T11:19:12Z</time>
      </trkpt>
      <trkpt lat="45.74912" lon="6.54766">
        <ele>1556.1</ele>
        <time>2022-06-15T11:19:13Z</time>
      </trkpt>
      <trkpt lat="45.74914" lon="6.54766">
        <ele>1556.3</ele>
        <time>2022-06-15T11:19:14Z</time>
      </trkpt>
      <trkpt lat="45.74917" lon="6.54765">
        <ele>1556.6</ele>
        <time>2022-06-15T11:19:15Z</time>
      </trkpt>
      <trkpt lat="45.74919" lon="6.54764">
        <ele>1556.8</ele>
        <time>2022-06-15T11:19:16Z</time>
      </trkpt>
      <trkpt lat="45.74922" lon="6.54764">
        <ele>1557</ele>
        <time>2022-06-15T11:19:17Z</time>
      </trkpt>
      <trkpt lat="45.74924" lon="6.54763">
        <ele>1557.2</ele>
        <time>2022-06-15T11:19:18Z</time>
      </trkpt>
      <trkpt lat="45.74927" lon="6.54763">
        <ele>1557.4</ele>
        <time>2022-06-15T11:19:19Z</time>
      </trkpt>
      <trkpt lat="45.74929" lon="6.54762">
        <ele>1557.7</ele>
        <time>2022-06-15T11:19:20Z</time>
      </trkpt>
      <trkpt lat="45.74932" lon="6.54762">
        <ele>1557.9</ele>
        <time>2022-06-15T11:19:21Z</time>
      </trkpt>
      <trkpt lat="45.74934" lon="6.54761">
        <ele>1558.1</ele>
        <time>2022-06-15T11:19:22Z</time>
      </trkpt>
      <trkpt lat="45.74937" lon="6.54761">
        <ele>1558.3</ele>
        <time>2022-06-15T11:19:23Z</time>
      </trkpt>
      <trkpt lat="45.74939" lon="6.5476">
        <ele>1558.5</ele>
        <time>2022-06-15T11:19:24Z</time>
      </trkpt>
      <trkpt lat="45.74942" lon="6.5476">
        <ele>1558.7</ele>
        <time>2022-06-15T11:19:25Z</time>
      </trkpt>
      <trkpt lat="45.74944" lon="6.54759">
        <ele>1558.9</ele>
        <time>2022-06-15T11:19:26Z</time>
      </trkpt>
      <trkpt lat="45.74946" lon="6.54758">
        <ele>1559</ele>
        <time>2022-06-15T11:19:27Z</time>
      </trkpt>
      <trkpt lat="45.74949" lon="6.54757">
        <ele>1559.1</ele>
        <time>2022-06-15T11:19:28Z</time>
      </trkpt>
      <trkpt lat="45.74951" lon="6.54757">
        <ele>1559.2</ele>
        <time>2022-06-15T11:19:29Z</time>
      </trkpt>
      <trkpt lat="45.74954" lon="6.54757">
        <ele>1559.4</ele>
        <time>2022-06-15T11:19:30Z</time>
      </trkpt>
      <trkpt lat="45.74956" lon="6.54756">
        <ele>1559.5</ele>
        <time>2022-06-15T11:19:31Z</time>
      </trkpt>
      <trkpt lat="45.74959" lon="6.54755">
        <ele>1559.6</ele>
        <time>2022-06-15T11:19:32Z</time>
      </trkpt>
      <trkpt lat="45.74961" lon="6.54755">
        <ele>1559.7</ele>
        <time>2022-06-15T11:19:33Z</time>
      </trkpt>
      <trkpt lat="45.74964" lon="6.54754">
        <ele>1559.8</ele>
        <time>2022-06-15T11:19:34Z</time>
      </trkpt>
      <trkpt lat="45.74966" lon="6.54754">
        <ele>1559.9</ele>
        <time>2022-06-15T11:19:35Z</time>
      </trkpt>
      <trkpt lat="45.74969" lon="6.54753">
        <ele>1560</ele>
        <time>2022-06-15T11:19:36Z</time>
      </trkpt>
      <trkpt lat="45.74971" lon="6.54753">
        <ele>1560.2</ele>
        <time>2022-06-15T11:19:37Z</time>
      </trkpt>
      <trkpt lat="45.74974" lon="6.54752">
        <ele>1560.4</ele>
        <time>2022-06-15T11:19:38Z</time>
      </trkpt>
      <trkpt lat="45.74976" lon="6.54752">
        <ele>1560.6</ele>
        <time>2022-06-15T11:19:39Z</time>
      </trkpt>
      <trkpt lat="45.74979" lon="6.54751">
        <ele>1560.8</ele>
        <time>2022-06-15T11:19:40Z</time>
      </trkpt>
      <trkpt lat="45.74981" lon="6.54751">
        <ele>1561</ele>
        <time>2022-06-15T11:19:41Z</time>
      </trkpt>
      <trkpt lat="45.74984" lon="6.5475">
        <ele>1561.2</ele>
        <time>2022-06-15T11:19:42Z</time>
      </trkpt>
      <trkpt lat="45.74986" lon="6.5475">
        <ele>1561.4</ele>
        <time>2022-06-15T11:19:43Z</time>
      </trkpt>
      <trkpt lat="45.74989" lon="6.54749">
        <ele>1561.6</ele>
        <time>2022-06-15T11:19:44Z</time>
      </trkpt>
      <trkpt lat="45.74991" lon="6.54748">
        <ele>1561.8</ele>
        <time>2022-06-15T11:19:45Z</time>
      </trkpt>
      <trkpt lat="45.74993" lon="6.54748">
        <ele>1562</ele>
        <time>2022-06-15T11:19:46Z</time>
      </trkpt>
      <trkpt lat="45.74996" lon="6.54747">
        <ele>1562.2</ele>
        <time>2022-06-15T11:19:47Z</time>
      </trkpt>
      <trkpt lat="45.74998" lon="6.54746">
        <ele>1562.4</ele>
        <time>2022-06-15T11:19:48Z</time>
      </trkpt>
      <trkpt lat="45.75" lon="6.54746">
        <ele>1562.5</ele>
        <time>2022-06-15T11:19:49Z</time>
      </trkpt>
      <trkpt lat="45.75003" lon="6.54745">
        <ele>1562.7</ele>
        <time>2022-06-15T11:19:50Z</time>
      </trkpt>
      <trkpt lat="45.75005" lon="6.54745">
        <ele>1562.9</ele>
        <time>2022-06-15T11:19:51Z</time>
      </trkpt>
      <trkpt lat="45.75007" lon="6.54744">
        <ele>1563</ele>
        <time>2022-06-15T11:19:52Z</time>
      </trkpt>
      <trkpt lat="45.7501" lon="6.54744">
        <ele>1563.3</ele>
        <time>2022-06-15T11:19:53Z</time>
      </trkpt>
      <trkpt lat="45.75013" lon="6.54744">
        <ele>1563.5</ele>
        <time>2022-06-15T11:19:54Z</time>
      </trkpt>
      <trkpt lat="45.75015" lon="6.54743">
        <ele>1563.6</ele>
        <time>2022-06-15T11:19:55Z</time>
      </trkpt>
      <trkpt lat="45.75018" lon="6.54742">
        <ele>1563.7</ele>
        <time>2022-06-15T11:19:56Z</time>
      </trkpt>
      <trkpt lat="45.7502" lon="6.54742">
        <ele>1563.8</ele>
        <time>2022-06-15T11:19:57Z</time>
      </trkpt>
      <trkpt lat="45.75023" lon="6.54741">
        <ele>1564</ele>
        <time>2022-06-15T11:19:58Z</time>
      </trkpt>
      <trkpt lat="45.75026" lon="6.54741">
        <ele>1564.2</ele>
        <time>2022-06-15T11:19:59Z</time>
      </trkpt>
      <trkpt lat="45.75028" lon="6.5474">
        <ele>1564.3</ele>
        <time>2022-06-15T11:20:00Z</time>
      </trkpt>
      <trkpt lat="45.75031" lon="6.5474">
        <ele>1564.5</ele>
        <time>2022-06-15T11:20:01Z</time>
      </trkpt>
      <trkpt lat="45.75034" lon="6.54739">
        <ele>1564.6</ele>
        <time>2022-06-15T11:20:02Z</time>
      </trkpt>
      <trkpt lat="45.75036" lon="6.54738">
        <ele>1564.8</ele>
        <time>2022-06-15T11:20:03Z</time>
      </trkpt>
      <trkpt lat="45.75039" lon="6.54737">
        <ele>1565.1</ele>
        <time>2022-06-15T11:20:04Z</time>
      </trkpt>
      <trkpt lat="45.75042" lon="6.54736">
        <ele>1565.3</ele>
        <time>2022-06-15T11:20:05Z</time>
      </trkpt>
      <trkpt lat="45.75045" lon="6.54735">
        <ele>1565.5</ele>
        <time>2022-06-15T11:20:06Z</time>
      </trkpt>
      <trkpt lat="45.75047" lon="6.54735">
        <ele>1565.7</ele>
        <time>2022-06-15T11:20:07Z</time>
      </trkpt>
      <trkpt lat="45.7505" lon="6.54734">
        <ele>1565.9</ele>
        <time>2022-06-15T11:20:08Z</time>
      </trkpt>
      <trkpt lat="45.75052" lon="6.54733">
        <ele>1566.1</ele>
        <time>2022-06-15T11:20:09Z</time>
      </trkpt>
      <trkpt lat="45.75055" lon="6.54732">
        <ele>1566.3</ele>
        <time>2022-06-15T11:20:10Z</time>
      </trkpt>
      <trkpt lat="45.75057" lon="6.54731">
        <ele>1566.5</ele>
        <time>2022-06-15T11:20:11Z</time>
      </trkpt>
      <trkpt lat="45.7506" lon="6.5473">
        <ele>1566.6</ele>
        <time>2022-06-15T11:20:12Z</time>
      </trkpt>
      <trkpt lat="45.75062" lon="6.54729">
        <ele>1566.7</ele>
        <time>2022-06-15T11:20:13Z</time>
      </trkpt>
      <trkpt lat="45.75064" lon="6.54729">
        <ele>1566.8</ele>
        <time>2022-06-15T11:20:14Z</time>
      </trkpt>
      <trkpt lat="45.75067" lon="6.54728">
        <ele>1567</ele>
        <time>2022-06-15T11:20:15Z</time>
      </trkpt>
      <trkpt lat="45.7507" lon="6.54727">
        <ele>1567.1</ele>
        <time>2022-06-15T11:20:16Z</time>
      </trkpt>
      <trkpt lat="45.75072" lon="6.54726">
        <ele>1567.2</ele>
        <time>2022-06-15T11:20:17Z</time>
      </trkpt>
      <trkpt lat="45.75074" lon="6.54725">
        <ele>1567.4</ele>
        <time>2022-06-15T11:20:18Z</time>
      </trkpt>
      <trkpt lat="45.75077" lon="6.54724">
        <ele>1567.5</ele>
        <time>2022-06-15T11:20:19Z</time>
      </trkpt>
      <trkpt lat="45.75079" lon="6.54723">
        <ele>1567.7</ele>
        <time>2022-06-15T11:20:20Z</time>
      </trkpt>
      <trkpt lat="45.75082" lon="6.54722">
        <ele>1567.8</ele>
        <time>2022-06-15T11:20:21Z</time>
      </trkpt>
      <trkpt lat="45.75084" lon="6.54721">
        <ele>1568</ele>
        <time>2022-06-15T11:20:22Z</time>
      </trkpt>
      <trkpt lat="45.75086" lon="6.5472">
        <ele>1568.3</ele>
        <time>2022-06-15T11:20:23Z</time>
      </trkpt>
      <trkpt lat="45.75089" lon="6.54719">
        <ele>1568.6</ele>
        <time>2022-06-15T11:20:24Z</time>
      </trkpt>
      <trkpt lat="45.75091" lon="6.54719">
        <ele>1568.8</ele>
        <time>2022-06-15T11:20:25Z</time>
      </trkpt>
      <trkpt lat="45.75094" lon="6.54718">
        <ele>1569.1</ele>
        <time>2022-06-15T11:20:26Z</time>
      </trkpt>
      <trkpt lat="45.75096" lon="6.54717">
        <ele>1569.3</ele>
        <time>2022-06-15T11:20:27Z</time>
      </trkpt>
      <trkpt lat="45.75099" lon="6.54716">
        <ele>1569.6</ele>
        <time>2022-06-15T11:20:28Z</time>
      </trkpt>
      <trkpt lat="45.75101" lon="6.54715">
        <ele>1569.8</ele>
        <time>2022-06-15T11:20:29Z</time>
      </trkpt>
      <trkpt lat="45.75103" lon="6.54714">
        <ele>1570</ele>
        <time>2022-06-15T11:20:30Z</time>
      </trkpt>
      <trkpt lat="45.75106" lon="6.54713">
        <ele>1570.3</ele>
        <time>2022-06-15T11:20:31Z</time>
      </trkpt>
      <trkpt lat="45.75108" lon="6.54712">
        <ele>1570.5</ele>
        <time>2022-06-15T11:20:32Z</time>
      </trkpt>
      <trkpt lat="45.75111" lon="6.5471">
        <ele>1570.7</ele>
        <time>2022-06-15T11:20:33Z</time>
      </trkpt>
      <trkpt lat="45.75114" lon="6.54709">
        <ele>1570.9</ele>
        <time>2022-06-15T11:20:34Z</time>
      </trkpt>
      <trkpt lat="45.75116" lon="6.54708">
        <ele>1571</ele>
        <time>2022-06-15T11:20:35Z</time>
      </trkpt>
      <trkpt lat="45.75119" lon="6.54707">
        <ele>1571.2</ele>
        <time>2022-06-15T11:20:36Z</time>
      </trkpt>
      <trkpt lat="45.75121" lon="6.54706">
        <ele>1571.3</ele>
        <time>2022-06-15T11:20:37Z</time>
      </trkpt>
      <trkpt lat="45.75124" lon="6.54705">
        <ele>1571.5</ele>
        <time>2022-06-15T11:20:38Z</time>
      </trkpt>
      <trkpt lat="45.75126" lon="6.54705">
        <ele>1571.7</ele>
        <time>2022-06-15T11:20:39Z</time>
      </trkpt>
      <trkpt lat="45.75129" lon="6.54704">
        <ele>1571.9</ele>
        <time>2022-06-15T11:20:40Z</time>
      </trkpt>
      <trkpt lat="45.75131" lon="6.54703">
        <ele>1572.1</ele>
        <time>2022-06-15T11:20:41Z</time>
      </trkpt>
      <trkpt lat="45.75134" lon="6.54702">
        <ele>1572.3</ele>
        <time>2022-06-15T11:20:42Z</time>
      </trkpt>
      <trkpt lat="45.75136" lon="6.54702">
        <ele>1572.5</ele>
        <time>2022-06-15T11:20:43Z</time>
      </trkpt>
      <trkpt lat="45.75139" lon="6.54701">
        <ele>1572.6</ele>
        <time>2022-06-15T11:20:44Z</time>
      </trkpt>
      <trkpt lat="45.75141" lon="6.547">
        <ele>1572.8</ele>
        <time>2022-06-15T11:20:45Z</time>
      </trkpt>
      <trkpt lat="45.75144" lon="6.54699">
        <ele>1573</ele>
        <time>2022-06-15T11:20:46Z</time>
      </trkpt>
      <trkpt lat="45.75146" lon="6.54698">
        <ele>1573.2</ele>
        <time>2022-06-15T11:20:47Z</time>
      </trkpt>
      <trkpt lat="45.75148" lon="6.54697">
        <ele>1573.3</ele>
        <time>2022-06-15T11:20:48Z</time>
      </trkpt>
      <trkpt lat="45.75151" lon="6.54696">
        <ele>1573.4</ele>
        <time>2022-06-15T11:20:49Z</time>
      </trkpt>
      <trkpt lat="45.75153" lon="6.54695">
        <ele>1573.6</ele>
        <time>2022-06-15T11:20:50Z</time>
      </trkpt>
      <trkpt lat="45.75156" lon="6.54694">
        <ele>1573.7</ele>
        <time>2022-06-15T11:20:51Z</time>
      </trkpt>
      <trkpt lat="45.75158" lon="6.54693">
        <ele>1573.8</ele>
        <time>2022-06-15T11:20:52Z</time>
      </trkpt>
      <trkpt lat="45.75161" lon="6.54692">
        <ele>1573.9</ele>
        <time>2022-06-15T11:20:53Z</time>
      </trkpt>
      <trkpt lat="45.75163" lon="6.54691">
        <ele>1574</ele>
        <time>2022-06-15T11:20:54Z</time>
      </trkpt>
      <trkpt lat="45.75166" lon="6.5469">
        <ele>1574.2</ele>
        <time>2022-06-15T11:20:55Z</time>
      </trkpt>
      <trkpt lat="45.75168" lon="6.54689">
        <ele>1574.2</ele>
        <time>2022-06-15T11:20:56Z</time>
      </trkpt>
      <trkpt lat="45.75171" lon="6.54688">
        <ele>1574.3</ele>
        <time>2022-06-15T11:20:57Z</time>
      </trkpt>
      <trkpt lat="45.75174" lon="6.54687">
        <ele>1574.4</ele>
        <time>2022-06-15T11:20:58Z</time>
      </trkpt>
      <trkpt lat="45.75176" lon="6.54686">
        <ele>1574.6</ele>
        <time>2022-06-15T11:20:59Z</time>
      </trkpt>
      <trkpt lat="45.75179" lon="6.54685">
        <ele>1574.8</ele>
        <time>2022-06-15T11:21:00Z</time>
      </trkpt>
      <trkpt lat="45.75181" lon="6.54684">
        <ele>1575</ele>
        <time>2022-06-15T11:21:01Z</time>
      </trkpt>
      <trkpt lat="45.75184" lon="6.54683">
        <ele>1575.3</ele>
        <time>2022-06-15T11:21:02Z</time>
      </trkpt>
      <trkpt lat="45.75186" lon="6.54682">
        <ele>1575.5</ele>
        <time>2022-06-15T11:21:03Z</time>
      </trkpt>
      <trkpt lat="45.75189" lon="6.54681">
        <ele>1575.7</ele>
        <time>2022-06-15T11:21:04Z</time>
      </trkpt>
      <trkpt lat="45.75192" lon="6.5468">
        <ele>1576</ele>
        <time>2022-06-15T11:21:05Z</time>
      </trkpt>
      <trkpt lat="45.75194" lon="6.54679">
        <ele>1576.3</ele>
        <time>2022-06-15T11:21:06Z</time>
      </trkpt>
      <trkpt lat="45.75197" lon="6.54678">
        <ele>1576.3</ele>
        <time>2022-06-15T11:21:07Z</time>
      </trkpt>
      <trkpt lat="45.75199" lon="6.54677">
        <ele>1576.4</ele>
        <time>2022-06-15T11:21:08Z</time>
      </trkpt>
      <trkpt lat="45.75202" lon="6.54676">
        <ele>1576.5</ele>
        <time>2022-06-15T11:21:09Z</time>
      </trkpt>
      <trkpt lat="45.75205" lon="6.54675">
        <ele>1576.5</ele>
        <time>2022-06-15T11:21:10Z</time>
      </trkpt>
      <trkpt lat="45.75207" lon="6.54673">
        <ele>1576.5</ele>
        <time>2022-06-15T11:21:11Z</time>
      </trkpt>
      <trkpt lat="45.7521" lon="6.54672">
        <ele>1576.6</ele>
        <time>2022-06-15T11:21:12Z</time>
      </trkpt>
      <trkpt lat="45.75212" lon="6.54671">
        <ele>1576.7</ele>
        <time>2022-06-15T11:21:13Z</time>
      </trkpt>
      <trkpt lat="45.75215" lon="6.5467">
        <ele>1576.7</ele>
        <time>2022-06-15T11:21:14Z</time>
      </trkpt>
      <trkpt lat="45.75218" lon="6.54669">
        <ele>1576.8</ele>
        <time>2022-06-15T11:21:15Z</time>
      </trkpt>
      <trkpt lat="45.7522" lon="6.54668">
        <ele>1576.9</ele>
        <time>2022-06-15T11:21:16Z</time>
      </trkpt>
      <trkpt lat="45.75223" lon="6.54667">
        <ele>1577.1</ele>
        <time>2022-06-15T11:21:17Z</time>
      </trkpt>
      <trkpt lat="45.75225" lon="6.54667">
        <ele>1577.4</ele>
        <time>2022-06-15T11:21:18Z</time>
      </trkpt>
      <trkpt lat="45.75228" lon="6.54665">
        <ele>1577.6</ele>
        <time>2022-06-15T11:21:19Z</time>
      </trkpt>
      <trkpt lat="45.7523" lon="6.54664">
        <ele>1577.8</ele>
        <time>2022-06-15T11:21:20Z</time>
      </trkpt>
      <trkpt lat="45.75233" lon="6.54664">
        <ele>1578.1</ele>
        <time>2022-06-15T11:21:21Z</time>
      </trkpt>
      <trkpt lat="45.75235" lon="6.54663">
        <ele>1578.4</ele>
        <time>2022-06-15T11:21:22Z</time>
      </trkpt>
      <trkpt lat="45.75238" lon="6.54662">
        <ele>1578.7</ele>
        <time>2022-06-15T11:21:23Z</time>
      </trkpt>
      <trkpt lat="45.75241" lon="6.54661">
        <ele>1579</ele>
        <time>2022-06-15T11:21:24Z</time>
      </trkpt>
      <trkpt lat="45.75243" lon="6.54661">
        <ele>1579.3</ele>
        <time>2022-06-15T11:21:25Z</time>
      </trkpt>
      <trkpt lat="45.75246" lon="6.54659">
        <ele>1579.5</ele>
        <time>2022-06-15T11:21:26Z</time>
      </trkpt>
      <trkpt lat="45.75248" lon="6.54658">
        <ele>1579.7</ele>
        <time>2022-06-15T11:21:27Z</time>
      </trkpt>
      <trkpt lat="45.75251" lon="6.54656">
        <ele>1579.9</ele>
        <time>2022-06-15T11:21:28Z</time>
      </trkpt>
      <trkpt lat="45.75253" lon="6.54655">
        <ele>1580</ele>
        <time>2022-06-15T11:21:29Z</time>
      </trkpt>
      <trkpt lat="45.75256" lon="6.54654">
        <ele>1580.1</ele>
        <time>2022-06-15T11:21:30Z</time>
      </trkpt>
      <trkpt lat="45.75258" lon="6.54653">
        <ele>1580.3</ele>
        <time>2022-06-15T11:21:31Z</time>
      </trkpt>
      <trkpt lat="45.75261" lon="6.54652">
        <ele>1580.4</ele>
        <time>2022-06-15T11:21:32Z</time>
      </trkpt>
      <trkpt lat="45.75263" lon="6.54652">
        <ele>1580.6</ele>
        <time>2022-06-15T11:21:33Z</time>
      </trkpt>
      <trkpt lat="45.75266" lon="6.54651">
        <ele>1580.7</ele>
        <time>2022-06-15T11:21:34Z</time>
      </trkpt>
      <trkpt lat="45.75268" lon="6.5465">
        <ele>1580.9</ele>
        <time>2022-06-15T11:21:35Z</time>
      </trkpt>
      <trkpt lat="45.75271" lon="6.54649">
        <ele>1581</ele>
        <time>2022-06-15T11:21:36Z</time>
      </trkpt>
      <trkpt lat="45.75274" lon="6.54648">
        <ele>1581.3</ele>
        <time>2022-06-15T11:21:37Z</time>
      </trkpt>
      <trkpt lat="45.75276" lon="6.54648">
        <ele>1581.5</ele>
        <time>2022-06-15T11:21:38Z</time>
      </trkpt>
      <trkpt lat="45.75279" lon="6.54648">
        <ele>1581.8</ele>
        <time>2022-06-15T11:21:39Z</time>
      </trkpt>
      <trkpt lat="45.75282" lon="6.54648">
        <ele>1581.9</ele>
        <time>2022-06-15T11:21:40Z</time>
      </trkpt>
      <trkpt lat="45.75285" lon="6.54648">
        <ele>1582.1</ele>
        <time>2022-06-15T11:21:41Z</time>
      </trkpt>
      <trkpt lat="45.75287" lon="6.54647">
        <ele>1582.3</ele>
        <time>2022-06-15T11:21:42Z</time>
      </trkpt>
      <trkpt lat="45.7529" lon="6.54647">
        <ele>1582.4</ele>
        <time>2022-06-15T11:21:43Z</time>
      </trkpt>
      <trkpt lat="45.75292" lon="6.54646">
        <ele>1582.5</ele>
        <time>2022-06-15T11:21:44Z</time>
      </trkpt>
      <trkpt lat="45.75295" lon="6.54646">
        <ele>1582.7</ele>
        <time>2022-06-15T11:21:45Z</time>
      </trkpt>
      <trkpt lat="45.75297" lon="6.54646">
        <ele>1582.9</ele>
        <time>2022-06-15T11:21:46Z</time>
      </trkpt>
      <trkpt lat="45.753" lon="6.54645">
        <ele>1583</ele>
        <time>2022-06-15T11:21:47Z</time>
      </trkpt>
      <trkpt lat="45.75302" lon="6.54644">
        <ele>1583.1</ele>
        <time>2022-06-15T11:21:48Z</time>
      </trkpt>
      <trkpt lat="45.75305" lon="6.54643">
        <ele>1583.2</ele>
        <time>2022-06-15T11:21:49Z</time>
      </trkpt>
      <trkpt lat="45.75307" lon="6.54642">
        <ele>1583.3</ele>
        <time>2022-06-15T11:21:50Z</time>
      </trkpt>
      <trkpt lat="45.7531" lon="6.54641">
        <ele>1583.4</ele>
        <time>2022-06-15T11:21:51Z</time>
      </trkpt>
      <trkpt lat="45.75312" lon="6.54639">
        <ele>1583.5</ele>
        <time>2022-06-15T11:21:52Z</time>
      </trkpt>
      <trkpt lat="45.75315" lon="6.54638">
        <ele>1583.6</ele>
        <time>2022-06-15T11:21:53Z</time>
      </trkpt>
      <trkpt lat="45.75317" lon="6.54636">
        <ele>1583.6</ele>
        <time>2022-06-15T11:21:54Z</time>
      </trkpt>
      <trkpt lat="45.75319" lon="6.54635">
        <ele>1583.8</ele>
        <time>2022-06-15T11:21:55Z</time>
      </trkpt>
      <trkpt lat="45.75322" lon="6.54633">
        <ele>1583.9</ele>
        <time>2022-06-15T11:21:56Z</time>
      </trkpt>
      <trkpt lat="45.75324" lon="6.54631">
        <ele>1584</ele>
        <time>2022-06-15T11:21:57Z</time>
      </trkpt>
      <trkpt lat="45.75326" lon="6.54629">
        <ele>1584.2</ele>
        <time>2022-06-15T11:21:58Z</time>
      </trkpt>
      <trkpt lat="45.75328" lon="6.54628">
        <ele>1584.4</ele>
        <time>2022-06-15T11:21:59Z</time>
      </trkpt>
      <trkpt lat="45.75331" lon="6.54626">
        <ele>1584.7</ele>
        <time>2022-06-15T11:22:00Z</time>
      </trkpt>
      <trkpt lat="45.75333" lon="6.54625">
        <ele>1585</ele>
        <time>2022-06-15T11:22:01Z</time>
      </trkpt>
      <trkpt lat="45.75336" lon="6.54623">
        <ele>1585.2</ele>
        <time>2022-06-15T11:22:02Z</time>
      </trkpt>
      <trkpt lat="45.75338" lon="6.54622">
        <ele>1585.3</ele>
        <time>2022-06-15T11:22:03Z</time>
      </trkpt>
      <trkpt lat="45.75341" lon="6.54621">
        <ele>1585.5</ele>
        <time>2022-06-15T11:22:04Z</time>
      </trkpt>
      <trkpt lat="45.75343" lon="6.54619">
        <ele>1585.7</ele>
        <time>2022-06-15T11:22:05Z</time>
      </trkpt>
      <trkpt lat="45.75346" lon="6.54618">
        <ele>1585.9</ele>
        <time>2022-06-15T11:22:06Z</time>
      </trkpt>
      <trkpt lat="45.75348" lon="6.54616">
        <ele>1586.1</ele>
        <time>2022-06-15T11:22:07Z</time>
      </trkpt>
      <trkpt lat="45.75351" lon="6.54615">
        <ele>1586.2</ele>
        <time>2022-06-15T11:22:08Z</time>
      </trkpt>
      <trkpt lat="45.75353" lon="6.54613">
        <ele>1586.4</ele>
        <time>2022-06-15T11:22:09Z</time>
      </trkpt>
      <trkpt lat="45.75356" lon="6.54612">
        <ele>1586.6</ele>
        <time>2022-06-15T11:22:10Z</time>
      </trkpt>
      <trkpt lat="45.75358" lon="6.5461">
        <ele>1586.7</ele>
        <time>2022-06-15T11:22:11Z</time>
      </trkpt>
      <trkpt lat="45.7536" lon="6.54609">
        <ele>1586.8</ele>
        <time>2022-06-15T11:22:12Z</time>
      </trkpt>
      <trkpt lat="45.75363" lon="6.54607">
        <ele>1587</ele>
        <time>2022-06-15T11:22:13Z</time>
      </trkpt>
      <trkpt lat="45.75365" lon="6.54605">
        <ele>1587.1</ele>
        <time>2022-06-15T11:22:14Z</time>
      </trkpt>
      <trkpt lat="45.75367" lon="6.54604">
        <ele>1587.2</ele>
        <time>2022-06-15T11:22:15Z</time>
      </trkpt>
      <trkpt lat="45.7537" lon="6.54602">
        <ele>1587.4</ele>
        <time>2022-06-15T11:22:16Z</time>
      </trkpt>
      <trkpt lat="45.75372" lon="6.546">
        <ele>1587.6</ele>
        <time>2022-06-15T11:22:17Z</time>
      </trkpt>
      <trkpt lat="45.75375" lon="6.54599">
        <ele>1587.8</ele>
        <time>2022-06-15T11:22:18Z</time>
      </trkpt>
      <trkpt lat="45.75377" lon="6.54597">
        <ele>1588</ele>
        <time>2022-06-15T11:22:19Z</time>
      </trkpt>
      <trkpt lat="45.7538" lon="6.54596">
        <ele>1588.2</ele>
        <time>2022-06-15T11:22:20Z</time>
      </trkpt>
      <trkpt lat="45.75382" lon="6.54595">
        <ele>1588.4</ele>
        <time>2022-06-15T11:22:21Z</time>
      </trkpt>
      <trkpt lat="45.75385" lon="6.54594">
        <ele>1588.6</ele>
        <time>2022-06-15T11:22:22Z</time>
      </trkpt>
      <trkpt lat="45.75387" lon="6.54593">
        <ele>1588.8</ele>
        <time>2022-06-15T11:22:23Z</time>
      </trkpt>
      <trkpt lat="45.7539" lon="6.54593">
        <ele>1589.1</ele>
        <time>2022-06-15T11:22:24Z</time>
      </trkpt>
      <trkpt lat="45.75392" lon="6.54592">
        <ele>1589.3</ele>
        <time>2022-06-15T11:22:25Z</time>
      </trkpt>
      <trkpt lat="45.75395" lon="6.54592">
        <ele>1589.6</ele>
        <time>2022-06-15T11:22:26Z</time>
      </trkpt>
      <trkpt lat="45.75397" lon="6.54592">
        <ele>1589.8</ele>
        <time>2022-06-15T11:22:27Z</time>
      </trkpt>
      <trkpt lat="45.75399" lon="6.54592">
        <ele>1590.1</ele>
        <time>2022-06-15T11:22:28Z</time>
      </trkpt>
      <trkpt lat="45.75402" lon="6.54593">
        <ele>1590.4</ele>
        <time>2022-06-15T11:22:29Z</time>
      </trkpt>
      <trkpt lat="45.75404" lon="6.54593">
        <ele>1590.6</ele>
        <time>2022-06-15T11:22:30Z</time>
      </trkpt>
      <trkpt lat="45.75406" lon="6.54593">
        <ele>1590.9</ele>
        <time>2022-06-15T11:22:31Z</time>
      </trkpt>
      <trkpt lat="45.75409" lon="6.54594">
        <ele>1591.2</ele>
        <time>2022-06-15T11:22:32Z</time>
      </trkpt>
      <trkpt lat="45.75411" lon="6.54594">
        <ele>1591.5</ele>
        <time>2022-06-15T11:22:33Z</time>
      </trkpt>
      <trkpt lat="45.75414" lon="6.54595">
        <ele>1591.8</ele>
        <time>2022-06-15T11:22:34Z</time>
      </trkpt>
      <trkpt lat="45.75416" lon="6.54595">
        <ele>1592.1</ele>
        <time>2022-06-15T11:22:35Z</time>
      </trkpt>
      <trkpt lat="45.75419" lon="6.54594">
        <ele>1592.4</ele>
        <time>2022-06-15T11:22:36Z</time>
      </trkpt>
      <trkpt lat="45.75421" lon="6.54594">
        <ele>1592.6</ele>
        <time>2022-06-15T11:22:37Z</time>
      </trkpt>
      <trkpt lat="45.75424" lon="6.54594">
        <ele>1592.9</ele>
        <time>2022-06-15T11:22:38Z</time>
      </trkpt>
      <trkpt lat="45.75426" lon="6.54594">
        <ele>1593.1</ele>
        <time>2022-06-15T11:22:39Z</time>
      </trkpt>
      <trkpt lat="45.75429" lon="6.54594">
        <ele>1593.4</ele>
        <time>2022-06-15T11:22:40Z</time>
      </trkpt>
      <trkpt lat="45.75431" lon="6.54593">
        <ele>1593.6</ele>
        <time>2022-06-15T11:22:41Z</time>
      </trkpt>
      <trkpt lat="45.75433" lon="6.54593">
        <ele>1593.8</ele>
        <time>2022-06-15T11:22:42Z</time>
      </trkpt>
      <trkpt lat="45.75436" lon="6.54593">
        <ele>1594</ele>
        <time>2022-06-15T11:22:43Z</time>
      </trkpt>
      <trkpt lat="45.75438" lon="6.54592">
        <ele>1594.2</ele>
        <time>2022-06-15T11:22:44Z</time>
      </trkpt>
      <trkpt lat="45.7544" lon="6.54591">
        <ele>1594.4</ele>
        <time>2022-06-15T11:22:45Z</time>
      </trkpt>
      <trkpt lat="45.75442" lon="6.5459">
        <ele>1594.5</ele>
        <time>2022-06-15T11:22:46Z</time>
      </trkpt>
      <trkpt lat="45.75445" lon="6.5459">
        <ele>1594.7</ele>
        <time>2022-06-15T11:22:47Z</time>
      </trkpt>
      <trkpt lat="45.75447" lon="6.54589">
        <ele>1594.8</ele>
        <time>2022-06-15T11:22:48Z</time>
      </trkpt>
      <trkpt lat="45.75449" lon="6.54588">
        <ele>1594.9</ele>
        <time>2022-06-15T11:22:49Z</time>
      </trkpt>
      <trkpt lat="45.75452" lon="6.54587">
        <ele>1594.9</ele>
        <time>2022-06-15T11:22:50Z</time>
      </trkpt>
      <trkpt lat="45.75454" lon="6.54586">
        <ele>1594.9</ele>
        <time>2022-06-15T11:22:51Z</time>
      </trkpt>
      <trkpt lat="45.75456" lon="6.54584">
        <ele>1594.9</ele>
        <time>2022-06-15T11:22:52Z</time>
      </trkpt>
      <trkpt lat="45.75458" lon="6.54583">
        <ele>1594.9</ele>
        <time>2022-06-15T11:22:53Z</time>
      </trkpt>
      <trkpt lat="45.7546" lon="6.54581">
        <ele>1595</ele>
        <time>2022-06-15T11:22:54Z</time>
      </trkpt>
      <trkpt lat="45.75462" lon="6.54579">
        <ele>1595.1</ele>
        <time>2022-06-15T11:22:55Z</time>
      </trkpt>
      <trkpt lat="45.75465" lon="6.54578">
        <ele>1595.2</ele>
        <time>2022-06-15T11:22:56Z</time>
      </trkpt>
      <trkpt lat="45.75467" lon="6.54577">
        <ele>1595.4</ele>
        <time>2022-06-15T11:22:57Z</time>
      </trkpt>
      <trkpt lat="45.75469" lon="6.54575">
        <ele>1595.6</ele>
        <time>2022-06-15T11:22:58Z</time>
      </trkpt>
      <trkpt lat="45.75471" lon="6.54573">
        <ele>1595.9</ele>
        <time>2022-06-15T11:22:59Z</time>
      </trkpt>
      <trkpt lat="45.75473" lon="6.54571">
        <ele>1596.3</ele>
        <time>2022-06-15T11:23:00Z</time>
      </trkpt>
      <trkpt lat="45.75475" lon="6.54568">
        <ele>1596.8</ele>
        <time>2022-06-15T11:23:01Z</time>
      </trkpt>
      <trkpt lat="45.75477" lon="6.54566">
        <ele>1597.4</ele>
        <time>2022-06-15T11:23:02Z</time>
      </trkpt>
      <trkpt lat="45.7548" lon="6.54565">
        <ele>1597.8</ele>
        <time>2022-06-15T11:23:03Z</time>
      </trkpt>
      <trkpt lat="45.75482" lon="6.54563">
        <ele>1598.1</ele>
        <time>2022-06-15T11:23:04Z</time>
      </trkpt>
      <trkpt lat="45.75484" lon="6.5456">
        <ele>1598.2</ele>
        <time>2022-06-15T11:23:05Z</time>
      </trkpt>
      <trkpt lat="45.75486" lon="6.54558">
        <ele>1598.3</ele>
        <time>2022-06-15T11:23:06Z</time>
      </trkpt>
      <trkpt lat="45.75488" lon="6.54556">
        <ele>1598.3</ele>
        <time>2022-06-15T11:23:07Z</time>
      </trkpt>
      <trkpt lat="45.7549" lon="6.54554">
        <ele>1598.4</ele>
        <time>2022-06-15T11:23:08Z</time>
      </trkpt>
      <trkpt lat="45.75492" lon="6.54552">
        <ele>1598.7</ele>
        <time>2022-06-15T11:23:09Z</time>
      </trkpt>
      <trkpt lat="45.75494" lon="6.5455">
        <ele>1598.9</ele>
        <time>2022-06-15T11:23:10Z</time>
      </trkpt>
      <trkpt lat="45.75496" lon="6.54547">
        <ele>1599.1</ele>
        <time>2022-06-15T11:23:11Z</time>
      </trkpt>
      <trkpt lat="45.75498" lon="6.54545">
        <ele>1599.3</ele>
        <time>2022-06-15T11:23:12Z</time>
      </trkpt>
      <trkpt lat="45.755" lon="6.54542">
        <ele>1599.5</ele>
        <time>2022-06-15T11:23:13Z</time>
      </trkpt>
      <trkpt lat="45.75502" lon="6.54539">
        <ele>1600.1</ele>
        <time>2022-06-15T11:23:14Z</time>
      </trkpt>
      <trkpt lat="45.75505" lon="6.54536">
        <ele>1600.7</ele>
        <time>2022-06-15T11:23:15Z</time>
      </trkpt>
      <trkpt lat="45.75507" lon="6.54533">
        <ele>1601.2</ele>
        <time>2022-06-15T11:23:16Z</time>
      </trkpt>
      <trkpt lat="45.75509" lon="6.54529">
        <ele>1601.5</ele>
        <time>2022-06-15T11:23:17Z</time>
      </trkpt>
      <trkpt lat="45.75512" lon="6.54526">
        <ele>1601.7</ele>
        <time>2022-06-15T11:23:18Z</time>
      </trkpt>
      <trkpt lat="45.75513" lon="6.54522">
        <ele>1601.7</ele>
        <time>2022-06-15T11:23:19Z</time>
      </trkpt>
      <trkpt lat="45.75515" lon="6.54518">
        <ele>1601.7</ele>
        <time>2022-06-15T11:23:20Z</time>
      </trkpt>
      <trkpt lat="45.75517" lon="6.54514">
        <ele>1601.6</ele>
        <time>2022-06-15T11:23:21Z</time>
      </trkpt>
      <trkpt lat="45.75518" lon="6.54511">
        <ele>1601.5</ele>
        <time>2022-06-15T11:23:22Z</time>
      </trkpt>
      <trkpt lat="45.7552" lon="6.54508">
        <ele>1601.4</ele>
        <time>2022-06-15T11:23:23Z</time>
      </trkpt>
      <trkpt lat="45.75521" lon="6.54504">
        <ele>1601.3</ele>
        <time>2022-06-15T11:23:24Z</time>
      </trkpt>
      <trkpt lat="45.75522" lon="6.54502">
        <ele>1601.2</ele>
        <time>2022-06-15T11:23:25Z</time>
      </trkpt>
      <trkpt lat="45.75524" lon="6.54499">
        <ele>1601.3</ele>
        <time>2022-06-15T11:23:26Z</time>
      </trkpt>
      <trkpt lat="45.75525" lon="6.54495">
        <ele>1601.6</ele>
        <time>2022-06-15T11:23:27Z</time>
      </trkpt>
      <trkpt lat="45.75526" lon="6.54492">
        <ele>1601.9</ele>
        <time>2022-06-15T11:23:28Z</time>
      </trkpt>
      <trkpt lat="45.75527" lon="6.54488">
        <ele>1602.3</ele>
        <time>2022-06-15T11:23:29Z</time>
      </trkpt>
      <trkpt lat="45.75528" lon="6.54485">
        <ele>1602.6</ele>
        <time>2022-06-15T11:23:30Z</time>
      </trkpt>
      <trkpt lat="45.7553" lon="6.54482">
        <ele>1603.2</ele>
        <time>2022-06-15T11:23:31Z</time>
      </trkpt>
      <trkpt lat="45.75531" lon="6.54479">
        <ele>1603.6</ele>
        <time>2022-06-15T11:23:32Z</time>
      </trkpt>
      <trkpt lat="45.75532" lon="6.54477">
        <ele>1604</ele>
        <time>2022-06-15T11:23:33Z</time>
      </trkpt>
      <trkpt lat="45.75533" lon="6.54474">
        <ele>1604.5</ele>
        <time>2022-06-15T11:23:34Z</time>
      </trkpt>
      <trkpt lat="45.75534" lon="6.54471">
        <ele>1604.7</ele>
        <time>2022-06-15T11:23:35Z</time>
      </trkpt>
      <trkpt lat="45.75535" lon="6.54468">
        <ele>1604.8</ele>
        <time>2022-06-15T11:23:36Z</time>
      </trkpt>
      <trkpt lat="45.75536" lon="6.54465">
        <ele>1604.9</ele>
        <time>2022-06-15T11:23:37Z</time>
      </trkpt>
      <trkpt lat="45.75537" lon="6.54462">
        <ele>1605</ele>
        <time>2022-06-15T11:23:38Z</time>
      </trkpt>
      <trkpt lat="45.75537" lon="6.54459">
        <ele>1605.1</ele>
        <time>2022-06-15T11:23:39Z</time>
      </trkpt>
      <trkpt lat="45.75538" lon="6.54456">
        <ele>1605.2</ele>
        <time>2022-06-15T11:23:40Z</time>
      </trkpt>
      <trkpt lat="45.75539" lon="6.54453">
        <ele>1605.3</ele>
        <time>2022-06-15T11:23:41Z</time>
      </trkpt>
      <trkpt lat="45.7554" lon="6.5445">
        <ele>1605.3</ele>
        <time>2022-06-15T11:23:42Z</time>
      </trkpt>
      <trkpt lat="45.75541" lon="6.54447">
        <ele>1605.5</ele>
        <time>2022-06-15T11:23:43Z</time>
      </trkpt>
      <trkpt lat="45.75542" lon="6.54444">
        <ele>1605.4</ele>
        <time>2022-06-15T11:23:44Z</time>
      </trkpt>
      <trkpt lat="45.75543" lon="6.5444">
        <ele>1605.6</ele>
        <time>2022-06-15T11:23:45Z</time>
      </trkpt>
      <trkpt lat="45.75544" lon="6.54437">
        <ele>1605.7</ele>
        <time>2022-06-15T11:23:46Z</time>
      </trkpt>
      <trkpt lat="45.75545" lon="6.54434">
        <ele>1605.8</ele>
        <time>2022-06-15T11:23:47Z</time>
      </trkpt>
      <trkpt lat="45.75546" lon="6.54431">
        <ele>1605.9</ele>
        <time>2022-06-15T11:23:48Z</time>
      </trkpt>
      <trkpt lat="45.75547" lon="6.54428">
        <ele>1605.9</ele>
        <time>2022-06-15T11:23:49Z</time>
      </trkpt>
      <trkpt lat="45.75548" lon="6.54424">
        <ele>1606</ele>
        <time>2022-06-15T11:23:50Z</time>
      </trkpt>
      <trkpt lat="45.75548" lon="6.54421">
        <ele>1606.1</ele>
        <time>2022-06-15T11:23:51Z</time>
      </trkpt>
      <trkpt lat="45.75549" lon="6.54418">
        <ele>1606.2</ele>
        <time>2022-06-15T11:23:52Z</time>
      </trkpt>
      <trkpt lat="45.7555" lon="6.54415">
        <ele>1606.4</ele>
        <time>2022-06-15T11:23:53Z</time>
      </trkpt>
      <trkpt lat="45.75551" lon="6.54412">
        <ele>1606.7</ele>
        <time>2022-06-15T11:23:54Z</time>
      </trkpt>
      <trkpt lat="45.75553" lon="6.54409">
        <ele>1607.1</ele>
        <time>2022-06-15T11:23:55Z</time>
      </trkpt>
      <trkpt lat="45.75554" lon="6.54406">
        <ele>1607.4</ele>
        <time>2022-06-15T11:23:56Z</time>
      </trkpt>
      <trkpt lat="45.75555" lon="6.54403">
        <ele>1607.8</ele>
        <time>2022-06-15T11:23:57Z</time>
      </trkpt>
      <trkpt lat="45.75556" lon="6.544">
        <ele>1608.2</ele>
        <time>2022-06-15T11:23:58Z</time>
      </trkpt>
      <trkpt lat="45.75557" lon="6.54397">
        <ele>1608.6</ele>
        <time>2022-06-15T11:23:59Z</time>
      </trkpt>
      <trkpt lat="45.75558" lon="6.54394">
        <ele>1608.9</ele>
        <time>2022-06-15T11:24:00Z</time>
      </trkpt>
      <trkpt lat="45.75559" lon="6.54391">
        <ele>1609.2</ele>
        <time>2022-06-15T11:24:01Z</time>
      </trkpt>
      <trkpt lat="45.7556" lon="6.54388">
        <ele>1609.5</ele>
        <time>2022-06-15T11:24:02Z</time>
      </trkpt>
      <trkpt lat="45.75561" lon="6.54385">
        <ele>1609.9</ele>
        <time>2022-06-15T11:24:03Z</time>
      </trkpt>
      <trkpt lat="45.75562" lon="6.54382">
        <ele>1610.2</ele>
        <time>2022-06-15T11:24:04Z</time>
      </trkpt>
      <trkpt lat="45.75563" lon="6.54379">
        <ele>1610.4</ele>
        <time>2022-06-15T11:24:05Z</time>
      </trkpt>
      <trkpt lat="45.75564" lon="6.54376">
        <ele>1610.6</ele>
        <time>2022-06-15T11:24:06Z</time>
      </trkpt>
      <trkpt lat="45.75565" lon="6.54373">
        <ele>1610.8</ele>
        <time>2022-06-15T11:24:07Z</time>
      </trkpt>
      <trkpt lat="45.75566" lon="6.5437">
        <ele>1611</ele>
        <time>2022-06-15T11:24:08Z</time>
      </trkpt>
      <trkpt lat="45.75567" lon="6.54367">
        <ele>1611.1</ele>
        <time>2022-06-15T11:24:09Z</time>
      </trkpt>
      <trkpt lat="45.75568" lon="6.54364">
        <ele>1611.3</ele>
        <time>2022-06-15T11:24:10Z</time>
      </trkpt>
      <trkpt lat="45.75569" lon="6.54361">
        <ele>1611.4</ele>
        <time>2022-06-15T11:24:11Z</time>
      </trkpt>
      <trkpt lat="45.7557" lon="6.54358">
        <ele>1611.5</ele>
        <time>2022-06-15T11:24:12Z</time>
      </trkpt>
      <trkpt lat="45.75571" lon="6.54355">
        <ele>1611.6</ele>
        <time>2022-06-15T11:24:13Z</time>
      </trkpt>
      <trkpt lat="45.75572" lon="6.54352">
        <ele>1611.6</ele>
        <time>2022-06-15T11:24:14Z</time>
      </trkpt>
      <trkpt lat="45.75573" lon="6.54349">
        <ele>1611.6</ele>
        <time>2022-06-15T11:24:15Z</time>
      </trkpt>
      <trkpt lat="45.75574" lon="6.54346">
        <ele>1611.7</ele>
        <time>2022-06-15T11:24:16Z</time>
      </trkpt>
      <trkpt lat="45.75575" lon="6.54343">
        <ele>1611.7</ele>
        <time>2022-06-15T11:24:17Z</time>
      </trkpt>
      <trkpt lat="45.75576" lon="6.5434">
        <ele>1611.8</ele>
        <time>2022-06-15T11:24:18Z</time>
      </trkpt>
      <trkpt lat="45.75578" lon="6.54337">
        <ele>1611.9</ele>
        <time>2022-06-15T11:24:19Z</time>
      </trkpt>
      <trkpt lat="45.75579" lon="6.54334">
        <ele>1611.9</ele>
        <time>2022-06-15T11:24:20Z</time>
      </trkpt>
      <trkpt lat="45.7558" lon="6.54331">
        <ele>1612</ele>
        <time>2022-06-15T11:24:21Z</time>
      </trkpt>
      <trkpt lat="45.75581" lon="6.54328">
        <ele>1612.2</ele>
        <time>2022-06-15T11:24:22Z</time>
      </trkpt>
      <trkpt lat="45.75582" lon="6.54325">
        <ele>1612.3</ele>
        <time>2022-06-15T11:24:23Z</time>
      </trkpt>
      <trkpt lat="45.75583" lon="6.54322">
        <ele>1612.5</ele>
        <time>2022-06-15T11:24:24Z</time>
      </trkpt>
      <trkpt lat="45.75584" lon="6.5432">
        <ele>1612.8</ele>
        <time>2022-06-15T11:24:25Z</time>
      </trkpt>
      <trkpt lat="45.75586" lon="6.54317">
        <ele>1613.2</ele>
        <time>2022-06-15T11:24:26Z</time>
      </trkpt>
      <trkpt lat="45.75587" lon="6.54314">
        <ele>1613.5</ele>
        <time>2022-06-15T11:24:27Z</time>
      </trkpt>
      <trkpt lat="45.75588" lon="6.54311">
        <ele>1613.8</ele>
        <time>2022-06-15T11:24:28Z</time>
      </trkpt>
      <trkpt lat="45.75589" lon="6.54308">
        <ele>1614.1</ele>
        <time>2022-06-15T11:24:29Z</time>
      </trkpt>
      <trkpt lat="45.7559" lon="6.54305">
        <ele>1614.4</ele>
        <time>2022-06-15T11:24:30Z</time>
      </trkpt>
      <trkpt lat="45.75592" lon="6.54303">
        <ele>1614.7</ele>
        <time>2022-06-15T11:24:31Z</time>
      </trkpt>
      <trkpt lat="45.75593" lon="6.543">
        <ele>1614.7</ele>
        <time>2022-06-15T11:24:32Z</time>
      </trkpt>
      <trkpt lat="45.75594" lon="6.54298">
        <ele>1614.9</ele>
        <time>2022-06-15T11:24:33Z</time>
      </trkpt>
      <trkpt lat="45.75595" lon="6.54295">
        <ele>1614.9</ele>
        <time>2022-06-15T11:24:34Z</time>
      </trkpt>
      <trkpt lat="45.75596" lon="6.54292">
        <ele>1615</ele>
        <time>2022-06-15T11:24:35Z</time>
      </trkpt>
      <trkpt lat="45.75597" lon="6.54289">
        <ele>1615</ele>
        <time>2022-06-15T11:24:36Z</time>
      </trkpt>
      <trkpt lat="45.75598" lon="6.54286">
        <ele>1615</ele>
        <time>2022-06-15T11:24:37Z</time>
      </trkpt>
      <trkpt lat="45.75599" lon="6.54283">
        <ele>1615</ele>
        <time>2022-06-15T11:24:38Z</time>
      </trkpt>
      <trkpt lat="45.756" lon="6.5428">
        <ele>1615</ele>
        <time>2022-06-15T11:24:39Z</time>
      </trkpt>
      <trkpt lat="45.75601" lon="6.54277">
        <ele>1615.1</ele>
        <time>2022-06-15T11:24:40Z</time>
      </trkpt>
      <trkpt lat="45.75602" lon="6.54274">
        <ele>1615.2</ele>
        <time>2022-06-15T11:24:41Z</time>
      </trkpt>
      <trkpt lat="45.75602" lon="6.5427">
        <ele>1615.1</ele>
        <time>2022-06-15T11:24:42Z</time>
      </trkpt>
      <trkpt lat="45.75603" lon="6.54267">
        <ele>1615.2</ele>
        <time>2022-06-15T11:24:43Z</time>
      </trkpt>
      <trkpt lat="45.75604" lon="6.54264">
        <ele>1615.2</ele>
        <time>2022-06-15T11:24:44Z</time>
      </trkpt>
      <trkpt lat="45.75605" lon="6.54261">
        <ele>1615.3</ele>
        <time>2022-06-15T11:24:45Z</time>
      </trkpt>
      <trkpt lat="45.75606" lon="6.54258">
        <ele>1615.3</ele>
        <time>2022-06-15T11:24:46Z</time>
      </trkpt>
      <trkpt lat="45.75608" lon="6.54255">
        <ele>1615.4</ele>
        <time>2022-06-15T11:24:47Z</time>
      </trkpt>
      <trkpt lat="45.75608" lon="6.54252">
        <ele>1615.4</ele>
        <time>2022-06-15T11:24:48Z</time>
      </trkpt>
      <trkpt lat="45.75609" lon="6.54249">
        <ele>1615.5</ele>
        <time>2022-06-15T11:24:49Z</time>
      </trkpt>
      <trkpt lat="45.7561" lon="6.54245">
        <ele>1615.9</ele>
        <time>2022-06-15T11:24:50Z</time>
      </trkpt>
      <trkpt lat="45.75611" lon="6.54242">
        <ele>1616.3</ele>
        <time>2022-06-15T11:24:51Z</time>
      </trkpt>
      <trkpt lat="45.75612" lon="6.54238">
        <ele>1616.7</ele>
        <time>2022-06-15T11:24:52Z</time>
      </trkpt>
      <trkpt lat="45.75613" lon="6.54234">
        <ele>1617</ele>
        <time>2022-06-15T11:24:53Z</time>
      </trkpt>
      <trkpt lat="45.75614" lon="6.54231">
        <ele>1617.3</ele>
        <time>2022-06-15T11:24:54Z</time>
      </trkpt>
      <trkpt lat="45.75615" lon="6.54227">
        <ele>1617.6</ele>
        <time>2022-06-15T11:24:55Z</time>
      </trkpt>
      <trkpt lat="45.75616" lon="6.54223">
        <ele>1617.8</ele>
        <time>2022-06-15T11:24:56Z</time>
      </trkpt>
      <trkpt lat="45.75617" lon="6.54218">
        <ele>1618</ele>
        <time>2022-06-15T11:24:57Z</time>
      </trkpt>
      <trkpt lat="45.75618" lon="6.54214">
        <ele>1618.1</ele>
        <time>2022-06-15T11:24:58Z</time>
      </trkpt>
      <trkpt lat="45.75619" lon="6.54209">
        <ele>1618.3</ele>
        <time>2022-06-15T11:24:59Z</time>
      </trkpt>
      <trkpt lat="45.7562" lon="6.54205">
        <ele>1618.4</ele>
        <time>2022-06-15T11:25:00Z</time>
      </trkpt>
      <trkpt lat="45.75621" lon="6.54201">
        <ele>1618.5</ele>
        <time>2022-06-15T11:25:01Z</time>
      </trkpt>
      <trkpt lat="45.75622" lon="6.54197">
        <ele>1618.6</ele>
        <time>2022-06-15T11:25:02Z</time>
      </trkpt>
      <trkpt lat="45.75623" lon="6.54193">
        <ele>1618.6</ele>
        <time>2022-06-15T11:25:03Z</time>
      </trkpt>
      <trkpt lat="45.75624" lon="6.5419">
        <ele>1618.8</ele>
        <time>2022-06-15T11:25:04Z</time>
      </trkpt>
      <trkpt lat="45.75624" lon="6.54186">
        <ele>1618.9</ele>
        <time>2022-06-15T11:25:05Z</time>
      </trkpt>
      <trkpt lat="45.75625" lon="6.54182">
        <ele>1619</ele>
        <time>2022-06-15T11:25:06Z</time>
      </trkpt>
      <trkpt lat="45.75625" lon="6.54177">
        <ele>1619.1</ele>
        <time>2022-06-15T11:25:07Z</time>
      </trkpt>
      <trkpt lat="45.75626" lon="6.54173">
        <ele>1619.2</ele>
        <time>2022-06-15T11:25:08Z</time>
      </trkpt>
      <trkpt lat="45.75627" lon="6.54169">
        <ele>1619.3</ele>
        <time>2022-06-15T11:25:09Z</time>
      </trkpt>
      <trkpt lat="45.75628" lon="6.54165">
        <ele>1619.6</ele>
        <time>2022-06-15T11:25:10Z</time>
      </trkpt>
      <trkpt lat="45.75629" lon="6.54161">
        <ele>1619.8</ele>
        <time>2022-06-15T11:25:11Z</time>
      </trkpt>
      <trkpt lat="45.75629" lon="6.54157">
        <ele>1619.9</ele>
        <time>2022-06-15T11:25:12Z</time>
      </trkpt>
      <trkpt lat="45.7563" lon="6.54153">
        <ele>1620</ele>
        <time>2022-06-15T11:25:13Z</time>
      </trkpt>
      <trkpt lat="45.75631" lon="6.54148">
        <ele>1620.1</ele>
        <time>2022-06-15T11:25:14Z</time>
      </trkpt>
      <trkpt lat="45.75632" lon="6.54144">
        <ele>1620.2</ele>
        <time>2022-06-15T11:25:15Z</time>
      </trkpt>
      <trkpt lat="45.75633" lon="6.5414">
        <ele>1620.3</ele>
        <time>2022-06-15T11:25:16Z</time>
      </trkpt>
      <trkpt lat="45.75633" lon="6.54137">
        <ele>1620.5</ele>
        <time>2022-06-15T11:25:17Z</time>
      </trkpt>
      <trkpt lat="45.75634" lon="6.54133">
        <ele>1620.7</ele>
        <time>2022-06-15T11:25:18Z</time>
      </trkpt>
      <trkpt lat="45.75635" lon="6.54129">
        <ele>1620.9</ele>
        <time>2022-06-15T11:25:19Z</time>
      </trkpt>
      <trkpt lat="45.75636" lon="6.54126">
        <ele>1621.1</ele>
        <time>2022-06-15T11:25:20Z</time>
      </trkpt>
      <trkpt lat="45.75637" lon="6.54122">
        <ele>1621.4</ele>
        <time>2022-06-15T11:25:21Z</time>
      </trkpt>
      <trkpt lat="45.75638" lon="6.54118">
        <ele>1621.6</ele>
        <time>2022-06-15T11:25:22Z</time>
      </trkpt>
      <trkpt lat="45.75639" lon="6.54115">
        <ele>1621.9</ele>
        <time>2022-06-15T11:25:23Z</time>
      </trkpt>
      <trkpt lat="45.7564" lon="6.54111">
        <ele>1622.1</ele>
        <time>2022-06-15T11:25:24Z</time>
      </trkpt>
      <trkpt lat="45.75641" lon="6.54108">
        <ele>1622.3</ele>
        <time>2022-06-15T11:25:25Z</time>
      </trkpt>
      <trkpt lat="45.75642" lon="6.54105">
        <ele>1622.5</ele>
        <time>2022-06-15T11:25:26Z</time>
      </trkpt>
      <trkpt lat="45.75644" lon="6.54102">
        <ele>1622.8</ele>
        <time>2022-06-15T11:25:27Z</time>
      </trkpt>
      <trkpt lat="45.75645" lon="6.54099">
        <ele>1623</ele>
        <time>2022-06-15T11:25:28Z</time>
      </trkpt>
      <trkpt lat="45.75647" lon="6.54097">
        <ele>1623.2</ele>
        <time>2022-06-15T11:25:29Z</time>
      </trkpt>
      <trkpt lat="45.75649" lon="6.54095">
        <ele>1623.4</ele>
        <time>2022-06-15T11:25:30Z</time>
      </trkpt>
      <trkpt lat="45.7565" lon="6.54093">
        <ele>1623.6</ele>
        <time>2022-06-15T11:25:31Z</time>
      </trkpt>
      <trkpt lat="45.75652" lon="6.5409">
        <ele>1623.8</ele>
        <time>2022-06-15T11:25:32Z</time>
      </trkpt>
      <trkpt lat="45.75654" lon="6.54088">
        <ele>1624</ele>
        <time>2022-06-15T11:25:33Z</time>
      </trkpt>
      <trkpt lat="45.75655" lon="6.54085">
        <ele>1624.1</ele>
        <time>2022-06-15T11:25:34Z</time>
      </trkpt>
      <trkpt lat="45.75656" lon="6.54082">
        <ele>1624.2</ele>
        <time>2022-06-15T11:25:35Z</time>
      </trkpt>
      <trkpt lat="45.75656" lon="6.54079">
        <ele>1624.3</ele>
        <time>2022-06-15T11:25:36Z</time>
      </trkpt>
      <trkpt lat="45.75657" lon="6.54076">
        <ele>1624.3</ele>
        <time>2022-06-15T11:25:37Z</time>
      </trkpt>
      <trkpt lat="45.75658" lon="6.54073">
        <ele>1624.4</ele>
        <time>2022-06-15T11:25:38Z</time>
      </trkpt>
      <trkpt lat="45.75659" lon="6.5407">
        <ele>1624.4</ele>
        <time>2022-06-15T11:25:39Z</time>
      </trkpt>
      <trkpt lat="45.7566" lon="6.54067">
        <ele>1624.5</ele>
        <time>2022-06-15T11:25:40Z</time>
      </trkpt>
      <trkpt lat="45.75661" lon="6.54064">
        <ele>1624.6</ele>
        <time>2022-06-15T11:25:41Z</time>
      </trkpt>
      <trkpt lat="45.75662" lon="6.54061">
        <ele>1624.7</ele>
        <time>2022-06-15T11:25:42Z</time>
      </trkpt>
      <trkpt lat="45.75664" lon="6.54058">
        <ele>1624.8</ele>
        <time>2022-06-15T11:25:43Z</time>
      </trkpt>
      <trkpt lat="45.75665" lon="6.54055">
        <ele>1624.9</ele>
        <time>2022-06-15T11:25:44Z</time>
      </trkpt>
      <trkpt lat="45.75666" lon="6.54053">
        <ele>1625.1</ele>
        <time>2022-06-15T11:25:45Z</time>
      </trkpt>
      <trkpt lat="45.75667" lon="6.5405">
        <ele>1625.4</ele>
        <time>2022-06-15T11:25:46Z</time>
      </trkpt>
      <trkpt lat="45.75668" lon="6.54047">
        <ele>1625.8</ele>
        <time>2022-06-15T11:25:47Z</time>
      </trkpt>
      <trkpt lat="45.7567" lon="6.54045">
        <ele>1626.1</ele>
        <time>2022-06-15T11:25:48Z</time>
      </trkpt>
      <trkpt lat="45.75671" lon="6.54042">
        <ele>1626.4</ele>
        <time>2022-06-15T11:25:49Z</time>
      </trkpt>
      <trkpt lat="45.75673" lon="6.5404">
        <ele>1626.6</ele>
        <time>2022-06-15T11:25:50Z</time>
      </trkpt>
      <trkpt lat="45.75674" lon="6.54037">
        <ele>1626.9</ele>
        <time>2022-06-15T11:25:51Z</time>
      </trkpt>
      <trkpt lat="45.75676" lon="6.54035">
        <ele>1627.1</ele>
        <time>2022-06-15T11:25:52Z</time>
      </trkpt>
      <trkpt lat="45.75677" lon="6.54032">
        <ele>1627.2</ele>
        <time>2022-06-15T11:25:53Z</time>
      </trkpt>
      <trkpt lat="45.75678" lon="6.54029">
        <ele>1627.4</ele>
        <time>2022-06-15T11:25:54Z</time>
      </trkpt>
      <trkpt lat="45.7568" lon="6.54027">
        <ele>1627.4</ele>
        <time>2022-06-15T11:25:55Z</time>
      </trkpt>
      <trkpt lat="45.75681" lon="6.54024">
        <ele>1627.5</ele>
        <time>2022-06-15T11:25:56Z</time>
      </trkpt>
      <trkpt lat="45.75682" lon="6.54022">
        <ele>1627.5</ele>
        <time>2022-06-15T11:25:57Z</time>
      </trkpt>
      <trkpt lat="45.75684" lon="6.54019">
        <ele>1627.5</ele>
        <time>2022-06-15T11:25:58Z</time>
      </trkpt>
      <trkpt lat="45.75685" lon="6.54017">
        <ele>1627.6</ele>
        <time>2022-06-15T11:25:59Z</time>
      </trkpt>
      <trkpt lat="45.75686" lon="6.54014">
        <ele>1627.7</ele>
        <time>2022-06-15T11:26:00Z</time>
      </trkpt>
      <trkpt lat="45.75687" lon="6.54011">
        <ele>1627.9</ele>
        <time>2022-06-15T11:26:01Z</time>
      </trkpt>
      <trkpt lat="45.75689" lon="6.54009">
        <ele>1628</ele>
        <time>2022-06-15T11:26:02Z</time>
      </trkpt>
      <trkpt lat="45.7569" lon="6.54007">
        <ele>1628.2</ele>
        <time>2022-06-15T11:26:03Z</time>
      </trkpt>
      <trkpt lat="45.75691" lon="6.54004">
        <ele>1628.4</ele>
        <time>2022-06-15T11:26:04Z</time>
      </trkpt>
      <trkpt lat="45.75692" lon="6.54001">
        <ele>1628.6</ele>
        <time>2022-06-15T11:26:05Z</time>
      </trkpt>
      <trkpt lat="45.75693" lon="6.53998">
        <ele>1628.9</ele>
        <time>2022-06-15T11:26:06Z</time>
      </trkpt>
      <trkpt lat="45.75695" lon="6.53995">
        <ele>1629.2</ele>
        <time>2022-06-15T11:26:07Z</time>
      </trkpt>
      <trkpt lat="45.75696" lon="6.53992">
        <ele>1629.6</ele>
        <time>2022-06-15T11:26:08Z</time>
      </trkpt>
      <trkpt lat="45.75697" lon="6.5399">
        <ele>1630</ele>
        <time>2022-06-15T11:26:09Z</time>
      </trkpt>
      <trkpt lat="45.75698" lon="6.53987">
        <ele>1630.3</ele>
        <time>2022-06-15T11:26:10Z</time>
      </trkpt>
      <trkpt lat="45.75699" lon="6.53984">
        <ele>1630.7</ele>
        <time>2022-06-15T11:26:11Z</time>
      </trkpt>
      <trkpt lat="45.75701" lon="6.53982">
        <ele>1631</ele>
        <time>2022-06-15T11:26:12Z</time>
      </trkpt>
      <trkpt lat="45.75702" lon="6.53979">
        <ele>1631.2</ele>
        <time>2022-06-15T11:26:13Z</time>
      </trkpt>
      <trkpt lat="45.75703" lon="6.53976">
        <ele>1631.5</ele>
        <time>2022-06-15T11:26:14Z</time>
      </trkpt>
      <trkpt lat="45.75704" lon="6.53974">
        <ele>1631.7</ele>
        <time>2022-06-15T11:26:15Z</time>
      </trkpt>
      <trkpt lat="45.75705" lon="6.53971">
        <ele>1631.9</ele>
        <time>2022-06-15T11:26:16Z</time>
      </trkpt>
      <trkpt lat="45.75706" lon="6.53968">
        <ele>1632</ele>
        <time>2022-06-15T11:26:17Z</time>
      </trkpt>
      <trkpt lat="45.75707" lon="6.53966">
        <ele>1632.1</ele>
        <time>2022-06-15T11:26:18Z</time>
      </trkpt>
      <trkpt lat="45.75708" lon="6.53963">
        <ele>1632.1</ele>
        <time>2022-06-15T11:26:19Z</time>
      </trkpt>
      <trkpt lat="45.75709" lon="6.5396">
        <ele>1632.2</ele>
        <time>2022-06-15T11:26:20Z</time>
      </trkpt>
      <trkpt lat="45.75711" lon="6.53958">
        <ele>1632.3</ele>
        <time>2022-06-15T11:26:21Z</time>
      </trkpt>
      <trkpt lat="45.75713" lon="6.53956">
        <ele>1632.5</ele>
        <time>2022-06-15T11:26:22Z</time>
      </trkpt>
      <trkpt lat="45.75714" lon="6.53954">
        <ele>1632.6</ele>
        <time>2022-06-15T11:26:23Z</time>
      </trkpt>
      <trkpt lat="45.75716" lon="6.53952">
        <ele>1632.8</ele>
        <time>2022-06-15T11:26:24Z</time>
      </trkpt>
      <trkpt lat="45.75718" lon="6.5395">
        <ele>1632.8</ele>
        <time>2022-06-15T11:26:25Z</time>
      </trkpt>
      <trkpt lat="45.75719" lon="6.53948">
        <ele>1632.9</ele>
        <time>2022-06-15T11:26:26Z</time>
      </trkpt>
      <trkpt lat="45.75721" lon="6.53946">
        <ele>1632.9</ele>
        <time>2022-06-15T11:26:27Z</time>
      </trkpt>
      <trkpt lat="45.75722" lon="6.53944">
        <ele>1633</ele>
        <time>2022-06-15T11:26:28Z</time>
      </trkpt>
      <trkpt lat="45.75724" lon="6.53941">
        <ele>1633.5</ele>
        <time>2022-06-15T11:26:29Z</time>
      </trkpt>
      <trkpt lat="45.75725" lon="6.53939">
        <ele>1633.9</ele>
        <time>2022-06-15T11:26:30Z</time>
      </trkpt>
      <trkpt lat="45.75727" lon="6.53937">
        <ele>1634.3</ele>
        <time>2022-06-15T11:26:31Z</time>
      </trkpt>
      <trkpt lat="45.75728" lon="6.53934">
        <ele>1634.5</ele>
        <time>2022-06-15T11:26:32Z</time>
      </trkpt>
      <trkpt lat="45.75729" lon="6.53931">
        <ele>1634.8</ele>
        <time>2022-06-15T11:26:33Z</time>
      </trkpt>
      <trkpt lat="45.7573" lon="6.53928">
        <ele>1635</ele>
        <time>2022-06-15T11:26:34Z</time>
      </trkpt>
      <trkpt lat="45.75731" lon="6.53926">
        <ele>1635.2</ele>
        <time>2022-06-15T11:26:35Z</time>
      </trkpt>
      <trkpt lat="45.75732" lon="6.53923">
        <ele>1635.4</ele>
        <time>2022-06-15T11:26:36Z</time>
      </trkpt>
      <trkpt lat="45.75734" lon="6.53921">
        <ele>1635.7</ele>
        <time>2022-06-15T11:26:37Z</time>
      </trkpt>
      <trkpt lat="45.75735" lon="6.53918">
        <ele>1635.8</ele>
        <time>2022-06-15T11:26:38Z</time>
      </trkpt>
      <trkpt lat="45.75736" lon="6.53915">
        <ele>1636</ele>
        <time>2022-06-15T11:26:39Z</time>
      </trkpt>
      <trkpt lat="45.75737" lon="6.53913">
        <ele>1636.3</ele>
        <time>2022-06-15T11:26:40Z</time>
      </trkpt>
      <trkpt lat="45.75738" lon="6.5391">
        <ele>1636.5</ele>
        <time>2022-06-15T11:26:41Z</time>
      </trkpt>
      <trkpt lat="45.75739" lon="6.53907">
        <ele>1636.7</ele>
        <time>2022-06-15T11:26:42Z</time>
      </trkpt>
      <trkpt lat="45.7574" lon="6.53905">
        <ele>1636.9</ele>
        <time>2022-06-15T11:26:43Z</time>
      </trkpt>
      <trkpt lat="45.75742" lon="6.53902">
        <ele>1637.1</ele>
        <time>2022-06-15T11:26:44Z</time>
      </trkpt>
      <trkpt lat="45.75743" lon="6.53899">
        <ele>1637.3</ele>
        <time>2022-06-15T11:26:45Z</time>
      </trkpt>
      <trkpt lat="45.75743" lon="6.53896">
        <ele>1637.4</ele>
        <time>2022-06-15T11:26:46Z</time>
      </trkpt>
      <trkpt lat="45.75744" lon="6.53893">
        <ele>1637.5</ele>
        <time>2022-06-15T11:26:47Z</time>
      </trkpt>
      <trkpt lat="45.75745" lon="6.53891">
        <ele>1637.6</ele>
        <time>2022-06-15T11:26:48Z</time>
      </trkpt>
      <trkpt lat="45.75745" lon="6.53887">
        <ele>1637.6</ele>
        <time>2022-06-15T11:26:49Z</time>
      </trkpt>
      <trkpt lat="45.75746" lon="6.53884">
        <ele>1637.6</ele>
        <time>2022-06-15T11:26:50Z</time>
      </trkpt>
      <trkpt lat="45.75746" lon="6.53881">
        <ele>1637.7</ele>
        <time>2022-06-15T11:26:51Z</time>
      </trkpt>
      <trkpt lat="45.75746" lon="6.53878">
        <ele>1637.7</ele>
        <time>2022-06-15T11:26:52Z</time>
      </trkpt>
      <trkpt lat="45.75747" lon="6.53875">
        <ele>1637.7</ele>
        <time>2022-06-15T11:26:53Z</time>
      </trkpt>
      <trkpt lat="45.75748" lon="6.53872">
        <ele>1637.8</ele>
        <time>2022-06-15T11:26:54Z</time>
      </trkpt>
      <trkpt lat="45.75749" lon="6.53869">
        <ele>1637.9</ele>
        <time>2022-06-15T11:26:55Z</time>
      </trkpt>
      <trkpt lat="45.7575" lon="6.53866">
        <ele>1638</ele>
        <time>2022-06-15T11:26:56Z</time>
      </trkpt>
      <trkpt lat="45.75751" lon="6.53863">
        <ele>1638.2</ele>
        <time>2022-06-15T11:26:57Z</time>
      </trkpt>
      <trkpt lat="45.75752" lon="6.5386">
        <ele>1638.4</ele>
        <time>2022-06-15T11:26:58Z</time>
      </trkpt>
      <trkpt lat="45.75752" lon="6.53857">
        <ele>1638.6</ele>
        <time>2022-06-15T11:26:59Z</time>
      </trkpt>
      <trkpt lat="45.75753" lon="6.53854">
        <ele>1638.7</ele>
        <time>2022-06-15T11:27:00Z</time>
      </trkpt>
      <trkpt lat="45.75753" lon="6.53851">
        <ele>1638.9</ele>
        <time>2022-06-15T11:27:01Z</time>
      </trkpt>
      <trkpt lat="45.75754" lon="6.53848">
        <ele>1639.2</ele>
        <time>2022-06-15T11:27:02Z</time>
      </trkpt>
      <trkpt lat="45.75756" lon="6.53845">
        <ele>1639.5</ele>
        <time>2022-06-15T11:27:03Z</time>
      </trkpt>
      <trkpt lat="45.75757" lon="6.53842">
        <ele>1639.7</ele>
        <time>2022-06-15T11:27:04Z</time>
      </trkpt>
      <trkpt lat="45.75758" lon="6.53839">
        <ele>1639.9</ele>
        <time>2022-06-15T11:27:05Z</time>
      </trkpt>
      <trkpt lat="45.75759" lon="6.53836">
        <ele>1640.2</ele>
        <time>2022-06-15T11:27:06Z</time>
      </trkpt>
      <trkpt lat="45.7576" lon="6.53834">
        <ele>1640.4</ele>
        <time>2022-06-15T11:27:07Z</time>
      </trkpt>
      <trkpt lat="45.75761" lon="6.53831">
        <ele>1640.5</ele>
        <time>2022-06-15T11:27:08Z</time>
      </trkpt>
      <trkpt lat="45.75762" lon="6.53828">
        <ele>1640.7</ele>
        <time>2022-06-15T11:27:09Z</time>
      </trkpt>
      <trkpt lat="45.75763" lon="6.53825">
        <ele>1640.8</ele>
        <time>2022-06-15T11:27:10Z</time>
      </trkpt>
      <trkpt lat="45.75764" lon="6.53823">
        <ele>1640.9</ele>
        <time>2022-06-15T11:27:11Z</time>
      </trkpt>
      <trkpt lat="45.75765" lon="6.5382">
        <ele>1641</ele>
        <time>2022-06-15T11:27:12Z</time>
      </trkpt>
      <trkpt lat="45.75766" lon="6.53817">
        <ele>1641</ele>
        <time>2022-06-15T11:27:13Z</time>
      </trkpt>
      <trkpt lat="45.75767" lon="6.53814">
        <ele>1641.1</ele>
        <time>2022-06-15T11:27:14Z</time>
      </trkpt>
      <trkpt lat="45.75768" lon="6.53811">
        <ele>1641.1</ele>
        <time>2022-06-15T11:27:15Z</time>
      </trkpt>
      <trkpt lat="45.75769" lon="6.53809">
        <ele>1641.2</ele>
        <time>2022-06-15T11:27:16Z</time>
      </trkpt>
      <trkpt lat="45.7577" lon="6.53806">
        <ele>1641.3</ele>
        <time>2022-06-15T11:27:17Z</time>
      </trkpt>
      <trkpt lat="45.75771" lon="6.53803">
        <ele>1641.4</ele>
        <time>2022-06-15T11:27:18Z</time>
      </trkpt>
      <trkpt lat="45.75772" lon="6.538">
        <ele>1641.6</ele>
        <time>2022-06-15T11:27:19Z</time>
      </trkpt>
      <trkpt lat="45.75773" lon="6.53797">
        <ele>1641.7</ele>
        <time>2022-06-15T11:27:20Z</time>
      </trkpt>
      <trkpt lat="45.75774" lon="6.53795">
        <ele>1641.8</ele>
        <time>2022-06-15T11:27:21Z</time>
      </trkpt>
      <trkpt lat="45.75776" lon="6.53792">
        <ele>1642</ele>
        <time>2022-06-15T11:27:22Z</time>
      </trkpt>
      <trkpt lat="45.75777" lon="6.53789">
        <ele>1642.1</ele>
        <time>2022-06-15T11:27:23Z</time>
      </trkpt>
      <trkpt lat="45.75778" lon="6.53786">
        <ele>1642.4</ele>
        <time>2022-06-15T11:27:24Z</time>
      </trkpt>
      <trkpt lat="45.75779" lon="6.53783">
        <ele>1642.6</ele>
        <time>2022-06-15T11:27:25Z</time>
      </trkpt>
      <trkpt lat="45.75781" lon="6.5378">
        <ele>1642.9</ele>
        <time>2022-06-15T11:27:26Z</time>
      </trkpt>
      <trkpt lat="45.75782" lon="6.53776">
        <ele>1643.2</ele>
        <time>2022-06-15T11:27:27Z</time>
      </trkpt>
      <trkpt lat="45.75783" lon="6.53773">
        <ele>1643.6</ele>
        <time>2022-06-15T11:27:28Z</time>
      </trkpt>
      <trkpt lat="45.75784" lon="6.5377">
        <ele>1644</ele>
        <time>2022-06-15T11:27:29Z</time>
      </trkpt>
      <trkpt lat="45.75786" lon="6.53766">
        <ele>1644.4</ele>
        <time>2022-06-15T11:27:30Z</time>
      </trkpt>
      <trkpt lat="45.75787" lon="6.53763">
        <ele>1644.7</ele>
        <time>2022-06-15T11:27:31Z</time>
      </trkpt>
      <trkpt lat="45.75789" lon="6.5376">
        <ele>1644.9</ele>
        <time>2022-06-15T11:27:32Z</time>
      </trkpt>
      <trkpt lat="45.7579" lon="6.53756">
        <ele>1645</ele>
        <time>2022-06-15T11:27:33Z</time>
      </trkpt>
      <trkpt lat="45.75791" lon="6.53753">
        <ele>1645.1</ele>
        <time>2022-06-15T11:27:34Z</time>
      </trkpt>
      <trkpt lat="45.75793" lon="6.5375">
        <ele>1645.1</ele>
        <time>2022-06-15T11:27:35Z</time>
      </trkpt>
      <trkpt lat="45.75794" lon="6.53746">
        <ele>1645.2</ele>
        <time>2022-06-15T11:27:36Z</time>
      </trkpt>
      <trkpt lat="45.75795" lon="6.53742">
        <ele>1645.2</ele>
        <time>2022-06-15T11:27:37Z</time>
      </trkpt>
      <trkpt lat="45.75796" lon="6.53737">
        <ele>1645.3</ele>
        <time>2022-06-15T11:27:38Z</time>
      </trkpt>
      <trkpt lat="45.75797" lon="6.53733">
        <ele>1645.4</ele>
        <time>2022-06-15T11:27:39Z</time>
      </trkpt>
      <trkpt lat="45.75798" lon="6.53728">
        <ele>1645.5</ele>
        <time>2022-06-15T11:27:40Z</time>
      </trkpt>
      <trkpt lat="45.75799" lon="6.53723">
        <ele>1645.5</ele>
        <time>2022-06-15T11:27:41Z</time>
      </trkpt>
      <trkpt lat="45.758" lon="6.53718">
        <ele>1645.6</ele>
        <time>2022-06-15T11:27:42Z</time>
      </trkpt>
      <trkpt lat="45.75801" lon="6.53713">
        <ele>1645.6</ele>
        <time>2022-06-15T11:27:43Z</time>
      </trkpt>
      <trkpt lat="45.75801" lon="6.53708">
        <ele>1645.7</ele>
        <time>2022-06-15T11:27:44Z</time>
      </trkpt>
      <trkpt lat="45.75802" lon="6.53703">
        <ele>1645.7</ele>
        <time>2022-06-15T11:27:45Z</time>
      </trkpt>
      <trkpt lat="45.75803" lon="6.53698">
        <ele>1645.8</ele>
        <time>2022-06-15T11:27:46Z</time>
      </trkpt>
      <trkpt lat="45.75805" lon="6.53694">
        <ele>1646</ele>
        <time>2022-06-15T11:27:47Z</time>
      </trkpt>
      <trkpt lat="45.75807" lon="6.5369">
        <ele>1646.6</ele>
        <time>2022-06-15T11:27:48Z</time>
      </trkpt>
      <trkpt lat="45.75809" lon="6.53686">
        <ele>1647.2</ele>
        <time>2022-06-15T11:27:49Z</time>
      </trkpt>
      <trkpt lat="45.75811" lon="6.53681">
        <ele>1647.7</ele>
        <time>2022-06-15T11:27:50Z</time>
      </trkpt>
      <trkpt lat="45.75813" lon="6.53677">
        <ele>1648.1</ele>
        <time>2022-06-15T11:27:51Z</time>
      </trkpt>
      <trkpt lat="45.75814" lon="6.53673">
        <ele>1648.3</ele>
        <time>2022-06-15T11:27:52Z</time>
      </trkpt>
      <trkpt lat="45.75816" lon="6.53669">
        <ele>1648.4</ele>
        <time>2022-06-15T11:27:53Z</time>
      </trkpt>
      <trkpt lat="45.75818" lon="6.53665">
        <ele>1648.5</ele>
        <time>2022-06-15T11:27:54Z</time>
      </trkpt>
      <trkpt lat="45.7582" lon="6.5366">
        <ele>1648.6</ele>
        <time>2022-06-15T11:27:55Z</time>
      </trkpt>
      <trkpt lat="45.75821" lon="6.53655">
        <ele>1648.8</ele>
        <time>2022-06-15T11:27:56Z</time>
      </trkpt>
      <trkpt lat="45.75823" lon="6.53651">
        <ele>1649</ele>
        <time>2022-06-15T11:27:57Z</time>
      </trkpt>
      <trkpt lat="45.75824" lon="6.53647">
        <ele>1649.2</ele>
        <time>2022-06-15T11:27:58Z</time>
      </trkpt>
      <trkpt lat="45.75826" lon="6.53642">
        <ele>1649.4</ele>
        <time>2022-06-15T11:27:59Z</time>
      </trkpt>
      <trkpt lat="45.75828" lon="6.53638">
        <ele>1649.6</ele>
        <time>2022-06-15T11:28:00Z</time>
      </trkpt>
      <trkpt lat="45.75829" lon="6.53634">
        <ele>1649.8</ele>
        <time>2022-06-15T11:28:01Z</time>
      </trkpt>
      <trkpt lat="45.75831" lon="6.53629">
        <ele>1650</ele>
        <time>2022-06-15T11:28:02Z</time>
      </trkpt>
      <trkpt lat="45.75832" lon="6.53626">
        <ele>1650.3</ele>
        <time>2022-06-15T11:28:03Z</time>
      </trkpt>
      <trkpt lat="45.75833" lon="6.53622">
        <ele>1650.6</ele>
        <time>2022-06-15T11:28:04Z</time>
      </trkpt>
      <trkpt lat="45.75835" lon="6.53618">
        <ele>1650.9</ele>
        <time>2022-06-15T11:28:05Z</time>
      </trkpt>
      <trkpt lat="45.75837" lon="6.53614">
        <ele>1651.2</ele>
        <time>2022-06-15T11:28:06Z</time>
      </trkpt>
      <trkpt lat="45.75839" lon="6.5361">
        <ele>1651.4</ele>
        <time>2022-06-15T11:28:07Z</time>
      </trkpt>
      <trkpt lat="45.75841" lon="6.53606">
        <ele>1651.5</ele>
        <time>2022-06-15T11:28:08Z</time>
      </trkpt>
      <trkpt lat="45.75843" lon="6.53602">
        <ele>1651.7</ele>
        <time>2022-06-15T11:28:09Z</time>
      </trkpt>
      <trkpt lat="45.75845" lon="6.53599">
        <ele>1651.8</ele>
        <time>2022-06-15T11:28:10Z</time>
      </trkpt>
      <trkpt lat="45.75847" lon="6.53595">
        <ele>1651.9</ele>
        <time>2022-06-15T11:28:11Z</time>
      </trkpt>
      <trkpt lat="45.75849" lon="6.53592">
        <ele>1652.1</ele>
        <time>2022-06-15T11:28:12Z</time>
      </trkpt>
      <trkpt lat="45.75851" lon="6.53589">
        <ele>1652.3</ele>
        <time>2022-06-15T11:28:13Z</time>
      </trkpt>
      <trkpt lat="45.75854" lon="6.53586">
        <ele>1652.5</ele>
        <time>2022-06-15T11:28:14Z</time>
      </trkpt>
      <trkpt lat="45.75856" lon="6.53583">
        <ele>1652.6</ele>
        <time>2022-06-15T11:28:15Z</time>
      </trkpt>
      <trkpt lat="45.75858" lon="6.53581">
        <ele>1652.8</ele>
        <time>2022-06-15T11:28:16Z</time>
      </trkpt>
      <trkpt lat="45.75861" lon="6.53578">
        <ele>1652.9</ele>
        <time>2022-06-15T11:28:17Z</time>
      </trkpt>
      <trkpt lat="45.75863" lon="6.53575">
        <ele>1653.1</ele>
        <time>2022-06-15T11:28:18Z</time>
      </trkpt>
      <trkpt lat="45.75865" lon="6.53571">
        <ele>1653.3</ele>
        <time>2022-06-15T11:28:19Z</time>
      </trkpt>
      <trkpt lat="45.75867" lon="6.53568">
        <ele>1653.4</ele>
        <time>2022-06-15T11:28:20Z</time>
      </trkpt>
      <trkpt lat="45.75869" lon="6.53565">
        <ele>1653.5</ele>
        <time>2022-06-15T11:28:21Z</time>
      </trkpt>
      <trkpt lat="45.75872" lon="6.53562">
        <ele>1653.6</ele>
        <time>2022-06-15T11:28:22Z</time>
      </trkpt>
      <trkpt lat="45.75875" lon="6.53559">
        <ele>1653.6</ele>
        <time>2022-06-15T11:28:23Z</time>
      </trkpt>
      <trkpt lat="45.75878" lon="6.53556">
        <ele>1653.6</ele>
        <time>2022-06-15T11:28:24Z</time>
      </trkpt>
      <trkpt lat="45.7588" lon="6.53552">
        <ele>1653.7</ele>
        <time>2022-06-15T11:28:25Z</time>
      </trkpt>
      <trkpt lat="45.75883" lon="6.53549">
        <ele>1653.8</ele>
        <time>2022-06-15T11:28:26Z</time>
      </trkpt>
      <trkpt lat="45.75886" lon="6.53545">
        <ele>1653.9</ele>
        <time>2022-06-15T11:28:27Z</time>
      </trkpt>
      <trkpt lat="45.75889" lon="6.53541">
        <ele>1654</ele>
        <time>2022-06-15T11:28:28Z</time>
      </trkpt>
      <trkpt lat="45.75891" lon="6.53537">
        <ele>1654.4</ele>
        <time>2022-06-15T11:28:29Z</time>
      </trkpt>
      <trkpt lat="45.75894" lon="6.53533">
        <ele>1655</ele>
        <time>2022-06-15T11:28:30Z</time>
      </trkpt>
      <trkpt lat="45.75897" lon="6.53529">
        <ele>1655.4</ele>
        <time>2022-06-15T11:28:31Z</time>
      </trkpt>
      <trkpt lat="45.75899" lon="6.53525">
        <ele>1655.8</ele>
        <time>2022-06-15T11:28:32Z</time>
      </trkpt>
      <trkpt lat="45.75902" lon="6.53521">
        <ele>1656.2</ele>
        <time>2022-06-15T11:28:33Z</time>
      </trkpt>
      <trkpt lat="45.75905" lon="6.53517">
        <ele>1656.3</ele>
        <time>2022-06-15T11:28:34Z</time>
      </trkpt>
      <trkpt lat="45.75907" lon="6.53512">
        <ele>1656.3</ele>
        <time>2022-06-15T11:28:35Z</time>
      </trkpt>
      <trkpt lat="45.7591" lon="6.53507">
        <ele>1656.2</ele>
        <time>2022-06-15T11:28:36Z</time>
      </trkpt>
      <trkpt lat="45.75912" lon="6.53501">
        <ele>1655.9</ele>
        <time>2022-06-15T11:28:37Z</time>
      </trkpt>
      <trkpt lat="45.75914" lon="6.53496">
        <ele>1655.9</ele>
        <time>2022-06-15T11:28:38Z</time>
      </trkpt>
      <trkpt lat="45.75917" lon="6.53492">
        <ele>1656</ele>
        <time>2022-06-15T11:28:39Z</time>
      </trkpt>
      <trkpt lat="45.75919" lon="6.53487">
        <ele>1656.4</ele>
        <time>2022-06-15T11:28:40Z</time>
      </trkpt>
      <trkpt lat="45.75922" lon="6.53482">
        <ele>1656.8</ele>
        <time>2022-06-15T11:28:41Z</time>
      </trkpt>
      <trkpt lat="45.75925" lon="6.53476">
        <ele>1657</ele>
        <time>2022-06-15T11:28:42Z</time>
      </trkpt>
      <trkpt lat="45.75927" lon="6.53471">
        <ele>1657.1</ele>
        <time>2022-06-15T11:28:43Z</time>
      </trkpt>
      <trkpt lat="45.75929" lon="6.53466">
        <ele>1657.1</ele>
        <time>2022-06-15T11:28:44Z</time>
      </trkpt>
      <trkpt lat="45.75931" lon="6.53462">
        <ele>1657.2</ele>
        <time>2022-06-15T11:28:45Z</time>
      </trkpt>
      <trkpt lat="45.75934" lon="6.53458">
        <ele>1657.2</ele>
        <time>2022-06-15T11:28:46Z</time>
      </trkpt>
      <trkpt lat="45.75936" lon="6.53454">
        <ele>1657.2</ele>
        <time>2022-06-15T11:28:47Z</time>
      </trkpt>
      <trkpt lat="45.75939" lon="6.5345">
        <ele>1657.1</ele>
        <time>2022-06-15T11:28:48Z</time>
      </trkpt>
      <trkpt lat="45.75942" lon="6.53447">
        <ele>1657</ele>
        <time>2022-06-15T11:28:49Z</time>
      </trkpt>
      <trkpt lat="45.75945" lon="6.53444">
        <ele>1657.1</ele>
        <time>2022-06-15T11:28:50Z</time>
      </trkpt>
      <trkpt lat="45.75949" lon="6.5344">
        <ele>1657.6</ele>
        <time>2022-06-15T11:28:51Z</time>
      </trkpt>
      <trkpt lat="45.75952" lon="6.53436">
        <ele>1657.9</ele>
        <time>2022-06-15T11:28:52Z</time>
      </trkpt>
      <trkpt lat="45.75955" lon="6.53432">
        <ele>1658.1</ele>
        <time>2022-06-15T11:28:53Z</time>
      </trkpt>
      <trkpt lat="45.75957" lon="6.53427">
        <ele>1658.2</ele>
        <time>2022-06-15T11:28:54Z</time>
      </trkpt>
      <trkpt lat="45.75959" lon="6.53422">
        <ele>1658.2</ele>
        <time>2022-06-15T11:28:55Z</time>
      </trkpt>
      <trkpt lat="45.75961" lon="6.53418">
        <ele>1658.3</ele>
        <time>2022-06-15T11:28:56Z</time>
      </trkpt>
      <trkpt lat="45.75964" lon="6.53414">
        <ele>1658.3</ele>
        <time>2022-06-15T11:28:57Z</time>
      </trkpt>
      <trkpt lat="45.75966" lon="6.53411">
        <ele>1658.4</ele>
        <time>2022-06-15T11:28:58Z</time>
      </trkpt>
      <trkpt lat="45.75969" lon="6.53407">
        <ele>1658.5</ele>
        <time>2022-06-15T11:28:59Z</time>
      </trkpt>
      <trkpt lat="45.75972" lon="6.53403">
        <ele>1658.5</ele>
        <time>2022-06-15T11:29:00Z</time>
      </trkpt>
      <trkpt lat="45.75975" lon="6.534">
        <ele>1658.5</ele>
        <time>2022-06-15T11:29:01Z</time>
      </trkpt>
      <trkpt lat="45.75979" lon="6.53396">
        <ele>1658.5</ele>
        <time>2022-06-15T11:29:02Z</time>
      </trkpt>
      <trkpt lat="45.75982" lon="6.53393">
        <ele>1658.5</ele>
        <time>2022-06-15T11:29:03Z</time>
      </trkpt>
      <trkpt lat="45.75986" lon="6.5339">
        <ele>1658.5</ele>
        <time>2022-06-15T11:29:04Z</time>
      </trkpt>
      <trkpt lat="45.75989" lon="6.53388">
        <ele>1658.5</ele>
        <time>2022-06-15T11:29:05Z</time>
      </trkpt>
      <trkpt lat="45.75992" lon="6.53385">
        <ele>1658.5</ele>
        <time>2022-06-15T11:29:06Z</time>
      </trkpt>
      <trkpt lat="45.75996" lon="6.53383">
        <ele>1658.4</ele>
        <time>2022-06-15T11:29:07Z</time>
      </trkpt>
      <trkpt lat="45.75999" lon="6.53381">
        <ele>1658.4</ele>
        <time>2022-06-15T11:29:08Z</time>
      </trkpt>
      <trkpt lat="45.76002" lon="6.53378">
        <ele>1658.3</ele>
        <time>2022-06-15T11:29:09Z</time>
      </trkpt>
      <trkpt lat="45.76005" lon="6.53376">
        <ele>1658.2</ele>
        <time>2022-06-15T11:29:10Z</time>
      </trkpt>
      <trkpt lat="45.76008" lon="6.53375">
        <ele>1658.1</ele>
        <time>2022-06-15T11:29:11Z</time>
      </trkpt>
      <trkpt lat="45.76011" lon="6.53373">
        <ele>1658.1</ele>
        <time>2022-06-15T11:29:12Z</time>
      </trkpt>
      <trkpt lat="45.76014" lon="6.53371">
        <ele>1658</ele>
        <time>2022-06-15T11:29:13Z</time>
      </trkpt>
      <trkpt lat="45.76017" lon="6.53369">
        <ele>1658</ele>
        <time>2022-06-15T11:29:14Z</time>
      </trkpt>
      <trkpt lat="45.7602" lon="6.53367">
        <ele>1658</ele>
        <time>2022-06-15T11:29:15Z</time>
      </trkpt>
      <trkpt lat="45.76023" lon="6.53365">
        <ele>1658</ele>
        <time>2022-06-15T11:29:16Z</time>
      </trkpt>
      <trkpt lat="45.76026" lon="6.53364">
        <ele>1658</ele>
        <time>2022-06-15T11:29:17Z</time>
      </trkpt>
      <trkpt lat="45.76029" lon="6.53363">
        <ele>1658.1</ele>
        <time>2022-06-15T11:29:18Z</time>
      </trkpt>
      <trkpt lat="45.76032" lon="6.53362">
        <ele>1658</ele>
        <time>2022-06-15T11:29:19Z</time>
      </trkpt>
      <trkpt lat="45.76034" lon="6.53362">
        <ele>1658</ele>
        <time>2022-06-15T11:29:20Z</time>
      </trkpt>
      <trkpt lat="45.76037" lon="6.53362">
        <ele>1658</ele>
        <time>2022-06-15T11:29:21Z</time>
      </trkpt>
      <trkpt lat="45.76039" lon="6.53364">
        <ele>1658.1</ele>
        <time>2022-06-15T11:29:22Z</time>
      </trkpt>
      <trkpt lat="45.7604" lon="6.53367">
        <ele>1658.2</ele>
        <time>2022-06-15T11:29:23Z</time>
      </trkpt>
      <trkpt lat="45.76041" lon="6.5337">
        <ele>1658.3</ele>
        <time>2022-06-15T11:29:24Z</time>
      </trkpt>
      <trkpt lat="45.76041" lon="6.53373">
        <ele>1658.4</ele>
        <time>2022-06-15T11:29:25Z</time>
      </trkpt>
      <trkpt lat="45.7604" lon="6.53376">
        <ele>1658.5</ele>
        <time>2022-06-15T11:29:26Z</time>
      </trkpt>
      <trkpt lat="45.76039" lon="6.5338">
        <ele>1658.7</ele>
        <time>2022-06-15T11:29:27Z</time>
      </trkpt>
      <trkpt lat="45.76037" lon="6.53383">
        <ele>1658.8</ele>
        <time>2022-06-15T11:29:28Z</time>
      </trkpt>
      <trkpt lat="45.76035" lon="6.53386">
        <ele>1658.9</ele>
        <time>2022-06-15T11:29:29Z</time>
      </trkpt>
      <trkpt lat="45.76033" lon="6.53388">
        <ele>1659</ele>
        <time>2022-06-15T11:29:30Z</time>
      </trkpt>
      <trkpt lat="45.76031" lon="6.5339">
        <ele>1659.1</ele>
        <time>2022-06-15T11:29:31Z</time>
      </trkpt>
      <trkpt lat="45.76029" lon="6.53393">
        <ele>1659.3</ele>
        <time>2022-06-15T11:29:32Z</time>
      </trkpt>
      <trkpt lat="45.76027" lon="6.53396">
        <ele>1659.5</ele>
        <time>2022-06-15T11:29:33Z</time>
      </trkpt>
      <trkpt lat="45.76025" lon="6.53398">
        <ele>1659.6</ele>
        <time>2022-06-15T11:29:34Z</time>
      </trkpt>
      <trkpt lat="45.76023" lon="6.53399">
        <ele>1659.7</ele>
        <time>2022-06-15T11:29:35Z</time>
      </trkpt>
      <trkpt lat="45.76022" lon="6.534">
        <ele>1659.7</ele>
        <time>2022-06-15T11:29:36Z</time>
      </trkpt>
      <trkpt lat="45.76022" lon="6.53401">
        <ele>1659.8</ele>
        <time>2022-06-15T11:29:37Z</time>
      </trkpt>
      <trkpt lat="45.76021" lon="6.53403">
        <ele>1659.9</ele>
        <time>2022-06-15T11:29:38Z</time>
      </trkpt>
      <trkpt lat="45.76022" lon="6.53406">
        <ele>1660.1</ele>
        <time>2022-06-15T11:29:39Z</time>
      </trkpt>
      <trkpt lat="45.76024" lon="6.53407">
        <ele>1660.2</ele>
        <time>2022-06-15T11:29:40Z</time>
      </trkpt>
      <trkpt lat="45.76026" lon="6.53407">
        <ele>1660.3</ele>
        <time>2022-06-15T11:29:41Z</time>
      </trkpt>
      <trkpt lat="45.76029" lon="6.53406">
        <ele>1660.2</ele>
        <time>2022-06-15T11:29:42Z</time>
      </trkpt>
      <trkpt lat="45.76031" lon="6.53405">
        <ele>1660.2</ele>
        <time>2022-06-15T11:29:43Z</time>
      </trkpt>
      <trkpt lat="45.76033" lon="6.53403">
        <ele>1660.1</ele>
        <time>2022-06-15T11:29:44Z</time>
      </trkpt>
      <trkpt lat="45.76035" lon="6.53402">
        <ele>1660.1</ele>
        <time>2022-06-15T11:29:45Z</time>
      </trkpt>
      <trkpt lat="45.76037" lon="6.53401">
        <ele>1660</ele>
        <time>2022-06-15T11:29:46Z</time>
      </trkpt>
      <trkpt lat="45.76038" lon="6.53401">
        <ele>1660</ele>
        <time>2022-06-15T11:29:47Z</time>
      </trkpt>
      <trkpt lat="45.76038" lon="6.534">
        <ele>1660</ele>
        <time>2022-06-15T11:29:48Z</time>
      </trkpt>
      <trkpt lat="45.76038" lon="6.534">
        <ele>1660</ele>
        <time>2022-06-15T11:29:49Z</time>
      </trkpt>
      <trkpt lat="45.76038" lon="6.534">
        <ele>1660</ele>
        <time>2022-06-15T11:29:50Z</time>
      </trkpt>
      <trkpt lat="45.76044" lon="6.53399">
        <ele>1659.9</ele>
        <time>2022-06-15T11:44:29Z</time>
      </trkpt>
      <trkpt lat="45.76046" lon="6.53399">
        <ele>1659.9</ele>
        <time>2022-06-15T11:44:30Z</time>
      </trkpt>
      <trkpt lat="45.76047" lon="6.53399">
        <ele>1659.9</ele>
        <time>2022-06-15T11:44:31Z</time>
      </trkpt>
      <trkpt lat="45.76048" lon="6.53399">
        <ele>1660</ele>
        <time>2022-06-15T11:44:32Z</time>
      </trkpt>
      <trkpt lat="45.76049" lon="6.53399">
        <ele>1660</ele>
        <time>2022-06-15T11:44:33Z</time>
      </trkpt>
      <trkpt lat="45.7605" lon="6.53399">
        <ele>1660.1</ele>
        <time>2022-06-15T11:44:34Z</time>
      </trkpt>
      <trkpt lat="45.76051" lon="6.53399">
        <ele>1660.1</ele>
        <time>2022-06-15T11:44:35Z</time>
      </trkpt>
      <trkpt lat="45.76052" lon="6.53399">
        <ele>1660.1</ele>
        <time>2022-06-15T11:44:36Z</time>
      </trkpt>
      <trkpt lat="45.76053" lon="6.53399">
        <ele>1660.1</ele>
        <time>2022-06-15T11:44:37Z</time>
      </trkpt>
      <trkpt lat="45.76054" lon="6.53399">
        <ele>1660.1</ele>
        <time>2022-06-15T11:44:38Z</time>
      </trkpt>
      <trkpt lat="45.76055" lon="6.53399">
        <ele>1660</ele>
        <time>2022-06-15T11:44:39Z</time>
      </trkpt>
      <trkpt lat="45.76056" lon="6.53399">
        <ele>1660.1</ele>
        <time>2022-06-15T11:44:40Z</time>
      </trkpt>
      <trkpt lat="45.76057" lon="6.53399">
        <ele>1660.1</ele>
        <time>2022-06-15T11:44:41Z</time>
      </trkpt>
      <trkpt lat="45.76058" lon="6.53398">
        <ele>1660.1</ele>
        <time>2022-06-15T11:44:42Z</time>
      </trkpt>
      <trkpt lat="45.7606" lon="6.53398">
        <ele>1660.1</ele>
        <time>2022-06-15T11:44:43Z</time>
      </trkpt>
      <trkpt lat="45.76061" lon="6.53397">
        <ele>1660.2</ele>
        <time>2022-06-15T11:44:44Z</time>
      </trkpt>
      <trkpt lat="45.76062" lon="6.53397">
        <ele>1660.2</ele>
        <time>2022-06-15T11:44:45Z</time>
      </trkpt>
      <trkpt lat="45.76063" lon="6.53397">
        <ele>1660.3</ele>
        <time>2022-06-15T11:44:46Z</time>
      </trkpt>
      <trkpt lat="45.76064" lon="6.53398">
        <ele>1660.3</ele>
        <time>2022-06-15T11:44:47Z</time>
      </trkpt>
      <trkpt lat="45.76065" lon="6.53398">
        <ele>1660.4</ele>
        <time>2022-06-15T11:44:48Z</time>
      </trkpt>
      <trkpt lat="45.76066" lon="6.53399">
        <ele>1660.5</ele>
        <time>2022-06-15T11:44:49Z</time>
      </trkpt>
      <trkpt lat="45.76068" lon="6.53399">
        <ele>1660.6</ele>
        <time>2022-06-15T11:44:50Z</time>
      </trkpt>
      <trkpt lat="45.76069" lon="6.53399">
        <ele>1660.7</ele>
        <time>2022-06-15T11:44:51Z</time>
      </trkpt>
      <trkpt lat="45.7607" lon="6.53399">
        <ele>1660.8</ele>
        <time>2022-06-15T11:44:52Z</time>
      </trkpt>
      <trkpt lat="45.76071" lon="6.534">
        <ele>1660.8</ele>
        <time>2022-06-15T11:44:53Z</time>
      </trkpt>
      <trkpt lat="45.76072" lon="6.53399">
        <ele>1660.9</ele>
        <time>2022-06-15T11:44:54Z</time>
      </trkpt>
      <trkpt lat="45.76073" lon="6.53399">
        <ele>1660.9</ele>
        <time>2022-06-15T11:44:55Z</time>
      </trkpt>
      <trkpt lat="45.76073" lon="6.53399">
        <ele>1660.9</ele>
        <time>2022-06-15T11:44:56Z</time>
      </trkpt>
      <trkpt lat="45.76073" lon="6.53398">
        <ele>1660.8</ele>
        <time>2022-06-15T11:44:57Z</time>
      </trkpt>
      <trkpt lat="45.76072" lon="6.53397">
        <ele>1660.7</ele>
        <time>2022-06-15T11:44:58Z</time>
      </trkpt>
      <trkpt lat="45.76071" lon="6.53397">
        <ele>1660.6</ele>
        <time>2022-06-15T11:44:59Z</time>
      </trkpt>
      <trkpt lat="45.7607" lon="6.53397">
        <ele>1660.6</ele>
        <time>2022-06-15T11:45:00Z</time>
      </trkpt>
      <trkpt lat="45.76069" lon="6.53398">
        <ele>1660.6</ele>
        <time>2022-06-15T11:45:01Z</time>
      </trkpt>
      <trkpt lat="45.76068" lon="6.53398">
        <ele>1660.5</ele>
        <time>2022-06-15T11:45:02Z</time>
      </trkpt>
      <trkpt lat="45.76066" lon="6.53397">
        <ele>1660.4</ele>
        <time>2022-06-15T11:45:03Z</time>
      </trkpt>
      <trkpt lat="45.76065" lon="6.53397">
        <ele>1660.4</ele>
        <time>2022-06-15T11:45:04Z</time>
      </trkpt>
      <trkpt lat="45.76064" lon="6.53398">
        <ele>1660.3</ele>
        <time>2022-06-15T11:45:05Z</time>
      </trkpt>
      <trkpt lat="45.76063" lon="6.53399">
        <ele>1660.4</ele>
        <time>2022-06-15T11:45:06Z</time>
      </trkpt>
      <trkpt lat="45.76063" lon="6.534">
        <ele>1660.5</ele>
        <time>2022-06-15T11:45:07Z</time>
      </trkpt>
      <trkpt lat="45.76064" lon="6.53402">
        <ele>1660.7</ele>
        <time>2022-06-15T11:45:08Z</time>
      </trkpt>
      <trkpt lat="45.76064" lon="6.53403">
        <ele>1660.8</ele>
        <time>2022-06-15T11:45:09Z</time>
      </trkpt>
      <trkpt lat="45.76065" lon="6.53404">
        <ele>1660.9</ele>
        <time>2022-06-15T11:45:10Z</time>
      </trkpt>
      <trkpt lat="45.76067" lon="6.53404">
        <ele>1661</ele>
        <time>2022-06-15T11:45:11Z</time>
      </trkpt>
      <trkpt lat="45.76068" lon="6.53405">
        <ele>1661.1</ele>
        <time>2022-06-15T11:45:12Z</time>
      </trkpt>
      <trkpt lat="45.76069" lon="6.53406">
        <ele>1661.2</ele>
        <time>2022-06-15T11:45:13Z</time>
      </trkpt>
      <trkpt lat="45.7607" lon="6.53406">
        <ele>1661.2</ele>
        <time>2022-06-15T11:45:14Z</time>
      </trkpt>
      <trkpt lat="45.76071" lon="6.53407">
        <ele>1661.3</ele>
        <time>2022-06-15T11:45:15Z</time>
      </trkpt>
      <trkpt lat="45.76072" lon="6.53407">
        <ele>1661.4</ele>
        <time>2022-06-15T11:45:16Z</time>
      </trkpt>
      <trkpt lat="45.76073" lon="6.53408">
        <ele>1661.4</ele>
        <time>2022-06-15T11:45:17Z</time>
      </trkpt>
      <trkpt lat="45.76074" lon="6.53408">
        <ele>1661.5</ele>
        <time>2022-06-15T11:45:18Z</time>
      </trkpt>
      <trkpt lat="45.76075" lon="6.53409">
        <ele>1661.5</ele>
        <time>2022-06-15T11:45:19Z</time>
      </trkpt>
      <trkpt lat="45.76076" lon="6.53409">
        <ele>1661.6</ele>
        <time>2022-06-15T11:45:20Z</time>
      </trkpt>
      <trkpt lat="45.76077" lon="6.53409">
        <ele>1661.6</ele>
        <time>2022-06-15T11:45:21Z</time>
      </trkpt>
      <trkpt lat="45.76077" lon="6.53409">
        <ele>1661.6</ele>
        <time>2022-06-15T11:45:22Z</time>
      </trkpt>
      <trkpt lat="45.76078" lon="6.53409">
        <ele>1661.6</ele>
        <time>2022-06-15T11:45:23Z</time>
      </trkpt>
      <trkpt lat="45.76078" lon="6.53409">
        <ele>1661.6</ele>
        <time>2022-06-15T11:45:24Z</time>
      </trkpt>
      <trkpt lat="45.76079" lon="6.5341">
        <ele>1661.7</ele>
        <time>2022-06-15T11:45:25Z</time>
      </trkpt>
      <trkpt lat="45.76079" lon="6.5341">
        <ele>1661.7</ele>
        <time>2022-06-15T11:45:26Z</time>
      </trkpt>
      <trkpt lat="45.7608" lon="6.5341">
        <ele>1661.7</ele>
        <time>2022-06-15T11:45:27Z</time>
      </trkpt>
      <trkpt lat="45.76072" lon="6.53408">
        <ele>1661.4</ele>
        <time>2022-06-15T11:54:41Z</time>
      </trkpt>
      <trkpt lat="45.76071" lon="6.53408">
        <ele>1661.4</ele>
        <time>2022-06-15T11:54:42Z</time>
      </trkpt>
      <trkpt lat="45.7607" lon="6.53406">
        <ele>1661.2</ele>
        <time>2022-06-15T11:54:43Z</time>
      </trkpt>
      <trkpt lat="45.76069" lon="6.53404">
        <ele>1661.1</ele>
        <time>2022-06-15T11:54:44Z</time>
      </trkpt>
      <trkpt lat="45.76068" lon="6.53404">
        <ele>1661</ele>
        <time>2022-06-15T11:54:45Z</time>
      </trkpt>
      <trkpt lat="45.76066" lon="6.53404">
        <ele>1660.9</ele>
        <time>2022-06-15T11:54:46Z</time>
      </trkpt>
      <trkpt lat="45.76065" lon="6.53403">
        <ele>1660.8</ele>
        <time>2022-06-15T11:54:47Z</time>
      </trkpt>
      <trkpt lat="45.76063" lon="6.53402">
        <ele>1660.6</ele>
        <time>2022-06-15T11:54:48Z</time>
      </trkpt>
      <trkpt lat="45.7606" lon="6.534">
        <ele>1660.4</ele>
        <time>2022-06-15T11:54:49Z</time>
      </trkpt>
      <trkpt lat="45.76058" lon="6.53398">
        <ele>1660</ele>
        <time>2022-06-15T11:54:50Z</time>
      </trkpt>
      <trkpt lat="45.76056" lon="6.53395">
        <ele>1659.6</ele>
        <time>2022-06-15T11:54:51Z</time>
      </trkpt>
      <trkpt lat="45.76054" lon="6.53392">
        <ele>1659.3</ele>
        <time>2022-06-15T11:54:52Z</time>
      </trkpt>
      <trkpt lat="45.76052" lon="6.53389">
        <ele>1659</ele>
        <time>2022-06-15T11:54:53Z</time>
      </trkpt>
      <trkpt lat="45.7605" lon="6.53386">
        <ele>1658.9</ele>
        <time>2022-06-15T11:54:54Z</time>
      </trkpt>
      <trkpt lat="45.76049" lon="6.53384">
        <ele>1658.8</ele>
        <time>2022-06-15T11:54:55Z</time>
      </trkpt>
      <trkpt lat="45.76048" lon="6.53382">
        <ele>1658.8</ele>
        <time>2022-06-15T11:54:56Z</time>
      </trkpt>
      <trkpt lat="45.76048" lon="6.53381">
        <ele>1658.7</ele>
        <time>2022-06-15T11:54:57Z</time>
      </trkpt>
      <trkpt lat="45.76049" lon="6.5338">
        <ele>1658.7</ele>
        <time>2022-06-15T11:54:58Z</time>
      </trkpt>
      <trkpt lat="45.7605" lon="6.5338">
        <ele>1658.7</ele>
        <time>2022-06-15T11:54:59Z</time>
      </trkpt>
      <trkpt lat="45.76051" lon="6.53378">
        <ele>1658.6</ele>
        <time>2022-06-15T11:55:00Z</time>
      </trkpt>
      <trkpt lat="45.76051" lon="6.53376">
        <ele>1658.5</ele>
        <time>2022-06-15T11:55:01Z</time>
      </trkpt>
      <trkpt lat="45.7605" lon="6.53373">
        <ele>1658.4</ele>
        <time>2022-06-15T11:55:02Z</time>
      </trkpt>
      <trkpt lat="45.76048" lon="6.53372">
        <ele>1658.4</ele>
        <time>2022-06-15T11:55:03Z</time>
      </trkpt>
      <trkpt lat="45.76046" lon="6.5337">
        <ele>1658.3</ele>
        <time>2022-06-15T11:55:04Z</time>
      </trkpt>
      <trkpt lat="45.76043" lon="6.53368">
        <ele>1658.3</ele>
        <time>2022-06-15T11:55:05Z</time>
      </trkpt>
      <trkpt lat="45.76042" lon="6.53364">
        <ele>1658.1</ele>
        <time>2022-06-15T11:55:06Z</time>
      </trkpt>
      <trkpt lat="45.76042" lon="6.5336">
        <ele>1657.9</ele>
        <time>2022-06-15T11:55:07Z</time>
      </trkpt>
      <trkpt lat="45.76044" lon="6.53356">
        <ele>1657.6</ele>
        <time>2022-06-15T11:55:08Z</time>
      </trkpt>
      <trkpt lat="45.76047" lon="6.53354">
        <ele>1657.5</ele>
        <time>2022-06-15T11:55:09Z</time>
      </trkpt>
      <trkpt lat="45.76051" lon="6.53352">
        <ele>1657.4</ele>
        <time>2022-06-15T11:55:10Z</time>
      </trkpt>
      <trkpt lat="45.76054" lon="6.53351">
        <ele>1657.3</ele>
        <time>2022-06-15T11:55:11Z</time>
      </trkpt>
      <trkpt lat="45.76058" lon="6.53351">
        <ele>1657.3</ele>
        <time>2022-06-15T11:55:12Z</time>
      </trkpt>
      <trkpt lat="45.76061" lon="6.5335">
        <ele>1657.3</ele>
        <time>2022-06-15T11:55:13Z</time>
      </trkpt>
      <trkpt lat="45.76065" lon="6.5335">
        <ele>1657.3</ele>
        <time>2022-06-15T11:55:14Z</time>
      </trkpt>
      <trkpt lat="45.76068" lon="6.53349">
        <ele>1657.3</ele>
        <time>2022-06-15T11:55:15Z</time>
      </trkpt>
      <trkpt lat="45.76071" lon="6.53349">
        <ele>1657.3</ele>
        <time>2022-06-15T11:55:16Z</time>
      </trkpt>
      <trkpt lat="45.76075" lon="6.53348">
        <ele>1657.4</ele>
        <time>2022-06-15T11:55:17Z</time>
      </trkpt>
      <trkpt lat="45.76078" lon="6.53347">
        <ele>1657.4</ele>
        <time>2022-06-15T11:55:18Z</time>
      </trkpt>
      <trkpt lat="45.76081" lon="6.53346">
        <ele>1657.4</ele>
        <time>2022-06-15T11:55:19Z</time>
      </trkpt>
      <trkpt lat="45.76084" lon="6.53346">
        <ele>1657.5</ele>
        <time>2022-06-15T11:55:20Z</time>
      </trkpt>
      <trkpt lat="45.76088" lon="6.53346">
        <ele>1657.6</ele>
        <time>2022-06-15T11:55:21Z</time>
      </trkpt>
      <trkpt lat="45.76091" lon="6.53345">
        <ele>1657.7</ele>
        <time>2022-06-15T11:55:22Z</time>
      </trkpt>
      <trkpt lat="45.76094" lon="6.53344">
        <ele>1657.7</ele>
        <time>2022-06-15T11:55:23Z</time>
      </trkpt>
      <trkpt lat="45.76096" lon="6.53343">
        <ele>1657.8</ele>
        <time>2022-06-15T11:55:24Z</time>
      </trkpt>
      <trkpt lat="45.76099" lon="6.53341">
        <ele>1657.8</ele>
        <time>2022-06-15T11:55:25Z</time>
      </trkpt>
      <trkpt lat="45.76101" lon="6.53339">
        <ele>1657.8</ele>
        <time>2022-06-15T11:55:26Z</time>
      </trkpt>
      <trkpt lat="45.76103" lon="6.53337">
        <ele>1657.8</ele>
        <time>2022-06-15T11:55:27Z</time>
      </trkpt>
      <trkpt lat="45.76105" lon="6.53335">
        <ele>1657.8</ele>
        <time>2022-06-15T11:55:28Z</time>
      </trkpt>
      <trkpt lat="45.76107" lon="6.53333">
        <ele>1657.8</ele>
        <time>2022-06-15T11:55:29Z</time>
      </trkpt>
      <trkpt lat="45.76109" lon="6.53332">
        <ele>1657.9</ele>
        <time>2022-06-15T11:55:30Z</time>
      </trkpt>
      <trkpt lat="45.7611" lon="6.53331">
        <ele>1657.9</ele>
        <time>2022-06-15T11:55:31Z</time>
      </trkpt>
      <trkpt lat="45.76111" lon="6.5333">
        <ele>1657.8</ele>
        <time>2022-06-15T11:55:32Z</time>
      </trkpt>
      <trkpt lat="45.76111" lon="6.53329">
        <ele>1657.8</ele>
        <time>2022-06-15T11:55:33Z</time>
      </trkpt>
      <trkpt lat="45.76111" lon="6.53329">
        <ele>1657.8</ele>
        <time>2022-06-15T11:55:34Z</time>
      </trkpt>
      <trkpt lat="45.76112" lon="6.53326">
        <ele>1657.7</ele>
        <time>2022-06-15T11:57:42Z</time>
      </trkpt>
      <trkpt lat="45.76114" lon="6.53326">
        <ele>1657.7</ele>
        <time>2022-06-15T11:57:43Z</time>
      </trkpt>
      <trkpt lat="45.76115" lon="6.53327">
        <ele>1657.8</ele>
        <time>2022-06-15T11:57:44Z</time>
      </trkpt>
      <trkpt lat="45.76117" lon="6.53329">
        <ele>1657.8</ele>
        <time>2022-06-15T11:57:45Z</time>
      </trkpt>
      <trkpt lat="45.76118" lon="6.53331">
        <ele>1657.9</ele>
        <time>2022-06-15T11:57:46Z</time>
      </trkpt>
      <trkpt lat="45.7612" lon="6.53334">
        <ele>1658</ele>
        <time>2022-06-15T11:57:47Z</time>
      </trkpt>
      <trkpt lat="45.76121" lon="6.53337">
        <ele>1658.2</ele>
        <time>2022-06-15T11:57:48Z</time>
      </trkpt>
      <trkpt lat="45.76123" lon="6.5334">
        <ele>1658.3</ele>
        <time>2022-06-15T11:57:49Z</time>
      </trkpt>
      <trkpt lat="45.76126" lon="6.53341">
        <ele>1658.4</ele>
        <time>2022-06-15T11:57:50Z</time>
      </trkpt>
      <trkpt lat="45.76129" lon="6.53341">
        <ele>1658.4</ele>
        <time>2022-06-15T11:57:51Z</time>
      </trkpt>
      <trkpt lat="45.76132" lon="6.5334">
        <ele>1658.4</ele>
        <time>2022-06-15T11:57:52Z</time>
      </trkpt>
      <trkpt lat="45.76135" lon="6.53339">
        <ele>1658.4</ele>
        <time>2022-06-15T11:57:53Z</time>
      </trkpt>
      <trkpt lat="45.76138" lon="6.53339">
        <ele>1658.4</ele>
        <time>2022-06-15T11:57:54Z</time>
      </trkpt>
      <trkpt lat="45.76141" lon="6.53338">
        <ele>1658.4</ele>
        <time>2022-06-15T11:57:55Z</time>
      </trkpt>
      <trkpt lat="45.76144" lon="6.53338">
        <ele>1658.3</ele>
        <time>2022-06-15T11:57:56Z</time>
      </trkpt>
      <trkpt lat="45.76147" lon="6.53338">
        <ele>1658.3</ele>
        <time>2022-06-15T11:57:57Z</time>
      </trkpt>
      <trkpt lat="45.7615" lon="6.53338">
        <ele>1658.3</ele>
        <time>2022-06-15T11:57:58Z</time>
      </trkpt>
      <trkpt lat="45.76152" lon="6.53338">
        <ele>1658.3</ele>
        <time>2022-06-15T11:57:59Z</time>
      </trkpt>
      <trkpt lat="45.76155" lon="6.53338">
        <ele>1658.3</ele>
        <time>2022-06-15T11:58:00Z</time>
      </trkpt>
      <trkpt lat="45.76158" lon="6.53338">
        <ele>1658.4</ele>
        <time>2022-06-15T11:58:01Z</time>
      </trkpt>
      <trkpt lat="45.76161" lon="6.53338">
        <ele>1658.4</ele>
        <time>2022-06-15T11:58:02Z</time>
      </trkpt>
      <trkpt lat="45.76163" lon="6.53338">
        <ele>1658.3</ele>
        <time>2022-06-15T11:58:03Z</time>
      </trkpt>
      <trkpt lat="45.76166" lon="6.53338">
        <ele>1658.3</ele>
        <time>2022-06-15T11:58:04Z</time>
      </trkpt>
      <trkpt lat="45.76169" lon="6.53337">
        <ele>1658.3</ele>
        <time>2022-06-15T11:58:05Z</time>
      </trkpt>
      <trkpt lat="45.76171" lon="6.53337">
        <ele>1658.2</ele>
        <time>2022-06-15T11:58:06Z</time>
      </trkpt>
      <trkpt lat="45.76174" lon="6.53337">
        <ele>1658.2</ele>
        <time>2022-06-15T11:58:07Z</time>
      </trkpt>
      <trkpt lat="45.76176" lon="6.53337">
        <ele>1658.2</ele>
        <time>2022-06-15T11:58:08Z</time>
      </trkpt>
      <trkpt lat="45.76179" lon="6.53337">
        <ele>1658.2</ele>
        <time>2022-06-15T11:58:09Z</time>
      </trkpt>
      <trkpt lat="45.76181" lon="6.53338">
        <ele>1658.2</ele>
        <time>2022-06-15T11:58:10Z</time>
      </trkpt>
      <trkpt lat="45.76183" lon="6.53338">
        <ele>1658.2</ele>
        <time>2022-06-15T11:58:11Z</time>
      </trkpt>
      <trkpt lat="45.76186" lon="6.53338">
        <ele>1658.2</ele>
        <time>2022-06-15T11:58:12Z</time>
      </trkpt>
      <trkpt lat="45.76188" lon="6.53337">
        <ele>1658.2</ele>
        <time>2022-06-15T11:58:13Z</time>
      </trkpt>
      <trkpt lat="45.7619" lon="6.53337">
        <ele>1658.1</ele>
        <time>2022-06-15T11:58:14Z</time>
      </trkpt>
      <trkpt lat="45.76192" lon="6.53336">
        <ele>1658.1</ele>
        <time>2022-06-15T11:58:15Z</time>
      </trkpt>
      <trkpt lat="45.76194" lon="6.53334">
        <ele>1658</ele>
        <time>2022-06-15T11:58:16Z</time>
      </trkpt>
      <trkpt lat="45.76195" lon="6.53332">
        <ele>1658</ele>
        <time>2022-06-15T11:58:17Z</time>
      </trkpt>
      <trkpt lat="45.76197" lon="6.53331">
        <ele>1658</ele>
        <time>2022-06-15T11:58:18Z</time>
      </trkpt>
      <trkpt lat="45.76198" lon="6.53329">
        <ele>1658</ele>
        <time>2022-06-15T11:58:19Z</time>
      </trkpt>
      <trkpt lat="45.762" lon="6.53328">
        <ele>1658</ele>
        <time>2022-06-15T11:58:20Z</time>
      </trkpt>
      <trkpt lat="45.76201" lon="6.53326">
        <ele>1658</ele>
        <time>2022-06-15T11:58:21Z</time>
      </trkpt>
      <trkpt lat="45.76202" lon="6.53325">
        <ele>1658</ele>
        <time>2022-06-15T11:58:22Z</time>
      </trkpt>
      <trkpt lat="45.76202" lon="6.53325">
        <ele>1658</ele>
        <time>2022-06-15T11:58:23Z</time>
      </trkpt>
      <trkpt lat="45.76202" lon="6.53325">
        <ele>1658</ele>
        <time>2022-06-15T11:58:24Z</time>
      </trkpt>
      <trkpt lat="45.76204" lon="6.53327">
        <ele>1658</ele>
        <time>2022-06-15T11:59:48Z</time>
      </trkpt>
      <trkpt lat="45.76206" lon="6.53329">
        <ele>1658</ele>
        <time>2022-06-15T11:59:49Z</time>
      </trkpt>
      <trkpt lat="45.76207" lon="6.53331">
        <ele>1658</ele>
        <time>2022-06-15T11:59:50Z</time>
      </trkpt>
      <trkpt lat="45.76208" lon="6.53334">
        <ele>1658</ele>
        <time>2022-06-15T11:59:51Z</time>
      </trkpt>
      <trkpt lat="45.7621" lon="6.53335">
        <ele>1658.1</ele>
        <time>2022-06-15T11:59:52Z</time>
      </trkpt>
      <trkpt lat="45.76212" lon="6.53337">
        <ele>1658.1</ele>
        <time>2022-06-15T11:59:53Z</time>
      </trkpt>
      <trkpt lat="45.76215" lon="6.53338">
        <ele>1658.2</ele>
        <time>2022-06-15T11:59:54Z</time>
      </trkpt>
      <trkpt lat="45.76218" lon="6.53338">
        <ele>1658.2</ele>
        <time>2022-06-15T11:59:55Z</time>
      </trkpt>
      <trkpt lat="45.76222" lon="6.53338">
        <ele>1658.2</ele>
        <time>2022-06-15T11:59:56Z</time>
      </trkpt>
      <trkpt lat="45.76225" lon="6.53339">
        <ele>1658.2</ele>
        <time>2022-06-15T11:59:57Z</time>
      </trkpt>
      <trkpt lat="45.76229" lon="6.53338">
        <ele>1658.1</ele>
        <time>2022-06-15T11:59:58Z</time>
      </trkpt>
      <trkpt lat="45.76232" lon="6.53339">
        <ele>1658.1</ele>
        <time>2022-06-15T11:59:59Z</time>
      </trkpt>
      <trkpt lat="45.76236" lon="6.53339">
        <ele>1658.1</ele>
        <time>2022-06-15T12:00:00Z</time>
      </trkpt>
      <trkpt lat="45.7624" lon="6.5334">
        <ele>1658.1</ele>
        <time>2022-06-15T12:00:01Z</time>
      </trkpt>
      <trkpt lat="45.76243" lon="6.5334">
        <ele>1658.1</ele>
        <time>2022-06-15T12:00:02Z</time>
      </trkpt>
      <trkpt lat="45.76247" lon="6.53341">
        <ele>1658</ele>
        <time>2022-06-15T12:00:03Z</time>
      </trkpt>
      <trkpt lat="45.76251" lon="6.53341">
        <ele>1658</ele>
        <time>2022-06-15T12:00:04Z</time>
      </trkpt>
      <trkpt lat="45.76255" lon="6.53341">
        <ele>1657.9</ele>
        <time>2022-06-15T12:00:05Z</time>
      </trkpt>
      <trkpt lat="45.7626" lon="6.53342">
        <ele>1657.8</ele>
        <time>2022-06-15T12:00:06Z</time>
      </trkpt>
      <trkpt lat="45.76264" lon="6.53342">
        <ele>1657.7</ele>
        <time>2022-06-15T12:00:07Z</time>
      </trkpt>
      <trkpt lat="45.76268" lon="6.53343">
        <ele>1657.6</ele>
        <time>2022-06-15T12:00:08Z</time>
      </trkpt>
      <trkpt lat="45.76272" lon="6.53345">
        <ele>1657.6</ele>
        <time>2022-06-15T12:00:09Z</time>
      </trkpt>
      <trkpt lat="45.76276" lon="6.53347">
        <ele>1657.5</ele>
        <time>2022-06-15T12:00:10Z</time>
      </trkpt>
      <trkpt lat="45.76279" lon="6.5335">
        <ele>1657.6</ele>
        <time>2022-06-15T12:00:11Z</time>
      </trkpt>
      <trkpt lat="45.76283" lon="6.53352">
        <ele>1657.5</ele>
        <time>2022-06-15T12:00:12Z</time>
      </trkpt>
      <trkpt lat="45.76288" lon="6.53355">
        <ele>1657.5</ele>
        <time>2022-06-15T12:00:13Z</time>
      </trkpt>
      <trkpt lat="45.76292" lon="6.53358">
        <ele>1657.4</ele>
        <time>2022-06-15T12:00:14Z</time>
      </trkpt>
      <trkpt lat="45.76296" lon="6.53362">
        <ele>1657.3</ele>
        <time>2022-06-15T12:00:15Z</time>
      </trkpt>
      <trkpt lat="45.76301" lon="6.53365">
        <ele>1657.2</ele>
        <time>2022-06-15T12:00:16Z</time>
      </trkpt>
      <trkpt lat="45.76305" lon="6.53368">
        <ele>1657</ele>
        <time>2022-06-15T12:00:17Z</time>
      </trkpt>
      <trkpt lat="45.7631" lon="6.53373">
        <ele>1656.9</ele>
        <time>2022-06-15T12:00:18Z</time>
      </trkpt>
      <trkpt lat="45.76313" lon="6.53379">
        <ele>1656.7</ele>
        <time>2022-06-15T12:00:19Z</time>
      </trkpt>
      <trkpt lat="45.76318" lon="6.53385">
        <ele>1656.6</ele>
        <time>2022-06-15T12:00:20Z</time>
      </trkpt>
      <trkpt lat="45.76323" lon="6.53388">
        <ele>1656.4</ele>
        <time>2022-06-15T12:00:21Z</time>
      </trkpt>
      <trkpt lat="45.7633" lon="6.5339">
        <ele>1656.1</ele>
        <time>2022-06-15T12:00:22Z</time>
      </trkpt>
      <trkpt lat="45.76337" lon="6.53391">
        <ele>1655.9</ele>
        <time>2022-06-15T12:00:23Z</time>
      </trkpt>
      <trkpt lat="45.76344" lon="6.53391">
        <ele>1655.8</ele>
        <time>2022-06-15T12:00:24Z</time>
      </trkpt>
      <trkpt lat="45.76352" lon="6.53392">
        <ele>1655.7</ele>
        <time>2022-06-15T12:00:25Z</time>
      </trkpt>
      <trkpt lat="45.7636" lon="6.53393">
        <ele>1655.7</ele>
        <time>2022-06-15T12:00:26Z</time>
      </trkpt>
      <trkpt lat="45.76367" lon="6.53392">
        <ele>1655.3</ele>
        <time>2022-06-15T12:00:27Z</time>
      </trkpt>
      <trkpt lat="45.76375" lon="6.5339">
        <ele>1654.7</ele>
        <time>2022-06-15T12:00:28Z</time>
      </trkpt>
      <trkpt lat="45.76383" lon="6.53388">
        <ele>1654.1</ele>
        <time>2022-06-15T12:00:29Z</time>
      </trkpt>
      <trkpt lat="45.76391" lon="6.53385">
        <ele>1653.9</ele>
        <time>2022-06-15T12:00:30Z</time>
      </trkpt>
      <trkpt lat="45.764" lon="6.53382">
        <ele>1654</ele>
        <time>2022-06-15T12:00:31Z</time>
      </trkpt>
      <trkpt lat="45.76408" lon="6.53379">
        <ele>1653.9</ele>
        <time>2022-06-15T12:00:32Z</time>
      </trkpt>
      <trkpt lat="45.76417" lon="6.53376">
        <ele>1653.6</ele>
        <time>2022-06-15T12:00:33Z</time>
      </trkpt>
      <trkpt lat="45.76426" lon="6.53373">
        <ele>1653.5</ele>
        <time>2022-06-15T12:00:34Z</time>
      </trkpt>
      <trkpt lat="45.76435" lon="6.53369">
        <ele>1653</ele>
        <time>2022-06-15T12:00:35Z</time>
      </trkpt>
      <trkpt lat="45.76444" lon="6.53366">
        <ele>1652.3</ele>
        <time>2022-06-15T12:00:36Z</time>
      </trkpt>
      <trkpt lat="45.76453" lon="6.53362">
        <ele>1651.9</ele>
        <time>2022-06-15T12:00:37Z</time>
      </trkpt>
      <trkpt lat="45.76463" lon="6.53359">
        <ele>1651.9</ele>
        <time>2022-06-15T12:00:38Z</time>
      </trkpt>
      <trkpt lat="45.76472" lon="6.53355">
        <ele>1651.9</ele>
        <time>2022-06-15T12:00:39Z</time>
      </trkpt>
      <trkpt lat="45.76482" lon="6.53352">
        <ele>1651.2</ele>
        <time>2022-06-15T12:00:40Z</time>
      </trkpt>
      <trkpt lat="45.76492" lon="6.53348">
        <ele>1650.3</ele>
        <time>2022-06-15T12:00:41Z</time>
      </trkpt>
      <trkpt lat="45.76503" lon="6.53344">
        <ele>1649.3</ele>
        <time>2022-06-15T12:00:42Z</time>
      </trkpt>
      <trkpt lat="45.76513" lon="6.53339">
        <ele>1648.6</ele>
        <time>2022-06-15T12:00:43Z</time>
      </trkpt>
      <trkpt lat="45.76523" lon="6.53333">
        <ele>1647.8</ele>
        <time>2022-06-15T12:00:44Z</time>
      </trkpt>
      <trkpt lat="45.76533" lon="6.53325">
        <ele>1647.6</ele>
        <time>2022-06-15T12:00:45Z</time>
      </trkpt>
      <trkpt lat="45.76543" lon="6.53316">
        <ele>1647.2</ele>
        <time>2022-06-15T12:00:46Z</time>
      </trkpt>
      <trkpt lat="45.76553" lon="6.53309">
        <ele>1646.4</ele>
        <time>2022-06-15T12:00:47Z</time>
      </trkpt>
      <trkpt lat="45.76564" lon="6.533">
        <ele>1646.4</ele>
        <time>2022-06-15T12:00:48Z</time>
      </trkpt>
      <trkpt lat="45.76574" lon="6.53292">
        <ele>1646</ele>
        <time>2022-06-15T12:00:49Z</time>
      </trkpt>
      <trkpt lat="45.76584" lon="6.53284">
        <ele>1644.6</ele>
        <time>2022-06-15T12:00:50Z</time>
      </trkpt>
      <trkpt lat="45.76594" lon="6.53276">
        <ele>1644.9</ele>
        <time>2022-06-15T12:00:51Z</time>
      </trkpt>
      <trkpt lat="45.76605" lon="6.53268">
        <ele>1644.7</ele>
        <time>2022-06-15T12:00:52Z</time>
      </trkpt>
      <trkpt lat="45.76615" lon="6.53263">
        <ele>1644.3</ele>
        <time>2022-06-15T12:00:53Z</time>
      </trkpt>
      <trkpt lat="45.76627" lon="6.53258">
        <ele>1643.1</ele>
        <time>2022-06-15T12:00:54Z</time>
      </trkpt>
      <trkpt lat="45.76638" lon="6.53252">
        <ele>1641.5</ele>
        <time>2022-06-15T12:00:55Z</time>
      </trkpt>
      <trkpt lat="45.7665" lon="6.53246">
        <ele>1640</ele>
        <time>2022-06-15T12:00:56Z</time>
      </trkpt>
      <trkpt lat="45.76662" lon="6.5324">
        <ele>1639</ele>
        <time>2022-06-15T12:00:57Z</time>
      </trkpt>
      <trkpt lat="45.76675" lon="6.53234">
        <ele>1638.1</ele>
        <time>2022-06-15T12:00:58Z</time>
      </trkpt>
      <trkpt lat="45.76687" lon="6.53229">
        <ele>1636.9</ele>
        <time>2022-06-15T12:00:59Z</time>
      </trkpt>
      <trkpt lat="45.767" lon="6.53225">
        <ele>1635.6</ele>
        <time>2022-06-15T12:01:00Z</time>
      </trkpt>
      <trkpt lat="45.76713" lon="6.5322">
        <ele>1634.5</ele>
        <time>2022-06-15T12:01:01Z</time>
      </trkpt>
      <trkpt lat="45.76726" lon="6.53216">
        <ele>1633.6</ele>
        <time>2022-06-15T12:01:02Z</time>
      </trkpt>
      <trkpt lat="45.7674" lon="6.53211">
        <ele>1632.6</ele>
        <time>2022-06-15T12:01:03Z</time>
      </trkpt>
      <trkpt lat="45.76753" lon="6.53207">
        <ele>1631.6</ele>
        <time>2022-06-15T12:01:04Z</time>
      </trkpt>
      <trkpt lat="45.76767" lon="6.53203">
        <ele>1630.2</ele>
        <time>2022-06-15T12:01:05Z</time>
      </trkpt>
      <trkpt lat="45.7678" lon="6.53198">
        <ele>1628.7</ele>
        <time>2022-06-15T12:01:06Z</time>
      </trkpt>
      <trkpt lat="45.76794" lon="6.53194">
        <ele>1627.3</ele>
        <time>2022-06-15T12:01:07Z</time>
      </trkpt>
      <trkpt lat="45.76807" lon="6.5319">
        <ele>1626.1</ele>
        <time>2022-06-15T12:01:08Z</time>
      </trkpt>
      <trkpt lat="45.76821" lon="6.53187">
        <ele>1625.1</ele>
        <time>2022-06-15T12:01:09Z</time>
      </trkpt>
      <trkpt lat="45.76835" lon="6.53185">
        <ele>1624</ele>
        <time>2022-06-15T12:01:10Z</time>
      </trkpt>
      <trkpt lat="45.76849" lon="6.53185">
        <ele>1622.5</ele>
        <time>2022-06-15T12:01:11Z</time>
      </trkpt>
      <trkpt lat="45.76863" lon="6.53187">
        <ele>1621.3</ele>
        <time>2022-06-15T12:01:12Z</time>
      </trkpt>
      <trkpt lat="45.76878" lon="6.53192">
        <ele>1619.6</ele>
        <time>2022-06-15T12:01:13Z</time>
      </trkpt>
      <trkpt lat="45.76892" lon="6.53198">
        <ele>1618.2</ele>
        <time>2022-06-15T12:01:14Z</time>
      </trkpt>
      <trkpt lat="45.76907" lon="6.53205">
        <ele>1617.2</ele>
        <time>2022-06-15T12:01:15Z</time>
      </trkpt>
      <trkpt lat="45.76921" lon="6.53214">
        <ele>1615.6</ele>
        <time>2022-06-15T12:01:16Z</time>
      </trkpt>
      <trkpt lat="45.76935" lon="6.53225">
        <ele>1614.2</ele>
        <time>2022-06-15T12:01:17Z</time>
      </trkpt>
      <trkpt lat="45.76948" lon="6.53239">
        <ele>1613.5</ele>
        <time>2022-06-15T12:01:18Z</time>
      </trkpt>
      <trkpt lat="45.76961" lon="6.53252">
        <ele>1611.9</ele>
        <time>2022-06-15T12:01:19Z</time>
      </trkpt>
      <trkpt lat="45.76975" lon="6.53266">
        <ele>1610.3</ele>
        <time>2022-06-15T12:01:20Z</time>
      </trkpt>
      <trkpt lat="45.76988" lon="6.53277">
        <ele>1609.4</ele>
        <time>2022-06-15T12:01:21Z</time>
      </trkpt>
      <trkpt lat="45.77001" lon="6.53288">
        <ele>1608.7</ele>
        <time>2022-06-15T12:01:22Z</time>
      </trkpt>
      <trkpt lat="45.77014" lon="6.53299">
        <ele>1608.7</ele>
        <time>2022-06-15T12:01:23Z</time>
      </trkpt>
      <trkpt lat="45.77025" lon="6.53313">
        <ele>1607.8</ele>
        <time>2022-06-15T12:01:24Z</time>
      </trkpt>
      <trkpt lat="45.77036" lon="6.53328">
        <ele>1605.4</ele>
        <time>2022-06-15T12:01:25Z</time>
      </trkpt>
      <trkpt lat="45.77046" lon="6.53344">
        <ele>1605.1</ele>
        <time>2022-06-15T12:01:26Z</time>
      </trkpt>
      <trkpt lat="45.77054" lon="6.53362">
        <ele>1605.1</ele>
        <time>2022-06-15T12:01:27Z</time>
      </trkpt>
      <trkpt lat="45.77062" lon="6.5338">
        <ele>1603.5</ele>
        <time>2022-06-15T12:01:28Z</time>
      </trkpt>
      <trkpt lat="45.7707" lon="6.53398">
        <ele>1604</ele>
        <time>2022-06-15T12:01:29Z</time>
      </trkpt>
      <trkpt lat="45.77078" lon="6.53416">
        <ele>1604.1</ele>
        <time>2022-06-15T12:01:30Z</time>
      </trkpt>
      <trkpt lat="45.77086" lon="6.53432">
        <ele>1603.3</ele>
        <time>2022-06-15T12:01:31Z</time>
      </trkpt>
      <trkpt lat="45.77095" lon="6.53448">
        <ele>1603.2</ele>
        <time>2022-06-15T12:01:32Z</time>
      </trkpt>
      <trkpt lat="45.77104" lon="6.53463">
        <ele>1602</ele>
        <time>2022-06-15T12:01:33Z</time>
      </trkpt>
      <trkpt lat="45.77113" lon="6.53477">
        <ele>1600.8</ele>
        <time>2022-06-15T12:01:34Z</time>
      </trkpt>
      <trkpt lat="45.77123" lon="6.53489">
        <ele>1601.7</ele>
        <time>2022-06-15T12:01:35Z</time>
      </trkpt>
      <trkpt lat="45.77133" lon="6.53499">
        <ele>1600.4</ele>
        <time>2022-06-15T12:01:36Z</time>
      </trkpt>
      <trkpt lat="45.77143" lon="6.5351">
        <ele>1599.8</ele>
        <time>2022-06-15T12:01:37Z</time>
      </trkpt>
      <trkpt lat="45.77151" lon="6.53522">
        <ele>1599.9</ele>
        <time>2022-06-15T12:01:38Z</time>
      </trkpt>
      <trkpt lat="45.77159" lon="6.53534">
        <ele>1599.4</ele>
        <time>2022-06-15T12:01:39Z</time>
      </trkpt>
      <trkpt lat="45.77166" lon="6.53546">
        <ele>1598.5</ele>
        <time>2022-06-15T12:01:40Z</time>
      </trkpt>
      <trkpt lat="45.77173" lon="6.53559">
        <ele>1598.5</ele>
        <time>2022-06-15T12:01:41Z</time>
      </trkpt>
      <trkpt lat="45.7718" lon="6.53571">
        <ele>1598.6</ele>
        <time>2022-06-15T12:01:42Z</time>
      </trkpt>
      <trkpt lat="45.77187" lon="6.53584">
        <ele>1598.8</ele>
        <time>2022-06-15T12:01:43Z</time>
      </trkpt>
      <trkpt lat="45.77194" lon="6.53596">
        <ele>1597.6</ele>
        <time>2022-06-15T12:01:44Z</time>
      </trkpt>
      <trkpt lat="45.77201" lon="6.53608">
        <ele>1596</ele>
        <time>2022-06-15T12:01:45Z</time>
      </trkpt>
      <trkpt lat="45.77208" lon="6.5362">
        <ele>1595.3</ele>
        <time>2022-06-15T12:01:46Z</time>
      </trkpt>
      <trkpt lat="45.77217" lon="6.5363">
        <ele>1596.1</ele>
        <time>2022-06-15T12:01:47Z</time>
      </trkpt>
      <trkpt lat="45.77226" lon="6.53638">
        <ele>1598.1</ele>
        <time>2022-06-15T12:01:48Z</time>
      </trkpt>
      <trkpt lat="45.77235" lon="6.53643">
        <ele>1599.2</ele>
        <time>2022-06-15T12:01:49Z</time>
      </trkpt>
      <trkpt lat="45.77245" lon="6.53645">
        <ele>1600.2</ele>
        <time>2022-06-15T12:01:50Z</time>
      </trkpt>
      <trkpt lat="45.77254" lon="6.53644">
        <ele>1600.9</ele>
        <time>2022-06-15T12:01:51Z</time>
      </trkpt>
      <trkpt lat="45.77263" lon="6.53642">
        <ele>1601.3</ele>
        <time>2022-06-15T12:01:52Z</time>
      </trkpt>
      <trkpt lat="45.77271" lon="6.53639">
        <ele>1601.6</ele>
        <time>2022-06-15T12:01:53Z</time>
      </trkpt>
      <trkpt lat="45.7728" lon="6.53637">
        <ele>1601.8</ele>
        <time>2022-06-15T12:01:54Z</time>
      </trkpt>
      <trkpt lat="45.77287" lon="6.53636">
        <ele>1601.6</ele>
        <time>2022-06-15T12:01:55Z</time>
      </trkpt>
      <trkpt lat="45.77295" lon="6.53636">
        <ele>1601.6</ele>
        <time>2022-06-15T12:01:56Z</time>
      </trkpt>
      <trkpt lat="45.77303" lon="6.53634">
        <ele>1601.5</ele>
        <time>2022-06-15T12:01:57Z</time>
      </trkpt>
      <trkpt lat="45.7731" lon="6.53633">
        <ele>1601.6</ele>
        <time>2022-06-15T12:01:58Z</time>
      </trkpt>
      <trkpt lat="45.77317" lon="6.5363">
        <ele>1601.8</ele>
        <time>2022-06-15T12:01:59Z</time>
      </trkpt>
      <trkpt lat="45.77324" lon="6.53627">
        <ele>1602</ele>
        <time>2022-06-15T12:02:00Z</time>
      </trkpt>
      <trkpt lat="45.77331" lon="6.53623">
        <ele>1602.1</ele>
        <time>2022-06-15T12:02:01Z</time>
      </trkpt>
      <trkpt lat="45.77338" lon="6.53618">
        <ele>1602.4</ele>
        <time>2022-06-15T12:02:02Z</time>
      </trkpt>
      <trkpt lat="45.77345" lon="6.53613">
        <ele>1602.6</ele>
        <time>2022-06-15T12:02:03Z</time>
      </trkpt>
      <trkpt lat="45.77351" lon="6.53608">
        <ele>1602.2</ele>
        <time>2022-06-15T12:02:04Z</time>
      </trkpt>
      <trkpt lat="45.77357" lon="6.53602">
        <ele>1601.6</ele>
        <time>2022-06-15T12:02:05Z</time>
      </trkpt>
      <trkpt lat="45.77364" lon="6.53595">
        <ele>1601.4</ele>
        <time>2022-06-15T12:02:06Z</time>
      </trkpt>
      <trkpt lat="45.77369" lon="6.53589">
        <ele>1601.9</ele>
        <time>2022-06-15T12:02:07Z</time>
      </trkpt>
      <trkpt lat="45.77375" lon="6.53581">
        <ele>1601.9</ele>
        <time>2022-06-15T12:02:08Z</time>
      </trkpt>
      <trkpt lat="45.77381" lon="6.53574">
        <ele>1601.8</ele>
        <time>2022-06-15T12:02:09Z</time>
      </trkpt>
      <trkpt lat="45.77387" lon="6.53567">
        <ele>1601.7</ele>
        <time>2022-06-15T12:02:10Z</time>
      </trkpt>
      <trkpt lat="45.77393" lon="6.53561">
        <ele>1600.8</ele>
        <time>2022-06-15T12:02:11Z</time>
      </trkpt>
      <trkpt lat="45.774" lon="6.53556">
        <ele>1599.6</ele>
        <time>2022-06-15T12:02:12Z</time>
      </trkpt>
      <trkpt lat="45.77407" lon="6.53553">
        <ele>1598.8</ele>
        <time>2022-06-15T12:02:13Z</time>
      </trkpt>
      <trkpt lat="45.77415" lon="6.53552">
        <ele>1598.7</ele>
        <time>2022-06-15T12:02:14Z</time>
      </trkpt>
      <trkpt lat="45.77423" lon="6.53552">
        <ele>1598.6</ele>
        <time>2022-06-15T12:02:15Z</time>
      </trkpt>
      <trkpt lat="45.77431" lon="6.53552">
        <ele>1598.7</ele>
        <time>2022-06-15T12:02:16Z</time>
      </trkpt>
      <trkpt lat="45.77439" lon="6.53552">
        <ele>1598.6</ele>
        <time>2022-06-15T12:02:17Z</time>
      </trkpt>
      <trkpt lat="45.77447" lon="6.53552">
        <ele>1598.6</ele>
        <time>2022-06-15T12:02:18Z</time>
      </trkpt>
      <trkpt lat="45.77455" lon="6.53553">
        <ele>1598.6</ele>
        <time>2022-06-15T12:02:19Z</time>
      </trkpt>
      <trkpt lat="45.77464" lon="6.53553">
        <ele>1598.4</ele>
        <time>2022-06-15T12:02:20Z</time>
      </trkpt>
      <trkpt lat="45.77472" lon="6.53554">
        <ele>1598.4</ele>
        <time>2022-06-15T12:02:21Z</time>
      </trkpt>
      <trkpt lat="45.77481" lon="6.53555">
        <ele>1598.1</ele>
        <time>2022-06-15T12:02:22Z</time>
      </trkpt>
      <trkpt lat="45.7749" lon="6.53556">
        <ele>1597.7</ele>
        <time>2022-06-15T12:02:23Z</time>
      </trkpt>
      <trkpt lat="45.775" lon="6.53558">
        <ele>1597.5</ele>
        <time>2022-06-15T12:02:24Z</time>
      </trkpt>
      <trkpt lat="45.77509" lon="6.5356">
        <ele>1597</ele>
        <time>2022-06-15T12:02:25Z</time>
      </trkpt>
      <trkpt lat="45.77519" lon="6.53563">
        <ele>1596.7</ele>
        <time>2022-06-15T12:02:26Z</time>
      </trkpt>
      <trkpt lat="45.77528" lon="6.53566">
        <ele>1596.6</ele>
        <time>2022-06-15T12:02:27Z</time>
      </trkpt>
      <trkpt lat="45.77538" lon="6.5357">
        <ele>1595.8</ele>
        <time>2022-06-15T12:02:28Z</time>
      </trkpt>
      <trkpt lat="45.77547" lon="6.53575">
        <ele>1594.9</ele>
        <time>2022-06-15T12:02:29Z</time>
      </trkpt>
      <trkpt lat="45.77557" lon="6.5358">
        <ele>1594</ele>
        <time>2022-06-15T12:02:30Z</time>
      </trkpt>
      <trkpt lat="45.77567" lon="6.53585">
        <ele>1593.3</ele>
        <time>2022-06-15T12:02:31Z</time>
      </trkpt>
      <trkpt lat="45.77577" lon="6.53591">
        <ele>1592.6</ele>
        <time>2022-06-15T12:02:32Z</time>
      </trkpt>
      <trkpt lat="45.77588" lon="6.53599">
        <ele>1591.7</ele>
        <time>2022-06-15T12:02:33Z</time>
      </trkpt>
      <trkpt lat="45.77598" lon="6.53608">
        <ele>1590.6</ele>
        <time>2022-06-15T12:02:34Z</time>
      </trkpt>
      <trkpt lat="45.77608" lon="6.53618">
        <ele>1590.4</ele>
        <time>2022-06-15T12:02:35Z</time>
      </trkpt>
      <trkpt lat="45.77619" lon="6.53627">
        <ele>1589.2</ele>
        <time>2022-06-15T12:02:36Z</time>
      </trkpt>
      <trkpt lat="45.7763" lon="6.53637">
        <ele>1587.8</ele>
        <time>2022-06-15T12:02:37Z</time>
      </trkpt>
      <trkpt lat="45.77642" lon="6.53645">
        <ele>1586.2</ele>
        <time>2022-06-15T12:02:38Z</time>
      </trkpt>
      <trkpt lat="45.77655" lon="6.53651">
        <ele>1584.2</ele>
        <time>2022-06-15T12:02:39Z</time>
      </trkpt>
      <trkpt lat="45.77668" lon="6.53654">
        <ele>1581.7</ele>
        <time>2022-06-15T12:02:40Z</time>
      </trkpt>
      <trkpt lat="45.77681" lon="6.53658">
        <ele>1580.4</ele>
        <time>2022-06-15T12:02:41Z</time>
      </trkpt>
      <trkpt lat="45.77695" lon="6.53661">
        <ele>1579.2</ele>
        <time>2022-06-15T12:02:42Z</time>
      </trkpt>
      <trkpt lat="45.77709" lon="6.53665">
        <ele>1578.7</ele>
        <time>2022-06-15T12:02:43Z</time>
      </trkpt>
      <trkpt lat="45.77723" lon="6.53669">
        <ele>1578.4</ele>
        <time>2022-06-15T12:02:44Z</time>
      </trkpt>
      <trkpt lat="45.77736" lon="6.53674">
        <ele>1576.6</ele>
        <time>2022-06-15T12:02:45Z</time>
      </trkpt>
      <trkpt lat="45.7775" lon="6.53679">
        <ele>1574.9</ele>
        <time>2022-06-15T12:02:46Z</time>
      </trkpt>
      <trkpt lat="45.77764" lon="6.53684">
        <ele>1573.3</ele>
        <time>2022-06-15T12:02:47Z</time>
      </trkpt>
      <trkpt lat="45.77778" lon="6.5369">
        <ele>1571.7</ele>
        <time>2022-06-15T12:02:48Z</time>
      </trkpt>
      <trkpt lat="45.77792" lon="6.53698">
        <ele>1571.9</ele>
        <time>2022-06-15T12:02:49Z</time>
      </trkpt>
      <trkpt lat="45.77805" lon="6.53707">
        <ele>1571.9</ele>
        <time>2022-06-15T12:02:50Z</time>
      </trkpt>
      <trkpt lat="45.77818" lon="6.53716">
        <ele>1570</ele>
        <time>2022-06-15T12:02:51Z</time>
      </trkpt>
      <trkpt lat="45.77832" lon="6.53726">
        <ele>1569.2</ele>
        <time>2022-06-15T12:02:52Z</time>
      </trkpt>
      <trkpt lat="45.77845" lon="6.53736">
        <ele>1567</ele>
        <time>2022-06-15T12:02:53Z</time>
      </trkpt>
      <trkpt lat="45.77859" lon="6.53745">
        <ele>1565.2</ele>
        <time>2022-06-15T12:02:54Z</time>
      </trkpt>
      <trkpt lat="45.77873" lon="6.53755">
        <ele>1564.2</ele>
        <time>2022-06-15T12:02:55Z</time>
      </trkpt>
      <trkpt lat="45.77886" lon="6.53766">
        <ele>1562.9</ele>
        <time>2022-06-15T12:02:56Z</time>
      </trkpt>
      <trkpt lat="45.77899" lon="6.53779">
        <ele>1562.1</ele>
        <time>2022-06-15T12:02:57Z</time>
      </trkpt>
      <trkpt lat="45.77909" lon="6.53794">
        <ele>1561.7</ele>
        <time>2022-06-15T12:02:58Z</time>
      </trkpt>
      <trkpt lat="45.77919" lon="6.5381">
        <ele>1561.2</ele>
        <time>2022-06-15T12:02:59Z</time>
      </trkpt>
      <trkpt lat="45.7793" lon="6.53827">
        <ele>1560.9</ele>
        <time>2022-06-15T12:03:00Z</time>
      </trkpt>
      <trkpt lat="45.77939" lon="6.53845">
        <ele>1559.2</ele>
        <time>2022-06-15T12:03:01Z</time>
      </trkpt>
      <trkpt lat="45.77949" lon="6.53863">
        <ele>1557.2</ele>
        <time>2022-06-15T12:03:02Z</time>
      </trkpt>
      <trkpt lat="45.77958" lon="6.53882">
        <ele>1555.4</ele>
        <time>2022-06-15T12:03:03Z</time>
      </trkpt>
      <trkpt lat="45.77966" lon="6.53902">
        <ele>1553.7</ele>
        <time>2022-06-15T12:03:04Z</time>
      </trkpt>
      <trkpt lat="45.77975" lon="6.53922">
        <ele>1551.7</ele>
        <time>2022-06-15T12:03:05Z</time>
      </trkpt>
      <trkpt lat="45.77983" lon="6.53942">
        <ele>1550.4</ele>
        <time>2022-06-15T12:03:06Z</time>
      </trkpt>
      <trkpt lat="45.7799" lon="6.53963">
        <ele>1548.2</ele>
        <time>2022-06-15T12:03:07Z</time>
      </trkpt>
      <trkpt lat="45.77998" lon="6.53984">
        <ele>1546.3</ele>
        <time>2022-06-15T12:03:08Z</time>
      </trkpt>
      <trkpt lat="45.78005" lon="6.54004">
        <ele>1544.3</ele>
        <time>2022-06-15T12:03:09Z</time>
      </trkpt>
      <trkpt lat="45.78013" lon="6.54025">
        <ele>1542.7</ele>
        <time>2022-06-15T12:03:10Z</time>
      </trkpt>
      <trkpt lat="45.7802" lon="6.54045">
        <ele>1541.7</ele>
        <time>2022-06-15T12:03:11Z</time>
      </trkpt>
      <trkpt lat="45.78027" lon="6.54066">
        <ele>1540.7</ele>
        <time>2022-06-15T12:03:12Z</time>
      </trkpt>
      <trkpt lat="45.78033" lon="6.54088">
        <ele>1539.2</ele>
        <time>2022-06-15T12:03:13Z</time>
      </trkpt>
      <trkpt lat="45.78039" lon="6.54109">
        <ele>1537.9</ele>
        <time>2022-06-15T12:03:14Z</time>
      </trkpt>
      <trkpt lat="45.78045" lon="6.54132">
        <ele>1537.1</ele>
        <time>2022-06-15T12:03:15Z</time>
      </trkpt>
      <trkpt lat="45.7805" lon="6.54154">
        <ele>1535.4</ele>
        <time>2022-06-15T12:03:16Z</time>
      </trkpt>
      <trkpt lat="45.78055" lon="6.54177">
        <ele>1533.4</ele>
        <time>2022-06-15T12:03:17Z</time>
      </trkpt>
      <trkpt lat="45.78058" lon="6.542">
        <ele>1532.4</ele>
        <time>2022-06-15T12:03:18Z</time>
      </trkpt>
      <trkpt lat="45.78059" lon="6.54222">
        <ele>1532</ele>
        <time>2022-06-15T12:03:19Z</time>
      </trkpt>
      <trkpt lat="45.78057" lon="6.54243">
        <ele>1531.2</ele>
        <time>2022-06-15T12:03:20Z</time>
      </trkpt>
      <trkpt lat="45.78053" lon="6.54261">
        <ele>1530.9</ele>
        <time>2022-06-15T12:03:21Z</time>
      </trkpt>
      <trkpt lat="45.78049" lon="6.54277">
        <ele>1530.6</ele>
        <time>2022-06-15T12:03:22Z</time>
      </trkpt>
      <trkpt lat="45.78046" lon="6.54293">
        <ele>1526.8</ele>
        <time>2022-06-15T12:03:23Z</time>
      </trkpt>
      <trkpt lat="45.78046" lon="6.54308">
        <ele>1523.6</ele>
        <time>2022-06-15T12:03:24Z</time>
      </trkpt>
      <trkpt lat="45.78049" lon="6.54321">
        <ele>1526.1</ele>
        <time>2022-06-15T12:03:25Z</time>
      </trkpt>
      <trkpt lat="45.78055" lon="6.54333">
        <ele>1527.9</ele>
        <time>2022-06-15T12:03:26Z</time>
      </trkpt>
      <trkpt lat="45.78063" lon="6.54342">
        <ele>1528.5</ele>
        <time>2022-06-15T12:03:27Z</time>
      </trkpt>
      <trkpt lat="45.78071" lon="6.54348">
        <ele>1528.1</ele>
        <time>2022-06-15T12:03:28Z</time>
      </trkpt>
      <trkpt lat="45.78081" lon="6.54354">
        <ele>1527.1</ele>
        <time>2022-06-15T12:03:29Z</time>
      </trkpt>
      <trkpt lat="45.7809" lon="6.54359">
        <ele>1526.5</ele>
        <time>2022-06-15T12:03:30Z</time>
      </trkpt>
      <trkpt lat="45.781" lon="6.54364">
        <ele>1526.2</ele>
        <time>2022-06-15T12:03:31Z</time>
      </trkpt>
      <trkpt lat="45.7811" lon="6.5437">
        <ele>1525.5</ele>
        <time>2022-06-15T12:03:32Z</time>
      </trkpt>
      <trkpt lat="45.7812" lon="6.54376">
        <ele>1524</ele>
        <time>2022-06-15T12:03:33Z</time>
      </trkpt>
      <trkpt lat="45.7813" lon="6.54385">
        <ele>1523.2</ele>
        <time>2022-06-15T12:03:34Z</time>
      </trkpt>
      <trkpt lat="45.78139" lon="6.54395">
        <ele>1522.7</ele>
        <time>2022-06-15T12:03:35Z</time>
      </trkpt>
      <trkpt lat="45.78147" lon="6.54408">
        <ele>1521.2</ele>
        <time>2022-06-15T12:03:36Z</time>
      </trkpt>
      <trkpt lat="45.78155" lon="6.54422">
        <ele>1520.4</ele>
        <time>2022-06-15T12:03:37Z</time>
      </trkpt>
      <trkpt lat="45.7816" lon="6.54438">
        <ele>1520</ele>
        <time>2022-06-15T12:03:38Z</time>
      </trkpt>
      <trkpt lat="45.78163" lon="6.54455">
        <ele>1518.8</ele>
        <time>2022-06-15T12:03:39Z</time>
      </trkpt>
      <trkpt lat="45.78165" lon="6.54474">
        <ele>1516.9</ele>
        <time>2022-06-15T12:03:40Z</time>
      </trkpt>
      <trkpt lat="45.78165" lon="6.54493">
        <ele>1516</ele>
        <time>2022-06-15T12:03:41Z</time>
      </trkpt>
      <trkpt lat="45.78166" lon="6.54512">
        <ele>1515.4</ele>
        <time>2022-06-15T12:03:42Z</time>
      </trkpt>
      <trkpt lat="45.78167" lon="6.54532">
        <ele>1514.9</ele>
        <time>2022-06-15T12:03:43Z</time>
      </trkpt>
      <trkpt lat="45.78168" lon="6.54552">
        <ele>1514.3</ele>
        <time>2022-06-15T12:03:44Z</time>
      </trkpt>
      <trkpt lat="45.7817" lon="6.54572">
        <ele>1512.9</ele>
        <time>2022-06-15T12:03:45Z</time>
      </trkpt>
      <trkpt lat="45.78171" lon="6.54592">
        <ele>1511.1</ele>
        <time>2022-06-15T12:03:46Z</time>
      </trkpt>
      <trkpt lat="45.78173" lon="6.54612">
        <ele>1509.1</ele>
        <time>2022-06-15T12:03:47Z</time>
      </trkpt>
      <trkpt lat="45.78174" lon="6.54633">
        <ele>1507.6</ele>
        <time>2022-06-15T12:03:48Z</time>
      </trkpt>
      <trkpt lat="45.78173" lon="6.54654">
        <ele>1506.3</ele>
        <time>2022-06-15T12:03:49Z</time>
      </trkpt>
      <trkpt lat="45.78171" lon="6.54675">
        <ele>1505.1</ele>
        <time>2022-06-15T12:03:50Z</time>
      </trkpt>
      <trkpt lat="45.78168" lon="6.54696">
        <ele>1503.3</ele>
        <time>2022-06-15T12:03:51Z</time>
      </trkpt>
      <trkpt lat="45.78163" lon="6.54716">
        <ele>1502.7</ele>
        <time>2022-06-15T12:03:52Z</time>
      </trkpt>
      <trkpt lat="45.78158" lon="6.54736">
        <ele>1502.1</ele>
        <time>2022-06-15T12:03:53Z</time>
      </trkpt>
      <trkpt lat="45.78151" lon="6.54757">
        <ele>1501.3</ele>
        <time>2022-06-15T12:03:54Z</time>
      </trkpt>
      <trkpt lat="45.78144" lon="6.54777">
        <ele>1500.1</ele>
        <time>2022-06-15T12:03:55Z</time>
      </trkpt>
      <trkpt lat="45.78136" lon="6.54796">
        <ele>1498.3</ele>
        <time>2022-06-15T12:03:56Z</time>
      </trkpt>
      <trkpt lat="45.78127" lon="6.54813">
        <ele>1497.7</ele>
        <time>2022-06-15T12:03:57Z</time>
      </trkpt>
      <trkpt lat="45.78116" lon="6.54829">
        <ele>1495.6</ele>
        <time>2022-06-15T12:03:58Z</time>
      </trkpt>
      <trkpt lat="45.78105" lon="6.54844">
        <ele>1495.3</ele>
        <time>2022-06-15T12:03:59Z</time>
      </trkpt>
      <trkpt lat="45.78094" lon="6.54859">
        <ele>1495.3</ele>
        <time>2022-06-15T12:04:00Z</time>
      </trkpt>
      <trkpt lat="45.78084" lon="6.54873">
        <ele>1494</ele>
        <time>2022-06-15T12:04:01Z</time>
      </trkpt>
      <trkpt lat="45.78073" lon="6.54888">
        <ele>1493</ele>
        <time>2022-06-15T12:04:02Z</time>
      </trkpt>
      <trkpt lat="45.78063" lon="6.54902">
        <ele>1491.7</ele>
        <time>2022-06-15T12:04:03Z</time>
      </trkpt>
      <trkpt lat="45.78054" lon="6.54915">
        <ele>1490.3</ele>
        <time>2022-06-15T12:04:04Z</time>
      </trkpt>
      <trkpt lat="45.78044" lon="6.54927">
        <ele>1490.7</ele>
        <time>2022-06-15T12:04:05Z</time>
      </trkpt>
      <trkpt lat="45.78033" lon="6.54937">
        <ele>1489.9</ele>
        <time>2022-06-15T12:04:06Z</time>
      </trkpt>
      <trkpt lat="45.78023" lon="6.54948">
        <ele>1487</ele>
        <time>2022-06-15T12:04:07Z</time>
      </trkpt>
      <trkpt lat="45.78015" lon="6.54963">
        <ele>1483.4</ele>
        <time>2022-06-15T12:04:08Z</time>
      </trkpt>
      <trkpt lat="45.78009" lon="6.54979">
        <ele>1480</ele>
        <time>2022-06-15T12:04:09Z</time>
      </trkpt>
      <trkpt lat="45.78004" lon="6.54995">
        <ele>1478.3</ele>
        <time>2022-06-15T12:04:10Z</time>
      </trkpt>
      <trkpt lat="45.78002" lon="6.55011">
        <ele>1480.8</ele>
        <time>2022-06-15T12:04:11Z</time>
      </trkpt>
      <trkpt lat="45.78002" lon="6.55027">
        <ele>1484.1</ele>
        <time>2022-06-15T12:04:12Z</time>
      </trkpt>
      <trkpt lat="45.78005" lon="6.55042">
        <ele>1485.2</ele>
        <time>2022-06-15T12:04:13Z</time>
      </trkpt>
      <trkpt lat="45.78009" lon="6.55056">
        <ele>1485.8</ele>
        <time>2022-06-15T12:04:14Z</time>
      </trkpt>
      <trkpt lat="45.78014" lon="6.55071">
        <ele>1486.2</ele>
        <time>2022-06-15T12:04:15Z</time>
      </trkpt>
      <trkpt lat="45.78018" lon="6.55086">
        <ele>1486.5</ele>
        <time>2022-06-15T12:04:16Z</time>
      </trkpt>
      <trkpt lat="45.78019" lon="6.55101">
        <ele>1486</ele>
        <time>2022-06-15T12:04:17Z</time>
      </trkpt>
      <trkpt lat="45.78018" lon="6.55117">
        <ele>1486</ele>
        <time>2022-06-15T12:04:18Z</time>
      </trkpt>
      <trkpt lat="45.78016" lon="6.55132">
        <ele>1485.8</ele>
        <time>2022-06-15T12:04:19Z</time>
      </trkpt>
      <trkpt lat="45.78013" lon="6.55147">
        <ele>1485.2</ele>
        <time>2022-06-15T12:04:20Z</time>
      </trkpt>
      <trkpt lat="45.7801" lon="6.55162">
        <ele>1484.4</ele>
        <time>2022-06-15T12:04:21Z</time>
      </trkpt>
      <trkpt lat="45.78006" lon="6.55177">
        <ele>1483.9</ele>
        <time>2022-06-15T12:04:22Z</time>
      </trkpt>
      <trkpt lat="45.78003" lon="6.55192">
        <ele>1483.1</ele>
        <time>2022-06-15T12:04:23Z</time>
      </trkpt>
      <trkpt lat="45.77999" lon="6.55208">
        <ele>1483.1</ele>
        <time>2022-06-15T12:04:24Z</time>
      </trkpt>
      <trkpt lat="45.77996" lon="6.55223">
        <ele>1483.6</ele>
        <time>2022-06-15T12:04:25Z</time>
      </trkpt>
      <trkpt lat="45.77992" lon="6.55238">
        <ele>1483.4</ele>
        <time>2022-06-15T12:04:26Z</time>
      </trkpt>
      <trkpt lat="45.77989" lon="6.55253">
        <ele>1482.4</ele>
        <time>2022-06-15T12:04:27Z</time>
      </trkpt>
      <trkpt lat="45.77985" lon="6.55269">
        <ele>1481</ele>
        <time>2022-06-15T12:04:28Z</time>
      </trkpt>
      <trkpt lat="45.77983" lon="6.55285">
        <ele>1479.5</ele>
        <time>2022-06-15T12:04:29Z</time>
      </trkpt>
      <trkpt lat="45.77982" lon="6.55302">
        <ele>1478</ele>
        <time>2022-06-15T12:04:30Z</time>
      </trkpt>
      <trkpt lat="45.77983" lon="6.5532">
        <ele>1477.3</ele>
        <time>2022-06-15T12:04:31Z</time>
      </trkpt>
      <trkpt lat="45.77984" lon="6.55337">
        <ele>1476.6</ele>
        <time>2022-06-15T12:04:32Z</time>
      </trkpt>
      <trkpt lat="45.77986" lon="6.55355">
        <ele>1475.7</ele>
        <time>2022-06-15T12:04:33Z</time>
      </trkpt>
      <trkpt lat="45.77987" lon="6.55374">
        <ele>1474.7</ele>
        <time>2022-06-15T12:04:34Z</time>
      </trkpt>
      <trkpt lat="45.77985" lon="6.55392">
        <ele>1473.7</ele>
        <time>2022-06-15T12:04:35Z</time>
      </trkpt>
      <trkpt lat="45.77983" lon="6.55411">
        <ele>1471.5</ele>
        <time>2022-06-15T12:04:36Z</time>
      </trkpt>
      <trkpt lat="45.77981" lon="6.55431">
        <ele>1469.3</ele>
        <time>2022-06-15T12:04:37Z</time>
      </trkpt>
      <trkpt lat="45.77978" lon="6.55451">
        <ele>1467.6</ele>
        <time>2022-06-15T12:04:38Z</time>
      </trkpt>
      <trkpt lat="45.77976" lon="6.55471">
        <ele>1467.4</ele>
        <time>2022-06-15T12:04:39Z</time>
      </trkpt>
      <trkpt lat="45.77974" lon="6.55491">
        <ele>1465.8</ele>
        <time>2022-06-15T12:04:40Z</time>
      </trkpt>
      <trkpt lat="45.77972" lon="6.55512">
        <ele>1464.4</ele>
        <time>2022-06-15T12:04:41Z</time>
      </trkpt>
      <trkpt lat="45.77968" lon="6.55532">
        <ele>1463.3</ele>
        <time>2022-06-15T12:04:42Z</time>
      </trkpt>
      <trkpt lat="45.77964" lon="6.55551">
        <ele>1461.3</ele>
        <time>2022-06-15T12:04:43Z</time>
      </trkpt>
      <trkpt lat="45.77956" lon="6.55569">
        <ele>1459.6</ele>
        <time>2022-06-15T12:04:44Z</time>
      </trkpt>
      <trkpt lat="45.77948" lon="6.55586">
        <ele>1458.3</ele>
        <time>2022-06-15T12:04:45Z</time>
      </trkpt>
      <trkpt lat="45.77939" lon="6.55603">
        <ele>1456.3</ele>
        <time>2022-06-15T12:04:46Z</time>
      </trkpt>
      <trkpt lat="45.7793" lon="6.55621">
        <ele>1455</ele>
        <time>2022-06-15T12:04:47Z</time>
      </trkpt>
      <trkpt lat="45.77921" lon="6.5564">
        <ele>1454.6</ele>
        <time>2022-06-15T12:04:48Z</time>
      </trkpt>
      <trkpt lat="45.77912" lon="6.55658">
        <ele>1453.6</ele>
        <time>2022-06-15T12:04:49Z</time>
      </trkpt>
      <trkpt lat="45.77903" lon="6.55677">
        <ele>1451.6</ele>
        <time>2022-06-15T12:04:50Z</time>
      </trkpt>
      <trkpt lat="45.77893" lon="6.55696">
        <ele>1449</ele>
        <time>2022-06-15T12:04:51Z</time>
      </trkpt>
      <trkpt lat="45.77883" lon="6.55715">
        <ele>1447.7</ele>
        <time>2022-06-15T12:04:52Z</time>
      </trkpt>
      <trkpt lat="45.77873" lon="6.55734">
        <ele>1446.1</ele>
        <time>2022-06-15T12:04:53Z</time>
      </trkpt>
      <trkpt lat="45.77865" lon="6.55754">
        <ele>1444.4</ele>
        <time>2022-06-15T12:04:54Z</time>
      </trkpt>
      <trkpt lat="45.77858" lon="6.55775">
        <ele>1442.8</ele>
        <time>2022-06-15T12:04:55Z</time>
      </trkpt>
      <trkpt lat="45.77853" lon="6.55796">
        <ele>1441.2</ele>
        <time>2022-06-15T12:04:56Z</time>
      </trkpt>
      <trkpt lat="45.77848" lon="6.55818">
        <ele>1439.7</ele>
        <time>2022-06-15T12:04:57Z</time>
      </trkpt>
      <trkpt lat="45.77843" lon="6.5584">
        <ele>1438.1</ele>
        <time>2022-06-15T12:04:58Z</time>
      </trkpt>
      <trkpt lat="45.77838" lon="6.55861">
        <ele>1437</ele>
        <time>2022-06-15T12:04:59Z</time>
      </trkpt>
      <trkpt lat="45.77832" lon="6.5588">
        <ele>1435.8</ele>
        <time>2022-06-15T12:05:00Z</time>
      </trkpt>
      <trkpt lat="45.77825" lon="6.55896">
        <ele>1435.4</ele>
        <time>2022-06-15T12:05:01Z</time>
      </trkpt>
      <trkpt lat="45.77819" lon="6.5591">
        <ele>1434.5</ele>
        <time>2022-06-15T12:05:02Z</time>
      </trkpt>
      <trkpt lat="45.77815" lon="6.55923">
        <ele>1433.3</ele>
        <time>2022-06-15T12:05:03Z</time>
      </trkpt>
      <trkpt lat="45.77814" lon="6.55936">
        <ele>1432</ele>
        <time>2022-06-15T12:05:04Z</time>
      </trkpt>
      <trkpt lat="45.77818" lon="6.55949">
        <ele>1430.7</ele>
        <time>2022-06-15T12:05:05Z</time>
      </trkpt>
      <trkpt lat="45.77823" lon="6.5596">
        <ele>1430.1</ele>
        <time>2022-06-15T12:05:06Z</time>
      </trkpt>
      <trkpt lat="45.77831" lon="6.55969">
        <ele>1429.3</ele>
        <time>2022-06-15T12:05:07Z</time>
      </trkpt>
      <trkpt lat="45.77838" lon="6.55976">
        <ele>1429.4</ele>
        <time>2022-06-15T12:05:08Z</time>
      </trkpt>
      <trkpt lat="45.77846" lon="6.55983">
        <ele>1430</ele>
        <time>2022-06-15T12:05:09Z</time>
      </trkpt>
      <trkpt lat="45.77855" lon="6.55988">
        <ele>1430.5</ele>
        <time>2022-06-15T12:05:10Z</time>
      </trkpt>
      <trkpt lat="45.77864" lon="6.55992">
        <ele>1430.8</ele>
        <time>2022-06-15T12:05:11Z</time>
      </trkpt>
      <trkpt lat="45.77873" lon="6.55993">
        <ele>1431.2</ele>
        <time>2022-06-15T12:05:12Z</time>
      </trkpt>
      <trkpt lat="45.77882" lon="6.55993">
        <ele>1431.5</ele>
        <time>2022-06-15T12:05:13Z</time>
      </trkpt>
      <trkpt lat="45.77891" lon="6.5599">
        <ele>1432</ele>
        <time>2022-06-15T12:05:14Z</time>
      </trkpt>
      <trkpt lat="45.779" lon="6.55986">
        <ele>1433</ele>
        <time>2022-06-15T12:05:15Z</time>
      </trkpt>
      <trkpt lat="45.77909" lon="6.55982">
        <ele>1433.2</ele>
        <time>2022-06-15T12:05:16Z</time>
      </trkpt>
      <trkpt lat="45.77918" lon="6.55978">
        <ele>1432.8</ele>
        <time>2022-06-15T12:05:17Z</time>
      </trkpt>
      <trkpt lat="45.77927" lon="6.55974">
        <ele>1433</ele>
        <time>2022-06-15T12:05:18Z</time>
      </trkpt>
      <trkpt lat="45.77936" lon="6.55969">
        <ele>1433.3</ele>
        <time>2022-06-15T12:05:19Z</time>
      </trkpt>
      <trkpt lat="45.77944" lon="6.55964">
        <ele>1433.2</ele>
        <time>2022-06-15T12:05:20Z</time>
      </trkpt>
      <trkpt lat="45.77952" lon="6.55958">
        <ele>1433.5</ele>
        <time>2022-06-15T12:05:21Z</time>
      </trkpt>
      <trkpt lat="45.77959" lon="6.55951">
        <ele>1433.6</ele>
        <time>2022-06-15T12:05:22Z</time>
      </trkpt>
      <trkpt lat="45.77966" lon="6.55944">
        <ele>1433.5</ele>
        <time>2022-06-15T12:05:23Z</time>
      </trkpt>
      <trkpt lat="45.77973" lon="6.55936">
        <ele>1433.2</ele>
        <time>2022-06-15T12:05:24Z</time>
      </trkpt>
      <trkpt lat="45.77979" lon="6.55928">
        <ele>1432.9</ele>
        <time>2022-06-15T12:05:25Z</time>
      </trkpt>
      <trkpt lat="45.77986" lon="6.5592">
        <ele>1432.7</ele>
        <time>2022-06-15T12:05:26Z</time>
      </trkpt>
      <trkpt lat="45.77992" lon="6.55912">
        <ele>1432.7</ele>
        <time>2022-06-15T12:05:27Z</time>
      </trkpt>
      <trkpt lat="45.77998" lon="6.55904">
        <ele>1432.8</ele>
        <time>2022-06-15T12:05:28Z</time>
      </trkpt>
      <trkpt lat="45.78004" lon="6.55896">
        <ele>1432.6</ele>
        <time>2022-06-15T12:05:29Z</time>
      </trkpt>
      <trkpt lat="45.7801" lon="6.55887">
        <ele>1432.2</ele>
        <time>2022-06-15T12:05:30Z</time>
      </trkpt>
      <trkpt lat="45.78015" lon="6.55878">
        <ele>1432.4</ele>
        <time>2022-06-15T12:05:31Z</time>
      </trkpt>
      <trkpt lat="45.78021" lon="6.55868">
        <ele>1432.5</ele>
        <time>2022-06-15T12:05:32Z</time>
      </trkpt>
      <trkpt lat="45.78025" lon="6.55859">
        <ele>1432.6</ele>
        <time>2022-06-15T12:05:33Z</time>
      </trkpt>
      <trkpt lat="45.7803" lon="6.5585">
        <ele>1433</ele>
        <time>2022-06-15T12:05:34Z</time>
      </trkpt>
      <trkpt lat="45.78035" lon="6.55841">
        <ele>1433.6</ele>
        <time>2022-06-15T12:05:35Z</time>
      </trkpt>
      <trkpt lat="45.78041" lon="6.55832">
        <ele>1434.2</ele>
        <time>2022-06-15T12:05:36Z</time>
      </trkpt>
      <trkpt lat="45.78046" lon="6.55825">
        <ele>1434.6</ele>
        <time>2022-06-15T12:05:37Z</time>
      </trkpt>
      <trkpt lat="45.78052" lon="6.55818">
        <ele>1434.8</ele>
        <time>2022-06-15T12:05:38Z</time>
      </trkpt>
      <trkpt lat="45.78058" lon="6.55812">
        <ele>1435</ele>
        <time>2022-06-15T12:05:39Z</time>
      </trkpt>
      <trkpt lat="45.78064" lon="6.55806">
        <ele>1435.2</ele>
        <time>2022-06-15T12:05:40Z</time>
      </trkpt>
      <trkpt lat="45.7807" lon="6.55801">
        <ele>1435.6</ele>
        <time>2022-06-15T12:05:41Z</time>
      </trkpt>
      <trkpt lat="45.78076" lon="6.55797">
        <ele>1435.9</ele>
        <time>2022-06-15T12:05:42Z</time>
      </trkpt>
      <trkpt lat="45.78082" lon="6.55793">
        <ele>1436</ele>
        <time>2022-06-15T12:05:43Z</time>
      </trkpt>
      <trkpt lat="45.78088" lon="6.55789">
        <ele>1436</ele>
        <time>2022-06-15T12:05:44Z</time>
      </trkpt>
      <trkpt lat="45.78094" lon="6.55786">
        <ele>1436</ele>
        <time>2022-06-15T12:05:45Z</time>
      </trkpt>
      <trkpt lat="45.781" lon="6.55783">
        <ele>1435.9</ele>
        <time>2022-06-15T12:05:46Z</time>
      </trkpt>
      <trkpt lat="45.78105" lon="6.55779">
        <ele>1435.7</ele>
        <time>2022-06-15T12:05:47Z</time>
      </trkpt>
      <trkpt lat="45.78111" lon="6.55774">
        <ele>1435.6</ele>
        <time>2022-06-15T12:05:48Z</time>
      </trkpt>
      <trkpt lat="45.78116" lon="6.5577">
        <ele>1436.2</ele>
        <time>2022-06-15T12:05:49Z</time>
      </trkpt>
      <trkpt lat="45.78121" lon="6.55765">
        <ele>1436.8</ele>
        <time>2022-06-15T12:05:50Z</time>
      </trkpt>
      <trkpt lat="45.78125" lon="6.55759">
        <ele>1437.1</ele>
        <time>2022-06-15T12:05:51Z</time>
      </trkpt>
      <trkpt lat="45.78129" lon="6.55752">
        <ele>1437.1</ele>
        <time>2022-06-15T12:05:52Z</time>
      </trkpt>
      <trkpt lat="45.78132" lon="6.55743">
        <ele>1437.2</ele>
        <time>2022-06-15T12:05:53Z</time>
      </trkpt>
      <trkpt lat="45.78135" lon="6.55735">
        <ele>1437.5</ele>
        <time>2022-06-15T12:05:54Z</time>
      </trkpt>
      <trkpt lat="45.78138" lon="6.55727">
        <ele>1437.9</ele>
        <time>2022-06-15T12:05:55Z</time>
      </trkpt>
      <trkpt lat="45.7814" lon="6.55719">
        <ele>1438</ele>
        <time>2022-06-15T12:05:56Z</time>
      </trkpt>
      <trkpt lat="45.78143" lon="6.55711">
        <ele>1438.4</ele>
        <time>2022-06-15T12:05:57Z</time>
      </trkpt>
      <trkpt lat="45.78146" lon="6.55703">
        <ele>1438.8</ele>
        <time>2022-06-15T12:05:58Z</time>
      </trkpt>
      <trkpt lat="45.78149" lon="6.55696">
        <ele>1439.3</ele>
        <time>2022-06-15T12:05:59Z</time>
      </trkpt>
      <trkpt lat="45.78152" lon="6.55689">
        <ele>1439.5</ele>
        <time>2022-06-15T12:06:00Z</time>
      </trkpt>
      <trkpt lat="45.78155" lon="6.55682">
        <ele>1439.6</ele>
        <time>2022-06-15T12:06:01Z</time>
      </trkpt>
      <trkpt lat="45.78158" lon="6.55675">
        <ele>1439.7</ele>
        <time>2022-06-15T12:06:02Z</time>
      </trkpt>
      <trkpt lat="45.7816" lon="6.55669">
        <ele>1440</ele>
        <time>2022-06-15T12:06:03Z</time>
      </trkpt>
      <trkpt lat="45.78164" lon="6.55663">
        <ele>1440.2</ele>
        <time>2022-06-15T12:06:04Z</time>
      </trkpt>
      <trkpt lat="45.78167" lon="6.55657">
        <ele>1440.2</ele>
        <time>2022-06-15T12:06:05Z</time>
      </trkpt>
      <trkpt lat="45.7817" lon="6.55652">
        <ele>1440.6</ele>
        <time>2022-06-15T12:06:06Z</time>
      </trkpt>
      <trkpt lat="45.78173" lon="6.55646">
        <ele>1440.9</ele>
        <time>2022-06-15T12:06:07Z</time>
      </trkpt>
      <trkpt lat="45.78177" lon="6.55641">
        <ele>1441.3</ele>
        <time>2022-06-15T12:06:08Z</time>
      </trkpt>
      <trkpt lat="45.7818" lon="6.55636">
        <ele>1441.5</ele>
        <time>2022-06-15T12:06:09Z</time>
      </trkpt>
      <trkpt lat="45.78183" lon="6.55631">
        <ele>1441.7</ele>
        <time>2022-06-15T12:06:10Z</time>
      </trkpt>
      <trkpt lat="45.78186" lon="6.55625">
        <ele>1441.6</ele>
        <time>2022-06-15T12:06:11Z</time>
      </trkpt>
      <trkpt lat="45.78189" lon="6.5562">
        <ele>1441.4</ele>
        <time>2022-06-15T12:06:12Z</time>
      </trkpt>
      <trkpt lat="45.78192" lon="6.55615">
        <ele>1441.1</ele>
        <time>2022-06-15T12:06:13Z</time>
      </trkpt>
      <trkpt lat="45.78195" lon="6.55609">
        <ele>1440.8</ele>
        <time>2022-06-15T12:06:14Z</time>
      </trkpt>
      <trkpt lat="45.78197" lon="6.55603">
        <ele>1441.3</ele>
        <time>2022-06-15T12:06:15Z</time>
      </trkpt>
      <trkpt lat="45.782" lon="6.55597">
        <ele>1441.6</ele>
        <time>2022-06-15T12:06:16Z</time>
      </trkpt>
      <trkpt lat="45.78202" lon="6.55591">
        <ele>1442</ele>
        <time>2022-06-15T12:06:17Z</time>
      </trkpt>
      <trkpt lat="45.78204" lon="6.55586">
        <ele>1442.2</ele>
        <time>2022-06-15T12:06:18Z</time>
      </trkpt>
      <trkpt lat="45.78207" lon="6.5558">
        <ele>1442.4</ele>
        <time>2022-06-15T12:06:19Z</time>
      </trkpt>
      <trkpt lat="45.78208" lon="6.55574">
        <ele>1442.4</ele>
        <time>2022-06-15T12:06:20Z</time>
      </trkpt>
      <trkpt lat="45.7821" lon="6.55568">
        <ele>1442.3</ele>
        <time>2022-06-15T12:06:21Z</time>
      </trkpt>
      <trkpt lat="45.78212" lon="6.55562">
        <ele>1442.3</ele>
        <time>2022-06-15T12:06:22Z</time>
      </trkpt>
      <trkpt lat="45.78214" lon="6.55556">
        <ele>1442.2</ele>
        <time>2022-06-15T12:06:23Z</time>
      </trkpt>
      <trkpt lat="45.78216" lon="6.5555">
        <ele>1442.3</ele>
        <time>2022-06-15T12:06:24Z</time>
      </trkpt>
      <trkpt lat="45.78218" lon="6.55545">
        <ele>1442.3</ele>
        <time>2022-06-15T12:06:25Z</time>
      </trkpt>
      <trkpt lat="45.7822" lon="6.55539">
        <ele>1442.3</ele>
        <time>2022-06-15T12:06:26Z</time>
      </trkpt>
      <trkpt lat="45.78222" lon="6.55533">
        <ele>1442.4</ele>
        <time>2022-06-15T12:06:27Z</time>
      </trkpt>
      <trkpt lat="45.78224" lon="6.55528">
        <ele>1442.6</ele>
        <time>2022-06-15T12:06:28Z</time>
      </trkpt>
      <trkpt lat="45.78226" lon="6.55522">
        <ele>1442.9</ele>
        <time>2022-06-15T12:06:29Z</time>
      </trkpt>
      <trkpt lat="45.78228" lon="6.55516">
        <ele>1443.3</ele>
        <time>2022-06-15T12:06:30Z</time>
      </trkpt>
      <trkpt lat="45.7823" lon="6.5551">
        <ele>1443.7</ele>
        <time>2022-06-15T12:06:31Z</time>
      </trkpt>
      <trkpt lat="45.78232" lon="6.55505">
        <ele>1444</ele>
        <time>2022-06-15T12:06:32Z</time>
      </trkpt>
      <trkpt lat="45.78234" lon="6.55499">
        <ele>1444.2</ele>
        <time>2022-06-15T12:06:33Z</time>
      </trkpt>
      <trkpt lat="45.78236" lon="6.55493">
        <ele>1444.2</ele>
        <time>2022-06-15T12:06:34Z</time>
      </trkpt>
      <trkpt lat="45.78239" lon="6.55487">
        <ele>1444.2</ele>
        <time>2022-06-15T12:06:35Z</time>
      </trkpt>
      <trkpt lat="45.78241" lon="6.55481">
        <ele>1444.2</ele>
        <time>2022-06-15T12:06:36Z</time>
      </trkpt>
      <trkpt lat="45.78243" lon="6.55476">
        <ele>1444.2</ele>
        <time>2022-06-15T12:06:37Z</time>
      </trkpt>
      <trkpt lat="45.78246" lon="6.5547">
        <ele>1444.4</ele>
        <time>2022-06-15T12:06:38Z</time>
      </trkpt>
      <trkpt lat="45.78248" lon="6.55465">
        <ele>1444.6</ele>
        <time>2022-06-15T12:06:39Z</time>
      </trkpt>
      <trkpt lat="45.7825" lon="6.55459">
        <ele>1444.7</ele>
        <time>2022-06-15T12:06:40Z</time>
      </trkpt>
      <trkpt lat="45.78253" lon="6.55454">
        <ele>1444.8</ele>
        <time>2022-06-15T12:06:41Z</time>
      </trkpt>
      <trkpt lat="45.78255" lon="6.55448">
        <ele>1444.9</ele>
        <time>2022-06-15T12:06:42Z</time>
      </trkpt>
      <trkpt lat="45.78258" lon="6.55443">
        <ele>1445.2</ele>
        <time>2022-06-15T12:06:43Z</time>
      </trkpt>
      <trkpt lat="45.7826" lon="6.55437">
        <ele>1445.3</ele>
        <time>2022-06-15T12:06:44Z</time>
      </trkpt>
      <trkpt lat="45.78263" lon="6.55432">
        <ele>1445.5</ele>
        <time>2022-06-15T12:06:45Z</time>
      </trkpt>
      <trkpt lat="45.78266" lon="6.55427">
        <ele>1445.5</ele>
        <time>2022-06-15T12:06:46Z</time>
      </trkpt>
      <trkpt lat="45.78268" lon="6.55422">
        <ele>1445.4</ele>
        <time>2022-06-15T12:06:47Z</time>
      </trkpt>
      <trkpt lat="45.78271" lon="6.55417">
        <ele>1445.3</ele>
        <time>2022-06-15T12:06:48Z</time>
      </trkpt>
      <trkpt lat="45.78274" lon="6.55412">
        <ele>1445.5</ele>
        <time>2022-06-15T12:06:49Z</time>
      </trkpt>
      <trkpt lat="45.78277" lon="6.55408">
        <ele>1445.8</ele>
        <time>2022-06-15T12:06:50Z</time>
      </trkpt>
      <trkpt lat="45.7828" lon="6.55403">
        <ele>1446.3</ele>
        <time>2022-06-15T12:06:51Z</time>
      </trkpt>
      <trkpt lat="45.78283" lon="6.55399">
        <ele>1446.9</ele>
        <time>2022-06-15T12:06:52Z</time>
      </trkpt>
      <trkpt lat="45.78286" lon="6.55394">
        <ele>1447.2</ele>
        <time>2022-06-15T12:06:53Z</time>
      </trkpt>
      <trkpt lat="45.78289" lon="6.5539">
        <ele>1447.3</ele>
        <time>2022-06-15T12:06:54Z</time>
      </trkpt>
      <trkpt lat="45.78292" lon="6.55385">
        <ele>1447.5</ele>
        <time>2022-06-15T12:06:55Z</time>
      </trkpt>
      <trkpt lat="45.78295" lon="6.55381">
        <ele>1447.7</ele>
        <time>2022-06-15T12:06:56Z</time>
      </trkpt>
      <trkpt lat="45.78298" lon="6.55376">
        <ele>1447.8</ele>
        <time>2022-06-15T12:06:57Z</time>
      </trkpt>
      <trkpt lat="45.78302" lon="6.55372">
        <ele>1447.9</ele>
        <time>2022-06-15T12:06:58Z</time>
      </trkpt>
      <trkpt lat="45.78305" lon="6.55367">
        <ele>1447.8</ele>
        <time>2022-06-15T12:06:59Z</time>
      </trkpt>
      <trkpt lat="45.78308" lon="6.55363">
        <ele>1448.2</ele>
        <time>2022-06-15T12:07:00Z</time>
      </trkpt>
      <trkpt lat="45.78311" lon="6.55358">
        <ele>1448.5</ele>
        <time>2022-06-15T12:07:01Z</time>
      </trkpt>
      <trkpt lat="45.78314" lon="6.55353">
        <ele>1448.7</ele>
        <time>2022-06-15T12:07:02Z</time>
      </trkpt>
      <trkpt lat="45.78317" lon="6.55349">
        <ele>1448.8</ele>
        <time>2022-06-15T12:07:03Z</time>
      </trkpt>
      <trkpt lat="45.78319" lon="6.55344">
        <ele>1448.7</ele>
        <time>2022-06-15T12:07:04Z</time>
      </trkpt>
      <trkpt lat="45.78322" lon="6.55339">
        <ele>1448.4</ele>
        <time>2022-06-15T12:07:05Z</time>
      </trkpt>
      <trkpt lat="45.78325" lon="6.55334">
        <ele>1448</ele>
        <time>2022-06-15T12:07:06Z</time>
      </trkpt>
      <trkpt lat="45.78328" lon="6.55329">
        <ele>1448</ele>
        <time>2022-06-15T12:07:07Z</time>
      </trkpt>
      <trkpt lat="45.7833" lon="6.55325">
        <ele>1448</ele>
        <time>2022-06-15T12:07:08Z</time>
      </trkpt>
      <trkpt lat="45.78333" lon="6.5532">
        <ele>1447.9</ele>
        <time>2022-06-15T12:07:09Z</time>
      </trkpt>
      <trkpt lat="45.78335" lon="6.55315">
        <ele>1448.2</ele>
        <time>2022-06-15T12:07:10Z</time>
      </trkpt>
      <trkpt lat="45.78338" lon="6.5531">
        <ele>1448.5</ele>
        <time>2022-06-15T12:07:11Z</time>
      </trkpt>
      <trkpt lat="45.7834" lon="6.55305">
        <ele>1448.6</ele>
        <time>2022-06-15T12:07:12Z</time>
      </trkpt>
      <trkpt lat="45.78343" lon="6.553">
        <ele>1448.9</ele>
        <time>2022-06-15T12:07:13Z</time>
      </trkpt>
      <trkpt lat="45.78345" lon="6.55295">
        <ele>1449.1</ele>
        <time>2022-06-15T12:07:14Z</time>
      </trkpt>
      <trkpt lat="45.78348" lon="6.55291">
        <ele>1449.2</ele>
        <time>2022-06-15T12:07:15Z</time>
      </trkpt>
      <trkpt lat="45.78351" lon="6.55286">
        <ele>1449.3</ele>
        <time>2022-06-15T12:07:16Z</time>
      </trkpt>
      <trkpt lat="45.78353" lon="6.55281">
        <ele>1449.2</ele>
        <time>2022-06-15T12:07:17Z</time>
      </trkpt>
      <trkpt lat="45.78356" lon="6.55275">
        <ele>1449.2</ele>
        <time>2022-06-15T12:07:18Z</time>
      </trkpt>
      <trkpt lat="45.78359" lon="6.5527">
        <ele>1449.3</ele>
        <time>2022-06-15T12:07:19Z</time>
      </trkpt>
      <trkpt lat="45.78362" lon="6.55265">
        <ele>1449.4</ele>
        <time>2022-06-15T12:07:20Z</time>
      </trkpt>
      <trkpt lat="45.78365" lon="6.55261">
        <ele>1449.7</ele>
        <time>2022-06-15T12:07:21Z</time>
      </trkpt>
      <trkpt lat="45.78367" lon="6.55256">
        <ele>1449.8</ele>
        <time>2022-06-15T12:07:22Z</time>
      </trkpt>
      <trkpt lat="45.7837" lon="6.55251">
        <ele>1450</ele>
        <time>2022-06-15T12:07:23Z</time>
      </trkpt>
      <trkpt lat="45.78373" lon="6.55246">
        <ele>1450</ele>
        <time>2022-06-15T12:07:24Z</time>
      </trkpt>
      <trkpt lat="45.78376" lon="6.55241">
        <ele>1449.9</ele>
        <time>2022-06-15T12:07:25Z</time>
      </trkpt>
      <trkpt lat="45.78379" lon="6.55237">
        <ele>1450.1</ele>
        <time>2022-06-15T12:07:26Z</time>
      </trkpt>
      <trkpt lat="45.78382" lon="6.55232">
        <ele>1450.3</ele>
        <time>2022-06-15T12:07:27Z</time>
      </trkpt>
      <trkpt lat="45.78385" lon="6.55228">
        <ele>1450.5</ele>
        <time>2022-06-15T12:07:28Z</time>
      </trkpt>
      <trkpt lat="45.78388" lon="6.55223">
        <ele>1450.8</ele>
        <time>2022-06-15T12:07:29Z</time>
      </trkpt>
      <trkpt lat="45.78391" lon="6.55219">
        <ele>1450.9</ele>
        <time>2022-06-15T12:07:30Z</time>
      </trkpt>
      <trkpt lat="45.78393" lon="6.55214">
        <ele>1451</ele>
        <time>2022-06-15T12:07:31Z</time>
      </trkpt>
      <trkpt lat="45.78396" lon="6.5521">
        <ele>1451.2</ele>
        <time>2022-06-15T12:07:32Z</time>
      </trkpt>
      <trkpt lat="45.78399" lon="6.55205">
        <ele>1451.2</ele>
        <time>2022-06-15T12:07:33Z</time>
      </trkpt>
      <trkpt lat="45.78402" lon="6.55201">
        <ele>1451.2</ele>
        <time>2022-06-15T12:07:34Z</time>
      </trkpt>
      <trkpt lat="45.78405" lon="6.55197">
        <ele>1451.2</ele>
        <time>2022-06-15T12:07:35Z</time>
      </trkpt>
      <trkpt lat="45.78409" lon="6.55193">
        <ele>1451.2</ele>
        <time>2022-06-15T12:07:36Z</time>
      </trkpt>
      <trkpt lat="45.78412" lon="6.55189">
        <ele>1451.4</ele>
        <time>2022-06-15T12:07:37Z</time>
      </trkpt>
      <trkpt lat="45.78416" lon="6.55185">
        <ele>1451.8</ele>
        <time>2022-06-15T12:07:38Z</time>
      </trkpt>
      <trkpt lat="45.78419" lon="6.55181">
        <ele>1452.3</ele>
        <time>2022-06-15T12:07:39Z</time>
      </trkpt>
      <trkpt lat="45.78423" lon="6.55177">
        <ele>1452.7</ele>
        <time>2022-06-15T12:07:40Z</time>
      </trkpt>
      <trkpt lat="45.78427" lon="6.55173">
        <ele>1452.9</ele>
        <time>2022-06-15T12:07:41Z</time>
      </trkpt>
      <trkpt lat="45.7843" lon="6.5517">
        <ele>1453.1</ele>
        <time>2022-06-15T12:07:42Z</time>
      </trkpt>
      <trkpt lat="45.78434" lon="6.55166">
        <ele>1453.1</ele>
        <time>2022-06-15T12:07:43Z</time>
      </trkpt>
      <trkpt lat="45.78437" lon="6.55162">
        <ele>1453.2</ele>
        <time>2022-06-15T12:07:44Z</time>
      </trkpt>
      <trkpt lat="45.7844" lon="6.55158">
        <ele>1453.4</ele>
        <time>2022-06-15T12:07:45Z</time>
      </trkpt>
      <trkpt lat="45.78443" lon="6.55155">
        <ele>1453.7</ele>
        <time>2022-06-15T12:07:46Z</time>
      </trkpt>
      <trkpt lat="45.78446" lon="6.55151">
        <ele>1454.3</ele>
        <time>2022-06-15T12:07:47Z</time>
      </trkpt>
      <trkpt lat="45.78449" lon="6.55147">
        <ele>1454.8</ele>
        <time>2022-06-15T12:07:48Z</time>
      </trkpt>
      <trkpt lat="45.78451" lon="6.55143">
        <ele>1455.2</ele>
        <time>2022-06-15T12:07:49Z</time>
      </trkpt>
      <trkpt lat="45.78454" lon="6.55139">
        <ele>1455.5</ele>
        <time>2022-06-15T12:07:50Z</time>
      </trkpt>
      <trkpt lat="45.78457" lon="6.55135">
        <ele>1455.9</ele>
        <time>2022-06-15T12:07:51Z</time>
      </trkpt>
      <trkpt lat="45.7846" lon="6.55132">
        <ele>1456.2</ele>
        <time>2022-06-15T12:07:52Z</time>
      </trkpt>
      <trkpt lat="45.78462" lon="6.55128">
        <ele>1456</ele>
        <time>2022-06-15T12:07:53Z</time>
      </trkpt>
      <trkpt lat="45.78464" lon="6.55124">
        <ele>1455.8</ele>
        <time>2022-06-15T12:07:54Z</time>
      </trkpt>
      <trkpt lat="45.78467" lon="6.55121">
        <ele>1455.8</ele>
        <time>2022-06-15T12:07:55Z</time>
      </trkpt>
      <trkpt lat="45.78469" lon="6.55118">
        <ele>1455.8</ele>
        <time>2022-06-15T12:07:56Z</time>
      </trkpt>
      <trkpt lat="45.78472" lon="6.55115">
        <ele>1455.8</ele>
        <time>2022-06-15T12:07:57Z</time>
      </trkpt>
      <trkpt lat="45.78475" lon="6.55112">
        <ele>1456.1</ele>
        <time>2022-06-15T12:07:58Z</time>
      </trkpt>
      <trkpt lat="45.78478" lon="6.5511">
        <ele>1456.5</ele>
        <time>2022-06-15T12:07:59Z</time>
      </trkpt>
      <trkpt lat="45.78481" lon="6.55107">
        <ele>1457</ele>
        <time>2022-06-15T12:08:00Z</time>
      </trkpt>
      <trkpt lat="45.78484" lon="6.55104">
        <ele>1457.4</ele>
        <time>2022-06-15T12:08:01Z</time>
      </trkpt>
      <trkpt lat="45.78487" lon="6.55102">
        <ele>1457.8</ele>
        <time>2022-06-15T12:08:02Z</time>
      </trkpt>
      <trkpt lat="45.7849" lon="6.55099">
        <ele>1458.1</ele>
        <time>2022-06-15T12:08:03Z</time>
      </trkpt>
      <trkpt lat="45.78493" lon="6.55096">
        <ele>1458.2</ele>
        <time>2022-06-15T12:08:04Z</time>
      </trkpt>
      <trkpt lat="45.78496" lon="6.55093">
        <ele>1458.4</ele>
        <time>2022-06-15T12:08:05Z</time>
      </trkpt>
      <trkpt lat="45.78499" lon="6.5509">
        <ele>1458.5</ele>
        <time>2022-06-15T12:08:06Z</time>
      </trkpt>
      <trkpt lat="45.78502" lon="6.55087">
        <ele>1458.6</ele>
        <time>2022-06-15T12:08:07Z</time>
      </trkpt>
      <trkpt lat="45.78504" lon="6.55084">
        <ele>1458.7</ele>
        <time>2022-06-15T12:08:08Z</time>
      </trkpt>
      <trkpt lat="45.78507" lon="6.55081">
        <ele>1458.9</ele>
        <time>2022-06-15T12:08:09Z</time>
      </trkpt>
      <trkpt lat="45.78509" lon="6.55077">
        <ele>1458.9</ele>
        <time>2022-06-15T12:08:10Z</time>
      </trkpt>
      <trkpt lat="45.78511" lon="6.55073">
        <ele>1459</ele>
        <time>2022-06-15T12:08:11Z</time>
      </trkpt>
      <trkpt lat="45.78513" lon="6.5507">
        <ele>1459.2</ele>
        <time>2022-06-15T12:08:12Z</time>
      </trkpt>
      <trkpt lat="45.78515" lon="6.55066">
        <ele>1459.4</ele>
        <time>2022-06-15T12:08:13Z</time>
      </trkpt>
      <trkpt lat="45.78517" lon="6.55063">
        <ele>1459.6</ele>
        <time>2022-06-15T12:08:14Z</time>
      </trkpt>
      <trkpt lat="45.78519" lon="6.55059">
        <ele>1459.6</ele>
        <time>2022-06-15T12:08:15Z</time>
      </trkpt>
      <trkpt lat="45.78521" lon="6.55055">
        <ele>1459.8</ele>
        <time>2022-06-15T12:08:16Z</time>
      </trkpt>
      <trkpt lat="45.78523" lon="6.55052">
        <ele>1460.2</ele>
        <time>2022-06-15T12:08:17Z</time>
      </trkpt>
      <trkpt lat="45.78525" lon="6.55048">
        <ele>1460.6</ele>
        <time>2022-06-15T12:08:18Z</time>
      </trkpt>
      <trkpt lat="45.78526" lon="6.55044">
        <ele>1460.9</ele>
        <time>2022-06-15T12:08:19Z</time>
      </trkpt>
      <trkpt lat="45.78527" lon="6.5504">
        <ele>1461.1</ele>
        <time>2022-06-15T12:08:20Z</time>
      </trkpt>
      <trkpt lat="45.78529" lon="6.55036">
        <ele>1461.4</ele>
        <time>2022-06-15T12:08:21Z</time>
      </trkpt>
      <trkpt lat="45.7853" lon="6.55032">
        <ele>1461.8</ele>
        <time>2022-06-15T12:08:22Z</time>
      </trkpt>
      <trkpt lat="45.78532" lon="6.55029">
        <ele>1462.3</ele>
        <time>2022-06-15T12:08:23Z</time>
      </trkpt>
      <trkpt lat="45.78533" lon="6.55025">
        <ele>1462.4</ele>
        <time>2022-06-15T12:08:24Z</time>
      </trkpt>
      <trkpt lat="45.78535" lon="6.55021">
        <ele>1462.3</ele>
        <time>2022-06-15T12:08:25Z</time>
      </trkpt>
      <trkpt lat="45.78536" lon="6.55017">
        <ele>1462.3</ele>
        <time>2022-06-15T12:08:26Z</time>
      </trkpt>
      <trkpt lat="45.78538" lon="6.55014">
        <ele>1462.4</ele>
        <time>2022-06-15T12:08:27Z</time>
      </trkpt>
      <trkpt lat="45.78539" lon="6.5501">
        <ele>1462.3</ele>
        <time>2022-06-15T12:08:28Z</time>
      </trkpt>
      <trkpt lat="45.78541" lon="6.55006">
        <ele>1462.4</ele>
        <time>2022-06-15T12:08:29Z</time>
      </trkpt>
      <trkpt lat="45.78543" lon="6.55003">
        <ele>1462.4</ele>
        <time>2022-06-15T12:08:30Z</time>
      </trkpt>
      <trkpt lat="45.78544" lon="6.54999">
        <ele>1462.5</ele>
        <time>2022-06-15T12:08:31Z</time>
      </trkpt>
      <trkpt lat="45.78546" lon="6.54995">
        <ele>1462.7</ele>
        <time>2022-06-15T12:08:32Z</time>
      </trkpt>
      <trkpt lat="45.78547" lon="6.54992">
        <ele>1462.9</ele>
        <time>2022-06-15T12:08:33Z</time>
      </trkpt>
      <trkpt lat="45.78549" lon="6.54988">
        <ele>1463.1</ele>
        <time>2022-06-15T12:08:34Z</time>
      </trkpt>
      <trkpt lat="45.7855" lon="6.54984">
        <ele>1463.3</ele>
        <time>2022-06-15T12:08:35Z</time>
      </trkpt>
      <trkpt lat="45.78552" lon="6.54981">
        <ele>1463.8</ele>
        <time>2022-06-15T12:08:36Z</time>
      </trkpt>
      <trkpt lat="45.78553" lon="6.54977">
        <ele>1464.2</ele>
        <time>2022-06-15T12:08:37Z</time>
      </trkpt>
      <trkpt lat="45.78555" lon="6.54973">
        <ele>1464.5</ele>
        <time>2022-06-15T12:08:38Z</time>
      </trkpt>
      <trkpt lat="45.78556" lon="6.54969">
        <ele>1464.8</ele>
        <time>2022-06-15T12:08:39Z</time>
      </trkpt>
      <trkpt lat="45.78557" lon="6.54966">
        <ele>1465.1</ele>
        <time>2022-06-15T12:08:40Z</time>
      </trkpt>
      <trkpt lat="45.78558" lon="6.54962">
        <ele>1465.5</ele>
        <time>2022-06-15T12:08:41Z</time>
      </trkpt>
      <trkpt lat="45.78559" lon="6.54958">
        <ele>1465.8</ele>
        <time>2022-06-15T12:08:42Z</time>
      </trkpt>
      <trkpt lat="45.78561" lon="6.54955">
        <ele>1466.4</ele>
        <time>2022-06-15T12:08:43Z</time>
      </trkpt>
      <trkpt lat="45.78562" lon="6.54951">
        <ele>1467</ele>
        <time>2022-06-15T12:08:44Z</time>
      </trkpt>
      <trkpt lat="45.78564" lon="6.54947">
        <ele>1467.2</ele>
        <time>2022-06-15T12:08:45Z</time>
      </trkpt>
      <trkpt lat="45.78565" lon="6.54943">
        <ele>1467.3</ele>
        <time>2022-06-15T12:08:46Z</time>
      </trkpt>
      <trkpt lat="45.78566" lon="6.54939">
        <ele>1467.4</ele>
        <time>2022-06-15T12:08:47Z</time>
      </trkpt>
      <trkpt lat="45.78567" lon="6.54936">
        <ele>1467.3</ele>
        <time>2022-06-15T12:08:48Z</time>
      </trkpt>
      <trkpt lat="45.78568" lon="6.54932">
        <ele>1467.2</ele>
        <time>2022-06-15T12:08:49Z</time>
      </trkpt>
      <trkpt lat="45.78569" lon="6.54928">
        <ele>1466.8</ele>
        <time>2022-06-15T12:08:50Z</time>
      </trkpt>
      <trkpt lat="45.7857" lon="6.54924">
        <ele>1466.7</ele>
        <time>2022-06-15T12:08:51Z</time>
      </trkpt>
      <trkpt lat="45.78571" lon="6.5492">
        <ele>1466.9</ele>
        <time>2022-06-15T12:08:52Z</time>
      </trkpt>
      <trkpt lat="45.78573" lon="6.54916">
        <ele>1467.1</ele>
        <time>2022-06-15T12:08:53Z</time>
      </trkpt>
      <trkpt lat="45.78574" lon="6.54912">
        <ele>1467.2</ele>
        <time>2022-06-15T12:08:54Z</time>
      </trkpt>
      <trkpt lat="45.78575" lon="6.54908">
        <ele>1467.4</ele>
        <time>2022-06-15T12:08:55Z</time>
      </trkpt>
      <trkpt lat="45.78577" lon="6.54904">
        <ele>1467.7</ele>
        <time>2022-06-15T12:08:56Z</time>
      </trkpt>
      <trkpt lat="45.78578" lon="6.549">
        <ele>1468</ele>
        <time>2022-06-15T12:08:57Z</time>
      </trkpt>
      <trkpt lat="45.78579" lon="6.54896">
        <ele>1468.3</ele>
        <time>2022-06-15T12:08:58Z</time>
      </trkpt>
      <trkpt lat="45.78581" lon="6.54892">
        <ele>1468.7</ele>
        <time>2022-06-15T12:08:59Z</time>
      </trkpt>
      <trkpt lat="45.78582" lon="6.54888">
        <ele>1469.1</ele>
        <time>2022-06-15T12:09:00Z</time>
      </trkpt>
      <trkpt lat="45.78583" lon="6.54884">
        <ele>1469.3</ele>
        <time>2022-06-15T12:09:01Z</time>
      </trkpt>
      <trkpt lat="45.78585" lon="6.5488">
        <ele>1469.4</ele>
        <time>2022-06-15T12:09:02Z</time>
      </trkpt>
      <trkpt lat="45.78587" lon="6.54877">
        <ele>1469.5</ele>
        <time>2022-06-15T12:09:03Z</time>
      </trkpt>
      <trkpt lat="45.78589" lon="6.54873">
        <ele>1469.7</ele>
        <time>2022-06-15T12:09:04Z</time>
      </trkpt>
      <trkpt lat="45.78591" lon="6.54869">
        <ele>1469.9</ele>
        <time>2022-06-15T12:09:05Z</time>
      </trkpt>
      <trkpt lat="45.78593" lon="6.54865">
        <ele>1470</ele>
        <time>2022-06-15T12:09:06Z</time>
      </trkpt>
      <trkpt lat="45.78595" lon="6.54861">
        <ele>1470.1</ele>
        <time>2022-06-15T12:09:07Z</time>
      </trkpt>
      <trkpt lat="45.78598" lon="6.54856">
        <ele>1469.6</ele>
        <time>2022-06-15T12:09:08Z</time>
      </trkpt>
      <trkpt lat="45.786" lon="6.54852">
        <ele>1469.3</ele>
        <time>2022-06-15T12:09:09Z</time>
      </trkpt>
      <trkpt lat="45.78603" lon="6.54848">
        <ele>1469.2</ele>
        <time>2022-06-15T12:09:10Z</time>
      </trkpt>
      <trkpt lat="45.78606" lon="6.54843">
        <ele>1469.3</ele>
        <time>2022-06-15T12:09:11Z</time>
      </trkpt>
      <trkpt lat="45.78608" lon="6.54838">
        <ele>1469.4</ele>
        <time>2022-06-15T12:09:12Z</time>
      </trkpt>
      <trkpt lat="45.78611" lon="6.54833">
        <ele>1469.6</ele>
        <time>2022-06-15T12:09:13Z</time>
      </trkpt>
      <trkpt lat="45.78613" lon="6.54828">
        <ele>1469.8</ele>
        <time>2022-06-15T12:09:14Z</time>
      </trkpt>
      <trkpt lat="45.78616" lon="6.54823">
        <ele>1469.8</ele>
        <time>2022-06-15T12:09:15Z</time>
      </trkpt>
      <trkpt lat="45.78618" lon="6.54818">
        <ele>1469.7</ele>
        <time>2022-06-15T12:09:16Z</time>
      </trkpt>
      <trkpt lat="45.78621" lon="6.54813">
        <ele>1469.4</ele>
        <time>2022-06-15T12:09:17Z</time>
      </trkpt>
      <trkpt lat="45.78624" lon="6.54807">
        <ele>1469.4</ele>
        <time>2022-06-15T12:09:18Z</time>
      </trkpt>
      <trkpt lat="45.78627" lon="6.54802">
        <ele>1469.6</ele>
        <time>2022-06-15T12:09:19Z</time>
      </trkpt>
      <trkpt lat="45.7863" lon="6.54796">
        <ele>1469.8</ele>
        <time>2022-06-15T12:09:20Z</time>
      </trkpt>
      <trkpt lat="45.78633" lon="6.5479">
        <ele>1469.8</ele>
        <time>2022-06-15T12:09:21Z</time>
      </trkpt>
      <trkpt lat="45.78636" lon="6.54784">
        <ele>1469.9</ele>
        <time>2022-06-15T12:09:22Z</time>
      </trkpt>
      <trkpt lat="45.78639" lon="6.54778">
        <ele>1470</ele>
        <time>2022-06-15T12:09:23Z</time>
      </trkpt>
      <trkpt lat="45.78643" lon="6.54771">
        <ele>1470.4</ele>
        <time>2022-06-15T12:09:24Z</time>
      </trkpt>
      <trkpt lat="45.78646" lon="6.54765">
        <ele>1470.5</ele>
        <time>2022-06-15T12:09:25Z</time>
      </trkpt>
      <trkpt lat="45.7865" lon="6.54759">
        <ele>1470.5</ele>
        <time>2022-06-15T12:09:26Z</time>
      </trkpt>
      <trkpt lat="45.78653" lon="6.54753">
        <ele>1470.4</ele>
        <time>2022-06-15T12:09:27Z</time>
      </trkpt>
      <trkpt lat="45.78657" lon="6.54746">
        <ele>1470</ele>
        <time>2022-06-15T12:09:28Z</time>
      </trkpt>
      <trkpt lat="45.78661" lon="6.5474">
        <ele>1469.6</ele>
        <time>2022-06-15T12:09:29Z</time>
      </trkpt>
      <trkpt lat="45.78666" lon="6.54735">
        <ele>1469.6</ele>
        <time>2022-06-15T12:09:30Z</time>
      </trkpt>
      <trkpt lat="45.7867" lon="6.54729">
        <ele>1469.4</ele>
        <time>2022-06-15T12:09:31Z</time>
      </trkpt>
      <trkpt lat="45.78675" lon="6.54725">
        <ele>1469.3</ele>
        <time>2022-06-15T12:09:32Z</time>
      </trkpt>
      <trkpt lat="45.78681" lon="6.54721">
        <ele>1469.3</ele>
        <time>2022-06-15T12:09:33Z</time>
      </trkpt>
      <trkpt lat="45.78686" lon="6.54717">
        <ele>1469.4</ele>
        <time>2022-06-15T12:09:34Z</time>
      </trkpt>
      <trkpt lat="45.78692" lon="6.54714">
        <ele>1469.6</ele>
        <time>2022-06-15T12:09:35Z</time>
      </trkpt>
      <trkpt lat="45.78699" lon="6.54711">
        <ele>1469.1</ele>
        <time>2022-06-15T12:09:36Z</time>
      </trkpt>
      <trkpt lat="45.78705" lon="6.54708">
        <ele>1468.6</ele>
        <time>2022-06-15T12:09:37Z</time>
      </trkpt>
      <trkpt lat="45.78712" lon="6.54705">
        <ele>1468</ele>
        <time>2022-06-15T12:09:38Z</time>
      </trkpt>
      <trkpt lat="45.78719" lon="6.54702">
        <ele>1467.6</ele>
        <time>2022-06-15T12:09:39Z</time>
      </trkpt>
      <trkpt lat="45.78727" lon="6.547">
        <ele>1467.1</ele>
        <time>2022-06-15T12:09:40Z</time>
      </trkpt>
      <trkpt lat="45.78736" lon="6.54699">
        <ele>1466.5</ele>
        <time>2022-06-15T12:09:41Z</time>
      </trkpt>
      <trkpt lat="45.78744" lon="6.54699">
        <ele>1465.8</ele>
        <time>2022-06-15T12:09:42Z</time>
      </trkpt>
      <trkpt lat="45.78753" lon="6.54699">
        <ele>1465.4</ele>
        <time>2022-06-15T12:09:43Z</time>
      </trkpt>
      <trkpt lat="45.78762" lon="6.54698">
        <ele>1465.1</ele>
        <time>2022-06-15T12:09:44Z</time>
      </trkpt>
      <trkpt lat="45.78771" lon="6.54698">
        <ele>1464.8</ele>
        <time>2022-06-15T12:09:45Z</time>
      </trkpt>
      <trkpt lat="45.7878" lon="6.54698">
        <ele>1464.4</ele>
        <time>2022-06-15T12:09:46Z</time>
      </trkpt>
      <trkpt lat="45.7879" lon="6.54698">
        <ele>1464</ele>
        <time>2022-06-15T12:09:47Z</time>
      </trkpt>
      <trkpt lat="45.78799" lon="6.54698">
        <ele>1463.6</ele>
        <time>2022-06-15T12:09:48Z</time>
      </trkpt>
      <trkpt lat="45.78809" lon="6.54698">
        <ele>1463.3</ele>
        <time>2022-06-15T12:09:49Z</time>
      </trkpt>
      <trkpt lat="45.78818" lon="6.54697">
        <ele>1463.3</ele>
        <time>2022-06-15T12:09:50Z</time>
      </trkpt>
      <trkpt lat="45.78827" lon="6.54697">
        <ele>1463.3</ele>
        <time>2022-06-15T12:09:51Z</time>
      </trkpt>
      <trkpt lat="45.78837" lon="6.54697">
        <ele>1463.1</ele>
        <time>2022-06-15T12:09:52Z</time>
      </trkpt>
      <trkpt lat="45.78847" lon="6.54696">
        <ele>1462.8</ele>
        <time>2022-06-15T12:09:53Z</time>
      </trkpt>
      <trkpt lat="45.78856" lon="6.54696">
        <ele>1462.5</ele>
        <time>2022-06-15T12:09:54Z</time>
      </trkpt>
      <trkpt lat="45.78866" lon="6.54696">
        <ele>1462</ele>
        <time>2022-06-15T12:09:55Z</time>
      </trkpt>
      <trkpt lat="45.78875" lon="6.54694">
        <ele>1461.4</ele>
        <time>2022-06-15T12:09:56Z</time>
      </trkpt>
      <trkpt lat="45.78884" lon="6.5469">
        <ele>1460.7</ele>
        <time>2022-06-15T12:09:57Z</time>
      </trkpt>
      <trkpt lat="45.78893" lon="6.54686">
        <ele>1460.2</ele>
        <time>2022-06-15T12:09:58Z</time>
      </trkpt>
      <trkpt lat="45.78902" lon="6.54681">
        <ele>1460</ele>
        <time>2022-06-15T12:09:59Z</time>
      </trkpt>
      <trkpt lat="45.78911" lon="6.54675">
        <ele>1460</ele>
        <time>2022-06-15T12:10:00Z</time>
      </trkpt>
      <trkpt lat="45.78919" lon="6.54668">
        <ele>1460.2</ele>
        <time>2022-06-15T12:10:01Z</time>
      </trkpt>
      <trkpt lat="45.78926" lon="6.5466">
        <ele>1459.6</ele>
        <time>2022-06-15T12:10:02Z</time>
      </trkpt>
      <trkpt lat="45.78933" lon="6.5465">
        <ele>1458.9</ele>
        <time>2022-06-15T12:10:03Z</time>
      </trkpt>
      <trkpt lat="45.78939" lon="6.5464">
        <ele>1458.3</ele>
        <time>2022-06-15T12:10:04Z</time>
      </trkpt>
      <trkpt lat="45.78945" lon="6.54629">
        <ele>1458.4</ele>
        <time>2022-06-15T12:10:05Z</time>
      </trkpt>
      <trkpt lat="45.78951" lon="6.54617">
        <ele>1458.5</ele>
        <time>2022-06-15T12:10:06Z</time>
      </trkpt>
      <trkpt lat="45.78957" lon="6.54605">
        <ele>1458.1</ele>
        <time>2022-06-15T12:10:07Z</time>
      </trkpt>
      <trkpt lat="45.78963" lon="6.54593">
        <ele>1457.3</ele>
        <time>2022-06-15T12:10:08Z</time>
      </trkpt>
      <trkpt lat="45.78969" lon="6.54581">
        <ele>1456.4</ele>
        <time>2022-06-15T12:10:09Z</time>
      </trkpt>
      <trkpt lat="45.78975" lon="6.54569">
        <ele>1455.9</ele>
        <time>2022-06-15T12:10:10Z</time>
      </trkpt>
      <trkpt lat="45.78982" lon="6.54558">
        <ele>1455.3</ele>
        <time>2022-06-15T12:10:11Z</time>
      </trkpt>
      <trkpt lat="45.78989" lon="6.54547">
        <ele>1454.3</ele>
        <time>2022-06-15T12:10:12Z</time>
      </trkpt>
      <trkpt lat="45.78997" lon="6.54537">
        <ele>1453.3</ele>
        <time>2022-06-15T12:10:13Z</time>
      </trkpt>
      <trkpt lat="45.79006" lon="6.54527">
        <ele>1452.4</ele>
        <time>2022-06-15T12:10:14Z</time>
      </trkpt>
      <trkpt lat="45.79015" lon="6.54517">
        <ele>1451.8</ele>
        <time>2022-06-15T12:10:15Z</time>
      </trkpt>
      <trkpt lat="45.79024" lon="6.54508">
        <ele>1451</ele>
        <time>2022-06-15T12:10:16Z</time>
      </trkpt>
      <trkpt lat="45.79034" lon="6.54498">
        <ele>1450.4</ele>
        <time>2022-06-15T12:10:17Z</time>
      </trkpt>
      <trkpt lat="45.79045" lon="6.5449">
        <ele>1450.1</ele>
        <time>2022-06-15T12:10:18Z</time>
      </trkpt>
      <trkpt lat="45.79057" lon="6.54484">
        <ele>1449.5</ele>
        <time>2022-06-15T12:10:19Z</time>
      </trkpt>
      <trkpt lat="45.79069" lon="6.54479">
        <ele>1448.3</ele>
        <time>2022-06-15T12:10:20Z</time>
      </trkpt>
      <trkpt lat="45.79081" lon="6.54475">
        <ele>1446.9</ele>
        <time>2022-06-15T12:10:21Z</time>
      </trkpt>
      <trkpt lat="45.79093" lon="6.54471">
        <ele>1446.1</ele>
        <time>2022-06-15T12:10:22Z</time>
      </trkpt>
      <trkpt lat="45.79106" lon="6.54467">
        <ele>1445.8</ele>
        <time>2022-06-15T12:10:23Z</time>
      </trkpt>
      <trkpt lat="45.79118" lon="6.54463">
        <ele>1445.3</ele>
        <time>2022-06-15T12:10:24Z</time>
      </trkpt>
      <trkpt lat="45.7913" lon="6.54458">
        <ele>1444.4</ele>
        <time>2022-06-15T12:10:25Z</time>
      </trkpt>
      <trkpt lat="45.79143" lon="6.54453">
        <ele>1443.6</ele>
        <time>2022-06-15T12:10:26Z</time>
      </trkpt>
      <trkpt lat="45.79155" lon="6.54447">
        <ele>1442.6</ele>
        <time>2022-06-15T12:10:27Z</time>
      </trkpt>
      <trkpt lat="45.79166" lon="6.54441">
        <ele>1441.1</ele>
        <time>2022-06-15T12:10:28Z</time>
      </trkpt>
      <trkpt lat="45.79178" lon="6.54433">
        <ele>1440.9</ele>
        <time>2022-06-15T12:10:29Z</time>
      </trkpt>
      <trkpt lat="45.79189" lon="6.54425">
        <ele>1440.3</ele>
        <time>2022-06-15T12:10:30Z</time>
      </trkpt>
      <trkpt lat="45.792" lon="6.54416">
        <ele>1439.5</ele>
        <time>2022-06-15T12:10:31Z</time>
      </trkpt>
      <trkpt lat="45.79211" lon="6.54408">
        <ele>1438.7</ele>
        <time>2022-06-15T12:10:32Z</time>
      </trkpt>
      <trkpt lat="45.79222" lon="6.54398">
        <ele>1437.9</ele>
        <time>2022-06-15T12:10:33Z</time>
      </trkpt>
      <trkpt lat="45.79232" lon="6.54388">
        <ele>1437.1</ele>
        <time>2022-06-15T12:10:34Z</time>
      </trkpt>
      <trkpt lat="45.79242" lon="6.54376">
        <ele>1436</ele>
        <time>2022-06-15T12:10:35Z</time>
      </trkpt>
      <trkpt lat="45.79252" lon="6.54365">
        <ele>1435.1</ele>
        <time>2022-06-15T12:10:36Z</time>
      </trkpt>
      <trkpt lat="45.79263" lon="6.54353">
        <ele>1434.3</ele>
        <time>2022-06-15T12:10:37Z</time>
      </trkpt>
      <trkpt lat="45.79273" lon="6.54341">
        <ele>1433.2</ele>
        <time>2022-06-15T12:10:38Z</time>
      </trkpt>
      <trkpt lat="45.79284" lon="6.54331">
        <ele>1432.2</ele>
        <time>2022-06-15T12:10:39Z</time>
      </trkpt>
      <trkpt lat="45.79297" lon="6.54323">
        <ele>1431.7</ele>
        <time>2022-06-15T12:10:40Z</time>
      </trkpt>
      <trkpt lat="45.7931" lon="6.54317">
        <ele>1431.4</ele>
        <time>2022-06-15T12:10:41Z</time>
      </trkpt>
      <trkpt lat="45.79323" lon="6.54312">
        <ele>1429.9</ele>
        <time>2022-06-15T12:10:42Z</time>
      </trkpt>
      <trkpt lat="45.79335" lon="6.54305">
        <ele>1428</ele>
        <time>2022-06-15T12:10:43Z</time>
      </trkpt>
      <trkpt lat="45.79347" lon="6.54295">
        <ele>1427.2</ele>
        <time>2022-06-15T12:10:44Z</time>
      </trkpt>
      <trkpt lat="45.79359" lon="6.54284">
        <ele>1426.1</ele>
        <time>2022-06-15T12:10:45Z</time>
      </trkpt>
      <trkpt lat="45.79371" lon="6.54274">
        <ele>1424.4</ele>
        <time>2022-06-15T12:10:46Z</time>
      </trkpt>
      <trkpt lat="45.79384" lon="6.54265">
        <ele>1423.3</ele>
        <time>2022-06-15T12:10:47Z</time>
      </trkpt>
      <trkpt lat="45.79398" lon="6.54258">
        <ele>1421.9</ele>
        <time>2022-06-15T12:10:48Z</time>
      </trkpt>
      <trkpt lat="45.79411" lon="6.5425">
        <ele>1419.5</ele>
        <time>2022-06-15T12:10:49Z</time>
      </trkpt>
      <trkpt lat="45.79424" lon="6.54241">
        <ele>1418.1</ele>
        <time>2022-06-15T12:10:50Z</time>
      </trkpt>
      <trkpt lat="45.79437" lon="6.54229">
        <ele>1417.4</ele>
        <time>2022-06-15T12:10:51Z</time>
      </trkpt>
      <trkpt lat="45.79449" lon="6.54217">
        <ele>1416.3</ele>
        <time>2022-06-15T12:10:52Z</time>
      </trkpt>
      <trkpt lat="45.79461" lon="6.54207">
        <ele>1414.8</ele>
        <time>2022-06-15T12:10:53Z</time>
      </trkpt>
      <trkpt lat="45.79475" lon="6.54198">
        <ele>1413.5</ele>
        <time>2022-06-15T12:10:54Z</time>
      </trkpt>
      <trkpt lat="45.79489" lon="6.5419">
        <ele>1411.6</ele>
        <time>2022-06-15T12:10:55Z</time>
      </trkpt>
      <trkpt lat="45.79503" lon="6.54181">
        <ele>1410.2</ele>
        <time>2022-06-15T12:10:56Z</time>
      </trkpt>
      <trkpt lat="45.79517" lon="6.54173">
        <ele>1409.1</ele>
        <time>2022-06-15T12:10:57Z</time>
      </trkpt>
      <trkpt lat="45.7953" lon="6.54163">
        <ele>1407.2</ele>
        <time>2022-06-15T12:10:58Z</time>
      </trkpt>
      <trkpt lat="45.79541" lon="6.54151">
        <ele>1405.7</ele>
        <time>2022-06-15T12:10:59Z</time>
      </trkpt>
      <trkpt lat="45.79552" lon="6.54137">
        <ele>1404.9</ele>
        <time>2022-06-15T12:11:00Z</time>
      </trkpt>
      <trkpt lat="45.79562" lon="6.54124">
        <ele>1404.2</ele>
        <time>2022-06-15T12:11:01Z</time>
      </trkpt>
      <trkpt lat="45.79572" lon="6.54112">
        <ele>1403.3</ele>
        <time>2022-06-15T12:11:02Z</time>
      </trkpt>
      <trkpt lat="45.79584" lon="6.54101">
        <ele>1401.9</ele>
        <time>2022-06-15T12:11:03Z</time>
      </trkpt>
      <trkpt lat="45.79597" lon="6.54094">
        <ele>1400.1</ele>
        <time>2022-06-15T12:11:04Z</time>
      </trkpt>
      <trkpt lat="45.79611" lon="6.5409">
        <ele>1399.2</ele>
        <time>2022-06-15T12:11:05Z</time>
      </trkpt>
      <trkpt lat="45.79625" lon="6.54089">
        <ele>1397.6</ele>
        <time>2022-06-15T12:11:06Z</time>
      </trkpt>
      <trkpt lat="45.79639" lon="6.5409">
        <ele>1396.1</ele>
        <time>2022-06-15T12:11:07Z</time>
      </trkpt>
      <trkpt lat="45.79653" lon="6.54092">
        <ele>1395.3</ele>
        <time>2022-06-15T12:11:08Z</time>
      </trkpt>
      <trkpt lat="45.79667" lon="6.54097">
        <ele>1394.8</ele>
        <time>2022-06-15T12:11:09Z</time>
      </trkpt>
      <trkpt lat="45.79681" lon="6.54104">
        <ele>1392.7</ele>
        <time>2022-06-15T12:11:10Z</time>
      </trkpt>
      <trkpt lat="45.79694" lon="6.54113">
        <ele>1391.4</ele>
        <time>2022-06-15T12:11:11Z</time>
      </trkpt>
      <trkpt lat="45.79707" lon="6.54122">
        <ele>1389.7</ele>
        <time>2022-06-15T12:11:12Z</time>
      </trkpt>
      <trkpt lat="45.79719" lon="6.54132">
        <ele>1388.6</ele>
        <time>2022-06-15T12:11:13Z</time>
      </trkpt>
      <trkpt lat="45.7973" lon="6.54142">
        <ele>1387.7</ele>
        <time>2022-06-15T12:11:14Z</time>
      </trkpt>
      <trkpt lat="45.79739" lon="6.54153">
        <ele>1386.7</ele>
        <time>2022-06-15T12:11:15Z</time>
      </trkpt>
      <trkpt lat="45.79747" lon="6.54166">
        <ele>1385.9</ele>
        <time>2022-06-15T12:11:16Z</time>
      </trkpt>
      <trkpt lat="45.79752" lon="6.54182">
        <ele>1384.7</ele>
        <time>2022-06-15T12:11:17Z</time>
      </trkpt>
      <trkpt lat="45.79757" lon="6.54198">
        <ele>1383.7</ele>
        <time>2022-06-15T12:11:18Z</time>
      </trkpt>
      <trkpt lat="45.79762" lon="6.54213">
        <ele>1383.1</ele>
        <time>2022-06-15T12:11:19Z</time>
      </trkpt>
      <trkpt lat="45.7977" lon="6.54227">
        <ele>1382.2</ele>
        <time>2022-06-15T12:11:20Z</time>
      </trkpt>
      <trkpt lat="45.79779" lon="6.54239">
        <ele>1381</ele>
        <time>2022-06-15T12:11:21Z</time>
      </trkpt>
      <trkpt lat="45.79789" lon="6.5425">
        <ele>1380.2</ele>
        <time>2022-06-15T12:11:22Z</time>
      </trkpt>
      <trkpt lat="45.798" lon="6.54261">
        <ele>1379.5</ele>
        <time>2022-06-15T12:11:23Z</time>
      </trkpt>
      <trkpt lat="45.7981" lon="6.54273">
        <ele>1378.7</ele>
        <time>2022-06-15T12:11:24Z</time>
      </trkpt>
      <trkpt lat="45.79821" lon="6.54284">
        <ele>1377.5</ele>
        <time>2022-06-15T12:11:25Z</time>
      </trkpt>
      <trkpt lat="45.79831" lon="6.54296">
        <ele>1376.2</ele>
        <time>2022-06-15T12:11:26Z</time>
      </trkpt>
      <trkpt lat="45.79843" lon="6.54308">
        <ele>1374.3</ele>
        <time>2022-06-15T12:11:27Z</time>
      </trkpt>
      <trkpt lat="45.79855" lon="6.5432">
        <ele>1372.1</ele>
        <time>2022-06-15T12:11:28Z</time>
      </trkpt>
      <trkpt lat="45.79867" lon="6.54333">
        <ele>1370.7</ele>
        <time>2022-06-15T12:11:29Z</time>
      </trkpt>
      <trkpt lat="45.79878" lon="6.54346">
        <ele>1370.2</ele>
        <time>2022-06-15T12:11:30Z</time>
      </trkpt>
      <trkpt lat="45.7989" lon="6.54359">
        <ele>1368.5</ele>
        <time>2022-06-15T12:11:31Z</time>
      </trkpt>
      <trkpt lat="45.79902" lon="6.54373">
        <ele>1367</ele>
        <time>2022-06-15T12:11:32Z</time>
      </trkpt>
      <trkpt lat="45.79914" lon="6.54386">
        <ele>1365.4</ele>
        <time>2022-06-15T12:11:33Z</time>
      </trkpt>
      <trkpt lat="45.79926" lon="6.544">
        <ele>1364.1</ele>
        <time>2022-06-15T12:11:34Z</time>
      </trkpt>
      <trkpt lat="45.79938" lon="6.54414">
        <ele>1363.6</ele>
        <time>2022-06-15T12:11:35Z</time>
      </trkpt>
      <trkpt lat="45.79951" lon="6.54427">
        <ele>1362.7</ele>
        <time>2022-06-15T12:11:36Z</time>
      </trkpt>
      <trkpt lat="45.79963" lon="6.54441">
        <ele>1361.7</ele>
        <time>2022-06-15T12:11:37Z</time>
      </trkpt>
      <trkpt lat="45.79976" lon="6.54455">
        <ele>1360.5</ele>
        <time>2022-06-15T12:11:38Z</time>
      </trkpt>
      <trkpt lat="45.79987" lon="6.5447">
        <ele>1359.3</ele>
        <time>2022-06-15T12:11:39Z</time>
      </trkpt>
      <trkpt lat="45.79999" lon="6.54485">
        <ele>1357.8</ele>
        <time>2022-06-15T12:11:40Z</time>
      </trkpt>
      <trkpt lat="45.8001" lon="6.54502">
        <ele>1355.6</ele>
        <time>2022-06-15T12:11:41Z</time>
      </trkpt>
      <trkpt lat="45.80022" lon="6.54519">
        <ele>1353.6</ele>
        <time>2022-06-15T12:11:42Z</time>
      </trkpt>
      <trkpt lat="45.80033" lon="6.54536">
        <ele>1352.1</ele>
        <time>2022-06-15T12:11:43Z</time>
      </trkpt>
      <trkpt lat="45.80045" lon="6.54553">
        <ele>1351.1</ele>
        <time>2022-06-15T12:11:44Z</time>
      </trkpt>
      <trkpt lat="45.80057" lon="6.54571">
        <ele>1349.3</ele>
        <time>2022-06-15T12:11:45Z</time>
      </trkpt>
      <trkpt lat="45.80068" lon="6.54589">
        <ele>1347.9</ele>
        <time>2022-06-15T12:11:46Z</time>
      </trkpt>
      <trkpt lat="45.80078" lon="6.54609">
        <ele>1346.4</ele>
        <time>2022-06-15T12:11:47Z</time>
      </trkpt>
      <trkpt lat="45.80089" lon="6.54628">
        <ele>1344</ele>
        <time>2022-06-15T12:11:48Z</time>
      </trkpt>
      <trkpt lat="45.801" lon="6.54647">
        <ele>1341.8</ele>
        <time>2022-06-15T12:11:49Z</time>
      </trkpt>
      <trkpt lat="45.80113" lon="6.54664">
        <ele>1340.1</ele>
        <time>2022-06-15T12:11:50Z</time>
      </trkpt>
      <trkpt lat="45.80127" lon="6.54679">
        <ele>1338.3</ele>
        <time>2022-06-15T12:11:51Z</time>
      </trkpt>
      <trkpt lat="45.80142" lon="6.54695">
        <ele>1336.5</ele>
        <time>2022-06-15T12:11:52Z</time>
      </trkpt>
      <trkpt lat="45.80156" lon="6.54709">
        <ele>1335.2</ele>
        <time>2022-06-15T12:11:53Z</time>
      </trkpt>
      <trkpt lat="45.8017" lon="6.54723">
        <ele>1333.4</ele>
        <time>2022-06-15T12:11:54Z</time>
      </trkpt>
      <trkpt lat="45.80182" lon="6.54736">
        <ele>1332</ele>
        <time>2022-06-15T12:11:55Z</time>
      </trkpt>
      <trkpt lat="45.80193" lon="6.5475">
        <ele>1331.3</ele>
        <time>2022-06-15T12:11:56Z</time>
      </trkpt>
      <trkpt lat="45.80204" lon="6.54764">
        <ele>1330</ele>
        <time>2022-06-15T12:11:57Z</time>
      </trkpt>
      <trkpt lat="45.80214" lon="6.54777">
        <ele>1328.9</ele>
        <time>2022-06-15T12:11:58Z</time>
      </trkpt>
      <trkpt lat="45.80224" lon="6.54789">
        <ele>1327.5</ele>
        <time>2022-06-15T12:11:59Z</time>
      </trkpt>
      <trkpt lat="45.80233" lon="6.54799">
        <ele>1326.6</ele>
        <time>2022-06-15T12:12:00Z</time>
      </trkpt>
      <trkpt lat="45.80241" lon="6.54808">
        <ele>1325.8</ele>
        <time>2022-06-15T12:12:01Z</time>
      </trkpt>
      <trkpt lat="45.80248" lon="6.54816">
        <ele>1324.5</ele>
        <time>2022-06-15T12:12:02Z</time>
      </trkpt>
      <trkpt lat="45.80253" lon="6.54822">
        <ele>1323.7</ele>
        <time>2022-06-15T12:12:03Z</time>
      </trkpt>
      <trkpt lat="45.80258" lon="6.54828">
        <ele>1323.4</ele>
        <time>2022-06-15T12:12:04Z</time>
      </trkpt>
      <trkpt lat="45.80263" lon="6.54834">
        <ele>1323.1</ele>
        <time>2022-06-15T12:12:05Z</time>
      </trkpt>
      <trkpt lat="45.80269" lon="6.54839">
        <ele>1323</ele>
        <time>2022-06-15T12:12:06Z</time>
      </trkpt>
      <trkpt lat="45.80276" lon="6.54845">
        <ele>1322.6</ele>
        <time>2022-06-15T12:12:07Z</time>
      </trkpt>
      <trkpt lat="45.80283" lon="6.54849">
        <ele>1321.9</ele>
        <time>2022-06-15T12:12:08Z</time>
      </trkpt>
      <trkpt lat="45.8029" lon="6.54854">
        <ele>1321</ele>
        <time>2022-06-15T12:12:09Z</time>
      </trkpt>
      <trkpt lat="45.80297" lon="6.54861">
        <ele>1320.3</ele>
        <time>2022-06-15T12:12:10Z</time>
      </trkpt>
      <trkpt lat="45.80304" lon="6.54869">
        <ele>1319.5</ele>
        <time>2022-06-15T12:12:11Z</time>
      </trkpt>
      <trkpt lat="45.8031" lon="6.54877">
        <ele>1319</ele>
        <time>2022-06-15T12:12:12Z</time>
      </trkpt>
      <trkpt lat="45.80317" lon="6.54886">
        <ele>1318.6</ele>
        <time>2022-06-15T12:12:13Z</time>
      </trkpt>
      <trkpt lat="45.80324" lon="6.54895">
        <ele>1317.9</ele>
        <time>2022-06-15T12:12:14Z</time>
      </trkpt>
      <trkpt lat="45.80329" lon="6.54903">
        <ele>1317.1</ele>
        <time>2022-06-15T12:12:15Z</time>
      </trkpt>
      <trkpt lat="45.80333" lon="6.54909">
        <ele>1316.3</ele>
        <time>2022-06-15T12:12:16Z</time>
      </trkpt>
      <trkpt lat="45.80337" lon="6.54915">
        <ele>1315.6</ele>
        <time>2022-06-15T12:12:17Z</time>
      </trkpt>
      <trkpt lat="45.80342" lon="6.5492">
        <ele>1315.2</ele>
        <time>2022-06-15T12:12:18Z</time>
      </trkpt>
      <trkpt lat="45.80348" lon="6.54926">
        <ele>1314.8</ele>
        <time>2022-06-15T12:12:19Z</time>
      </trkpt>
      <trkpt lat="45.80353" lon="6.54934">
        <ele>1314.3</ele>
        <time>2022-06-15T12:12:20Z</time>
      </trkpt>
      <trkpt lat="45.80357" lon="6.54942">
        <ele>1313.7</ele>
        <time>2022-06-15T12:12:21Z</time>
      </trkpt>
      <trkpt lat="45.80361" lon="6.54951">
        <ele>1313.2</ele>
        <time>2022-06-15T12:12:22Z</time>
      </trkpt>
      <trkpt lat="45.80365" lon="6.54961">
        <ele>1312.9</ele>
        <time>2022-06-15T12:12:23Z</time>
      </trkpt>
      <trkpt lat="45.80369" lon="6.54973">
        <ele>1312.9</ele>
        <time>2022-06-15T12:12:24Z</time>
      </trkpt>
      <trkpt lat="45.80372" lon="6.54985">
        <ele>1313.4</ele>
        <time>2022-06-15T12:12:25Z</time>
      </trkpt>
      <trkpt lat="45.80374" lon="6.54998">
        <ele>1313.7</ele>
        <time>2022-06-15T12:12:26Z</time>
      </trkpt>
      <trkpt lat="45.80376" lon="6.55011">
        <ele>1313.6</ele>
        <time>2022-06-15T12:12:27Z</time>
      </trkpt>
      <trkpt lat="45.80379" lon="6.55024">
        <ele>1313.1</ele>
        <time>2022-06-15T12:12:28Z</time>
      </trkpt>
      <trkpt lat="45.80385" lon="6.55035">
        <ele>1311.5</ele>
        <time>2022-06-15T12:12:29Z</time>
      </trkpt>
      <trkpt lat="45.80393" lon="6.55042">
        <ele>1309.8</ele>
        <time>2022-06-15T12:12:30Z</time>
      </trkpt>
      <trkpt lat="45.80401" lon="6.55046">
        <ele>1309.4</ele>
        <time>2022-06-15T12:12:31Z</time>
      </trkpt>
      <trkpt lat="45.8041" lon="6.55047">
        <ele>1309</ele>
        <time>2022-06-15T12:12:32Z</time>
      </trkpt>
      <trkpt lat="45.80419" lon="6.55044">
        <ele>1308.7</ele>
        <time>2022-06-15T12:12:33Z</time>
      </trkpt>
      <trkpt lat="45.80427" lon="6.55038">
        <ele>1309.2</ele>
        <time>2022-06-15T12:12:34Z</time>
      </trkpt>
      <trkpt lat="45.80432" lon="6.55029">
        <ele>1309.7</ele>
        <time>2022-06-15T12:12:35Z</time>
      </trkpt>
      <trkpt lat="45.80436" lon="6.55018">
        <ele>1309.8</ele>
        <time>2022-06-15T12:12:36Z</time>
      </trkpt>
      <trkpt lat="45.80438" lon="6.55006">
        <ele>1309.7</ele>
        <time>2022-06-15T12:12:37Z</time>
      </trkpt>
      <trkpt lat="45.80438" lon="6.54993">
        <ele>1309.5</ele>
        <time>2022-06-15T12:12:38Z</time>
      </trkpt>
      <trkpt lat="45.80437" lon="6.54979">
        <ele>1309.2</ele>
        <time>2022-06-15T12:12:39Z</time>
      </trkpt>
      <trkpt lat="45.80436" lon="6.54965">
        <ele>1309</ele>
        <time>2022-06-15T12:12:40Z</time>
      </trkpt>
      <trkpt lat="45.80435" lon="6.54951">
        <ele>1309</ele>
        <time>2022-06-15T12:12:41Z</time>
      </trkpt>
      <trkpt lat="45.80435" lon="6.54936">
        <ele>1308.3</ele>
        <time>2022-06-15T12:12:42Z</time>
      </trkpt>
      <trkpt lat="45.80437" lon="6.54921">
        <ele>1307.1</ele>
        <time>2022-06-15T12:12:43Z</time>
      </trkpt>
      <trkpt lat="45.80442" lon="6.54907">
        <ele>1306.2</ele>
        <time>2022-06-15T12:12:44Z</time>
      </trkpt>
      <trkpt lat="45.80448" lon="6.54894">
        <ele>1306</ele>
        <time>2022-06-15T12:12:45Z</time>
      </trkpt>
      <trkpt lat="45.80455" lon="6.54881">
        <ele>1305.1</ele>
        <time>2022-06-15T12:12:46Z</time>
      </trkpt>
      <trkpt lat="45.8046" lon="6.54867">
        <ele>1303.6</ele>
        <time>2022-06-15T12:12:47Z</time>
      </trkpt>
      <trkpt lat="45.80465" lon="6.54853">
        <ele>1302.4</ele>
        <time>2022-06-15T12:12:48Z</time>
      </trkpt>
      <trkpt lat="45.80469" lon="6.54838">
        <ele>1301.7</ele>
        <time>2022-06-15T12:12:49Z</time>
      </trkpt>
      <trkpt lat="45.80472" lon="6.54822">
        <ele>1301.4</ele>
        <time>2022-06-15T12:12:50Z</time>
      </trkpt>
      <trkpt lat="45.80473" lon="6.54805">
        <ele>1301.1</ele>
        <time>2022-06-15T12:12:51Z</time>
      </trkpt>
      <trkpt lat="45.80476" lon="6.54789">
        <ele>1300.4</ele>
        <time>2022-06-15T12:12:52Z</time>
      </trkpt>
      <trkpt lat="45.80482" lon="6.54774">
        <ele>1299.5</ele>
        <time>2022-06-15T12:12:53Z</time>
      </trkpt>
      <trkpt lat="45.80492" lon="6.54762">
        <ele>1298.2</ele>
        <time>2022-06-15T12:12:54Z</time>
      </trkpt>
      <trkpt lat="45.80502" lon="6.54753">
        <ele>1296.6</ele>
        <time>2022-06-15T12:12:55Z</time>
      </trkpt>
      <trkpt lat="45.80513" lon="6.54745">
        <ele>1295.3</ele>
        <time>2022-06-15T12:12:56Z</time>
      </trkpt>
      <trkpt lat="45.80522" lon="6.54735">
        <ele>1295.2</ele>
        <time>2022-06-15T12:12:57Z</time>
      </trkpt>
      <trkpt lat="45.80529" lon="6.54723">
        <ele>1296.1</ele>
        <time>2022-06-15T12:12:58Z</time>
      </trkpt>
      <trkpt lat="45.80534" lon="6.54709">
        <ele>1296.6</ele>
        <time>2022-06-15T12:12:59Z</time>
      </trkpt>
      <trkpt lat="45.80537" lon="6.54694">
        <ele>1297</ele>
        <time>2022-06-15T12:13:00Z</time>
      </trkpt>
      <trkpt lat="45.80538" lon="6.54679">
        <ele>1297.3</ele>
        <time>2022-06-15T12:13:01Z</time>
      </trkpt>
      <trkpt lat="45.80538" lon="6.54664">
        <ele>1297.5</ele>
        <time>2022-06-15T12:13:02Z</time>
      </trkpt>
      <trkpt lat="45.80538" lon="6.5465">
        <ele>1297.1</ele>
        <time>2022-06-15T12:13:03Z</time>
      </trkpt>
      <trkpt lat="45.80538" lon="6.54636">
        <ele>1297</ele>
        <time>2022-06-15T12:13:04Z</time>
      </trkpt>
      <trkpt lat="45.80537" lon="6.54623">
        <ele>1297.9</ele>
        <time>2022-06-15T12:13:05Z</time>
      </trkpt>
      <trkpt lat="45.80535" lon="6.5461">
        <ele>1298.5</ele>
        <time>2022-06-15T12:13:06Z</time>
      </trkpt>
      <trkpt lat="45.80532" lon="6.54598">
        <ele>1298.8</ele>
        <time>2022-06-15T12:13:07Z</time>
      </trkpt>
      <trkpt lat="45.80528" lon="6.54587">
        <ele>1298.8</ele>
        <time>2022-06-15T12:13:08Z</time>
      </trkpt>
      <trkpt lat="45.80524" lon="6.54576">
        <ele>1298.8</ele>
        <time>2022-06-15T12:13:09Z</time>
      </trkpt>
      <trkpt lat="45.8052" lon="6.54566">
        <ele>1299.4</ele>
        <time>2022-06-15T12:13:10Z</time>
      </trkpt>
      <trkpt lat="45.80516" lon="6.54556">
        <ele>1300.3</ele>
        <time>2022-06-15T12:13:11Z</time>
      </trkpt>
      <trkpt lat="45.80513" lon="6.54546">
        <ele>1301.5</ele>
        <time>2022-06-15T12:13:12Z</time>
      </trkpt>
      <trkpt lat="45.80511" lon="6.54537">
        <ele>1302.6</ele>
        <time>2022-06-15T12:13:13Z</time>
      </trkpt>
      <trkpt lat="45.80509" lon="6.54527">
        <ele>1303.5</ele>
        <time>2022-06-15T12:13:14Z</time>
      </trkpt>
      <trkpt lat="45.80508" lon="6.54517">
        <ele>1303.2</ele>
        <time>2022-06-15T12:13:15Z</time>
      </trkpt>
      <trkpt lat="45.80507" lon="6.54508">
        <ele>1302.9</ele>
        <time>2022-06-15T12:13:16Z</time>
      </trkpt>
      <trkpt lat="45.80506" lon="6.54498">
        <ele>1302.5</ele>
        <time>2022-06-15T12:13:17Z</time>
      </trkpt>
      <trkpt lat="45.80505" lon="6.54489">
        <ele>1302.4</ele>
        <time>2022-06-15T12:13:18Z</time>
      </trkpt>
      <trkpt lat="45.80504" lon="6.54479">
        <ele>1302.4</ele>
        <time>2022-06-15T12:13:19Z</time>
      </trkpt>
      <trkpt lat="45.80503" lon="6.5447">
        <ele>1302.4</ele>
        <time>2022-06-15T12:13:20Z</time>
      </trkpt>
      <trkpt lat="45.80502" lon="6.54461">
        <ele>1302.6</ele>
        <time>2022-06-15T12:13:21Z</time>
      </trkpt>
      <trkpt lat="45.80501" lon="6.54452">
        <ele>1302.9</ele>
        <time>2022-06-15T12:13:22Z</time>
      </trkpt>
      <trkpt lat="45.80501" lon="6.54444">
        <ele>1303.2</ele>
        <time>2022-06-15T12:13:23Z</time>
      </trkpt>
      <trkpt lat="45.805" lon="6.54435">
        <ele>1303.3</ele>
        <time>2022-06-15T12:13:24Z</time>
      </trkpt>
      <trkpt lat="45.80499" lon="6.54426">
        <ele>1303.2</ele>
        <time>2022-06-15T12:13:25Z</time>
      </trkpt>
      <trkpt lat="45.80498" lon="6.54418">
        <ele>1303</ele>
        <time>2022-06-15T12:13:26Z</time>
      </trkpt>
      <trkpt lat="45.80497" lon="6.5441">
        <ele>1303</ele>
        <time>2022-06-15T12:13:27Z</time>
      </trkpt>
      <trkpt lat="45.80496" lon="6.54402">
        <ele>1303</ele>
        <time>2022-06-15T12:13:28Z</time>
      </trkpt>
      <trkpt lat="45.80495" lon="6.54394">
        <ele>1303.1</ele>
        <time>2022-06-15T12:13:29Z</time>
      </trkpt>
      <trkpt lat="45.80495" lon="6.54386">
        <ele>1303.2</ele>
        <time>2022-06-15T12:13:30Z</time>
      </trkpt>
      <trkpt lat="45.80494" lon="6.54378">
        <ele>1303.3</ele>
        <time>2022-06-15T12:13:31Z</time>
      </trkpt>
      <trkpt lat="45.80494" lon="6.5437">
        <ele>1303.3</ele>
        <time>2022-06-15T12:13:32Z</time>
      </trkpt>
      <trkpt lat="45.80493" lon="6.54362">
        <ele>1303.3</ele>
        <time>2022-06-15T12:13:33Z</time>
      </trkpt>
      <trkpt lat="45.80492" lon="6.54355">
        <ele>1303.3</ele>
        <time>2022-06-15T12:13:34Z</time>
      </trkpt>
      <trkpt lat="45.80491" lon="6.54348">
        <ele>1303</ele>
        <time>2022-06-15T12:13:35Z</time>
      </trkpt>
      <trkpt lat="45.8049" lon="6.5434">
        <ele>1302.9</ele>
        <time>2022-06-15T12:13:36Z</time>
      </trkpt>
      <trkpt lat="45.80489" lon="6.54334">
        <ele>1302.8</ele>
        <time>2022-06-15T12:13:37Z</time>
      </trkpt>
      <trkpt lat="45.80488" lon="6.54327">
        <ele>1302.9</ele>
        <time>2022-06-15T12:13:38Z</time>
      </trkpt>
      <trkpt lat="45.80487" lon="6.5432">
        <ele>1303.1</ele>
        <time>2022-06-15T12:13:39Z</time>
      </trkpt>
      <trkpt lat="45.80486" lon="6.54312">
        <ele>1303.4</ele>
        <time>2022-06-15T12:13:40Z</time>
      </trkpt>
      <trkpt lat="45.80485" lon="6.54305">
        <ele>1303.6</ele>
        <time>2022-06-15T12:13:41Z</time>
      </trkpt>
      <trkpt lat="45.80483" lon="6.54298">
        <ele>1303.7</ele>
        <time>2022-06-15T12:13:42Z</time>
      </trkpt>
      <trkpt lat="45.80482" lon="6.54291">
        <ele>1303.8</ele>
        <time>2022-06-15T12:13:43Z</time>
      </trkpt>
      <trkpt lat="45.8048" lon="6.54285">
        <ele>1303.9</ele>
        <time>2022-06-15T12:13:44Z</time>
      </trkpt>
      <trkpt lat="45.80479" lon="6.54278">
        <ele>1304.2</ele>
        <time>2022-06-15T12:13:45Z</time>
      </trkpt>
      <trkpt lat="45.80478" lon="6.54272">
        <ele>1304</ele>
        <time>2022-06-15T12:13:46Z</time>
      </trkpt>
      <trkpt lat="45.80477" lon="6.54266">
        <ele>1303.8</ele>
        <time>2022-06-15T12:13:47Z</time>
      </trkpt>
      <trkpt lat="45.80476" lon="6.5426">
        <ele>1303.6</ele>
        <time>2022-06-15T12:13:48Z</time>
      </trkpt>
      <trkpt lat="45.80474" lon="6.54253">
        <ele>1303.3</ele>
        <time>2022-06-15T12:13:49Z</time>
      </trkpt>
      <trkpt lat="45.80472" lon="6.54246">
        <ele>1303</ele>
        <time>2022-06-15T12:13:50Z</time>
      </trkpt>
      <trkpt lat="45.8047" lon="6.54239">
        <ele>1302.5</ele>
        <time>2022-06-15T12:13:51Z</time>
      </trkpt>
      <trkpt lat="45.80468" lon="6.54231">
        <ele>1302.2</ele>
        <time>2022-06-15T12:13:52Z</time>
      </trkpt>
      <trkpt lat="45.80467" lon="6.54223">
        <ele>1302</ele>
        <time>2022-06-15T12:13:53Z</time>
      </trkpt>
      <trkpt lat="45.80465" lon="6.54215">
        <ele>1302.1</ele>
        <time>2022-06-15T12:13:54Z</time>
      </trkpt>
      <trkpt lat="45.80463" lon="6.54207">
        <ele>1302.1</ele>
        <time>2022-06-15T12:13:55Z</time>
      </trkpt>
      <trkpt lat="45.80461" lon="6.54199">
        <ele>1302</ele>
        <time>2022-06-15T12:13:56Z</time>
      </trkpt>
      <trkpt lat="45.80459" lon="6.54191">
        <ele>1301.8</ele>
        <time>2022-06-15T12:13:57Z</time>
      </trkpt>
      <trkpt lat="45.80457" lon="6.54182">
        <ele>1301.5</ele>
        <time>2022-06-15T12:13:58Z</time>
      </trkpt>
      <trkpt lat="45.80456" lon="6.54173">
        <ele>1301.1</ele>
        <time>2022-06-15T12:13:59Z</time>
      </trkpt>
      <trkpt lat="45.80453" lon="6.54164">
        <ele>1300.7</ele>
        <time>2022-06-15T12:14:00Z</time>
      </trkpt>
      <trkpt lat="45.80451" lon="6.54154">
        <ele>1300.4</ele>
        <time>2022-06-15T12:14:01Z</time>
      </trkpt>
      <trkpt lat="45.80449" lon="6.54144">
        <ele>1300.1</ele>
        <time>2022-06-15T12:14:02Z</time>
      </trkpt>
      <trkpt lat="45.80447" lon="6.54134">
        <ele>1299.7</ele>
        <time>2022-06-15T12:14:03Z</time>
      </trkpt>
      <trkpt lat="45.80445" lon="6.54123">
        <ele>1299</ele>
        <time>2022-06-15T12:14:04Z</time>
      </trkpt>
      <trkpt lat="45.80442" lon="6.54112">
        <ele>1298.2</ele>
        <time>2022-06-15T12:14:05Z</time>
      </trkpt>
      <trkpt lat="45.8044" lon="6.54101">
        <ele>1297.5</ele>
        <time>2022-06-15T12:14:06Z</time>
      </trkpt>
      <trkpt lat="45.80439" lon="6.54089">
        <ele>1296.7</ele>
        <time>2022-06-15T12:14:07Z</time>
      </trkpt>
      <trkpt lat="45.80438" lon="6.54077">
        <ele>1296.1</ele>
        <time>2022-06-15T12:14:08Z</time>
      </trkpt>
      <trkpt lat="45.80437" lon="6.54065">
        <ele>1295.5</ele>
        <time>2022-06-15T12:14:09Z</time>
      </trkpt>
      <trkpt lat="45.80438" lon="6.54052">
        <ele>1295</ele>
        <time>2022-06-15T12:14:10Z</time>
      </trkpt>
      <trkpt lat="45.80439" lon="6.54039">
        <ele>1294</ele>
        <time>2022-06-15T12:14:11Z</time>
      </trkpt>
      <trkpt lat="45.8044" lon="6.54026">
        <ele>1293.2</ele>
        <time>2022-06-15T12:14:12Z</time>
      </trkpt>
      <trkpt lat="45.80442" lon="6.54013">
        <ele>1292.5</ele>
        <time>2022-06-15T12:14:13Z</time>
      </trkpt>
      <trkpt lat="45.80444" lon="6.54">
        <ele>1291.9</ele>
        <time>2022-06-15T12:14:14Z</time>
      </trkpt>
      <trkpt lat="45.80447" lon="6.53987">
        <ele>1292.3</ele>
        <time>2022-06-15T12:14:15Z</time>
      </trkpt>
      <trkpt lat="45.8045" lon="6.53973">
        <ele>1292.5</ele>
        <time>2022-06-15T12:14:16Z</time>
      </trkpt>
      <trkpt lat="45.80452" lon="6.53959">
        <ele>1291.7</ele>
        <time>2022-06-15T12:14:17Z</time>
      </trkpt>
      <trkpt lat="45.80455" lon="6.53945">
        <ele>1290.9</ele>
        <time>2022-06-15T12:14:18Z</time>
      </trkpt>
      <trkpt lat="45.80458" lon="6.53931">
        <ele>1289.8</ele>
        <time>2022-06-15T12:14:19Z</time>
      </trkpt>
      <trkpt lat="45.80462" lon="6.53917">
        <ele>1288.6</ele>
        <time>2022-06-15T12:14:20Z</time>
      </trkpt>
      <trkpt lat="45.80468" lon="6.53904">
        <ele>1287.5</ele>
        <time>2022-06-15T12:14:21Z</time>
      </trkpt>
      <trkpt lat="45.80474" lon="6.53891">
        <ele>1286.8</ele>
        <time>2022-06-15T12:14:22Z</time>
      </trkpt>
      <trkpt lat="45.80481" lon="6.53878">
        <ele>1286.6</ele>
        <time>2022-06-15T12:14:23Z</time>
      </trkpt>
      <trkpt lat="45.80487" lon="6.53866">
        <ele>1286.1</ele>
        <time>2022-06-15T12:14:24Z</time>
      </trkpt>
      <trkpt lat="45.80494" lon="6.53854">
        <ele>1285.1</ele>
        <time>2022-06-15T12:14:25Z</time>
      </trkpt>
      <trkpt lat="45.80501" lon="6.53842">
        <ele>1284.4</ele>
        <time>2022-06-15T12:14:26Z</time>
      </trkpt>
      <trkpt lat="45.80505" lon="6.53828">
        <ele>1284.1</ele>
        <time>2022-06-15T12:14:27Z</time>
      </trkpt>
      <trkpt lat="45.80507" lon="6.53813">
        <ele>1283.8</ele>
        <time>2022-06-15T12:14:28Z</time>
      </trkpt>
      <trkpt lat="45.80506" lon="6.53798">
        <ele>1283.1</ele>
        <time>2022-06-15T12:14:29Z</time>
      </trkpt>
      <trkpt lat="45.80504" lon="6.53784">
        <ele>1283.2</ele>
        <time>2022-06-15T12:14:30Z</time>
      </trkpt>
      <trkpt lat="45.80502" lon="6.53769">
        <ele>1282.2</ele>
        <time>2022-06-15T12:14:31Z</time>
      </trkpt>
      <trkpt lat="45.80503" lon="6.53754">
        <ele>1281.6</ele>
        <time>2022-06-15T12:14:32Z</time>
      </trkpt>
      <trkpt lat="45.80505" lon="6.53739">
        <ele>1280.7</ele>
        <time>2022-06-15T12:14:33Z</time>
      </trkpt>
      <trkpt lat="45.80506" lon="6.53723">
        <ele>1279.4</ele>
        <time>2022-06-15T12:14:34Z</time>
      </trkpt>
      <trkpt lat="45.80504" lon="6.53708">
        <ele>1278.9</ele>
        <time>2022-06-15T12:14:35Z</time>
      </trkpt>
      <trkpt lat="45.805" lon="6.53693">
        <ele>1277.4</ele>
        <time>2022-06-15T12:14:36Z</time>
      </trkpt>
      <trkpt lat="45.80494" lon="6.53679">
        <ele>1277.9</ele>
        <time>2022-06-15T12:14:37Z</time>
      </trkpt>
      <trkpt lat="45.80487" lon="6.53665">
        <ele>1278.5</ele>
        <time>2022-06-15T12:14:38Z</time>
      </trkpt>
      <trkpt lat="45.80481" lon="6.5365">
        <ele>1277</ele>
        <time>2022-06-15T12:14:39Z</time>
      </trkpt>
      <trkpt lat="45.80478" lon="6.53634">
        <ele>1275.7</ele>
        <time>2022-06-15T12:14:40Z</time>
      </trkpt>
      <trkpt lat="45.80476" lon="6.53617">
        <ele>1274</ele>
        <time>2022-06-15T12:14:41Z</time>
      </trkpt>
      <trkpt lat="45.80473" lon="6.536">
        <ele>1272.4</ele>
        <time>2022-06-15T12:14:42Z</time>
      </trkpt>
      <trkpt lat="45.80469" lon="6.53584">
        <ele>1270.2</ele>
        <time>2022-06-15T12:14:43Z</time>
      </trkpt>
      <trkpt lat="45.80463" lon="6.53568">
        <ele>1269.9</ele>
        <time>2022-06-15T12:14:44Z</time>
      </trkpt>
      <trkpt lat="45.80456" lon="6.53553">
        <ele>1269.8</ele>
        <time>2022-06-15T12:14:45Z</time>
      </trkpt>
      <trkpt lat="45.80448" lon="6.5354">
        <ele>1268.7</ele>
        <time>2022-06-15T12:14:46Z</time>
      </trkpt>
      <trkpt lat="45.80443" lon="6.53526">
        <ele>1268.4</ele>
        <time>2022-06-15T12:14:47Z</time>
      </trkpt>
      <trkpt lat="45.8044" lon="6.5351">
        <ele>1267.5</ele>
        <time>2022-06-15T12:14:48Z</time>
      </trkpt>
      <trkpt lat="45.8044" lon="6.53494">
        <ele>1266.9</ele>
        <time>2022-06-15T12:14:49Z</time>
      </trkpt>
      <trkpt lat="45.80441" lon="6.53478">
        <ele>1265.4</ele>
        <time>2022-06-15T12:14:50Z</time>
      </trkpt>
      <trkpt lat="45.80441" lon="6.53461">
        <ele>1263.9</ele>
        <time>2022-06-15T12:14:51Z</time>
      </trkpt>
      <trkpt lat="45.80441" lon="6.53443">
        <ele>1262.4</ele>
        <time>2022-06-15T12:14:52Z</time>
      </trkpt>
      <trkpt lat="45.80441" lon="6.53426">
        <ele>1262.9</ele>
        <time>2022-06-15T12:14:53Z</time>
      </trkpt>
      <trkpt lat="45.80441" lon="6.53408">
        <ele>1262.4</ele>
        <time>2022-06-15T12:14:54Z</time>
      </trkpt>
      <trkpt lat="45.80443" lon="6.53391">
        <ele>1260.8</ele>
        <time>2022-06-15T12:14:55Z</time>
      </trkpt>
      <trkpt lat="45.80445" lon="6.53373">
        <ele>1260</ele>
        <time>2022-06-15T12:14:56Z</time>
      </trkpt>
      <trkpt lat="45.80448" lon="6.53356">
        <ele>1259.5</ele>
        <time>2022-06-15T12:14:57Z</time>
      </trkpt>
      <trkpt lat="45.8045" lon="6.53338">
        <ele>1258.8</ele>
        <time>2022-06-15T12:14:58Z</time>
      </trkpt>
      <trkpt lat="45.80453" lon="6.53321">
        <ele>1258.3</ele>
        <time>2022-06-15T12:14:59Z</time>
      </trkpt>
      <trkpt lat="45.80456" lon="6.53303">
        <ele>1257.7</ele>
        <time>2022-06-15T12:15:00Z</time>
      </trkpt>
      <trkpt lat="45.80458" lon="6.53286">
        <ele>1257.1</ele>
        <time>2022-06-15T12:15:01Z</time>
      </trkpt>
      <trkpt lat="45.80461" lon="6.53268">
        <ele>1256.3</ele>
        <time>2022-06-15T12:15:02Z</time>
      </trkpt>
      <trkpt lat="45.80462" lon="6.5325">
        <ele>1255.5</ele>
        <time>2022-06-15T12:15:03Z</time>
      </trkpt>
      <trkpt lat="45.80464" lon="6.53232">
        <ele>1254.3</ele>
        <time>2022-06-15T12:15:04Z</time>
      </trkpt>
      <trkpt lat="45.80464" lon="6.53215">
        <ele>1253.1</ele>
        <time>2022-06-15T12:15:05Z</time>
      </trkpt>
      <trkpt lat="45.80464" lon="6.53196">
        <ele>1251.9</ele>
        <time>2022-06-15T12:15:06Z</time>
      </trkpt>
      <trkpt lat="45.80463" lon="6.53179">
        <ele>1251.1</ele>
        <time>2022-06-15T12:15:07Z</time>
      </trkpt>
      <trkpt lat="45.80462" lon="6.53162">
        <ele>1250.3</ele>
        <time>2022-06-15T12:15:08Z</time>
      </trkpt>
      <trkpt lat="45.80461" lon="6.53144">
        <ele>1249</ele>
        <time>2022-06-15T12:15:09Z</time>
      </trkpt>
      <trkpt lat="45.80459" lon="6.53127">
        <ele>1247.9</ele>
        <time>2022-06-15T12:15:10Z</time>
      </trkpt>
      <trkpt lat="45.80457" lon="6.53111">
        <ele>1247</ele>
        <time>2022-06-15T12:15:11Z</time>
      </trkpt>
      <trkpt lat="45.80457" lon="6.53096">
        <ele>1246.5</ele>
        <time>2022-06-15T12:15:12Z</time>
      </trkpt>
      <trkpt lat="45.80459" lon="6.53082">
        <ele>1245.9</ele>
        <time>2022-06-15T12:15:13Z</time>
      </trkpt>
      <trkpt lat="45.80464" lon="6.53069">
        <ele>1245.1</ele>
        <time>2022-06-15T12:15:14Z</time>
      </trkpt>
      <trkpt lat="45.80471" lon="6.53058">
        <ele>1244.2</ele>
        <time>2022-06-15T12:15:15Z</time>
      </trkpt>
      <trkpt lat="45.8048" lon="6.53049">
        <ele>1243.3</ele>
        <time>2022-06-15T12:15:16Z</time>
      </trkpt>
      <trkpt lat="45.8049" lon="6.53041">
        <ele>1242.3</ele>
        <time>2022-06-15T12:15:17Z</time>
      </trkpt>
      <trkpt lat="45.80499" lon="6.53032">
        <ele>1241.4</ele>
        <time>2022-06-15T12:15:18Z</time>
      </trkpt>
      <trkpt lat="45.80508" lon="6.53022">
        <ele>1240.4</ele>
        <time>2022-06-15T12:15:19Z</time>
      </trkpt>
      <trkpt lat="45.80516" lon="6.53009">
        <ele>1239.4</ele>
        <time>2022-06-15T12:15:20Z</time>
      </trkpt>
      <trkpt lat="45.80524" lon="6.52996">
        <ele>1238.9</ele>
        <time>2022-06-15T12:15:21Z</time>
      </trkpt>
      <trkpt lat="45.80532" lon="6.52982">
        <ele>1237.9</ele>
        <time>2022-06-15T12:15:22Z</time>
      </trkpt>
      <trkpt lat="45.8054" lon="6.52969">
        <ele>1237.3</ele>
        <time>2022-06-15T12:15:23Z</time>
      </trkpt>
      <trkpt lat="45.80546" lon="6.52959">
        <ele>1236.5</ele>
        <time>2022-06-15T12:15:24Z</time>
      </trkpt>
      <trkpt lat="45.80552" lon="6.5295">
        <ele>1235.7</ele>
        <time>2022-06-15T12:15:25Z</time>
      </trkpt>
      <trkpt lat="45.80555" lon="6.52943">
        <ele>1234.7</ele>
        <time>2022-06-15T12:15:26Z</time>
      </trkpt>
      <trkpt lat="45.80557" lon="6.52938">
        <ele>1233.8</ele>
        <time>2022-06-15T12:15:27Z</time>
      </trkpt>
      <trkpt lat="45.80557" lon="6.52935">
        <ele>1233.2</ele>
        <time>2022-06-15T12:15:28Z</time>
      </trkpt>
      <trkpt lat="45.80557" lon="6.52932">
        <ele>1232.4</ele>
        <time>2022-06-15T12:15:29Z</time>
      </trkpt>
      <trkpt lat="45.80559" lon="6.52926">
        <ele>1231.6</ele>
        <time>2022-06-15T12:15:30Z</time>
      </trkpt>
      <trkpt lat="45.80561" lon="6.52923">
        <ele>1231.4</ele>
        <time>2022-06-15T12:15:31Z</time>
      </trkpt>
      <trkpt lat="45.80563" lon="6.52919">
        <ele>1231.2</ele>
        <time>2022-06-15T12:15:32Z</time>
      </trkpt>
      <trkpt lat="45.80566" lon="6.52916">
        <ele>1231.1</ele>
        <time>2022-06-15T12:15:47Z</time>
      </trkpt>
      <trkpt lat="45.80568" lon="6.52913">
        <ele>1230.9</ele>
        <time>2022-06-15T12:15:48Z</time>
      </trkpt>
      <trkpt lat="45.80572" lon="6.52906">
        <ele>1230.2</ele>
        <time>2022-06-15T12:15:49Z</time>
      </trkpt>
      <trkpt lat="45.80574" lon="6.52897">
        <ele>1229.2</ele>
        <time>2022-06-15T12:15:50Z</time>
      </trkpt>
      <trkpt lat="45.80577" lon="6.52887">
        <ele>1228.3</ele>
        <time>2022-06-15T12:15:51Z</time>
      </trkpt>
      <trkpt lat="45.80579" lon="6.52876">
        <ele>1227.9</ele>
        <time>2022-06-15T12:15:52Z</time>
      </trkpt>
      <trkpt lat="45.80583" lon="6.52865">
        <ele>1228</ele>
        <time>2022-06-15T12:15:53Z</time>
      </trkpt>
      <trkpt lat="45.80587" lon="6.52854">
        <ele>1227.4</ele>
        <time>2022-06-15T12:15:54Z</time>
      </trkpt>
      <trkpt lat="45.80593" lon="6.52843">
        <ele>1226.5</ele>
        <time>2022-06-15T12:15:55Z</time>
      </trkpt>
      <trkpt lat="45.806" lon="6.52832">
        <ele>1225.7</ele>
        <time>2022-06-15T12:15:56Z</time>
      </trkpt>
      <trkpt lat="45.80606" lon="6.52821">
        <ele>1224.3</ele>
        <time>2022-06-15T12:15:57Z</time>
      </trkpt>
      <trkpt lat="45.80614" lon="6.5281">
        <ele>1223.6</ele>
        <time>2022-06-15T12:15:58Z</time>
      </trkpt>
      <trkpt lat="45.80621" lon="6.52797">
        <ele>1223</ele>
        <time>2022-06-15T12:15:59Z</time>
      </trkpt>
      <trkpt lat="45.80628" lon="6.52784">
        <ele>1222.1</ele>
        <time>2022-06-15T12:16:00Z</time>
      </trkpt>
      <trkpt lat="45.80634" lon="6.5277">
        <ele>1221.2</ele>
        <time>2022-06-15T12:16:01Z</time>
      </trkpt>
      <trkpt lat="45.80641" lon="6.52756">
        <ele>1220.5</ele>
        <time>2022-06-15T12:16:02Z</time>
      </trkpt>
      <trkpt lat="45.80647" lon="6.52741">
        <ele>1219.2</ele>
        <time>2022-06-15T12:16:03Z</time>
      </trkpt>
      <trkpt lat="45.80653" lon="6.52725">
        <ele>1217.1</ele>
        <time>2022-06-15T12:16:04Z</time>
      </trkpt>
      <trkpt lat="45.80658" lon="6.52709">
        <ele>1215.7</ele>
        <time>2022-06-15T12:16:05Z</time>
      </trkpt>
      <trkpt lat="45.80663" lon="6.52691">
        <ele>1214.4</ele>
        <time>2022-06-15T12:16:06Z</time>
      </trkpt>
      <trkpt lat="45.80667" lon="6.52674">
        <ele>1214.8</ele>
        <time>2022-06-15T12:16:07Z</time>
      </trkpt>
      <trkpt lat="45.80673" lon="6.52656">
        <ele>1214.5</ele>
        <time>2022-06-15T12:16:08Z</time>
      </trkpt>
      <trkpt lat="45.80679" lon="6.52638">
        <ele>1212.8</ele>
        <time>2022-06-15T12:16:09Z</time>
      </trkpt>
      <trkpt lat="45.80685" lon="6.5262">
        <ele>1210.8</ele>
        <time>2022-06-15T12:16:10Z</time>
      </trkpt>
      <trkpt lat="45.8069" lon="6.52602">
        <ele>1209.3</ele>
        <time>2022-06-15T12:16:11Z</time>
      </trkpt>
      <trkpt lat="45.80695" lon="6.52583">
        <ele>1207.3</ele>
        <time>2022-06-15T12:16:12Z</time>
      </trkpt>
      <trkpt lat="45.80701" lon="6.52565">
        <ele>1206.8</ele>
        <time>2022-06-15T12:16:13Z</time>
      </trkpt>
      <trkpt lat="45.80708" lon="6.52549">
        <ele>1205.1</ele>
        <time>2022-06-15T12:16:14Z</time>
      </trkpt>
      <trkpt lat="45.80717" lon="6.52534">
        <ele>1203.2</ele>
        <time>2022-06-15T12:16:15Z</time>
      </trkpt>
      <trkpt lat="45.80727" lon="6.52519">
        <ele>1201.9</ele>
        <time>2022-06-15T12:16:16Z</time>
      </trkpt>
      <trkpt lat="45.80737" lon="6.52505">
        <ele>1200.2</ele>
        <time>2022-06-15T12:16:17Z</time>
      </trkpt>
      <trkpt lat="45.80747" lon="6.52491">
        <ele>1198.9</ele>
        <time>2022-06-15T12:16:18Z</time>
      </trkpt>
      <trkpt lat="45.80759" lon="6.5248">
        <ele>1197.7</ele>
        <time>2022-06-15T12:16:19Z</time>
      </trkpt>
      <trkpt lat="45.80772" lon="6.52471">
        <ele>1196.6</ele>
        <time>2022-06-15T12:16:20Z</time>
      </trkpt>
      <trkpt lat="45.80785" lon="6.52462">
        <ele>1196.1</ele>
        <time>2022-06-15T12:16:21Z</time>
      </trkpt>
      <trkpt lat="45.80797" lon="6.52451">
        <ele>1195</ele>
        <time>2022-06-15T12:16:22Z</time>
      </trkpt>
      <trkpt lat="45.80809" lon="6.52439">
        <ele>1193.3</ele>
        <time>2022-06-15T12:16:23Z</time>
      </trkpt>
      <trkpt lat="45.80821" lon="6.52426">
        <ele>1191.5</ele>
        <time>2022-06-15T12:16:24Z</time>
      </trkpt>
      <trkpt lat="45.80832" lon="6.52412">
        <ele>1189.2</ele>
        <time>2022-06-15T12:16:25Z</time>
      </trkpt>
      <trkpt lat="45.80843" lon="6.52397">
        <ele>1187.7</ele>
        <time>2022-06-15T12:16:26Z</time>
      </trkpt>
      <trkpt lat="45.80853" lon="6.52381">
        <ele>1186.9</ele>
        <time>2022-06-15T12:16:27Z</time>
      </trkpt>
      <trkpt lat="45.80862" lon="6.52364">
        <ele>1186.4</ele>
        <time>2022-06-15T12:16:28Z</time>
      </trkpt>
      <trkpt lat="45.80872" lon="6.52346">
        <ele>1185.3</ele>
        <time>2022-06-15T12:16:29Z</time>
      </trkpt>
      <trkpt lat="45.8088" lon="6.52328">
        <ele>1183.9</ele>
        <time>2022-06-15T12:16:30Z</time>
      </trkpt>
      <trkpt lat="45.80887" lon="6.52308">
        <ele>1183</ele>
        <time>2022-06-15T12:16:31Z</time>
      </trkpt>
      <trkpt lat="45.80893" lon="6.52288">
        <ele>1181.4</ele>
        <time>2022-06-15T12:16:32Z</time>
      </trkpt>
      <trkpt lat="45.80897" lon="6.52266">
        <ele>1179.8</ele>
        <time>2022-06-15T12:16:33Z</time>
      </trkpt>
      <trkpt lat="45.809" lon="6.52245">
        <ele>1178.5</ele>
        <time>2022-06-15T12:16:34Z</time>
      </trkpt>
      <trkpt lat="45.80904" lon="6.52225">
        <ele>1177.7</ele>
        <time>2022-06-15T12:16:35Z</time>
      </trkpt>
      <trkpt lat="45.80907" lon="6.52208">
        <ele>1176.6</ele>
        <time>2022-06-15T12:16:36Z</time>
      </trkpt>
      <trkpt lat="45.80912" lon="6.52193">
        <ele>1175.7</ele>
        <time>2022-06-15T12:16:37Z</time>
      </trkpt>
      <trkpt lat="45.80918" lon="6.52182">
        <ele>1175.1</ele>
        <time>2022-06-15T12:16:38Z</time>
      </trkpt>
      <trkpt lat="45.80926" lon="6.52174">
        <ele>1174.1</ele>
        <time>2022-06-15T12:16:39Z</time>
      </trkpt>
      <trkpt lat="45.80935" lon="6.52171">
        <ele>1173.3</ele>
        <time>2022-06-15T12:16:40Z</time>
      </trkpt>
      <trkpt lat="45.80943" lon="6.52169">
        <ele>1172.5</ele>
        <time>2022-06-15T12:16:41Z</time>
      </trkpt>
      <trkpt lat="45.80949" lon="6.52165">
        <ele>1171.8</ele>
        <time>2022-06-15T12:16:42Z</time>
      </trkpt>
      <trkpt lat="45.80954" lon="6.52157">
        <ele>1171</ele>
        <time>2022-06-15T12:16:43Z</time>
      </trkpt>
      <trkpt lat="45.80955" lon="6.52147">
        <ele>1169.8</ele>
        <time>2022-06-15T12:16:44Z</time>
      </trkpt>
      <trkpt lat="45.80952" lon="6.52136">
        <ele>1168.7</ele>
        <time>2022-06-15T12:16:45Z</time>
      </trkpt>
      <trkpt lat="45.80947" lon="6.52127">
        <ele>1167.9</ele>
        <time>2022-06-15T12:16:46Z</time>
      </trkpt>
      <trkpt lat="45.8094" lon="6.52119">
        <ele>1167.4</ele>
        <time>2022-06-15T12:16:47Z</time>
      </trkpt>
      <trkpt lat="45.80933" lon="6.52112">
        <ele>1167</ele>
        <time>2022-06-15T12:16:48Z</time>
      </trkpt>
      <trkpt lat="45.80925" lon="6.52105">
        <ele>1166.5</ele>
        <time>2022-06-15T12:16:49Z</time>
      </trkpt>
      <trkpt lat="45.80917" lon="6.52097">
        <ele>1166</ele>
        <time>2022-06-15T12:16:50Z</time>
      </trkpt>
      <trkpt lat="45.80909" lon="6.5209">
        <ele>1164.8</ele>
        <time>2022-06-15T12:16:51Z</time>
      </trkpt>
      <trkpt lat="45.809" lon="6.52082">
        <ele>1163.8</ele>
        <time>2022-06-15T12:16:52Z</time>
      </trkpt>
      <trkpt lat="45.80891" lon="6.52074">
        <ele>1163</ele>
        <time>2022-06-15T12:16:53Z</time>
      </trkpt>
      <trkpt lat="45.80882" lon="6.52067">
        <ele>1162.2</ele>
        <time>2022-06-15T12:16:54Z</time>
      </trkpt>
      <trkpt lat="45.80871" lon="6.52063">
        <ele>1161.6</ele>
        <time>2022-06-15T12:16:55Z</time>
      </trkpt>
      <trkpt lat="45.8086" lon="6.52063">
        <ele>1161.4</ele>
        <time>2022-06-15T12:16:56Z</time>
      </trkpt>
      <trkpt lat="45.80849" lon="6.52065">
        <ele>1160.9</ele>
        <time>2022-06-15T12:16:57Z</time>
      </trkpt>
      <trkpt lat="45.80839" lon="6.52068">
        <ele>1160.7</ele>
        <time>2022-06-15T12:16:58Z</time>
      </trkpt>
      <trkpt lat="45.80831" lon="6.52068">
        <ele>1159.7</ele>
        <time>2022-06-15T12:16:59Z</time>
      </trkpt>
      <trkpt lat="45.80825" lon="6.52063">
        <ele>1157.7</ele>
        <time>2022-06-15T12:17:00Z</time>
      </trkpt>
      <trkpt lat="45.80824" lon="6.52054">
        <ele>1156.6</ele>
        <time>2022-06-15T12:17:01Z</time>
      </trkpt>
      <trkpt lat="45.80827" lon="6.52045">
        <ele>1156</ele>
        <time>2022-06-15T12:17:02Z</time>
      </trkpt>
      <trkpt lat="45.80833" lon="6.52038">
        <ele>1156.3</ele>
        <time>2022-06-15T12:17:03Z</time>
      </trkpt>
      <trkpt lat="45.8084" lon="6.52032">
        <ele>1155.9</ele>
        <time>2022-06-15T12:17:04Z</time>
      </trkpt>
      <trkpt lat="45.80848" lon="6.52026">
        <ele>1155.2</ele>
        <time>2022-06-15T12:17:05Z</time>
      </trkpt>
      <trkpt lat="45.80856" lon="6.52019">
        <ele>1154.7</ele>
        <time>2022-06-15T12:17:06Z</time>
      </trkpt>
      <trkpt lat="45.80864" lon="6.52011">
        <ele>1154.1</ele>
        <time>2022-06-15T12:17:07Z</time>
      </trkpt>
      <trkpt lat="45.80873" lon="6.52004">
        <ele>1152.7</ele>
        <time>2022-06-15T12:17:08Z</time>
      </trkpt>
      <trkpt lat="45.80882" lon="6.51998">
        <ele>1151.2</ele>
        <time>2022-06-15T12:17:09Z</time>
      </trkpt>
      <trkpt lat="45.80893" lon="6.51995">
        <ele>1150</ele>
        <time>2022-06-15T12:17:10Z</time>
      </trkpt>
      <trkpt lat="45.80904" lon="6.51994">
        <ele>1148.9</ele>
        <time>2022-06-15T12:17:11Z</time>
      </trkpt>
      <trkpt lat="45.80915" lon="6.51997">
        <ele>1148.4</ele>
        <time>2022-06-15T12:17:12Z</time>
      </trkpt>
      <trkpt lat="45.80926" lon="6.52002">
        <ele>1147.7</ele>
        <time>2022-06-15T12:17:13Z</time>
      </trkpt>
      <trkpt lat="45.80937" lon="6.52007">
        <ele>1146.8</ele>
        <time>2022-06-15T12:17:14Z</time>
      </trkpt>
      <trkpt lat="45.80947" lon="6.52011">
        <ele>1145.7</ele>
        <time>2022-06-15T12:17:15Z</time>
      </trkpt>
      <trkpt lat="45.80956" lon="6.52012">
        <ele>1145.2</ele>
        <time>2022-06-15T12:17:16Z</time>
      </trkpt>
      <trkpt lat="45.80964" lon="6.5201">
        <ele>1144.3</ele>
        <time>2022-06-15T12:17:17Z</time>
      </trkpt>
      <trkpt lat="45.8097" lon="6.52004">
        <ele>1143.3</ele>
        <time>2022-06-15T12:17:18Z</time>
      </trkpt>
      <trkpt lat="45.80974" lon="6.51993">
        <ele>1142.9</ele>
        <time>2022-06-15T12:17:19Z</time>
      </trkpt>
      <trkpt lat="45.80973" lon="6.51981">
        <ele>1142.5</ele>
        <time>2022-06-15T12:17:20Z</time>
      </trkpt>
      <trkpt lat="45.8097" lon="6.5197">
        <ele>1142</ele>
        <time>2022-06-15T12:17:21Z</time>
      </trkpt>
      <trkpt lat="45.80965" lon="6.5196">
        <ele>1141.8</ele>
        <time>2022-06-15T12:17:22Z</time>
      </trkpt>
      <trkpt lat="45.8096" lon="6.51952">
        <ele>1141.3</ele>
        <time>2022-06-15T12:17:23Z</time>
      </trkpt>
      <trkpt lat="45.80955" lon="6.51946">
        <ele>1140.6</ele>
        <time>2022-06-15T12:17:24Z</time>
      </trkpt>
      <trkpt lat="45.8095" lon="6.51939">
        <ele>1139.2</ele>
        <time>2022-06-15T12:17:25Z</time>
      </trkpt>
      <trkpt lat="45.80944" lon="6.51931">
        <ele>1138</ele>
        <time>2022-06-15T12:17:26Z</time>
      </trkpt>
      <trkpt lat="45.80938" lon="6.51923">
        <ele>1137</ele>
        <time>2022-06-15T12:17:27Z</time>
      </trkpt>
      <trkpt lat="45.80932" lon="6.51914">
        <ele>1136</ele>
        <time>2022-06-15T12:17:28Z</time>
      </trkpt>
      <trkpt lat="45.80925" lon="6.51905">
        <ele>1135.2</ele>
        <time>2022-06-15T12:17:29Z</time>
      </trkpt>
      <trkpt lat="45.80918" lon="6.51895">
        <ele>1134.3</ele>
        <time>2022-06-15T12:17:30Z</time>
      </trkpt>
      <trkpt lat="45.80911" lon="6.51884">
        <ele>1133.6</ele>
        <time>2022-06-15T12:17:31Z</time>
      </trkpt>
      <trkpt lat="45.80904" lon="6.51874">
        <ele>1132.8</ele>
        <time>2022-06-15T12:17:32Z</time>
      </trkpt>
      <trkpt lat="45.80896" lon="6.51863">
        <ele>1131.8</ele>
        <time>2022-06-15T12:17:33Z</time>
      </trkpt>
      <trkpt lat="45.80889" lon="6.51852">
        <ele>1130.7</ele>
        <time>2022-06-15T12:17:34Z</time>
      </trkpt>
      <trkpt lat="45.80882" lon="6.51843">
        <ele>1130</ele>
        <time>2022-06-15T12:17:35Z</time>
      </trkpt>
      <trkpt lat="45.80877" lon="6.51836">
        <ele>1129.3</ele>
        <time>2022-06-15T12:17:36Z</time>
      </trkpt>
      <trkpt lat="45.80873" lon="6.51829">
        <ele>1128.8</ele>
        <time>2022-06-15T12:17:37Z</time>
      </trkpt>
      <trkpt lat="45.80868" lon="6.51822">
        <ele>1128.5</ele>
        <time>2022-06-15T12:17:38Z</time>
      </trkpt>
      <trkpt lat="45.80863" lon="6.51815">
        <ele>1128.1</ele>
        <time>2022-06-15T12:17:39Z</time>
      </trkpt>
      <trkpt lat="45.80858" lon="6.51807">
        <ele>1127.6</ele>
        <time>2022-06-15T12:17:40Z</time>
      </trkpt>
      <trkpt lat="45.80852" lon="6.518">
        <ele>1127.1</ele>
        <time>2022-06-15T12:17:41Z</time>
      </trkpt>
      <trkpt lat="45.80847" lon="6.51792">
        <ele>1126.7</ele>
        <time>2022-06-15T12:17:42Z</time>
      </trkpt>
      <trkpt lat="45.80841" lon="6.51785">
        <ele>1126.3</ele>
        <time>2022-06-15T12:17:43Z</time>
      </trkpt>
      <trkpt lat="45.80835" lon="6.51778">
        <ele>1126.1</ele>
        <time>2022-06-15T12:17:44Z</time>
      </trkpt>
      <trkpt lat="45.80829" lon="6.5177">
        <ele>1125.2</ele>
        <time>2022-06-15T12:17:45Z</time>
      </trkpt>
      <trkpt lat="45.80823" lon="6.51763">
        <ele>1124.6</ele>
        <time>2022-06-15T12:17:46Z</time>
      </trkpt>
      <trkpt lat="45.80817" lon="6.51755">
        <ele>1124.3</ele>
        <time>2022-06-15T12:17:47Z</time>
      </trkpt>
      <trkpt lat="45.80812" lon="6.51748">
        <ele>1124.2</ele>
        <time>2022-06-15T12:17:48Z</time>
      </trkpt>
      <trkpt lat="45.80808" lon="6.51742">
        <ele>1123.8</ele>
        <time>2022-06-15T12:17:49Z</time>
      </trkpt>
      <trkpt lat="45.80803" lon="6.51736">
        <ele>1123.2</ele>
        <time>2022-06-15T12:17:50Z</time>
      </trkpt>
      <trkpt lat="45.80799" lon="6.51729">
        <ele>1122.6</ele>
        <time>2022-06-15T12:17:51Z</time>
      </trkpt>
      <trkpt lat="45.80796" lon="6.5172">
        <ele>1122.3</ele>
        <time>2022-06-15T12:17:52Z</time>
      </trkpt>
      <trkpt lat="45.80794" lon="6.51711">
        <ele>1122.2</ele>
        <time>2022-06-15T12:17:53Z</time>
      </trkpt>
      <trkpt lat="45.80794" lon="6.517">
        <ele>1122.2</ele>
        <time>2022-06-15T12:17:54Z</time>
      </trkpt>
      <trkpt lat="45.80797" lon="6.51691">
        <ele>1122</ele>
        <time>2022-06-15T12:17:55Z</time>
      </trkpt>
      <trkpt lat="45.80803" lon="6.51683">
        <ele>1121.6</ele>
        <time>2022-06-15T12:17:56Z</time>
      </trkpt>
      <trkpt lat="45.80809" lon="6.51677">
        <ele>1121.2</ele>
        <time>2022-06-15T12:17:57Z</time>
      </trkpt>
      <trkpt lat="45.80816" lon="6.51672">
        <ele>1120.8</ele>
        <time>2022-06-15T12:17:58Z</time>
      </trkpt>
      <trkpt lat="45.80823" lon="6.51666">
        <ele>1120.5</ele>
        <time>2022-06-15T12:17:59Z</time>
      </trkpt>
      <trkpt lat="45.8083" lon="6.5166">
        <ele>1120.4</ele>
        <time>2022-06-15T12:18:00Z</time>
      </trkpt>
      <trkpt lat="45.80837" lon="6.51654">
        <ele>1120.1</ele>
        <time>2022-06-15T12:18:01Z</time>
      </trkpt>
      <trkpt lat="45.80843" lon="6.51648">
        <ele>1119.8</ele>
        <time>2022-06-15T12:18:02Z</time>
      </trkpt>
      <trkpt lat="45.80849" lon="6.51643">
        <ele>1119.4</ele>
        <time>2022-06-15T12:18:03Z</time>
      </trkpt>
      <trkpt lat="45.80855" lon="6.51637">
        <ele>1118.9</ele>
        <time>2022-06-15T12:18:04Z</time>
      </trkpt>
      <trkpt lat="45.80861" lon="6.51632">
        <ele>1118.5</ele>
        <time>2022-06-15T12:18:05Z</time>
      </trkpt>
      <trkpt lat="45.80868" lon="6.51627">
        <ele>1117.8</ele>
        <time>2022-06-15T12:18:06Z</time>
      </trkpt>
      <trkpt lat="45.80876" lon="6.51622">
        <ele>1117.1</ele>
        <time>2022-06-15T12:18:07Z</time>
      </trkpt>
      <trkpt lat="45.80883" lon="6.51616">
        <ele>1116.4</ele>
        <time>2022-06-15T12:18:08Z</time>
      </trkpt>
      <trkpt lat="45.80891" lon="6.5161">
        <ele>1115.9</ele>
        <time>2022-06-15T12:18:09Z</time>
      </trkpt>
      <trkpt lat="45.80899" lon="6.51603">
        <ele>1115.5</ele>
        <time>2022-06-15T12:18:10Z</time>
      </trkpt>
      <trkpt lat="45.80907" lon="6.51595">
        <ele>1114.8</ele>
        <time>2022-06-15T12:18:11Z</time>
      </trkpt>
      <trkpt lat="45.80917" lon="6.51589">
        <ele>1113.8</ele>
        <time>2022-06-15T12:18:12Z</time>
      </trkpt>
      <trkpt lat="45.80927" lon="6.51587">
        <ele>1112.7</ele>
        <time>2022-06-15T12:18:13Z</time>
      </trkpt>
      <trkpt lat="45.80938" lon="6.51588">
        <ele>1112.2</ele>
        <time>2022-06-15T12:18:14Z</time>
      </trkpt>
      <trkpt lat="45.80948" lon="6.51593">
        <ele>1111.8</ele>
        <time>2022-06-15T12:18:15Z</time>
      </trkpt>
      <trkpt lat="45.80959" lon="6.51597">
        <ele>1111.1</ele>
        <time>2022-06-15T12:18:16Z</time>
      </trkpt>
      <trkpt lat="45.8097" lon="6.516">
        <ele>1110.2</ele>
        <time>2022-06-15T12:18:17Z</time>
      </trkpt>
      <trkpt lat="45.80981" lon="6.516">
        <ele>1110</ele>
        <time>2022-06-15T12:18:18Z</time>
      </trkpt>
      <trkpt lat="45.80992" lon="6.51598">
        <ele>1109.6</ele>
        <time>2022-06-15T12:18:19Z</time>
      </trkpt>
      <trkpt lat="45.81003" lon="6.51593">
        <ele>1109</ele>
        <time>2022-06-15T12:18:20Z</time>
      </trkpt>
      <trkpt lat="45.81013" lon="6.51584">
        <ele>1108.1</ele>
        <time>2022-06-15T12:18:21Z</time>
      </trkpt>
      <trkpt lat="45.81022" lon="6.51573">
        <ele>1106.7</ele>
        <time>2022-06-15T12:18:22Z</time>
      </trkpt>
      <trkpt lat="45.81031" lon="6.51563">
        <ele>1105.9</ele>
        <time>2022-06-15T12:18:23Z</time>
      </trkpt>
      <trkpt lat="45.81041" lon="6.51555">
        <ele>1105.3</ele>
        <time>2022-06-15T12:18:24Z</time>
      </trkpt>
      <trkpt lat="45.81053" lon="6.51549">
        <ele>1104.9</ele>
        <time>2022-06-15T12:18:25Z</time>
      </trkpt>
      <trkpt lat="45.81065" lon="6.51546">
        <ele>1103.7</ele>
        <time>2022-06-15T12:18:26Z</time>
      </trkpt>
      <trkpt lat="45.81077" lon="6.51547">
        <ele>1102.7</ele>
        <time>2022-06-15T12:18:27Z</time>
      </trkpt>
      <trkpt lat="45.81089" lon="6.51552">
        <ele>1102.3</ele>
        <time>2022-06-15T12:18:28Z</time>
      </trkpt>
      <trkpt lat="45.81102" lon="6.51557">
        <ele>1101.7</ele>
        <time>2022-06-15T12:18:29Z</time>
      </trkpt>
      <trkpt lat="45.81114" lon="6.51562">
        <ele>1101</ele>
        <time>2022-06-15T12:18:30Z</time>
      </trkpt>
      <trkpt lat="45.81126" lon="6.51568">
        <ele>1100.4</ele>
        <time>2022-06-15T12:18:31Z</time>
      </trkpt>
      <trkpt lat="45.81138" lon="6.51575">
        <ele>1099.7</ele>
        <time>2022-06-15T12:18:32Z</time>
      </trkpt>
      <trkpt lat="45.81149" lon="6.51582">
        <ele>1098.9</ele>
        <time>2022-06-15T12:18:33Z</time>
      </trkpt>
      <trkpt lat="45.81161" lon="6.51591">
        <ele>1098.3</ele>
        <time>2022-06-15T12:18:34Z</time>
      </trkpt>
      <trkpt lat="45.81172" lon="6.51599">
        <ele>1096.9</ele>
        <time>2022-06-15T12:18:35Z</time>
      </trkpt>
      <trkpt lat="45.81182" lon="6.51607">
        <ele>1096.2</ele>
        <time>2022-06-15T12:18:36Z</time>
      </trkpt>
      <trkpt lat="45.81192" lon="6.51616">
        <ele>1097.1</ele>
        <time>2022-06-15T12:18:37Z</time>
      </trkpt>
      <trkpt lat="45.81204" lon="6.51625">
        <ele>1096.9</ele>
        <time>2022-06-15T12:18:38Z</time>
      </trkpt>
      <trkpt lat="45.81215" lon="6.51633">
        <ele>1095.2</ele>
        <time>2022-06-15T12:18:39Z</time>
      </trkpt>
      <trkpt lat="45.81226" lon="6.51642">
        <ele>1094.2</ele>
        <time>2022-06-15T12:18:40Z</time>
      </trkpt>
      <trkpt lat="45.81237" lon="6.51651">
        <ele>1094.2</ele>
        <time>2022-06-15T12:18:41Z</time>
      </trkpt>
      <trkpt lat="45.81248" lon="6.51659">
        <ele>1093.1</ele>
        <time>2022-06-15T12:18:42Z</time>
      </trkpt>
      <trkpt lat="45.8126" lon="6.51668">
        <ele>1092</ele>
        <time>2022-06-15T12:18:43Z</time>
      </trkpt>
      <trkpt lat="45.81273" lon="6.51678">
        <ele>1091</ele>
        <time>2022-06-15T12:18:44Z</time>
      </trkpt>
      <trkpt lat="45.81284" lon="6.51689">
        <ele>1089.4</ele>
        <time>2022-06-15T12:18:45Z</time>
      </trkpt>
      <trkpt lat="45.81294" lon="6.51702">
        <ele>1089.4</ele>
        <time>2022-06-15T12:18:46Z</time>
      </trkpt>
      <trkpt lat="45.81303" lon="6.51715">
        <ele>1089.6</ele>
        <time>2022-06-15T12:18:47Z</time>
      </trkpt>
      <trkpt lat="45.81312" lon="6.51729">
        <ele>1089.2</ele>
        <time>2022-06-15T12:18:48Z</time>
      </trkpt>
      <trkpt lat="45.81321" lon="6.51742">
        <ele>1088.7</ele>
        <time>2022-06-15T12:18:49Z</time>
      </trkpt>
      <trkpt lat="45.81329" lon="6.51754">
        <ele>1088.1</ele>
        <time>2022-06-15T12:18:50Z</time>
      </trkpt>
      <trkpt lat="45.81339" lon="6.51765">
        <ele>1087</ele>
        <time>2022-06-15T12:18:51Z</time>
      </trkpt>
      <trkpt lat="45.81348" lon="6.51776">
        <ele>1086.4</ele>
        <time>2022-06-15T12:18:52Z</time>
      </trkpt>
      <trkpt lat="45.81358" lon="6.51787">
        <ele>1085.4</ele>
        <time>2022-06-15T12:18:53Z</time>
      </trkpt>
      <trkpt lat="45.81367" lon="6.51798">
        <ele>1085.2</ele>
        <time>2022-06-15T12:18:54Z</time>
      </trkpt>
      <trkpt lat="45.81377" lon="6.5181">
        <ele>1084.7</ele>
        <time>2022-06-15T12:18:55Z</time>
      </trkpt>
      <trkpt lat="45.81387" lon="6.51824">
        <ele>1084.5</ele>
        <time>2022-06-15T12:18:56Z</time>
      </trkpt>
      <trkpt lat="45.81395" lon="6.51838">
        <ele>1083.8</ele>
        <time>2022-06-15T12:18:57Z</time>
      </trkpt>
      <trkpt lat="45.81403" lon="6.51854">
        <ele>1082.4</ele>
        <time>2022-06-15T12:18:58Z</time>
      </trkpt>
      <trkpt lat="45.81411" lon="6.51868">
        <ele>1081.4</ele>
        <time>2022-06-15T12:18:59Z</time>
      </trkpt>
      <trkpt lat="45.81418" lon="6.51884">
        <ele>1081.6</ele>
        <time>2022-06-15T12:19:00Z</time>
      </trkpt>
      <trkpt lat="45.81425" lon="6.519">
        <ele>1081.7</ele>
        <time>2022-06-15T12:19:01Z</time>
      </trkpt>
      <trkpt lat="45.81432" lon="6.51915">
        <ele>1082.2</ele>
        <time>2022-06-15T12:19:02Z</time>
      </trkpt>
      <trkpt lat="45.81438" lon="6.51931">
        <ele>1083.8</ele>
        <time>2022-06-15T12:19:03Z</time>
      </trkpt>
      <trkpt lat="45.81447" lon="6.51946">
        <ele>1084</ele>
        <time>2022-06-15T12:19:04Z</time>
      </trkpt>
      <trkpt lat="45.81454" lon="6.51963">
        <ele>1082</ele>
        <time>2022-06-15T12:19:05Z</time>
      </trkpt>
      <trkpt lat="45.81462" lon="6.5198">
        <ele>1080.1</ele>
        <time>2022-06-15T12:19:06Z</time>
      </trkpt>
      <trkpt lat="45.81471" lon="6.51996">
        <ele>1082.6</ele>
        <time>2022-06-15T12:19:07Z</time>
      </trkpt>
      <trkpt lat="45.8148" lon="6.52012">
        <ele>1081.5</ele>
        <time>2022-06-15T12:19:08Z</time>
      </trkpt>
      <trkpt lat="45.8149" lon="6.52028">
        <ele>1080.5</ele>
        <time>2022-06-15T12:19:09Z</time>
      </trkpt>
      <trkpt lat="45.81498" lon="6.52044">
        <ele>1081</ele>
        <time>2022-06-15T12:19:10Z</time>
      </trkpt>
      <trkpt lat="45.81506" lon="6.5206">
        <ele>1080.8</ele>
        <time>2022-06-15T12:19:11Z</time>
      </trkpt>
      <trkpt lat="45.81515" lon="6.52077">
        <ele>1079.8</ele>
        <time>2022-06-15T12:19:12Z</time>
      </trkpt>
      <trkpt lat="45.81524" lon="6.52094">
        <ele>1080</ele>
        <time>2022-06-15T12:19:13Z</time>
      </trkpt>
      <trkpt lat="45.81536" lon="6.5211">
        <ele>1076.6</ele>
        <time>2022-06-15T12:19:14Z</time>
      </trkpt>
      <trkpt lat="45.81544" lon="6.52128">
        <ele>1075.9</ele>
        <time>2022-06-15T12:19:15Z</time>
      </trkpt>
      <trkpt lat="45.81552" lon="6.52146">
        <ele>1077</ele>
        <time>2022-06-15T12:19:16Z</time>
      </trkpt>
      <trkpt lat="45.8156" lon="6.52162">
        <ele>1075.7</ele>
        <time>2022-06-15T12:19:17Z</time>
      </trkpt>
      <trkpt lat="45.81569" lon="6.52178">
        <ele>1073.9</ele>
        <time>2022-06-15T12:19:18Z</time>
      </trkpt>
      <trkpt lat="45.81579" lon="6.52195">
        <ele>1071.4</ele>
        <time>2022-06-15T12:19:19Z</time>
      </trkpt>
      <trkpt lat="45.81587" lon="6.52212">
        <ele>1068.6</ele>
        <time>2022-06-15T12:19:20Z</time>
      </trkpt>
      <trkpt lat="45.81593" lon="6.52229">
        <ele>1067.8</ele>
        <time>2022-06-15T12:19:21Z</time>
      </trkpt>
      <trkpt lat="45.81597" lon="6.52245">
        <ele>1067.4</ele>
        <time>2022-06-15T12:19:22Z</time>
      </trkpt>
      <trkpt lat="45.81604" lon="6.5226">
        <ele>1065.8</ele>
        <time>2022-06-15T12:19:23Z</time>
      </trkpt>
      <trkpt lat="45.81608" lon="6.52276">
        <ele>1065.3</ele>
        <time>2022-06-15T12:19:24Z</time>
      </trkpt>
      <trkpt lat="45.81612" lon="6.52292">
        <ele>1064.1</ele>
        <time>2022-06-15T12:19:25Z</time>
      </trkpt>
      <trkpt lat="45.81616" lon="6.52307">
        <ele>1063.4</ele>
        <time>2022-06-15T12:19:26Z</time>
      </trkpt>
      <trkpt lat="45.81619" lon="6.52322">
        <ele>1062.7</ele>
        <time>2022-06-15T12:19:27Z</time>
      </trkpt>
      <trkpt lat="45.81623" lon="6.52334">
        <ele>1061.5</ele>
        <time>2022-06-15T12:19:28Z</time>
      </trkpt>
      <trkpt lat="45.81627" lon="6.52343">
        <ele>1060.5</ele>
        <time>2022-06-15T12:19:29Z</time>
      </trkpt>
      <trkpt lat="45.81634" lon="6.52349">
        <ele>1058</ele>
        <time>2022-06-15T12:19:30Z</time>
      </trkpt>
      <trkpt lat="45.81642" lon="6.52352">
        <ele>1055.8</ele>
        <time>2022-06-15T12:19:31Z</time>
      </trkpt>
      <trkpt lat="45.81649" lon="6.52351">
        <ele>1054.2</ele>
        <time>2022-06-15T12:19:32Z</time>
      </trkpt>
      <trkpt lat="45.81656" lon="6.52345">
        <ele>1052.5</ele>
        <time>2022-06-15T12:19:33Z</time>
      </trkpt>
      <trkpt lat="45.81663" lon="6.52338">
        <ele>1051.5</ele>
        <time>2022-06-15T12:19:34Z</time>
      </trkpt>
      <trkpt lat="45.81667" lon="6.52331">
        <ele>1050.8</ele>
        <time>2022-06-15T12:19:35Z</time>
      </trkpt>
      <trkpt lat="45.81669" lon="6.52322">
        <ele>1049.8</ele>
        <time>2022-06-15T12:19:36Z</time>
      </trkpt>
      <trkpt lat="45.8167" lon="6.52312">
        <ele>1049</ele>
        <time>2022-06-15T12:19:37Z</time>
      </trkpt>
      <trkpt lat="45.8167" lon="6.52303">
        <ele>1048.5</ele>
        <time>2022-06-15T12:19:38Z</time>
      </trkpt>
      <trkpt lat="45.81669" lon="6.52292">
        <ele>1048.5</ele>
        <time>2022-06-15T12:19:39Z</time>
      </trkpt>
      <trkpt lat="45.81667" lon="6.5228">
        <ele>1048.9</ele>
        <time>2022-06-15T12:19:40Z</time>
      </trkpt>
      <trkpt lat="45.81665" lon="6.52268">
        <ele>1048.7</ele>
        <time>2022-06-15T12:19:41Z</time>
      </trkpt>
      <trkpt lat="45.81662" lon="6.52256">
        <ele>1048.3</ele>
        <time>2022-06-15T12:19:42Z</time>
      </trkpt>
      <trkpt lat="45.81659" lon="6.52244">
        <ele>1047.2</ele>
        <time>2022-06-15T12:19:43Z</time>
      </trkpt>
      <trkpt lat="45.81656" lon="6.52234">
        <ele>1045.7</ele>
        <time>2022-06-15T12:19:44Z</time>
      </trkpt>
      <trkpt lat="45.81651" lon="6.52223">
        <ele>1044.4</ele>
        <time>2022-06-15T12:19:45Z</time>
      </trkpt>
      <trkpt lat="45.81649" lon="6.52211">
        <ele>1042.3</ele>
        <time>2022-06-15T12:19:46Z</time>
      </trkpt>
      <trkpt lat="45.81647" lon="6.52197">
        <ele>1040.6</ele>
        <time>2022-06-15T12:19:47Z</time>
      </trkpt>
      <trkpt lat="45.81645" lon="6.52183">
        <ele>1039.1</ele>
        <time>2022-06-15T12:19:48Z</time>
      </trkpt>
      <trkpt lat="45.81643" lon="6.52168">
        <ele>1038.1</ele>
        <time>2022-06-15T12:19:49Z</time>
      </trkpt>
      <trkpt lat="45.8164" lon="6.52154">
        <ele>1037.4</ele>
        <time>2022-06-15T12:19:50Z</time>
      </trkpt>
      <trkpt lat="45.81638" lon="6.52139">
        <ele>1036.6</ele>
        <time>2022-06-15T12:19:51Z</time>
      </trkpt>
      <trkpt lat="45.81634" lon="6.52125">
        <ele>1035.8</ele>
        <time>2022-06-15T12:19:52Z</time>
      </trkpt>
      <trkpt lat="45.81629" lon="6.5211">
        <ele>1035.1</ele>
        <time>2022-06-15T12:19:53Z</time>
      </trkpt>
      <trkpt lat="45.81622" lon="6.52095">
        <ele>1034.5</ele>
        <time>2022-06-15T12:19:54Z</time>
      </trkpt>
      <trkpt lat="45.81615" lon="6.5208">
        <ele>1033.9</ele>
        <time>2022-06-15T12:19:55Z</time>
      </trkpt>
      <trkpt lat="45.81609" lon="6.52064">
        <ele>1032</ele>
        <time>2022-06-15T12:19:56Z</time>
      </trkpt>
      <trkpt lat="45.81603" lon="6.52046">
        <ele>1030.3</ele>
        <time>2022-06-15T12:19:57Z</time>
      </trkpt>
      <trkpt lat="45.81599" lon="6.52028">
        <ele>1028.7</ele>
        <time>2022-06-15T12:19:58Z</time>
      </trkpt>
      <trkpt lat="45.81596" lon="6.52009">
        <ele>1026.8</ele>
        <time>2022-06-15T12:19:59Z</time>
      </trkpt>
      <trkpt lat="45.81593" lon="6.5199">
        <ele>1025.7</ele>
        <time>2022-06-15T12:20:00Z</time>
      </trkpt>
      <trkpt lat="45.81589" lon="6.51973">
        <ele>1026.5</ele>
        <time>2022-06-15T12:20:01Z</time>
      </trkpt>
      <trkpt lat="45.81582" lon="6.51956">
        <ele>1024.9</ele>
        <time>2022-06-15T12:20:02Z</time>
      </trkpt>
      <trkpt lat="45.81574" lon="6.51938">
        <ele>1021.7</ele>
        <time>2022-06-15T12:20:03Z</time>
      </trkpt>
      <trkpt lat="45.81566" lon="6.5192">
        <ele>1019.3</ele>
        <time>2022-06-15T12:20:04Z</time>
      </trkpt>
      <trkpt lat="45.81559" lon="6.51901">
        <ele>1017.2</ele>
        <time>2022-06-15T12:20:05Z</time>
      </trkpt>
      <trkpt lat="45.8155" lon="6.51883">
        <ele>1015.9</ele>
        <time>2022-06-15T12:20:06Z</time>
      </trkpt>
      <trkpt lat="45.81541" lon="6.51865">
        <ele>1015.4</ele>
        <time>2022-06-15T12:20:07Z</time>
      </trkpt>
      <trkpt lat="45.8153" lon="6.51848">
        <ele>1014.7</ele>
        <time>2022-06-15T12:20:08Z</time>
      </trkpt>
      <trkpt lat="45.8152" lon="6.51829">
        <ele>1013.3</ele>
        <time>2022-06-15T12:20:09Z</time>
      </trkpt>
      <trkpt lat="45.81513" lon="6.5181">
        <ele>1012.4</ele>
        <time>2022-06-15T12:20:10Z</time>
      </trkpt>
      <trkpt lat="45.81509" lon="6.51788">
        <ele>1009.5</ele>
        <time>2022-06-15T12:20:11Z</time>
      </trkpt>
      <trkpt lat="45.81505" lon="6.51767">
        <ele>1007</ele>
        <time>2022-06-15T12:20:12Z</time>
      </trkpt>
      <trkpt lat="45.81502" lon="6.51746">
        <ele>1004.5</ele>
        <time>2022-06-15T12:20:13Z</time>
      </trkpt>
      <trkpt lat="45.81498" lon="6.51725">
        <ele>1001.9</ele>
        <time>2022-06-15T12:20:14Z</time>
      </trkpt>
      <trkpt lat="45.81491" lon="6.51705">
        <ele>1002.6</ele>
        <time>2022-06-15T12:20:15Z</time>
      </trkpt>
      <trkpt lat="45.81482" lon="6.51685">
        <ele>1003.6</ele>
        <time>2022-06-15T12:20:16Z</time>
      </trkpt>
      <trkpt lat="45.81471" lon="6.51666">
        <ele>1003.3</ele>
        <time>2022-06-15T12:20:17Z</time>
      </trkpt>
      <trkpt lat="45.81462" lon="6.51646">
        <ele>1001.9</ele>
        <time>2022-06-15T12:20:18Z</time>
      </trkpt>
      <trkpt lat="45.81453" lon="6.51626">
        <ele>1001</ele>
        <time>2022-06-15T12:20:19Z</time>
      </trkpt>
      <trkpt lat="45.81445" lon="6.51605">
        <ele>999.9</ele>
        <time>2022-06-15T12:20:20Z</time>
      </trkpt>
      <trkpt lat="45.81437" lon="6.51584">
        <ele>998.3</ele>
        <time>2022-06-15T12:20:21Z</time>
      </trkpt>
      <trkpt lat="45.81429" lon="6.51562">
        <ele>996.6</ele>
        <time>2022-06-15T12:20:22Z</time>
      </trkpt>
      <trkpt lat="45.8142" lon="6.51541">
        <ele>995</ele>
        <time>2022-06-15T12:20:23Z</time>
      </trkpt>
      <trkpt lat="45.81411" lon="6.5152">
        <ele>993.1</ele>
        <time>2022-06-15T12:20:24Z</time>
      </trkpt>
      <trkpt lat="45.81402" lon="6.51499">
        <ele>992.1</ele>
        <time>2022-06-15T12:20:25Z</time>
      </trkpt>
      <trkpt lat="45.81394" lon="6.51481">
        <ele>991.3</ele>
        <time>2022-06-15T12:20:26Z</time>
      </trkpt>
      <trkpt lat="45.81385" lon="6.51462">
        <ele>989.5</ele>
        <time>2022-06-15T12:20:27Z</time>
      </trkpt>
      <trkpt lat="45.81377" lon="6.51445">
        <ele>987.9</ele>
        <time>2022-06-15T12:20:28Z</time>
      </trkpt>
      <trkpt lat="45.8137" lon="6.51428">
        <ele>987.6</ele>
        <time>2022-06-15T12:20:29Z</time>
      </trkpt>
      <trkpt lat="45.81363" lon="6.51413">
        <ele>987</ele>
        <time>2022-06-15T12:20:30Z</time>
      </trkpt>
      <trkpt lat="45.81354" lon="6.51399">
        <ele>986.1</ele>
        <time>2022-06-15T12:20:31Z</time>
      </trkpt>
      <trkpt lat="45.81344" lon="6.51389">
        <ele>986.7</ele>
        <time>2022-06-15T12:20:32Z</time>
      </trkpt>
      <trkpt lat="45.81333" lon="6.51382">
        <ele>988.5</ele>
        <time>2022-06-15T12:20:33Z</time>
      </trkpt>
      <trkpt lat="45.81323" lon="6.51376">
        <ele>988</ele>
        <time>2022-06-15T12:20:34Z</time>
      </trkpt>
      <trkpt lat="45.81314" lon="6.51371">
        <ele>987.9</ele>
        <time>2022-06-15T12:20:35Z</time>
      </trkpt>
      <trkpt lat="45.81306" lon="6.51364">
        <ele>988.1</ele>
        <time>2022-06-15T12:20:36Z</time>
      </trkpt>
      <trkpt lat="45.813" lon="6.51356">
        <ele>988.8</ele>
        <time>2022-06-15T12:20:37Z</time>
      </trkpt>
      <trkpt lat="45.81297" lon="6.51347">
        <ele>988.1</ele>
        <time>2022-06-15T12:20:38Z</time>
      </trkpt>
      <trkpt lat="45.81297" lon="6.51339">
        <ele>986.8</ele>
        <time>2022-06-15T12:20:39Z</time>
      </trkpt>
      <trkpt lat="45.81302" lon="6.51334">
        <ele>985.6</ele>
        <time>2022-06-15T12:20:40Z</time>
      </trkpt>
      <trkpt lat="45.81307" lon="6.51335">
        <ele>984.6</ele>
        <time>2022-06-15T12:20:41Z</time>
      </trkpt>
      <trkpt lat="45.81313" lon="6.5134">
        <ele>983.4</ele>
        <time>2022-06-15T12:20:42Z</time>
      </trkpt>
      <trkpt lat="45.81318" lon="6.51346">
        <ele>983</ele>
        <time>2022-06-15T12:20:43Z</time>
      </trkpt>
      <trkpt lat="45.81324" lon="6.51352">
        <ele>982.9</ele>
        <time>2022-06-15T12:20:44Z</time>
      </trkpt>
      <trkpt lat="45.8133" lon="6.51358">
        <ele>983.6</ele>
        <time>2022-06-15T12:20:45Z</time>
      </trkpt>
      <trkpt lat="45.81336" lon="6.51364">
        <ele>983.7</ele>
        <time>2022-06-15T12:20:46Z</time>
      </trkpt>
      <trkpt lat="45.81342" lon="6.51371">
        <ele>982.9</ele>
        <time>2022-06-15T12:20:47Z</time>
      </trkpt>
      <trkpt lat="45.81348" lon="6.51378">
        <ele>982.5</ele>
        <time>2022-06-15T12:20:48Z</time>
      </trkpt>
      <trkpt lat="45.81354" lon="6.51385">
        <ele>982.3</ele>
        <time>2022-06-15T12:20:49Z</time>
      </trkpt>
      <trkpt lat="45.81361" lon="6.51393">
        <ele>982.2</ele>
        <time>2022-06-15T12:20:50Z</time>
      </trkpt>
      <trkpt lat="45.81367" lon="6.514">
        <ele>982.2</ele>
        <time>2022-06-15T12:20:51Z</time>
      </trkpt>
      <trkpt lat="45.81374" lon="6.51408">
        <ele>982.2</ele>
        <time>2022-06-15T12:20:52Z</time>
      </trkpt>
      <trkpt lat="45.81382" lon="6.51415">
        <ele>981.2</ele>
        <time>2022-06-15T12:20:53Z</time>
      </trkpt>
      <trkpt lat="45.81391" lon="6.51423">
        <ele>979.2</ele>
        <time>2022-06-15T12:20:54Z</time>
      </trkpt>
      <trkpt lat="45.814" lon="6.51431">
        <ele>978</ele>
        <time>2022-06-15T12:20:55Z</time>
      </trkpt>
      <trkpt lat="45.81409" lon="6.5144">
        <ele>977</ele>
        <time>2022-06-15T12:20:56Z</time>
      </trkpt>
      <trkpt lat="45.81418" lon="6.5145">
        <ele>976.2</ele>
        <time>2022-06-15T12:20:57Z</time>
      </trkpt>
      <trkpt lat="45.81428" lon="6.5146">
        <ele>974.6</ele>
        <time>2022-06-15T12:20:58Z</time>
      </trkpt>
      <trkpt lat="45.81437" lon="6.5147">
        <ele>974.3</ele>
        <time>2022-06-15T12:20:59Z</time>
      </trkpt>
      <trkpt lat="45.81445" lon="6.51479">
        <ele>973.7</ele>
        <time>2022-06-15T12:21:00Z</time>
      </trkpt>
      <trkpt lat="45.81452" lon="6.51489">
        <ele>972.6</ele>
        <time>2022-06-15T12:21:01Z</time>
      </trkpt>
      <trkpt lat="45.8146" lon="6.515">
        <ele>972</ele>
        <time>2022-06-15T12:21:02Z</time>
      </trkpt>
      <trkpt lat="45.81467" lon="6.5151">
        <ele>971.6</ele>
        <time>2022-06-15T12:21:03Z</time>
      </trkpt>
      <trkpt lat="45.81474" lon="6.51522">
        <ele>971.3</ele>
        <time>2022-06-15T12:21:04Z</time>
      </trkpt>
      <trkpt lat="45.81482" lon="6.51533">
        <ele>970.7</ele>
        <time>2022-06-15T12:21:05Z</time>
      </trkpt>
      <trkpt lat="45.81491" lon="6.51544">
        <ele>969.6</ele>
        <time>2022-06-15T12:21:06Z</time>
      </trkpt>
      <trkpt lat="45.81499" lon="6.51554">
        <ele>968</ele>
        <time>2022-06-15T12:21:07Z</time>
      </trkpt>
      <trkpt lat="45.81509" lon="6.51564">
        <ele>968.2</ele>
        <time>2022-06-15T12:21:08Z</time>
      </trkpt>
      <trkpt lat="45.8152" lon="6.51572">
        <ele>967.1</ele>
        <time>2022-06-15T12:21:09Z</time>
      </trkpt>
      <trkpt lat="45.81531" lon="6.51578">
        <ele>964.9</ele>
        <time>2022-06-15T12:21:10Z</time>
      </trkpt>
      <trkpt lat="45.81543" lon="6.51584">
        <ele>963.5</ele>
        <time>2022-06-15T12:21:11Z</time>
      </trkpt>
      <trkpt lat="45.81555" lon="6.5159">
        <ele>962.1</ele>
        <time>2022-06-15T12:21:12Z</time>
      </trkpt>
      <trkpt lat="45.81565" lon="6.51599">
        <ele>960</ele>
        <time>2022-06-15T12:21:13Z</time>
      </trkpt>
      <trkpt lat="45.81576" lon="6.5161">
        <ele>960.1</ele>
        <time>2022-06-15T12:21:14Z</time>
      </trkpt>
      <trkpt lat="45.81587" lon="6.51621">
        <ele>959.7</ele>
        <time>2022-06-15T12:21:15Z</time>
      </trkpt>
      <trkpt lat="45.81597" lon="6.51632">
        <ele>958.3</ele>
        <time>2022-06-15T12:21:16Z</time>
      </trkpt>
      <trkpt lat="45.81609" lon="6.51639">
        <ele>956.8</ele>
        <time>2022-06-15T12:21:17Z</time>
      </trkpt>
      <trkpt lat="45.8162" lon="6.51647">
        <ele>955.4</ele>
        <time>2022-06-15T12:21:18Z</time>
      </trkpt>
      <trkpt lat="45.81631" lon="6.51657">
        <ele>954.1</ele>
        <time>2022-06-15T12:21:19Z</time>
      </trkpt>
      <trkpt lat="45.8164" lon="6.5167">
        <ele>953.6</ele>
        <time>2022-06-15T12:21:20Z</time>
      </trkpt>
      <trkpt lat="45.81649" lon="6.51685">
        <ele>954</ele>
        <time>2022-06-15T12:21:21Z</time>
      </trkpt>
      <trkpt lat="45.81657" lon="6.51698">
        <ele>952.7</ele>
        <time>2022-06-15T12:21:22Z</time>
      </trkpt>
      <trkpt lat="45.81666" lon="6.51709">
        <ele>951.4</ele>
        <time>2022-06-15T12:21:23Z</time>
      </trkpt>
      <trkpt lat="45.81675" lon="6.51717">
        <ele>951.6</ele>
        <time>2022-06-15T12:21:24Z</time>
      </trkpt>
      <trkpt lat="45.81683" lon="6.51726">
        <ele>950.8</ele>
        <time>2022-06-15T12:21:25Z</time>
      </trkpt>
      <trkpt lat="45.81692" lon="6.51733">
        <ele>949.4</ele>
        <time>2022-06-15T12:21:26Z</time>
      </trkpt>
      <trkpt lat="45.817" lon="6.51736">
        <ele>948.2</ele>
        <time>2022-06-15T12:21:27Z</time>
      </trkpt>
      <trkpt lat="45.81708" lon="6.51736">
        <ele>947</ele>
        <time>2022-06-15T12:21:28Z</time>
      </trkpt>
      <trkpt lat="45.81716" lon="6.51731">
        <ele>945.5</ele>
        <time>2022-06-15T12:21:29Z</time>
      </trkpt>
      <trkpt lat="45.81722" lon="6.51722">
        <ele>944</ele>
        <time>2022-06-15T12:21:30Z</time>
      </trkpt>
      <trkpt lat="45.81726" lon="6.5171">
        <ele>942.6</ele>
        <time>2022-06-15T12:21:31Z</time>
      </trkpt>
      <trkpt lat="45.81727" lon="6.51697">
        <ele>942</ele>
        <time>2022-06-15T12:21:32Z</time>
      </trkpt>
      <trkpt lat="45.81726" lon="6.51684">
        <ele>941.2</ele>
        <time>2022-06-15T12:21:33Z</time>
      </trkpt>
      <trkpt lat="45.81724" lon="6.5167">
        <ele>940.7</ele>
        <time>2022-06-15T12:21:34Z</time>
      </trkpt>
      <trkpt lat="45.8172" lon="6.51656">
        <ele>939.6</ele>
        <time>2022-06-15T12:21:35Z</time>
      </trkpt>
      <trkpt lat="45.81715" lon="6.51644">
        <ele>938.2</ele>
        <time>2022-06-15T12:21:36Z</time>
      </trkpt>
      <trkpt lat="45.81708" lon="6.51634">
        <ele>937.3</ele>
        <time>2022-06-15T12:21:37Z</time>
      </trkpt>
      <trkpt lat="45.81699" lon="6.51628">
        <ele>936.8</ele>
        <time>2022-06-15T12:21:38Z</time>
      </trkpt>
      <trkpt lat="45.81691" lon="6.51626">
        <ele>936.6</ele>
        <time>2022-06-15T12:21:39Z</time>
      </trkpt>
      <trkpt lat="45.81683" lon="6.51629">
        <ele>936.8</ele>
        <time>2022-06-15T12:21:40Z</time>
      </trkpt>
      <trkpt lat="45.81676" lon="6.51632">
        <ele>936.6</ele>
        <time>2022-06-15T12:21:41Z</time>
      </trkpt>
      <trkpt lat="45.8167" lon="6.5163">
        <ele>935.7</ele>
        <time>2022-06-15T12:21:42Z</time>
      </trkpt>
      <trkpt lat="45.81667" lon="6.51624">
        <ele>934.9</ele>
        <time>2022-06-15T12:21:43Z</time>
      </trkpt>
      <trkpt lat="45.81668" lon="6.51616">
        <ele>934.3</ele>
        <time>2022-06-15T12:21:44Z</time>
      </trkpt>
      <trkpt lat="45.81673" lon="6.51613">
        <ele>933.8</ele>
        <time>2022-06-15T12:21:45Z</time>
      </trkpt>
      <trkpt lat="45.81679" lon="6.51614">
        <ele>933.6</ele>
        <time>2022-06-15T12:21:46Z</time>
      </trkpt>
      <trkpt lat="45.81686" lon="6.51614">
        <ele>933.4</ele>
        <time>2022-06-15T12:21:47Z</time>
      </trkpt>
      <trkpt lat="45.81692" lon="6.51613">
        <ele>932.6</ele>
        <time>2022-06-15T12:21:48Z</time>
      </trkpt>
      <trkpt lat="45.817" lon="6.5161">
        <ele>930.6</ele>
        <time>2022-06-15T12:21:49Z</time>
      </trkpt>
      <trkpt lat="45.81708" lon="6.51608">
        <ele>929.2</ele>
        <time>2022-06-15T12:21:50Z</time>
      </trkpt>
      <trkpt lat="45.81716" lon="6.5161">
        <ele>929.8</ele>
        <time>2022-06-15T12:21:51Z</time>
      </trkpt>
      <trkpt lat="45.81725" lon="6.51615">
        <ele>930</ele>
        <time>2022-06-15T12:21:52Z</time>
      </trkpt>
      <trkpt lat="45.81733" lon="6.51622">
        <ele>928.6</ele>
        <time>2022-06-15T12:21:53Z</time>
      </trkpt>
      <trkpt lat="45.8174" lon="6.51632">
        <ele>928</ele>
        <time>2022-06-15T12:21:54Z</time>
      </trkpt>
      <trkpt lat="45.81745" lon="6.51644">
        <ele>927.8</ele>
        <time>2022-06-15T12:21:55Z</time>
      </trkpt>
      <trkpt lat="45.8175" lon="6.51656">
        <ele>928.2</ele>
        <time>2022-06-15T12:21:56Z</time>
      </trkpt>
      <trkpt lat="45.81753" lon="6.51665">
        <ele>928.5</ele>
        <time>2022-06-15T12:21:57Z</time>
      </trkpt>
      <trkpt lat="45.81759" lon="6.51671">
        <ele>927.5</ele>
        <time>2022-06-15T12:21:58Z</time>
      </trkpt>
      <trkpt lat="45.81764" lon="6.51671">
        <ele>925.3</ele>
        <time>2022-06-15T12:21:59Z</time>
      </trkpt>
      <trkpt lat="45.81769" lon="6.51666">
        <ele>922.3</ele>
        <time>2022-06-15T12:22:00Z</time>
      </trkpt>
      <trkpt lat="45.81771" lon="6.51657">
        <ele>920.9</ele>
        <time>2022-06-15T12:22:01Z</time>
      </trkpt>
      <trkpt lat="45.8177" lon="6.51649">
        <ele>920.8</ele>
        <time>2022-06-15T12:22:02Z</time>
      </trkpt>
      <trkpt lat="45.81765" lon="6.51642">
        <ele>921.6</ele>
        <time>2022-06-15T12:22:03Z</time>
      </trkpt>
      <trkpt lat="45.8176" lon="6.51636">
        <ele>922.2</ele>
        <time>2022-06-15T12:22:04Z</time>
      </trkpt>
      <trkpt lat="45.81756" lon="6.51631">
        <ele>922.5</ele>
        <time>2022-06-15T12:22:05Z</time>
      </trkpt>
      <trkpt lat="45.81753" lon="6.51624">
        <ele>922.3</ele>
        <time>2022-06-15T12:22:06Z</time>
      </trkpt>
      <trkpt lat="45.81752" lon="6.51617">
        <ele>921.5</ele>
        <time>2022-06-15T12:22:07Z</time>
      </trkpt>
      <trkpt lat="45.81754" lon="6.51611">
        <ele>920.2</ele>
        <time>2022-06-15T12:22:08Z</time>
      </trkpt>
      <trkpt lat="45.81757" lon="6.51608">
        <ele>918.1</ele>
        <time>2022-06-15T12:22:09Z</time>
      </trkpt>
      <trkpt lat="45.81762" lon="6.51609">
        <ele>917.8</ele>
        <time>2022-06-15T12:22:10Z</time>
      </trkpt>
      <trkpt lat="45.81766" lon="6.51614">
        <ele>917.9</ele>
        <time>2022-06-15T12:22:11Z</time>
      </trkpt>
      <trkpt lat="45.81769" lon="6.51622">
        <ele>918.3</ele>
        <time>2022-06-15T12:22:12Z</time>
      </trkpt>
      <trkpt lat="45.8177" lon="6.51632">
        <ele>919</ele>
        <time>2022-06-15T12:22:13Z</time>
      </trkpt>
      <trkpt lat="45.81772" lon="6.51641">
        <ele>919.5</ele>
        <time>2022-06-15T12:22:14Z</time>
      </trkpt>
      <trkpt lat="45.81777" lon="6.51647">
        <ele>918.6</ele>
        <time>2022-06-15T12:22:15Z</time>
      </trkpt>
      <trkpt lat="45.81782" lon="6.51649">
        <ele>915.4</ele>
        <time>2022-06-15T12:22:16Z</time>
      </trkpt>
      <trkpt lat="45.81787" lon="6.51647">
        <ele>911.2</ele>
        <time>2022-06-15T12:22:17Z</time>
      </trkpt>
      <trkpt lat="45.8179" lon="6.51641">
        <ele>908.9</ele>
        <time>2022-06-15T12:22:18Z</time>
      </trkpt>
      <trkpt lat="45.81791" lon="6.51634">
        <ele>908.2</ele>
        <time>2022-06-15T12:22:19Z</time>
      </trkpt>
      <trkpt lat="45.81788" lon="6.51626">
        <ele>909.5</ele>
        <time>2022-06-15T12:22:20Z</time>
      </trkpt>
      <trkpt lat="45.81784" lon="6.51619">
        <ele>911.9</ele>
        <time>2022-06-15T12:22:21Z</time>
      </trkpt>
      <trkpt lat="45.81779" lon="6.51612">
        <ele>914.7</ele>
        <time>2022-06-15T12:22:22Z</time>
      </trkpt>
      <trkpt lat="45.81775" lon="6.51605">
        <ele>914.7</ele>
        <time>2022-06-15T12:22:23Z</time>
      </trkpt>
      <trkpt lat="45.81775" lon="6.51597">
        <ele>913.5</ele>
        <time>2022-06-15T12:22:24Z</time>
      </trkpt>
      <trkpt lat="45.81779" lon="6.51592">
        <ele>911.9</ele>
        <time>2022-06-15T12:22:25Z</time>
      </trkpt>
      <trkpt lat="45.81785" lon="6.51593">
        <ele>907.5</ele>
        <time>2022-06-15T12:22:26Z</time>
      </trkpt>
      <trkpt lat="45.8179" lon="6.51599">
        <ele>905.1</ele>
        <time>2022-06-15T12:22:27Z</time>
      </trkpt>
      <trkpt lat="45.81793" lon="6.51608">
        <ele>904.8</ele>
        <time>2022-06-15T12:22:28Z</time>
      </trkpt>
      <trkpt lat="45.81794" lon="6.51619">
        <ele>904.9</ele>
        <time>2022-06-15T12:22:29Z</time>
      </trkpt>
      <trkpt lat="45.81796" lon="6.51629">
        <ele>904.6</ele>
        <time>2022-06-15T12:22:30Z</time>
      </trkpt>
      <trkpt lat="45.81799" lon="6.51638">
        <ele>903</ele>
        <time>2022-06-15T12:22:31Z</time>
      </trkpt>
      <trkpt lat="45.81804" lon="6.51644">
        <ele>898.4</ele>
        <time>2022-06-15T12:22:32Z</time>
      </trkpt>
      <trkpt lat="45.81811" lon="6.51646">
        <ele>892.6</ele>
        <time>2022-06-15T12:22:33Z</time>
      </trkpt>
      <trkpt lat="45.81819" lon="6.51644">
        <ele>887.3</ele>
        <time>2022-06-15T12:22:34Z</time>
      </trkpt>
      <trkpt lat="45.81826" lon="6.51642">
        <ele>881.9</ele>
        <time>2022-06-15T12:22:35Z</time>
      </trkpt>
      <trkpt lat="45.81833" lon="6.5164">
        <ele>876.6</ele>
        <time>2022-06-15T12:22:36Z</time>
      </trkpt>
      <trkpt lat="45.81839" lon="6.51638">
        <ele>882.5</ele>
        <time>2022-06-15T12:22:37Z</time>
      </trkpt>
      <trkpt lat="45.81844" lon="6.51637">
        <ele>888.6</ele>
        <time>2022-06-15T12:22:38Z</time>
      </trkpt>
      <trkpt lat="45.81848" lon="6.51635">
        <ele>893.3</ele>
        <time>2022-06-15T12:22:39Z</time>
      </trkpt>
      <trkpt lat="45.81851" lon="6.51634">
        <ele>896.8</ele>
        <time>2022-06-15T12:22:40Z</time>
      </trkpt>
      <trkpt lat="45.81854" lon="6.51634">
        <ele>900.4</ele>
        <time>2022-06-15T12:22:41Z</time>
      </trkpt>
      <trkpt lat="45.81857" lon="6.51633">
        <ele>904.3</ele>
        <time>2022-06-15T12:22:42Z</time>
      </trkpt>
      <trkpt lat="45.81861" lon="6.51632">
        <ele>908.1</ele>
        <time>2022-06-15T12:22:43Z</time>
      </trkpt>
      <trkpt lat="45.81864" lon="6.5163">
        <ele>909.2</ele>
        <time>2022-06-15T12:22:44Z</time>
      </trkpt>
      <trkpt lat="45.81868" lon="6.51629">
        <ele>909.7</ele>
        <time>2022-06-15T12:22:45Z</time>
      </trkpt>
      <trkpt lat="45.81871" lon="6.51627">
        <ele>910.2</ele>
        <time>2022-06-15T12:22:46Z</time>
      </trkpt>
      <trkpt lat="45.81875" lon="6.51626">
        <ele>910.7</ele>
        <time>2022-06-15T12:22:47Z</time>
      </trkpt>
      <trkpt lat="45.81879" lon="6.51624">
        <ele>910.9</ele>
        <time>2022-06-15T12:22:48Z</time>
      </trkpt>
      <trkpt lat="45.81884" lon="6.51623">
        <ele>911.4</ele>
        <time>2022-06-15T12:22:49Z</time>
      </trkpt>
      <trkpt lat="45.81888" lon="6.51622">
        <ele>911.6</ele>
        <time>2022-06-15T12:22:50Z</time>
      </trkpt>
      <trkpt lat="45.81893" lon="6.5162">
        <ele>911.3</ele>
        <time>2022-06-15T12:22:51Z</time>
      </trkpt>
      <trkpt lat="45.81897" lon="6.51619">
        <ele>911.2</ele>
        <time>2022-06-15T12:22:52Z</time>
      </trkpt>
      <trkpt lat="45.81901" lon="6.51618">
        <ele>911.2</ele>
        <time>2022-06-15T12:22:53Z</time>
      </trkpt>
      <trkpt lat="45.81906" lon="6.51619">
        <ele>911.5</ele>
        <time>2022-06-15T12:22:54Z</time>
      </trkpt>
      <trkpt lat="45.81911" lon="6.51619">
        <ele>911.7</ele>
        <time>2022-06-15T12:22:55Z</time>
      </trkpt>
      <trkpt lat="45.81915" lon="6.5162">
        <ele>911.9</ele>
        <time>2022-06-15T12:22:56Z</time>
      </trkpt>
      <trkpt lat="45.81919" lon="6.51621">
        <ele>912.2</ele>
        <time>2022-06-15T12:22:57Z</time>
      </trkpt>
      <trkpt lat="45.81922" lon="6.51622">
        <ele>912.4</ele>
        <time>2022-06-15T12:22:58Z</time>
      </trkpt>
      <trkpt lat="45.81925" lon="6.51624">
        <ele>912.7</ele>
        <time>2022-06-15T12:22:59Z</time>
      </trkpt>
      <trkpt lat="45.81927" lon="6.51627">
        <ele>913</ele>
        <time>2022-06-15T12:23:00Z</time>
      </trkpt>
      <trkpt lat="45.8193" lon="6.51628">
        <ele>913.2</ele>
        <time>2022-06-15T12:23:01Z</time>
      </trkpt>
      <trkpt lat="45.81932" lon="6.51629">
        <ele>913.3</ele>
        <time>2022-06-15T12:23:02Z</time>
      </trkpt>
      <trkpt lat="45.81934" lon="6.5163">
        <ele>913.4</ele>
        <time>2022-06-15T12:23:03Z</time>
      </trkpt>
      <trkpt lat="45.81936" lon="6.51632">
        <ele>913.6</ele>
        <time>2022-06-15T12:23:04Z</time>
      </trkpt>
      <trkpt lat="45.81938" lon="6.51633">
        <ele>913.7</ele>
        <time>2022-06-15T12:23:05Z</time>
      </trkpt>
      <trkpt lat="45.8194" lon="6.51633">
        <ele>913.7</ele>
        <time>2022-06-15T12:23:06Z</time>
      </trkpt>
      <trkpt lat="45.81942" lon="6.51633">
        <ele>913.7</ele>
        <time>2022-06-15T12:23:07Z</time>
      </trkpt>
      <trkpt lat="45.81943" lon="6.51634">
        <ele>913.8</ele>
        <time>2022-06-15T12:23:08Z</time>
      </trkpt>
      <trkpt lat="45.81945" lon="6.51635">
        <ele>913.9</ele>
        <time>2022-06-15T12:23:09Z</time>
      </trkpt>
      <trkpt lat="45.81948" lon="6.51635">
        <ele>914.2</ele>
        <time>2022-06-15T12:23:10Z</time>
      </trkpt>
      <trkpt lat="45.8195" lon="6.51635">
        <ele>914.4</ele>
        <time>2022-06-15T12:23:11Z</time>
      </trkpt>
      <trkpt lat="45.81952" lon="6.51635">
        <ele>914.6</ele>
        <time>2022-06-15T12:23:12Z</time>
      </trkpt>
      <trkpt lat="45.81954" lon="6.51636">
        <ele>914.8</ele>
        <time>2022-06-15T12:23:13Z</time>
      </trkpt>
      <trkpt lat="45.81956" lon="6.51636">
        <ele>915</ele>
        <time>2022-06-15T12:23:14Z</time>
      </trkpt>
      <trkpt lat="45.81958" lon="6.51635">
        <ele>915.2</ele>
        <time>2022-06-15T12:23:15Z</time>
      </trkpt>
      <trkpt lat="45.81959" lon="6.51635">
        <ele>915.4</ele>
        <time>2022-06-15T12:23:16Z</time>
      </trkpt>
      <trkpt lat="45.81962" lon="6.51635">
        <ele>915.6</ele>
        <time>2022-06-15T12:23:17Z</time>
      </trkpt>
      <trkpt lat="45.81964" lon="6.51634">
        <ele>915.8</ele>
        <time>2022-06-15T12:23:18Z</time>
      </trkpt>
      <trkpt lat="45.81966" lon="6.51633">
        <ele>916</ele>
        <time>2022-06-15T12:23:19Z</time>
      </trkpt>
      <trkpt lat="45.81969" lon="6.51632">
        <ele>916.1</ele>
        <time>2022-06-15T12:23:20Z</time>
      </trkpt>
      <trkpt lat="45.81971" lon="6.5163">
        <ele>916.2</ele>
        <time>2022-06-15T12:23:21Z</time>
      </trkpt>
      <trkpt lat="45.81973" lon="6.51628">
        <ele>916.3</ele>
        <time>2022-06-15T12:23:22Z</time>
      </trkpt>
      <trkpt lat="45.81975" lon="6.51627">
        <ele>916.6</ele>
        <time>2022-06-15T12:23:23Z</time>
      </trkpt>
      <trkpt lat="45.81977" lon="6.51626">
        <ele>916.8</ele>
        <time>2022-06-15T12:23:24Z</time>
      </trkpt>
      <trkpt lat="45.81979" lon="6.51625">
        <ele>917</ele>
        <time>2022-06-15T12:23:25Z</time>
      </trkpt>
      <trkpt lat="45.8198" lon="6.51624">
        <ele>917.1</ele>
        <time>2022-06-15T12:23:26Z</time>
      </trkpt>
      <trkpt lat="45.81982" lon="6.51623">
        <ele>917.2</ele>
        <time>2022-06-15T12:23:27Z</time>
      </trkpt>
      <trkpt lat="45.81984" lon="6.51622">
        <ele>917.4</ele>
        <time>2022-06-15T12:23:28Z</time>
      </trkpt>
      <trkpt lat="45.81986" lon="6.51621">
        <ele>917.5</ele>
        <time>2022-06-15T12:23:29Z</time>
      </trkpt>
      <trkpt lat="45.81988" lon="6.5162">
        <ele>917.7</ele>
        <time>2022-06-15T12:23:30Z</time>
      </trkpt>
      <trkpt lat="45.8199" lon="6.51619">
        <ele>917.8</ele>
        <time>2022-06-15T12:23:31Z</time>
      </trkpt>
      <trkpt lat="45.81991" lon="6.51618">
        <ele>917.8</ele>
        <time>2022-06-15T12:23:32Z</time>
      </trkpt>
      <trkpt lat="45.81994" lon="6.51616">
        <ele>917.9</ele>
        <time>2022-06-15T12:23:33Z</time>
      </trkpt>
      <trkpt lat="45.81996" lon="6.51614">
        <ele>917.8</ele>
        <time>2022-06-15T12:23:34Z</time>
      </trkpt>
      <trkpt lat="45.81997" lon="6.51611">
        <ele>917.7</ele>
        <time>2022-06-15T12:23:35Z</time>
      </trkpt>
      <trkpt lat="45.81999" lon="6.51609">
        <ele>917.8</ele>
        <time>2022-06-15T12:23:36Z</time>
      </trkpt>
      <trkpt lat="45.82001" lon="6.51607">
        <ele>917.9</ele>
        <time>2022-06-15T12:23:37Z</time>
      </trkpt>
      <trkpt lat="45.82003" lon="6.51605">
        <ele>918.1</ele>
        <time>2022-06-15T12:23:38Z</time>
      </trkpt>
      <trkpt lat="45.82005" lon="6.51603">
        <ele>918.5</ele>
        <time>2022-06-15T12:23:39Z</time>
      </trkpt>
      <trkpt lat="45.82006" lon="6.51601">
        <ele>918.8</ele>
        <time>2022-06-15T12:23:40Z</time>
      </trkpt>
      <trkpt lat="45.82008" lon="6.51598">
        <ele>919.1</ele>
        <time>2022-06-15T12:23:41Z</time>
      </trkpt>
      <trkpt lat="45.8201" lon="6.51596">
        <ele>919.4</ele>
        <time>2022-06-15T12:23:42Z</time>
      </trkpt>
      <trkpt lat="45.82012" lon="6.51593">
        <ele>919.8</ele>
        <time>2022-06-15T12:23:43Z</time>
      </trkpt>
      <trkpt lat="45.82014" lon="6.51591">
        <ele>920.2</ele>
        <time>2022-06-15T12:23:44Z</time>
      </trkpt>
      <trkpt lat="45.82015" lon="6.51588">
        <ele>920.6</ele>
        <time>2022-06-15T12:23:45Z</time>
      </trkpt>
      <trkpt lat="45.82017" lon="6.51585">
        <ele>920.9</ele>
        <time>2022-06-15T12:23:46Z</time>
      </trkpt>
      <trkpt lat="45.82018" lon="6.51582">
        <ele>921.1</ele>
        <time>2022-06-15T12:23:47Z</time>
      </trkpt>
      <trkpt lat="45.82019" lon="6.51579">
        <ele>921.2</ele>
        <time>2022-06-15T12:23:48Z</time>
      </trkpt>
      <trkpt lat="45.82021" lon="6.51575">
        <ele>921.3</ele>
        <time>2022-06-15T12:23:49Z</time>
      </trkpt>
      <trkpt lat="45.82022" lon="6.51572">
        <ele>921.4</ele>
        <time>2022-06-15T12:23:50Z</time>
      </trkpt>
      <trkpt lat="45.82022" lon="6.51569">
        <ele>921.4</ele>
        <time>2022-06-15T12:23:51Z</time>
      </trkpt>
      <trkpt lat="45.82023" lon="6.51566">
        <ele>921.4</ele>
        <time>2022-06-15T12:23:52Z</time>
      </trkpt>
      <trkpt lat="45.82024" lon="6.51563">
        <ele>921.4</ele>
        <time>2022-06-15T12:23:53Z</time>
      </trkpt>
      <trkpt lat="45.82025" lon="6.51559">
        <ele>921.4</ele>
        <time>2022-06-15T12:23:54Z</time>
      </trkpt>
      <trkpt lat="45.82026" lon="6.51556">
        <ele>921.6</ele>
        <time>2022-06-15T12:23:55Z</time>
      </trkpt>
      <trkpt lat="45.82028" lon="6.51553">
        <ele>921.8</ele>
        <time>2022-06-15T12:23:56Z</time>
      </trkpt>
      <trkpt lat="45.82029" lon="6.5155">
        <ele>922</ele>
        <time>2022-06-15T12:23:57Z</time>
      </trkpt>
      <trkpt lat="45.8203" lon="6.51547">
        <ele>922.2</ele>
        <time>2022-06-15T12:23:58Z</time>
      </trkpt>
      <trkpt lat="45.82031" lon="6.51544">
        <ele>922.3</ele>
        <time>2022-06-15T12:23:59Z</time>
      </trkpt>
      <trkpt lat="45.82033" lon="6.51541">
        <ele>922.5</ele>
        <time>2022-06-15T12:24:00Z</time>
      </trkpt>
      <trkpt lat="45.82034" lon="6.51538">
        <ele>922.7</ele>
        <time>2022-06-15T12:24:01Z</time>
      </trkpt>
      <trkpt lat="45.82036" lon="6.51535">
        <ele>922.8</ele>
        <time>2022-06-15T12:24:02Z</time>
      </trkpt>
      <trkpt lat="45.82037" lon="6.51533">
        <ele>923</ele>
        <time>2022-06-15T12:24:03Z</time>
      </trkpt>
      <trkpt lat="45.82039" lon="6.5153">
        <ele>923.1</ele>
        <time>2022-06-15T12:24:04Z</time>
      </trkpt>
      <trkpt lat="45.8204" lon="6.51528">
        <ele>923.2</ele>
        <time>2022-06-15T12:24:05Z</time>
      </trkpt>
      <trkpt lat="45.82042" lon="6.51525">
        <ele>923.3</ele>
        <time>2022-06-15T12:24:06Z</time>
      </trkpt>
      <trkpt lat="45.82044" lon="6.51523">
        <ele>923.4</ele>
        <time>2022-06-15T12:24:07Z</time>
      </trkpt>
      <trkpt lat="45.82045" lon="6.5152">
        <ele>923.5</ele>
        <time>2022-06-15T12:24:08Z</time>
      </trkpt>
      <trkpt lat="45.82047" lon="6.51517">
        <ele>923.6</ele>
        <time>2022-06-15T12:24:09Z</time>
      </trkpt>
      <trkpt lat="45.82049" lon="6.51515">
        <ele>923.7</ele>
        <time>2022-06-15T12:24:10Z</time>
      </trkpt>
      <trkpt lat="45.82051" lon="6.51513">
        <ele>923.9</ele>
        <time>2022-06-15T12:24:11Z</time>
      </trkpt>
      <trkpt lat="45.82053" lon="6.51511">
        <ele>924.2</ele>
        <time>2022-06-15T12:24:12Z</time>
      </trkpt>
      <trkpt lat="45.82055" lon="6.51509">
        <ele>924.4</ele>
        <time>2022-06-15T12:24:13Z</time>
      </trkpt>
      <trkpt lat="45.82057" lon="6.51507">
        <ele>924.7</ele>
        <time>2022-06-15T12:24:14Z</time>
      </trkpt>
      <trkpt lat="45.82059" lon="6.51505">
        <ele>924.9</ele>
        <time>2022-06-15T12:24:15Z</time>
      </trkpt>
      <trkpt lat="45.82061" lon="6.51502">
        <ele>925</ele>
        <time>2022-06-15T12:24:16Z</time>
      </trkpt>
      <trkpt lat="45.82063" lon="6.515">
        <ele>925</ele>
        <time>2022-06-15T12:24:17Z</time>
      </trkpt>
      <trkpt lat="45.82065" lon="6.51498">
        <ele>925</ele>
        <time>2022-06-15T12:24:18Z</time>
      </trkpt>
      <trkpt lat="45.82067" lon="6.51495">
        <ele>925</ele>
        <time>2022-06-15T12:24:19Z</time>
      </trkpt>
      <trkpt lat="45.82069" lon="6.51493">
        <ele>925.1</ele>
        <time>2022-06-15T12:24:20Z</time>
      </trkpt>
      <trkpt lat="45.82071" lon="6.51491">
        <ele>925.2</ele>
        <time>2022-06-15T12:24:21Z</time>
      </trkpt>
      <trkpt lat="45.82073" lon="6.51489">
        <ele>925.5</ele>
        <time>2022-06-15T12:24:22Z</time>
      </trkpt>
      <trkpt lat="45.82075" lon="6.51487">
        <ele>925.8</ele>
        <time>2022-06-15T12:24:23Z</time>
      </trkpt>
      <trkpt lat="45.82077" lon="6.51485">
        <ele>926</ele>
        <time>2022-06-15T12:24:24Z</time>
      </trkpt>
      <trkpt lat="45.82079" lon="6.51483">
        <ele>926.4</ele>
        <time>2022-06-15T12:24:25Z</time>
      </trkpt>
      <trkpt lat="45.82081" lon="6.51482">
        <ele>926.8</ele>
        <time>2022-06-15T12:24:26Z</time>
      </trkpt>
      <trkpt lat="45.82083" lon="6.5148">
        <ele>927.2</ele>
        <time>2022-06-15T12:24:27Z</time>
      </trkpt>
      <trkpt lat="45.82085" lon="6.51478">
        <ele>927.7</ele>
        <time>2022-06-15T12:24:28Z</time>
      </trkpt>
      <trkpt lat="45.82088" lon="6.51476">
        <ele>928.2</ele>
        <time>2022-06-15T12:24:29Z</time>
      </trkpt>
      <trkpt lat="45.8209" lon="6.51474">
        <ele>928.6</ele>
        <time>2022-06-15T12:24:30Z</time>
      </trkpt>
      <trkpt lat="45.82092" lon="6.51473">
        <ele>928.9</ele>
        <time>2022-06-15T12:24:31Z</time>
      </trkpt>
      <trkpt lat="45.82094" lon="6.51471">
        <ele>929.1</ele>
        <time>2022-06-15T12:24:32Z</time>
      </trkpt>
      <trkpt lat="45.82097" lon="6.5147">
        <ele>929.3</ele>
        <time>2022-06-15T12:24:33Z</time>
      </trkpt>
      <trkpt lat="45.82099" lon="6.51469">
        <ele>929.2</ele>
        <time>2022-06-15T12:24:34Z</time>
      </trkpt>
      <trkpt lat="45.82101" lon="6.51467">
        <ele>929.2</ele>
        <time>2022-06-15T12:24:35Z</time>
      </trkpt>
      <trkpt lat="45.82104" lon="6.51466">
        <ele>929.3</ele>
        <time>2022-06-15T12:24:36Z</time>
      </trkpt>
      <trkpt lat="45.82106" lon="6.51465">
        <ele>929.5</ele>
        <time>2022-06-15T12:24:37Z</time>
      </trkpt>
      <trkpt lat="45.82108" lon="6.51463">
        <ele>929.6</ele>
        <time>2022-06-15T12:24:38Z</time>
      </trkpt>
      <trkpt lat="45.8211" lon="6.51462">
        <ele>929.8</ele>
        <time>2022-06-15T12:24:39Z</time>
      </trkpt>
      <trkpt lat="45.82113" lon="6.51461">
        <ele>929.9</ele>
        <time>2022-06-15T12:24:40Z</time>
      </trkpt>
      <trkpt lat="45.82115" lon="6.51459">
        <ele>930</ele>
        <time>2022-06-15T12:24:41Z</time>
      </trkpt>
      <trkpt lat="45.82117" lon="6.51459">
        <ele>930.3</ele>
        <time>2022-06-15T12:24:42Z</time>
      </trkpt>
      <trkpt lat="45.82119" lon="6.51458">
        <ele>930.5</ele>
        <time>2022-06-15T12:24:43Z</time>
      </trkpt>
      <trkpt lat="45.82122" lon="6.51457">
        <ele>930.7</ele>
        <time>2022-06-15T12:24:44Z</time>
      </trkpt>
      <trkpt lat="45.82124" lon="6.51456">
        <ele>930.9</ele>
        <time>2022-06-15T12:24:45Z</time>
      </trkpt>
      <trkpt lat="45.82127" lon="6.51455">
        <ele>931.3</ele>
        <time>2022-06-15T12:24:46Z</time>
      </trkpt>
      <trkpt lat="45.82129" lon="6.51454">
        <ele>931.5</ele>
        <time>2022-06-15T12:24:47Z</time>
      </trkpt>
      <trkpt lat="45.82132" lon="6.51453">
        <ele>931.7</ele>
        <time>2022-06-15T12:24:48Z</time>
      </trkpt>
      <trkpt lat="45.82134" lon="6.51452">
        <ele>931.8</ele>
        <time>2022-06-15T12:24:49Z</time>
      </trkpt>
      <trkpt lat="45.82136" lon="6.51451">
        <ele>931.8</ele>
        <time>2022-06-15T12:24:50Z</time>
      </trkpt>
      <trkpt lat="45.82139" lon="6.5145">
        <ele>931.9</ele>
        <time>2022-06-15T12:24:51Z</time>
      </trkpt>
      <trkpt lat="45.82141" lon="6.51449">
        <ele>932.1</ele>
        <time>2022-06-15T12:24:52Z</time>
      </trkpt>
      <trkpt lat="45.82143" lon="6.51447">
        <ele>932.4</ele>
        <time>2022-06-15T12:24:53Z</time>
      </trkpt>
      <trkpt lat="45.82146" lon="6.51446">
        <ele>932.7</ele>
        <time>2022-06-15T12:24:54Z</time>
      </trkpt>
      <trkpt lat="45.82148" lon="6.51444">
        <ele>933.1</ele>
        <time>2022-06-15T12:24:55Z</time>
      </trkpt>
      <trkpt lat="45.8215" lon="6.51442">
        <ele>933.4</ele>
        <time>2022-06-15T12:24:56Z</time>
      </trkpt>
      <trkpt lat="45.82152" lon="6.5144">
        <ele>933.6</ele>
        <time>2022-06-15T12:24:57Z</time>
      </trkpt>
      <trkpt lat="45.82155" lon="6.51438">
        <ele>933.8</ele>
        <time>2022-06-15T12:24:58Z</time>
      </trkpt>
      <trkpt lat="45.82157" lon="6.51435">
        <ele>934</ele>
        <time>2022-06-15T12:24:59Z</time>
      </trkpt>
      <trkpt lat="45.82159" lon="6.51433">
        <ele>934.2</ele>
        <time>2022-06-15T12:25:00Z</time>
      </trkpt>
      <trkpt lat="45.82161" lon="6.51431">
        <ele>934.3</ele>
        <time>2022-06-15T12:25:01Z</time>
      </trkpt>
      <trkpt lat="45.82163" lon="6.51429">
        <ele>934.5</ele>
        <time>2022-06-15T12:25:02Z</time>
      </trkpt>
      <trkpt lat="45.82165" lon="6.51426">
        <ele>934.6</ele>
        <time>2022-06-15T12:25:03Z</time>
      </trkpt>
      <trkpt lat="45.82166" lon="6.51424">
        <ele>934.7</ele>
        <time>2022-06-15T12:25:04Z</time>
      </trkpt>
      <trkpt lat="45.82168" lon="6.51421">
        <ele>935.2</ele>
        <time>2022-06-15T12:25:05Z</time>
      </trkpt>
      <trkpt lat="45.8217" lon="6.51419">
        <ele>935.7</ele>
        <time>2022-06-15T12:25:06Z</time>
      </trkpt>
      <trkpt lat="45.82172" lon="6.51417">
        <ele>936.3</ele>
        <time>2022-06-15T12:25:07Z</time>
      </trkpt>
      <trkpt lat="45.82174" lon="6.51414">
        <ele>936.7</ele>
        <time>2022-06-15T12:25:08Z</time>
      </trkpt>
      <trkpt lat="45.82176" lon="6.51412">
        <ele>937.3</ele>
        <time>2022-06-15T12:25:09Z</time>
      </trkpt>
      <trkpt lat="45.82178" lon="6.5141">
        <ele>937.7</ele>
        <time>2022-06-15T12:25:10Z</time>
      </trkpt>
      <trkpt lat="45.8218" lon="6.51408">
        <ele>938.1</ele>
        <time>2022-06-15T12:25:11Z</time>
      </trkpt>
      <trkpt lat="45.82182" lon="6.51406">
        <ele>938.4</ele>
        <time>2022-06-15T12:25:12Z</time>
      </trkpt>
      <trkpt lat="45.82184" lon="6.51404">
        <ele>939</ele>
        <time>2022-06-15T12:25:13Z</time>
      </trkpt>
      <trkpt lat="45.82186" lon="6.51402">
        <ele>939.2</ele>
        <time>2022-06-15T12:25:14Z</time>
      </trkpt>
      <trkpt lat="45.82188" lon="6.514">
        <ele>939.3</ele>
        <time>2022-06-15T12:25:15Z</time>
      </trkpt>
      <trkpt lat="45.8219" lon="6.51397">
        <ele>938.9</ele>
        <time>2022-06-15T12:25:16Z</time>
      </trkpt>
      <trkpt lat="45.82192" lon="6.51395">
        <ele>939</ele>
        <time>2022-06-15T12:25:17Z</time>
      </trkpt>
      <trkpt lat="45.82195" lon="6.51393">
        <ele>938.9</ele>
        <time>2022-06-15T12:25:18Z</time>
      </trkpt>
      <trkpt lat="45.82196" lon="6.5139">
        <ele>938.7</ele>
        <time>2022-06-15T12:25:19Z</time>
      </trkpt>
      <trkpt lat="45.82198" lon="6.51388">
        <ele>939.2</ele>
        <time>2022-06-15T12:25:20Z</time>
      </trkpt>
      <trkpt lat="45.82199" lon="6.51386">
        <ele>940.3</ele>
        <time>2022-06-15T12:25:21Z</time>
      </trkpt>
      <trkpt lat="45.82201" lon="6.51383">
        <ele>941.2</ele>
        <time>2022-06-15T12:25:22Z</time>
      </trkpt>
      <trkpt lat="45.82203" lon="6.51381">
        <ele>942</ele>
        <time>2022-06-15T12:25:23Z</time>
      </trkpt>
      <trkpt lat="45.82204" lon="6.51378">
        <ele>942.6</ele>
        <time>2022-06-15T12:25:24Z</time>
      </trkpt>
      <trkpt lat="45.82206" lon="6.51376">
        <ele>943.7</ele>
        <time>2022-06-15T12:25:25Z</time>
      </trkpt>
      <trkpt lat="45.82208" lon="6.51374">
        <ele>944.6</ele>
        <time>2022-06-15T12:25:26Z</time>
      </trkpt>
      <trkpt lat="45.82209" lon="6.51371">
        <ele>944.4</ele>
        <time>2022-06-15T12:25:27Z</time>
      </trkpt>
      <trkpt lat="45.82211" lon="6.51368">
        <ele>944.8</ele>
        <time>2022-06-15T12:25:28Z</time>
      </trkpt>
      <trkpt lat="45.82212" lon="6.51365">
        <ele>944.7</ele>
        <time>2022-06-15T12:25:29Z</time>
      </trkpt>
      <trkpt lat="45.82213" lon="6.51362">
        <ele>944.5</ele>
        <time>2022-06-15T12:25:30Z</time>
      </trkpt>
      <trkpt lat="45.82215" lon="6.51359">
        <ele>944.3</ele>
        <time>2022-06-15T12:25:31Z</time>
      </trkpt>
      <trkpt lat="45.82216" lon="6.51355">
        <ele>943.6</ele>
        <time>2022-06-15T12:25:32Z</time>
      </trkpt>
      <trkpt lat="45.82218" lon="6.51352">
        <ele>943.4</ele>
        <time>2022-06-15T12:25:33Z</time>
      </trkpt>
      <trkpt lat="45.82219" lon="6.51349">
        <ele>942.6</ele>
        <time>2022-06-15T12:25:34Z</time>
      </trkpt>
      <trkpt lat="45.8222" lon="6.51345">
        <ele>941.8</ele>
        <time>2022-06-15T12:25:35Z</time>
      </trkpt>
      <trkpt lat="45.82222" lon="6.51342">
        <ele>941.4</ele>
        <time>2022-06-15T12:25:36Z</time>
      </trkpt>
      <trkpt lat="45.82224" lon="6.5134">
        <ele>941.4</ele>
        <time>2022-06-15T12:25:37Z</time>
      </trkpt>
      <trkpt lat="45.82226" lon="6.51336">
        <ele>941.1</ele>
        <time>2022-06-15T12:25:38Z</time>
      </trkpt>
      <trkpt lat="45.82227" lon="6.51333">
        <ele>940.8</ele>
        <time>2022-06-15T12:25:39Z</time>
      </trkpt>
      <trkpt lat="45.82227" lon="6.51329">
        <ele>941.2</ele>
        <time>2022-06-15T12:25:40Z</time>
      </trkpt>
      <trkpt lat="45.82228" lon="6.51325">
        <ele>941.6</ele>
        <time>2022-06-15T12:25:41Z</time>
      </trkpt>
      <trkpt lat="45.82229" lon="6.51322">
        <ele>942.1</ele>
        <time>2022-06-15T12:25:42Z</time>
      </trkpt>
      <trkpt lat="45.8223" lon="6.51319">
        <ele>942.5</ele>
        <time>2022-06-15T12:25:43Z</time>
      </trkpt>
      <trkpt lat="45.82231" lon="6.51315">
        <ele>942.9</ele>
        <time>2022-06-15T12:25:44Z</time>
      </trkpt>
      <trkpt lat="45.82233" lon="6.51313">
        <ele>943.7</ele>
        <time>2022-06-15T12:25:45Z</time>
      </trkpt>
      <trkpt lat="45.82234" lon="6.5131">
        <ele>944.2</ele>
        <time>2022-06-15T12:25:46Z</time>
      </trkpt>
      <trkpt lat="45.82235" lon="6.51307">
        <ele>944.6</ele>
        <time>2022-06-15T12:25:47Z</time>
      </trkpt>
      <trkpt lat="45.82236" lon="6.51304">
        <ele>944.6</ele>
        <time>2022-06-15T12:25:48Z</time>
      </trkpt>
      <trkpt lat="45.82237" lon="6.513">
        <ele>944.2</ele>
        <time>2022-06-15T12:25:49Z</time>
      </trkpt>
      <trkpt lat="45.82238" lon="6.51296">
        <ele>944</ele>
        <time>2022-06-15T12:25:50Z</time>
      </trkpt>
      <trkpt lat="45.82239" lon="6.51293">
        <ele>943.9</ele>
        <time>2022-06-15T12:25:51Z</time>
      </trkpt>
      <trkpt lat="45.82239" lon="6.51289">
        <ele>943.6</ele>
        <time>2022-06-15T12:25:52Z</time>
      </trkpt>
      <trkpt lat="45.8224" lon="6.51286">
        <ele>943.4</ele>
        <time>2022-06-15T12:25:53Z</time>
      </trkpt>
      <trkpt lat="45.82241" lon="6.51282">
        <ele>942.9</ele>
        <time>2022-06-15T12:25:54Z</time>
      </trkpt>
      <trkpt lat="45.82241" lon="6.51278">
        <ele>942.3</ele>
        <time>2022-06-15T12:25:55Z</time>
      </trkpt>
      <trkpt lat="45.82241" lon="6.51275">
        <ele>942</ele>
        <time>2022-06-15T12:25:56Z</time>
      </trkpt>
      <trkpt lat="45.82242" lon="6.51271">
        <ele>941.9</ele>
        <time>2022-06-15T12:25:57Z</time>
      </trkpt>
      <trkpt lat="45.82242" lon="6.51268">
        <ele>941.6</ele>
        <time>2022-06-15T12:25:58Z</time>
      </trkpt>
      <trkpt lat="45.82243" lon="6.51264">
        <ele>941.4</ele>
        <time>2022-06-15T12:25:59Z</time>
      </trkpt>
      <trkpt lat="45.82243" lon="6.51261">
        <ele>941.2</ele>
        <time>2022-06-15T12:26:00Z</time>
      </trkpt>
      <trkpt lat="45.82244" lon="6.51257">
        <ele>941.1</ele>
        <time>2022-06-15T12:26:01Z</time>
      </trkpt>
      <trkpt lat="45.82245" lon="6.51254">
        <ele>941.1</ele>
        <time>2022-06-15T12:26:02Z</time>
      </trkpt>
      <trkpt lat="45.82246" lon="6.51251">
        <ele>941.1</ele>
        <time>2022-06-15T12:26:03Z</time>
      </trkpt>
      <trkpt lat="45.82247" lon="6.51248">
        <ele>941.3</ele>
        <time>2022-06-15T12:26:04Z</time>
      </trkpt>
      <trkpt lat="45.82248" lon="6.51245">
        <ele>941.6</ele>
        <time>2022-06-15T12:26:05Z</time>
      </trkpt>
      <trkpt lat="45.8225" lon="6.51242">
        <ele>942.1</ele>
        <time>2022-06-15T12:26:06Z</time>
      </trkpt>
      <trkpt lat="45.82251" lon="6.51239">
        <ele>942.6</ele>
        <time>2022-06-15T12:26:07Z</time>
      </trkpt>
      <trkpt lat="45.82252" lon="6.51236">
        <ele>943</ele>
        <time>2022-06-15T12:26:08Z</time>
      </trkpt>
      <trkpt lat="45.82254" lon="6.51233">
        <ele>943.5</ele>
        <time>2022-06-15T12:26:09Z</time>
      </trkpt>
      <trkpt lat="45.82255" lon="6.5123">
        <ele>943.7</ele>
        <time>2022-06-15T12:26:10Z</time>
      </trkpt>
      <trkpt lat="45.82257" lon="6.51227">
        <ele>943.9</ele>
        <time>2022-06-15T12:26:11Z</time>
      </trkpt>
      <trkpt lat="45.82259" lon="6.51225">
        <ele>944</ele>
        <time>2022-06-15T12:26:12Z</time>
      </trkpt>
      <trkpt lat="45.8226" lon="6.51222">
        <ele>943.8</ele>
        <time>2022-06-15T12:26:13Z</time>
      </trkpt>
      <trkpt lat="45.82262" lon="6.51219">
        <ele>943.7</ele>
        <time>2022-06-15T12:26:14Z</time>
      </trkpt>
      <trkpt lat="45.82264" lon="6.51216">
        <ele>943.8</ele>
        <time>2022-06-15T12:26:15Z</time>
      </trkpt>
      <trkpt lat="45.82265" lon="6.51214">
        <ele>943.8</ele>
        <time>2022-06-15T12:26:16Z</time>
      </trkpt>
      <trkpt lat="45.82267" lon="6.51211">
        <ele>944</ele>
        <time>2022-06-15T12:26:17Z</time>
      </trkpt>
      <trkpt lat="45.82269" lon="6.51208">
        <ele>944.3</ele>
        <time>2022-06-15T12:26:18Z</time>
      </trkpt>
      <trkpt lat="45.82271" lon="6.51206">
        <ele>944.5</ele>
        <time>2022-06-15T12:26:19Z</time>
      </trkpt>
      <trkpt lat="45.82272" lon="6.51203">
        <ele>944.8</ele>
        <time>2022-06-15T12:26:20Z</time>
      </trkpt>
      <trkpt lat="45.82274" lon="6.51201">
        <ele>945.1</ele>
        <time>2022-06-15T12:26:21Z</time>
      </trkpt>
      <trkpt lat="45.82276" lon="6.51198">
        <ele>945.4</ele>
        <time>2022-06-15T12:26:22Z</time>
      </trkpt>
      <trkpt lat="45.82277" lon="6.51195">
        <ele>945.7</ele>
        <time>2022-06-15T12:26:23Z</time>
      </trkpt>
      <trkpt lat="45.82279" lon="6.51192">
        <ele>946</ele>
        <time>2022-06-15T12:26:24Z</time>
      </trkpt>
      <trkpt lat="45.82281" lon="6.5119">
        <ele>946</ele>
        <time>2022-06-15T12:26:25Z</time>
      </trkpt>
      <trkpt lat="45.82283" lon="6.51188">
        <ele>946</ele>
        <time>2022-06-15T12:26:26Z</time>
      </trkpt>
      <trkpt lat="45.82285" lon="6.51186">
        <ele>946</ele>
        <time>2022-06-15T12:26:27Z</time>
      </trkpt>
      <trkpt lat="45.82287" lon="6.51183">
        <ele>945.8</ele>
        <time>2022-06-15T12:26:28Z</time>
      </trkpt>
      <trkpt lat="45.82289" lon="6.51182">
        <ele>945.6</ele>
        <time>2022-06-15T12:26:29Z</time>
      </trkpt>
      <trkpt lat="45.82291" lon="6.51181">
        <ele>945.6</ele>
        <time>2022-06-15T12:26:30Z</time>
      </trkpt>
      <trkpt lat="45.82294" lon="6.51181">
        <ele>945.9</ele>
        <time>2022-06-15T12:26:31Z</time>
      </trkpt>
      <trkpt lat="45.82296" lon="6.51181">
        <ele>946</ele>
        <time>2022-06-15T12:26:32Z</time>
      </trkpt>
      <trkpt lat="45.82299" lon="6.51182">
        <ele>946.4</ele>
        <time>2022-06-15T12:26:33Z</time>
      </trkpt>
      <trkpt lat="45.82301" lon="6.51183">
        <ele>947</ele>
        <time>2022-06-15T12:26:34Z</time>
      </trkpt>
      <trkpt lat="45.82304" lon="6.51184">
        <ele>947.9</ele>
        <time>2022-06-15T12:26:35Z</time>
      </trkpt>
      <trkpt lat="45.82306" lon="6.51186">
        <ele>949</ele>
        <time>2022-06-15T12:26:36Z</time>
      </trkpt>
      <trkpt lat="45.82308" lon="6.51188">
        <ele>949.3</ele>
        <time>2022-06-15T12:26:37Z</time>
      </trkpt>
      <trkpt lat="45.8231" lon="6.5119">
        <ele>949.8</ele>
        <time>2022-06-15T12:26:38Z</time>
      </trkpt>
      <trkpt lat="45.82312" lon="6.51193">
        <ele>950.6</ele>
        <time>2022-06-15T12:26:39Z</time>
      </trkpt>
      <trkpt lat="45.82314" lon="6.51195">
        <ele>951.5</ele>
        <time>2022-06-15T12:26:40Z</time>
      </trkpt>
      <trkpt lat="45.82315" lon="6.51198">
        <ele>952</ele>
        <time>2022-06-15T12:26:41Z</time>
      </trkpt>
      <trkpt lat="45.82317" lon="6.512">
        <ele>952.2</ele>
        <time>2022-06-15T12:26:42Z</time>
      </trkpt>
      <trkpt lat="45.82319" lon="6.51202">
        <ele>952.4</ele>
        <time>2022-06-15T12:26:43Z</time>
      </trkpt>
      <trkpt lat="45.82321" lon="6.51205">
        <ele>952.8</ele>
        <time>2022-06-15T12:26:44Z</time>
      </trkpt>
      <trkpt lat="45.82322" lon="6.51208">
        <ele>953.1</ele>
        <time>2022-06-15T12:26:45Z</time>
      </trkpt>
      <trkpt lat="45.82324" lon="6.51211">
        <ele>953.3</ele>
        <time>2022-06-15T12:26:46Z</time>
      </trkpt>
      <trkpt lat="45.82325" lon="6.51214">
        <ele>953.4</ele>
        <time>2022-06-15T12:26:47Z</time>
      </trkpt>
      <trkpt lat="45.82327" lon="6.51217">
        <ele>953.6</ele>
        <time>2022-06-15T12:26:48Z</time>
      </trkpt>
      <trkpt lat="45.82328" lon="6.5122">
        <ele>953.9</ele>
        <time>2022-06-15T12:26:49Z</time>
      </trkpt>
      <trkpt lat="45.82328" lon="6.51223">
        <ele>954.5</ele>
        <time>2022-06-15T12:26:50Z</time>
      </trkpt>
      <trkpt lat="45.82329" lon="6.51226">
        <ele>955.5</ele>
        <time>2022-06-15T12:26:51Z</time>
      </trkpt>
      <trkpt lat="45.8233" lon="6.51229">
        <ele>956.4</ele>
        <time>2022-06-15T12:26:52Z</time>
      </trkpt>
      <trkpt lat="45.82332" lon="6.51232">
        <ele>957.4</ele>
        <time>2022-06-15T12:26:53Z</time>
      </trkpt>
      <trkpt lat="45.82333" lon="6.51234">
        <ele>958.2</ele>
        <time>2022-06-15T12:26:54Z</time>
      </trkpt>
      <trkpt lat="45.82334" lon="6.51237">
        <ele>958.8</ele>
        <time>2022-06-15T12:26:55Z</time>
      </trkpt>
      <trkpt lat="45.82335" lon="6.5124">
        <ele>959.6</ele>
        <time>2022-06-15T12:26:56Z</time>
      </trkpt>
      <trkpt lat="45.82337" lon="6.51242">
        <ele>959.7</ele>
        <time>2022-06-15T12:26:57Z</time>
      </trkpt>
      <trkpt lat="45.82338" lon="6.51245">
        <ele>959.8</ele>
        <time>2022-06-15T12:26:58Z</time>
      </trkpt>
      <trkpt lat="45.8234" lon="6.51247">
        <ele>960.4</ele>
        <time>2022-06-15T12:26:59Z</time>
      </trkpt>
      <trkpt lat="45.82341" lon="6.5125">
        <ele>960.9</ele>
        <time>2022-06-15T12:27:00Z</time>
      </trkpt>
      <trkpt lat="45.82342" lon="6.51252">
        <ele>961.4</ele>
        <time>2022-06-15T12:27:01Z</time>
      </trkpt>
      <trkpt lat="45.82344" lon="6.51254">
        <ele>961.8</ele>
        <time>2022-06-15T12:27:02Z</time>
      </trkpt>
      <trkpt lat="45.82345" lon="6.51255">
        <ele>961.5</ele>
        <time>2022-06-15T12:27:03Z</time>
      </trkpt>
      <trkpt lat="45.82347" lon="6.51258">
        <ele>962.4</ele>
        <time>2022-06-15T12:27:04Z</time>
      </trkpt>
      <trkpt lat="45.82348" lon="6.51261">
        <ele>963</ele>
        <time>2022-06-15T12:27:05Z</time>
      </trkpt>
      <trkpt lat="45.8235" lon="6.51263">
        <ele>963.5</ele>
        <time>2022-06-15T12:27:06Z</time>
      </trkpt>
      <trkpt lat="45.82351" lon="6.51265">
        <ele>963.7</ele>
        <time>2022-06-15T12:27:07Z</time>
      </trkpt>
      <trkpt lat="45.82353" lon="6.51267">
        <ele>963.5</ele>
        <time>2022-06-15T12:27:08Z</time>
      </trkpt>
      <trkpt lat="45.82355" lon="6.51269">
        <ele>963.5</ele>
        <time>2022-06-15T12:27:09Z</time>
      </trkpt>
      <trkpt lat="45.82357" lon="6.51271">
        <ele>963.5</ele>
        <time>2022-06-15T12:27:10Z</time>
      </trkpt>
      <trkpt lat="45.82358" lon="6.51274">
        <ele>963.8</ele>
        <time>2022-06-15T12:27:11Z</time>
      </trkpt>
      <trkpt lat="45.8236" lon="6.51276">
        <ele>963.8</ele>
        <time>2022-06-15T12:27:12Z</time>
      </trkpt>
      <trkpt lat="45.82362" lon="6.51278">
        <ele>963.9</ele>
        <time>2022-06-15T12:27:13Z</time>
      </trkpt>
      <trkpt lat="45.82363" lon="6.5128">
        <ele>964.9</ele>
        <time>2022-06-15T12:27:14Z</time>
      </trkpt>
      <trkpt lat="45.82365" lon="6.51282">
        <ele>965.7</ele>
        <time>2022-06-15T12:27:15Z</time>
      </trkpt>
      <trkpt lat="45.82366" lon="6.51284">
        <ele>966</ele>
        <time>2022-06-15T12:27:16Z</time>
      </trkpt>
      <trkpt lat="45.82368" lon="6.51285">
        <ele>966</ele>
        <time>2022-06-15T12:27:17Z</time>
      </trkpt>
      <trkpt lat="45.8237" lon="6.51286">
        <ele>965.8</ele>
        <time>2022-06-15T12:27:18Z</time>
      </trkpt>
      <trkpt lat="45.82373" lon="6.51286">
        <ele>965.2</ele>
        <time>2022-06-15T12:27:19Z</time>
      </trkpt>
      <trkpt lat="45.82375" lon="6.51285">
        <ele>964</ele>
        <time>2022-06-15T12:27:20Z</time>
      </trkpt>
      <trkpt lat="45.82378" lon="6.51284">
        <ele>962.7</ele>
        <time>2022-06-15T12:27:21Z</time>
      </trkpt>
      <trkpt lat="45.8238" lon="6.51282">
        <ele>961.5</ele>
        <time>2022-06-15T12:27:22Z</time>
      </trkpt>
      <trkpt lat="45.82382" lon="6.51281">
        <ele>960.4</ele>
        <time>2022-06-15T12:27:23Z</time>
      </trkpt>
      <trkpt lat="45.82384" lon="6.51279">
        <ele>959.3</ele>
        <time>2022-06-15T12:27:24Z</time>
      </trkpt>
      <trkpt lat="45.82386" lon="6.51277">
        <ele>958.6</ele>
        <time>2022-06-15T12:27:25Z</time>
      </trkpt>
      <trkpt lat="45.82388" lon="6.51274">
        <ele>958.4</ele>
        <time>2022-06-15T12:27:26Z</time>
      </trkpt>
      <trkpt lat="45.82389" lon="6.51271">
        <ele>958.8</ele>
        <time>2022-06-15T12:27:27Z</time>
      </trkpt>
      <trkpt lat="45.8239" lon="6.51268">
        <ele>959.6</ele>
        <time>2022-06-15T12:27:28Z</time>
      </trkpt>
      <trkpt lat="45.82392" lon="6.51265">
        <ele>960.6</ele>
        <time>2022-06-15T12:27:29Z</time>
      </trkpt>
      <trkpt lat="45.82393" lon="6.51262">
        <ele>961.7</ele>
        <time>2022-06-15T12:27:30Z</time>
      </trkpt>
      <trkpt lat="45.82394" lon="6.51259">
        <ele>962.9</ele>
        <time>2022-06-15T12:27:31Z</time>
      </trkpt>
      <trkpt lat="45.82395" lon="6.51256">
        <ele>963.9</ele>
        <time>2022-06-15T12:27:32Z</time>
      </trkpt>
      <trkpt lat="45.82396" lon="6.51253">
        <ele>965.1</ele>
        <time>2022-06-15T12:27:33Z</time>
      </trkpt>
      <trkpt lat="45.82397" lon="6.5125">
        <ele>966.1</ele>
        <time>2022-06-15T12:27:34Z</time>
      </trkpt>
      <trkpt lat="45.82399" lon="6.51246">
        <ele>966.4</ele>
        <time>2022-06-15T12:27:35Z</time>
      </trkpt>
      <trkpt lat="45.824" lon="6.51243">
        <ele>966.1</ele>
        <time>2022-06-15T12:27:36Z</time>
      </trkpt>
      <trkpt lat="45.82401" lon="6.5124">
        <ele>965.7</ele>
        <time>2022-06-15T12:27:37Z</time>
      </trkpt>
      <trkpt lat="45.82402" lon="6.51237">
        <ele>965.6</ele>
        <time>2022-06-15T12:27:38Z</time>
      </trkpt>
      <trkpt lat="45.82404" lon="6.51235">
        <ele>965.5</ele>
        <time>2022-06-15T12:27:39Z</time>
      </trkpt>
      <trkpt lat="45.82405" lon="6.51232">
        <ele>965.3</ele>
        <time>2022-06-15T12:27:40Z</time>
      </trkpt>
      <trkpt lat="45.82407" lon="6.5123">
        <ele>965.3</ele>
        <time>2022-06-15T12:27:41Z</time>
      </trkpt>
      <trkpt lat="45.82408" lon="6.51228">
        <ele>964.5</ele>
        <time>2022-06-15T12:27:42Z</time>
      </trkpt>
      <trkpt lat="45.82409" lon="6.51225">
        <ele>963.8</ele>
        <time>2022-06-15T12:27:43Z</time>
      </trkpt>
      <trkpt lat="45.82411" lon="6.51223">
        <ele>963</ele>
        <time>2022-06-15T12:27:44Z</time>
      </trkpt>
      <trkpt lat="45.82413" lon="6.51221">
        <ele>962.8</ele>
        <time>2022-06-15T12:27:45Z</time>
      </trkpt>
      <trkpt lat="45.82414" lon="6.51219">
        <ele>962.6</ele>
        <time>2022-06-15T12:27:46Z</time>
      </trkpt>
      <trkpt lat="45.82416" lon="6.51217">
        <ele>962.5</ele>
        <time>2022-06-15T12:27:47Z</time>
      </trkpt>
      <trkpt lat="45.82417" lon="6.51214">
        <ele>962.6</ele>
        <time>2022-06-15T12:27:48Z</time>
      </trkpt>
      <trkpt lat="45.82419" lon="6.51212">
        <ele>963</ele>
        <time>2022-06-15T12:27:49Z</time>
      </trkpt>
      <trkpt lat="45.8242" lon="6.5121">
        <ele>963</ele>
        <time>2022-06-15T12:27:50Z</time>
      </trkpt>
      <trkpt lat="45.82422" lon="6.51207">
        <ele>963.2</ele>
        <time>2022-06-15T12:27:51Z</time>
      </trkpt>
      <trkpt lat="45.82424" lon="6.51205">
        <ele>963.2</ele>
        <time>2022-06-15T12:27:52Z</time>
      </trkpt>
      <trkpt lat="45.82426" lon="6.51203">
        <ele>963.5</ele>
        <time>2022-06-15T12:27:53Z</time>
      </trkpt>
      <trkpt lat="45.82427" lon="6.51202">
        <ele>963.8</ele>
        <time>2022-06-15T12:27:54Z</time>
      </trkpt>
      <trkpt lat="45.82429" lon="6.51201">
        <ele>964.2</ele>
        <time>2022-06-15T12:27:55Z</time>
      </trkpt>
      <trkpt lat="45.82431" lon="6.51199">
        <ele>964.3</ele>
        <time>2022-06-15T12:27:56Z</time>
      </trkpt>
      <trkpt lat="45.82433" lon="6.51197">
        <ele>964.4</ele>
        <time>2022-06-15T12:27:57Z</time>
      </trkpt>
      <trkpt lat="45.82435" lon="6.51196">
        <ele>964.7</ele>
        <time>2022-06-15T12:27:58Z</time>
      </trkpt>
      <trkpt lat="45.82438" lon="6.51195">
        <ele>965</ele>
        <time>2022-06-15T12:27:59Z</time>
      </trkpt>
      <trkpt lat="45.8244" lon="6.51194">
        <ele>965.2</ele>
        <time>2022-06-15T12:28:00Z</time>
      </trkpt>
      <trkpt lat="45.82442" lon="6.51193">
        <ele>965.1</ele>
        <time>2022-06-15T12:28:01Z</time>
      </trkpt>
      <trkpt lat="45.82444" lon="6.51191">
        <ele>964.7</ele>
        <time>2022-06-15T12:28:02Z</time>
      </trkpt>
      <trkpt lat="45.82446" lon="6.5119">
        <ele>964.6</ele>
        <time>2022-06-15T12:28:03Z</time>
      </trkpt>
      <trkpt lat="45.82448" lon="6.51189">
        <ele>964.5</ele>
        <time>2022-06-15T12:28:04Z</time>
      </trkpt>
      <trkpt lat="45.8245" lon="6.51188">
        <ele>964.7</ele>
        <time>2022-06-15T12:28:05Z</time>
      </trkpt>
      <trkpt lat="45.82452" lon="6.51186">
        <ele>964.8</ele>
        <time>2022-06-15T12:28:06Z</time>
      </trkpt>
      <trkpt lat="45.82455" lon="6.51186">
        <ele>965.2</ele>
        <time>2022-06-15T12:28:07Z</time>
      </trkpt>
      <trkpt lat="45.82457" lon="6.51185">
        <ele>965.7</ele>
        <time>2022-06-15T12:28:08Z</time>
      </trkpt>
      <trkpt lat="45.8246" lon="6.51184">
        <ele>966.2</ele>
        <time>2022-06-15T12:28:09Z</time>
      </trkpt>
      <trkpt lat="45.82462" lon="6.51183">
        <ele>966.5</ele>
        <time>2022-06-15T12:28:10Z</time>
      </trkpt>
      <trkpt lat="45.82464" lon="6.51183">
        <ele>967.1</ele>
        <time>2022-06-15T12:28:11Z</time>
      </trkpt>
      <trkpt lat="45.82466" lon="6.51182">
        <ele>967.5</ele>
        <time>2022-06-15T12:28:12Z</time>
      </trkpt>
      <trkpt lat="45.82468" lon="6.5118">
        <ele>967.7</ele>
        <time>2022-06-15T12:28:13Z</time>
      </trkpt>
      <trkpt lat="45.8247" lon="6.51179">
        <ele>968.1</ele>
        <time>2022-06-15T12:28:14Z</time>
      </trkpt>
      <trkpt lat="45.82473" lon="6.51178">
        <ele>968.6</ele>
        <time>2022-06-15T12:28:15Z</time>
      </trkpt>
      <trkpt lat="45.82475" lon="6.51176">
        <ele>968.8</ele>
        <time>2022-06-15T12:28:16Z</time>
      </trkpt>
      <trkpt lat="45.82477" lon="6.51174">
        <ele>968.9</ele>
        <time>2022-06-15T12:28:17Z</time>
      </trkpt>
      <trkpt lat="45.82479" lon="6.51172">
        <ele>968.9</ele>
        <time>2022-06-15T12:28:18Z</time>
      </trkpt>
      <trkpt lat="45.8248" lon="6.5117">
        <ele>968.8</ele>
        <time>2022-06-15T12:28:19Z</time>
      </trkpt>
      <trkpt lat="45.82482" lon="6.51168">
        <ele>968.9</ele>
        <time>2022-06-15T12:28:20Z</time>
      </trkpt>
      <trkpt lat="45.82484" lon="6.51166">
        <ele>968.8</ele>
        <time>2022-06-15T12:28:21Z</time>
      </trkpt>
      <trkpt lat="45.82486" lon="6.51164">
        <ele>968.7</ele>
        <time>2022-06-15T12:28:22Z</time>
      </trkpt>
      <trkpt lat="45.82488" lon="6.51161">
        <ele>968.7</ele>
        <time>2022-06-15T12:28:23Z</time>
      </trkpt>
      <trkpt lat="45.8249" lon="6.51159">
        <ele>968.9</ele>
        <time>2022-06-15T12:28:24Z</time>
      </trkpt>
      <trkpt lat="45.82491" lon="6.51156">
        <ele>968.9</ele>
        <time>2022-06-15T12:28:25Z</time>
      </trkpt>
      <trkpt lat="45.82492" lon="6.51152">
        <ele>968.3</ele>
        <time>2022-06-15T12:28:26Z</time>
      </trkpt>
      <trkpt lat="45.82495" lon="6.5115">
        <ele>969.1</ele>
        <time>2022-06-15T12:28:27Z</time>
      </trkpt>
      <trkpt lat="45.82496" lon="6.51146">
        <ele>969.4</ele>
        <time>2022-06-15T12:28:28Z</time>
      </trkpt>
      <trkpt lat="45.82498" lon="6.51144">
        <ele>970.2</ele>
        <time>2022-06-15T12:28:29Z</time>
      </trkpt>
      <trkpt lat="45.825" lon="6.51141">
        <ele>971.2</ele>
        <time>2022-06-15T12:28:30Z</time>
      </trkpt>
      <trkpt lat="45.82502" lon="6.51137">
        <ele>971.6</ele>
        <time>2022-06-15T12:28:31Z</time>
      </trkpt>
      <trkpt lat="45.82503" lon="6.51133">
        <ele>971.8</ele>
        <time>2022-06-15T12:28:32Z</time>
      </trkpt>
      <trkpt lat="45.82506" lon="6.5113">
        <ele>972.6</ele>
        <time>2022-06-15T12:28:33Z</time>
      </trkpt>
      <trkpt lat="45.82508" lon="6.51127">
        <ele>973.1</ele>
        <time>2022-06-15T12:28:34Z</time>
      </trkpt>
      <trkpt lat="45.8251" lon="6.51123">
        <ele>973.4</ele>
        <time>2022-06-15T12:28:35Z</time>
      </trkpt>
      <trkpt lat="45.82511" lon="6.5112">
        <ele>973.6</ele>
        <time>2022-06-15T12:28:36Z</time>
      </trkpt>
      <trkpt lat="45.82513" lon="6.51117">
        <ele>973.9</ele>
        <time>2022-06-15T12:28:37Z</time>
      </trkpt>
      <trkpt lat="45.82515" lon="6.51114">
        <ele>973.8</ele>
        <time>2022-06-15T12:28:38Z</time>
      </trkpt>
      <trkpt lat="45.82517" lon="6.51111">
        <ele>973.8</ele>
        <time>2022-06-15T12:28:39Z</time>
      </trkpt>
      <trkpt lat="45.82519" lon="6.51108">
        <ele>974</ele>
        <time>2022-06-15T12:28:40Z</time>
      </trkpt>
      <trkpt lat="45.82521" lon="6.51105">
        <ele>974.1</ele>
        <time>2022-06-15T12:28:41Z</time>
      </trkpt>
      <trkpt lat="45.82523" lon="6.51102">
        <ele>974.3</ele>
        <time>2022-06-15T12:28:42Z</time>
      </trkpt>
      <trkpt lat="45.82525" lon="6.51099">
        <ele>975</ele>
        <time>2022-06-15T12:28:43Z</time>
      </trkpt>
      <trkpt lat="45.82528" lon="6.51096">
        <ele>975.6</ele>
        <time>2022-06-15T12:28:44Z</time>
      </trkpt>
      <trkpt lat="45.8253" lon="6.51094">
        <ele>976.2</ele>
        <time>2022-06-15T12:28:45Z</time>
      </trkpt>
      <trkpt lat="45.82533" lon="6.51092">
        <ele>976.6</ele>
        <time>2022-06-15T12:28:46Z</time>
      </trkpt>
      <trkpt lat="45.82536" lon="6.5109">
        <ele>976.7</ele>
        <time>2022-06-15T12:28:47Z</time>
      </trkpt>
      <trkpt lat="45.82538" lon="6.51089">
        <ele>976.5</ele>
        <time>2022-06-15T12:28:48Z</time>
      </trkpt>
      <trkpt lat="45.82541" lon="6.51086">
        <ele>976</ele>
        <time>2022-06-15T12:28:49Z</time>
      </trkpt>
      <trkpt lat="45.82543" lon="6.51085">
        <ele>975.4</ele>
        <time>2022-06-15T12:28:50Z</time>
      </trkpt>
      <trkpt lat="45.82546" lon="6.51083">
        <ele>974.9</ele>
        <time>2022-06-15T12:28:51Z</time>
      </trkpt>
      <trkpt lat="45.82549" lon="6.51082">
        <ele>974.5</ele>
        <time>2022-06-15T12:28:52Z</time>
      </trkpt>
      <trkpt lat="45.82552" lon="6.5108">
        <ele>974.4</ele>
        <time>2022-06-15T12:28:53Z</time>
      </trkpt>
      <trkpt lat="45.82554" lon="6.51079">
        <ele>974.2</ele>
        <time>2022-06-15T12:28:54Z</time>
      </trkpt>
      <trkpt lat="45.82557" lon="6.51078">
        <ele>975.1</ele>
        <time>2022-06-15T12:28:55Z</time>
      </trkpt>
      <trkpt lat="45.8256" lon="6.51075">
        <ele>976</ele>
        <time>2022-06-15T12:28:56Z</time>
      </trkpt>
      <trkpt lat="45.82562" lon="6.51074">
        <ele>977.4</ele>
        <time>2022-06-15T12:28:57Z</time>
      </trkpt>
      <trkpt lat="45.82565" lon="6.51072">
        <ele>979</ele>
        <time>2022-06-15T12:28:58Z</time>
      </trkpt>
      <trkpt lat="45.82569" lon="6.51071">
        <ele>981</ele>
        <time>2022-06-15T12:28:59Z</time>
      </trkpt>
      <trkpt lat="45.82572" lon="6.5107">
        <ele>982.2</ele>
        <time>2022-06-15T12:29:00Z</time>
      </trkpt>
      <trkpt lat="45.82575" lon="6.51068">
        <ele>983.3</ele>
        <time>2022-06-15T12:29:01Z</time>
      </trkpt>
      <trkpt lat="45.82577" lon="6.51067">
        <ele>984.2</ele>
        <time>2022-06-15T12:29:02Z</time>
      </trkpt>
      <trkpt lat="45.8258" lon="6.51066">
        <ele>985.7</ele>
        <time>2022-06-15T12:29:03Z</time>
      </trkpt>
      <trkpt lat="45.82583" lon="6.51066">
        <ele>986.8</ele>
        <time>2022-06-15T12:29:04Z</time>
      </trkpt>
      <trkpt lat="45.82585" lon="6.51063">
        <ele>986</ele>
        <time>2022-06-15T12:29:05Z</time>
      </trkpt>
      <trkpt lat="45.82587" lon="6.51061">
        <ele>984.7</ele>
        <time>2022-06-15T12:29:06Z</time>
      </trkpt>
      <trkpt lat="45.82589" lon="6.51058">
        <ele>984.1</ele>
        <time>2022-06-15T12:29:07Z</time>
      </trkpt>
      <trkpt lat="45.82591" lon="6.51057">
        <ele>984</ele>
        <time>2022-06-15T12:29:08Z</time>
      </trkpt>
      <trkpt lat="45.82594" lon="6.51055">
        <ele>984.3</ele>
        <time>2022-06-15T12:29:09Z</time>
      </trkpt>
      <trkpt lat="45.82596" lon="6.51054">
        <ele>984.6</ele>
        <time>2022-06-15T12:29:10Z</time>
      </trkpt>
      <trkpt lat="45.82599" lon="6.51052">
        <ele>984.8</ele>
        <time>2022-06-15T12:29:11Z</time>
      </trkpt>
      <trkpt lat="45.82602" lon="6.5105">
        <ele>985.3</ele>
        <time>2022-06-15T12:29:12Z</time>
      </trkpt>
      <trkpt lat="45.82604" lon="6.51049">
        <ele>985.9</ele>
        <time>2022-06-15T12:29:13Z</time>
      </trkpt>
      <trkpt lat="45.82607" lon="6.51048">
        <ele>986.9</ele>
        <time>2022-06-15T12:29:14Z</time>
      </trkpt>
      <trkpt lat="45.8261" lon="6.51046">
        <ele>987.3</ele>
        <time>2022-06-15T12:29:15Z</time>
      </trkpt>
      <trkpt lat="45.82612" lon="6.51044">
        <ele>987.6</ele>
        <time>2022-06-15T12:29:16Z</time>
      </trkpt>
      <trkpt lat="45.82615" lon="6.51042">
        <ele>987.6</ele>
        <time>2022-06-15T12:29:17Z</time>
      </trkpt>
      <trkpt lat="45.82617" lon="6.51039">
        <ele>987.3</ele>
        <time>2022-06-15T12:29:18Z</time>
      </trkpt>
      <trkpt lat="45.82619" lon="6.51038">
        <ele>987.7</ele>
        <time>2022-06-15T12:29:19Z</time>
      </trkpt>
      <trkpt lat="45.82622" lon="6.51035">
        <ele>987.8</ele>
        <time>2022-06-15T12:29:20Z</time>
      </trkpt>
      <trkpt lat="45.82625" lon="6.51033">
        <ele>987.8</ele>
        <time>2022-06-15T12:29:21Z</time>
      </trkpt>
      <trkpt lat="45.82627" lon="6.5103">
        <ele>987.8</ele>
        <time>2022-06-15T12:29:22Z</time>
      </trkpt>
      <trkpt lat="45.8263" lon="6.51028">
        <ele>988</ele>
        <time>2022-06-15T12:29:23Z</time>
      </trkpt>
      <trkpt lat="45.82632" lon="6.51025">
        <ele>987.7</ele>
        <time>2022-06-15T12:29:24Z</time>
      </trkpt>
      <trkpt lat="45.82635" lon="6.51023">
        <ele>988</ele>
        <time>2022-06-15T12:29:25Z</time>
      </trkpt>
      <trkpt lat="45.82637" lon="6.5102">
        <ele>987.9</ele>
        <time>2022-06-15T12:29:26Z</time>
      </trkpt>
      <trkpt lat="45.8264" lon="6.51018">
        <ele>988.7</ele>
        <time>2022-06-15T12:29:27Z</time>
      </trkpt>
      <trkpt lat="45.82642" lon="6.51015">
        <ele>988.1</ele>
        <time>2022-06-15T12:29:28Z</time>
      </trkpt>
      <trkpt lat="45.82645" lon="6.51013">
        <ele>988.1</ele>
        <time>2022-06-15T12:29:29Z</time>
      </trkpt>
      <trkpt lat="45.82647" lon="6.51011">
        <ele>987.7</ele>
        <time>2022-06-15T12:29:30Z</time>
      </trkpt>
      <trkpt lat="45.82651" lon="6.51011">
        <ele>988.5</ele>
        <time>2022-06-15T12:29:31Z</time>
      </trkpt>
      <trkpt lat="45.82654" lon="6.5101">
        <ele>988.6</ele>
        <time>2022-06-15T12:29:32Z</time>
      </trkpt>
      <trkpt lat="45.82657" lon="6.51008">
        <ele>988.4</ele>
        <time>2022-06-15T12:29:33Z</time>
      </trkpt>
      <trkpt lat="45.82659" lon="6.51008">
        <ele>989.2</ele>
        <time>2022-06-15T12:29:34Z</time>
      </trkpt>
      <trkpt lat="45.82662" lon="6.5101">
        <ele>991.3</ele>
        <time>2022-06-15T12:29:35Z</time>
      </trkpt>
      <trkpt lat="45.82664" lon="6.51014">
        <ele>995.1</ele>
        <time>2022-06-15T12:29:36Z</time>
      </trkpt>
      <trkpt lat="45.82665" lon="6.51015">
        <ele>997.3</ele>
        <time>2022-06-15T12:29:37Z</time>
      </trkpt>
      <trkpt lat="45.82667" lon="6.51018">
        <ele>999.9</ele>
        <time>2022-06-15T12:29:38Z</time>
      </trkpt>
      <trkpt lat="45.82669" lon="6.5102">
        <ele>1000.6</ele>
        <time>2022-06-15T12:29:39Z</time>
      </trkpt>
      <trkpt lat="45.82672" lon="6.51022">
        <ele>1001.7</ele>
        <time>2022-06-15T12:29:40Z</time>
      </trkpt>
      <trkpt lat="45.82673" lon="6.51024">
        <ele>1003.3</ele>
        <time>2022-06-15T12:29:41Z</time>
      </trkpt>
      <trkpt lat="45.82675" lon="6.51025">
        <ele>1003.4</ele>
        <time>2022-06-15T12:29:42Z</time>
      </trkpt>
      <trkpt lat="45.82677" lon="6.51026">
        <ele>1002.8</ele>
        <time>2022-06-15T12:29:43Z</time>
      </trkpt>
      <trkpt lat="45.82678" lon="6.51026">
        <ele>1002.5</ele>
        <time>2022-06-15T12:29:44Z</time>
      </trkpt>
      <trkpt lat="45.82681" lon="6.51028">
        <ele>1003.1</ele>
        <time>2022-06-15T12:29:45Z</time>
      </trkpt>
      <trkpt lat="45.82683" lon="6.5103">
        <ele>1004.5</ele>
        <time>2022-06-15T12:29:46Z</time>
      </trkpt>
      <trkpt lat="45.82685" lon="6.51033">
        <ele>1005.8</ele>
        <time>2022-06-15T12:29:47Z</time>
      </trkpt>
      <trkpt lat="45.82688" lon="6.51035">
        <ele>1007.7</ele>
        <time>2022-06-15T12:29:48Z</time>
      </trkpt>
      <trkpt lat="45.8269" lon="6.51037">
        <ele>1009.2</ele>
        <time>2022-06-15T12:29:49Z</time>
      </trkpt>
      <trkpt lat="45.82692" lon="6.51039">
        <ele>1011.3</ele>
        <time>2022-06-15T12:29:50Z</time>
      </trkpt>
      <trkpt lat="45.82694" lon="6.51041">
        <ele>1014.1</ele>
        <time>2022-06-15T12:29:51Z</time>
      </trkpt>
      <trkpt lat="45.82697" lon="6.51042">
        <ele>1014.3</ele>
        <time>2022-06-15T12:29:52Z</time>
      </trkpt>
      <trkpt lat="45.827" lon="6.5104">
        <ele>1012</ele>
        <time>2022-06-15T12:29:53Z</time>
      </trkpt>
      <trkpt lat="45.82704" lon="6.51036">
        <ele>1005.5</ele>
        <time>2022-06-15T12:29:54Z</time>
      </trkpt>
      <trkpt lat="45.82706" lon="6.51035">
        <ele>1003.9</ele>
        <time>2022-06-15T12:29:55Z</time>
      </trkpt>
      <trkpt lat="45.82709" lon="6.51036">
        <ele>1004.6</ele>
        <time>2022-06-15T12:29:56Z</time>
      </trkpt>
      <trkpt lat="45.82711" lon="6.51035">
        <ele>1002.3</ele>
        <time>2022-06-15T12:29:57Z</time>
      </trkpt>
      <trkpt lat="45.82714" lon="6.51033">
        <ele>1000.2</ele>
        <time>2022-06-15T12:29:58Z</time>
      </trkpt>
      <trkpt lat="45.82717" lon="6.51034">
        <ele>1000</ele>
        <time>2022-06-15T12:29:59Z</time>
      </trkpt>
      <trkpt lat="45.82719" lon="6.51035">
        <ele>1001.5</ele>
        <time>2022-06-15T12:30:00Z</time>
      </trkpt>
      <trkpt lat="45.82722" lon="6.51037">
        <ele>1002.9</ele>
        <time>2022-06-15T12:30:01Z</time>
      </trkpt>
      <trkpt lat="45.82725" lon="6.51037">
        <ele>1003.4</ele>
        <time>2022-06-15T12:30:02Z</time>
      </trkpt>
      <trkpt lat="45.82728" lon="6.51036">
        <ele>1002</ele>
        <time>2022-06-15T12:30:03Z</time>
      </trkpt>
      <trkpt lat="45.8273" lon="6.51037">
        <ele>1002.1</ele>
        <time>2022-06-15T12:30:04Z</time>
      </trkpt>
      <trkpt lat="45.82733" lon="6.51036">
        <ele>1000.9</ele>
        <time>2022-06-15T12:30:05Z</time>
      </trkpt>
      <trkpt lat="45.82736" lon="6.51034">
        <ele>999.1</ele>
        <time>2022-06-15T12:30:06Z</time>
      </trkpt>
      <trkpt lat="45.82738" lon="6.51033">
        <ele>997.1</ele>
        <time>2022-06-15T12:30:07Z</time>
      </trkpt>
      <trkpt lat="45.82741" lon="6.51032">
        <ele>996.5</ele>
        <time>2022-06-15T12:30:08Z</time>
      </trkpt>
      <trkpt lat="45.82744" lon="6.51032">
        <ele>996</ele>
        <time>2022-06-15T12:30:09Z</time>
      </trkpt>
      <trkpt lat="45.82746" lon="6.51032">
        <ele>995.6</ele>
        <time>2022-06-15T12:30:10Z</time>
      </trkpt>
      <trkpt lat="45.82749" lon="6.51031">
        <ele>995.2</ele>
        <time>2022-06-15T12:30:11Z</time>
      </trkpt>
      <trkpt lat="45.82752" lon="6.51031">
        <ele>994.7</ele>
        <time>2022-06-15T12:30:12Z</time>
      </trkpt>
      <trkpt lat="45.82754" lon="6.5103">
        <ele>993.9</ele>
        <time>2022-06-15T12:30:13Z</time>
      </trkpt>
      <trkpt lat="45.82756" lon="6.51029">
        <ele>993.4</ele>
        <time>2022-06-15T12:30:14Z</time>
      </trkpt>
      <trkpt lat="45.82759" lon="6.51029">
        <ele>993.7</ele>
        <time>2022-06-15T12:30:15Z</time>
      </trkpt>
      <trkpt lat="45.82761" lon="6.51029">
        <ele>993.4</ele>
        <time>2022-06-15T12:30:16Z</time>
      </trkpt>
      <trkpt lat="45.82764" lon="6.51028">
        <ele>993.2</ele>
        <time>2022-06-15T12:30:17Z</time>
      </trkpt>
      <trkpt lat="45.82766" lon="6.51027">
        <ele>992.8</ele>
        <time>2022-06-15T12:30:18Z</time>
      </trkpt>
      <trkpt lat="45.82769" lon="6.51028">
        <ele>993.2</ele>
        <time>2022-06-15T12:30:19Z</time>
      </trkpt>
      <trkpt lat="45.82771" lon="6.51028">
        <ele>993.4</ele>
        <time>2022-06-15T12:30:20Z</time>
      </trkpt>
      <trkpt lat="45.82774" lon="6.51027">
        <ele>993.3</ele>
        <time>2022-06-15T12:30:21Z</time>
      </trkpt>
      <trkpt lat="45.82776" lon="6.51026">
        <ele>993.1</ele>
        <time>2022-06-15T12:30:22Z</time>
      </trkpt>
      <trkpt lat="45.82778" lon="6.51026">
        <ele>993.3</ele>
        <time>2022-06-15T12:30:23Z</time>
      </trkpt>
      <trkpt lat="45.82781" lon="6.51027">
        <ele>993.9</ele>
        <time>2022-06-15T12:30:24Z</time>
      </trkpt>
      <trkpt lat="45.82783" lon="6.51027">
        <ele>994.2</ele>
        <time>2022-06-15T12:30:25Z</time>
      </trkpt>
      <trkpt lat="45.82786" lon="6.51026">
        <ele>994.4</ele>
        <time>2022-06-15T12:30:26Z</time>
      </trkpt>
      <trkpt lat="45.82788" lon="6.51026">
        <ele>994.8</ele>
        <time>2022-06-15T12:30:27Z</time>
      </trkpt>
      <trkpt lat="45.8279" lon="6.51025">
        <ele>994.7</ele>
        <time>2022-06-15T12:30:28Z</time>
      </trkpt>
      <trkpt lat="45.82792" lon="6.51025">
        <ele>994.7</ele>
        <time>2022-06-15T12:30:29Z</time>
      </trkpt>
      <trkpt lat="45.82794" lon="6.51023">
        <ele>994.5</ele>
        <time>2022-06-15T12:30:30Z</time>
      </trkpt>
      <trkpt lat="45.82797" lon="6.51023">
        <ele>994.6</ele>
        <time>2022-06-15T12:30:31Z</time>
      </trkpt>
      <trkpt lat="45.82799" lon="6.51022">
        <ele>994.6</ele>
        <time>2022-06-15T12:30:32Z</time>
      </trkpt>
      <trkpt lat="45.82802" lon="6.51021">
        <ele>994.7</ele>
        <time>2022-06-15T12:30:33Z</time>
      </trkpt>
      <trkpt lat="45.82804" lon="6.5102">
        <ele>994.5</ele>
        <time>2022-06-15T12:30:34Z</time>
      </trkpt>
      <trkpt lat="45.82806" lon="6.51018">
        <ele>994.3</ele>
        <time>2022-06-15T12:30:35Z</time>
      </trkpt>
      <trkpt lat="45.82808" lon="6.51018">
        <ele>995</ele>
        <time>2022-06-15T12:30:36Z</time>
      </trkpt>
      <trkpt lat="45.82811" lon="6.51017">
        <ele>995.2</ele>
        <time>2022-06-15T12:30:37Z</time>
      </trkpt>
      <trkpt lat="45.82813" lon="6.51015">
        <ele>995.3</ele>
        <time>2022-06-15T12:30:38Z</time>
      </trkpt>
      <trkpt lat="45.82816" lon="6.51013">
        <ele>995.2</ele>
        <time>2022-06-15T12:30:39Z</time>
      </trkpt>
      <trkpt lat="45.82818" lon="6.51012">
        <ele>995</ele>
        <time>2022-06-15T12:30:40Z</time>
      </trkpt>
      <trkpt lat="45.8282" lon="6.5101">
        <ele>995.1</ele>
        <time>2022-06-15T12:30:41Z</time>
      </trkpt>
      <trkpt lat="45.82822" lon="6.51009">
        <ele>995.1</ele>
        <time>2022-06-15T12:30:42Z</time>
      </trkpt>
      <trkpt lat="45.82825" lon="6.51009">
        <ele>995.3</ele>
        <time>2022-06-15T12:30:43Z</time>
      </trkpt>
      <trkpt lat="45.82828" lon="6.51008">
        <ele>995.7</ele>
        <time>2022-06-15T12:30:44Z</time>
      </trkpt>
      <trkpt lat="45.82831" lon="6.51009">
        <ele>996.8</ele>
        <time>2022-06-15T12:30:45Z</time>
      </trkpt>
      <trkpt lat="45.82833" lon="6.51009">
        <ele>997.5</ele>
        <time>2022-06-15T12:30:46Z</time>
      </trkpt>
      <trkpt lat="45.82835" lon="6.51009">
        <ele>997.5</ele>
        <time>2022-06-15T12:30:47Z</time>
      </trkpt>
      <trkpt lat="45.82838" lon="6.5101">
        <ele>997.5</ele>
        <time>2022-06-15T12:30:48Z</time>
      </trkpt>
      <trkpt lat="45.8284" lon="6.51012">
        <ele>998.3</ele>
        <time>2022-06-15T12:30:49Z</time>
      </trkpt>
      <trkpt lat="45.82842" lon="6.51013">
        <ele>998.9</ele>
        <time>2022-06-15T12:30:50Z</time>
      </trkpt>
      <trkpt lat="45.82845" lon="6.51013">
        <ele>998.8</ele>
        <time>2022-06-15T12:30:51Z</time>
      </trkpt>
      <trkpt lat="45.82848" lon="6.51014">
        <ele>999.2</ele>
        <time>2022-06-15T12:30:52Z</time>
      </trkpt>
      <trkpt lat="45.82851" lon="6.51015">
        <ele>999.5</ele>
        <time>2022-06-15T12:30:53Z</time>
      </trkpt>
      <trkpt lat="45.82854" lon="6.51016">
        <ele>999.8</ele>
        <time>2022-06-15T12:30:54Z</time>
      </trkpt>
      <trkpt lat="45.82858" lon="6.51017">
        <ele>1001</ele>
        <time>2022-06-15T12:30:55Z</time>
      </trkpt>
      <trkpt lat="45.82861" lon="6.51017">
        <ele>1000.8</ele>
        <time>2022-06-15T12:30:56Z</time>
      </trkpt>
      <trkpt lat="45.82865" lon="6.51018">
        <ele>1003.7</ele>
        <time>2022-06-15T12:30:57Z</time>
      </trkpt>
      <trkpt lat="45.82869" lon="6.51019">
        <ele>1006.7</ele>
        <time>2022-06-15T12:30:58Z</time>
      </trkpt>
      <trkpt lat="45.82872" lon="6.5102">
        <ele>1009.4</ele>
        <time>2022-06-15T12:30:59Z</time>
      </trkpt>
      <trkpt lat="45.82876" lon="6.51021">
        <ele>1011.7</ele>
        <time>2022-06-15T12:31:00Z</time>
      </trkpt>
      <trkpt lat="45.8288" lon="6.51022">
        <ele>1015.3</ele>
        <time>2022-06-15T12:31:01Z</time>
      </trkpt>
      <trkpt lat="45.82884" lon="6.51022">
        <ele>1017.6</ele>
        <time>2022-06-15T12:31:02Z</time>
      </trkpt>
      <trkpt lat="45.82888" lon="6.51022">
        <ele>1020</ele>
        <time>2022-06-15T12:31:03Z</time>
      </trkpt>
      <trkpt lat="45.82892" lon="6.51023">
        <ele>1021.3</ele>
        <time>2022-06-15T12:31:04Z</time>
      </trkpt>
      <trkpt lat="45.82895" lon="6.51024">
        <ele>1022.8</ele>
        <time>2022-06-15T12:31:05Z</time>
      </trkpt>
      <trkpt lat="45.82899" lon="6.51025">
        <ele>1023.2</ele>
        <time>2022-06-15T12:31:06Z</time>
      </trkpt>
      <trkpt lat="45.82901" lon="6.51024">
        <ele>1022.8</ele>
        <time>2022-06-15T12:31:07Z</time>
      </trkpt>
      <trkpt lat="45.82903" lon="6.51024">
        <ele>1022.4</ele>
        <time>2022-06-15T12:31:08Z</time>
      </trkpt>
      <trkpt lat="45.82905" lon="6.51024">
        <ele>1022</ele>
        <time>2022-06-15T12:31:09Z</time>
      </trkpt>
      <trkpt lat="45.82907" lon="6.51023">
        <ele>1021.7</ele>
        <time>2022-06-15T12:31:10Z</time>
      </trkpt>
      <trkpt lat="45.82907" lon="6.51023">
        <ele>1021.7</ele>
        <time>2022-06-15T12:31:11Z</time>
      </trkpt>
      <trkpt lat="45.82907" lon="6.51023">
        <ele>1021.7</ele>
        <time>2022-06-15T12:31:12Z</time>
      </trkpt>
      <trkpt lat="45.82918" lon="6.51021">
        <ele>1019.2</ele>
        <time>2022-06-15T12:31:13Z</time>
      </trkpt>
      <trkpt lat="45.8293" lon="6.51018">
        <ele>1016.6</ele>
        <time>2022-06-15T12:31:14Z</time>
      </trkpt>
      <trkpt lat="45.82934" lon="6.51022">
        <ele>1019.4</ele>
        <time>2022-06-15T12:31:15Z</time>
      </trkpt>
      <trkpt lat="45.82939" lon="6.51021">
        <ele>1018.5</ele>
        <time>2022-06-15T12:31:16Z</time>
      </trkpt>
      <trkpt lat="45.82943" lon="6.5102">
        <ele>1017.5</ele>
        <time>2022-06-15T12:31:17Z</time>
      </trkpt>
      <trkpt lat="45.82947" lon="6.51018">
        <ele>1016.5</ele>
        <time>2022-06-15T12:31:18Z</time>
      </trkpt>
      <trkpt lat="45.82952" lon="6.51016">
        <ele>1015.2</ele>
        <time>2022-06-15T12:31:19Z</time>
      </trkpt>
      <trkpt lat="45.82956" lon="6.51013">
        <ele>1014.2</ele>
        <time>2022-06-15T12:31:20Z</time>
      </trkpt>
      <trkpt lat="45.82958" lon="6.51009">
        <ele>1012</ele>
        <time>2022-06-15T12:31:21Z</time>
      </trkpt>
      <trkpt lat="45.82962" lon="6.51006">
        <ele>1011</ele>
        <time>2022-06-15T12:31:22Z</time>
      </trkpt>
      <trkpt lat="45.82963" lon="6.51004">
        <ele>1010.3</ele>
        <time>2022-06-15T12:31:23Z</time>
      </trkpt>
      <trkpt lat="45.82967" lon="6.50996">
        <ele>1007.2</ele>
        <time>2022-06-15T12:31:24Z</time>
      </trkpt>
      <trkpt lat="45.82971" lon="6.50988">
        <ele>1005.4</ele>
        <time>2022-06-15T12:31:25Z</time>
      </trkpt>
      <trkpt lat="45.82974" lon="6.50985">
        <ele>1005.5</ele>
        <time>2022-06-15T12:31:26Z</time>
      </trkpt>
      <trkpt lat="45.82976" lon="6.50981">
        <ele>1004.6</ele>
        <time>2022-06-15T12:31:27Z</time>
      </trkpt>
      <trkpt lat="45.82978" lon="6.50977">
        <ele>1004.4</ele>
        <time>2022-06-15T12:31:28Z</time>
      </trkpt>
      <trkpt lat="45.82981" lon="6.50974">
        <ele>1004.7</ele>
        <time>2022-06-15T12:31:29Z</time>
      </trkpt>
      <trkpt lat="45.82984" lon="6.50971">
        <ele>1004.7</ele>
        <time>2022-06-15T12:31:30Z</time>
      </trkpt>
      <trkpt lat="45.82986" lon="6.50968">
        <ele>1004.8</ele>
        <time>2022-06-15T12:31:31Z</time>
      </trkpt>
      <trkpt lat="45.82989" lon="6.50965">
        <ele>1005.1</ele>
        <time>2022-06-15T12:31:32Z</time>
      </trkpt>
      <trkpt lat="45.82992" lon="6.50962">
        <ele>1005</ele>
        <time>2022-06-15T12:31:33Z</time>
      </trkpt>
      <trkpt lat="45.82994" lon="6.50958">
        <ele>1004.6</ele>
        <time>2022-06-15T12:31:34Z</time>
      </trkpt>
      <trkpt lat="45.82997" lon="6.50955">
        <ele>1004.8</ele>
        <time>2022-06-15T12:31:35Z</time>
      </trkpt>
      <trkpt lat="45.82999" lon="6.50952">
        <ele>1004.7</ele>
        <time>2022-06-15T12:31:36Z</time>
      </trkpt>
      <trkpt lat="45.83001" lon="6.50949">
        <ele>1004.4</ele>
        <time>2022-06-15T12:31:37Z</time>
      </trkpt>
      <trkpt lat="45.83003" lon="6.50946">
        <ele>1003.7</ele>
        <time>2022-06-15T12:31:38Z</time>
      </trkpt>
      <trkpt lat="45.83006" lon="6.50944">
        <ele>1003.5</ele>
        <time>2022-06-15T12:31:39Z</time>
      </trkpt>
      <trkpt lat="45.83009" lon="6.50941">
        <ele>1002.8</ele>
        <time>2022-06-15T12:31:40Z</time>
      </trkpt>
      <trkpt lat="45.83011" lon="6.5094">
        <ele>1002.6</ele>
        <time>2022-06-15T12:31:41Z</time>
      </trkpt>
      <trkpt lat="45.83015" lon="6.50939">
        <ele>1003.4</ele>
        <time>2022-06-15T12:31:42Z</time>
      </trkpt>
      <trkpt lat="45.83018" lon="6.50938">
        <ele>1003.8</ele>
        <time>2022-06-15T12:31:43Z</time>
      </trkpt>
      <trkpt lat="45.83021" lon="6.50937">
        <ele>1004.2</ele>
        <time>2022-06-15T12:31:44Z</time>
      </trkpt>
      <trkpt lat="45.83025" lon="6.50935">
        <ele>1004.3</ele>
        <time>2022-06-15T12:31:45Z</time>
      </trkpt>
      <trkpt lat="45.83027" lon="6.50933">
        <ele>1003.9</ele>
        <time>2022-06-15T12:31:46Z</time>
      </trkpt>
      <trkpt lat="45.8303" lon="6.5093">
        <ele>1004</ele>
        <time>2022-06-15T12:31:47Z</time>
      </trkpt>
      <trkpt lat="45.83033" lon="6.50927">
        <ele>1004.4</ele>
        <time>2022-06-15T12:31:48Z</time>
      </trkpt>
      <trkpt lat="45.83036" lon="6.50924">
        <ele>1004.2</ele>
        <time>2022-06-15T12:31:49Z</time>
      </trkpt>
      <trkpt lat="45.8304" lon="6.50922">
        <ele>1004.2</ele>
        <time>2022-06-15T12:31:50Z</time>
      </trkpt>
      <trkpt lat="45.83043" lon="6.5092">
        <ele>1004.4</ele>
        <time>2022-06-15T12:31:51Z</time>
      </trkpt>
      <trkpt lat="45.83047" lon="6.50918">
        <ele>1004.7</ele>
        <time>2022-06-15T12:31:52Z</time>
      </trkpt>
      <trkpt lat="45.83051" lon="6.50916">
        <ele>1005.6</ele>
        <time>2022-06-15T12:31:53Z</time>
      </trkpt>
      <trkpt lat="45.83055" lon="6.50916">
        <ele>1007.3</ele>
        <time>2022-06-15T12:31:54Z</time>
      </trkpt>
      <trkpt lat="45.83059" lon="6.50915">
        <ele>1008.8</ele>
        <time>2022-06-15T12:31:55Z</time>
      </trkpt>
      <trkpt lat="45.83063" lon="6.50914">
        <ele>1010.4</ele>
        <time>2022-06-15T12:31:56Z</time>
      </trkpt>
      <trkpt lat="45.83068" lon="6.50913">
        <ele>1011.7</ele>
        <time>2022-06-15T12:31:57Z</time>
      </trkpt>
      <trkpt lat="45.83072" lon="6.5091">
        <ele>1012.7</ele>
        <time>2022-06-15T12:31:58Z</time>
      </trkpt>
      <trkpt lat="45.83077" lon="6.50908">
        <ele>1013.2</ele>
        <time>2022-06-15T12:31:59Z</time>
      </trkpt>
      <trkpt lat="45.83081" lon="6.50904">
        <ele>1012.6</ele>
        <time>2022-06-15T12:32:00Z</time>
      </trkpt>
      <trkpt lat="45.83085" lon="6.50899">
        <ele>1012.1</ele>
        <time>2022-06-15T12:32:01Z</time>
      </trkpt>
      <trkpt lat="45.83089" lon="6.50895">
        <ele>1012.9</ele>
        <time>2022-06-15T12:32:02Z</time>
      </trkpt>
      <trkpt lat="45.83092" lon="6.5089">
        <ele>1013.3</ele>
        <time>2022-06-15T12:32:03Z</time>
      </trkpt>
      <trkpt lat="45.83096" lon="6.50886">
        <ele>1013.2</ele>
        <time>2022-06-15T12:32:04Z</time>
      </trkpt>
      <trkpt lat="45.83101" lon="6.50881">
        <ele>1012.6</ele>
        <time>2022-06-15T12:32:05Z</time>
      </trkpt>
      <trkpt lat="45.83104" lon="6.50876">
        <ele>1010.2</ele>
        <time>2022-06-15T12:32:06Z</time>
      </trkpt>
      <trkpt lat="45.83107" lon="6.50871">
        <ele>1009.2</ele>
        <time>2022-06-15T12:32:07Z</time>
      </trkpt>
      <trkpt lat="45.83111" lon="6.50866">
        <ele>1009.1</ele>
        <time>2022-06-15T12:32:08Z</time>
      </trkpt>
      <trkpt lat="45.83115" lon="6.50862">
        <ele>1006.7</ele>
        <time>2022-06-15T12:32:09Z</time>
      </trkpt>
      <trkpt lat="45.83119" lon="6.50857">
        <ele>1005.6</ele>
        <time>2022-06-15T12:32:10Z</time>
      </trkpt>
      <trkpt lat="45.83124" lon="6.50853">
        <ele>1005.1</ele>
        <time>2022-06-15T12:32:11Z</time>
      </trkpt>
      <trkpt lat="45.83129" lon="6.50849">
        <ele>1005.5</ele>
        <time>2022-06-15T12:32:12Z</time>
      </trkpt>
      <trkpt lat="45.83135" lon="6.50849">
        <ele>1007.5</ele>
        <time>2022-06-15T12:32:13Z</time>
      </trkpt>
      <trkpt lat="45.8314" lon="6.5085">
        <ele>1009.5</ele>
        <time>2022-06-15T12:32:14Z</time>
      </trkpt>
      <trkpt lat="45.83145" lon="6.50854">
        <ele>1007.8</ele>
        <time>2022-06-15T12:32:15Z</time>
      </trkpt>
      <trkpt lat="45.83149" lon="6.5086">
        <ele>1008.1</ele>
        <time>2022-06-15T12:32:16Z</time>
      </trkpt>
      <trkpt lat="45.83154" lon="6.50866">
        <ele>1008.1</ele>
        <time>2022-06-15T12:32:17Z</time>
      </trkpt>
      <trkpt lat="45.8316" lon="6.50871">
        <ele>1007</ele>
        <time>2022-06-15T12:32:18Z</time>
      </trkpt>
      <trkpt lat="45.83165" lon="6.50874">
        <ele>1004.9</ele>
        <time>2022-06-15T12:32:19Z</time>
      </trkpt>
      <trkpt lat="45.8317" lon="6.50875">
        <ele>1004.8</ele>
        <time>2022-06-15T12:32:20Z</time>
      </trkpt>
      <trkpt lat="45.83177" lon="6.50873">
        <ele>1005.2</ele>
        <time>2022-06-15T12:32:21Z</time>
      </trkpt>
      <trkpt lat="45.83185" lon="6.50868">
        <ele>1003.7</ele>
        <time>2022-06-15T12:32:22Z</time>
      </trkpt>
      <trkpt lat="45.83193" lon="6.50863">
        <ele>1002</ele>
        <time>2022-06-15T12:32:23Z</time>
      </trkpt>
      <trkpt lat="45.83201" lon="6.50858">
        <ele>1000.2</ele>
        <time>2022-06-15T12:32:24Z</time>
      </trkpt>
      <trkpt lat="45.8321" lon="6.50853">
        <ele>998.7</ele>
        <time>2022-06-15T12:32:25Z</time>
      </trkpt>
      <trkpt lat="45.83219" lon="6.50849">
        <ele>998.9</ele>
        <time>2022-06-15T12:32:26Z</time>
      </trkpt>
      <trkpt lat="45.83229" lon="6.50846">
        <ele>997.7</ele>
        <time>2022-06-15T12:32:27Z</time>
      </trkpt>
      <trkpt lat="45.83239" lon="6.50847">
        <ele>996.9</ele>
        <time>2022-06-15T12:32:28Z</time>
      </trkpt>
      <trkpt lat="45.83249" lon="6.50854">
        <ele>998.8</ele>
        <time>2022-06-15T12:32:29Z</time>
      </trkpt>
      <trkpt lat="45.83256" lon="6.50863">
        <ele>999</ele>
        <time>2022-06-15T12:32:30Z</time>
      </trkpt>
      <trkpt lat="45.83262" lon="6.50874">
        <ele>999.7</ele>
        <time>2022-06-15T12:32:31Z</time>
      </trkpt>
      <trkpt lat="45.83268" lon="6.50884">
        <ele>999.3</ele>
        <time>2022-06-15T12:32:32Z</time>
      </trkpt>
      <trkpt lat="45.83276" lon="6.50892">
        <ele>996.1</ele>
        <time>2022-06-15T12:32:33Z</time>
      </trkpt>
      <trkpt lat="45.83284" lon="6.50894">
        <ele>993.1</ele>
        <time>2022-06-15T12:32:34Z</time>
      </trkpt>
      <trkpt lat="45.83293" lon="6.50889">
        <ele>988.6</ele>
        <time>2022-06-15T12:32:35Z</time>
      </trkpt>
      <trkpt lat="45.83301" lon="6.50883">
        <ele>985.4</ele>
        <time>2022-06-15T12:32:36Z</time>
      </trkpt>
      <trkpt lat="45.83309" lon="6.50876">
        <ele>985.7</ele>
        <time>2022-06-15T12:32:37Z</time>
      </trkpt>
      <trkpt lat="45.83317" lon="6.5087">
        <ele>989.3</ele>
        <time>2022-06-15T12:32:38Z</time>
      </trkpt>
      <trkpt lat="45.83325" lon="6.50866">
        <ele>992.3</ele>
        <time>2022-06-15T12:32:39Z</time>
      </trkpt>
      <trkpt lat="45.83332" lon="6.50862">
        <ele>994.7</ele>
        <time>2022-06-15T12:32:40Z</time>
      </trkpt>
      <trkpt lat="45.8334" lon="6.5086">
        <ele>994.4</ele>
        <time>2022-06-15T12:32:41Z</time>
      </trkpt>
      <trkpt lat="45.83348" lon="6.50861">
        <ele>994.9</ele>
        <time>2022-06-15T12:32:42Z</time>
      </trkpt>
      <trkpt lat="45.83354" lon="6.50861">
        <ele>995.1</ele>
        <time>2022-06-15T12:32:43Z</time>
      </trkpt>
      <trkpt lat="45.8336" lon="6.50861">
        <ele>995</ele>
        <time>2022-06-15T12:32:44Z</time>
      </trkpt>
      <trkpt lat="45.83367" lon="6.50862">
        <ele>995</ele>
        <time>2022-06-15T12:32:45Z</time>
      </trkpt>
      <trkpt lat="45.83373" lon="6.50862">
        <ele>994.7</ele>
        <time>2022-06-15T12:32:46Z</time>
      </trkpt>
      <trkpt lat="45.8338" lon="6.50862">
        <ele>994.8</ele>
        <time>2022-06-15T12:32:47Z</time>
      </trkpt>
      <trkpt lat="45.83388" lon="6.50864">
        <ele>995.2</ele>
        <time>2022-06-15T12:32:48Z</time>
      </trkpt>
      <trkpt lat="45.83395" lon="6.50865">
        <ele>994.1</ele>
        <time>2022-06-15T12:32:49Z</time>
      </trkpt>
      <trkpt lat="45.83401" lon="6.5087">
        <ele>994.2</ele>
        <time>2022-06-15T12:32:50Z</time>
      </trkpt>
      <trkpt lat="45.83407" lon="6.50876">
        <ele>994.3</ele>
        <time>2022-06-15T12:32:51Z</time>
      </trkpt>
      <trkpt lat="45.83412" lon="6.50882">
        <ele>994.2</ele>
        <time>2022-06-15T12:32:52Z</time>
      </trkpt>
      <trkpt lat="45.83417" lon="6.50888">
        <ele>993.7</ele>
        <time>2022-06-15T12:32:53Z</time>
      </trkpt>
      <trkpt lat="45.83422" lon="6.50889">
        <ele>994.9</ele>
        <time>2022-06-15T12:32:54Z</time>
      </trkpt>
      <trkpt lat="45.83428" lon="6.50887">
        <ele>995.7</ele>
        <time>2022-06-15T12:32:55Z</time>
      </trkpt>
      <trkpt lat="45.83433" lon="6.50886">
        <ele>996.1</ele>
        <time>2022-06-15T12:32:56Z</time>
      </trkpt>
      <trkpt lat="45.83436" lon="6.5088">
        <ele>995.2</ele>
        <time>2022-06-15T12:32:57Z</time>
      </trkpt>
      <trkpt lat="45.8344" lon="6.50875">
        <ele>994.3</ele>
        <time>2022-06-15T12:32:58Z</time>
      </trkpt>
      <trkpt lat="45.83445" lon="6.50869">
        <ele>993.6</ele>
        <time>2022-06-15T12:32:59Z</time>
      </trkpt>
      <trkpt lat="45.83451" lon="6.50865">
        <ele>994.1</ele>
        <time>2022-06-15T12:33:00Z</time>
      </trkpt>
      <trkpt lat="45.83457" lon="6.50861">
        <ele>994.7</ele>
        <time>2022-06-15T12:33:01Z</time>
      </trkpt>
      <trkpt lat="45.83463" lon="6.5086">
        <ele>995.8</ele>
        <time>2022-06-15T12:33:02Z</time>
      </trkpt>
      <trkpt lat="45.83469" lon="6.50858">
        <ele>997.1</ele>
        <time>2022-06-15T12:33:03Z</time>
      </trkpt>
      <trkpt lat="45.83475" lon="6.50857">
        <ele>997.4</ele>
        <time>2022-06-15T12:33:04Z</time>
      </trkpt>
      <trkpt lat="45.83481" lon="6.50857">
        <ele>997.5</ele>
        <time>2022-06-15T12:33:05Z</time>
      </trkpt>
      <trkpt lat="45.83488" lon="6.50856">
        <ele>997.5</ele>
        <time>2022-06-15T12:33:06Z</time>
      </trkpt>
      <trkpt lat="45.83494" lon="6.50856">
        <ele>997.5</ele>
        <time>2022-06-15T12:33:07Z</time>
      </trkpt>
      <trkpt lat="45.835" lon="6.50855">
        <ele>997.2</ele>
        <time>2022-06-15T12:33:08Z</time>
      </trkpt>
      <trkpt lat="45.83506" lon="6.50855">
        <ele>996.3</ele>
        <time>2022-06-15T12:33:09Z</time>
      </trkpt>
      <trkpt lat="45.83513" lon="6.50856">
        <ele>995.8</ele>
        <time>2022-06-15T12:33:10Z</time>
      </trkpt>
      <trkpt lat="45.83519" lon="6.50857">
        <ele>995.4</ele>
        <time>2022-06-15T12:33:11Z</time>
      </trkpt>
      <trkpt lat="45.83524" lon="6.50857">
        <ele>994.4</ele>
        <time>2022-06-15T12:33:12Z</time>
      </trkpt>
      <trkpt lat="45.83529" lon="6.5086">
        <ele>995</ele>
        <time>2022-06-15T12:33:13Z</time>
      </trkpt>
      <trkpt lat="45.83534" lon="6.50863">
        <ele>995.3</ele>
        <time>2022-06-15T12:33:14Z</time>
      </trkpt>
      <trkpt lat="45.83539" lon="6.50867">
        <ele>995.6</ele>
        <time>2022-06-15T12:33:15Z</time>
      </trkpt>
      <trkpt lat="45.83544" lon="6.5087">
        <ele>996</ele>
        <time>2022-06-15T12:33:16Z</time>
      </trkpt>
      <trkpt lat="45.83551" lon="6.5087">
        <ele>993.7</ele>
        <time>2022-06-15T12:33:17Z</time>
      </trkpt>
      <trkpt lat="45.83557" lon="6.50869">
        <ele>992</ele>
        <time>2022-06-15T12:33:18Z</time>
      </trkpt>
      <trkpt lat="45.83564" lon="6.50868">
        <ele>992</ele>
        <time>2022-06-15T12:33:19Z</time>
      </trkpt>
      <trkpt lat="45.83571" lon="6.50866">
        <ele>991.3</ele>
        <time>2022-06-15T12:33:20Z</time>
      </trkpt>
      <trkpt lat="45.83578" lon="6.50864">
        <ele>990.3</ele>
        <time>2022-06-15T12:33:21Z</time>
      </trkpt>
      <trkpt lat="45.83585" lon="6.50863">
        <ele>990.3</ele>
        <time>2022-06-15T12:33:22Z</time>
      </trkpt>
      <trkpt lat="45.83592" lon="6.50866">
        <ele>991.9</ele>
        <time>2022-06-15T12:33:23Z</time>
      </trkpt>
      <trkpt lat="45.83599" lon="6.50869">
        <ele>993.6</ele>
        <time>2022-06-15T12:33:24Z</time>
      </trkpt>
      <trkpt lat="45.83606" lon="6.50868">
        <ele>993.2</ele>
        <time>2022-06-15T12:33:25Z</time>
      </trkpt>
      <trkpt lat="45.83612" lon="6.50867">
        <ele>991.9</ele>
        <time>2022-06-15T12:33:26Z</time>
      </trkpt>
      <trkpt lat="45.83619" lon="6.50869">
        <ele>991.9</ele>
        <time>2022-06-15T12:33:27Z</time>
      </trkpt>
      <trkpt lat="45.83626" lon="6.50872">
        <ele>992.4</ele>
        <time>2022-06-15T12:33:28Z</time>
      </trkpt>
      <trkpt lat="45.83632" lon="6.50877">
        <ele>992.9</ele>
        <time>2022-06-15T12:33:29Z</time>
      </trkpt>
      <trkpt lat="45.83638" lon="6.50882">
        <ele>993.1</ele>
        <time>2022-06-15T12:33:30Z</time>
      </trkpt>
      <trkpt lat="45.83645" lon="6.50885">
        <ele>993.5</ele>
        <time>2022-06-15T12:33:31Z</time>
      </trkpt>
      <trkpt lat="45.83652" lon="6.50882">
        <ele>992.2</ele>
        <time>2022-06-15T12:33:32Z</time>
      </trkpt>
      <trkpt lat="45.83657" lon="6.50875">
        <ele>989.9</ele>
        <time>2022-06-15T12:33:33Z</time>
      </trkpt>
      <trkpt lat="45.83662" lon="6.50867">
        <ele>987.1</ele>
        <time>2022-06-15T12:33:34Z</time>
      </trkpt>
      <trkpt lat="45.83665" lon="6.50858">
        <ele>984.7</ele>
        <time>2022-06-15T12:33:35Z</time>
      </trkpt>
      <trkpt lat="45.83667" lon="6.5085">
        <ele>984.2</ele>
        <time>2022-06-15T12:33:36Z</time>
      </trkpt>
      <trkpt lat="45.8367" lon="6.5084">
        <ele>984.5</ele>
        <time>2022-06-15T12:33:37Z</time>
      </trkpt>
      <trkpt lat="45.83676" lon="6.50834">
        <ele>985.1</ele>
        <time>2022-06-15T12:33:38Z</time>
      </trkpt>
      <trkpt lat="45.83685" lon="6.5083">
        <ele>985.4</ele>
        <time>2022-06-15T12:33:39Z</time>
      </trkpt>
      <trkpt lat="45.83692" lon="6.50827">
        <ele>986.2</ele>
        <time>2022-06-15T12:33:40Z</time>
      </trkpt>
      <trkpt lat="45.83699" lon="6.50825">
        <ele>986.3</ele>
        <time>2022-06-15T12:33:41Z</time>
      </trkpt>
      <trkpt lat="45.83707" lon="6.50824">
        <ele>986</ele>
        <time>2022-06-15T12:33:42Z</time>
      </trkpt>
      <trkpt lat="45.83715" lon="6.50823">
        <ele>985.7</ele>
        <time>2022-06-15T12:33:43Z</time>
      </trkpt>
      <trkpt lat="45.83723" lon="6.50823">
        <ele>985.6</ele>
        <time>2022-06-15T12:33:44Z</time>
      </trkpt>
      <trkpt lat="45.83731" lon="6.50822">
        <ele>985.2</ele>
        <time>2022-06-15T12:33:45Z</time>
      </trkpt>
      <trkpt lat="45.83738" lon="6.50822">
        <ele>985.1</ele>
        <time>2022-06-15T12:33:46Z</time>
      </trkpt>
      <trkpt lat="45.83746" lon="6.50823">
        <ele>985.4</ele>
        <time>2022-06-15T12:33:47Z</time>
      </trkpt>
      <trkpt lat="45.83755" lon="6.50823">
        <ele>985.7</ele>
        <time>2022-06-15T12:33:48Z</time>
      </trkpt>
      <trkpt lat="45.83763" lon="6.50822">
        <ele>985.7</ele>
        <time>2022-06-15T12:33:49Z</time>
      </trkpt>
      <trkpt lat="45.83772" lon="6.50821">
        <ele>985.8</ele>
        <time>2022-06-15T12:33:50Z</time>
      </trkpt>
      <trkpt lat="45.83781" lon="6.50821">
        <ele>985.9</ele>
        <time>2022-06-15T12:33:51Z</time>
      </trkpt>
      <trkpt lat="45.8379" lon="6.5082">
        <ele>985.8</ele>
        <time>2022-06-15T12:33:52Z</time>
      </trkpt>
      <trkpt lat="45.83799" lon="6.50819">
        <ele>985.3</ele>
        <time>2022-06-15T12:33:53Z</time>
      </trkpt>
      <trkpt lat="45.83808" lon="6.50817">
        <ele>984.2</ele>
        <time>2022-06-15T12:33:54Z</time>
      </trkpt>
      <trkpt lat="45.83817" lon="6.50813">
        <ele>983</ele>
        <time>2022-06-15T12:33:55Z</time>
      </trkpt>
      <trkpt lat="45.83827" lon="6.50808">
        <ele>981</ele>
        <time>2022-06-15T12:33:56Z</time>
      </trkpt>
      <trkpt lat="45.83836" lon="6.50803">
        <ele>979.3</ele>
        <time>2022-06-15T12:33:57Z</time>
      </trkpt>
      <trkpt lat="45.83845" lon="6.50798">
        <ele>978.4</ele>
        <time>2022-06-15T12:33:58Z</time>
      </trkpt>
      <trkpt lat="45.83855" lon="6.50792">
        <ele>977.7</ele>
        <time>2022-06-15T12:33:59Z</time>
      </trkpt>
      <trkpt lat="45.83865" lon="6.5079">
        <ele>978</ele>
        <time>2022-06-15T12:34:00Z</time>
      </trkpt>
      <trkpt lat="45.83876" lon="6.50791">
        <ele>978.5</ele>
        <time>2022-06-15T12:34:01Z</time>
      </trkpt>
      <trkpt lat="45.83886" lon="6.50793">
        <ele>980.1</ele>
        <time>2022-06-15T12:34:02Z</time>
      </trkpt>
      <trkpt lat="45.83895" lon="6.50797">
        <ele>979.5</ele>
        <time>2022-06-15T12:34:03Z</time>
      </trkpt>
      <trkpt lat="45.83904" lon="6.50805">
        <ele>978.3</ele>
        <time>2022-06-15T12:34:04Z</time>
      </trkpt>
      <trkpt lat="45.8391" lon="6.50814">
        <ele>977</ele>
        <time>2022-06-15T12:34:05Z</time>
      </trkpt>
      <trkpt lat="45.83917" lon="6.50821">
        <ele>974.2</ele>
        <time>2022-06-15T12:34:06Z</time>
      </trkpt>
      <trkpt lat="45.83924" lon="6.50822">
        <ele>973.4</ele>
        <time>2022-06-15T12:34:07Z</time>
      </trkpt>
      <trkpt lat="45.83931" lon="6.50818">
        <ele>972</ele>
        <time>2022-06-15T12:34:08Z</time>
      </trkpt>
      <trkpt lat="45.83939" lon="6.50812">
        <ele>970.7</ele>
        <time>2022-06-15T12:34:09Z</time>
      </trkpt>
      <trkpt lat="45.83946" lon="6.50803">
        <ele>969.9</ele>
        <time>2022-06-15T12:34:10Z</time>
      </trkpt>
      <trkpt lat="45.83953" lon="6.50795">
        <ele>969.6</ele>
        <time>2022-06-15T12:34:11Z</time>
      </trkpt>
      <trkpt lat="45.8396" lon="6.50786">
        <ele>969.3</ele>
        <time>2022-06-15T12:34:12Z</time>
      </trkpt>
      <trkpt lat="45.83967" lon="6.50777">
        <ele>969</ele>
        <time>2022-06-15T12:34:13Z</time>
      </trkpt>
      <trkpt lat="45.83973" lon="6.50767">
        <ele>968.9</ele>
        <time>2022-06-15T12:34:14Z</time>
      </trkpt>
      <trkpt lat="45.83977" lon="6.50756">
        <ele>971.1</ele>
        <time>2022-06-15T12:34:15Z</time>
      </trkpt>
      <trkpt lat="45.83981" lon="6.50746">
        <ele>973.1</ele>
        <time>2022-06-15T12:34:16Z</time>
      </trkpt>
      <trkpt lat="45.83984" lon="6.50736">
        <ele>974.6</ele>
        <time>2022-06-15T12:34:17Z</time>
      </trkpt>
      <trkpt lat="45.83986" lon="6.50726">
        <ele>975.5</ele>
        <time>2022-06-15T12:34:18Z</time>
      </trkpt>
      <trkpt lat="45.83988" lon="6.50716">
        <ele>975.3</ele>
        <time>2022-06-15T12:34:19Z</time>
      </trkpt>
      <trkpt lat="45.8399" lon="6.50706">
        <ele>974.4</ele>
        <time>2022-06-15T12:34:20Z</time>
      </trkpt>
      <trkpt lat="45.83993" lon="6.50697">
        <ele>973.4</ele>
        <time>2022-06-15T12:34:21Z</time>
      </trkpt>
      <trkpt lat="45.83999" lon="6.50691">
        <ele>972.7</ele>
        <time>2022-06-15T12:34:22Z</time>
      </trkpt>
      <trkpt lat="45.84004" lon="6.50686">
        <ele>972.9</ele>
        <time>2022-06-15T12:34:23Z</time>
      </trkpt>
      <trkpt lat="45.8401" lon="6.50682">
        <ele>973.6</ele>
        <time>2022-06-15T12:34:24Z</time>
      </trkpt>
      <trkpt lat="45.84016" lon="6.50677">
        <ele>973.7</ele>
        <time>2022-06-15T12:34:25Z</time>
      </trkpt>
      <trkpt lat="45.84022" lon="6.50673">
        <ele>973.6</ele>
        <time>2022-06-15T12:34:26Z</time>
      </trkpt>
      <trkpt lat="45.84027" lon="6.50669">
        <ele>973.7</ele>
        <time>2022-06-15T12:34:27Z</time>
      </trkpt>
      <trkpt lat="45.84033" lon="6.50666">
        <ele>974.2</ele>
        <time>2022-06-15T12:34:28Z</time>
      </trkpt>
      <trkpt lat="45.84039" lon="6.50664">
        <ele>975.2</ele>
        <time>2022-06-15T12:34:29Z</time>
      </trkpt>
      <trkpt lat="45.84044" lon="6.50662">
        <ele>975.9</ele>
        <time>2022-06-15T12:34:30Z</time>
      </trkpt>
      <trkpt lat="45.8405" lon="6.5066">
        <ele>976.6</ele>
        <time>2022-06-15T12:34:31Z</time>
      </trkpt>
      <trkpt lat="45.84056" lon="6.50657">
        <ele>976.9</ele>
        <time>2022-06-15T12:34:32Z</time>
      </trkpt>
      <trkpt lat="45.84061" lon="6.50655">
        <ele>977</ele>
        <time>2022-06-15T12:34:33Z</time>
      </trkpt>
      <trkpt lat="45.84066" lon="6.50653">
        <ele>977.3</ele>
        <time>2022-06-15T12:34:34Z</time>
      </trkpt>
      <trkpt lat="45.84071" lon="6.50651">
        <ele>977.2</ele>
        <time>2022-06-15T12:34:35Z</time>
      </trkpt>
      <trkpt lat="45.84077" lon="6.5065">
        <ele>977.6</ele>
        <time>2022-06-15T12:34:36Z</time>
      </trkpt>
      <trkpt lat="45.84082" lon="6.50649">
        <ele>977.9</ele>
        <time>2022-06-15T12:34:37Z</time>
      </trkpt>
      <trkpt lat="45.84087" lon="6.50647">
        <ele>978.2</ele>
        <time>2022-06-15T12:34:38Z</time>
      </trkpt>
      <trkpt lat="45.84093" lon="6.50647">
        <ele>978.8</ele>
        <time>2022-06-15T12:34:39Z</time>
      </trkpt>
      <trkpt lat="45.84098" lon="6.50646">
        <ele>978.8</ele>
        <time>2022-06-15T12:34:40Z</time>
      </trkpt>
      <trkpt lat="45.84103" lon="6.50645">
        <ele>979.4</ele>
        <time>2022-06-15T12:34:41Z</time>
      </trkpt>
      <trkpt lat="45.84108" lon="6.50645">
        <ele>979.8</ele>
        <time>2022-06-15T12:34:42Z</time>
      </trkpt>
      <trkpt lat="45.84113" lon="6.50645">
        <ele>980.2</ele>
        <time>2022-06-15T12:34:43Z</time>
      </trkpt>
      <trkpt lat="45.84119" lon="6.50645">
        <ele>979.6</ele>
        <time>2022-06-15T12:34:44Z</time>
      </trkpt>
      <trkpt lat="45.84124" lon="6.50646">
        <ele>979.3</ele>
        <time>2022-06-15T12:34:45Z</time>
      </trkpt>
      <trkpt lat="45.84128" lon="6.50648">
        <ele>980</ele>
        <time>2022-06-15T12:34:46Z</time>
      </trkpt>
      <trkpt lat="45.84133" lon="6.50648">
        <ele>979.4</ele>
        <time>2022-06-15T12:34:47Z</time>
      </trkpt>
      <trkpt lat="45.84138" lon="6.50648">
        <ele>979</ele>
        <time>2022-06-15T12:34:48Z</time>
      </trkpt>
      <trkpt lat="45.84143" lon="6.5065">
        <ele>980</ele>
        <time>2022-06-15T12:34:49Z</time>
      </trkpt>
      <trkpt lat="45.84149" lon="6.50651">
        <ele>979.9</ele>
        <time>2022-06-15T12:34:50Z</time>
      </trkpt>
      <trkpt lat="45.84154" lon="6.50653">
        <ele>980.2</ele>
        <time>2022-06-15T12:34:51Z</time>
      </trkpt>
      <trkpt lat="45.84159" lon="6.50655">
        <ele>980.7</ele>
        <time>2022-06-15T12:34:52Z</time>
      </trkpt>
      <trkpt lat="45.84165" lon="6.50656">
        <ele>980</ele>
        <time>2022-06-15T12:34:53Z</time>
      </trkpt>
      <trkpt lat="45.8417" lon="6.50655">
        <ele>979.6</ele>
        <time>2022-06-15T12:34:54Z</time>
      </trkpt>
      <trkpt lat="45.84175" lon="6.50654">
        <ele>980.2</ele>
        <time>2022-06-15T12:34:55Z</time>
      </trkpt>
      <trkpt lat="45.8418" lon="6.50651">
        <ele>980.4</ele>
        <time>2022-06-15T12:34:56Z</time>
      </trkpt>
      <trkpt lat="45.84184" lon="6.5065">
        <ele>980.9</ele>
        <time>2022-06-15T12:34:57Z</time>
      </trkpt>
      <trkpt lat="45.84189" lon="6.50649">
        <ele>981.5</ele>
        <time>2022-06-15T12:34:58Z</time>
      </trkpt>
      <trkpt lat="45.84194" lon="6.50648">
        <ele>982.3</ele>
        <time>2022-06-15T12:34:59Z</time>
      </trkpt>
      <trkpt lat="45.84199" lon="6.50647">
        <ele>982.1</ele>
        <time>2022-06-15T12:35:00Z</time>
      </trkpt>
      <trkpt lat="45.84204" lon="6.50647">
        <ele>981.9</ele>
        <time>2022-06-15T12:35:01Z</time>
      </trkpt>
      <trkpt lat="45.84209" lon="6.50647">
        <ele>982</ele>
        <time>2022-06-15T12:35:02Z</time>
      </trkpt>
      <trkpt lat="45.84215" lon="6.50647">
        <ele>981.5</ele>
        <time>2022-06-15T12:35:03Z</time>
      </trkpt>
      <trkpt lat="45.8422" lon="6.50647">
        <ele>981.4</ele>
        <time>2022-06-15T12:35:04Z</time>
      </trkpt>
      <trkpt lat="45.84225" lon="6.50646">
        <ele>981.3</ele>
        <time>2022-06-15T12:35:05Z</time>
      </trkpt>
      <trkpt lat="45.8423" lon="6.50645">
        <ele>981.4</ele>
        <time>2022-06-15T12:35:06Z</time>
      </trkpt>
      <trkpt lat="45.84235" lon="6.50643">
        <ele>981.2</ele>
        <time>2022-06-15T12:35:07Z</time>
      </trkpt>
      <trkpt lat="45.84241" lon="6.50641">
        <ele>981</ele>
        <time>2022-06-15T12:35:08Z</time>
      </trkpt>
      <trkpt lat="45.84246" lon="6.5064">
        <ele>981.1</ele>
        <time>2022-06-15T12:35:09Z</time>
      </trkpt>
      <trkpt lat="45.84251" lon="6.50639">
        <ele>981.1</ele>
        <time>2022-06-15T12:35:10Z</time>
      </trkpt>
      <trkpt lat="45.84257" lon="6.50637">
        <ele>981.3</ele>
        <time>2022-06-15T12:35:11Z</time>
      </trkpt>
      <trkpt lat="45.84262" lon="6.50635">
        <ele>981.4</ele>
        <time>2022-06-15T12:35:12Z</time>
      </trkpt>
      <trkpt lat="45.84267" lon="6.50632">
        <ele>981.1</ele>
        <time>2022-06-15T12:35:13Z</time>
      </trkpt>
      <trkpt lat="45.84272" lon="6.50628">
        <ele>980.5</ele>
        <time>2022-06-15T12:35:14Z</time>
      </trkpt>
      <trkpt lat="45.84277" lon="6.50624">
        <ele>980</ele>
        <time>2022-06-15T12:35:15Z</time>
      </trkpt>
      <trkpt lat="45.84281" lon="6.50619">
        <ele>980.5</ele>
        <time>2022-06-15T12:35:16Z</time>
      </trkpt>
      <trkpt lat="45.84286" lon="6.50615">
        <ele>981.4</ele>
        <time>2022-06-15T12:35:17Z</time>
      </trkpt>
      <trkpt lat="45.84291" lon="6.50611">
        <ele>982.5</ele>
        <time>2022-06-15T12:35:18Z</time>
      </trkpt>
      <trkpt lat="45.84295" lon="6.50607">
        <ele>982.9</ele>
        <time>2022-06-15T12:35:19Z</time>
      </trkpt>
      <trkpt lat="45.84301" lon="6.50603">
        <ele>983</ele>
        <time>2022-06-15T12:35:20Z</time>
      </trkpt>
      <trkpt lat="45.84306" lon="6.506">
        <ele>982.9</ele>
        <time>2022-06-15T12:35:21Z</time>
      </trkpt>
      <trkpt lat="45.84312" lon="6.50597">
        <ele>982.5</ele>
        <time>2022-06-15T12:35:22Z</time>
      </trkpt>
      <trkpt lat="45.84318" lon="6.50594">
        <ele>982.1</ele>
        <time>2022-06-15T12:35:23Z</time>
      </trkpt>
      <trkpt lat="45.84324" lon="6.50591">
        <ele>981.8</ele>
        <time>2022-06-15T12:35:24Z</time>
      </trkpt>
      <trkpt lat="45.8433" lon="6.50588">
        <ele>981.5</ele>
        <time>2022-06-15T12:35:25Z</time>
      </trkpt>
      <trkpt lat="45.84336" lon="6.50586">
        <ele>980.9</ele>
        <time>2022-06-15T12:35:26Z</time>
      </trkpt>
      <trkpt lat="45.84342" lon="6.50583">
        <ele>980.5</ele>
        <time>2022-06-15T12:35:27Z</time>
      </trkpt>
      <trkpt lat="45.84348" lon="6.50581">
        <ele>980.8</ele>
        <time>2022-06-15T12:35:28Z</time>
      </trkpt>
      <trkpt lat="45.84354" lon="6.50579">
        <ele>981.1</ele>
        <time>2022-06-15T12:35:29Z</time>
      </trkpt>
      <trkpt lat="45.84359" lon="6.50578">
        <ele>981.4</ele>
        <time>2022-06-15T12:35:30Z</time>
      </trkpt>
      <trkpt lat="45.84365" lon="6.50577">
        <ele>981.2</ele>
        <time>2022-06-15T12:35:31Z</time>
      </trkpt>
      <trkpt lat="45.84371" lon="6.50577">
        <ele>980.6</ele>
        <time>2022-06-15T12:35:32Z</time>
      </trkpt>
      <trkpt lat="45.84376" lon="6.50577">
        <ele>980.2</ele>
        <time>2022-06-15T12:35:33Z</time>
      </trkpt>
      <trkpt lat="45.84382" lon="6.50578">
        <ele>980.1</ele>
        <time>2022-06-15T12:35:34Z</time>
      </trkpt>
      <trkpt lat="45.84388" lon="6.50578">
        <ele>979.6</ele>
        <time>2022-06-15T12:35:35Z</time>
      </trkpt>
      <trkpt lat="45.84394" lon="6.50578">
        <ele>979.9</ele>
        <time>2022-06-15T12:35:36Z</time>
      </trkpt>
      <trkpt lat="45.844" lon="6.50578">
        <ele>980.1</ele>
        <time>2022-06-15T12:35:37Z</time>
      </trkpt>
      <trkpt lat="45.84407" lon="6.50577">
        <ele>980.1</ele>
        <time>2022-06-15T12:35:38Z</time>
      </trkpt>
      <trkpt lat="45.84414" lon="6.50576">
        <ele>979.9</ele>
        <time>2022-06-15T12:35:39Z</time>
      </trkpt>
      <trkpt lat="45.8442" lon="6.50574">
        <ele>980.3</ele>
        <time>2022-06-15T12:35:40Z</time>
      </trkpt>
      <trkpt lat="45.84427" lon="6.50571">
        <ele>981.1</ele>
        <time>2022-06-15T12:35:41Z</time>
      </trkpt>
      <trkpt lat="45.84434" lon="6.50569">
        <ele>981.6</ele>
        <time>2022-06-15T12:35:42Z</time>
      </trkpt>
      <trkpt lat="45.8444" lon="6.50566">
        <ele>981.9</ele>
        <time>2022-06-15T12:35:43Z</time>
      </trkpt>
      <trkpt lat="45.84447" lon="6.50564">
        <ele>981.7</ele>
        <time>2022-06-15T12:35:44Z</time>
      </trkpt>
      <trkpt lat="45.84453" lon="6.50561">
        <ele>981</ele>
        <time>2022-06-15T12:35:45Z</time>
      </trkpt>
      <trkpt lat="45.84459" lon="6.50559">
        <ele>980.2</ele>
        <time>2022-06-15T12:35:46Z</time>
      </trkpt>
      <trkpt lat="45.84465" lon="6.50556">
        <ele>978.9</ele>
        <time>2022-06-15T12:35:47Z</time>
      </trkpt>
      <trkpt lat="45.84471" lon="6.50553">
        <ele>978.7</ele>
        <time>2022-06-15T12:35:48Z</time>
      </trkpt>
      <trkpt lat="45.84477" lon="6.50549">
        <ele>979.2</ele>
        <time>2022-06-15T12:35:49Z</time>
      </trkpt>
      <trkpt lat="45.84483" lon="6.50546">
        <ele>979.8</ele>
        <time>2022-06-15T12:35:50Z</time>
      </trkpt>
      <trkpt lat="45.84489" lon="6.50543">
        <ele>980.2</ele>
        <time>2022-06-15T12:35:51Z</time>
      </trkpt>
      <trkpt lat="45.84495" lon="6.50539">
        <ele>980.4</ele>
        <time>2022-06-15T12:35:52Z</time>
      </trkpt>
      <trkpt lat="45.845" lon="6.50536">
        <ele>980.4</ele>
        <time>2022-06-15T12:35:53Z</time>
      </trkpt>
      <trkpt lat="45.84506" lon="6.50532">
        <ele>981.2</ele>
        <time>2022-06-15T12:35:54Z</time>
      </trkpt>
      <trkpt lat="45.84511" lon="6.50527">
        <ele>981.7</ele>
        <time>2022-06-15T12:35:55Z</time>
      </trkpt>
      <trkpt lat="45.84517" lon="6.50524">
        <ele>982.3</ele>
        <time>2022-06-15T12:35:56Z</time>
      </trkpt>
      <trkpt lat="45.84522" lon="6.5052">
        <ele>982.7</ele>
        <time>2022-06-15T12:35:57Z</time>
      </trkpt>
      <trkpt lat="45.84527" lon="6.50517">
        <ele>983.2</ele>
        <time>2022-06-15T12:35:58Z</time>
      </trkpt>
      <trkpt lat="45.84532" lon="6.50514">
        <ele>982.6</ele>
        <time>2022-06-15T12:35:59Z</time>
      </trkpt>
      <trkpt lat="45.84537" lon="6.50511">
        <ele>982.2</ele>
        <time>2022-06-15T12:36:00Z</time>
      </trkpt>
      <trkpt lat="45.84542" lon="6.50509">
        <ele>981.9</ele>
        <time>2022-06-15T12:36:01Z</time>
      </trkpt>
      <trkpt lat="45.84547" lon="6.50506">
        <ele>981.6</ele>
        <time>2022-06-15T12:36:02Z</time>
      </trkpt>
      <trkpt lat="45.84552" lon="6.50503">
        <ele>981.3</ele>
        <time>2022-06-15T12:36:03Z</time>
      </trkpt>
      <trkpt lat="45.84556" lon="6.505">
        <ele>981.1</ele>
        <time>2022-06-15T12:36:04Z</time>
      </trkpt>
      <trkpt lat="45.84561" lon="6.50498">
        <ele>981.6</ele>
        <time>2022-06-15T12:36:05Z</time>
      </trkpt>
      <trkpt lat="45.84565" lon="6.50494">
        <ele>981.9</ele>
        <time>2022-06-15T12:36:06Z</time>
      </trkpt>
      <trkpt lat="45.8457" lon="6.50492">
        <ele>982.3</ele>
        <time>2022-06-15T12:36:07Z</time>
      </trkpt>
      <trkpt lat="45.84574" lon="6.50489">
        <ele>982.6</ele>
        <time>2022-06-15T12:36:08Z</time>
      </trkpt>
      <trkpt lat="45.84578" lon="6.50487">
        <ele>982.9</ele>
        <time>2022-06-15T12:36:09Z</time>
      </trkpt>
      <trkpt lat="45.84582" lon="6.50486">
        <ele>983.2</ele>
        <time>2022-06-15T12:36:10Z</time>
      </trkpt>
      <trkpt lat="45.84586" lon="6.50484">
        <ele>983.4</ele>
        <time>2022-06-15T12:36:11Z</time>
      </trkpt>
      <trkpt lat="45.8459" lon="6.50484">
        <ele>983.5</ele>
        <time>2022-06-15T12:36:12Z</time>
      </trkpt>
      <trkpt lat="45.84594" lon="6.50483">
        <ele>983.6</ele>
        <time>2022-06-15T12:36:13Z</time>
      </trkpt>
      <trkpt lat="45.84597" lon="6.50482">
        <ele>983.7</ele>
        <time>2022-06-15T12:36:14Z</time>
      </trkpt>
      <trkpt lat="45.84601" lon="6.50481">
        <ele>983.8</ele>
        <time>2022-06-15T12:36:15Z</time>
      </trkpt>
      <trkpt lat="45.84605" lon="6.5048">
        <ele>984</ele>
        <time>2022-06-15T12:36:16Z</time>
      </trkpt>
      <trkpt lat="45.84608" lon="6.5048">
        <ele>984.1</ele>
        <time>2022-06-15T12:36:17Z</time>
      </trkpt>
      <trkpt lat="45.84612" lon="6.5048">
        <ele>984.3</ele>
        <time>2022-06-15T12:36:18Z</time>
      </trkpt>
      <trkpt lat="45.84616" lon="6.50479">
        <ele>984.3</ele>
        <time>2022-06-15T12:36:19Z</time>
      </trkpt>
      <trkpt lat="45.8462" lon="6.50479">
        <ele>984.4</ele>
        <time>2022-06-15T12:36:20Z</time>
      </trkpt>
      <trkpt lat="45.84623" lon="6.50479">
        <ele>984.4</ele>
        <time>2022-06-15T12:36:21Z</time>
      </trkpt>
      <trkpt lat="45.84626" lon="6.50479">
        <ele>984.5</ele>
        <time>2022-06-15T12:36:22Z</time>
      </trkpt>
      <trkpt lat="45.8463" lon="6.50479">
        <ele>984.5</ele>
        <time>2022-06-15T12:36:23Z</time>
      </trkpt>
      <trkpt lat="45.84633" lon="6.50478">
        <ele>984.5</ele>
        <time>2022-06-15T12:36:24Z</time>
      </trkpt>
      <trkpt lat="45.84637" lon="6.50478">
        <ele>984.5</ele>
        <time>2022-06-15T12:36:25Z</time>
      </trkpt>
      <trkpt lat="45.84641" lon="6.50477">
        <ele>984.6</ele>
        <time>2022-06-15T12:36:26Z</time>
      </trkpt>
      <trkpt lat="45.84644" lon="6.50476">
        <ele>984.6</ele>
        <time>2022-06-15T12:36:27Z</time>
      </trkpt>
      <trkpt lat="45.84648" lon="6.50475">
        <ele>984.7</ele>
        <time>2022-06-15T12:36:28Z</time>
      </trkpt>
      <trkpt lat="45.84652" lon="6.50474">
        <ele>984.7</ele>
        <time>2022-06-15T12:36:29Z</time>
      </trkpt>
      <trkpt lat="45.84656" lon="6.50472">
        <ele>984.6</ele>
        <time>2022-06-15T12:36:30Z</time>
      </trkpt>
      <trkpt lat="45.8466" lon="6.50471">
        <ele>984.5</ele>
        <time>2022-06-15T12:36:31Z</time>
      </trkpt>
      <trkpt lat="45.84663" lon="6.50469">
        <ele>984.5</ele>
        <time>2022-06-15T12:36:32Z</time>
      </trkpt>
      <trkpt lat="45.84666" lon="6.50467">
        <ele>984.5</ele>
        <time>2022-06-15T12:36:33Z</time>
      </trkpt>
      <trkpt lat="45.8467" lon="6.50466">
        <ele>984.9</ele>
        <time>2022-06-15T12:36:34Z</time>
      </trkpt>
      <trkpt lat="45.84674" lon="6.50465">
        <ele>985.5</ele>
        <time>2022-06-15T12:36:35Z</time>
      </trkpt>
      <trkpt lat="45.84678" lon="6.50463">
        <ele>985.9</ele>
        <time>2022-06-15T12:36:36Z</time>
      </trkpt>
      <trkpt lat="45.84682" lon="6.50462">
        <ele>986.3</ele>
        <time>2022-06-15T12:36:37Z</time>
      </trkpt>
      <trkpt lat="45.84686" lon="6.5046">
        <ele>986.6</ele>
        <time>2022-06-15T12:36:38Z</time>
      </trkpt>
      <trkpt lat="45.8469" lon="6.50458">
        <ele>986.7</ele>
        <time>2022-06-15T12:36:39Z</time>
      </trkpt>
      <trkpt lat="45.84694" lon="6.50456">
        <ele>986.9</ele>
        <time>2022-06-15T12:36:40Z</time>
      </trkpt>
      <trkpt lat="45.84698" lon="6.50455">
        <ele>986.8</ele>
        <time>2022-06-15T12:36:41Z</time>
      </trkpt>
      <trkpt lat="45.84702" lon="6.50453">
        <ele>986.6</ele>
        <time>2022-06-15T12:36:42Z</time>
      </trkpt>
      <trkpt lat="45.84706" lon="6.5045">
        <ele>986.2</ele>
        <time>2022-06-15T12:36:43Z</time>
      </trkpt>
      <trkpt lat="45.8471" lon="6.50447">
        <ele>985.8</ele>
        <time>2022-06-15T12:36:44Z</time>
      </trkpt>
      <trkpt lat="45.84714" lon="6.50444">
        <ele>985.3</ele>
        <time>2022-06-15T12:36:45Z</time>
      </trkpt>
      <trkpt lat="45.84717" lon="6.5044">
        <ele>985.4</ele>
        <time>2022-06-15T12:36:46Z</time>
      </trkpt>
      <trkpt lat="45.84721" lon="6.50436">
        <ele>985.5</ele>
        <time>2022-06-15T12:36:47Z</time>
      </trkpt>
      <trkpt lat="45.84724" lon="6.50431">
        <ele>985.8</ele>
        <time>2022-06-15T12:36:48Z</time>
      </trkpt>
      <trkpt lat="45.84727" lon="6.50425">
        <ele>986.1</ele>
        <time>2022-06-15T12:36:49Z</time>
      </trkpt>
      <trkpt lat="45.84729" lon="6.5042">
        <ele>986.3</ele>
        <time>2022-06-15T12:36:50Z</time>
      </trkpt>
      <trkpt lat="45.84731" lon="6.50414">
        <ele>986.4</ele>
        <time>2022-06-15T12:36:51Z</time>
      </trkpt>
      <trkpt lat="45.84733" lon="6.50409">
        <ele>986.5</ele>
        <time>2022-06-15T12:36:52Z</time>
      </trkpt>
      <trkpt lat="45.84736" lon="6.50403">
        <ele>986.6</ele>
        <time>2022-06-15T12:36:53Z</time>
      </trkpt>
      <trkpt lat="45.84738" lon="6.50397">
        <ele>986.7</ele>
        <time>2022-06-15T12:36:54Z</time>
      </trkpt>
      <trkpt lat="45.84739" lon="6.50391">
        <ele>986.8</ele>
        <time>2022-06-15T12:36:55Z</time>
      </trkpt>
      <trkpt lat="45.84741" lon="6.50386">
        <ele>987</ele>
        <time>2022-06-15T12:36:56Z</time>
      </trkpt>
      <trkpt lat="45.84743" lon="6.5038">
        <ele>987.3</ele>
        <time>2022-06-15T12:36:57Z</time>
      </trkpt>
      <trkpt lat="45.84745" lon="6.50375">
        <ele>987.5</ele>
        <time>2022-06-15T12:36:58Z</time>
      </trkpt>
      <trkpt lat="45.84747" lon="6.50369">
        <ele>987.7</ele>
        <time>2022-06-15T12:36:59Z</time>
      </trkpt>
      <trkpt lat="45.84749" lon="6.50364">
        <ele>988</ele>
        <time>2022-06-15T12:37:00Z</time>
      </trkpt>
      <trkpt lat="45.84752" lon="6.50359">
        <ele>987.9</ele>
        <time>2022-06-15T12:37:01Z</time>
      </trkpt>
      <trkpt lat="45.84755" lon="6.50356">
        <ele>987.8</ele>
        <time>2022-06-15T12:37:02Z</time>
      </trkpt>
      <trkpt lat="45.84758" lon="6.50352">
        <ele>987.6</ele>
        <time>2022-06-15T12:37:03Z</time>
      </trkpt>
      <trkpt lat="45.84761" lon="6.50348">
        <ele>987.5</ele>
        <time>2022-06-15T12:37:04Z</time>
      </trkpt>
      <trkpt lat="45.84765" lon="6.50345">
        <ele>987.4</ele>
        <time>2022-06-15T12:37:05Z</time>
      </trkpt>
      <trkpt lat="45.84769" lon="6.50342">
        <ele>987.3</ele>
        <time>2022-06-15T12:37:06Z</time>
      </trkpt>
      <trkpt lat="45.84774" lon="6.5034">
        <ele>987.3</ele>
        <time>2022-06-15T12:37:07Z</time>
      </trkpt>
      <trkpt lat="45.84779" lon="6.50338">
        <ele>987.4</ele>
        <time>2022-06-15T12:37:08Z</time>
      </trkpt>
      <trkpt lat="45.84784" lon="6.50336">
        <ele>987.5</ele>
        <time>2022-06-15T12:37:09Z</time>
      </trkpt>
      <trkpt lat="45.8479" lon="6.50334">
        <ele>987.5</ele>
        <time>2022-06-15T12:37:10Z</time>
      </trkpt>
      <trkpt lat="45.84795" lon="6.50333">
        <ele>987.5</ele>
        <time>2022-06-15T12:37:11Z</time>
      </trkpt>
      <trkpt lat="45.848" lon="6.50331">
        <ele>987.6</ele>
        <time>2022-06-15T12:37:12Z</time>
      </trkpt>
      <trkpt lat="45.84805" lon="6.5033">
        <ele>987.6</ele>
        <time>2022-06-15T12:37:13Z</time>
      </trkpt>
      <trkpt lat="45.8481" lon="6.50329">
        <ele>987.7</ele>
        <time>2022-06-15T12:37:14Z</time>
      </trkpt>
      <trkpt lat="45.84815" lon="6.50328">
        <ele>988</ele>
        <time>2022-06-15T12:37:15Z</time>
      </trkpt>
      <trkpt lat="45.8482" lon="6.50328">
        <ele>988.1</ele>
        <time>2022-06-15T12:37:16Z</time>
      </trkpt>
      <trkpt lat="45.84825" lon="6.50328">
        <ele>988.3</ele>
        <time>2022-06-15T12:37:17Z</time>
      </trkpt>
      <trkpt lat="45.8483" lon="6.50328">
        <ele>988.6</ele>
        <time>2022-06-15T12:37:18Z</time>
      </trkpt>
      <trkpt lat="45.84835" lon="6.50328">
        <ele>988.7</ele>
        <time>2022-06-15T12:37:19Z</time>
      </trkpt>
      <trkpt lat="45.8484" lon="6.50328">
        <ele>988.5</ele>
        <time>2022-06-15T12:37:20Z</time>
      </trkpt>
      <trkpt lat="45.84846" lon="6.50328">
        <ele>988.2</ele>
        <time>2022-06-15T12:37:21Z</time>
      </trkpt>
      <trkpt lat="45.84852" lon="6.50328">
        <ele>988</ele>
        <time>2022-06-15T12:37:22Z</time>
      </trkpt>
      <trkpt lat="45.84858" lon="6.50328">
        <ele>987.6</ele>
        <time>2022-06-15T12:37:23Z</time>
      </trkpt>
      <trkpt lat="45.84863" lon="6.50328">
        <ele>987.6</ele>
        <time>2022-06-15T12:37:24Z</time>
      </trkpt>
      <trkpt lat="45.84869" lon="6.50328">
        <ele>988.1</ele>
        <time>2022-06-15T12:37:25Z</time>
      </trkpt>
      <trkpt lat="45.84874" lon="6.50327">
        <ele>988.5</ele>
        <time>2022-06-15T12:37:26Z</time>
      </trkpt>
      <trkpt lat="45.84879" lon="6.50327">
        <ele>988.9</ele>
        <time>2022-06-15T12:37:27Z</time>
      </trkpt>
      <trkpt lat="45.84884" lon="6.50326">
        <ele>989.2</ele>
        <time>2022-06-15T12:37:28Z</time>
      </trkpt>
      <trkpt lat="45.84889" lon="6.50325">
        <ele>989.5</ele>
        <time>2022-06-15T12:37:29Z</time>
      </trkpt>
      <trkpt lat="45.84893" lon="6.50323">
        <ele>990</ele>
        <time>2022-06-15T12:37:30Z</time>
      </trkpt>
      <trkpt lat="45.84897" lon="6.50321">
        <ele>990.3</ele>
        <time>2022-06-15T12:37:31Z</time>
      </trkpt>
      <trkpt lat="45.84901" lon="6.50318">
        <ele>990.3</ele>
        <time>2022-06-15T12:37:32Z</time>
      </trkpt>
      <trkpt lat="45.84905" lon="6.50315">
        <ele>990.2</ele>
        <time>2022-06-15T12:37:33Z</time>
      </trkpt>
      <trkpt lat="45.84909" lon="6.50312">
        <ele>989.9</ele>
        <time>2022-06-15T12:37:34Z</time>
      </trkpt>
      <trkpt lat="45.84912" lon="6.50309">
        <ele>989.5</ele>
        <time>2022-06-15T12:37:35Z</time>
      </trkpt>
      <trkpt lat="45.84916" lon="6.50306">
        <ele>989</ele>
        <time>2022-06-15T12:37:36Z</time>
      </trkpt>
      <trkpt lat="45.84918" lon="6.50302">
        <ele>989</ele>
        <time>2022-06-15T12:37:37Z</time>
      </trkpt>
      <trkpt lat="45.84921" lon="6.50298">
        <ele>989</ele>
        <time>2022-06-15T12:37:38Z</time>
      </trkpt>
      <trkpt lat="45.84923" lon="6.50295">
        <ele>989.2</ele>
        <time>2022-06-15T12:37:39Z</time>
      </trkpt>
      <trkpt lat="45.84926" lon="6.50293">
        <ele>989.3</ele>
        <time>2022-06-15T12:37:40Z</time>
      </trkpt>
      <trkpt lat="45.84929" lon="6.50291">
        <ele>989.6</ele>
        <time>2022-06-15T12:37:41Z</time>
      </trkpt>
      <trkpt lat="45.84932" lon="6.50291">
        <ele>990.1</ele>
        <time>2022-06-15T12:37:42Z</time>
      </trkpt>
      <trkpt lat="45.84936" lon="6.5029">
        <ele>990.5</ele>
        <time>2022-06-15T12:37:43Z</time>
      </trkpt>
      <trkpt lat="45.84939" lon="6.50288">
        <ele>990.6</ele>
        <time>2022-06-15T12:37:44Z</time>
      </trkpt>
      <trkpt lat="45.84942" lon="6.50285">
        <ele>990.5</ele>
        <time>2022-06-15T12:37:45Z</time>
      </trkpt>
      <trkpt lat="45.84945" lon="6.50282">
        <ele>990.3</ele>
        <time>2022-06-15T12:37:46Z</time>
      </trkpt>
      <trkpt lat="45.84949" lon="6.50279">
        <ele>990.7</ele>
        <time>2022-06-15T12:37:47Z</time>
      </trkpt>
      <trkpt lat="45.84953" lon="6.50277">
        <ele>991.2</ele>
        <time>2022-06-15T12:37:48Z</time>
      </trkpt>
      <trkpt lat="45.84956" lon="6.50274">
        <ele>991.6</ele>
        <time>2022-06-15T12:37:49Z</time>
      </trkpt>
      <trkpt lat="45.84959" lon="6.50271">
        <ele>991.9</ele>
        <time>2022-06-15T12:37:50Z</time>
      </trkpt>
      <trkpt lat="45.84962" lon="6.50269">
        <ele>992.2</ele>
        <time>2022-06-15T12:37:51Z</time>
      </trkpt>
      <trkpt lat="45.84965" lon="6.50267">
        <ele>992.2</ele>
        <time>2022-06-15T12:37:52Z</time>
      </trkpt>
      <trkpt lat="45.84969" lon="6.50264">
        <ele>992.3</ele>
        <time>2022-06-15T12:37:53Z</time>
      </trkpt>
      <trkpt lat="45.84972" lon="6.50261">
        <ele>992.2</ele>
        <time>2022-06-15T12:37:54Z</time>
      </trkpt>
      <trkpt lat="45.84975" lon="6.50258">
        <ele>992</ele>
        <time>2022-06-15T12:37:55Z</time>
      </trkpt>
      <trkpt lat="45.84979" lon="6.50255">
        <ele>991.7</ele>
        <time>2022-06-15T12:37:56Z</time>
      </trkpt>
      <trkpt lat="45.84983" lon="6.50252">
        <ele>991.5</ele>
        <time>2022-06-15T12:37:57Z</time>
      </trkpt>
      <trkpt lat="45.84987" lon="6.50249">
        <ele>991.5</ele>
        <time>2022-06-15T12:37:58Z</time>
      </trkpt>
      <trkpt lat="45.84991" lon="6.50246">
        <ele>991.8</ele>
        <time>2022-06-15T12:37:59Z</time>
      </trkpt>
      <trkpt lat="45.84995" lon="6.50243">
        <ele>992</ele>
        <time>2022-06-15T12:38:00Z</time>
      </trkpt>
      <trkpt lat="45.84999" lon="6.50239">
        <ele>992.2</ele>
        <time>2022-06-15T12:38:01Z</time>
      </trkpt>
      <trkpt lat="45.85002" lon="6.50236">
        <ele>992.2</ele>
        <time>2022-06-15T12:38:02Z</time>
      </trkpt>
      <trkpt lat="45.85006" lon="6.50232">
        <ele>992.2</ele>
        <time>2022-06-15T12:38:03Z</time>
      </trkpt>
      <trkpt lat="45.8501" lon="6.50228">
        <ele>992.1</ele>
        <time>2022-06-15T12:38:04Z</time>
      </trkpt>
      <trkpt lat="45.85014" lon="6.50225">
        <ele>992</ele>
        <time>2022-06-15T12:38:05Z</time>
      </trkpt>
      <trkpt lat="45.85019" lon="6.50221">
        <ele>991.9</ele>
        <time>2022-06-15T12:38:06Z</time>
      </trkpt>
      <trkpt lat="45.85023" lon="6.50217">
        <ele>992.1</ele>
        <time>2022-06-15T12:38:07Z</time>
      </trkpt>
      <trkpt lat="45.85027" lon="6.50213">
        <ele>992.3</ele>
        <time>2022-06-15T12:38:08Z</time>
      </trkpt>
      <trkpt lat="45.85031" lon="6.50209">
        <ele>992.4</ele>
        <time>2022-06-15T12:38:09Z</time>
      </trkpt>
      <trkpt lat="45.85035" lon="6.50205">
        <ele>992.4</ele>
        <time>2022-06-15T12:38:10Z</time>
      </trkpt>
      <trkpt lat="45.8504" lon="6.50201">
        <ele>992.2</ele>
        <time>2022-06-15T12:38:11Z</time>
      </trkpt>
      <trkpt lat="45.85045" lon="6.50197">
        <ele>992</ele>
        <time>2022-06-15T12:38:12Z</time>
      </trkpt>
      <trkpt lat="45.8505" lon="6.50193">
        <ele>991.7</ele>
        <time>2022-06-15T12:38:13Z</time>
      </trkpt>
      <trkpt lat="45.85054" lon="6.50189">
        <ele>991.6</ele>
        <time>2022-06-15T12:38:14Z</time>
      </trkpt>
      <trkpt lat="45.85059" lon="6.50185">
        <ele>991.7</ele>
        <time>2022-06-15T12:38:15Z</time>
      </trkpt>
      <trkpt lat="45.85064" lon="6.50181">
        <ele>991.8</ele>
        <time>2022-06-15T12:38:16Z</time>
      </trkpt>
      <trkpt lat="45.85069" lon="6.50177">
        <ele>991.9</ele>
        <time>2022-06-15T12:38:17Z</time>
      </trkpt>
      <trkpt lat="45.85074" lon="6.50173">
        <ele>991.9</ele>
        <time>2022-06-15T12:38:18Z</time>
      </trkpt>
      <trkpt lat="45.85079" lon="6.50169">
        <ele>991.9</ele>
        <time>2022-06-15T12:38:19Z</time>
      </trkpt>
      <trkpt lat="45.85083" lon="6.50165">
        <ele>991.9</ele>
        <time>2022-06-15T12:38:20Z</time>
      </trkpt>
      <trkpt lat="45.85088" lon="6.50162">
        <ele>991.8</ele>
        <time>2022-06-15T12:38:21Z</time>
      </trkpt>
      <trkpt lat="45.85092" lon="6.50158">
        <ele>991.8</ele>
        <time>2022-06-15T12:38:22Z</time>
      </trkpt>
      <trkpt lat="45.85097" lon="6.50155">
        <ele>991.8</ele>
        <time>2022-06-15T12:38:23Z</time>
      </trkpt>
      <trkpt lat="45.85102" lon="6.50151">
        <ele>991.9</ele>
        <time>2022-06-15T12:38:24Z</time>
      </trkpt>
      <trkpt lat="45.85107" lon="6.50146">
        <ele>992</ele>
        <time>2022-06-15T12:38:25Z</time>
      </trkpt>
      <trkpt lat="45.85111" lon="6.50142">
        <ele>992.2</ele>
        <time>2022-06-15T12:38:26Z</time>
      </trkpt>
      <trkpt lat="45.85116" lon="6.50138">
        <ele>992.7</ele>
        <time>2022-06-15T12:38:27Z</time>
      </trkpt>
      <trkpt lat="45.8512" lon="6.50134">
        <ele>993.2</ele>
        <time>2022-06-15T12:38:28Z</time>
      </trkpt>
      <trkpt lat="45.85124" lon="6.50131">
        <ele>993.5</ele>
        <time>2022-06-15T12:38:29Z</time>
      </trkpt>
      <trkpt lat="45.85129" lon="6.50127">
        <ele>993.7</ele>
        <time>2022-06-15T12:38:30Z</time>
      </trkpt>
      <trkpt lat="45.85134" lon="6.50124">
        <ele>993.8</ele>
        <time>2022-06-15T12:38:31Z</time>
      </trkpt>
      <trkpt lat="45.85139" lon="6.5012">
        <ele>993.6</ele>
        <time>2022-06-15T12:38:32Z</time>
      </trkpt>
      <trkpt lat="45.85144" lon="6.50116">
        <ele>994.2</ele>
        <time>2022-06-15T12:38:33Z</time>
      </trkpt>
      <trkpt lat="45.85148" lon="6.50112">
        <ele>994.5</ele>
        <time>2022-06-15T12:38:34Z</time>
      </trkpt>
      <trkpt lat="45.85153" lon="6.50107">
        <ele>995.1</ele>
        <time>2022-06-15T12:38:35Z</time>
      </trkpt>
      <trkpt lat="45.85159" lon="6.50104">
        <ele>995.7</ele>
        <time>2022-06-15T12:38:36Z</time>
      </trkpt>
      <trkpt lat="45.85164" lon="6.501">
        <ele>996</ele>
        <time>2022-06-15T12:38:37Z</time>
      </trkpt>
      <trkpt lat="45.85169" lon="6.50096">
        <ele>996.1</ele>
        <time>2022-06-15T12:38:38Z</time>
      </trkpt>
      <trkpt lat="45.85174" lon="6.50092">
        <ele>996.1</ele>
        <time>2022-06-15T12:38:39Z</time>
      </trkpt>
      <trkpt lat="45.85179" lon="6.50089">
        <ele>995.7</ele>
        <time>2022-06-15T12:38:40Z</time>
      </trkpt>
      <trkpt lat="45.85185" lon="6.50085">
        <ele>995</ele>
        <time>2022-06-15T12:38:41Z</time>
      </trkpt>
      <trkpt lat="45.8519" lon="6.50082">
        <ele>994.6</ele>
        <time>2022-06-15T12:38:42Z</time>
      </trkpt>
      <trkpt lat="45.85195" lon="6.50079">
        <ele>994.7</ele>
        <time>2022-06-15T12:38:43Z</time>
      </trkpt>
      <trkpt lat="45.852" lon="6.50077">
        <ele>995.5</ele>
        <time>2022-06-15T12:38:44Z</time>
      </trkpt>
      <trkpt lat="45.85205" lon="6.50074">
        <ele>996</ele>
        <time>2022-06-15T12:38:45Z</time>
      </trkpt>
      <trkpt lat="45.8521" lon="6.5007">
        <ele>996.3</ele>
        <time>2022-06-15T12:38:46Z</time>
      </trkpt>
      <trkpt lat="45.85215" lon="6.50067">
        <ele>996.5</ele>
        <time>2022-06-15T12:38:47Z</time>
      </trkpt>
      <trkpt lat="45.85219" lon="6.50064">
        <ele>996.4</ele>
        <time>2022-06-15T12:38:48Z</time>
      </trkpt>
      <trkpt lat="45.85224" lon="6.5006">
        <ele>996.4</ele>
        <time>2022-06-15T12:38:49Z</time>
      </trkpt>
      <trkpt lat="45.85229" lon="6.50057">
        <ele>996.4</ele>
        <time>2022-06-15T12:38:50Z</time>
      </trkpt>
      <trkpt lat="45.85234" lon="6.50055">
        <ele>996.6</ele>
        <time>2022-06-15T12:38:51Z</time>
      </trkpt>
      <trkpt lat="45.85239" lon="6.50052">
        <ele>997</ele>
        <time>2022-06-15T12:38:52Z</time>
      </trkpt>
      <trkpt lat="45.85244" lon="6.50049">
        <ele>997.3</ele>
        <time>2022-06-15T12:38:53Z</time>
      </trkpt>
      <trkpt lat="45.85248" lon="6.50047">
        <ele>997.6</ele>
        <time>2022-06-15T12:38:54Z</time>
      </trkpt>
      <trkpt lat="45.85253" lon="6.50045">
        <ele>998</ele>
        <time>2022-06-15T12:38:55Z</time>
      </trkpt>
      <trkpt lat="45.85258" lon="6.50043">
        <ele>998.6</ele>
        <time>2022-06-15T12:38:56Z</time>
      </trkpt>
      <trkpt lat="45.85262" lon="6.50041">
        <ele>999.1</ele>
        <time>2022-06-15T12:38:57Z</time>
      </trkpt>
      <trkpt lat="45.85267" lon="6.50039">
        <ele>999.3</ele>
        <time>2022-06-15T12:38:58Z</time>
      </trkpt>
      <trkpt lat="45.85271" lon="6.50037">
        <ele>999.5</ele>
        <time>2022-06-15T12:38:59Z</time>
      </trkpt>
      <trkpt lat="45.85276" lon="6.50035">
        <ele>999.4</ele>
        <time>2022-06-15T12:39:00Z</time>
      </trkpt>
      <trkpt lat="45.8528" lon="6.50034">
        <ele>999.4</ele>
        <time>2022-06-15T12:39:01Z</time>
      </trkpt>
      <trkpt lat="45.85285" lon="6.50033">
        <ele>999.6</ele>
        <time>2022-06-15T12:39:02Z</time>
      </trkpt>
      <trkpt lat="45.8529" lon="6.50032">
        <ele>999.7</ele>
        <time>2022-06-15T12:39:03Z</time>
      </trkpt>
      <trkpt lat="45.85294" lon="6.5003">
        <ele>999.4</ele>
        <time>2022-06-15T12:39:04Z</time>
      </trkpt>
      <trkpt lat="45.85298" lon="6.50028">
        <ele>998.5</ele>
        <time>2022-06-15T12:39:05Z</time>
      </trkpt>
      <trkpt lat="45.85302" lon="6.50026">
        <ele>998.5</ele>
        <time>2022-06-15T12:39:06Z</time>
      </trkpt>
      <trkpt lat="45.85306" lon="6.50024">
        <ele>998.7</ele>
        <time>2022-06-15T12:39:07Z</time>
      </trkpt>
      <trkpt lat="45.8531" lon="6.50023">
        <ele>999.4</ele>
        <time>2022-06-15T12:39:08Z</time>
      </trkpt>
      <trkpt lat="45.85314" lon="6.50023">
        <ele>1000.2</ele>
        <time>2022-06-15T12:39:09Z</time>
      </trkpt>
      <trkpt lat="45.85318" lon="6.50022">
        <ele>1000.8</ele>
        <time>2022-06-15T12:39:10Z</time>
      </trkpt>
      <trkpt lat="45.85322" lon="6.50022">
        <ele>1001.6</ele>
        <time>2022-06-15T12:39:11Z</time>
      </trkpt>
      <trkpt lat="45.85326" lon="6.50021">
        <ele>1002.1</ele>
        <time>2022-06-15T12:39:12Z</time>
      </trkpt>
      <trkpt lat="45.8533" lon="6.5002">
        <ele>1002.6</ele>
        <time>2022-06-15T12:39:13Z</time>
      </trkpt>
      <trkpt lat="45.85333" lon="6.50019">
        <ele>1003</ele>
        <time>2022-06-15T12:39:14Z</time>
      </trkpt>
      <trkpt lat="45.85337" lon="6.50018">
        <ele>1003.3</ele>
        <time>2022-06-15T12:39:15Z</time>
      </trkpt>
      <trkpt lat="45.8534" lon="6.50017">
        <ele>1003.7</ele>
        <time>2022-06-15T12:39:16Z</time>
      </trkpt>
      <trkpt lat="45.85344" lon="6.50016">
        <ele>1004</ele>
        <time>2022-06-15T12:39:17Z</time>
      </trkpt>
      <trkpt lat="45.85348" lon="6.50015">
        <ele>1004.3</ele>
        <time>2022-06-15T12:39:18Z</time>
      </trkpt>
      <trkpt lat="45.85351" lon="6.50015">
        <ele>1004.7</ele>
        <time>2022-06-15T12:39:19Z</time>
      </trkpt>
      <trkpt lat="45.85355" lon="6.50014">
        <ele>1004.8</ele>
        <time>2022-06-15T12:39:20Z</time>
      </trkpt>
      <trkpt lat="45.85358" lon="6.50014">
        <ele>1005.5</ele>
        <time>2022-06-15T12:39:21Z</time>
      </trkpt>
      <trkpt lat="45.85362" lon="6.50014">
        <ele>1005.9</ele>
        <time>2022-06-15T12:39:22Z</time>
      </trkpt>
      <trkpt lat="45.85365" lon="6.50012">
        <ele>1005.4</ele>
        <time>2022-06-15T12:39:23Z</time>
      </trkpt>
      <trkpt lat="45.85369" lon="6.50011">
        <ele>1004.9</ele>
        <time>2022-06-15T12:39:24Z</time>
      </trkpt>
      <trkpt lat="45.85372" lon="6.5001">
        <ele>1004.6</ele>
        <time>2022-06-15T12:39:25Z</time>
      </trkpt>
      <trkpt lat="45.85376" lon="6.50009">
        <ele>1004.3</ele>
        <time>2022-06-15T12:39:26Z</time>
      </trkpt>
      <trkpt lat="45.8538" lon="6.50009">
        <ele>1004.3</ele>
        <time>2022-06-15T12:39:27Z</time>
      </trkpt>
      <trkpt lat="45.85384" lon="6.50009">
        <ele>1004.3</ele>
        <time>2022-06-15T12:39:28Z</time>
      </trkpt>
      <trkpt lat="45.85388" lon="6.5001">
        <ele>1004.4</ele>
        <time>2022-06-15T12:39:29Z</time>
      </trkpt>
      <trkpt lat="45.85392" lon="6.5001">
        <ele>1004.3</ele>
        <time>2022-06-15T12:39:30Z</time>
      </trkpt>
      <trkpt lat="45.85396" lon="6.50011">
        <ele>1004.2</ele>
        <time>2022-06-15T12:39:31Z</time>
      </trkpt>
      <trkpt lat="45.85399" lon="6.50013">
        <ele>1004.4</ele>
        <time>2022-06-15T12:39:32Z</time>
      </trkpt>
      <trkpt lat="45.85402" lon="6.50016">
        <ele>1004.6</ele>
        <time>2022-06-15T12:39:33Z</time>
      </trkpt>
      <trkpt lat="45.85405" lon="6.50019">
        <ele>1004.8</ele>
        <time>2022-06-15T12:39:34Z</time>
      </trkpt>
      <trkpt lat="45.85408" lon="6.50022">
        <ele>1004.9</ele>
        <time>2022-06-15T12:39:35Z</time>
      </trkpt>
      <trkpt lat="45.85411" lon="6.50025">
        <ele>1005</ele>
        <time>2022-06-15T12:39:36Z</time>
      </trkpt>
      <trkpt lat="45.85413" lon="6.50029">
        <ele>1005.2</ele>
        <time>2022-06-15T12:39:37Z</time>
      </trkpt>
      <trkpt lat="45.85416" lon="6.50033">
        <ele>1005.5</ele>
        <time>2022-06-15T12:39:38Z</time>
      </trkpt>
      <trkpt lat="45.85419" lon="6.50036">
        <ele>1006.2</ele>
        <time>2022-06-15T12:39:39Z</time>
      </trkpt>
      <trkpt lat="45.85422" lon="6.5004">
        <ele>1006.8</ele>
        <time>2022-06-15T12:39:40Z</time>
      </trkpt>
      <trkpt lat="45.85424" lon="6.50043">
        <ele>1007.4</ele>
        <time>2022-06-15T12:39:41Z</time>
      </trkpt>
      <trkpt lat="45.85427" lon="6.50046">
        <ele>1007.7</ele>
        <time>2022-06-15T12:39:42Z</time>
      </trkpt>
      <trkpt lat="45.8543" lon="6.50049">
        <ele>1007.8</ele>
        <time>2022-06-15T12:39:43Z</time>
      </trkpt>
      <trkpt lat="45.85433" lon="6.50051">
        <ele>1007.7</ele>
        <time>2022-06-15T12:39:44Z</time>
      </trkpt>
      <trkpt lat="45.85436" lon="6.50053">
        <ele>1007.4</ele>
        <time>2022-06-15T12:39:45Z</time>
      </trkpt>
      <trkpt lat="45.85439" lon="6.50054">
        <ele>1006.9</ele>
        <time>2022-06-15T12:39:46Z</time>
      </trkpt>
      <trkpt lat="45.85443" lon="6.50054">
        <ele>1006.2</ele>
        <time>2022-06-15T12:39:47Z</time>
      </trkpt>
      <trkpt lat="45.85446" lon="6.50054">
        <ele>1005.9</ele>
        <time>2022-06-15T12:39:48Z</time>
      </trkpt>
      <trkpt lat="45.8545" lon="6.50054">
        <ele>1006.1</ele>
        <time>2022-06-15T12:39:49Z</time>
      </trkpt>
      <trkpt lat="45.85453" lon="6.50054">
        <ele>1006.1</ele>
        <time>2022-06-15T12:39:50Z</time>
      </trkpt>
      <trkpt lat="45.85456" lon="6.50054">
        <ele>1006.2</ele>
        <time>2022-06-15T12:39:51Z</time>
      </trkpt>
      <trkpt lat="45.85459" lon="6.50053">
        <ele>1006.3</ele>
        <time>2022-06-15T12:39:52Z</time>
      </trkpt>
      <trkpt lat="45.85463" lon="6.50051">
        <ele>1006.3</ele>
        <time>2022-06-15T12:39:53Z</time>
      </trkpt>
      <trkpt lat="45.85466" lon="6.50049">
        <ele>1006.2</ele>
        <time>2022-06-15T12:39:54Z</time>
      </trkpt>
      <trkpt lat="45.85469" lon="6.50047">
        <ele>1006.2</ele>
        <time>2022-06-15T12:39:55Z</time>
      </trkpt>
      <trkpt lat="45.85471" lon="6.50044">
        <ele>1006.1</ele>
        <time>2022-06-15T12:39:56Z</time>
      </trkpt>
      <trkpt lat="45.85474" lon="6.50041">
        <ele>1006.8</ele>
        <time>2022-06-15T12:39:57Z</time>
      </trkpt>
      <trkpt lat="45.85476" lon="6.50038">
        <ele>1007.7</ele>
        <time>2022-06-15T12:39:58Z</time>
      </trkpt>
      <trkpt lat="45.85478" lon="6.50034">
        <ele>1008.3</ele>
        <time>2022-06-15T12:39:59Z</time>
      </trkpt>
      <trkpt lat="45.8548" lon="6.50031">
        <ele>1009.1</ele>
        <time>2022-06-15T12:40:00Z</time>
      </trkpt>
      <trkpt lat="45.85482" lon="6.50028">
        <ele>1010</ele>
        <time>2022-06-15T12:40:01Z</time>
      </trkpt>
      <trkpt lat="45.85483" lon="6.50025">
        <ele>1010.6</ele>
        <time>2022-06-15T12:40:02Z</time>
      </trkpt>
      <trkpt lat="45.85485" lon="6.50023">
        <ele>1010.9</ele>
        <time>2022-06-15T12:40:03Z</time>
      </trkpt>
      <trkpt lat="45.85487" lon="6.5002">
        <ele>1011</ele>
        <time>2022-06-15T12:40:04Z</time>
      </trkpt>
      <trkpt lat="45.85488" lon="6.50017">
        <ele>1010.9</ele>
        <time>2022-06-15T12:40:05Z</time>
      </trkpt>
      <trkpt lat="45.85489" lon="6.50014">
        <ele>1010.9</ele>
        <time>2022-06-15T12:40:06Z</time>
      </trkpt>
      <trkpt lat="45.85491" lon="6.50011">
        <ele>1010.8</ele>
        <time>2022-06-15T12:40:07Z</time>
      </trkpt>
      <trkpt lat="45.85492" lon="6.50008">
        <ele>1010.8</ele>
        <time>2022-06-15T12:40:08Z</time>
      </trkpt>
      <trkpt lat="45.85494" lon="6.50005">
        <ele>1010.7</ele>
        <time>2022-06-15T12:40:09Z</time>
      </trkpt>
      <trkpt lat="45.85496" lon="6.50003">
        <ele>1010.7</ele>
        <time>2022-06-15T12:40:10Z</time>
      </trkpt>
      <trkpt lat="45.85498" lon="6.50001">
        <ele>1010.6</ele>
        <time>2022-06-15T12:40:11Z</time>
      </trkpt>
      <trkpt lat="45.855" lon="6.49999">
        <ele>1010.8</ele>
        <time>2022-06-15T12:40:12Z</time>
      </trkpt>
      <trkpt lat="45.85503" lon="6.49997">
        <ele>1011.3</ele>
        <time>2022-06-15T12:40:13Z</time>
      </trkpt>
      <trkpt lat="45.85505" lon="6.49994">
        <ele>1011.5</ele>
        <time>2022-06-15T12:40:14Z</time>
      </trkpt>
      <trkpt lat="45.85507" lon="6.49993">
        <ele>1012.1</ele>
        <time>2022-06-15T12:40:15Z</time>
      </trkpt>
      <trkpt lat="45.85509" lon="6.49991">
        <ele>1012.6</ele>
        <time>2022-06-15T12:40:16Z</time>
      </trkpt>
      <trkpt lat="45.85512" lon="6.49989">
        <ele>1012.9</ele>
        <time>2022-06-15T12:40:17Z</time>
      </trkpt>
      <trkpt lat="45.85514" lon="6.49988">
        <ele>1013.3</ele>
        <time>2022-06-15T12:40:18Z</time>
      </trkpt>
      <trkpt lat="45.85516" lon="6.49986">
        <ele>1013.6</ele>
        <time>2022-06-15T12:40:19Z</time>
      </trkpt>
      <trkpt lat="45.85519" lon="6.49984">
        <ele>1013.8</ele>
        <time>2022-06-15T12:40:20Z</time>
      </trkpt>
      <trkpt lat="45.85521" lon="6.49982">
        <ele>1013.8</ele>
        <time>2022-06-15T12:40:21Z</time>
      </trkpt>
      <trkpt lat="45.85523" lon="6.4998">
        <ele>1013.7</ele>
        <time>2022-06-15T12:40:22Z</time>
      </trkpt>
      <trkpt lat="45.85525" lon="6.49978">
        <ele>1013.5</ele>
        <time>2022-06-15T12:40:23Z</time>
      </trkpt>
      <trkpt lat="45.85527" lon="6.49976">
        <ele>1013.3</ele>
        <time>2022-06-15T12:40:24Z</time>
      </trkpt>
      <trkpt lat="45.8553" lon="6.49974">
        <ele>1013.1</ele>
        <time>2022-06-15T12:40:25Z</time>
      </trkpt>
      <trkpt lat="45.85532" lon="6.49971">
        <ele>1013.3</ele>
        <time>2022-06-15T12:40:26Z</time>
      </trkpt>
      <trkpt lat="45.85534" lon="6.4997">
        <ele>1013.8</ele>
        <time>2022-06-15T12:40:27Z</time>
      </trkpt>
      <trkpt lat="45.85537" lon="6.49968">
        <ele>1014.2</ele>
        <time>2022-06-15T12:40:28Z</time>
      </trkpt>
      <trkpt lat="45.85539" lon="6.49965">
        <ele>1014.5</ele>
        <time>2022-06-15T12:40:29Z</time>
      </trkpt>
      <trkpt lat="45.85541" lon="6.49963">
        <ele>1014.8</ele>
        <time>2022-06-15T12:40:30Z</time>
      </trkpt>
      <trkpt lat="45.85543" lon="6.49961">
        <ele>1015.2</ele>
        <time>2022-06-15T12:40:31Z</time>
      </trkpt>
      <trkpt lat="45.85545" lon="6.49958">
        <ele>1015.4</ele>
        <time>2022-06-15T12:40:32Z</time>
      </trkpt>
      <trkpt lat="45.85547" lon="6.49956">
        <ele>1015.6</ele>
        <time>2022-06-15T12:40:33Z</time>
      </trkpt>
      <trkpt lat="45.85549" lon="6.49953">
        <ele>1015.8</ele>
        <time>2022-06-15T12:40:34Z</time>
      </trkpt>
      <trkpt lat="45.85552" lon="6.49951">
        <ele>1016</ele>
        <time>2022-06-15T12:40:35Z</time>
      </trkpt>
      <trkpt lat="45.85554" lon="6.49948">
        <ele>1016.2</ele>
        <time>2022-06-15T12:40:36Z</time>
      </trkpt>
      <trkpt lat="45.85556" lon="6.49946">
        <ele>1016.3</ele>
        <time>2022-06-15T12:40:37Z</time>
      </trkpt>
      <trkpt lat="45.85558" lon="6.49944">
        <ele>1016.4</ele>
        <time>2022-06-15T12:40:38Z</time>
      </trkpt>
      <trkpt lat="45.8556" lon="6.49942">
        <ele>1016.5</ele>
        <time>2022-06-15T12:40:39Z</time>
      </trkpt>
      <trkpt lat="45.85563" lon="6.4994">
        <ele>1016.6</ele>
        <time>2022-06-15T12:40:40Z</time>
      </trkpt>
      <trkpt lat="45.85565" lon="6.49939">
        <ele>1016.8</ele>
        <time>2022-06-15T12:40:41Z</time>
      </trkpt>
      <trkpt lat="45.85567" lon="6.49937">
        <ele>1017</ele>
        <time>2022-06-15T12:40:42Z</time>
      </trkpt>
      <trkpt lat="45.85569" lon="6.49935">
        <ele>1017.2</ele>
        <time>2022-06-15T12:40:43Z</time>
      </trkpt>
      <trkpt lat="45.85572" lon="6.49934">
        <ele>1017.4</ele>
        <time>2022-06-15T12:40:44Z</time>
      </trkpt>
      <trkpt lat="45.85574" lon="6.49932">
        <ele>1017.5</ele>
        <time>2022-06-15T12:40:45Z</time>
      </trkpt>
      <trkpt lat="45.85576" lon="6.4993">
        <ele>1017.6</ele>
        <time>2022-06-15T12:40:46Z</time>
      </trkpt>
      <trkpt lat="45.85578" lon="6.49928">
        <ele>1017.8</ele>
        <time>2022-06-15T12:40:47Z</time>
      </trkpt>
      <trkpt lat="45.8558" lon="6.49927">
        <ele>1017.9</ele>
        <time>2022-06-15T12:40:48Z</time>
      </trkpt>
      <trkpt lat="45.85582" lon="6.49925">
        <ele>1018.1</ele>
        <time>2022-06-15T12:40:49Z</time>
      </trkpt>
      <trkpt lat="45.85585" lon="6.49923">
        <ele>1018.5</ele>
        <time>2022-06-15T12:40:50Z</time>
      </trkpt>
      <trkpt lat="45.85587" lon="6.49922">
        <ele>1018.9</ele>
        <time>2022-06-15T12:40:51Z</time>
      </trkpt>
      <trkpt lat="45.85589" lon="6.4992">
        <ele>1019.3</ele>
        <time>2022-06-15T12:40:52Z</time>
      </trkpt>
      <trkpt lat="45.85591" lon="6.49918">
        <ele>1019.6</ele>
        <time>2022-06-15T12:40:53Z</time>
      </trkpt>
      <trkpt lat="45.85594" lon="6.49917">
        <ele>1019.9</ele>
        <time>2022-06-15T12:40:54Z</time>
      </trkpt>
      <trkpt lat="45.85596" lon="6.49915">
        <ele>1020</ele>
        <time>2022-06-15T12:40:55Z</time>
      </trkpt>
      <trkpt lat="45.85598" lon="6.49913">
        <ele>1020.2</ele>
        <time>2022-06-15T12:40:56Z</time>
      </trkpt>
      <trkpt lat="45.85601" lon="6.49912">
        <ele>1020.6</ele>
        <time>2022-06-15T12:40:57Z</time>
      </trkpt>
      <trkpt lat="45.85603" lon="6.4991">
        <ele>1020.8</ele>
        <time>2022-06-15T12:40:58Z</time>
      </trkpt>
      <trkpt lat="45.85605" lon="6.49908">
        <ele>1021.1</ele>
        <time>2022-06-15T12:40:59Z</time>
      </trkpt>
      <trkpt lat="45.85607" lon="6.49907">
        <ele>1021.5</ele>
        <time>2022-06-15T12:41:00Z</time>
      </trkpt>
      <trkpt lat="45.85609" lon="6.49905">
        <ele>1021.9</ele>
        <time>2022-06-15T12:41:01Z</time>
      </trkpt>
      <trkpt lat="45.85612" lon="6.49904">
        <ele>1022.3</ele>
        <time>2022-06-15T12:41:02Z</time>
      </trkpt>
      <trkpt lat="45.85614" lon="6.49903">
        <ele>1022.5</ele>
        <time>2022-06-15T12:41:03Z</time>
      </trkpt>
      <trkpt lat="45.85616" lon="6.49901">
        <ele>1022.6</ele>
        <time>2022-06-15T12:41:04Z</time>
      </trkpt>
      <trkpt lat="45.85618" lon="6.499">
        <ele>1022.7</ele>
        <time>2022-06-15T12:41:05Z</time>
      </trkpt>
      <trkpt lat="45.85621" lon="6.49898">
        <ele>1022.8</ele>
        <time>2022-06-15T12:41:06Z</time>
      </trkpt>
      <trkpt lat="45.85623" lon="6.49897">
        <ele>1022.8</ele>
        <time>2022-06-15T12:41:07Z</time>
      </trkpt>
      <trkpt lat="45.85625" lon="6.49895">
        <ele>1022.9</ele>
        <time>2022-06-15T12:41:08Z</time>
      </trkpt>
      <trkpt lat="45.85627" lon="6.49893">
        <ele>1023</ele>
        <time>2022-06-15T12:41:09Z</time>
      </trkpt>
      <trkpt lat="45.8563" lon="6.49892">
        <ele>1023</ele>
        <time>2022-06-15T12:41:10Z</time>
      </trkpt>
      <trkpt lat="45.85632" lon="6.4989">
        <ele>1023.1</ele>
        <time>2022-06-15T12:41:11Z</time>
      </trkpt>
      <trkpt lat="45.85634" lon="6.49889">
        <ele>1023.1</ele>
        <time>2022-06-15T12:41:12Z</time>
      </trkpt>
      <trkpt lat="45.85636" lon="6.49887">
        <ele>1023.3</ele>
        <time>2022-06-15T12:41:13Z</time>
      </trkpt>
      <trkpt lat="45.85639" lon="6.49886">
        <ele>1023.5</ele>
        <time>2022-06-15T12:41:14Z</time>
      </trkpt>
      <trkpt lat="45.85641" lon="6.49885">
        <ele>1023.6</ele>
        <time>2022-06-15T12:41:15Z</time>
      </trkpt>
      <trkpt lat="45.85643" lon="6.49884">
        <ele>1023.6</ele>
        <time>2022-06-15T12:41:16Z</time>
      </trkpt>
      <trkpt lat="45.85645" lon="6.49882">
        <ele>1023.6</ele>
        <time>2022-06-15T12:41:17Z</time>
      </trkpt>
      <trkpt lat="45.85648" lon="6.49881">
        <ele>1023.7</ele>
        <time>2022-06-15T12:41:18Z</time>
      </trkpt>
      <trkpt lat="45.8565" lon="6.4988">
        <ele>1023.9</ele>
        <time>2022-06-15T12:41:19Z</time>
      </trkpt>
      <trkpt lat="45.85652" lon="6.49879">
        <ele>1024</ele>
        <time>2022-06-15T12:41:20Z</time>
      </trkpt>
      <trkpt lat="45.85654" lon="6.49877">
        <ele>1024.1</ele>
        <time>2022-06-15T12:41:21Z</time>
      </trkpt>
      <trkpt lat="45.85656" lon="6.49876">
        <ele>1024.2</ele>
        <time>2022-06-15T12:41:22Z</time>
      </trkpt>
      <trkpt lat="45.85658" lon="6.49874">
        <ele>1024.4</ele>
        <time>2022-06-15T12:41:23Z</time>
      </trkpt>
      <trkpt lat="45.8566" lon="6.49873">
        <ele>1024.5</ele>
        <time>2022-06-15T12:41:24Z</time>
      </trkpt>
      <trkpt lat="45.85662" lon="6.49871">
        <ele>1024.7</ele>
        <time>2022-06-15T12:41:25Z</time>
      </trkpt>
      <trkpt lat="45.85664" lon="6.4987">
        <ele>1025</ele>
        <time>2022-06-15T12:41:26Z</time>
      </trkpt>
      <trkpt lat="45.85667" lon="6.49868">
        <ele>1025.2</ele>
        <time>2022-06-15T12:41:27Z</time>
      </trkpt>
      <trkpt lat="45.85669" lon="6.49867">
        <ele>1025.5</ele>
        <time>2022-06-15T12:41:28Z</time>
      </trkpt>
      <trkpt lat="45.85671" lon="6.49866">
        <ele>1025.8</ele>
        <time>2022-06-15T12:41:29Z</time>
      </trkpt>
      <trkpt lat="45.85673" lon="6.49864">
        <ele>1025.9</ele>
        <time>2022-06-15T12:41:30Z</time>
      </trkpt>
      <trkpt lat="45.85675" lon="6.49863">
        <ele>1026.1</ele>
        <time>2022-06-15T12:41:31Z</time>
      </trkpt>
      <trkpt lat="45.85677" lon="6.49861">
        <ele>1026.1</ele>
        <time>2022-06-15T12:41:32Z</time>
      </trkpt>
      <trkpt lat="45.85679" lon="6.4986">
        <ele>1026.2</ele>
        <time>2022-06-15T12:41:33Z</time>
      </trkpt>
      <trkpt lat="45.85681" lon="6.49858">
        <ele>1026.3</ele>
        <time>2022-06-15T12:41:34Z</time>
      </trkpt>
      <trkpt lat="45.85683" lon="6.49856">
        <ele>1026.4</ele>
        <time>2022-06-15T12:41:35Z</time>
      </trkpt>
      <trkpt lat="45.85685" lon="6.49855">
        <ele>1026.5</ele>
        <time>2022-06-15T12:41:36Z</time>
      </trkpt>
      <trkpt lat="45.85687" lon="6.49854">
        <ele>1026.7</ele>
        <time>2022-06-15T12:41:37Z</time>
      </trkpt>
      <trkpt lat="45.85689" lon="6.49852">
        <ele>1026.9</ele>
        <time>2022-06-15T12:41:38Z</time>
      </trkpt>
      <trkpt lat="45.85691" lon="6.49851">
        <ele>1027.1</ele>
        <time>2022-06-15T12:41:39Z</time>
      </trkpt>
      <trkpt lat="45.85693" lon="6.4985">
        <ele>1027.4</ele>
        <time>2022-06-15T12:41:40Z</time>
      </trkpt>
      <trkpt lat="45.85696" lon="6.49849">
        <ele>1027.8</ele>
        <time>2022-06-15T12:41:41Z</time>
      </trkpt>
      <trkpt lat="45.85698" lon="6.49848">
        <ele>1028.3</ele>
        <time>2022-06-15T12:41:42Z</time>
      </trkpt>
      <trkpt lat="45.857" lon="6.49847">
        <ele>1028.7</ele>
        <time>2022-06-15T12:41:43Z</time>
      </trkpt>
      <trkpt lat="45.85702" lon="6.49845">
        <ele>1029</ele>
        <time>2022-06-15T12:41:44Z</time>
      </trkpt>
      <trkpt lat="45.85704" lon="6.49844">
        <ele>1029.3</ele>
        <time>2022-06-15T12:41:45Z</time>
      </trkpt>
      <trkpt lat="45.85706" lon="6.49843">
        <ele>1029.6</ele>
        <time>2022-06-15T12:41:46Z</time>
      </trkpt>
      <trkpt lat="45.85708" lon="6.49842">
        <ele>1029.8</ele>
        <time>2022-06-15T12:41:47Z</time>
      </trkpt>
      <trkpt lat="45.8571" lon="6.49841">
        <ele>1030</ele>
        <time>2022-06-15T12:41:48Z</time>
      </trkpt>
      <trkpt lat="45.85712" lon="6.4984">
        <ele>1030.2</ele>
        <time>2022-06-15T12:41:49Z</time>
      </trkpt>
      <trkpt lat="45.85714" lon="6.49839">
        <ele>1030.4</ele>
        <time>2022-06-15T12:41:50Z</time>
      </trkpt>
      <trkpt lat="45.85717" lon="6.49838">
        <ele>1030.4</ele>
        <time>2022-06-15T12:41:51Z</time>
      </trkpt>
      <trkpt lat="45.85719" lon="6.49837">
        <ele>1030.5</ele>
        <time>2022-06-15T12:41:52Z</time>
      </trkpt>
      <trkpt lat="45.85721" lon="6.49836">
        <ele>1030.5</ele>
        <time>2022-06-15T12:41:53Z</time>
      </trkpt>
      <trkpt lat="45.85723" lon="6.49835">
        <ele>1030.5</ele>
        <time>2022-06-15T12:41:54Z</time>
      </trkpt>
      <trkpt lat="45.85725" lon="6.49834">
        <ele>1030.5</ele>
        <time>2022-06-15T12:41:55Z</time>
      </trkpt>
      <trkpt lat="45.85727" lon="6.49833">
        <ele>1030.7</ele>
        <time>2022-06-15T12:41:56Z</time>
      </trkpt>
      <trkpt lat="45.85729" lon="6.49832">
        <ele>1030.7</ele>
        <time>2022-06-15T12:41:57Z</time>
      </trkpt>
      <trkpt lat="45.85731" lon="6.49831">
        <ele>1030.8</ele>
        <time>2022-06-15T12:41:58Z</time>
      </trkpt>
      <trkpt lat="45.85733" lon="6.4983">
        <ele>1030.9</ele>
        <time>2022-06-15T12:41:59Z</time>
      </trkpt>
      <trkpt lat="45.85736" lon="6.49829">
        <ele>1031</ele>
        <time>2022-06-15T12:42:00Z</time>
      </trkpt>
      <trkpt lat="45.85738" lon="6.49829">
        <ele>1031.2</ele>
        <time>2022-06-15T12:42:01Z</time>
      </trkpt>
      <trkpt lat="45.8574" lon="6.49828">
        <ele>1031.4</ele>
        <time>2022-06-15T12:42:02Z</time>
      </trkpt>
      <trkpt lat="45.85742" lon="6.49826">
        <ele>1031.5</ele>
        <time>2022-06-15T12:42:03Z</time>
      </trkpt>
      <trkpt lat="45.85744" lon="6.49825">
        <ele>1031.5</ele>
        <time>2022-06-15T12:42:04Z</time>
      </trkpt>
      <trkpt lat="45.85746" lon="6.49824">
        <ele>1031.6</ele>
        <time>2022-06-15T12:42:05Z</time>
      </trkpt>
      <trkpt lat="45.85748" lon="6.49823">
        <ele>1031.8</ele>
        <time>2022-06-15T12:42:06Z</time>
      </trkpt>
      <trkpt lat="45.8575" lon="6.49821">
        <ele>1032</ele>
        <time>2022-06-15T12:42:07Z</time>
      </trkpt>
      <trkpt lat="45.85752" lon="6.4982">
        <ele>1032.3</ele>
        <time>2022-06-15T12:42:08Z</time>
      </trkpt>
      <trkpt lat="45.85754" lon="6.4982">
        <ele>1032.7</ele>
        <time>2022-06-15T12:42:09Z</time>
      </trkpt>
      <trkpt lat="45.85757" lon="6.49818">
        <ele>1032.9</ele>
        <time>2022-06-15T12:42:10Z</time>
      </trkpt>
      <trkpt lat="45.85758" lon="6.49817">
        <ele>1032.9</ele>
        <time>2022-06-15T12:42:11Z</time>
      </trkpt>
      <trkpt lat="45.8576" lon="6.49815">
        <ele>1033</ele>
        <time>2022-06-15T12:42:12Z</time>
      </trkpt>
      <trkpt lat="45.85762" lon="6.49814">
        <ele>1033.1</ele>
        <time>2022-06-15T12:42:13Z</time>
      </trkpt>
      <trkpt lat="45.85764" lon="6.49813">
        <ele>1033.2</ele>
        <time>2022-06-15T12:42:14Z</time>
      </trkpt>
      <trkpt lat="45.85767" lon="6.49811">
        <ele>1033.3</ele>
        <time>2022-06-15T12:42:15Z</time>
      </trkpt>
      <trkpt lat="45.85769" lon="6.4981">
        <ele>1033.5</ele>
        <time>2022-06-15T12:42:16Z</time>
      </trkpt>
      <trkpt lat="45.85771" lon="6.49809">
        <ele>1033.5</ele>
        <time>2022-06-15T12:42:17Z</time>
      </trkpt>
      <trkpt lat="45.85773" lon="6.49807">
        <ele>1033.5</ele>
        <time>2022-06-15T12:42:18Z</time>
      </trkpt>
      <trkpt lat="45.85775" lon="6.49806">
        <ele>1033.6</ele>
        <time>2022-06-15T12:42:19Z</time>
      </trkpt>
      <trkpt lat="45.85777" lon="6.49805">
        <ele>1033.8</ele>
        <time>2022-06-15T12:42:20Z</time>
      </trkpt>
      <trkpt lat="45.8578" lon="6.49805">
        <ele>1034.6</ele>
        <time>2022-06-15T12:42:21Z</time>
      </trkpt>
      <trkpt lat="45.85782" lon="6.49803">
        <ele>1035.1</ele>
        <time>2022-06-15T12:42:22Z</time>
      </trkpt>
      <trkpt lat="45.85784" lon="6.49802">
        <ele>1035.7</ele>
        <time>2022-06-15T12:42:23Z</time>
      </trkpt>
      <trkpt lat="45.85787" lon="6.49801">
        <ele>1036.2</ele>
        <time>2022-06-15T12:42:24Z</time>
      </trkpt>
      <trkpt lat="45.85789" lon="6.498">
        <ele>1036.6</ele>
        <time>2022-06-15T12:42:25Z</time>
      </trkpt>
      <trkpt lat="45.85791" lon="6.49799">
        <ele>1036.9</ele>
        <time>2022-06-15T12:42:26Z</time>
      </trkpt>
      <trkpt lat="45.85793" lon="6.49798">
        <ele>1037.7</ele>
        <time>2022-06-15T12:42:27Z</time>
      </trkpt>
      <trkpt lat="45.85795" lon="6.49797">
        <ele>1038.3</ele>
        <time>2022-06-15T12:42:28Z</time>
      </trkpt>
      <trkpt lat="45.85797" lon="6.49796">
        <ele>1038.7</ele>
        <time>2022-06-15T12:42:29Z</time>
      </trkpt>
      <trkpt lat="45.85799" lon="6.49795">
        <ele>1038.9</ele>
        <time>2022-06-15T12:42:30Z</time>
      </trkpt>
      <trkpt lat="45.85801" lon="6.49794">
        <ele>1039.2</ele>
        <time>2022-06-15T12:42:31Z</time>
      </trkpt>
      <trkpt lat="45.85804" lon="6.49792">
        <ele>1039.3</ele>
        <time>2022-06-15T12:42:32Z</time>
      </trkpt>
      <trkpt lat="45.85806" lon="6.4979">
        <ele>1039.4</ele>
        <time>2022-06-15T12:42:33Z</time>
      </trkpt>
      <trkpt lat="45.85809" lon="6.4979">
        <ele>1040.4</ele>
        <time>2022-06-15T12:42:34Z</time>
      </trkpt>
      <trkpt lat="45.85811" lon="6.49789">
        <ele>1040.4</ele>
        <time>2022-06-15T12:42:35Z</time>
      </trkpt>
      <trkpt lat="45.85813" lon="6.49788">
        <ele>1040.5</ele>
        <time>2022-06-15T12:42:36Z</time>
      </trkpt>
      <trkpt lat="45.85815" lon="6.49786">
        <ele>1040.5</ele>
        <time>2022-06-15T12:42:37Z</time>
      </trkpt>
      <trkpt lat="45.85817" lon="6.49785">
        <ele>1040.4</ele>
        <time>2022-06-15T12:42:38Z</time>
      </trkpt>
      <trkpt lat="45.85819" lon="6.49783">
        <ele>1040.3</ele>
        <time>2022-06-15T12:42:39Z</time>
      </trkpt>
      <trkpt lat="45.85821" lon="6.49781">
        <ele>1040</ele>
        <time>2022-06-15T12:42:40Z</time>
      </trkpt>
      <trkpt lat="45.85822" lon="6.49779">
        <ele>1039.5</ele>
        <time>2022-06-15T12:42:41Z</time>
      </trkpt>
      <trkpt lat="45.85823" lon="6.49777">
        <ele>1038.4</ele>
        <time>2022-06-15T12:42:42Z</time>
      </trkpt>
      <trkpt lat="45.85824" lon="6.49775">
        <ele>1038.1</ele>
        <time>2022-06-15T12:42:43Z</time>
      </trkpt>
      <trkpt lat="45.85826" lon="6.49774">
        <ele>1038.4</ele>
        <time>2022-06-15T12:42:44Z</time>
      </trkpt>
      <trkpt lat="45.8583" lon="6.49772">
        <ele>1038.8</ele>
        <time>2022-06-15T12:42:45Z</time>
      </trkpt>
      <trkpt lat="45.85832" lon="6.4977">
        <ele>1038.7</ele>
        <time>2022-06-15T12:42:46Z</time>
      </trkpt>
      <trkpt lat="45.85834" lon="6.49768">
        <ele>1038.9</ele>
        <time>2022-06-15T12:42:47Z</time>
      </trkpt>
      <trkpt lat="45.85836" lon="6.49767">
        <ele>1039.4</ele>
        <time>2022-06-15T12:42:48Z</time>
      </trkpt>
      <trkpt lat="45.85838" lon="6.49766">
        <ele>1039.7</ele>
        <time>2022-06-15T12:42:49Z</time>
      </trkpt>
      <trkpt lat="45.8584" lon="6.49764">
        <ele>1040</ele>
        <time>2022-06-15T12:42:50Z</time>
      </trkpt>
      <trkpt lat="45.85842" lon="6.49763">
        <ele>1040.2</ele>
        <time>2022-06-15T12:42:51Z</time>
      </trkpt>
      <trkpt lat="45.85844" lon="6.49761">
        <ele>1040.3</ele>
        <time>2022-06-15T12:42:52Z</time>
      </trkpt>
      <trkpt lat="45.85846" lon="6.49759">
        <ele>1040.4</ele>
        <time>2022-06-15T12:42:53Z</time>
      </trkpt>
      <trkpt lat="45.85848" lon="6.49759">
        <ele>1041</ele>
        <time>2022-06-15T12:42:54Z</time>
      </trkpt>
      <trkpt lat="45.85851" lon="6.49758">
        <ele>1041.5</ele>
        <time>2022-06-15T12:42:55Z</time>
      </trkpt>
      <trkpt lat="45.85853" lon="6.49757">
        <ele>1042.1</ele>
        <time>2022-06-15T12:42:56Z</time>
      </trkpt>
      <trkpt lat="45.85855" lon="6.49757">
        <ele>1042.5</ele>
        <time>2022-06-15T12:42:57Z</time>
      </trkpt>
      <trkpt lat="45.85857" lon="6.49754">
        <ele>1042</ele>
        <time>2022-06-15T12:42:58Z</time>
      </trkpt>
      <trkpt lat="45.85859" lon="6.49753">
        <ele>1042.1</ele>
        <time>2022-06-15T12:42:59Z</time>
      </trkpt>
      <trkpt lat="45.85862" lon="6.49752">
        <ele>1042</ele>
        <time>2022-06-15T12:43:00Z</time>
      </trkpt>
      <trkpt lat="45.85864" lon="6.4975">
        <ele>1041.6</ele>
        <time>2022-06-15T12:43:01Z</time>
      </trkpt>
      <trkpt lat="45.85866" lon="6.49749">
        <ele>1042</ele>
        <time>2022-06-15T12:43:02Z</time>
      </trkpt>
      <trkpt lat="45.85869" lon="6.49748">
        <ele>1042.2</ele>
        <time>2022-06-15T12:43:03Z</time>
      </trkpt>
      <trkpt lat="45.85871" lon="6.49747">
        <ele>1042.6</ele>
        <time>2022-06-15T12:43:04Z</time>
      </trkpt>
      <trkpt lat="45.85873" lon="6.49746">
        <ele>1042.8</ele>
        <time>2022-06-15T12:43:05Z</time>
      </trkpt>
      <trkpt lat="45.85876" lon="6.49745">
        <ele>1043.3</ele>
        <time>2022-06-15T12:43:06Z</time>
      </trkpt>
      <trkpt lat="45.85878" lon="6.49744">
        <ele>1043.5</ele>
        <time>2022-06-15T12:43:07Z</time>
      </trkpt>
      <trkpt lat="45.8588" lon="6.49743">
        <ele>1043.9</ele>
        <time>2022-06-15T12:43:08Z</time>
      </trkpt>
      <trkpt lat="45.85883" lon="6.49742">
        <ele>1044.3</ele>
        <time>2022-06-15T12:43:09Z</time>
      </trkpt>
      <trkpt lat="45.85884" lon="6.4974">
        <ele>1044.4</ele>
        <time>2022-06-15T12:43:10Z</time>
      </trkpt>
      <trkpt lat="45.85886" lon="6.49738">
        <ele>1044.6</ele>
        <time>2022-06-15T12:43:11Z</time>
      </trkpt>
      <trkpt lat="45.85888" lon="6.49736">
        <ele>1044.7</ele>
        <time>2022-06-15T12:43:12Z</time>
      </trkpt>
      <trkpt lat="45.8589" lon="6.49733">
        <ele>1045.1</ele>
        <time>2022-06-15T12:43:13Z</time>
      </trkpt>
      <trkpt lat="45.85891" lon="6.4973">
        <ele>1045.7</ele>
        <time>2022-06-15T12:43:14Z</time>
      </trkpt>
      <trkpt lat="45.85892" lon="6.49727">
        <ele>1046.4</ele>
        <time>2022-06-15T12:43:15Z</time>
      </trkpt>
      <trkpt lat="45.85893" lon="6.49725">
        <ele>1047.3</ele>
        <time>2022-06-15T12:43:16Z</time>
      </trkpt>
      <trkpt lat="45.85895" lon="6.49722">
        <ele>1048.3</ele>
        <time>2022-06-15T12:43:17Z</time>
      </trkpt>
      <trkpt lat="45.85896" lon="6.49719">
        <ele>1048.5</ele>
        <time>2022-06-15T12:43:18Z</time>
      </trkpt>
      <trkpt lat="45.85898" lon="6.49715">
        <ele>1048.5</ele>
        <time>2022-06-15T12:43:19Z</time>
      </trkpt>
      <trkpt lat="45.85899" lon="6.49712">
        <ele>1048.5</ele>
        <time>2022-06-15T12:43:20Z</time>
      </trkpt>
      <trkpt lat="45.859" lon="6.4971">
        <ele>1048.9</ele>
        <time>2022-06-15T12:43:21Z</time>
      </trkpt>
      <trkpt lat="45.85902" lon="6.49706">
        <ele>1048.6</ele>
        <time>2022-06-15T12:43:22Z</time>
      </trkpt>
      <trkpt lat="45.85903" lon="6.49704">
        <ele>1048.6</ele>
        <time>2022-06-15T12:43:23Z</time>
      </trkpt>
      <trkpt lat="45.85905" lon="6.497">
        <ele>1048.6</ele>
        <time>2022-06-15T12:43:24Z</time>
      </trkpt>
      <trkpt lat="45.85907" lon="6.49697">
        <ele>1048.3</ele>
        <time>2022-06-15T12:43:25Z</time>
      </trkpt>
      <trkpt lat="45.85908" lon="6.49694">
        <ele>1048</ele>
        <time>2022-06-15T12:43:26Z</time>
      </trkpt>
      <trkpt lat="45.8591" lon="6.49691">
        <ele>1048</ele>
        <time>2022-06-15T12:43:27Z</time>
      </trkpt>
      <trkpt lat="45.85912" lon="6.49688">
        <ele>1047.9</ele>
        <time>2022-06-15T12:43:28Z</time>
      </trkpt>
      <trkpt lat="45.85914" lon="6.49686">
        <ele>1048.1</ele>
        <time>2022-06-15T12:43:29Z</time>
      </trkpt>
      <trkpt lat="45.85916" lon="6.49683">
        <ele>1048</ele>
        <time>2022-06-15T12:43:30Z</time>
      </trkpt>
      <trkpt lat="45.85918" lon="6.49681">
        <ele>1048.6</ele>
        <time>2022-06-15T12:43:31Z</time>
      </trkpt>
      <trkpt lat="45.8592" lon="6.49679">
        <ele>1049.1</ele>
        <time>2022-06-15T12:43:32Z</time>
      </trkpt>
      <trkpt lat="45.85923" lon="6.49677">
        <ele>1050</ele>
        <time>2022-06-15T12:43:33Z</time>
      </trkpt>
      <trkpt lat="45.85925" lon="6.49675">
        <ele>1050.4</ele>
        <time>2022-06-15T12:43:34Z</time>
      </trkpt>
      <trkpt lat="45.85927" lon="6.49674">
        <ele>1051.3</ele>
        <time>2022-06-15T12:43:35Z</time>
      </trkpt>
      <trkpt lat="45.85929" lon="6.49673">
        <ele>1052.1</ele>
        <time>2022-06-15T12:43:36Z</time>
      </trkpt>
      <trkpt lat="45.85932" lon="6.49671">
        <ele>1052.8</ele>
        <time>2022-06-15T12:43:37Z</time>
      </trkpt>
      <trkpt lat="45.85934" lon="6.4967">
        <ele>1053.4</ele>
        <time>2022-06-15T12:43:38Z</time>
      </trkpt>
      <trkpt lat="45.85936" lon="6.49669">
        <ele>1054.1</ele>
        <time>2022-06-15T12:43:39Z</time>
      </trkpt>
      <trkpt lat="45.85938" lon="6.49667">
        <ele>1054.5</ele>
        <time>2022-06-15T12:43:40Z</time>
      </trkpt>
      <trkpt lat="45.8594" lon="6.49667">
        <ele>1055.3</ele>
        <time>2022-06-15T12:43:41Z</time>
      </trkpt>
      <trkpt lat="45.85943" lon="6.49666">
        <ele>1056</ele>
        <time>2022-06-15T12:43:42Z</time>
      </trkpt>
      <trkpt lat="45.85945" lon="6.49664">
        <ele>1055.5</ele>
        <time>2022-06-15T12:43:43Z</time>
      </trkpt>
      <trkpt lat="45.85946" lon="6.49662">
        <ele>1054.8</ele>
        <time>2022-06-15T12:43:44Z</time>
      </trkpt>
      <trkpt lat="45.85948" lon="6.4966">
        <ele>1054.2</ele>
        <time>2022-06-15T12:43:45Z</time>
      </trkpt>
      <trkpt lat="45.8595" lon="6.49658">
        <ele>1053.3</ele>
        <time>2022-06-15T12:43:46Z</time>
      </trkpt>
      <trkpt lat="45.85951" lon="6.49657">
        <ele>1052.9</ele>
        <time>2022-06-15T12:43:47Z</time>
      </trkpt>
      <trkpt lat="45.85954" lon="6.49656">
        <ele>1053.4</ele>
        <time>2022-06-15T12:43:48Z</time>
      </trkpt>
      <trkpt lat="45.85956" lon="6.49655">
        <ele>1053.4</ele>
        <time>2022-06-15T12:43:49Z</time>
      </trkpt>
      <trkpt lat="45.85958" lon="6.49654">
        <ele>1053.6</ele>
        <time>2022-06-15T12:43:50Z</time>
      </trkpt>
      <trkpt lat="45.85961" lon="6.49653">
        <ele>1054.2</ele>
        <time>2022-06-15T12:43:51Z</time>
      </trkpt>
      <trkpt lat="45.85963" lon="6.49653">
        <ele>1054.9</ele>
        <time>2022-06-15T12:43:52Z</time>
      </trkpt>
      <trkpt lat="45.85965" lon="6.49653">
        <ele>1055.5</ele>
        <time>2022-06-15T12:43:53Z</time>
      </trkpt>
      <trkpt lat="45.85968" lon="6.49653">
        <ele>1057.2</ele>
        <time>2022-06-15T12:43:54Z</time>
      </trkpt>
      <trkpt lat="45.8597" lon="6.49653">
        <ele>1058.3</ele>
        <time>2022-06-15T12:43:55Z</time>
      </trkpt>
      <trkpt lat="45.85972" lon="6.49654">
        <ele>1059.4</ele>
        <time>2022-06-15T12:43:56Z</time>
      </trkpt>
      <trkpt lat="45.85974" lon="6.49654">
        <ele>1059.9</ele>
        <time>2022-06-15T12:43:57Z</time>
      </trkpt>
      <trkpt lat="45.85976" lon="6.49653">
        <ele>1060.2</ele>
        <time>2022-06-15T12:43:58Z</time>
      </trkpt>
      <trkpt lat="45.85979" lon="6.49653">
        <ele>1060.7</ele>
        <time>2022-06-15T12:43:59Z</time>
      </trkpt>
      <trkpt lat="45.85981" lon="6.49653">
        <ele>1060.9</ele>
        <time>2022-06-15T12:44:00Z</time>
      </trkpt>
      <trkpt lat="45.85983" lon="6.49653">
        <ele>1061.8</ele>
        <time>2022-06-15T12:44:01Z</time>
      </trkpt>
      <trkpt lat="45.85985" lon="6.49653">
        <ele>1061.8</ele>
        <time>2022-06-15T12:44:02Z</time>
      </trkpt>
      <trkpt lat="45.85988" lon="6.49652">
        <ele>1061.7</ele>
        <time>2022-06-15T12:44:03Z</time>
      </trkpt>
      <trkpt lat="45.8599" lon="6.49651">
        <ele>1061.6</ele>
        <time>2022-06-15T12:44:04Z</time>
      </trkpt>
      <trkpt lat="45.85993" lon="6.49651">
        <ele>1062</ele>
        <time>2022-06-15T12:44:05Z</time>
      </trkpt>
      <trkpt lat="45.85995" lon="6.4965">
        <ele>1061.7</ele>
        <time>2022-06-15T12:44:06Z</time>
      </trkpt>
      <trkpt lat="45.85997" lon="6.49649">
        <ele>1061.3</ele>
        <time>2022-06-15T12:44:07Z</time>
      </trkpt>
      <trkpt lat="45.85999" lon="6.49649">
        <ele>1061.2</ele>
        <time>2022-06-15T12:44:08Z</time>
      </trkpt>
      <trkpt lat="45.86001" lon="6.49649">
        <ele>1062</ele>
        <time>2022-06-15T12:44:09Z</time>
      </trkpt>
      <trkpt lat="45.86004" lon="6.4965">
        <ele>1062.6</ele>
        <time>2022-06-15T12:44:10Z</time>
      </trkpt>
      <trkpt lat="45.86006" lon="6.4965">
        <ele>1063.2</ele>
        <time>2022-06-15T12:44:11Z</time>
      </trkpt>
      <trkpt lat="45.86008" lon="6.49651">
        <ele>1063.7</ele>
        <time>2022-06-15T12:44:12Z</time>
      </trkpt>
      <trkpt lat="45.8601" lon="6.4965">
        <ele>1063.2</ele>
        <time>2022-06-15T12:44:13Z</time>
      </trkpt>
      <trkpt lat="45.86013" lon="6.4965">
        <ele>1063</ele>
        <time>2022-06-15T12:44:14Z</time>
      </trkpt>
      <trkpt lat="45.86015" lon="6.4965">
        <ele>1063.3</ele>
        <time>2022-06-15T12:44:15Z</time>
      </trkpt>
      <trkpt lat="45.86018" lon="6.49651">
        <ele>1064.1</ele>
        <time>2022-06-15T12:44:16Z</time>
      </trkpt>
      <trkpt lat="45.8602" lon="6.49651">
        <ele>1064.6</ele>
        <time>2022-06-15T12:44:17Z</time>
      </trkpt>
      <trkpt lat="45.86022" lon="6.49653">
        <ele>1066</ele>
        <time>2022-06-15T12:44:18Z</time>
      </trkpt>
      <trkpt lat="45.86025" lon="6.49655">
        <ele>1068.4</ele>
        <time>2022-06-15T12:44:19Z</time>
      </trkpt>
      <trkpt lat="45.86027" lon="6.49656">
        <ele>1068.9</ele>
        <time>2022-06-15T12:44:20Z</time>
      </trkpt>
      <trkpt lat="45.86029" lon="6.49656">
        <ele>1068.8</ele>
        <time>2022-06-15T12:44:21Z</time>
      </trkpt>
      <trkpt lat="45.86032" lon="6.49656">
        <ele>1068.4</ele>
        <time>2022-06-15T12:44:22Z</time>
      </trkpt>
      <trkpt lat="45.86033" lon="6.49655">
        <ele>1067.8</ele>
        <time>2022-06-15T12:44:23Z</time>
      </trkpt>
      <trkpt lat="45.86035" lon="6.49655">
        <ele>1067.4</ele>
        <time>2022-06-15T12:44:24Z</time>
      </trkpt>
      <trkpt lat="45.86038" lon="6.49656">
        <ele>1067.7</ele>
        <time>2022-06-15T12:44:25Z</time>
      </trkpt>
      <trkpt lat="45.8604" lon="6.49656">
        <ele>1067.8</ele>
        <time>2022-06-15T12:44:26Z</time>
      </trkpt>
      <trkpt lat="45.86042" lon="6.49657">
        <ele>1068</ele>
        <time>2022-06-15T12:44:27Z</time>
      </trkpt>
      <trkpt lat="45.86044" lon="6.49658">
        <ele>1068.4</ele>
        <time>2022-06-15T12:44:28Z</time>
      </trkpt>
      <trkpt lat="45.86047" lon="6.49658">
        <ele>1067.7</ele>
        <time>2022-06-15T12:44:29Z</time>
      </trkpt>
      <trkpt lat="45.86049" lon="6.49657">
        <ele>1066.5</ele>
        <time>2022-06-15T12:44:30Z</time>
      </trkpt>
      <trkpt lat="45.86051" lon="6.49656">
        <ele>1066</ele>
        <time>2022-06-15T12:44:31Z</time>
      </trkpt>
      <trkpt lat="45.86053" lon="6.49658">
        <ele>1066.6</ele>
        <time>2022-06-15T12:44:32Z</time>
      </trkpt>
      <trkpt lat="45.86056" lon="6.49657">
        <ele>1065.9</ele>
        <time>2022-06-15T12:44:33Z</time>
      </trkpt>
      <trkpt lat="45.86058" lon="6.49657">
        <ele>1065.8</ele>
        <time>2022-06-15T12:44:34Z</time>
      </trkpt>
      <trkpt lat="45.86061" lon="6.49657">
        <ele>1065.5</ele>
        <time>2022-06-15T12:44:35Z</time>
      </trkpt>
      <trkpt lat="45.86063" lon="6.49655">
        <ele>1064</ele>
        <time>2022-06-15T12:44:36Z</time>
      </trkpt>
      <trkpt lat="45.86065" lon="6.49655">
        <ele>1063.7</ele>
        <time>2022-06-15T12:44:37Z</time>
      </trkpt>
      <trkpt lat="45.86067" lon="6.49654">
        <ele>1063.5</ele>
        <time>2022-06-15T12:44:38Z</time>
      </trkpt>
      <trkpt lat="45.86069" lon="6.49654">
        <ele>1062.9</ele>
        <time>2022-06-15T12:44:39Z</time>
      </trkpt>
      <trkpt lat="45.86071" lon="6.49653">
        <ele>1062.6</ele>
        <time>2022-06-15T12:44:40Z</time>
      </trkpt>
      <trkpt lat="45.86073" lon="6.49654">
        <ele>1062.8</ele>
        <time>2022-06-15T12:44:41Z</time>
      </trkpt>
      <trkpt lat="45.86075" lon="6.49654">
        <ele>1062.7</ele>
        <time>2022-06-15T12:44:42Z</time>
      </trkpt>
      <trkpt lat="45.86076" lon="6.49655">
        <ele>1063.5</ele>
        <time>2022-06-15T12:44:43Z</time>
      </trkpt>
      <trkpt lat="45.86079" lon="6.49657">
        <ele>1064.3</ele>
        <time>2022-06-15T12:44:44Z</time>
      </trkpt>
      <trkpt lat="45.86081" lon="6.49658">
        <ele>1064.8</ele>
        <time>2022-06-15T12:44:45Z</time>
      </trkpt>
      <trkpt lat="45.86085" lon="6.49659">
        <ele>1065.1</ele>
        <time>2022-06-15T12:44:46Z</time>
      </trkpt>
      <trkpt lat="45.86087" lon="6.49661">
        <ele>1065.2</ele>
        <time>2022-06-15T12:44:47Z</time>
      </trkpt>
      <trkpt lat="45.8609" lon="6.49662">
        <ele>1065.5</ele>
        <time>2022-06-15T12:44:48Z</time>
      </trkpt>
      <trkpt lat="45.86092" lon="6.49664">
        <ele>1065.8</ele>
        <time>2022-06-15T12:44:49Z</time>
      </trkpt>
      <trkpt lat="45.86095" lon="6.49667">
        <ele>1066.5</ele>
        <time>2022-06-15T12:44:50Z</time>
      </trkpt>
      <trkpt lat="45.86097" lon="6.4967">
        <ele>1067.3</ele>
        <time>2022-06-15T12:44:51Z</time>
      </trkpt>
      <trkpt lat="45.861" lon="6.49673">
        <ele>1068</ele>
        <time>2022-06-15T12:44:52Z</time>
      </trkpt>
      <trkpt lat="45.86103" lon="6.49675">
        <ele>1068.3</ele>
        <time>2022-06-15T12:44:53Z</time>
      </trkpt>
      <trkpt lat="45.86106" lon="6.49676">
        <ele>1067.9</ele>
        <time>2022-06-15T12:44:54Z</time>
      </trkpt>
      <trkpt lat="45.86109" lon="6.49677">
        <ele>1067.7</ele>
        <time>2022-06-15T12:44:55Z</time>
      </trkpt>
      <trkpt lat="45.86113" lon="6.49678">
        <ele>1067</ele>
        <time>2022-06-15T12:44:56Z</time>
      </trkpt>
      <trkpt lat="45.86117" lon="6.49677">
        <ele>1066.2</ele>
        <time>2022-06-15T12:44:57Z</time>
      </trkpt>
      <trkpt lat="45.86121" lon="6.49675">
        <ele>1065.2</ele>
        <time>2022-06-15T12:44:58Z</time>
      </trkpt>
      <trkpt lat="45.86124" lon="6.49674">
        <ele>1064.3</ele>
        <time>2022-06-15T12:44:59Z</time>
      </trkpt>
      <trkpt lat="45.86127" lon="6.49671">
        <ele>1062.8</ele>
        <time>2022-06-15T12:45:00Z</time>
      </trkpt>
      <trkpt lat="45.86129" lon="6.49667">
        <ele>1061</ele>
        <time>2022-06-15T12:45:01Z</time>
      </trkpt>
      <trkpt lat="45.86131" lon="6.49663">
        <ele>1060.1</ele>
        <time>2022-06-15T12:45:02Z</time>
      </trkpt>
      <trkpt lat="45.86132" lon="6.49658">
        <ele>1059.6</ele>
        <time>2022-06-15T12:45:03Z</time>
      </trkpt>
      <trkpt lat="45.86133" lon="6.49653">
        <ele>1059.2</ele>
        <time>2022-06-15T12:45:04Z</time>
      </trkpt>
      <trkpt lat="45.86134" lon="6.49648">
        <ele>1058.8</ele>
        <time>2022-06-15T12:45:05Z</time>
      </trkpt>
      <trkpt lat="45.86134" lon="6.49642">
        <ele>1058.3</ele>
        <time>2022-06-15T12:45:06Z</time>
      </trkpt>
      <trkpt lat="45.86133" lon="6.49636">
        <ele>1059.4</ele>
        <time>2022-06-15T12:45:07Z</time>
      </trkpt>
      <trkpt lat="45.86132" lon="6.49632">
        <ele>1061.6</ele>
        <time>2022-06-15T12:45:08Z</time>
      </trkpt>
      <trkpt lat="45.86131" lon="6.49628">
        <ele>1063.3</ele>
        <time>2022-06-15T12:45:09Z</time>
      </trkpt>
      <trkpt lat="45.86128" lon="6.49623">
        <ele>1064.9</ele>
        <time>2022-06-15T12:45:10Z</time>
      </trkpt>
      <trkpt lat="45.86126" lon="6.49619">
        <ele>1066.6</ele>
        <time>2022-06-15T12:45:11Z</time>
      </trkpt>
      <trkpt lat="45.86123" lon="6.49615">
        <ele>1067.4</ele>
        <time>2022-06-15T12:45:12Z</time>
      </trkpt>
      <trkpt lat="45.8612" lon="6.49613">
        <ele>1067.9</ele>
        <time>2022-06-15T12:45:13Z</time>
      </trkpt>
      <trkpt lat="45.86118" lon="6.4961">
        <ele>1068.2</ele>
        <time>2022-06-15T12:45:14Z</time>
      </trkpt>
      <trkpt lat="45.86115" lon="6.49607">
        <ele>1068.3</ele>
        <time>2022-06-15T12:45:15Z</time>
      </trkpt>
      <trkpt lat="45.86113" lon="6.49605">
        <ele>1068.4</ele>
        <time>2022-06-15T12:45:16Z</time>
      </trkpt>
      <trkpt lat="45.86111" lon="6.49602">
        <ele>1068.6</ele>
        <time>2022-06-15T12:45:17Z</time>
      </trkpt>
      <trkpt lat="45.86108" lon="6.496">
        <ele>1068.6</ele>
        <time>2022-06-15T12:45:18Z</time>
      </trkpt>
      <trkpt lat="45.86106" lon="6.49597">
        <ele>1068.9</ele>
        <time>2022-06-15T12:45:19Z</time>
      </trkpt>
      <trkpt lat="45.86104" lon="6.49594">
        <ele>1069.2</ele>
        <time>2022-06-15T12:45:20Z</time>
      </trkpt>
      <trkpt lat="45.86102" lon="6.49592">
        <ele>1069.4</ele>
        <time>2022-06-15T12:45:21Z</time>
      </trkpt>
      <trkpt lat="45.861" lon="6.4959">
        <ele>1069.7</ele>
        <time>2022-06-15T12:45:22Z</time>
      </trkpt>
      <trkpt lat="45.86097" lon="6.49588">
        <ele>1069.8</ele>
        <time>2022-06-15T12:45:23Z</time>
      </trkpt>
      <trkpt lat="45.86095" lon="6.49587">
        <ele>1069.9</ele>
        <time>2022-06-15T12:45:24Z</time>
      </trkpt>
      <trkpt lat="45.86093" lon="6.49586">
        <ele>1069.9</ele>
        <time>2022-06-15T12:45:25Z</time>
      </trkpt>
      <trkpt lat="45.8609" lon="6.49584">
        <ele>1070</ele>
        <time>2022-06-15T12:45:26Z</time>
      </trkpt>
      <trkpt lat="45.86087" lon="6.49583">
        <ele>1069.9</ele>
        <time>2022-06-15T12:45:27Z</time>
      </trkpt>
      <trkpt lat="45.86085" lon="6.49582">
        <ele>1069.5</ele>
        <time>2022-06-15T12:45:28Z</time>
      </trkpt>
      <trkpt lat="45.86082" lon="6.49581">
        <ele>1069.1</ele>
        <time>2022-06-15T12:45:29Z</time>
      </trkpt>
      <trkpt lat="45.8608" lon="6.49579">
        <ele>1068.9</ele>
        <time>2022-06-15T12:45:30Z</time>
      </trkpt>
      <trkpt lat="45.86078" lon="6.49577">
        <ele>1068.8</ele>
        <time>2022-06-15T12:45:31Z</time>
      </trkpt>
      <trkpt lat="45.86076" lon="6.49574">
        <ele>1068.8</ele>
        <time>2022-06-15T12:45:32Z</time>
      </trkpt>
      <trkpt lat="45.86075" lon="6.49571">
        <ele>1069</ele>
        <time>2022-06-15T12:45:33Z</time>
      </trkpt>
      <trkpt lat="45.86074" lon="6.49567">
        <ele>1069.3</ele>
        <time>2022-06-15T12:45:34Z</time>
      </trkpt>
      <trkpt lat="45.86075" lon="6.49564">
        <ele>1069.7</ele>
        <time>2022-06-15T12:45:35Z</time>
      </trkpt>
      <trkpt lat="45.86076" lon="6.49561">
        <ele>1070.2</ele>
        <time>2022-06-15T12:45:36Z</time>
      </trkpt>
      <trkpt lat="45.86077" lon="6.49559">
        <ele>1070.7</ele>
        <time>2022-06-15T12:45:37Z</time>
      </trkpt>
      <trkpt lat="45.86079" lon="6.49557">
        <ele>1071.1</ele>
        <time>2022-06-15T12:45:38Z</time>
      </trkpt>
      <trkpt lat="45.86081" lon="6.49556">
        <ele>1071.6</ele>
        <time>2022-06-15T12:45:39Z</time>
      </trkpt>
      <trkpt lat="45.86083" lon="6.49555">
        <ele>1071.9</ele>
        <time>2022-06-15T12:45:40Z</time>
      </trkpt>
      <trkpt lat="45.86085" lon="6.49555">
        <ele>1072</ele>
        <time>2022-06-15T12:45:41Z</time>
      </trkpt>
      <trkpt lat="45.86088" lon="6.49554">
        <ele>1072.1</ele>
        <time>2022-06-15T12:45:42Z</time>
      </trkpt>
      <trkpt lat="45.8609" lon="6.49554">
        <ele>1072.3</ele>
        <time>2022-06-15T12:45:43Z</time>
      </trkpt>
      <trkpt lat="45.86092" lon="6.49554">
        <ele>1072.4</ele>
        <time>2022-06-15T12:45:44Z</time>
      </trkpt>
      <trkpt lat="45.86094" lon="6.49554">
        <ele>1072.6</ele>
        <time>2022-06-15T12:45:45Z</time>
      </trkpt>
      <trkpt lat="45.86096" lon="6.49554">
        <ele>1072.8</ele>
        <time>2022-06-15T12:45:46Z</time>
      </trkpt>
      <trkpt lat="45.86098" lon="6.49554">
        <ele>1072.9</ele>
        <time>2022-06-15T12:45:47Z</time>
      </trkpt>
      <trkpt lat="45.861" lon="6.49554">
        <ele>1073.1</ele>
        <time>2022-06-15T12:45:48Z</time>
      </trkpt>
      <trkpt lat="45.86102" lon="6.49555">
        <ele>1073.3</ele>
        <time>2022-06-15T12:45:49Z</time>
      </trkpt>
      <trkpt lat="45.86104" lon="6.49555">
        <ele>1073.5</ele>
        <time>2022-06-15T12:45:50Z</time>
      </trkpt>
      <trkpt lat="45.86106" lon="6.49556">
        <ele>1073.7</ele>
        <time>2022-06-15T12:45:51Z</time>
      </trkpt>
      <trkpt lat="45.86109" lon="6.49557">
        <ele>1073.8</ele>
        <time>2022-06-15T12:45:52Z</time>
      </trkpt>
      <trkpt lat="45.86111" lon="6.49557">
        <ele>1074</ele>
        <time>2022-06-15T12:45:53Z</time>
      </trkpt>
      <trkpt lat="45.86113" lon="6.49557">
        <ele>1074.2</ele>
        <time>2022-06-15T12:45:54Z</time>
      </trkpt>
      <trkpt lat="45.86115" lon="6.49557">
        <ele>1074.5</ele>
        <time>2022-06-15T12:45:55Z</time>
      </trkpt>
      <trkpt lat="45.86117" lon="6.49557">
        <ele>1074.7</ele>
        <time>2022-06-15T12:45:56Z</time>
      </trkpt>
      <trkpt lat="45.86119" lon="6.49556">
        <ele>1074.9</ele>
        <time>2022-06-15T12:45:57Z</time>
      </trkpt>
      <trkpt lat="45.86121" lon="6.49556">
        <ele>1075</ele>
        <time>2022-06-15T12:45:58Z</time>
      </trkpt>
      <trkpt lat="45.86123" lon="6.49556">
        <ele>1075.3</ele>
        <time>2022-06-15T12:45:59Z</time>
      </trkpt>
      <trkpt lat="45.86126" lon="6.49556">
        <ele>1075.6</ele>
        <time>2022-06-15T12:46:00Z</time>
      </trkpt>
      <trkpt lat="45.86128" lon="6.49556">
        <ele>1075.8</ele>
        <time>2022-06-15T12:46:01Z</time>
      </trkpt>
      <trkpt lat="45.8613" lon="6.49556">
        <ele>1076</ele>
        <time>2022-06-15T12:46:02Z</time>
      </trkpt>
      <trkpt lat="45.86132" lon="6.49556">
        <ele>1076.3</ele>
        <time>2022-06-15T12:46:03Z</time>
      </trkpt>
      <trkpt lat="45.86135" lon="6.49556">
        <ele>1076.5</ele>
        <time>2022-06-15T12:46:04Z</time>
      </trkpt>
      <trkpt lat="45.86137" lon="6.49555">
        <ele>1076.8</ele>
        <time>2022-06-15T12:46:05Z</time>
      </trkpt>
      <trkpt lat="45.86139" lon="6.49555">
        <ele>1077</ele>
        <time>2022-06-15T12:46:06Z</time>
      </trkpt>
      <trkpt lat="45.86142" lon="6.49555">
        <ele>1077.2</ele>
        <time>2022-06-15T12:46:07Z</time>
      </trkpt>
      <trkpt lat="45.86144" lon="6.49555">
        <ele>1077.3</ele>
        <time>2022-06-15T12:46:08Z</time>
      </trkpt>
      <trkpt lat="45.86146" lon="6.49555">
        <ele>1077.5</ele>
        <time>2022-06-15T12:46:09Z</time>
      </trkpt>
      <trkpt lat="45.86148" lon="6.49554">
        <ele>1077.6</ele>
        <time>2022-06-15T12:46:10Z</time>
      </trkpt>
      <trkpt lat="45.8615" lon="6.49554">
        <ele>1077.8</ele>
        <time>2022-06-15T12:46:11Z</time>
      </trkpt>
      <trkpt lat="45.86153" lon="6.49553">
        <ele>1077.9</ele>
        <time>2022-06-15T12:46:12Z</time>
      </trkpt>
      <trkpt lat="45.86155" lon="6.49552">
        <ele>1078.1</ele>
        <time>2022-06-15T12:46:13Z</time>
      </trkpt>
      <trkpt lat="45.86157" lon="6.49551">
        <ele>1078.2</ele>
        <time>2022-06-15T12:46:14Z</time>
      </trkpt>
      <trkpt lat="45.86159" lon="6.49549">
        <ele>1078.4</ele>
        <time>2022-06-15T12:46:15Z</time>
      </trkpt>
      <trkpt lat="45.86161" lon="6.49548">
        <ele>1078.5</ele>
        <time>2022-06-15T12:46:16Z</time>
      </trkpt>
      <trkpt lat="45.86163" lon="6.49546">
        <ele>1078.6</ele>
        <time>2022-06-15T12:46:17Z</time>
      </trkpt>
      <trkpt lat="45.86164" lon="6.49545">
        <ele>1078.8</ele>
        <time>2022-06-15T12:46:18Z</time>
      </trkpt>
      <trkpt lat="45.86166" lon="6.49543">
        <ele>1078.9</ele>
        <time>2022-06-15T12:46:19Z</time>
      </trkpt>
      <trkpt lat="45.86168" lon="6.49541">
        <ele>1079.2</ele>
        <time>2022-06-15T12:46:20Z</time>
      </trkpt>
      <trkpt lat="45.8617" lon="6.49539">
        <ele>1079.4</ele>
        <time>2022-06-15T12:46:21Z</time>
      </trkpt>
      <trkpt lat="45.86171" lon="6.49537">
        <ele>1079.7</ele>
        <time>2022-06-15T12:46:22Z</time>
      </trkpt>
      <trkpt lat="45.86173" lon="6.49534">
        <ele>1079.9</ele>
        <time>2022-06-15T12:46:23Z</time>
      </trkpt>
      <trkpt lat="45.86175" lon="6.49532">
        <ele>1080.1</ele>
        <time>2022-06-15T12:46:24Z</time>
      </trkpt>
      <trkpt lat="45.86176" lon="6.4953">
        <ele>1080.4</ele>
        <time>2022-06-15T12:46:25Z</time>
      </trkpt>
      <trkpt lat="45.86178" lon="6.49528">
        <ele>1080.6</ele>
        <time>2022-06-15T12:46:26Z</time>
      </trkpt>
      <trkpt lat="45.86179" lon="6.49526">
        <ele>1080.9</ele>
        <time>2022-06-15T12:46:27Z</time>
      </trkpt>
      <trkpt lat="45.86181" lon="6.49523">
        <ele>1081.1</ele>
        <time>2022-06-15T12:46:28Z</time>
      </trkpt>
      <trkpt lat="45.86183" lon="6.49521">
        <ele>1081.4</ele>
        <time>2022-06-15T12:46:29Z</time>
      </trkpt>
      <trkpt lat="45.86184" lon="6.49519">
        <ele>1081.6</ele>
        <time>2022-06-15T12:46:30Z</time>
      </trkpt>
      <trkpt lat="45.86185" lon="6.49517">
        <ele>1081.8</ele>
        <time>2022-06-15T12:46:31Z</time>
      </trkpt>
      <trkpt lat="45.86186" lon="6.49514">
        <ele>1081.9</ele>
        <time>2022-06-15T12:46:32Z</time>
      </trkpt>
      <trkpt lat="45.86187" lon="6.49511">
        <ele>1082.1</ele>
        <time>2022-06-15T12:46:33Z</time>
      </trkpt>
      <trkpt lat="45.86188" lon="6.49508">
        <ele>1082.2</ele>
        <time>2022-06-15T12:46:34Z</time>
      </trkpt>
      <trkpt lat="45.86189" lon="6.49506">
        <ele>1082.4</ele>
        <time>2022-06-15T12:46:35Z</time>
      </trkpt>
      <trkpt lat="45.86189" lon="6.49503">
        <ele>1082.4</ele>
        <time>2022-06-15T12:46:36Z</time>
      </trkpt>
      <trkpt lat="45.86189" lon="6.495">
        <ele>1082.4</ele>
        <time>2022-06-15T12:46:37Z</time>
      </trkpt>
      <trkpt lat="45.86188" lon="6.49497">
        <ele>1082.3</ele>
        <time>2022-06-15T12:46:38Z</time>
      </trkpt>
      <trkpt lat="45.86188" lon="6.49495">
        <ele>1082.2</ele>
        <time>2022-06-15T12:46:39Z</time>
      </trkpt>
      <trkpt lat="45.86186" lon="6.49493">
        <ele>1082</ele>
        <time>2022-06-15T12:46:40Z</time>
      </trkpt>
      <trkpt lat="45.86185" lon="6.49491">
        <ele>1081.8</ele>
        <time>2022-06-15T12:46:41Z</time>
      </trkpt>
      <trkpt lat="45.86183" lon="6.49487">
        <ele>1081.5</ele>
        <time>2022-06-15T12:46:42Z</time>
      </trkpt>
      <trkpt lat="45.86181" lon="6.49483">
        <ele>1081.3</ele>
        <time>2022-06-15T12:46:43Z</time>
      </trkpt>
      <trkpt lat="45.86181" lon="6.49479">
        <ele>1081.1</ele>
        <time>2022-06-15T12:46:44Z</time>
      </trkpt>
      <trkpt lat="45.86181" lon="6.49476">
        <ele>1081.1</ele>
        <time>2022-06-15T12:46:45Z</time>
      </trkpt>
      <trkpt lat="45.86181" lon="6.49474">
        <ele>1081.1</ele>
        <time>2022-06-15T12:46:46Z</time>
      </trkpt>
      <trkpt lat="45.86181" lon="6.49473">
        <ele>1081.1</ele>
        <time>2022-06-15T12:46:47Z</time>
      </trkpt>
      <trkpt lat="45.86181" lon="6.49473">
        <ele>1081.1</ele>
        <time>2022-06-15T12:46:48Z</time>
      </trkpt>
      <trkpt lat="45.86181" lon="6.49473">
        <ele>1081</ele>
        <time>2022-06-15T12:46:49Z</time>
      </trkpt>
      <trkpt lat="45.86181" lon="6.49473">
        <ele>1081</ele>
        <time>2022-06-15T12:46:50Z</time>
      </trkpt>
      <trkpt lat="45.86181" lon="6.49473">
        <ele>1081</ele>
        <time>2022-06-15T12:46:51Z</time>
      </trkpt>
      <trkpt lat="45.86181" lon="6.49473">
        <ele>1081</ele>
        <time>2022-06-15T12:46:52Z</time>
      </trkpt>
      <trkpt lat="45.86181" lon="6.49481">
        <ele>1081.2</ele>
        <time>2022-06-15T12:50:39Z</time>
      </trkpt>
      <trkpt lat="45.86182" lon="6.49485">
        <ele>1081.4</ele>
        <time>2022-06-15T12:50:40Z</time>
      </trkpt>
      <trkpt lat="45.86183" lon="6.49487">
        <ele>1081.6</ele>
        <time>2022-06-15T12:50:41Z</time>
      </trkpt>
      <trkpt lat="45.86185" lon="6.49488">
        <ele>1081.8</ele>
        <time>2022-06-15T12:50:42Z</time>
      </trkpt>
      <trkpt lat="45.86187" lon="6.4949">
        <ele>1082</ele>
        <time>2022-06-15T12:50:43Z</time>
      </trkpt>
      <trkpt lat="45.86188" lon="6.49492">
        <ele>1082.2</ele>
        <time>2022-06-15T12:50:44Z</time>
      </trkpt>
      <trkpt lat="45.86189" lon="6.49493">
        <ele>1082.3</ele>
        <time>2022-06-15T12:50:45Z</time>
      </trkpt>
      <trkpt lat="45.8619" lon="6.49494">
        <ele>1082.5</ele>
        <time>2022-06-15T12:50:46Z</time>
      </trkpt>
      <trkpt lat="45.86192" lon="6.49494">
        <ele>1082.7</ele>
        <time>2022-06-15T12:50:47Z</time>
      </trkpt>
      <trkpt lat="45.86194" lon="6.49493">
        <ele>1082.9</ele>
        <time>2022-06-15T12:50:48Z</time>
      </trkpt>
      <trkpt lat="45.86196" lon="6.49491">
        <ele>1083.2</ele>
        <time>2022-06-15T12:50:49Z</time>
      </trkpt>
      <trkpt lat="45.86197" lon="6.49488">
        <ele>1083.3</ele>
        <time>2022-06-15T12:50:50Z</time>
      </trkpt>
      <trkpt lat="45.86198" lon="6.49486">
        <ele>1083.4</ele>
        <time>2022-06-15T12:50:51Z</time>
      </trkpt>
      <trkpt lat="45.86198" lon="6.49483">
        <ele>1083.4</ele>
        <time>2022-06-15T12:50:52Z</time>
      </trkpt>
      <trkpt lat="45.86198" lon="6.4948">
        <ele>1083.4</ele>
        <time>2022-06-15T12:50:53Z</time>
      </trkpt>
      <trkpt lat="45.86199" lon="6.49477">
        <ele>1083.4</ele>
        <time>2022-06-15T12:50:54Z</time>
      </trkpt>
      <trkpt lat="45.862" lon="6.49475">
        <ele>1083.4</ele>
        <time>2022-06-15T12:50:55Z</time>
      </trkpt>
      <trkpt lat="45.86201" lon="6.49473">
        <ele>1083.5</ele>
        <time>2022-06-15T12:50:56Z</time>
      </trkpt>
      <trkpt lat="45.86202" lon="6.4947">
        <ele>1083.5</ele>
        <time>2022-06-15T12:50:57Z</time>
      </trkpt>
      <trkpt lat="45.86204" lon="6.49468">
        <ele>1083.6</ele>
        <time>2022-06-15T12:50:58Z</time>
      </trkpt>
      <trkpt lat="45.86205" lon="6.49467">
        <ele>1083.7</ele>
        <time>2022-06-15T12:50:59Z</time>
      </trkpt>
      <trkpt lat="45.86206" lon="6.49465">
        <ele>1083.8</ele>
        <time>2022-06-15T12:51:00Z</time>
      </trkpt>
      <trkpt lat="45.86207" lon="6.49463">
        <ele>1083.9</ele>
        <time>2022-06-15T12:51:01Z</time>
      </trkpt>
      <trkpt lat="45.86208" lon="6.49461">
        <ele>1084</ele>
        <time>2022-06-15T12:51:02Z</time>
      </trkpt>
      <trkpt lat="45.86209" lon="6.49459">
        <ele>1084.1</ele>
        <time>2022-06-15T12:51:03Z</time>
      </trkpt>
      <trkpt lat="45.8621" lon="6.49457">
        <ele>1084.2</ele>
        <time>2022-06-15T12:51:04Z</time>
      </trkpt>
      <trkpt lat="45.86211" lon="6.49454">
        <ele>1084.3</ele>
        <time>2022-06-15T12:51:05Z</time>
      </trkpt>
      <trkpt lat="45.86212" lon="6.49452">
        <ele>1084.5</ele>
        <time>2022-06-15T12:51:06Z</time>
      </trkpt>
      <trkpt lat="45.86213" lon="6.4945">
        <ele>1084.6</ele>
        <time>2022-06-15T12:51:07Z</time>
      </trkpt>
      <trkpt lat="45.86214" lon="6.49448">
        <ele>1084.8</ele>
        <time>2022-06-15T12:51:08Z</time>
      </trkpt>
      <trkpt lat="45.86216" lon="6.49446">
        <ele>1085</ele>
        <time>2022-06-15T12:51:09Z</time>
      </trkpt>
      <trkpt lat="45.86217" lon="6.49445">
        <ele>1085.2</ele>
        <time>2022-06-15T12:51:10Z</time>
      </trkpt>
      <trkpt lat="45.86219" lon="6.49443">
        <ele>1085.7</ele>
        <time>2022-06-15T12:51:11Z</time>
      </trkpt>
      <trkpt lat="45.8622" lon="6.49441">
        <ele>1086.1</ele>
        <time>2022-06-15T12:51:12Z</time>
      </trkpt>
      <trkpt lat="45.86222" lon="6.4944">
        <ele>1086.6</ele>
        <time>2022-06-15T12:51:13Z</time>
      </trkpt>
      <trkpt lat="45.86224" lon="6.49439">
        <ele>1087.3</ele>
        <time>2022-06-15T12:51:14Z</time>
      </trkpt>
      <trkpt lat="45.86226" lon="6.49439">
        <ele>1088</ele>
        <time>2022-06-15T12:51:15Z</time>
      </trkpt>
      <trkpt lat="45.86228" lon="6.49439">
        <ele>1088.6</ele>
        <time>2022-06-15T12:51:16Z</time>
      </trkpt>
      <trkpt lat="45.8623" lon="6.49439">
        <ele>1089.1</ele>
        <time>2022-06-15T12:51:17Z</time>
      </trkpt>
      <trkpt lat="45.86232" lon="6.49439">
        <ele>1089.5</ele>
        <time>2022-06-15T12:51:18Z</time>
      </trkpt>
      <trkpt lat="45.86234" lon="6.4944">
        <ele>1089.9</ele>
        <time>2022-06-15T12:51:19Z</time>
      </trkpt>
      <trkpt lat="45.86236" lon="6.49441">
        <ele>1090.1</ele>
        <time>2022-06-15T12:51:20Z</time>
      </trkpt>
      <trkpt lat="45.86238" lon="6.49442">
        <ele>1090.4</ele>
        <time>2022-06-15T12:51:21Z</time>
      </trkpt>
      <trkpt lat="45.8624" lon="6.49443">
        <ele>1090.6</ele>
        <time>2022-06-15T12:51:22Z</time>
      </trkpt>
      <trkpt lat="45.86241" lon="6.49445">
        <ele>1090.7</ele>
        <time>2022-06-15T12:51:23Z</time>
      </trkpt>
      <trkpt lat="45.86243" lon="6.49447">
        <ele>1091</ele>
        <time>2022-06-15T12:51:24Z</time>
      </trkpt>
      <trkpt lat="45.86245" lon="6.49449">
        <ele>1091.2</ele>
        <time>2022-06-15T12:51:25Z</time>
      </trkpt>
      <trkpt lat="45.86246" lon="6.49451">
        <ele>1091.4</ele>
        <time>2022-06-15T12:51:26Z</time>
      </trkpt>
      <trkpt lat="45.86248" lon="6.49453">
        <ele>1091.6</ele>
        <time>2022-06-15T12:51:27Z</time>
      </trkpt>
      <trkpt lat="45.8625" lon="6.49456">
        <ele>1091.7</ele>
        <time>2022-06-15T12:51:28Z</time>
      </trkpt>
      <trkpt lat="45.86251" lon="6.49458">
        <ele>1091.8</ele>
        <time>2022-06-15T12:51:29Z</time>
      </trkpt>
      <trkpt lat="45.86253" lon="6.49461">
        <ele>1091.9</ele>
        <time>2022-06-15T12:51:30Z</time>
      </trkpt>
      <trkpt lat="45.86254" lon="6.49463">
        <ele>1092</ele>
        <time>2022-06-15T12:51:31Z</time>
      </trkpt>
      <trkpt lat="45.86256" lon="6.49466">
        <ele>1092.1</ele>
        <time>2022-06-15T12:51:32Z</time>
      </trkpt>
      <trkpt lat="45.86257" lon="6.49469">
        <ele>1092.1</ele>
        <time>2022-06-15T12:51:33Z</time>
      </trkpt>
      <trkpt lat="45.86258" lon="6.49472">
        <ele>1092</ele>
        <time>2022-06-15T12:51:34Z</time>
      </trkpt>
      <trkpt lat="45.86259" lon="6.49475">
        <ele>1092.2</ele>
        <time>2022-06-15T12:51:35Z</time>
      </trkpt>
      <trkpt lat="45.86259" lon="6.49478">
        <ele>1092.3</ele>
        <time>2022-06-15T12:51:36Z</time>
      </trkpt>
      <trkpt lat="45.8626" lon="6.4948">
        <ele>1092.4</ele>
        <time>2022-06-15T12:51:37Z</time>
      </trkpt>
      <trkpt lat="45.8626" lon="6.49483">
        <ele>1092.5</ele>
        <time>2022-06-15T12:51:38Z</time>
      </trkpt>
      <trkpt lat="45.8626" lon="6.49486">
        <ele>1092.5</ele>
        <time>2022-06-15T12:51:39Z</time>
      </trkpt>
      <trkpt lat="45.86261" lon="6.49489">
        <ele>1092.6</ele>
        <time>2022-06-15T12:51:40Z</time>
      </trkpt>
      <trkpt lat="45.86261" lon="6.49492">
        <ele>1092.6</ele>
        <time>2022-06-15T12:51:41Z</time>
      </trkpt>
      <trkpt lat="45.86261" lon="6.49495">
        <ele>1092.5</ele>
        <time>2022-06-15T12:51:42Z</time>
      </trkpt>
      <trkpt lat="45.86261" lon="6.49498">
        <ele>1092.5</ele>
        <time>2022-06-15T12:51:43Z</time>
      </trkpt>
      <trkpt lat="45.86261" lon="6.49501">
        <ele>1092.6</ele>
        <time>2022-06-15T12:51:44Z</time>
      </trkpt>
      <trkpt lat="45.86261" lon="6.49505">
        <ele>1092.6</ele>
        <time>2022-06-15T12:51:45Z</time>
      </trkpt>
      <trkpt lat="45.86261" lon="6.49508">
        <ele>1092.7</ele>
        <time>2022-06-15T12:51:46Z</time>
      </trkpt>
      <trkpt lat="45.86261" lon="6.49511">
        <ele>1092.7</ele>
        <time>2022-06-15T12:51:47Z</time>
      </trkpt>
      <trkpt lat="45.86261" lon="6.49514">
        <ele>1092.9</ele>
        <time>2022-06-15T12:51:48Z</time>
      </trkpt>
      <trkpt lat="45.86261" lon="6.49516">
        <ele>1093</ele>
        <time>2022-06-15T12:51:49Z</time>
      </trkpt>
      <trkpt lat="45.86262" lon="6.49519">
        <ele>1093.1</ele>
        <time>2022-06-15T12:51:50Z</time>
      </trkpt>
      <trkpt lat="45.86262" lon="6.49522">
        <ele>1093.2</ele>
        <time>2022-06-15T12:51:51Z</time>
      </trkpt>
      <trkpt lat="45.86262" lon="6.49525">
        <ele>1093.2</ele>
        <time>2022-06-15T12:51:52Z</time>
      </trkpt>
      <trkpt lat="45.86262" lon="6.49529">
        <ele>1093.3</ele>
        <time>2022-06-15T12:51:53Z</time>
      </trkpt>
      <trkpt lat="45.86262" lon="6.49532">
        <ele>1093.3</ele>
        <time>2022-06-15T12:51:54Z</time>
      </trkpt>
      <trkpt lat="45.86263" lon="6.49535">
        <ele>1093.4</ele>
        <time>2022-06-15T12:51:55Z</time>
      </trkpt>
      <trkpt lat="45.86263" lon="6.49539">
        <ele>1093.4</ele>
        <time>2022-06-15T12:51:56Z</time>
      </trkpt>
      <trkpt lat="45.86263" lon="6.49542">
        <ele>1093.4</ele>
        <time>2022-06-15T12:51:57Z</time>
      </trkpt>
      <trkpt lat="45.86263" lon="6.49545">
        <ele>1093.4</ele>
        <time>2022-06-15T12:51:58Z</time>
      </trkpt>
      <trkpt lat="45.86263" lon="6.49548">
        <ele>1093.4</ele>
        <time>2022-06-15T12:51:59Z</time>
      </trkpt>
      <trkpt lat="45.86264" lon="6.49552">
        <ele>1093.5</ele>
        <time>2022-06-15T12:52:00Z</time>
      </trkpt>
      <trkpt lat="45.86264" lon="6.49555">
        <ele>1093.5</ele>
        <time>2022-06-15T12:52:01Z</time>
      </trkpt>
      <trkpt lat="45.86264" lon="6.49558">
        <ele>1093.8</ele>
        <time>2022-06-15T12:52:02Z</time>
      </trkpt>
      <trkpt lat="45.86264" lon="6.49562">
        <ele>1094.2</ele>
        <time>2022-06-15T12:52:03Z</time>
      </trkpt>
      <trkpt lat="45.86264" lon="6.49565">
        <ele>1094.6</ele>
        <time>2022-06-15T12:52:04Z</time>
      </trkpt>
      <trkpt lat="45.86263" lon="6.49568">
        <ele>1094.9</ele>
        <time>2022-06-15T12:52:05Z</time>
      </trkpt>
      <trkpt lat="45.86263" lon="6.49571">
        <ele>1095.3</ele>
        <time>2022-06-15T12:52:06Z</time>
      </trkpt>
      <trkpt lat="45.86262" lon="6.49574">
        <ele>1095.6</ele>
        <time>2022-06-15T12:52:07Z</time>
      </trkpt>
      <trkpt lat="45.86262" lon="6.49577">
        <ele>1095.9</ele>
        <time>2022-06-15T12:52:08Z</time>
      </trkpt>
      <trkpt lat="45.86262" lon="6.4958">
        <ele>1096.3</ele>
        <time>2022-06-15T12:52:09Z</time>
      </trkpt>
      <trkpt lat="45.86262" lon="6.49584">
        <ele>1096.7</ele>
        <time>2022-06-15T12:52:10Z</time>
      </trkpt>
      <trkpt lat="45.86262" lon="6.49587">
        <ele>1097.1</ele>
        <time>2022-06-15T12:52:11Z</time>
      </trkpt>
      <trkpt lat="45.86263" lon="6.4959">
        <ele>1097.4</ele>
        <time>2022-06-15T12:52:12Z</time>
      </trkpt>
      <trkpt lat="45.86263" lon="6.49593">
        <ele>1097.7</ele>
        <time>2022-06-15T12:52:13Z</time>
      </trkpt>
      <trkpt lat="45.86263" lon="6.49596">
        <ele>1098</ele>
        <time>2022-06-15T12:52:14Z</time>
      </trkpt>
      <trkpt lat="45.86263" lon="6.496">
        <ele>1098.4</ele>
        <time>2022-06-15T12:52:15Z</time>
      </trkpt>
      <trkpt lat="45.86264" lon="6.49603">
        <ele>1098.7</ele>
        <time>2022-06-15T12:52:16Z</time>
      </trkpt>
      <trkpt lat="45.86264" lon="6.49606">
        <ele>1099.1</ele>
        <time>2022-06-15T12:52:17Z</time>
      </trkpt>
      <trkpt lat="45.86265" lon="6.49609">
        <ele>1099.4</ele>
        <time>2022-06-15T12:52:18Z</time>
      </trkpt>
      <trkpt lat="45.86265" lon="6.49612">
        <ele>1099.5</ele>
        <time>2022-06-15T12:52:19Z</time>
      </trkpt>
      <trkpt lat="45.86266" lon="6.49615">
        <ele>1099</ele>
        <time>2022-06-15T12:52:20Z</time>
      </trkpt>
      <trkpt lat="45.86267" lon="6.49618">
        <ele>1098.5</ele>
        <time>2022-06-15T12:52:21Z</time>
      </trkpt>
      <trkpt lat="45.86268" lon="6.49621">
        <ele>1098.2</ele>
        <time>2022-06-15T12:52:22Z</time>
      </trkpt>
      <trkpt lat="45.86269" lon="6.49623">
        <ele>1098</ele>
        <time>2022-06-15T12:52:23Z</time>
      </trkpt>
      <trkpt lat="45.8627" lon="6.49626">
        <ele>1097.8</ele>
        <time>2022-06-15T12:52:24Z</time>
      </trkpt>
      <trkpt lat="45.86271" lon="6.49628">
        <ele>1097.8</ele>
        <time>2022-06-15T12:52:25Z</time>
      </trkpt>
      <trkpt lat="45.86272" lon="6.49631">
        <ele>1097.9</ele>
        <time>2022-06-15T12:52:26Z</time>
      </trkpt>
      <trkpt lat="45.86274" lon="6.49633">
        <ele>1098.1</ele>
        <time>2022-06-15T12:52:27Z</time>
      </trkpt>
      <trkpt lat="45.86275" lon="6.49634">
        <ele>1098.6</ele>
        <time>2022-06-15T12:52:28Z</time>
      </trkpt>
      <trkpt lat="45.86278" lon="6.49635">
        <ele>1099.3</ele>
        <time>2022-06-15T12:52:29Z</time>
      </trkpt>
      <trkpt lat="45.8628" lon="6.49635">
        <ele>1099.7</ele>
        <time>2022-06-15T12:52:30Z</time>
      </trkpt>
      <trkpt lat="45.86282" lon="6.49635">
        <ele>1100.1</ele>
        <time>2022-06-15T12:52:31Z</time>
      </trkpt>
      <trkpt lat="45.86284" lon="6.49635">
        <ele>1100.4</ele>
        <time>2022-06-15T12:52:32Z</time>
      </trkpt>
      <trkpt lat="45.86286" lon="6.49634">
        <ele>1100.8</ele>
        <time>2022-06-15T12:52:33Z</time>
      </trkpt>
      <trkpt lat="45.86288" lon="6.49633">
        <ele>1101.2</ele>
        <time>2022-06-15T12:52:34Z</time>
      </trkpt>
      <trkpt lat="45.8629" lon="6.49632">
        <ele>1101.5</ele>
        <time>2022-06-15T12:52:35Z</time>
      </trkpt>
      <trkpt lat="45.86292" lon="6.4963">
        <ele>1101.9</ele>
        <time>2022-06-15T12:52:36Z</time>
      </trkpt>
      <trkpt lat="45.86294" lon="6.49627">
        <ele>1102.1</ele>
        <time>2022-06-15T12:52:37Z</time>
      </trkpt>
      <trkpt lat="45.86295" lon="6.49625">
        <ele>1102.4</ele>
        <time>2022-06-15T12:52:38Z</time>
      </trkpt>
      <trkpt lat="45.86297" lon="6.49623">
        <ele>1102.6</ele>
        <time>2022-06-15T12:52:39Z</time>
      </trkpt>
      <trkpt lat="45.86298" lon="6.4962">
        <ele>1102.7</ele>
        <time>2022-06-15T12:52:40Z</time>
      </trkpt>
      <trkpt lat="45.86299" lon="6.49617">
        <ele>1102.8</ele>
        <time>2022-06-15T12:52:41Z</time>
      </trkpt>
      <trkpt lat="45.86301" lon="6.49615">
        <ele>1102.9</ele>
        <time>2022-06-15T12:52:42Z</time>
      </trkpt>
      <trkpt lat="45.86302" lon="6.49612">
        <ele>1102.9</ele>
        <time>2022-06-15T12:52:43Z</time>
      </trkpt>
      <trkpt lat="45.86303" lon="6.49609">
        <ele>1102.9</ele>
        <time>2022-06-15T12:52:44Z</time>
      </trkpt>
      <trkpt lat="45.86304" lon="6.49607">
        <ele>1102.9</ele>
        <time>2022-06-15T12:52:45Z</time>
      </trkpt>
      <trkpt lat="45.86306" lon="6.49604">
        <ele>1103</ele>
        <time>2022-06-15T12:52:46Z</time>
      </trkpt>
      <trkpt lat="45.86307" lon="6.49601">
        <ele>1103.3</ele>
        <time>2022-06-15T12:52:47Z</time>
      </trkpt>
      <trkpt lat="45.86308" lon="6.49598">
        <ele>1103.6</ele>
        <time>2022-06-15T12:52:48Z</time>
      </trkpt>
      <trkpt lat="45.86309" lon="6.49595">
        <ele>1103.8</ele>
        <time>2022-06-15T12:52:49Z</time>
      </trkpt>
      <trkpt lat="45.8631" lon="6.49593">
        <ele>1104.1</ele>
        <time>2022-06-15T12:52:50Z</time>
      </trkpt>
      <trkpt lat="45.86311" lon="6.4959">
        <ele>1104.4</ele>
        <time>2022-06-15T12:52:51Z</time>
      </trkpt>
      <trkpt lat="45.86312" lon="6.49587">
        <ele>1104.7</ele>
        <time>2022-06-15T12:52:52Z</time>
      </trkpt>
      <trkpt lat="45.86313" lon="6.49585">
        <ele>1105</ele>
        <time>2022-06-15T12:52:53Z</time>
      </trkpt>
      <trkpt lat="45.86315" lon="6.49582">
        <ele>1105.3</ele>
        <time>2022-06-15T12:52:54Z</time>
      </trkpt>
      <trkpt lat="45.86316" lon="6.49579">
        <ele>1105.7</ele>
        <time>2022-06-15T12:52:55Z</time>
      </trkpt>
      <trkpt lat="45.86317" lon="6.49577">
        <ele>1106</ele>
        <time>2022-06-15T12:52:56Z</time>
      </trkpt>
      <trkpt lat="45.86318" lon="6.49574">
        <ele>1106.3</ele>
        <time>2022-06-15T12:52:57Z</time>
      </trkpt>
      <trkpt lat="45.8632" lon="6.49571">
        <ele>1106.8</ele>
        <time>2022-06-15T12:52:58Z</time>
      </trkpt>
      <trkpt lat="45.86321" lon="6.49569">
        <ele>1107.2</ele>
        <time>2022-06-15T12:52:59Z</time>
      </trkpt>
      <trkpt lat="45.86322" lon="6.49567">
        <ele>1107.5</ele>
        <time>2022-06-15T12:53:00Z</time>
      </trkpt>
      <trkpt lat="45.86323" lon="6.49564">
        <ele>1107.9</ele>
        <time>2022-06-15T12:53:01Z</time>
      </trkpt>
      <trkpt lat="45.86324" lon="6.49561">
        <ele>1108.4</ele>
        <time>2022-06-15T12:53:02Z</time>
      </trkpt>
      <trkpt lat="45.86325" lon="6.49558">
        <ele>1108.8</ele>
        <time>2022-06-15T12:53:03Z</time>
      </trkpt>
      <trkpt lat="45.86325" lon="6.49555">
        <ele>1109.1</ele>
        <time>2022-06-15T12:53:04Z</time>
      </trkpt>
      <trkpt lat="45.86325" lon="6.49552">
        <ele>1109.5</ele>
        <time>2022-06-15T12:53:05Z</time>
      </trkpt>
      <trkpt lat="45.86325" lon="6.49549">
        <ele>1109.9</ele>
        <time>2022-06-15T12:53:06Z</time>
      </trkpt>
      <trkpt lat="45.86325" lon="6.49546">
        <ele>1110.4</ele>
        <time>2022-06-15T12:53:07Z</time>
      </trkpt>
      <trkpt lat="45.86325" lon="6.49543">
        <ele>1110.7</ele>
        <time>2022-06-15T12:53:08Z</time>
      </trkpt>
      <trkpt lat="45.86324" lon="6.4954">
        <ele>1111</ele>
        <time>2022-06-15T12:53:09Z</time>
      </trkpt>
      <trkpt lat="45.86324" lon="6.49537">
        <ele>1111.2</ele>
        <time>2022-06-15T12:53:10Z</time>
      </trkpt>
      <trkpt lat="45.86323" lon="6.49534">
        <ele>1111.3</ele>
        <time>2022-06-15T12:53:11Z</time>
      </trkpt>
      <trkpt lat="45.86322" lon="6.49531">
        <ele>1111.3</ele>
        <time>2022-06-15T12:53:12Z</time>
      </trkpt>
      <trkpt lat="45.86322" lon="6.49528">
        <ele>1111.2</ele>
        <time>2022-06-15T12:53:13Z</time>
      </trkpt>
      <trkpt lat="45.86321" lon="6.49525">
        <ele>1111.3</ele>
        <time>2022-06-15T12:53:14Z</time>
      </trkpt>
      <trkpt lat="45.86321" lon="6.49522">
        <ele>1111.5</ele>
        <time>2022-06-15T12:53:15Z</time>
      </trkpt>
      <trkpt lat="45.8632" lon="6.49518">
        <ele>1111.7</ele>
        <time>2022-06-15T12:53:16Z</time>
      </trkpt>
      <trkpt lat="45.8632" lon="6.49515">
        <ele>1111.9</ele>
        <time>2022-06-15T12:53:17Z</time>
      </trkpt>
      <trkpt lat="45.86319" lon="6.49512">
        <ele>1112</ele>
        <time>2022-06-15T12:53:18Z</time>
      </trkpt>
      <trkpt lat="45.86318" lon="6.49509">
        <ele>1112.1</ele>
        <time>2022-06-15T12:53:19Z</time>
      </trkpt>
      <trkpt lat="45.86318" lon="6.49506">
        <ele>1112.4</ele>
        <time>2022-06-15T12:53:20Z</time>
      </trkpt>
      <trkpt lat="45.86318" lon="6.49503">
        <ele>1112.6</ele>
        <time>2022-06-15T12:53:21Z</time>
      </trkpt>
      <trkpt lat="45.86317" lon="6.495">
        <ele>1112.8</ele>
        <time>2022-06-15T12:53:22Z</time>
      </trkpt>
      <trkpt lat="45.86317" lon="6.49497">
        <ele>1112.7</ele>
        <time>2022-06-15T12:53:23Z</time>
      </trkpt>
      <trkpt lat="45.86316" lon="6.49494">
        <ele>1112.7</ele>
        <time>2022-06-15T12:53:24Z</time>
      </trkpt>
      <trkpt lat="45.86316" lon="6.49491">
        <ele>1112.7</ele>
        <time>2022-06-15T12:53:25Z</time>
      </trkpt>
      <trkpt lat="45.86316" lon="6.49488">
        <ele>1112.9</ele>
        <time>2022-06-15T12:53:26Z</time>
      </trkpt>
      <trkpt lat="45.86315" lon="6.49484">
        <ele>1113</ele>
        <time>2022-06-15T12:53:27Z</time>
      </trkpt>
      <trkpt lat="45.86315" lon="6.49481">
        <ele>1113.1</ele>
        <time>2022-06-15T12:53:28Z</time>
      </trkpt>
      <trkpt lat="45.86315" lon="6.49478">
        <ele>1113.1</ele>
        <time>2022-06-15T12:53:29Z</time>
      </trkpt>
      <trkpt lat="45.86314" lon="6.49475">
        <ele>1113.2</ele>
        <time>2022-06-15T12:53:30Z</time>
      </trkpt>
      <trkpt lat="45.86314" lon="6.49472">
        <ele>1113.3</ele>
        <time>2022-06-15T12:53:31Z</time>
      </trkpt>
      <trkpt lat="45.86314" lon="6.49469">
        <ele>1113.5</ele>
        <time>2022-06-15T12:53:32Z</time>
      </trkpt>
      <trkpt lat="45.86314" lon="6.49466">
        <ele>1113.7</ele>
        <time>2022-06-15T12:53:33Z</time>
      </trkpt>
      <trkpt lat="45.86313" lon="6.49463">
        <ele>1113.8</ele>
        <time>2022-06-15T12:53:34Z</time>
      </trkpt>
      <trkpt lat="45.86313" lon="6.4946">
        <ele>1113.9</ele>
        <time>2022-06-15T12:53:35Z</time>
      </trkpt>
      <trkpt lat="45.86312" lon="6.49457">
        <ele>1114</ele>
        <time>2022-06-15T12:53:36Z</time>
      </trkpt>
      <trkpt lat="45.86312" lon="6.49454">
        <ele>1114.1</ele>
        <time>2022-06-15T12:53:37Z</time>
      </trkpt>
      <trkpt lat="45.86312" lon="6.4945">
        <ele>1114.5</ele>
        <time>2022-06-15T12:53:38Z</time>
      </trkpt>
      <trkpt lat="45.86311" lon="6.49447">
        <ele>1114.8</ele>
        <time>2022-06-15T12:53:39Z</time>
      </trkpt>
      <trkpt lat="45.86311" lon="6.49444">
        <ele>1115</ele>
        <time>2022-06-15T12:53:40Z</time>
      </trkpt>
      <trkpt lat="45.86311" lon="6.49441">
        <ele>1115.3</ele>
        <time>2022-06-15T12:53:41Z</time>
      </trkpt>
      <trkpt lat="45.8631" lon="6.49438">
        <ele>1115.6</ele>
        <time>2022-06-15T12:53:42Z</time>
      </trkpt>
      <trkpt lat="45.8631" lon="6.49435">
        <ele>1115.8</ele>
        <time>2022-06-15T12:53:43Z</time>
      </trkpt>
      <trkpt lat="45.86309" lon="6.49432">
        <ele>1116</ele>
        <time>2022-06-15T12:53:44Z</time>
      </trkpt>
      <trkpt lat="45.86308" lon="6.49429">
        <ele>1116.2</ele>
        <time>2022-06-15T12:53:45Z</time>
      </trkpt>
      <trkpt lat="45.86308" lon="6.49426">
        <ele>1116.3</ele>
        <time>2022-06-15T12:53:46Z</time>
      </trkpt>
      <trkpt lat="45.86307" lon="6.49423">
        <ele>1116.6</ele>
        <time>2022-06-15T12:53:47Z</time>
      </trkpt>
      <trkpt lat="45.86306" lon="6.4942">
        <ele>1116.7</ele>
        <time>2022-06-15T12:53:48Z</time>
      </trkpt>
      <trkpt lat="45.86306" lon="6.49417">
        <ele>1116.9</ele>
        <time>2022-06-15T12:53:49Z</time>
      </trkpt>
      <trkpt lat="45.86305" lon="6.49414">
        <ele>1116.9</ele>
        <time>2022-06-15T12:53:50Z</time>
      </trkpt>
      <trkpt lat="45.86304" lon="6.49411">
        <ele>1117.1</ele>
        <time>2022-06-15T12:53:51Z</time>
      </trkpt>
      <trkpt lat="45.86304" lon="6.49409">
        <ele>1117.3</ele>
        <time>2022-06-15T12:53:52Z</time>
      </trkpt>
      <trkpt lat="45.86303" lon="6.49406">
        <ele>1117.3</ele>
        <time>2022-06-15T12:53:53Z</time>
      </trkpt>
      <trkpt lat="45.86302" lon="6.49403">
        <ele>1117.4</ele>
        <time>2022-06-15T12:53:54Z</time>
      </trkpt>
      <trkpt lat="45.86301" lon="6.494">
        <ele>1117.5</ele>
        <time>2022-06-15T12:53:55Z</time>
      </trkpt>
      <trkpt lat="45.86299" lon="6.49398">
        <ele>1117.6</ele>
        <time>2022-06-15T12:53:56Z</time>
      </trkpt>
      <trkpt lat="45.86298" lon="6.49395">
        <ele>1117.7</ele>
        <time>2022-06-15T12:53:57Z</time>
      </trkpt>
      <trkpt lat="45.86297" lon="6.49393">
        <ele>1117.9</ele>
        <time>2022-06-15T12:53:58Z</time>
      </trkpt>
      <trkpt lat="45.86296" lon="6.4939">
        <ele>1118.1</ele>
        <time>2022-06-15T12:53:59Z</time>
      </trkpt>
      <trkpt lat="45.86295" lon="6.49388">
        <ele>1118.2</ele>
        <time>2022-06-15T12:54:00Z</time>
      </trkpt>
      <trkpt lat="45.86293" lon="6.49386">
        <ele>1118.2</ele>
        <time>2022-06-15T12:54:01Z</time>
      </trkpt>
      <trkpt lat="45.86292" lon="6.49383">
        <ele>1118.3</ele>
        <time>2022-06-15T12:54:02Z</time>
      </trkpt>
      <trkpt lat="45.86291" lon="6.49381">
        <ele>1118.5</ele>
        <time>2022-06-15T12:54:03Z</time>
      </trkpt>
      <trkpt lat="45.8629" lon="6.49378">
        <ele>1118.7</ele>
        <time>2022-06-15T12:54:04Z</time>
      </trkpt>
      <trkpt lat="45.86289" lon="6.49375">
        <ele>1119</ele>
        <time>2022-06-15T12:54:05Z</time>
      </trkpt>
      <trkpt lat="45.86289" lon="6.49372">
        <ele>1119.3</ele>
        <time>2022-06-15T12:54:06Z</time>
      </trkpt>
      <trkpt lat="45.86288" lon="6.4937">
        <ele>1119.7</ele>
        <time>2022-06-15T12:54:07Z</time>
      </trkpt>
      <trkpt lat="45.86288" lon="6.49367">
        <ele>1120</ele>
        <time>2022-06-15T12:54:08Z</time>
      </trkpt>
      <trkpt lat="45.86288" lon="6.49364">
        <ele>1120.4</ele>
        <time>2022-06-15T12:54:09Z</time>
      </trkpt>
      <trkpt lat="45.86288" lon="6.49361">
        <ele>1120.7</ele>
        <time>2022-06-15T12:54:10Z</time>
      </trkpt>
      <trkpt lat="45.86288" lon="6.49358">
        <ele>1120.7</ele>
        <time>2022-06-15T12:54:11Z</time>
      </trkpt>
      <trkpt lat="45.86288" lon="6.49355">
        <ele>1120.7</ele>
        <time>2022-06-15T12:54:12Z</time>
      </trkpt>
      <trkpt lat="45.86289" lon="6.49351">
        <ele>1120.7</ele>
        <time>2022-06-15T12:54:13Z</time>
      </trkpt>
      <trkpt lat="45.86289" lon="6.49349">
        <ele>1120.8</ele>
        <time>2022-06-15T12:54:14Z</time>
      </trkpt>
      <trkpt lat="45.8629" lon="6.49346">
        <ele>1120.9</ele>
        <time>2022-06-15T12:54:15Z</time>
      </trkpt>
      <trkpt lat="45.86291" lon="6.49343">
        <ele>1121</ele>
        <time>2022-06-15T12:54:16Z</time>
      </trkpt>
      <trkpt lat="45.86292" lon="6.4934">
        <ele>1121.2</ele>
        <time>2022-06-15T12:54:17Z</time>
      </trkpt>
      <trkpt lat="45.86293" lon="6.49338">
        <ele>1121.3</ele>
        <time>2022-06-15T12:54:18Z</time>
      </trkpt>
      <trkpt lat="45.86294" lon="6.49336">
        <ele>1121.5</ele>
        <time>2022-06-15T12:54:19Z</time>
      </trkpt>
      <trkpt lat="45.86295" lon="6.49333">
        <ele>1121.6</ele>
        <time>2022-06-15T12:54:20Z</time>
      </trkpt>
      <trkpt lat="45.86296" lon="6.49331">
        <ele>1120.9</ele>
        <time>2022-06-15T12:54:21Z</time>
      </trkpt>
      <trkpt lat="45.86297" lon="6.49328">
        <ele>1120.3</ele>
        <time>2022-06-15T12:54:22Z</time>
      </trkpt>
      <trkpt lat="45.86298" lon="6.49325">
        <ele>1119.9</ele>
        <time>2022-06-15T12:54:23Z</time>
      </trkpt>
      <trkpt lat="45.86299" lon="6.49324">
        <ele>1119.7</ele>
        <time>2022-06-15T12:54:24Z</time>
      </trkpt>
      <trkpt lat="45.86301" lon="6.49322">
        <ele>1119.8</ele>
        <time>2022-06-15T12:54:25Z</time>
      </trkpt>
      <trkpt lat="45.86302" lon="6.4932">
        <ele>1119.9</ele>
        <time>2022-06-15T12:54:26Z</time>
      </trkpt>
      <trkpt lat="45.86304" lon="6.49318">
        <ele>1120.1</ele>
        <time>2022-06-15T12:54:27Z</time>
      </trkpt>
      <trkpt lat="45.86306" lon="6.49317">
        <ele>1120.3</ele>
        <time>2022-06-15T12:54:28Z</time>
      </trkpt>
      <trkpt lat="45.86307" lon="6.49315">
        <ele>1120.4</ele>
        <time>2022-06-15T12:54:29Z</time>
      </trkpt>
      <trkpt lat="45.86309" lon="6.49314">
        <ele>1120.6</ele>
        <time>2022-06-15T12:54:30Z</time>
      </trkpt>
      <trkpt lat="45.86311" lon="6.49312">
        <ele>1120.9</ele>
        <time>2022-06-15T12:54:31Z</time>
      </trkpt>
      <trkpt lat="45.86313" lon="6.49311">
        <ele>1121.1</ele>
        <time>2022-06-15T12:54:32Z</time>
      </trkpt>
      <trkpt lat="45.86315" lon="6.4931">
        <ele>1121.5</ele>
        <time>2022-06-15T12:54:33Z</time>
      </trkpt>
      <trkpt lat="45.86317" lon="6.49309">
        <ele>1121.9</ele>
        <time>2022-06-15T12:54:34Z</time>
      </trkpt>
      <trkpt lat="45.86319" lon="6.49309">
        <ele>1122.3</ele>
        <time>2022-06-15T12:54:35Z</time>
      </trkpt>
      <trkpt lat="45.86321" lon="6.49308">
        <ele>1122.8</ele>
        <time>2022-06-15T12:54:36Z</time>
      </trkpt>
      <trkpt lat="45.86323" lon="6.49308">
        <ele>1123.3</ele>
        <time>2022-06-15T12:54:37Z</time>
      </trkpt>
      <trkpt lat="45.86325" lon="6.49307">
        <ele>1123.9</ele>
        <time>2022-06-15T12:54:38Z</time>
      </trkpt>
      <trkpt lat="45.86328" lon="6.49306">
        <ele>1124.4</ele>
        <time>2022-06-15T12:54:39Z</time>
      </trkpt>
      <trkpt lat="45.8633" lon="6.49306">
        <ele>1124.9</ele>
        <time>2022-06-15T12:54:40Z</time>
      </trkpt>
      <trkpt lat="45.86332" lon="6.49305">
        <ele>1125.2</ele>
        <time>2022-06-15T12:54:41Z</time>
      </trkpt>
      <trkpt lat="45.86334" lon="6.49304">
        <ele>1125.3</ele>
        <time>2022-06-15T12:54:42Z</time>
      </trkpt>
      <trkpt lat="45.86336" lon="6.49303">
        <ele>1125.4</ele>
        <time>2022-06-15T12:54:43Z</time>
      </trkpt>
      <trkpt lat="45.86338" lon="6.49302">
        <ele>1125.5</ele>
        <time>2022-06-15T12:54:44Z</time>
      </trkpt>
      <trkpt lat="45.8634" lon="6.493">
        <ele>1125.7</ele>
        <time>2022-06-15T12:54:45Z</time>
      </trkpt>
      <trkpt lat="45.86342" lon="6.49299">
        <ele>1125.8</ele>
        <time>2022-06-15T12:54:46Z</time>
      </trkpt>
      <trkpt lat="45.86344" lon="6.49298">
        <ele>1125.9</ele>
        <time>2022-06-15T12:54:47Z</time>
      </trkpt>
      <trkpt lat="45.86346" lon="6.49296">
        <ele>1126</ele>
        <time>2022-06-15T12:54:48Z</time>
      </trkpt>
      <trkpt lat="45.86348" lon="6.49294">
        <ele>1126.1</ele>
        <time>2022-06-15T12:54:49Z</time>
      </trkpt>
      <trkpt lat="45.86349" lon="6.49292">
        <ele>1126.2</ele>
        <time>2022-06-15T12:54:50Z</time>
      </trkpt>
      <trkpt lat="45.86351" lon="6.4929">
        <ele>1126.2</ele>
        <time>2022-06-15T12:54:51Z</time>
      </trkpt>
      <trkpt lat="45.86352" lon="6.49288">
        <ele>1126.2</ele>
        <time>2022-06-15T12:54:52Z</time>
      </trkpt>
      <trkpt lat="45.86353" lon="6.49286">
        <ele>1126.4</ele>
        <time>2022-06-15T12:54:53Z</time>
      </trkpt>
      <trkpt lat="45.86355" lon="6.49284">
        <ele>1126.9</ele>
        <time>2022-06-15T12:54:54Z</time>
      </trkpt>
      <trkpt lat="45.86357" lon="6.49282">
        <ele>1127.4</ele>
        <time>2022-06-15T12:54:55Z</time>
      </trkpt>
      <trkpt lat="45.86359" lon="6.49281">
        <ele>1128.1</ele>
        <time>2022-06-15T12:54:56Z</time>
      </trkpt>
      <trkpt lat="45.86361" lon="6.49279">
        <ele>1128.8</ele>
        <time>2022-06-15T12:54:57Z</time>
      </trkpt>
      <trkpt lat="45.86362" lon="6.49278">
        <ele>1129.2</ele>
        <time>2022-06-15T12:54:58Z</time>
      </trkpt>
      <trkpt lat="45.86364" lon="6.49277">
        <ele>1129.2</ele>
        <time>2022-06-15T12:54:59Z</time>
      </trkpt>
      <trkpt lat="45.86366" lon="6.49275">
        <ele>1129.1</ele>
        <time>2022-06-15T12:55:00Z</time>
      </trkpt>
      <trkpt lat="45.86368" lon="6.49274">
        <ele>1128.9</ele>
        <time>2022-06-15T12:55:01Z</time>
      </trkpt>
      <trkpt lat="45.86369" lon="6.49272">
        <ele>1128.7</ele>
        <time>2022-06-15T12:55:02Z</time>
      </trkpt>
      <trkpt lat="45.86371" lon="6.49271">
        <ele>1128.7</ele>
        <time>2022-06-15T12:55:03Z</time>
      </trkpt>
      <trkpt lat="45.86373" lon="6.49269">
        <ele>1128.8</ele>
        <time>2022-06-15T12:55:04Z</time>
      </trkpt>
      <trkpt lat="45.86375" lon="6.49268">
        <ele>1129.1</ele>
        <time>2022-06-15T12:55:05Z</time>
      </trkpt>
      <trkpt lat="45.86378" lon="6.49267">
        <ele>1129.5</ele>
        <time>2022-06-15T12:55:06Z</time>
      </trkpt>
      <trkpt lat="45.8638" lon="6.49266">
        <ele>1130</ele>
        <time>2022-06-15T12:55:07Z</time>
      </trkpt>
      <trkpt lat="45.86383" lon="6.49266">
        <ele>1130.5</ele>
        <time>2022-06-15T12:55:08Z</time>
      </trkpt>
      <trkpt lat="45.86385" lon="6.49265">
        <ele>1131</ele>
        <time>2022-06-15T12:55:09Z</time>
      </trkpt>
      <trkpt lat="45.86388" lon="6.49264">
        <ele>1131.6</ele>
        <time>2022-06-15T12:55:10Z</time>
      </trkpt>
      <trkpt lat="45.8639" lon="6.49264">
        <ele>1132</ele>
        <time>2022-06-15T12:55:11Z</time>
      </trkpt>
      <trkpt lat="45.86392" lon="6.49263">
        <ele>1132.2</ele>
        <time>2022-06-15T12:55:12Z</time>
      </trkpt>
      <trkpt lat="45.86394" lon="6.49262">
        <ele>1132.5</ele>
        <time>2022-06-15T12:55:13Z</time>
      </trkpt>
      <trkpt lat="45.86397" lon="6.49262">
        <ele>1132.7</ele>
        <time>2022-06-15T12:55:14Z</time>
      </trkpt>
      <trkpt lat="45.86399" lon="6.49261">
        <ele>1132.9</ele>
        <time>2022-06-15T12:55:15Z</time>
      </trkpt>
      <trkpt lat="45.86401" lon="6.49261">
        <ele>1133.2</ele>
        <time>2022-06-15T12:55:16Z</time>
      </trkpt>
      <trkpt lat="45.86403" lon="6.49261">
        <ele>1133.5</ele>
        <time>2022-06-15T12:55:17Z</time>
      </trkpt>
      <trkpt lat="45.86405" lon="6.49261">
        <ele>1133.8</ele>
        <time>2022-06-15T12:55:18Z</time>
      </trkpt>
      <trkpt lat="45.86407" lon="6.4926">
        <ele>1134</ele>
        <time>2022-06-15T12:55:19Z</time>
      </trkpt>
      <trkpt lat="45.86409" lon="6.4926">
        <ele>1134.3</ele>
        <time>2022-06-15T12:55:20Z</time>
      </trkpt>
      <trkpt lat="45.86411" lon="6.49261">
        <ele>1134.6</ele>
        <time>2022-06-15T12:55:21Z</time>
      </trkpt>
      <trkpt lat="45.86413" lon="6.49261">
        <ele>1134.9</ele>
        <time>2022-06-15T12:55:22Z</time>
      </trkpt>
      <trkpt lat="45.86416" lon="6.49261">
        <ele>1135.2</ele>
        <time>2022-06-15T12:55:23Z</time>
      </trkpt>
      <trkpt lat="45.86418" lon="6.49262">
        <ele>1135.5</ele>
        <time>2022-06-15T12:55:24Z</time>
      </trkpt>
      <trkpt lat="45.8642" lon="6.49263">
        <ele>1135.8</ele>
        <time>2022-06-15T12:55:25Z</time>
      </trkpt>
      <trkpt lat="45.86422" lon="6.49264">
        <ele>1136</ele>
        <time>2022-06-15T12:55:26Z</time>
      </trkpt>
      <trkpt lat="45.86424" lon="6.49265">
        <ele>1136.3</ele>
        <time>2022-06-15T12:55:27Z</time>
      </trkpt>
      <trkpt lat="45.86425" lon="6.49267">
        <ele>1136.5</ele>
        <time>2022-06-15T12:55:28Z</time>
      </trkpt>
      <trkpt lat="45.86427" lon="6.49269">
        <ele>1136.8</ele>
        <time>2022-06-15T12:55:29Z</time>
      </trkpt>
      <trkpt lat="45.86428" lon="6.49271">
        <ele>1137</ele>
        <time>2022-06-15T12:55:30Z</time>
      </trkpt>
      <trkpt lat="45.8643" lon="6.49273">
        <ele>1137.2</ele>
        <time>2022-06-15T12:55:31Z</time>
      </trkpt>
      <trkpt lat="45.86431" lon="6.49276">
        <ele>1137.4</ele>
        <time>2022-06-15T12:55:32Z</time>
      </trkpt>
      <trkpt lat="45.86432" lon="6.49278">
        <ele>1137.6</ele>
        <time>2022-06-15T12:55:33Z</time>
      </trkpt>
      <trkpt lat="45.86432" lon="6.49281">
        <ele>1137.9</ele>
        <time>2022-06-15T12:55:34Z</time>
      </trkpt>
      <trkpt lat="45.86433" lon="6.49284">
        <ele>1138.1</ele>
        <time>2022-06-15T12:55:35Z</time>
      </trkpt>
      <trkpt lat="45.86433" lon="6.49287">
        <ele>1138.3</ele>
        <time>2022-06-15T12:55:36Z</time>
      </trkpt>
      <trkpt lat="45.86432" lon="6.4929">
        <ele>1138.5</ele>
        <time>2022-06-15T12:55:37Z</time>
      </trkpt>
      <trkpt lat="45.86432" lon="6.49293">
        <ele>1138.7</ele>
        <time>2022-06-15T12:55:38Z</time>
      </trkpt>
      <trkpt lat="45.86432" lon="6.49295">
        <ele>1138.9</ele>
        <time>2022-06-15T12:55:39Z</time>
      </trkpt>
      <trkpt lat="45.86431" lon="6.49298">
        <ele>1139</ele>
        <time>2022-06-15T12:55:40Z</time>
      </trkpt>
      <trkpt lat="45.86431" lon="6.49301">
        <ele>1139.2</ele>
        <time>2022-06-15T12:55:41Z</time>
      </trkpt>
      <trkpt lat="45.86431" lon="6.49304">
        <ele>1139.3</ele>
        <time>2022-06-15T12:55:42Z</time>
      </trkpt>
      <trkpt lat="45.8643" lon="6.49306">
        <ele>1139.5</ele>
        <time>2022-06-15T12:55:43Z</time>
      </trkpt>
      <trkpt lat="45.86429" lon="6.49309">
        <ele>1139.6</ele>
        <time>2022-06-15T12:55:44Z</time>
      </trkpt>
      <trkpt lat="45.86429" lon="6.49311">
        <ele>1139.7</ele>
        <time>2022-06-15T12:55:45Z</time>
      </trkpt>
      <trkpt lat="45.86428" lon="6.49314">
        <ele>1139.8</ele>
        <time>2022-06-15T12:55:46Z</time>
      </trkpt>
      <trkpt lat="45.86428" lon="6.49316">
        <ele>1140</ele>
        <time>2022-06-15T12:55:47Z</time>
      </trkpt>
      <trkpt lat="45.86427" lon="6.49319">
        <ele>1140</ele>
        <time>2022-06-15T12:55:48Z</time>
      </trkpt>
      <trkpt lat="45.86426" lon="6.49321">
        <ele>1140.1</ele>
        <time>2022-06-15T12:55:49Z</time>
      </trkpt>
      <trkpt lat="45.86426" lon="6.49324">
        <ele>1140.3</ele>
        <time>2022-06-15T12:55:50Z</time>
      </trkpt>
      <trkpt lat="45.86425" lon="6.49327">
        <ele>1140.4</ele>
        <time>2022-06-15T12:55:51Z</time>
      </trkpt>
      <trkpt lat="45.86424" lon="6.49329">
        <ele>1140.5</ele>
        <time>2022-06-15T12:55:52Z</time>
      </trkpt>
      <trkpt lat="45.86423" lon="6.49332">
        <ele>1140.6</ele>
        <time>2022-06-15T12:55:53Z</time>
      </trkpt>
      <trkpt lat="45.86422" lon="6.49334">
        <ele>1140.6</ele>
        <time>2022-06-15T12:55:54Z</time>
      </trkpt>
      <trkpt lat="45.8642" lon="6.49336">
        <ele>1140.8</ele>
        <time>2022-06-15T12:55:55Z</time>
      </trkpt>
      <trkpt lat="45.86419" lon="6.49338">
        <ele>1140.9</ele>
        <time>2022-06-15T12:55:56Z</time>
      </trkpt>
      <trkpt lat="45.86418" lon="6.4934">
        <ele>1141.1</ele>
        <time>2022-06-15T12:55:57Z</time>
      </trkpt>
      <trkpt lat="45.86416" lon="6.49343">
        <ele>1141.2</ele>
        <time>2022-06-15T12:55:58Z</time>
      </trkpt>
      <trkpt lat="45.86415" lon="6.49345">
        <ele>1141.3</ele>
        <time>2022-06-15T12:55:59Z</time>
      </trkpt>
      <trkpt lat="45.86414" lon="6.49347">
        <ele>1141.5</ele>
        <time>2022-06-15T12:56:00Z</time>
      </trkpt>
      <trkpt lat="45.86412" lon="6.49349">
        <ele>1141.6</ele>
        <time>2022-06-15T12:56:01Z</time>
      </trkpt>
      <trkpt lat="45.86411" lon="6.49351">
        <ele>1141.8</ele>
        <time>2022-06-15T12:56:02Z</time>
      </trkpt>
      <trkpt lat="45.8641" lon="6.49354">
        <ele>1142</ele>
        <time>2022-06-15T12:56:03Z</time>
      </trkpt>
      <trkpt lat="45.86408" lon="6.49357">
        <ele>1142.1</ele>
        <time>2022-06-15T12:56:04Z</time>
      </trkpt>
      <trkpt lat="45.86407" lon="6.4936">
        <ele>1142.4</ele>
        <time>2022-06-15T12:56:05Z</time>
      </trkpt>
      <trkpt lat="45.86406" lon="6.49363">
        <ele>1142.6</ele>
        <time>2022-06-15T12:56:06Z</time>
      </trkpt>
      <trkpt lat="45.86405" lon="6.49366">
        <ele>1142.9</ele>
        <time>2022-06-15T12:56:07Z</time>
      </trkpt>
      <trkpt lat="45.86403" lon="6.49368">
        <ele>1143.1</ele>
        <time>2022-06-15T12:56:08Z</time>
      </trkpt>
      <trkpt lat="45.86402" lon="6.49371">
        <ele>1143.3</ele>
        <time>2022-06-15T12:56:09Z</time>
      </trkpt>
      <trkpt lat="45.86401" lon="6.49374">
        <ele>1143.5</ele>
        <time>2022-06-15T12:56:10Z</time>
      </trkpt>
      <trkpt lat="45.864" lon="6.49377">
        <ele>1143.9</ele>
        <time>2022-06-15T12:56:11Z</time>
      </trkpt>
      <trkpt lat="45.864" lon="6.4938">
        <ele>1144.2</ele>
        <time>2022-06-15T12:56:12Z</time>
      </trkpt>
      <trkpt lat="45.86399" lon="6.49383">
        <ele>1144.6</ele>
        <time>2022-06-15T12:56:13Z</time>
      </trkpt>
      <trkpt lat="45.86399" lon="6.49386">
        <ele>1145.1</ele>
        <time>2022-06-15T12:56:14Z</time>
      </trkpt>
      <trkpt lat="45.86399" lon="6.49389">
        <ele>1145.5</ele>
        <time>2022-06-15T12:56:15Z</time>
      </trkpt>
      <trkpt lat="45.86399" lon="6.49392">
        <ele>1145.6</ele>
        <time>2022-06-15T12:56:16Z</time>
      </trkpt>
      <trkpt lat="45.864" lon="6.49395">
        <ele>1145.8</ele>
        <time>2022-06-15T12:56:17Z</time>
      </trkpt>
      <trkpt lat="45.864" lon="6.49398">
        <ele>1145.9</ele>
        <time>2022-06-15T12:56:18Z</time>
      </trkpt>
      <trkpt lat="45.86401" lon="6.49401">
        <ele>1146.1</ele>
        <time>2022-06-15T12:56:19Z</time>
      </trkpt>
      <trkpt lat="45.86401" lon="6.49404">
        <ele>1146.3</ele>
        <time>2022-06-15T12:56:20Z</time>
      </trkpt>
      <trkpt lat="45.86402" lon="6.49407">
        <ele>1146.5</ele>
        <time>2022-06-15T12:56:21Z</time>
      </trkpt>
      <trkpt lat="45.86402" lon="6.4941">
        <ele>1146.7</ele>
        <time>2022-06-15T12:56:22Z</time>
      </trkpt>
      <trkpt lat="45.86403" lon="6.49413">
        <ele>1146.9</ele>
        <time>2022-06-15T12:56:23Z</time>
      </trkpt>
      <trkpt lat="45.86404" lon="6.49416">
        <ele>1147.1</ele>
        <time>2022-06-15T12:56:24Z</time>
      </trkpt>
      <trkpt lat="45.86405" lon="6.49419">
        <ele>1147.3</ele>
        <time>2022-06-15T12:56:25Z</time>
      </trkpt>
      <trkpt lat="45.86406" lon="6.49422">
        <ele>1147.5</ele>
        <time>2022-06-15T12:56:26Z</time>
      </trkpt>
      <trkpt lat="45.86407" lon="6.49424">
        <ele>1147.7</ele>
        <time>2022-06-15T12:56:27Z</time>
      </trkpt>
      <trkpt lat="45.86408" lon="6.49427">
        <ele>1147.9</ele>
        <time>2022-06-15T12:56:28Z</time>
      </trkpt>
      <trkpt lat="45.86409" lon="6.4943">
        <ele>1148.1</ele>
        <time>2022-06-15T12:56:29Z</time>
      </trkpt>
      <trkpt lat="45.8641" lon="6.49432">
        <ele>1148.3</ele>
        <time>2022-06-15T12:56:30Z</time>
      </trkpt>
      <trkpt lat="45.86411" lon="6.49435">
        <ele>1148.5</ele>
        <time>2022-06-15T12:56:31Z</time>
      </trkpt>
      <trkpt lat="45.86412" lon="6.49437">
        <ele>1148.8</ele>
        <time>2022-06-15T12:56:32Z</time>
      </trkpt>
      <trkpt lat="45.86413" lon="6.4944">
        <ele>1149.1</ele>
        <time>2022-06-15T12:56:33Z</time>
      </trkpt>
      <trkpt lat="45.86414" lon="6.49443">
        <ele>1149.4</ele>
        <time>2022-06-15T12:56:34Z</time>
      </trkpt>
      <trkpt lat="45.86415" lon="6.49445">
        <ele>1149.6</ele>
        <time>2022-06-15T12:56:35Z</time>
      </trkpt>
      <trkpt lat="45.86416" lon="6.49448">
        <ele>1149.8</ele>
        <time>2022-06-15T12:56:36Z</time>
      </trkpt>
      <trkpt lat="45.86417" lon="6.49451">
        <ele>1150</ele>
        <time>2022-06-15T12:56:37Z</time>
      </trkpt>
      <trkpt lat="45.86418" lon="6.49453">
        <ele>1150.2</ele>
        <time>2022-06-15T12:56:38Z</time>
      </trkpt>
      <trkpt lat="45.86419" lon="6.49456">
        <ele>1150.3</ele>
        <time>2022-06-15T12:56:39Z</time>
      </trkpt>
      <trkpt lat="45.8642" lon="6.49459">
        <ele>1150.6</ele>
        <time>2022-06-15T12:56:40Z</time>
      </trkpt>
      <trkpt lat="45.86421" lon="6.49461">
        <ele>1150.8</ele>
        <time>2022-06-15T12:56:41Z</time>
      </trkpt>
      <trkpt lat="45.86422" lon="6.49464">
        <ele>1151</ele>
        <time>2022-06-15T12:56:42Z</time>
      </trkpt>
      <trkpt lat="45.86423" lon="6.49466">
        <ele>1151.2</ele>
        <time>2022-06-15T12:56:43Z</time>
      </trkpt>
      <trkpt lat="45.86424" lon="6.49469">
        <ele>1151.4</ele>
        <time>2022-06-15T12:56:44Z</time>
      </trkpt>
      <trkpt lat="45.86425" lon="6.49472">
        <ele>1151.7</ele>
        <time>2022-06-15T12:56:45Z</time>
      </trkpt>
      <trkpt lat="45.86425" lon="6.49475">
        <ele>1152</ele>
        <time>2022-06-15T12:56:46Z</time>
      </trkpt>
      <trkpt lat="45.86426" lon="6.49478">
        <ele>1152.2</ele>
        <time>2022-06-15T12:56:47Z</time>
      </trkpt>
      <trkpt lat="45.86426" lon="6.49481">
        <ele>1152.4</ele>
        <time>2022-06-15T12:56:48Z</time>
      </trkpt>
      <trkpt lat="45.86427" lon="6.49484">
        <ele>1152.5</ele>
        <time>2022-06-15T12:56:49Z</time>
      </trkpt>
      <trkpt lat="45.86427" lon="6.49487">
        <ele>1152.7</ele>
        <time>2022-06-15T12:56:50Z</time>
      </trkpt>
      <trkpt lat="45.86427" lon="6.49491">
        <ele>1152.8</ele>
        <time>2022-06-15T12:56:51Z</time>
      </trkpt>
      <trkpt lat="45.86427" lon="6.49494">
        <ele>1152.9</ele>
        <time>2022-06-15T12:56:52Z</time>
      </trkpt>
      <trkpt lat="45.86427" lon="6.49497">
        <ele>1153</ele>
        <time>2022-06-15T12:56:53Z</time>
      </trkpt>
      <trkpt lat="45.86426" lon="6.495">
        <ele>1153.1</ele>
        <time>2022-06-15T12:56:54Z</time>
      </trkpt>
      <trkpt lat="45.86426" lon="6.49503">
        <ele>1153.2</ele>
        <time>2022-06-15T12:56:55Z</time>
      </trkpt>
      <trkpt lat="45.86426" lon="6.49506">
        <ele>1153.4</ele>
        <time>2022-06-15T12:56:56Z</time>
      </trkpt>
      <trkpt lat="45.86425" lon="6.49509">
        <ele>1153.6</ele>
        <time>2022-06-15T12:56:57Z</time>
      </trkpt>
      <trkpt lat="45.86425" lon="6.49512">
        <ele>1153.8</ele>
        <time>2022-06-15T12:56:58Z</time>
      </trkpt>
      <trkpt lat="45.86425" lon="6.49515">
        <ele>1154</ele>
        <time>2022-06-15T12:56:59Z</time>
      </trkpt>
      <trkpt lat="45.86424" lon="6.49518">
        <ele>1154.2</ele>
        <time>2022-06-15T12:57:00Z</time>
      </trkpt>
      <trkpt lat="45.86424" lon="6.49521">
        <ele>1154.4</ele>
        <time>2022-06-15T12:57:01Z</time>
      </trkpt>
      <trkpt lat="45.86424" lon="6.49524">
        <ele>1154.7</ele>
        <time>2022-06-15T12:57:02Z</time>
      </trkpt>
      <trkpt lat="45.86425" lon="6.49526">
        <ele>1155</ele>
        <time>2022-06-15T12:57:03Z</time>
      </trkpt>
      <trkpt lat="45.86425" lon="6.49529">
        <ele>1155.1</ele>
        <time>2022-06-15T12:57:04Z</time>
      </trkpt>
      <trkpt lat="45.86426" lon="6.49532">
        <ele>1154.9</ele>
        <time>2022-06-15T12:57:05Z</time>
      </trkpt>
      <trkpt lat="45.86427" lon="6.49535">
        <ele>1154.7</ele>
        <time>2022-06-15T12:57:06Z</time>
      </trkpt>
      <trkpt lat="45.86428" lon="6.49538">
        <ele>1154.6</ele>
        <time>2022-06-15T12:57:07Z</time>
      </trkpt>
      <trkpt lat="45.8643" lon="6.4954">
        <ele>1154.4</ele>
        <time>2022-06-15T12:57:08Z</time>
      </trkpt>
      <trkpt lat="45.86432" lon="6.49542">
        <ele>1154.3</ele>
        <time>2022-06-15T12:57:09Z</time>
      </trkpt>
      <trkpt lat="45.86433" lon="6.49544">
        <ele>1154.1</ele>
        <time>2022-06-15T12:57:10Z</time>
      </trkpt>
      <trkpt lat="45.86435" lon="6.49545">
        <ele>1154</ele>
        <time>2022-06-15T12:57:11Z</time>
      </trkpt>
      <trkpt lat="45.86437" lon="6.49546">
        <ele>1153.8</ele>
        <time>2022-06-15T12:57:12Z</time>
      </trkpt>
      <trkpt lat="45.8644" lon="6.49547">
        <ele>1153.7</ele>
        <time>2022-06-15T12:57:13Z</time>
      </trkpt>
      <trkpt lat="45.86441" lon="6.49548">
        <ele>1153.6</ele>
        <time>2022-06-15T12:57:14Z</time>
      </trkpt>
      <trkpt lat="45.86444" lon="6.49548">
        <ele>1153.6</ele>
        <time>2022-06-15T12:57:15Z</time>
      </trkpt>
      <trkpt lat="45.86446" lon="6.49549">
        <ele>1153.4</ele>
        <time>2022-06-15T12:57:16Z</time>
      </trkpt>
      <trkpt lat="45.86448" lon="6.49548">
        <ele>1153.3</ele>
        <time>2022-06-15T12:57:17Z</time>
      </trkpt>
      <trkpt lat="45.86451" lon="6.49547">
        <ele>1153.2</ele>
        <time>2022-06-15T12:57:18Z</time>
      </trkpt>
      <trkpt lat="45.86453" lon="6.49546">
        <ele>1153.3</ele>
        <time>2022-06-15T12:57:19Z</time>
      </trkpt>
      <trkpt lat="45.86455" lon="6.49545">
        <ele>1153.6</ele>
        <time>2022-06-15T12:57:20Z</time>
      </trkpt>
      <trkpt lat="45.86458" lon="6.49543">
        <ele>1154</ele>
        <time>2022-06-15T12:57:21Z</time>
      </trkpt>
      <trkpt lat="45.8646" lon="6.49541">
        <ele>1154.5</ele>
        <time>2022-06-15T12:57:22Z</time>
      </trkpt>
      <trkpt lat="45.86462" lon="6.49539">
        <ele>1155.1</ele>
        <time>2022-06-15T12:57:23Z</time>
      </trkpt>
      <trkpt lat="45.86464" lon="6.49537">
        <ele>1155.7</ele>
        <time>2022-06-15T12:57:24Z</time>
      </trkpt>
      <trkpt lat="45.86466" lon="6.49534">
        <ele>1156.5</ele>
        <time>2022-06-15T12:57:25Z</time>
      </trkpt>
      <trkpt lat="45.86468" lon="6.49532">
        <ele>1157.4</ele>
        <time>2022-06-15T12:57:26Z</time>
      </trkpt>
      <trkpt lat="45.8647" lon="6.49529">
        <ele>1158.5</ele>
        <time>2022-06-15T12:57:27Z</time>
      </trkpt>
      <trkpt lat="45.86472" lon="6.49526">
        <ele>1159.1</ele>
        <time>2022-06-15T12:57:28Z</time>
      </trkpt>
      <trkpt lat="45.86473" lon="6.49524">
        <ele>1159.1</ele>
        <time>2022-06-15T12:57:29Z</time>
      </trkpt>
      <trkpt lat="45.86475" lon="6.49521">
        <ele>1158.8</ele>
        <time>2022-06-15T12:57:30Z</time>
      </trkpt>
      <trkpt lat="45.86476" lon="6.49518">
        <ele>1158.6</ele>
        <time>2022-06-15T12:57:31Z</time>
      </trkpt>
      <trkpt lat="45.86478" lon="6.49515">
        <ele>1158.3</ele>
        <time>2022-06-15T12:57:32Z</time>
      </trkpt>
      <trkpt lat="45.86479" lon="6.49513">
        <ele>1158</ele>
        <time>2022-06-15T12:57:33Z</time>
      </trkpt>
      <trkpt lat="45.86481" lon="6.49511">
        <ele>1157.7</ele>
        <time>2022-06-15T12:57:34Z</time>
      </trkpt>
      <trkpt lat="45.86482" lon="6.49508">
        <ele>1157.6</ele>
        <time>2022-06-15T12:57:35Z</time>
      </trkpt>
      <trkpt lat="45.86484" lon="6.49505">
        <ele>1157.5</ele>
        <time>2022-06-15T12:57:36Z</time>
      </trkpt>
      <trkpt lat="45.86485" lon="6.49502">
        <ele>1157.5</ele>
        <time>2022-06-15T12:57:37Z</time>
      </trkpt>
      <trkpt lat="45.86486" lon="6.49499">
        <ele>1157.8</ele>
        <time>2022-06-15T12:57:38Z</time>
      </trkpt>
      <trkpt lat="45.86487" lon="6.49496">
        <ele>1158</ele>
        <time>2022-06-15T12:57:39Z</time>
      </trkpt>
      <trkpt lat="45.86488" lon="6.49492">
        <ele>1158.3</ele>
        <time>2022-06-15T12:57:40Z</time>
      </trkpt>
      <trkpt lat="45.86489" lon="6.49489">
        <ele>1158.8</ele>
        <time>2022-06-15T12:57:41Z</time>
      </trkpt>
      <trkpt lat="45.8649" lon="6.49486">
        <ele>1159.3</ele>
        <time>2022-06-15T12:57:42Z</time>
      </trkpt>
      <trkpt lat="45.86492" lon="6.49483">
        <ele>1159.8</ele>
        <time>2022-06-15T12:57:43Z</time>
      </trkpt>
      <trkpt lat="45.86493" lon="6.4948">
        <ele>1160.5</ele>
        <time>2022-06-15T12:57:44Z</time>
      </trkpt>
      <trkpt lat="45.86494" lon="6.49477">
        <ele>1161.4</ele>
        <time>2022-06-15T12:57:45Z</time>
      </trkpt>
      <trkpt lat="45.86495" lon="6.49473">
        <ele>1162.4</ele>
        <time>2022-06-15T12:57:46Z</time>
      </trkpt>
      <trkpt lat="45.86496" lon="6.4947">
        <ele>1162.8</ele>
        <time>2022-06-15T12:57:47Z</time>
      </trkpt>
      <trkpt lat="45.86497" lon="6.49466">
        <ele>1162.9</ele>
        <time>2022-06-15T12:57:48Z</time>
      </trkpt>
      <trkpt lat="45.86498" lon="6.49462">
        <ele>1163.1</ele>
        <time>2022-06-15T12:57:49Z</time>
      </trkpt>
      <trkpt lat="45.86498" lon="6.49458">
        <ele>1163.3</ele>
        <time>2022-06-15T12:57:50Z</time>
      </trkpt>
      <trkpt lat="45.86499" lon="6.49455">
        <ele>1163.5</ele>
        <time>2022-06-15T12:57:51Z</time>
      </trkpt>
      <trkpt lat="45.865" lon="6.49451">
        <ele>1163.7</ele>
        <time>2022-06-15T12:57:52Z</time>
      </trkpt>
      <trkpt lat="45.86501" lon="6.49448">
        <ele>1163.9</ele>
        <time>2022-06-15T12:57:53Z</time>
      </trkpt>
      <trkpt lat="45.86502" lon="6.49444">
        <ele>1164</ele>
        <time>2022-06-15T12:57:54Z</time>
      </trkpt>
      <trkpt lat="45.86503" lon="6.49441">
        <ele>1164.1</ele>
        <time>2022-06-15T12:57:55Z</time>
      </trkpt>
      <trkpt lat="45.86505" lon="6.49439">
        <ele>1164.2</ele>
        <time>2022-06-15T12:57:56Z</time>
      </trkpt>
      <trkpt lat="45.86507" lon="6.49436">
        <ele>1164.3</ele>
        <time>2022-06-15T12:57:57Z</time>
      </trkpt>
      <trkpt lat="45.86508" lon="6.49434">
        <ele>1164.5</ele>
        <time>2022-06-15T12:57:58Z</time>
      </trkpt>
      <trkpt lat="45.8651" lon="6.49431">
        <ele>1164.7</ele>
        <time>2022-06-15T12:57:59Z</time>
      </trkpt>
      <trkpt lat="45.86511" lon="6.49429">
        <ele>1165</ele>
        <time>2022-06-15T12:58:00Z</time>
      </trkpt>
      <trkpt lat="45.86513" lon="6.49426">
        <ele>1165.3</ele>
        <time>2022-06-15T12:58:01Z</time>
      </trkpt>
      <trkpt lat="45.86514" lon="6.49423">
        <ele>1165.6</ele>
        <time>2022-06-15T12:58:02Z</time>
      </trkpt>
      <trkpt lat="45.86515" lon="6.49421">
        <ele>1166</ele>
        <time>2022-06-15T12:58:03Z</time>
      </trkpt>
      <trkpt lat="45.86517" lon="6.49419">
        <ele>1166.5</ele>
        <time>2022-06-15T12:58:04Z</time>
      </trkpt>
      <trkpt lat="45.86519" lon="6.49417">
        <ele>1167.1</ele>
        <time>2022-06-15T12:58:05Z</time>
      </trkpt>
      <trkpt lat="45.86521" lon="6.49415">
        <ele>1167.4</ele>
        <time>2022-06-15T12:58:06Z</time>
      </trkpt>
      <trkpt lat="45.86523" lon="6.49413">
        <ele>1167.6</ele>
        <time>2022-06-15T12:58:07Z</time>
      </trkpt>
      <trkpt lat="45.86524" lon="6.49411">
        <ele>1167.7</ele>
        <time>2022-06-15T12:58:08Z</time>
      </trkpt>
      <trkpt lat="45.86526" lon="6.49408">
        <ele>1167.9</ele>
        <time>2022-06-15T12:58:09Z</time>
      </trkpt>
      <trkpt lat="45.86527" lon="6.49406">
        <ele>1168.1</ele>
        <time>2022-06-15T12:58:10Z</time>
      </trkpt>
      <trkpt lat="45.86529" lon="6.49404">
        <ele>1168.3</ele>
        <time>2022-06-15T12:58:11Z</time>
      </trkpt>
      <trkpt lat="45.86531" lon="6.49402">
        <ele>1168.5</ele>
        <time>2022-06-15T12:58:12Z</time>
      </trkpt>
      <trkpt lat="45.86532" lon="6.49399">
        <ele>1168.7</ele>
        <time>2022-06-15T12:58:13Z</time>
      </trkpt>
      <trkpt lat="45.86534" lon="6.49397">
        <ele>1168.8</ele>
        <time>2022-06-15T12:58:14Z</time>
      </trkpt>
      <trkpt lat="45.86536" lon="6.49394">
        <ele>1169</ele>
        <time>2022-06-15T12:58:15Z</time>
      </trkpt>
      <trkpt lat="45.86537" lon="6.49392">
        <ele>1169.2</ele>
        <time>2022-06-15T12:58:16Z</time>
      </trkpt>
      <trkpt lat="45.86539" lon="6.4939">
        <ele>1169.4</ele>
        <time>2022-06-15T12:58:17Z</time>
      </trkpt>
      <trkpt lat="45.86541" lon="6.49388">
        <ele>1169.5</ele>
        <time>2022-06-15T12:58:18Z</time>
      </trkpt>
      <trkpt lat="45.86543" lon="6.49386">
        <ele>1169.6</ele>
        <time>2022-06-15T12:58:19Z</time>
      </trkpt>
      <trkpt lat="45.86544" lon="6.49384">
        <ele>1169.7</ele>
        <time>2022-06-15T12:58:20Z</time>
      </trkpt>
      <trkpt lat="45.86547" lon="6.49383">
        <ele>1169.9</ele>
        <time>2022-06-15T12:58:21Z</time>
      </trkpt>
      <trkpt lat="45.86549" lon="6.49381">
        <ele>1170.1</ele>
        <time>2022-06-15T12:58:22Z</time>
      </trkpt>
      <trkpt lat="45.8655" lon="6.4938">
        <ele>1170.2</ele>
        <time>2022-06-15T12:58:23Z</time>
      </trkpt>
      <trkpt lat="45.86552" lon="6.49378">
        <ele>1170.3</ele>
        <time>2022-06-15T12:58:24Z</time>
      </trkpt>
      <trkpt lat="45.86554" lon="6.49377">
        <ele>1170.5</ele>
        <time>2022-06-15T12:58:25Z</time>
      </trkpt>
      <trkpt lat="45.86556" lon="6.49375">
        <ele>1170.6</ele>
        <time>2022-06-15T12:58:26Z</time>
      </trkpt>
      <trkpt lat="45.86558" lon="6.49374">
        <ele>1170.8</ele>
        <time>2022-06-15T12:58:27Z</time>
      </trkpt>
      <trkpt lat="45.8656" lon="6.49373">
        <ele>1171</ele>
        <time>2022-06-15T12:58:28Z</time>
      </trkpt>
      <trkpt lat="45.86562" lon="6.49371">
        <ele>1171.2</ele>
        <time>2022-06-15T12:58:29Z</time>
      </trkpt>
      <trkpt lat="45.86564" lon="6.4937">
        <ele>1171.3</ele>
        <time>2022-06-15T12:58:30Z</time>
      </trkpt>
      <trkpt lat="45.86566" lon="6.49368">
        <ele>1171.5</ele>
        <time>2022-06-15T12:58:31Z</time>
      </trkpt>
      <trkpt lat="45.86568" lon="6.49367">
        <ele>1171.6</ele>
        <time>2022-06-15T12:58:32Z</time>
      </trkpt>
      <trkpt lat="45.8657" lon="6.49365">
        <ele>1171.8</ele>
        <time>2022-06-15T12:58:33Z</time>
      </trkpt>
      <trkpt lat="45.86572" lon="6.49364">
        <ele>1171.9</ele>
        <time>2022-06-15T12:58:34Z</time>
      </trkpt>
      <trkpt lat="45.86574" lon="6.49363">
        <ele>1172.2</ele>
        <time>2022-06-15T12:58:35Z</time>
      </trkpt>
      <trkpt lat="45.86576" lon="6.49362">
        <ele>1172.5</ele>
        <time>2022-06-15T12:58:36Z</time>
      </trkpt>
      <trkpt lat="45.86578" lon="6.49361">
        <ele>1172.8</ele>
        <time>2022-06-15T12:58:37Z</time>
      </trkpt>
      <trkpt lat="45.8658" lon="6.4936">
        <ele>1173.1</ele>
        <time>2022-06-15T12:58:38Z</time>
      </trkpt>
      <trkpt lat="45.86582" lon="6.49359">
        <ele>1173.5</ele>
        <time>2022-06-15T12:58:39Z</time>
      </trkpt>
      <trkpt lat="45.86584" lon="6.49358">
        <ele>1173.8</ele>
        <time>2022-06-15T12:58:40Z</time>
      </trkpt>
      <trkpt lat="45.86587" lon="6.49357">
        <ele>1174.1</ele>
        <time>2022-06-15T12:58:41Z</time>
      </trkpt>
      <trkpt lat="45.86589" lon="6.49356">
        <ele>1174.4</ele>
        <time>2022-06-15T12:58:42Z</time>
      </trkpt>
      <trkpt lat="45.86591" lon="6.49355">
        <ele>1174.7</ele>
        <time>2022-06-15T12:58:43Z</time>
      </trkpt>
      <trkpt lat="45.86593" lon="6.49354">
        <ele>1174.9</ele>
        <time>2022-06-15T12:58:44Z</time>
      </trkpt>
      <trkpt lat="45.86594" lon="6.49352">
        <ele>1175.1</ele>
        <time>2022-06-15T12:58:45Z</time>
      </trkpt>
      <trkpt lat="45.86596" lon="6.49351">
        <ele>1175.3</ele>
        <time>2022-06-15T12:58:46Z</time>
      </trkpt>
      <trkpt lat="45.86598" lon="6.4935">
        <ele>1175.5</ele>
        <time>2022-06-15T12:58:47Z</time>
      </trkpt>
      <trkpt lat="45.86601" lon="6.49349">
        <ele>1175.9</ele>
        <time>2022-06-15T12:58:48Z</time>
      </trkpt>
      <trkpt lat="45.86602" lon="6.49348">
        <ele>1176.1</ele>
        <time>2022-06-15T12:58:49Z</time>
      </trkpt>
      <trkpt lat="45.86604" lon="6.49346">
        <ele>1176.3</ele>
        <time>2022-06-15T12:58:50Z</time>
      </trkpt>
      <trkpt lat="45.86606" lon="6.49345">
        <ele>1176.4</ele>
        <time>2022-06-15T12:58:51Z</time>
      </trkpt>
      <trkpt lat="45.86607" lon="6.49343">
        <ele>1176.6</ele>
        <time>2022-06-15T12:58:52Z</time>
      </trkpt>
      <trkpt lat="45.86609" lon="6.49342">
        <ele>1176.8</ele>
        <time>2022-06-15T12:58:53Z</time>
      </trkpt>
      <trkpt lat="45.86611" lon="6.49341">
        <ele>1177.1</ele>
        <time>2022-06-15T12:58:54Z</time>
      </trkpt>
      <trkpt lat="45.86613" lon="6.49339">
        <ele>1177.2</ele>
        <time>2022-06-15T12:58:55Z</time>
      </trkpt>
      <trkpt lat="45.86615" lon="6.49338">
        <ele>1177.4</ele>
        <time>2022-06-15T12:58:56Z</time>
      </trkpt>
      <trkpt lat="45.86617" lon="6.49337">
        <ele>1177.6</ele>
        <time>2022-06-15T12:58:57Z</time>
      </trkpt>
      <trkpt lat="45.8662" lon="6.49336">
        <ele>1177.8</ele>
        <time>2022-06-15T12:58:58Z</time>
      </trkpt>
      <trkpt lat="45.86622" lon="6.49335">
        <ele>1178</ele>
        <time>2022-06-15T12:58:59Z</time>
      </trkpt>
      <trkpt lat="45.86624" lon="6.49333">
        <ele>1178.2</ele>
        <time>2022-06-15T12:59:00Z</time>
      </trkpt>
      <trkpt lat="45.86626" lon="6.49332">
        <ele>1178.4</ele>
        <time>2022-06-15T12:59:01Z</time>
      </trkpt>
      <trkpt lat="45.86628" lon="6.4933">
        <ele>1178.6</ele>
        <time>2022-06-15T12:59:02Z</time>
      </trkpt>
      <trkpt lat="45.86629" lon="6.49329">
        <ele>1178.8</ele>
        <time>2022-06-15T12:59:03Z</time>
      </trkpt>
      <trkpt lat="45.86631" lon="6.49328">
        <ele>1179</ele>
        <time>2022-06-15T12:59:04Z</time>
      </trkpt>
      <trkpt lat="45.86633" lon="6.49326">
        <ele>1179.2</ele>
        <time>2022-06-15T12:59:05Z</time>
      </trkpt>
      <trkpt lat="45.86636" lon="6.49325">
        <ele>1179.5</ele>
        <time>2022-06-15T12:59:06Z</time>
      </trkpt>
      <trkpt lat="45.86637" lon="6.49324">
        <ele>1179.7</ele>
        <time>2022-06-15T12:59:07Z</time>
      </trkpt>
      <trkpt lat="45.86639" lon="6.49322">
        <ele>1179.8</ele>
        <time>2022-06-15T12:59:08Z</time>
      </trkpt>
      <trkpt lat="45.86641" lon="6.4932">
        <ele>1179.8</ele>
        <time>2022-06-15T12:59:09Z</time>
      </trkpt>
      <trkpt lat="45.86643" lon="6.49319">
        <ele>1179.9</ele>
        <time>2022-06-15T12:59:10Z</time>
      </trkpt>
      <trkpt lat="45.86645" lon="6.49317">
        <ele>1179.9</ele>
        <time>2022-06-15T12:59:11Z</time>
      </trkpt>
      <trkpt lat="45.86647" lon="6.49316">
        <ele>1179.9</ele>
        <time>2022-06-15T12:59:12Z</time>
      </trkpt>
      <trkpt lat="45.86648" lon="6.49315">
        <ele>1180</ele>
        <time>2022-06-15T12:59:13Z</time>
      </trkpt>
      <trkpt lat="45.8665" lon="6.49314">
        <ele>1180.1</ele>
        <time>2022-06-15T12:59:14Z</time>
      </trkpt>
      <trkpt lat="45.86652" lon="6.49312">
        <ele>1180.2</ele>
        <time>2022-06-15T12:59:15Z</time>
      </trkpt>
      <trkpt lat="45.86654" lon="6.49311">
        <ele>1180.2</ele>
        <time>2022-06-15T12:59:16Z</time>
      </trkpt>
      <trkpt lat="45.86656" lon="6.49309">
        <ele>1180.2</ele>
        <time>2022-06-15T12:59:17Z</time>
      </trkpt>
      <trkpt lat="45.86658" lon="6.49307">
        <ele>1180.2</ele>
        <time>2022-06-15T12:59:18Z</time>
      </trkpt>
      <trkpt lat="45.86659" lon="6.49306">
        <ele>1180.2</ele>
        <time>2022-06-15T12:59:19Z</time>
      </trkpt>
      <trkpt lat="45.86661" lon="6.49305">
        <ele>1180.4</ele>
        <time>2022-06-15T12:59:20Z</time>
      </trkpt>
      <trkpt lat="45.86663" lon="6.49303">
        <ele>1180.6</ele>
        <time>2022-06-15T12:59:21Z</time>
      </trkpt>
      <trkpt lat="45.86665" lon="6.49301">
        <ele>1180.8</ele>
        <time>2022-06-15T12:59:22Z</time>
      </trkpt>
      <trkpt lat="45.86666" lon="6.49299">
        <ele>1181</ele>
        <time>2022-06-15T12:59:23Z</time>
      </trkpt>
      <trkpt lat="45.86668" lon="6.49297">
        <ele>1181.2</ele>
        <time>2022-06-15T12:59:24Z</time>
      </trkpt>
      <trkpt lat="45.86669" lon="6.49295">
        <ele>1181.5</ele>
        <time>2022-06-15T12:59:25Z</time>
      </trkpt>
      <trkpt lat="45.86671" lon="6.49293">
        <ele>1181.7</ele>
        <time>2022-06-15T12:59:26Z</time>
      </trkpt>
      <trkpt lat="45.86672" lon="6.49291">
        <ele>1182</ele>
        <time>2022-06-15T12:59:27Z</time>
      </trkpt>
      <trkpt lat="45.86674" lon="6.49288">
        <ele>1182.2</ele>
        <time>2022-06-15T12:59:28Z</time>
      </trkpt>
      <trkpt lat="45.86674" lon="6.49285">
        <ele>1182.4</ele>
        <time>2022-06-15T12:59:29Z</time>
      </trkpt>
      <trkpt lat="45.86675" lon="6.49282">
        <ele>1182.6</ele>
        <time>2022-06-15T12:59:30Z</time>
      </trkpt>
      <trkpt lat="45.86676" lon="6.49278">
        <ele>1182.7</ele>
        <time>2022-06-15T12:59:31Z</time>
      </trkpt>
      <trkpt lat="45.86677" lon="6.49275">
        <ele>1182.9</ele>
        <time>2022-06-15T12:59:32Z</time>
      </trkpt>
      <trkpt lat="45.86677" lon="6.49271">
        <ele>1183.1</ele>
        <time>2022-06-15T12:59:33Z</time>
      </trkpt>
      <trkpt lat="45.86678" lon="6.49268">
        <ele>1183.4</ele>
        <time>2022-06-15T12:59:34Z</time>
      </trkpt>
      <trkpt lat="45.86678" lon="6.49265">
        <ele>1183.6</ele>
        <time>2022-06-15T12:59:35Z</time>
      </trkpt>
      <trkpt lat="45.86679" lon="6.49261">
        <ele>1183.7</ele>
        <time>2022-06-15T12:59:36Z</time>
      </trkpt>
      <trkpt lat="45.86679" lon="6.49258">
        <ele>1183.9</ele>
        <time>2022-06-15T12:59:37Z</time>
      </trkpt>
      <trkpt lat="45.86679" lon="6.49255">
        <ele>1184</ele>
        <time>2022-06-15T12:59:38Z</time>
      </trkpt>
      <trkpt lat="45.86679" lon="6.49252">
        <ele>1184.1</ele>
        <time>2022-06-15T12:59:39Z</time>
      </trkpt>
      <trkpt lat="45.86679" lon="6.49249">
        <ele>1184.2</ele>
        <time>2022-06-15T12:59:40Z</time>
      </trkpt>
      <trkpt lat="45.86679" lon="6.49246">
        <ele>1184.3</ele>
        <time>2022-06-15T12:59:41Z</time>
      </trkpt>
      <trkpt lat="45.86679" lon="6.49242">
        <ele>1184.5</ele>
        <time>2022-06-15T12:59:42Z</time>
      </trkpt>
      <trkpt lat="45.86679" lon="6.49239">
        <ele>1184.6</ele>
        <time>2022-06-15T12:59:43Z</time>
      </trkpt>
      <trkpt lat="45.86679" lon="6.49236">
        <ele>1184.6</ele>
        <time>2022-06-15T12:59:44Z</time>
      </trkpt>
      <trkpt lat="45.86678" lon="6.49233">
        <ele>1184.6</ele>
        <time>2022-06-15T12:59:45Z</time>
      </trkpt>
      <trkpt lat="45.86678" lon="6.4923">
        <ele>1184.7</ele>
        <time>2022-06-15T12:59:46Z</time>
      </trkpt>
      <trkpt lat="45.86677" lon="6.49227">
        <ele>1184.7</ele>
        <time>2022-06-15T12:59:47Z</time>
      </trkpt>
      <trkpt lat="45.86676" lon="6.49224">
        <ele>1184.7</ele>
        <time>2022-06-15T12:59:48Z</time>
      </trkpt>
      <trkpt lat="45.86676" lon="6.49221">
        <ele>1184.8</ele>
        <time>2022-06-15T12:59:49Z</time>
      </trkpt>
      <trkpt lat="45.86676" lon="6.49218">
        <ele>1185.1</ele>
        <time>2022-06-15T12:59:50Z</time>
      </trkpt>
      <trkpt lat="45.86676" lon="6.49215">
        <ele>1185.5</ele>
        <time>2022-06-15T12:59:51Z</time>
      </trkpt>
      <trkpt lat="45.86676" lon="6.49212">
        <ele>1185.8</ele>
        <time>2022-06-15T12:59:52Z</time>
      </trkpt>
      <trkpt lat="45.86675" lon="6.49209">
        <ele>1186.2</ele>
        <time>2022-06-15T12:59:53Z</time>
      </trkpt>
      <trkpt lat="45.86675" lon="6.49205">
        <ele>1186.5</ele>
        <time>2022-06-15T12:59:54Z</time>
      </trkpt>
      <trkpt lat="45.86675" lon="6.49202">
        <ele>1186.9</ele>
        <time>2022-06-15T12:59:55Z</time>
      </trkpt>
      <trkpt lat="45.86675" lon="6.49199">
        <ele>1187.3</ele>
        <time>2022-06-15T12:59:56Z</time>
      </trkpt>
      <trkpt lat="45.86676" lon="6.49196">
        <ele>1187.8</ele>
        <time>2022-06-15T12:59:57Z</time>
      </trkpt>
      <trkpt lat="45.86676" lon="6.49192">
        <ele>1187.7</ele>
        <time>2022-06-15T12:59:58Z</time>
      </trkpt>
      <trkpt lat="45.86676" lon="6.49189">
        <ele>1187.4</ele>
        <time>2022-06-15T12:59:59Z</time>
      </trkpt>
      <trkpt lat="45.86676" lon="6.49186">
        <ele>1187.1</ele>
        <time>2022-06-15T13:00:00Z</time>
      </trkpt>
      <trkpt lat="45.86677" lon="6.49183">
        <ele>1187</ele>
        <time>2022-06-15T13:00:01Z</time>
      </trkpt>
      <trkpt lat="45.86678" lon="6.4918">
        <ele>1187</ele>
        <time>2022-06-15T13:00:02Z</time>
      </trkpt>
      <trkpt lat="45.8668" lon="6.49178">
        <ele>1187.2</ele>
        <time>2022-06-15T13:00:03Z</time>
      </trkpt>
      <trkpt lat="45.86681" lon="6.49175">
        <ele>1187.4</ele>
        <time>2022-06-15T13:00:04Z</time>
      </trkpt>
      <trkpt lat="45.86683" lon="6.49173">
        <ele>1187.8</ele>
        <time>2022-06-15T13:00:05Z</time>
      </trkpt>
      <trkpt lat="45.86685" lon="6.49172">
        <ele>1188.2</ele>
        <time>2022-06-15T13:00:06Z</time>
      </trkpt>
      <trkpt lat="45.86687" lon="6.49169">
        <ele>1188.6</ele>
        <time>2022-06-15T13:00:07Z</time>
      </trkpt>
      <trkpt lat="45.86689" lon="6.49167">
        <ele>1189.2</ele>
        <time>2022-06-15T13:00:08Z</time>
      </trkpt>
      <trkpt lat="45.86691" lon="6.49165">
        <ele>1189.3</ele>
        <time>2022-06-15T13:00:09Z</time>
      </trkpt>
      <trkpt lat="45.86693" lon="6.49163">
        <ele>1189.4</ele>
        <time>2022-06-15T13:00:10Z</time>
      </trkpt>
      <trkpt lat="45.86695" lon="6.49161">
        <ele>1189.4</ele>
        <time>2022-06-15T13:00:11Z</time>
      </trkpt>
      <trkpt lat="45.86698" lon="6.49159">
        <ele>1189.5</ele>
        <time>2022-06-15T13:00:12Z</time>
      </trkpt>
      <trkpt lat="45.867" lon="6.49157">
        <ele>1189.5</ele>
        <time>2022-06-15T13:00:13Z</time>
      </trkpt>
      <trkpt lat="45.86702" lon="6.49154">
        <ele>1189.6</ele>
        <time>2022-06-15T13:00:14Z</time>
      </trkpt>
      <trkpt lat="45.86705" lon="6.49152">
        <ele>1189.6</ele>
        <time>2022-06-15T13:00:15Z</time>
      </trkpt>
      <trkpt lat="45.86707" lon="6.49149">
        <ele>1189.8</ele>
        <time>2022-06-15T13:00:16Z</time>
      </trkpt>
      <trkpt lat="45.86709" lon="6.49147">
        <ele>1190</ele>
        <time>2022-06-15T13:00:17Z</time>
      </trkpt>
      <trkpt lat="45.86712" lon="6.49144">
        <ele>1190.2</ele>
        <time>2022-06-15T13:00:18Z</time>
      </trkpt>
      <trkpt lat="45.86714" lon="6.49142">
        <ele>1190.5</ele>
        <time>2022-06-15T13:00:19Z</time>
      </trkpt>
      <trkpt lat="45.86716" lon="6.49139">
        <ele>1190.9</ele>
        <time>2022-06-15T13:00:20Z</time>
      </trkpt>
      <trkpt lat="45.86719" lon="6.49137">
        <ele>1191.4</ele>
        <time>2022-06-15T13:00:21Z</time>
      </trkpt>
      <trkpt lat="45.86721" lon="6.49134">
        <ele>1191.7</ele>
        <time>2022-06-15T13:00:22Z</time>
      </trkpt>
      <trkpt lat="45.86724" lon="6.49131">
        <ele>1191.9</ele>
        <time>2022-06-15T13:00:23Z</time>
      </trkpt>
      <trkpt lat="45.86726" lon="6.49128">
        <ele>1191.7</ele>
        <time>2022-06-15T13:00:24Z</time>
      </trkpt>
      <trkpt lat="45.8673" lon="6.49124">
        <ele>1191.5</ele>
        <time>2022-06-15T13:00:25Z</time>
      </trkpt>
      <trkpt lat="45.86732" lon="6.49119">
        <ele>1190.7</ele>
        <time>2022-06-15T13:00:26Z</time>
      </trkpt>
      <trkpt lat="45.86735" lon="6.49113">
        <ele>1189.5</ele>
        <time>2022-06-15T13:00:27Z</time>
      </trkpt>
      <trkpt lat="45.86737" lon="6.49106">
        <ele>1188.9</ele>
        <time>2022-06-15T13:00:28Z</time>
      </trkpt>
      <trkpt lat="45.86738" lon="6.49099">
        <ele>1188.7</ele>
        <time>2022-06-15T13:00:29Z</time>
      </trkpt>
      <trkpt lat="45.86737" lon="6.49091">
        <ele>1188.3</ele>
        <time>2022-06-15T13:00:30Z</time>
      </trkpt>
      <trkpt lat="45.86735" lon="6.49084">
        <ele>1187.9</ele>
        <time>2022-06-15T13:00:31Z</time>
      </trkpt>
      <trkpt lat="45.86732" lon="6.49078">
        <ele>1189.9</ele>
        <time>2022-06-15T13:00:32Z</time>
      </trkpt>
      <trkpt lat="45.86729" lon="6.49074">
        <ele>1191.1</ele>
        <time>2022-06-15T13:00:33Z</time>
      </trkpt>
      <trkpt lat="45.86726" lon="6.49071">
        <ele>1191.6</ele>
        <time>2022-06-15T13:00:34Z</time>
      </trkpt>
      <trkpt lat="45.86723" lon="6.4907">
        <ele>1191.5</ele>
        <time>2022-06-15T13:00:35Z</time>
      </trkpt>
      <trkpt lat="45.8672" lon="6.49068">
        <ele>1191.4</ele>
        <time>2022-06-15T13:00:36Z</time>
      </trkpt>
      <trkpt lat="45.86717" lon="6.49067">
        <ele>1191.4</ele>
        <time>2022-06-15T13:00:37Z</time>
      </trkpt>
      <trkpt lat="45.86715" lon="6.49065">
        <ele>1191.3</ele>
        <time>2022-06-15T13:00:38Z</time>
      </trkpt>
      <trkpt lat="45.86712" lon="6.49063">
        <ele>1191.1</ele>
        <time>2022-06-15T13:00:39Z</time>
      </trkpt>
      <trkpt lat="45.8671" lon="6.49062">
        <ele>1191.1</ele>
        <time>2022-06-15T13:00:40Z</time>
      </trkpt>
      <trkpt lat="45.86707" lon="6.4906">
        <ele>1191.1</ele>
        <time>2022-06-15T13:00:41Z</time>
      </trkpt>
      <trkpt lat="45.86705" lon="6.49058">
        <ele>1191.1</ele>
        <time>2022-06-15T13:00:42Z</time>
      </trkpt>
      <trkpt lat="45.86703" lon="6.49055">
        <ele>1191.2</ele>
        <time>2022-06-15T13:00:43Z</time>
      </trkpt>
      <trkpt lat="45.86701" lon="6.49052">
        <ele>1191.3</ele>
        <time>2022-06-15T13:00:44Z</time>
      </trkpt>
      <trkpt lat="45.86699" lon="6.4905">
        <ele>1191.4</ele>
        <time>2022-06-15T13:00:45Z</time>
      </trkpt>
      <trkpt lat="45.86697" lon="6.49047">
        <ele>1191.5</ele>
        <time>2022-06-15T13:00:46Z</time>
      </trkpt>
      <trkpt lat="45.86695" lon="6.49044">
        <ele>1191.5</ele>
        <time>2022-06-15T13:00:47Z</time>
      </trkpt>
      <trkpt lat="45.86693" lon="6.49041">
        <ele>1191.9</ele>
        <time>2022-06-15T13:00:48Z</time>
      </trkpt>
      <trkpt lat="45.86691" lon="6.49038">
        <ele>1192.3</ele>
        <time>2022-06-15T13:00:49Z</time>
      </trkpt>
      <trkpt lat="45.86689" lon="6.49036">
        <ele>1192.7</ele>
        <time>2022-06-15T13:00:50Z</time>
      </trkpt>
      <trkpt lat="45.86688" lon="6.49033">
        <ele>1193.2</ele>
        <time>2022-06-15T13:00:51Z</time>
      </trkpt>
      <trkpt lat="45.86686" lon="6.4903">
        <ele>1193.5</ele>
        <time>2022-06-15T13:00:52Z</time>
      </trkpt>
      <trkpt lat="45.86684" lon="6.49028">
        <ele>1193.9</ele>
        <time>2022-06-15T13:00:53Z</time>
      </trkpt>
      <trkpt lat="45.86682" lon="6.49025">
        <ele>1194.2</ele>
        <time>2022-06-15T13:00:54Z</time>
      </trkpt>
      <trkpt lat="45.8668" lon="6.49023">
        <ele>1194.6</ele>
        <time>2022-06-15T13:00:55Z</time>
      </trkpt>
      <trkpt lat="45.86678" lon="6.4902">
        <ele>1194.9</ele>
        <time>2022-06-15T13:00:56Z</time>
      </trkpt>
      <trkpt lat="45.86676" lon="6.49018">
        <ele>1195.1</ele>
        <time>2022-06-15T13:00:57Z</time>
      </trkpt>
      <trkpt lat="45.86674" lon="6.49016">
        <ele>1195.4</ele>
        <time>2022-06-15T13:00:58Z</time>
      </trkpt>
      <trkpt lat="45.86672" lon="6.49014">
        <ele>1195.6</ele>
        <time>2022-06-15T13:00:59Z</time>
      </trkpt>
      <trkpt lat="45.8667" lon="6.49012">
        <ele>1195.8</ele>
        <time>2022-06-15T13:01:00Z</time>
      </trkpt>
      <trkpt lat="45.86667" lon="6.4901">
        <ele>1195.8</ele>
        <time>2022-06-15T13:01:01Z</time>
      </trkpt>
      <trkpt lat="45.86665" lon="6.49009">
        <ele>1195.9</ele>
        <time>2022-06-15T13:01:02Z</time>
      </trkpt>
      <trkpt lat="45.86663" lon="6.49007">
        <ele>1195.9</ele>
        <time>2022-06-15T13:01:03Z</time>
      </trkpt>
      <trkpt lat="45.86661" lon="6.49005">
        <ele>1195.9</ele>
        <time>2022-06-15T13:01:04Z</time>
      </trkpt>
      <trkpt lat="45.86659" lon="6.49003">
        <ele>1195.8</ele>
        <time>2022-06-15T13:01:05Z</time>
      </trkpt>
      <trkpt lat="45.86657" lon="6.49001">
        <ele>1195.7</ele>
        <time>2022-06-15T13:01:06Z</time>
      </trkpt>
      <trkpt lat="45.86655" lon="6.48999">
        <ele>1195.7</ele>
        <time>2022-06-15T13:01:07Z</time>
      </trkpt>
      <trkpt lat="45.86653" lon="6.48997">
        <ele>1195.9</ele>
        <time>2022-06-15T13:01:08Z</time>
      </trkpt>
      <trkpt lat="45.86651" lon="6.48994">
        <ele>1196</ele>
        <time>2022-06-15T13:01:09Z</time>
      </trkpt>
      <trkpt lat="45.8665" lon="6.48992">
        <ele>1196.2</ele>
        <time>2022-06-15T13:01:10Z</time>
      </trkpt>
      <trkpt lat="45.86648" lon="6.48989">
        <ele>1196.4</ele>
        <time>2022-06-15T13:01:11Z</time>
      </trkpt>
      <trkpt lat="45.86647" lon="6.48986">
        <ele>1196.5</ele>
        <time>2022-06-15T13:01:12Z</time>
      </trkpt>
      <trkpt lat="45.86645" lon="6.48984">
        <ele>1196.8</ele>
        <time>2022-06-15T13:01:13Z</time>
      </trkpt>
      <trkpt lat="45.86644" lon="6.4898">
        <ele>1197.1</ele>
        <time>2022-06-15T13:01:14Z</time>
      </trkpt>
      <trkpt lat="45.86643" lon="6.48977">
        <ele>1197.4</ele>
        <time>2022-06-15T13:01:15Z</time>
      </trkpt>
      <trkpt lat="45.86642" lon="6.48974">
        <ele>1197.8</ele>
        <time>2022-06-15T13:01:16Z</time>
      </trkpt>
      <trkpt lat="45.86641" lon="6.4897">
        <ele>1198.1</ele>
        <time>2022-06-15T13:01:17Z</time>
      </trkpt>
      <trkpt lat="45.86641" lon="6.48967">
        <ele>1198.3</ele>
        <time>2022-06-15T13:01:18Z</time>
      </trkpt>
      <trkpt lat="45.8664" lon="6.48963">
        <ele>1198.5</ele>
        <time>2022-06-15T13:01:19Z</time>
      </trkpt>
      <trkpt lat="45.86639" lon="6.4896">
        <ele>1198.6</ele>
        <time>2022-06-15T13:01:20Z</time>
      </trkpt>
      <trkpt lat="45.86638" lon="6.48957">
        <ele>1198.8</ele>
        <time>2022-06-15T13:01:21Z</time>
      </trkpt>
      <trkpt lat="45.86637" lon="6.48954">
        <ele>1198.9</ele>
        <time>2022-06-15T13:01:22Z</time>
      </trkpt>
      <trkpt lat="45.86635" lon="6.48952">
        <ele>1198.9</ele>
        <time>2022-06-15T13:01:23Z</time>
      </trkpt>
      <trkpt lat="45.86634" lon="6.48949">
        <ele>1199</ele>
        <time>2022-06-15T13:01:24Z</time>
      </trkpt>
      <trkpt lat="45.86633" lon="6.48946">
        <ele>1199.1</ele>
        <time>2022-06-15T13:01:25Z</time>
      </trkpt>
      <trkpt lat="45.86632" lon="6.48943">
        <ele>1199.3</ele>
        <time>2022-06-15T13:01:26Z</time>
      </trkpt>
      <trkpt lat="45.86631" lon="6.4894">
        <ele>1199.3</ele>
        <time>2022-06-15T13:01:27Z</time>
      </trkpt>
      <trkpt lat="45.8663" lon="6.48937">
        <ele>1199.4</ele>
        <time>2022-06-15T13:01:28Z</time>
      </trkpt>
      <trkpt lat="45.86629" lon="6.48934">
        <ele>1199.4</ele>
        <time>2022-06-15T13:01:29Z</time>
      </trkpt>
      <trkpt lat="45.86628" lon="6.48931">
        <ele>1199.6</ele>
        <time>2022-06-15T13:01:30Z</time>
      </trkpt>
      <trkpt lat="45.86628" lon="6.48928">
        <ele>1199.9</ele>
        <time>2022-06-15T13:01:31Z</time>
      </trkpt>
      <trkpt lat="45.86627" lon="6.48925">
        <ele>1200.1</ele>
        <time>2022-06-15T13:01:32Z</time>
      </trkpt>
      <trkpt lat="45.86627" lon="6.48922">
        <ele>1200.4</ele>
        <time>2022-06-15T13:01:33Z</time>
      </trkpt>
      <trkpt lat="45.86627" lon="6.48918">
        <ele>1200.7</ele>
        <time>2022-06-15T13:01:34Z</time>
      </trkpt>
      <trkpt lat="45.86626" lon="6.48915">
        <ele>1200.9</ele>
        <time>2022-06-15T13:01:35Z</time>
      </trkpt>
      <trkpt lat="45.86626" lon="6.48912">
        <ele>1201</ele>
        <time>2022-06-15T13:01:36Z</time>
      </trkpt>
      <trkpt lat="45.86626" lon="6.48909">
        <ele>1201</ele>
        <time>2022-06-15T13:01:37Z</time>
      </trkpt>
      <trkpt lat="45.86626" lon="6.48906">
        <ele>1201.2</ele>
        <time>2022-06-15T13:01:38Z</time>
      </trkpt>
      <trkpt lat="45.86626" lon="6.48903">
        <ele>1201.3</ele>
        <time>2022-06-15T13:01:39Z</time>
      </trkpt>
      <trkpt lat="45.86627" lon="6.48899">
        <ele>1201.5</ele>
        <time>2022-06-15T13:01:40Z</time>
      </trkpt>
      <trkpt lat="45.86627" lon="6.48896">
        <ele>1201.7</ele>
        <time>2022-06-15T13:01:41Z</time>
      </trkpt>
      <trkpt lat="45.86628" lon="6.48893">
        <ele>1202</ele>
        <time>2022-06-15T13:01:42Z</time>
      </trkpt>
      <trkpt lat="45.86628" lon="6.4889">
        <ele>1202.2</ele>
        <time>2022-06-15T13:01:43Z</time>
      </trkpt>
      <trkpt lat="45.86629" lon="6.48887">
        <ele>1202.4</ele>
        <time>2022-06-15T13:01:44Z</time>
      </trkpt>
      <trkpt lat="45.86629" lon="6.48884">
        <ele>1202.6</ele>
        <time>2022-06-15T13:01:45Z</time>
      </trkpt>
      <trkpt lat="45.8663" lon="6.48881">
        <ele>1202.7</ele>
        <time>2022-06-15T13:01:46Z</time>
      </trkpt>
      <trkpt lat="45.8663" lon="6.48878">
        <ele>1202.8</ele>
        <time>2022-06-15T13:01:47Z</time>
      </trkpt>
      <trkpt lat="45.86631" lon="6.48876">
        <ele>1203</ele>
        <time>2022-06-15T13:01:48Z</time>
      </trkpt>
      <trkpt lat="45.86631" lon="6.48873">
        <ele>1203.2</ele>
        <time>2022-06-15T13:01:49Z</time>
      </trkpt>
      <trkpt lat="45.86632" lon="6.4887">
        <ele>1203.4</ele>
        <time>2022-06-15T13:01:50Z</time>
      </trkpt>
      <trkpt lat="45.86633" lon="6.48867">
        <ele>1203.6</ele>
        <time>2022-06-15T13:01:51Z</time>
      </trkpt>
      <trkpt lat="45.86634" lon="6.48864">
        <ele>1203.8</ele>
        <time>2022-06-15T13:01:52Z</time>
      </trkpt>
      <trkpt lat="45.86635" lon="6.48861">
        <ele>1204.1</ele>
        <time>2022-06-15T13:01:53Z</time>
      </trkpt>
      <trkpt lat="45.86635" lon="6.48858">
        <ele>1204.2</ele>
        <time>2022-06-15T13:01:54Z</time>
      </trkpt>
      <trkpt lat="45.86636" lon="6.48856">
        <ele>1204.4</ele>
        <time>2022-06-15T13:01:55Z</time>
      </trkpt>
      <trkpt lat="45.86637" lon="6.48853">
        <ele>1204.6</ele>
        <time>2022-06-15T13:01:56Z</time>
      </trkpt>
      <trkpt lat="45.86638" lon="6.48851">
        <ele>1204.9</ele>
        <time>2022-06-15T13:01:57Z</time>
      </trkpt>
      <trkpt lat="45.8664" lon="6.48849">
        <ele>1205.1</ele>
        <time>2022-06-15T13:01:58Z</time>
      </trkpt>
      <trkpt lat="45.86641" lon="6.48846">
        <ele>1205.3</ele>
        <time>2022-06-15T13:01:59Z</time>
      </trkpt>
      <trkpt lat="45.86643" lon="6.48844">
        <ele>1205.4</ele>
        <time>2022-06-15T13:02:00Z</time>
      </trkpt>
      <trkpt lat="45.86644" lon="6.48842">
        <ele>1205.6</ele>
        <time>2022-06-15T13:02:01Z</time>
      </trkpt>
      <trkpt lat="45.86645" lon="6.4884">
        <ele>1205.7</ele>
        <time>2022-06-15T13:02:02Z</time>
      </trkpt>
      <trkpt lat="45.86647" lon="6.48837">
        <ele>1205.9</ele>
        <time>2022-06-15T13:02:03Z</time>
      </trkpt>
      <trkpt lat="45.86648" lon="6.48835">
        <ele>1206</ele>
        <time>2022-06-15T13:02:04Z</time>
      </trkpt>
      <trkpt lat="45.8665" lon="6.48833">
        <ele>1206.2</ele>
        <time>2022-06-15T13:02:05Z</time>
      </trkpt>
      <trkpt lat="45.86652" lon="6.48831">
        <ele>1206.4</ele>
        <time>2022-06-15T13:02:06Z</time>
      </trkpt>
      <trkpt lat="45.86653" lon="6.48829">
        <ele>1206.5</ele>
        <time>2022-06-15T13:02:07Z</time>
      </trkpt>
      <trkpt lat="45.86655" lon="6.48827">
        <ele>1206.8</ele>
        <time>2022-06-15T13:02:08Z</time>
      </trkpt>
      <trkpt lat="45.86657" lon="6.48825">
        <ele>1207</ele>
        <time>2022-06-15T13:02:09Z</time>
      </trkpt>
      <trkpt lat="45.86658" lon="6.48823">
        <ele>1207.2</ele>
        <time>2022-06-15T13:02:10Z</time>
      </trkpt>
      <trkpt lat="45.86659" lon="6.4882">
        <ele>1207.4</ele>
        <time>2022-06-15T13:02:11Z</time>
      </trkpt>
      <trkpt lat="45.86659" lon="6.48817">
        <ele>1207.5</ele>
        <time>2022-06-15T13:02:12Z</time>
      </trkpt>
      <trkpt lat="45.8666" lon="6.48815">
        <ele>1207.6</ele>
        <time>2022-06-15T13:02:13Z</time>
      </trkpt>
      <trkpt lat="45.86661" lon="6.48812">
        <ele>1207.8</ele>
        <time>2022-06-15T13:02:14Z</time>
      </trkpt>
      <trkpt lat="45.86662" lon="6.48808">
        <ele>1208</ele>
        <time>2022-06-15T13:02:15Z</time>
      </trkpt>
      <trkpt lat="45.86662" lon="6.48806">
        <ele>1208.2</ele>
        <time>2022-06-15T13:02:16Z</time>
      </trkpt>
      <trkpt lat="45.86663" lon="6.48803">
        <ele>1208.4</ele>
        <time>2022-06-15T13:02:17Z</time>
      </trkpt>
      <trkpt lat="45.86664" lon="6.48799">
        <ele>1208.5</ele>
        <time>2022-06-15T13:02:18Z</time>
      </trkpt>
      <trkpt lat="45.86665" lon="6.48796">
        <ele>1208.7</ele>
        <time>2022-06-15T13:02:19Z</time>
      </trkpt>
      <trkpt lat="45.86666" lon="6.48793">
        <ele>1208.9</ele>
        <time>2022-06-15T13:02:20Z</time>
      </trkpt>
      <trkpt lat="45.86667" lon="6.4879">
        <ele>1209.1</ele>
        <time>2022-06-15T13:02:21Z</time>
      </trkpt>
      <trkpt lat="45.86669" lon="6.48787">
        <ele>1209.3</ele>
        <time>2022-06-15T13:02:22Z</time>
      </trkpt>
      <trkpt lat="45.86671" lon="6.48784">
        <ele>1209.6</ele>
        <time>2022-06-15T13:02:23Z</time>
      </trkpt>
      <trkpt lat="45.86672" lon="6.48782">
        <ele>1209.8</ele>
        <time>2022-06-15T13:02:24Z</time>
      </trkpt>
      <trkpt lat="45.86675" lon="6.48779">
        <ele>1210.2</ele>
        <time>2022-06-15T13:02:25Z</time>
      </trkpt>
      <trkpt lat="45.86677" lon="6.48777">
        <ele>1210.5</ele>
        <time>2022-06-15T13:02:26Z</time>
      </trkpt>
      <trkpt lat="45.8668" lon="6.48774">
        <ele>1210.7</ele>
        <time>2022-06-15T13:02:27Z</time>
      </trkpt>
      <trkpt lat="45.86683" lon="6.48772">
        <ele>1211</ele>
        <time>2022-06-15T13:02:28Z</time>
      </trkpt>
      <trkpt lat="45.86686" lon="6.48769">
        <ele>1211.3</ele>
        <time>2022-06-15T13:02:29Z</time>
      </trkpt>
      <trkpt lat="45.86688" lon="6.48766">
        <ele>1211.6</ele>
        <time>2022-06-15T13:02:30Z</time>
      </trkpt>
      <trkpt lat="45.8669" lon="6.48762">
        <ele>1211.8</ele>
        <time>2022-06-15T13:02:31Z</time>
      </trkpt>
      <trkpt lat="45.86692" lon="6.48759">
        <ele>1211.8</ele>
        <time>2022-06-15T13:02:32Z</time>
      </trkpt>
      <trkpt lat="45.86692" lon="6.48754">
        <ele>1211.7</ele>
        <time>2022-06-15T13:02:33Z</time>
      </trkpt>
      <trkpt lat="45.86692" lon="6.4875">
        <ele>1211.6</ele>
        <time>2022-06-15T13:02:34Z</time>
      </trkpt>
      <trkpt lat="45.86692" lon="6.48747">
        <ele>1212.1</ele>
        <time>2022-06-15T13:02:35Z</time>
      </trkpt>
      <trkpt lat="45.86692" lon="6.48743">
        <ele>1212.6</ele>
        <time>2022-06-15T13:02:36Z</time>
      </trkpt>
      <trkpt lat="45.86692" lon="6.4874">
        <ele>1213</ele>
        <time>2022-06-15T13:02:37Z</time>
      </trkpt>
      <trkpt lat="45.86692" lon="6.48737">
        <ele>1213.4</ele>
        <time>2022-06-15T13:02:38Z</time>
      </trkpt>
      <trkpt lat="45.86691" lon="6.48733">
        <ele>1213.8</ele>
        <time>2022-06-15T13:02:39Z</time>
      </trkpt>
      <trkpt lat="45.86691" lon="6.4873">
        <ele>1214.2</ele>
        <time>2022-06-15T13:02:40Z</time>
      </trkpt>
      <trkpt lat="45.8669" lon="6.48727">
        <ele>1214.5</ele>
        <time>2022-06-15T13:02:41Z</time>
      </trkpt>
      <trkpt lat="45.8669" lon="6.48724">
        <ele>1214.9</ele>
        <time>2022-06-15T13:02:42Z</time>
      </trkpt>
      <trkpt lat="45.86689" lon="6.48721">
        <ele>1215</ele>
        <time>2022-06-15T13:02:43Z</time>
      </trkpt>
      <trkpt lat="45.86689" lon="6.48718">
        <ele>1215</ele>
        <time>2022-06-15T13:02:44Z</time>
      </trkpt>
      <trkpt lat="45.86688" lon="6.48714">
        <ele>1214.9</ele>
        <time>2022-06-15T13:02:45Z</time>
      </trkpt>
      <trkpt lat="45.86688" lon="6.48711">
        <ele>1214.9</ele>
        <time>2022-06-15T13:02:46Z</time>
      </trkpt>
      <trkpt lat="45.86688" lon="6.48708">
        <ele>1214.9</ele>
        <time>2022-06-15T13:02:47Z</time>
      </trkpt>
      <trkpt lat="45.86687" lon="6.48705">
        <ele>1214.8</ele>
        <time>2022-06-15T13:02:48Z</time>
      </trkpt>
      <trkpt lat="45.86687" lon="6.48702">
        <ele>1214.8</ele>
        <time>2022-06-15T13:02:49Z</time>
      </trkpt>
      <trkpt lat="45.86687" lon="6.48698">
        <ele>1214.8</ele>
        <time>2022-06-15T13:02:50Z</time>
      </trkpt>
      <trkpt lat="45.86686" lon="6.48695">
        <ele>1214.8</ele>
        <time>2022-06-15T13:02:51Z</time>
      </trkpt>
      <trkpt lat="45.86686" lon="6.48692">
        <ele>1214.8</ele>
        <time>2022-06-15T13:02:52Z</time>
      </trkpt>
      <trkpt lat="45.86686" lon="6.48688">
        <ele>1214.8</ele>
        <time>2022-06-15T13:02:53Z</time>
      </trkpt>
      <trkpt lat="45.86686" lon="6.48685">
        <ele>1214.8</ele>
        <time>2022-06-15T13:02:54Z</time>
      </trkpt>
      <trkpt lat="45.86685" lon="6.48682">
        <ele>1214.8</ele>
        <time>2022-06-15T13:02:55Z</time>
      </trkpt>
      <trkpt lat="45.86685" lon="6.48678">
        <ele>1214.9</ele>
        <time>2022-06-15T13:02:56Z</time>
      </trkpt>
      <trkpt lat="45.86686" lon="6.48675">
        <ele>1215.1</ele>
        <time>2022-06-15T13:02:57Z</time>
      </trkpt>
      <trkpt lat="45.86687" lon="6.48672">
        <ele>1215.3</ele>
        <time>2022-06-15T13:02:58Z</time>
      </trkpt>
      <trkpt lat="45.86688" lon="6.4867">
        <ele>1215.6</ele>
        <time>2022-06-15T13:02:59Z</time>
      </trkpt>
      <trkpt lat="45.8669" lon="6.48667">
        <ele>1215.9</ele>
        <time>2022-06-15T13:03:00Z</time>
      </trkpt>
      <trkpt lat="45.86692" lon="6.48665">
        <ele>1216.4</ele>
        <time>2022-06-15T13:03:01Z</time>
      </trkpt>
      <trkpt lat="45.86694" lon="6.48665">
        <ele>1216.9</ele>
        <time>2022-06-15T13:03:02Z</time>
      </trkpt>
      <trkpt lat="45.86696" lon="6.48664">
        <ele>1217.5</ele>
        <time>2022-06-15T13:03:03Z</time>
      </trkpt>
      <trkpt lat="45.86698" lon="6.48665">
        <ele>1218</ele>
        <time>2022-06-15T13:03:04Z</time>
      </trkpt>
      <trkpt lat="45.867" lon="6.48666">
        <ele>1218.3</ele>
        <time>2022-06-15T13:03:05Z</time>
      </trkpt>
      <trkpt lat="45.86701" lon="6.48669">
        <ele>1218.6</ele>
        <time>2022-06-15T13:03:06Z</time>
      </trkpt>
      <trkpt lat="45.86703" lon="6.48671">
        <ele>1218.9</ele>
        <time>2022-06-15T13:03:07Z</time>
      </trkpt>
      <trkpt lat="45.86703" lon="6.48674">
        <ele>1218.9</ele>
        <time>2022-06-15T13:03:08Z</time>
      </trkpt>
      <trkpt lat="45.86704" lon="6.48677">
        <ele>1219</ele>
        <time>2022-06-15T13:03:09Z</time>
      </trkpt>
      <trkpt lat="45.86705" lon="6.4868">
        <ele>1219.1</ele>
        <time>2022-06-15T13:03:10Z</time>
      </trkpt>
      <trkpt lat="45.86705" lon="6.48683">
        <ele>1219.1</ele>
        <time>2022-06-15T13:03:11Z</time>
      </trkpt>
      <trkpt lat="45.86706" lon="6.48686">
        <ele>1219.2</ele>
        <time>2022-06-15T13:03:12Z</time>
      </trkpt>
      <trkpt lat="45.86706" lon="6.48689">
        <ele>1219.1</ele>
        <time>2022-06-15T13:03:13Z</time>
      </trkpt>
      <trkpt lat="45.86706" lon="6.48692">
        <ele>1219.1</ele>
        <time>2022-06-15T13:03:14Z</time>
      </trkpt>
      <trkpt lat="45.86707" lon="6.48696">
        <ele>1219</ele>
        <time>2022-06-15T13:03:15Z</time>
      </trkpt>
      <trkpt lat="45.86707" lon="6.48699">
        <ele>1219</ele>
        <time>2022-06-15T13:03:16Z</time>
      </trkpt>
      <trkpt lat="45.86707" lon="6.48702">
        <ele>1219.1</ele>
        <time>2022-06-15T13:03:17Z</time>
      </trkpt>
      <trkpt lat="45.86708" lon="6.48705">
        <ele>1219.2</ele>
        <time>2022-06-15T13:03:18Z</time>
      </trkpt>
      <trkpt lat="45.86709" lon="6.48708">
        <ele>1219.3</ele>
        <time>2022-06-15T13:03:19Z</time>
      </trkpt>
      <trkpt lat="45.86709" lon="6.48711">
        <ele>1219.4</ele>
        <time>2022-06-15T13:03:20Z</time>
      </trkpt>
      <trkpt lat="45.8671" lon="6.48714">
        <ele>1219.6</ele>
        <time>2022-06-15T13:03:21Z</time>
      </trkpt>
      <trkpt lat="45.86712" lon="6.48717">
        <ele>1219.8</ele>
        <time>2022-06-15T13:03:22Z</time>
      </trkpt>
      <trkpt lat="45.86713" lon="6.48719">
        <ele>1220</ele>
        <time>2022-06-15T13:03:23Z</time>
      </trkpt>
      <trkpt lat="45.86714" lon="6.48722">
        <ele>1220.2</ele>
        <time>2022-06-15T13:03:24Z</time>
      </trkpt>
      <trkpt lat="45.86715" lon="6.48724">
        <ele>1220.3</ele>
        <time>2022-06-15T13:03:25Z</time>
      </trkpt>
      <trkpt lat="45.86717" lon="6.48727">
        <ele>1220.4</ele>
        <time>2022-06-15T13:03:26Z</time>
      </trkpt>
      <trkpt lat="45.86718" lon="6.48729">
        <ele>1220.5</ele>
        <time>2022-06-15T13:03:27Z</time>
      </trkpt>
      <trkpt lat="45.8672" lon="6.48731">
        <ele>1220.7</ele>
        <time>2022-06-15T13:03:28Z</time>
      </trkpt>
      <trkpt lat="45.86721" lon="6.48734">
        <ele>1220.9</ele>
        <time>2022-06-15T13:03:29Z</time>
      </trkpt>
      <trkpt lat="45.86723" lon="6.48736">
        <ele>1221.1</ele>
        <time>2022-06-15T13:03:30Z</time>
      </trkpt>
      <trkpt lat="45.86724" lon="6.48739">
        <ele>1221.4</ele>
        <time>2022-06-15T13:03:31Z</time>
      </trkpt>
      <trkpt lat="45.86725" lon="6.48742">
        <ele>1221.5</ele>
        <time>2022-06-15T13:03:32Z</time>
      </trkpt>
      <trkpt lat="45.86727" lon="6.48744">
        <ele>1221.7</ele>
        <time>2022-06-15T13:03:33Z</time>
      </trkpt>
      <trkpt lat="45.86728" lon="6.48747">
        <ele>1221.9</ele>
        <time>2022-06-15T13:03:34Z</time>
      </trkpt>
      <trkpt lat="45.86729" lon="6.4875">
        <ele>1222.1</ele>
        <time>2022-06-15T13:03:35Z</time>
      </trkpt>
      <trkpt lat="45.8673" lon="6.48753">
        <ele>1222.6</ele>
        <time>2022-06-15T13:03:36Z</time>
      </trkpt>
      <trkpt lat="45.8673" lon="6.48756">
        <ele>1223.1</ele>
        <time>2022-06-15T13:03:37Z</time>
      </trkpt>
      <trkpt lat="45.8673" lon="6.4876">
        <ele>1223.5</ele>
        <time>2022-06-15T13:03:38Z</time>
      </trkpt>
      <trkpt lat="45.86731" lon="6.48763">
        <ele>1223.9</ele>
        <time>2022-06-15T13:03:39Z</time>
      </trkpt>
      <trkpt lat="45.86731" lon="6.48766">
        <ele>1224.3</ele>
        <time>2022-06-15T13:03:40Z</time>
      </trkpt>
      <trkpt lat="45.86731" lon="6.48769">
        <ele>1224.7</ele>
        <time>2022-06-15T13:03:41Z</time>
      </trkpt>
      <trkpt lat="45.86731" lon="6.48772">
        <ele>1225</ele>
        <time>2022-06-15T13:03:42Z</time>
      </trkpt>
      <trkpt lat="45.86731" lon="6.48776">
        <ele>1225.3</ele>
        <time>2022-06-15T13:03:43Z</time>
      </trkpt>
      <trkpt lat="45.86731" lon="6.48779">
        <ele>1225.6</ele>
        <time>2022-06-15T13:03:44Z</time>
      </trkpt>
      <trkpt lat="45.86732" lon="6.48782">
        <ele>1225.8</ele>
        <time>2022-06-15T13:03:45Z</time>
      </trkpt>
      <trkpt lat="45.86732" lon="6.48785">
        <ele>1225.9</ele>
        <time>2022-06-15T13:03:46Z</time>
      </trkpt>
      <trkpt lat="45.86732" lon="6.48788">
        <ele>1226.1</ele>
        <time>2022-06-15T13:03:47Z</time>
      </trkpt>
      <trkpt lat="45.86732" lon="6.48792">
        <ele>1226.3</ele>
        <time>2022-06-15T13:03:48Z</time>
      </trkpt>
      <trkpt lat="45.86733" lon="6.48795">
        <ele>1226.5</ele>
        <time>2022-06-15T13:03:49Z</time>
      </trkpt>
      <trkpt lat="45.86733" lon="6.48798">
        <ele>1226.8</ele>
        <time>2022-06-15T13:03:50Z</time>
      </trkpt>
      <trkpt lat="45.86734" lon="6.48801">
        <ele>1227.1</ele>
        <time>2022-06-15T13:03:51Z</time>
      </trkpt>
      <trkpt lat="45.86734" lon="6.48804">
        <ele>1227.5</ele>
        <time>2022-06-15T13:03:52Z</time>
      </trkpt>
      <trkpt lat="45.86735" lon="6.48807">
        <ele>1227.6</ele>
        <time>2022-06-15T13:03:53Z</time>
      </trkpt>
      <trkpt lat="45.86735" lon="6.4881">
        <ele>1227.5</ele>
        <time>2022-06-15T13:03:54Z</time>
      </trkpt>
      <trkpt lat="45.86735" lon="6.48813">
        <ele>1227.4</ele>
        <time>2022-06-15T13:03:55Z</time>
      </trkpt>
      <trkpt lat="45.86736" lon="6.48815">
        <ele>1227.4</ele>
        <time>2022-06-15T13:03:56Z</time>
      </trkpt>
      <trkpt lat="45.86737" lon="6.48818">
        <ele>1227.6</ele>
        <time>2022-06-15T13:03:57Z</time>
      </trkpt>
      <trkpt lat="45.86738" lon="6.48821">
        <ele>1227.7</ele>
        <time>2022-06-15T13:03:58Z</time>
      </trkpt>
      <trkpt lat="45.86739" lon="6.48823">
        <ele>1227.9</ele>
        <time>2022-06-15T13:03:59Z</time>
      </trkpt>
      <trkpt lat="45.86741" lon="6.48826">
        <ele>1228.2</ele>
        <time>2022-06-15T13:04:00Z</time>
      </trkpt>
      <trkpt lat="45.86742" lon="6.48828">
        <ele>1228.3</ele>
        <time>2022-06-15T13:04:01Z</time>
      </trkpt>
      <trkpt lat="45.86743" lon="6.48831">
        <ele>1228.5</ele>
        <time>2022-06-15T13:04:02Z</time>
      </trkpt>
      <trkpt lat="45.86744" lon="6.48833">
        <ele>1228.6</ele>
        <time>2022-06-15T13:04:03Z</time>
      </trkpt>
      <trkpt lat="45.86745" lon="6.48836">
        <ele>1228.8</ele>
        <time>2022-06-15T13:04:04Z</time>
      </trkpt>
      <trkpt lat="45.86746" lon="6.48838">
        <ele>1229.1</ele>
        <time>2022-06-15T13:04:05Z</time>
      </trkpt>
      <trkpt lat="45.86748" lon="6.48841">
        <ele>1229.3</ele>
        <time>2022-06-15T13:04:06Z</time>
      </trkpt>
      <trkpt lat="45.86749" lon="6.48843">
        <ele>1229.6</ele>
        <time>2022-06-15T13:04:07Z</time>
      </trkpt>
      <trkpt lat="45.86751" lon="6.48845">
        <ele>1229.9</ele>
        <time>2022-06-15T13:04:08Z</time>
      </trkpt>
      <trkpt lat="45.86752" lon="6.48847">
        <ele>1230.1</ele>
        <time>2022-06-15T13:04:09Z</time>
      </trkpt>
      <trkpt lat="45.86753" lon="6.48849">
        <ele>1230.4</ele>
        <time>2022-06-15T13:04:10Z</time>
      </trkpt>
      <trkpt lat="45.86755" lon="6.48851">
        <ele>1230.7</ele>
        <time>2022-06-15T13:04:11Z</time>
      </trkpt>
      <trkpt lat="45.86756" lon="6.48854">
        <ele>1230.9</ele>
        <time>2022-06-15T13:04:12Z</time>
      </trkpt>
      <trkpt lat="45.86758" lon="6.48856">
        <ele>1231.1</ele>
        <time>2022-06-15T13:04:13Z</time>
      </trkpt>
      <trkpt lat="45.86759" lon="6.48858">
        <ele>1231.3</ele>
        <time>2022-06-15T13:04:14Z</time>
      </trkpt>
      <trkpt lat="45.86761" lon="6.4886">
        <ele>1231.5</ele>
        <time>2022-06-15T13:04:15Z</time>
      </trkpt>
      <trkpt lat="45.86762" lon="6.48862">
        <ele>1231.8</ele>
        <time>2022-06-15T13:04:16Z</time>
      </trkpt>
      <trkpt lat="45.86763" lon="6.48865">
        <ele>1232</ele>
        <time>2022-06-15T13:04:17Z</time>
      </trkpt>
      <trkpt lat="45.86765" lon="6.48867">
        <ele>1232.2</ele>
        <time>2022-06-15T13:04:18Z</time>
      </trkpt>
      <trkpt lat="45.86766" lon="6.4887">
        <ele>1232.3</ele>
        <time>2022-06-15T13:04:19Z</time>
      </trkpt>
      <trkpt lat="45.86767" lon="6.48873">
        <ele>1232.5</ele>
        <time>2022-06-15T13:04:20Z</time>
      </trkpt>
      <trkpt lat="45.86768" lon="6.48875">
        <ele>1232.5</ele>
        <time>2022-06-15T13:04:21Z</time>
      </trkpt>
      <trkpt lat="45.86769" lon="6.48878">
        <ele>1232.6</ele>
        <time>2022-06-15T13:04:22Z</time>
      </trkpt>
      <trkpt lat="45.86769" lon="6.48881">
        <ele>1232.5</ele>
        <time>2022-06-15T13:04:23Z</time>
      </trkpt>
      <trkpt lat="45.8677" lon="6.48884">
        <ele>1232.5</ele>
        <time>2022-06-15T13:04:24Z</time>
      </trkpt>
      <trkpt lat="45.86771" lon="6.48887">
        <ele>1232.5</ele>
        <time>2022-06-15T13:04:25Z</time>
      </trkpt>
      <trkpt lat="45.86772" lon="6.48889">
        <ele>1232.5</ele>
        <time>2022-06-15T13:04:26Z</time>
      </trkpt>
      <trkpt lat="45.86773" lon="6.48892">
        <ele>1232.7</ele>
        <time>2022-06-15T13:04:27Z</time>
      </trkpt>
      <trkpt lat="45.86774" lon="6.48894">
        <ele>1233</ele>
        <time>2022-06-15T13:04:28Z</time>
      </trkpt>
      <trkpt lat="45.86776" lon="6.48896">
        <ele>1233.2</ele>
        <time>2022-06-15T13:04:29Z</time>
      </trkpt>
      <trkpt lat="45.86777" lon="6.48898">
        <ele>1233.5</ele>
        <time>2022-06-15T13:04:30Z</time>
      </trkpt>
      <trkpt lat="45.86779" lon="6.48901">
        <ele>1233.7</ele>
        <time>2022-06-15T13:04:31Z</time>
      </trkpt>
      <trkpt lat="45.8678" lon="6.48903">
        <ele>1234</ele>
        <time>2022-06-15T13:04:32Z</time>
      </trkpt>
      <trkpt lat="45.86782" lon="6.48905">
        <ele>1234.1</ele>
        <time>2022-06-15T13:04:33Z</time>
      </trkpt>
      <trkpt lat="45.86784" lon="6.48906">
        <ele>1234.4</ele>
        <time>2022-06-15T13:04:34Z</time>
      </trkpt>
      <trkpt lat="45.86785" lon="6.48907">
        <ele>1234.6</ele>
        <time>2022-06-15T13:04:35Z</time>
      </trkpt>
      <trkpt lat="45.86787" lon="6.48908">
        <ele>1234.9</ele>
        <time>2022-06-15T13:04:36Z</time>
      </trkpt>
      <trkpt lat="45.86789" lon="6.4891">
        <ele>1235.1</ele>
        <time>2022-06-15T13:04:37Z</time>
      </trkpt>
      <trkpt lat="45.86791" lon="6.48911">
        <ele>1235.2</ele>
        <time>2022-06-15T13:04:38Z</time>
      </trkpt>
      <trkpt lat="45.86793" lon="6.48913">
        <ele>1235.4</ele>
        <time>2022-06-15T13:04:39Z</time>
      </trkpt>
      <trkpt lat="45.86795" lon="6.48914">
        <ele>1235.6</ele>
        <time>2022-06-15T13:04:40Z</time>
      </trkpt>
      <trkpt lat="45.86797" lon="6.48915">
        <ele>1235.9</ele>
        <time>2022-06-15T13:04:41Z</time>
      </trkpt>
      <trkpt lat="45.86799" lon="6.48915">
        <ele>1236.1</ele>
        <time>2022-06-15T13:04:42Z</time>
      </trkpt>
      <trkpt lat="45.86801" lon="6.48917">
        <ele>1236.3</ele>
        <time>2022-06-15T13:04:43Z</time>
      </trkpt>
      <trkpt lat="45.86802" lon="6.48918">
        <ele>1236.3</ele>
        <time>2022-06-15T13:04:44Z</time>
      </trkpt>
      <trkpt lat="45.86804" lon="6.4892">
        <ele>1236.4</ele>
        <time>2022-06-15T13:04:45Z</time>
      </trkpt>
      <trkpt lat="45.86806" lon="6.48922">
        <ele>1236.4</ele>
        <time>2022-06-15T13:04:46Z</time>
      </trkpt>
      <trkpt lat="45.86808" lon="6.48924">
        <ele>1236.5</ele>
        <time>2022-06-15T13:04:47Z</time>
      </trkpt>
      <trkpt lat="45.86809" lon="6.48926">
        <ele>1236.7</ele>
        <time>2022-06-15T13:04:48Z</time>
      </trkpt>
      <trkpt lat="45.86811" lon="6.48928">
        <ele>1236.8</ele>
        <time>2022-06-15T13:04:49Z</time>
      </trkpt>
      <trkpt lat="45.86813" lon="6.4893">
        <ele>1237</ele>
        <time>2022-06-15T13:04:50Z</time>
      </trkpt>
      <trkpt lat="45.86814" lon="6.48932">
        <ele>1237.1</ele>
        <time>2022-06-15T13:04:51Z</time>
      </trkpt>
      <trkpt lat="45.86816" lon="6.48934">
        <ele>1237.2</ele>
        <time>2022-06-15T13:04:52Z</time>
      </trkpt>
      <trkpt lat="45.86818" lon="6.48936">
        <ele>1237.3</ele>
        <time>2022-06-15T13:04:53Z</time>
      </trkpt>
      <trkpt lat="45.86819" lon="6.48938">
        <ele>1237.3</ele>
        <time>2022-06-15T13:04:54Z</time>
      </trkpt>
      <trkpt lat="45.86821" lon="6.4894">
        <ele>1237.4</ele>
        <time>2022-06-15T13:04:55Z</time>
      </trkpt>
      <trkpt lat="45.86822" lon="6.48943">
        <ele>1237.4</ele>
        <time>2022-06-15T13:04:56Z</time>
      </trkpt>
      <trkpt lat="45.86824" lon="6.48945">
        <ele>1237.5</ele>
        <time>2022-06-15T13:04:57Z</time>
      </trkpt>
      <trkpt lat="45.86825" lon="6.48947">
        <ele>1237.6</ele>
        <time>2022-06-15T13:04:58Z</time>
      </trkpt>
      <trkpt lat="45.86827" lon="6.4895">
        <ele>1237.5</ele>
        <time>2022-06-15T13:04:59Z</time>
      </trkpt>
      <trkpt lat="45.86829" lon="6.48952">
        <ele>1237.5</ele>
        <time>2022-06-15T13:05:00Z</time>
      </trkpt>
      <trkpt lat="45.86831" lon="6.48955">
        <ele>1237.6</ele>
        <time>2022-06-15T13:05:01Z</time>
      </trkpt>
      <trkpt lat="45.86833" lon="6.48957">
        <ele>1237.6</ele>
        <time>2022-06-15T13:05:02Z</time>
      </trkpt>
      <trkpt lat="45.86835" lon="6.48959">
        <ele>1237.6</ele>
        <time>2022-06-15T13:05:03Z</time>
      </trkpt>
      <trkpt lat="45.86837" lon="6.4896">
        <ele>1237.7</ele>
        <time>2022-06-15T13:05:04Z</time>
      </trkpt>
      <trkpt lat="45.86839" lon="6.4896">
        <ele>1237.7</ele>
        <time>2022-06-15T13:05:05Z</time>
      </trkpt>
      <trkpt lat="45.86841" lon="6.48961">
        <ele>1237.9</ele>
        <time>2022-06-15T13:05:06Z</time>
      </trkpt>
      <trkpt lat="45.86844" lon="6.4896">
        <ele>1238.3</ele>
        <time>2022-06-15T13:05:07Z</time>
      </trkpt>
      <trkpt lat="45.86845" lon="6.48959">
        <ele>1238.6</ele>
        <time>2022-06-15T13:05:08Z</time>
      </trkpt>
      <trkpt lat="45.86847" lon="6.48958">
        <ele>1239.1</ele>
        <time>2022-06-15T13:05:09Z</time>
      </trkpt>
      <trkpt lat="45.86849" lon="6.48957">
        <ele>1239.6</ele>
        <time>2022-06-15T13:05:10Z</time>
      </trkpt>
      <trkpt lat="45.86851" lon="6.48955">
        <ele>1240.2</ele>
        <time>2022-06-15T13:05:11Z</time>
      </trkpt>
      <trkpt lat="45.86852" lon="6.48953">
        <ele>1240.8</ele>
        <time>2022-06-15T13:05:12Z</time>
      </trkpt>
      <trkpt lat="45.86854" lon="6.48951">
        <ele>1241.5</ele>
        <time>2022-06-15T13:05:13Z</time>
      </trkpt>
      <trkpt lat="45.86854" lon="6.48948">
        <ele>1242.2</ele>
        <time>2022-06-15T13:05:14Z</time>
      </trkpt>
      <trkpt lat="45.86854" lon="6.48945">
        <ele>1243</ele>
        <time>2022-06-15T13:05:15Z</time>
      </trkpt>
      <trkpt lat="45.86854" lon="6.48941">
        <ele>1243.5</ele>
        <time>2022-06-15T13:05:16Z</time>
      </trkpt>
      <trkpt lat="45.86853" lon="6.48938">
        <ele>1243.9</ele>
        <time>2022-06-15T13:05:17Z</time>
      </trkpt>
      <trkpt lat="45.86852" lon="6.48936">
        <ele>1244.2</ele>
        <time>2022-06-15T13:05:18Z</time>
      </trkpt>
      <trkpt lat="45.86851" lon="6.48933">
        <ele>1244.5</ele>
        <time>2022-06-15T13:05:19Z</time>
      </trkpt>
      <trkpt lat="45.8685" lon="6.48931">
        <ele>1244.6</ele>
        <time>2022-06-15T13:05:20Z</time>
      </trkpt>
      <trkpt lat="45.86848" lon="6.48929">
        <ele>1244.6</ele>
        <time>2022-06-15T13:05:21Z</time>
      </trkpt>
      <trkpt lat="45.86846" lon="6.48927">
        <ele>1244.7</ele>
        <time>2022-06-15T13:05:22Z</time>
      </trkpt>
      <trkpt lat="45.86844" lon="6.48925">
        <ele>1244.7</ele>
        <time>2022-06-15T13:05:23Z</time>
      </trkpt>
      <trkpt lat="45.86843" lon="6.48923">
        <ele>1244.8</ele>
        <time>2022-06-15T13:05:24Z</time>
      </trkpt>
      <trkpt lat="45.86841" lon="6.48921">
        <ele>1244.8</ele>
        <time>2022-06-15T13:05:25Z</time>
      </trkpt>
      <trkpt lat="45.86839" lon="6.48919">
        <ele>1244.8</ele>
        <time>2022-06-15T13:05:26Z</time>
      </trkpt>
      <trkpt lat="45.86838" lon="6.48917">
        <ele>1244.7</ele>
        <time>2022-06-15T13:05:27Z</time>
      </trkpt>
      <trkpt lat="45.86836" lon="6.48916">
        <ele>1244.6</ele>
        <time>2022-06-15T13:05:28Z</time>
      </trkpt>
      <trkpt lat="45.86834" lon="6.48914">
        <ele>1244.6</ele>
        <time>2022-06-15T13:05:29Z</time>
      </trkpt>
      <trkpt lat="45.86832" lon="6.48912">
        <ele>1244.7</ele>
        <time>2022-06-15T13:05:30Z</time>
      </trkpt>
      <trkpt lat="45.86831" lon="6.4891">
        <ele>1244.7</ele>
        <time>2022-06-15T13:05:31Z</time>
      </trkpt>
      <trkpt lat="45.86829" lon="6.48908">
        <ele>1244.7</ele>
        <time>2022-06-15T13:05:32Z</time>
      </trkpt>
      <trkpt lat="45.86827" lon="6.48905">
        <ele>1244.7</ele>
        <time>2022-06-15T13:05:33Z</time>
      </trkpt>
      <trkpt lat="45.86826" lon="6.48903">
        <ele>1244.8</ele>
        <time>2022-06-15T13:05:34Z</time>
      </trkpt>
      <trkpt lat="45.86825" lon="6.489">
        <ele>1245</ele>
        <time>2022-06-15T13:05:35Z</time>
      </trkpt>
      <trkpt lat="45.86824" lon="6.48897">
        <ele>1245.1</ele>
        <time>2022-06-15T13:05:36Z</time>
      </trkpt>
      <trkpt lat="45.86823" lon="6.48894">
        <ele>1245.4</ele>
        <time>2022-06-15T13:05:37Z</time>
      </trkpt>
      <trkpt lat="45.86822" lon="6.48891">
        <ele>1245.6</ele>
        <time>2022-06-15T13:05:38Z</time>
      </trkpt>
      <trkpt lat="45.86821" lon="6.48888">
        <ele>1245.8</ele>
        <time>2022-06-15T13:05:39Z</time>
      </trkpt>
      <trkpt lat="45.86821" lon="6.48886">
        <ele>1246</ele>
        <time>2022-06-15T13:05:40Z</time>
      </trkpt>
      <trkpt lat="45.8682" lon="6.48883">
        <ele>1246.3</ele>
        <time>2022-06-15T13:05:41Z</time>
      </trkpt>
      <trkpt lat="45.86819" lon="6.4888">
        <ele>1246.6</ele>
        <time>2022-06-15T13:05:42Z</time>
      </trkpt>
      <trkpt lat="45.86819" lon="6.48877">
        <ele>1246.9</ele>
        <time>2022-06-15T13:05:43Z</time>
      </trkpt>
      <trkpt lat="45.86818" lon="6.48874">
        <ele>1247.2</ele>
        <time>2022-06-15T13:05:44Z</time>
      </trkpt>
      <trkpt lat="45.86818" lon="6.48872">
        <ele>1247.5</ele>
        <time>2022-06-15T13:05:45Z</time>
      </trkpt>
      <trkpt lat="45.86818" lon="6.48869">
        <ele>1248</ele>
        <time>2022-06-15T13:05:46Z</time>
      </trkpt>
      <trkpt lat="45.86817" lon="6.48866">
        <ele>1248.3</ele>
        <time>2022-06-15T13:05:47Z</time>
      </trkpt>
      <trkpt lat="45.86817" lon="6.48863">
        <ele>1248.7</ele>
        <time>2022-06-15T13:05:48Z</time>
      </trkpt>
      <trkpt lat="45.86816" lon="6.4886">
        <ele>1248.9</ele>
        <time>2022-06-15T13:05:49Z</time>
      </trkpt>
      <trkpt lat="45.86816" lon="6.48857">
        <ele>1248.9</ele>
        <time>2022-06-15T13:05:50Z</time>
      </trkpt>
      <trkpt lat="45.86815" lon="6.48854">
        <ele>1249</ele>
        <time>2022-06-15T13:05:51Z</time>
      </trkpt>
      <trkpt lat="45.86815" lon="6.48851">
        <ele>1249.1</ele>
        <time>2022-06-15T13:05:52Z</time>
      </trkpt>
      <trkpt lat="45.86814" lon="6.48848">
        <ele>1249.1</ele>
        <time>2022-06-15T13:05:53Z</time>
      </trkpt>
      <trkpt lat="45.86814" lon="6.48845">
        <ele>1249.1</ele>
        <time>2022-06-15T13:05:54Z</time>
      </trkpt>
      <trkpt lat="45.86813" lon="6.48842">
        <ele>1249.3</ele>
        <time>2022-06-15T13:05:55Z</time>
      </trkpt>
      <trkpt lat="45.86813" lon="6.48839">
        <ele>1249.4</ele>
        <time>2022-06-15T13:05:56Z</time>
      </trkpt>
      <trkpt lat="45.86813" lon="6.48836">
        <ele>1249.6</ele>
        <time>2022-06-15T13:05:57Z</time>
      </trkpt>
      <trkpt lat="45.86813" lon="6.48833">
        <ele>1249.8</ele>
        <time>2022-06-15T13:05:58Z</time>
      </trkpt>
      <trkpt lat="45.86812" lon="6.4883">
        <ele>1249.9</ele>
        <time>2022-06-15T13:05:59Z</time>
      </trkpt>
      <trkpt lat="45.86812" lon="6.48827">
        <ele>1250</ele>
        <time>2022-06-15T13:06:00Z</time>
      </trkpt>
      <trkpt lat="45.86811" lon="6.48824">
        <ele>1250.1</ele>
        <time>2022-06-15T13:06:01Z</time>
      </trkpt>
      <trkpt lat="45.86811" lon="6.48821">
        <ele>1250.1</ele>
        <time>2022-06-15T13:06:02Z</time>
      </trkpt>
      <trkpt lat="45.8681" lon="6.48818">
        <ele>1250.2</ele>
        <time>2022-06-15T13:06:03Z</time>
      </trkpt>
      <trkpt lat="45.8681" lon="6.48815">
        <ele>1250.3</ele>
        <time>2022-06-15T13:06:04Z</time>
      </trkpt>
      <trkpt lat="45.86809" lon="6.48812">
        <ele>1250.4</ele>
        <time>2022-06-15T13:06:05Z</time>
      </trkpt>
      <trkpt lat="45.86809" lon="6.48809">
        <ele>1250.5</ele>
        <time>2022-06-15T13:06:06Z</time>
      </trkpt>
      <trkpt lat="45.86809" lon="6.48806">
        <ele>1250.7</ele>
        <time>2022-06-15T13:06:07Z</time>
      </trkpt>
      <trkpt lat="45.86809" lon="6.48802">
        <ele>1250.8</ele>
        <time>2022-06-15T13:06:08Z</time>
      </trkpt>
      <trkpt lat="45.86809" lon="6.48799">
        <ele>1250.9</ele>
        <time>2022-06-15T13:06:09Z</time>
      </trkpt>
      <trkpt lat="45.8681" lon="6.48795">
        <ele>1251</ele>
        <time>2022-06-15T13:06:10Z</time>
      </trkpt>
      <trkpt lat="45.8681" lon="6.48792">
        <ele>1251.1</ele>
        <time>2022-06-15T13:06:11Z</time>
      </trkpt>
      <trkpt lat="45.86811" lon="6.48789">
        <ele>1251.3</ele>
        <time>2022-06-15T13:06:12Z</time>
      </trkpt>
      <trkpt lat="45.86812" lon="6.48786">
        <ele>1251.6</ele>
        <time>2022-06-15T13:06:13Z</time>
      </trkpt>
      <trkpt lat="45.86813" lon="6.48784">
        <ele>1251.9</ele>
        <time>2022-06-15T13:06:14Z</time>
      </trkpt>
      <trkpt lat="45.86814" lon="6.48781">
        <ele>1252.4</ele>
        <time>2022-06-15T13:06:15Z</time>
      </trkpt>
      <trkpt lat="45.86815" lon="6.48778">
        <ele>1252.8</ele>
        <time>2022-06-15T13:06:16Z</time>
      </trkpt>
      <trkpt lat="45.86817" lon="6.48776">
        <ele>1253</ele>
        <time>2022-06-15T13:06:17Z</time>
      </trkpt>
      <trkpt lat="45.86819" lon="6.48774">
        <ele>1253.1</ele>
        <time>2022-06-15T13:06:18Z</time>
      </trkpt>
      <trkpt lat="45.8682" lon="6.48772">
        <ele>1253.3</ele>
        <time>2022-06-15T13:06:19Z</time>
      </trkpt>
      <trkpt lat="45.86822" lon="6.4877">
        <ele>1253.5</ele>
        <time>2022-06-15T13:06:20Z</time>
      </trkpt>
      <trkpt lat="45.86824" lon="6.48768">
        <ele>1253.8</ele>
        <time>2022-06-15T13:06:21Z</time>
      </trkpt>
      <trkpt lat="45.86826" lon="6.48766">
        <ele>1254</ele>
        <time>2022-06-15T13:06:22Z</time>
      </trkpt>
      <trkpt lat="45.86828" lon="6.48764">
        <ele>1254.3</ele>
        <time>2022-06-15T13:06:23Z</time>
      </trkpt>
      <trkpt lat="45.86829" lon="6.48762">
        <ele>1254.5</ele>
        <time>2022-06-15T13:06:24Z</time>
      </trkpt>
      <trkpt lat="45.86831" lon="6.48761">
        <ele>1254.8</ele>
        <time>2022-06-15T13:06:25Z</time>
      </trkpt>
      <trkpt lat="45.86833" lon="6.48759">
        <ele>1255.2</ele>
        <time>2022-06-15T13:06:26Z</time>
      </trkpt>
      <trkpt lat="45.86835" lon="6.48757">
        <ele>1255.4</ele>
        <time>2022-06-15T13:06:27Z</time>
      </trkpt>
      <trkpt lat="45.86837" lon="6.48755">
        <ele>1255.5</ele>
        <time>2022-06-15T13:06:28Z</time>
      </trkpt>
      <trkpt lat="45.86838" lon="6.48753">
        <ele>1255.6</ele>
        <time>2022-06-15T13:06:29Z</time>
      </trkpt>
      <trkpt lat="45.8684" lon="6.48751">
        <ele>1255.7</ele>
        <time>2022-06-15T13:06:30Z</time>
      </trkpt>
      <trkpt lat="45.86841" lon="6.48749">
        <ele>1255.9</ele>
        <time>2022-06-15T13:06:31Z</time>
      </trkpt>
      <trkpt lat="45.86843" lon="6.48746">
        <ele>1256</ele>
        <time>2022-06-15T13:06:32Z</time>
      </trkpt>
      <trkpt lat="45.86844" lon="6.48743">
        <ele>1256.1</ele>
        <time>2022-06-15T13:06:33Z</time>
      </trkpt>
      <trkpt lat="45.86845" lon="6.48741">
        <ele>1256.3</ele>
        <time>2022-06-15T13:06:34Z</time>
      </trkpt>
      <trkpt lat="45.86846" lon="6.48739">
        <ele>1256.4</ele>
        <time>2022-06-15T13:06:35Z</time>
      </trkpt>
      <trkpt lat="45.86848" lon="6.48736">
        <ele>1256.6</ele>
        <time>2022-06-15T13:06:36Z</time>
      </trkpt>
      <trkpt lat="45.86849" lon="6.48733">
        <ele>1256.6</ele>
        <time>2022-06-15T13:06:37Z</time>
      </trkpt>
      <trkpt lat="45.8685" lon="6.48729">
        <ele>1256.6</ele>
        <time>2022-06-15T13:06:38Z</time>
      </trkpt>
      <trkpt lat="45.86851" lon="6.48726">
        <ele>1256.7</ele>
        <time>2022-06-15T13:06:39Z</time>
      </trkpt>
      <trkpt lat="45.86852" lon="6.48724">
        <ele>1256.9</ele>
        <time>2022-06-15T13:06:40Z</time>
      </trkpt>
      <trkpt lat="45.86854" lon="6.48721">
        <ele>1257.1</ele>
        <time>2022-06-15T13:06:41Z</time>
      </trkpt>
      <trkpt lat="45.86855" lon="6.48718">
        <ele>1257.3</ele>
        <time>2022-06-15T13:06:42Z</time>
      </trkpt>
      <trkpt lat="45.86856" lon="6.48716">
        <ele>1257.5</ele>
        <time>2022-06-15T13:06:43Z</time>
      </trkpt>
      <trkpt lat="45.86857" lon="6.48713">
        <ele>1257.6</ele>
        <time>2022-06-15T13:06:44Z</time>
      </trkpt>
      <trkpt lat="45.86858" lon="6.4871">
        <ele>1257.8</ele>
        <time>2022-06-15T13:06:45Z</time>
      </trkpt>
      <trkpt lat="45.86859" lon="6.48707">
        <ele>1257.9</ele>
        <time>2022-06-15T13:06:46Z</time>
      </trkpt>
      <trkpt lat="45.8686" lon="6.48704">
        <ele>1258.1</ele>
        <time>2022-06-15T13:06:47Z</time>
      </trkpt>
      <trkpt lat="45.86862" lon="6.48701">
        <ele>1258.4</ele>
        <time>2022-06-15T13:06:48Z</time>
      </trkpt>
      <trkpt lat="45.86863" lon="6.48698">
        <ele>1258.6</ele>
        <time>2022-06-15T13:06:49Z</time>
      </trkpt>
      <trkpt lat="45.86864" lon="6.48695">
        <ele>1258.8</ele>
        <time>2022-06-15T13:06:50Z</time>
      </trkpt>
      <trkpt lat="45.86865" lon="6.48693">
        <ele>1259.1</ele>
        <time>2022-06-15T13:06:51Z</time>
      </trkpt>
      <trkpt lat="45.86867" lon="6.4869">
        <ele>1259.4</ele>
        <time>2022-06-15T13:06:52Z</time>
      </trkpt>
      <trkpt lat="45.86868" lon="6.48687">
        <ele>1259.6</ele>
        <time>2022-06-15T13:06:53Z</time>
      </trkpt>
      <trkpt lat="45.86869" lon="6.48684">
        <ele>1259.8</ele>
        <time>2022-06-15T13:06:54Z</time>
      </trkpt>
      <trkpt lat="45.8687" lon="6.48681">
        <ele>1260</ele>
        <time>2022-06-15T13:06:55Z</time>
      </trkpt>
      <trkpt lat="45.86871" lon="6.48678">
        <ele>1260.2</ele>
        <time>2022-06-15T13:06:56Z</time>
      </trkpt>
      <trkpt lat="45.86872" lon="6.48675">
        <ele>1260.4</ele>
        <time>2022-06-15T13:06:57Z</time>
      </trkpt>
      <trkpt lat="45.86873" lon="6.48672">
        <ele>1260.7</ele>
        <time>2022-06-15T13:06:58Z</time>
      </trkpt>
      <trkpt lat="45.86875" lon="6.4867">
        <ele>1261</ele>
        <time>2022-06-15T13:06:59Z</time>
      </trkpt>
      <trkpt lat="45.86876" lon="6.48666">
        <ele>1261.3</ele>
        <time>2022-06-15T13:07:00Z</time>
      </trkpt>
      <trkpt lat="45.86877" lon="6.48663">
        <ele>1261.3</ele>
        <time>2022-06-15T13:07:01Z</time>
      </trkpt>
      <trkpt lat="45.86878" lon="6.4866">
        <ele>1261.3</ele>
        <time>2022-06-15T13:07:02Z</time>
      </trkpt>
      <trkpt lat="45.86879" lon="6.48657">
        <ele>1261.4</ele>
        <time>2022-06-15T13:07:03Z</time>
      </trkpt>
      <trkpt lat="45.8688" lon="6.48655">
        <ele>1261.4</ele>
        <time>2022-06-15T13:07:04Z</time>
      </trkpt>
      <trkpt lat="45.86881" lon="6.48652">
        <ele>1261.6</ele>
        <time>2022-06-15T13:07:05Z</time>
      </trkpt>
      <trkpt lat="45.86882" lon="6.48649">
        <ele>1261.7</ele>
        <time>2022-06-15T13:07:06Z</time>
      </trkpt>
      <trkpt lat="45.86883" lon="6.48646">
        <ele>1261.8</ele>
        <time>2022-06-15T13:07:07Z</time>
      </trkpt>
      <trkpt lat="45.86884" lon="6.48644">
        <ele>1261.9</ele>
        <time>2022-06-15T13:07:08Z</time>
      </trkpt>
      <trkpt lat="45.86885" lon="6.48641">
        <ele>1261.9</ele>
        <time>2022-06-15T13:07:09Z</time>
      </trkpt>
      <trkpt lat="45.86886" lon="6.48638">
        <ele>1262.1</ele>
        <time>2022-06-15T13:07:10Z</time>
      </trkpt>
      <trkpt lat="45.86887" lon="6.48636">
        <ele>1262.3</ele>
        <time>2022-06-15T13:07:11Z</time>
      </trkpt>
      <trkpt lat="45.86888" lon="6.48632">
        <ele>1262.8</ele>
        <time>2022-06-15T13:07:12Z</time>
      </trkpt>
      <trkpt lat="45.86889" lon="6.48629">
        <ele>1263</ele>
        <time>2022-06-15T13:07:13Z</time>
      </trkpt>
      <trkpt lat="45.8689" lon="6.48626">
        <ele>1263.2</ele>
        <time>2022-06-15T13:07:14Z</time>
      </trkpt>
      <trkpt lat="45.8689" lon="6.48622">
        <ele>1263.3</ele>
        <time>2022-06-15T13:07:15Z</time>
      </trkpt>
      <trkpt lat="45.86891" lon="6.4862">
        <ele>1263.4</ele>
        <time>2022-06-15T13:07:16Z</time>
      </trkpt>
      <trkpt lat="45.86891" lon="6.48617">
        <ele>1263.6</ele>
        <time>2022-06-15T13:07:17Z</time>
      </trkpt>
      <trkpt lat="45.86892" lon="6.48613">
        <ele>1263.6</ele>
        <time>2022-06-15T13:07:18Z</time>
      </trkpt>
      <trkpt lat="45.86893" lon="6.48609">
        <ele>1263.9</ele>
        <time>2022-06-15T13:07:19Z</time>
      </trkpt>
      <trkpt lat="45.86893" lon="6.48606">
        <ele>1264.4</ele>
        <time>2022-06-15T13:07:20Z</time>
      </trkpt>
      <trkpt lat="45.86893" lon="6.48602">
        <ele>1264.8</ele>
        <time>2022-06-15T13:07:21Z</time>
      </trkpt>
      <trkpt lat="45.86893" lon="6.48597">
        <ele>1265.1</ele>
        <time>2022-06-15T13:07:22Z</time>
      </trkpt>
      <trkpt lat="45.86893" lon="6.48593">
        <ele>1265.5</ele>
        <time>2022-06-15T13:07:23Z</time>
      </trkpt>
      <trkpt lat="45.86894" lon="6.48589">
        <ele>1265.8</ele>
        <time>2022-06-15T13:07:24Z</time>
      </trkpt>
      <trkpt lat="45.86894" lon="6.48585">
        <ele>1266.3</ele>
        <time>2022-06-15T13:07:25Z</time>
      </trkpt>
      <trkpt lat="45.86894" lon="6.48581">
        <ele>1266.6</ele>
        <time>2022-06-15T13:07:26Z</time>
      </trkpt>
      <trkpt lat="45.86895" lon="6.48578">
        <ele>1267</ele>
        <time>2022-06-15T13:07:27Z</time>
      </trkpt>
      <trkpt lat="45.86895" lon="6.48574">
        <ele>1267.4</ele>
        <time>2022-06-15T13:07:28Z</time>
      </trkpt>
      <trkpt lat="45.86895" lon="6.4857">
        <ele>1267.7</ele>
        <time>2022-06-15T13:07:29Z</time>
      </trkpt>
      <trkpt lat="45.86896" lon="6.48567">
        <ele>1268.2</ele>
        <time>2022-06-15T13:07:30Z</time>
      </trkpt>
      <trkpt lat="45.86896" lon="6.48564">
        <ele>1268.5</ele>
        <time>2022-06-15T13:07:31Z</time>
      </trkpt>
      <trkpt lat="45.86897" lon="6.4856">
        <ele>1269</ele>
        <time>2022-06-15T13:07:32Z</time>
      </trkpt>
      <trkpt lat="45.86897" lon="6.48557">
        <ele>1269.2</ele>
        <time>2022-06-15T13:07:33Z</time>
      </trkpt>
      <trkpt lat="45.86897" lon="6.48554">
        <ele>1269.4</ele>
        <time>2022-06-15T13:07:34Z</time>
      </trkpt>
      <trkpt lat="45.86897" lon="6.48551">
        <ele>1269.6</ele>
        <time>2022-06-15T13:07:35Z</time>
      </trkpt>
      <trkpt lat="45.86897" lon="6.48548">
        <ele>1269.8</ele>
        <time>2022-06-15T13:07:36Z</time>
      </trkpt>
      <trkpt lat="45.86897" lon="6.48545">
        <ele>1270</ele>
        <time>2022-06-15T13:07:37Z</time>
      </trkpt>
      <trkpt lat="45.86898" lon="6.48542">
        <ele>1270.3</ele>
        <time>2022-06-15T13:07:38Z</time>
      </trkpt>
      <trkpt lat="45.86898" lon="6.48538">
        <ele>1270.4</ele>
        <time>2022-06-15T13:07:39Z</time>
      </trkpt>
      <trkpt lat="45.86898" lon="6.48535">
        <ele>1270.7</ele>
        <time>2022-06-15T13:07:40Z</time>
      </trkpt>
      <trkpt lat="45.86898" lon="6.48532">
        <ele>1270.8</ele>
        <time>2022-06-15T13:07:41Z</time>
      </trkpt>
      <trkpt lat="45.86898" lon="6.48528">
        <ele>1271</ele>
        <time>2022-06-15T13:07:42Z</time>
      </trkpt>
      <trkpt lat="45.86898" lon="6.48525">
        <ele>1271</ele>
        <time>2022-06-15T13:07:43Z</time>
      </trkpt>
      <trkpt lat="45.86898" lon="6.48522">
        <ele>1271.1</ele>
        <time>2022-06-15T13:07:44Z</time>
      </trkpt>
      <trkpt lat="45.86898" lon="6.48518">
        <ele>1271.3</ele>
        <time>2022-06-15T13:07:45Z</time>
      </trkpt>
      <trkpt lat="45.86899" lon="6.48516">
        <ele>1271.4</ele>
        <time>2022-06-15T13:07:46Z</time>
      </trkpt>
      <trkpt lat="45.86899" lon="6.48513">
        <ele>1271.5</ele>
        <time>2022-06-15T13:07:47Z</time>
      </trkpt>
      <trkpt lat="45.86899" lon="6.48509">
        <ele>1271.6</ele>
        <time>2022-06-15T13:07:48Z</time>
      </trkpt>
      <trkpt lat="45.86899" lon="6.48506">
        <ele>1271.6</ele>
        <time>2022-06-15T13:07:49Z</time>
      </trkpt>
      <trkpt lat="45.86898" lon="6.48503">
        <ele>1271.6</ele>
        <time>2022-06-15T13:07:50Z</time>
      </trkpt>
      <trkpt lat="45.86898" lon="6.485">
        <ele>1271.7</ele>
        <time>2022-06-15T13:07:51Z</time>
      </trkpt>
      <trkpt lat="45.86898" lon="6.48497">
        <ele>1271.8</ele>
        <time>2022-06-15T13:07:52Z</time>
      </trkpt>
      <trkpt lat="45.86897" lon="6.48494">
        <ele>1271.8</ele>
        <time>2022-06-15T13:07:53Z</time>
      </trkpt>
      <trkpt lat="45.86896" lon="6.48491">
        <ele>1271.8</ele>
        <time>2022-06-15T13:07:54Z</time>
      </trkpt>
      <trkpt lat="45.86894" lon="6.48487">
        <ele>1271.7</ele>
        <time>2022-06-15T13:07:55Z</time>
      </trkpt>
      <trkpt lat="45.86894" lon="6.48484">
        <ele>1271.7</ele>
        <time>2022-06-15T13:07:56Z</time>
      </trkpt>
      <trkpt lat="45.86892" lon="6.48481">
        <ele>1271.6</ele>
        <time>2022-06-15T13:07:57Z</time>
      </trkpt>
      <trkpt lat="45.86891" lon="6.48478">
        <ele>1271.3</ele>
        <time>2022-06-15T13:07:58Z</time>
      </trkpt>
      <trkpt lat="45.86889" lon="6.48475">
        <ele>1270.9</ele>
        <time>2022-06-15T13:07:59Z</time>
      </trkpt>
      <trkpt lat="45.86888" lon="6.48473">
        <ele>1270.8</ele>
        <time>2022-06-15T13:08:00Z</time>
      </trkpt>
      <trkpt lat="45.86886" lon="6.4847">
        <ele>1271.2</ele>
        <time>2022-06-15T13:08:01Z</time>
      </trkpt>
      <trkpt lat="45.86885" lon="6.48467">
        <ele>1271.6</ele>
        <time>2022-06-15T13:08:02Z</time>
      </trkpt>
      <trkpt lat="45.86883" lon="6.48465">
        <ele>1272</ele>
        <time>2022-06-15T13:08:03Z</time>
      </trkpt>
      <trkpt lat="45.86882" lon="6.48462">
        <ele>1272.4</ele>
        <time>2022-06-15T13:08:04Z</time>
      </trkpt>
      <trkpt lat="45.8688" lon="6.4846">
        <ele>1272.7</ele>
        <time>2022-06-15T13:08:05Z</time>
      </trkpt>
      <trkpt lat="45.86878" lon="6.48457">
        <ele>1273</ele>
        <time>2022-06-15T13:08:06Z</time>
      </trkpt>
      <trkpt lat="45.86876" lon="6.48455">
        <ele>1273.1</ele>
        <time>2022-06-15T13:08:07Z</time>
      </trkpt>
      <trkpt lat="45.86874" lon="6.48453">
        <ele>1273.2</ele>
        <time>2022-06-15T13:08:08Z</time>
      </trkpt>
      <trkpt lat="45.86872" lon="6.48451">
        <ele>1273.3</ele>
        <time>2022-06-15T13:08:09Z</time>
      </trkpt>
      <trkpt lat="45.86871" lon="6.48448">
        <ele>1273.5</ele>
        <time>2022-06-15T13:08:10Z</time>
      </trkpt>
      <trkpt lat="45.86869" lon="6.48446">
        <ele>1273.7</ele>
        <time>2022-06-15T13:08:11Z</time>
      </trkpt>
      <trkpt lat="45.86867" lon="6.48443">
        <ele>1273.8</ele>
        <time>2022-06-15T13:08:12Z</time>
      </trkpt>
      <trkpt lat="45.86866" lon="6.48441">
        <ele>1273.9</ele>
        <time>2022-06-15T13:08:13Z</time>
      </trkpt>
      <trkpt lat="45.86864" lon="6.48438">
        <ele>1274.1</ele>
        <time>2022-06-15T13:08:14Z</time>
      </trkpt>
      <trkpt lat="45.86863" lon="6.48436">
        <ele>1274.2</ele>
        <time>2022-06-15T13:08:15Z</time>
      </trkpt>
      <trkpt lat="45.86861" lon="6.48433">
        <ele>1274.3</ele>
        <time>2022-06-15T13:08:16Z</time>
      </trkpt>
      <trkpt lat="45.86859" lon="6.48431">
        <ele>1274.2</ele>
        <time>2022-06-15T13:08:17Z</time>
      </trkpt>
      <trkpt lat="45.86857" lon="6.48429">
        <ele>1274.1</ele>
        <time>2022-06-15T13:08:18Z</time>
      </trkpt>
      <trkpt lat="45.86855" lon="6.48427">
        <ele>1274</ele>
        <time>2022-06-15T13:08:19Z</time>
      </trkpt>
      <trkpt lat="45.86854" lon="6.48424">
        <ele>1274</ele>
        <time>2022-06-15T13:08:20Z</time>
      </trkpt>
      <trkpt lat="45.86852" lon="6.48421">
        <ele>1274.1</ele>
        <time>2022-06-15T13:08:21Z</time>
      </trkpt>
      <trkpt lat="45.86851" lon="6.48418">
        <ele>1274.4</ele>
        <time>2022-06-15T13:08:22Z</time>
      </trkpt>
      <trkpt lat="45.8685" lon="6.48415">
        <ele>1274.4</ele>
        <time>2022-06-15T13:08:23Z</time>
      </trkpt>
      <trkpt lat="45.86848" lon="6.48412">
        <ele>1274.2</ele>
        <time>2022-06-15T13:08:24Z</time>
      </trkpt>
      <trkpt lat="45.86848" lon="6.48409">
        <ele>1274.2</ele>
        <time>2022-06-15T13:08:25Z</time>
      </trkpt>
      <trkpt lat="45.86846" lon="6.48406">
        <ele>1273.9</ele>
        <time>2022-06-15T13:08:26Z</time>
      </trkpt>
      <trkpt lat="45.86845" lon="6.48402">
        <ele>1274</ele>
        <time>2022-06-15T13:08:27Z</time>
      </trkpt>
      <trkpt lat="45.86845" lon="6.48399">
        <ele>1274.1</ele>
        <time>2022-06-15T13:08:28Z</time>
      </trkpt>
      <trkpt lat="45.86845" lon="6.48395">
        <ele>1274.3</ele>
        <time>2022-06-15T13:08:29Z</time>
      </trkpt>
      <trkpt lat="45.86845" lon="6.48392">
        <ele>1274.7</ele>
        <time>2022-06-15T13:08:30Z</time>
      </trkpt>
      <trkpt lat="45.86846" lon="6.48389">
        <ele>1275.1</ele>
        <time>2022-06-15T13:08:31Z</time>
      </trkpt>
      <trkpt lat="45.86846" lon="6.48385">
        <ele>1275.1</ele>
        <time>2022-06-15T13:08:32Z</time>
      </trkpt>
      <trkpt lat="45.86847" lon="6.48382">
        <ele>1275.2</ele>
        <time>2022-06-15T13:08:33Z</time>
      </trkpt>
      <trkpt lat="45.86847" lon="6.48378">
        <ele>1275.2</ele>
        <time>2022-06-15T13:08:34Z</time>
      </trkpt>
      <trkpt lat="45.86847" lon="6.48375">
        <ele>1275.3</ele>
        <time>2022-06-15T13:08:35Z</time>
      </trkpt>
      <trkpt lat="45.86848" lon="6.48371">
        <ele>1275.3</ele>
        <time>2022-06-15T13:08:36Z</time>
      </trkpt>
      <trkpt lat="45.86848" lon="6.48368">
        <ele>1275.4</ele>
        <time>2022-06-15T13:08:37Z</time>
      </trkpt>
      <trkpt lat="45.86849" lon="6.48364">
        <ele>1275.6</ele>
        <time>2022-06-15T13:08:38Z</time>
      </trkpt>
      <trkpt lat="45.8685" lon="6.48361">
        <ele>1275.8</ele>
        <time>2022-06-15T13:08:39Z</time>
      </trkpt>
      <trkpt lat="45.86852" lon="6.48358">
        <ele>1276.1</ele>
        <time>2022-06-15T13:08:40Z</time>
      </trkpt>
      <trkpt lat="45.86853" lon="6.48356">
        <ele>1276.5</ele>
        <time>2022-06-15T13:08:41Z</time>
      </trkpt>
      <trkpt lat="45.86855" lon="6.48354">
        <ele>1277</ele>
        <time>2022-06-15T13:08:42Z</time>
      </trkpt>
      <trkpt lat="45.86858" lon="6.48353">
        <ele>1277.6</ele>
        <time>2022-06-15T13:08:43Z</time>
      </trkpt>
      <trkpt lat="45.8686" lon="6.48351">
        <ele>1278.2</ele>
        <time>2022-06-15T13:08:44Z</time>
      </trkpt>
      <trkpt lat="45.86862" lon="6.4835">
        <ele>1278.6</ele>
        <time>2022-06-15T13:08:45Z</time>
      </trkpt>
      <trkpt lat="45.86864" lon="6.48349">
        <ele>1278.8</ele>
        <time>2022-06-15T13:08:46Z</time>
      </trkpt>
      <trkpt lat="45.86866" lon="6.48348">
        <ele>1279</ele>
        <time>2022-06-15T13:08:47Z</time>
      </trkpt>
      <trkpt lat="45.86869" lon="6.48348">
        <ele>1279.2</ele>
        <time>2022-06-15T13:08:48Z</time>
      </trkpt>
      <trkpt lat="45.86871" lon="6.48347">
        <ele>1279.4</ele>
        <time>2022-06-15T13:08:49Z</time>
      </trkpt>
      <trkpt lat="45.86874" lon="6.48346">
        <ele>1279.6</ele>
        <time>2022-06-15T13:08:50Z</time>
      </trkpt>
      <trkpt lat="45.86877" lon="6.48346">
        <ele>1279.9</ele>
        <time>2022-06-15T13:08:51Z</time>
      </trkpt>
      <trkpt lat="45.86879" lon="6.48345">
        <ele>1280.1</ele>
        <time>2022-06-15T13:08:52Z</time>
      </trkpt>
      <trkpt lat="45.86882" lon="6.48345">
        <ele>1280.4</ele>
        <time>2022-06-15T13:08:53Z</time>
      </trkpt>
      <trkpt lat="45.86885" lon="6.48344">
        <ele>1280.6</ele>
        <time>2022-06-15T13:08:54Z</time>
      </trkpt>
      <trkpt lat="45.86887" lon="6.48343">
        <ele>1280.8</ele>
        <time>2022-06-15T13:08:55Z</time>
      </trkpt>
      <trkpt lat="45.8689" lon="6.48342">
        <ele>1281.1</ele>
        <time>2022-06-15T13:08:56Z</time>
      </trkpt>
      <trkpt lat="45.86892" lon="6.4834">
        <ele>1281.5</ele>
        <time>2022-06-15T13:08:57Z</time>
      </trkpt>
      <trkpt lat="45.86894" lon="6.48337">
        <ele>1281.9</ele>
        <time>2022-06-15T13:08:58Z</time>
      </trkpt>
      <trkpt lat="45.86896" lon="6.48335">
        <ele>1282.3</ele>
        <time>2022-06-15T13:08:59Z</time>
      </trkpt>
      <trkpt lat="45.86898" lon="6.48332">
        <ele>1282.6</ele>
        <time>2022-06-15T13:09:00Z</time>
      </trkpt>
      <trkpt lat="45.869" lon="6.48329">
        <ele>1282.8</ele>
        <time>2022-06-15T13:09:01Z</time>
      </trkpt>
      <trkpt lat="45.86902" lon="6.48325">
        <ele>1283</ele>
        <time>2022-06-15T13:09:02Z</time>
      </trkpt>
      <trkpt lat="45.86903" lon="6.48322">
        <ele>1283.2</ele>
        <time>2022-06-15T13:09:03Z</time>
      </trkpt>
      <trkpt lat="45.86904" lon="6.48319">
        <ele>1283.3</ele>
        <time>2022-06-15T13:09:04Z</time>
      </trkpt>
      <trkpt lat="45.86906" lon="6.48315">
        <ele>1283.5</ele>
        <time>2022-06-15T13:09:05Z</time>
      </trkpt>
      <trkpt lat="45.86907" lon="6.48312">
        <ele>1283.7</ele>
        <time>2022-06-15T13:09:06Z</time>
      </trkpt>
      <trkpt lat="45.86909" lon="6.48309">
        <ele>1284</ele>
        <time>2022-06-15T13:09:07Z</time>
      </trkpt>
      <trkpt lat="45.8691" lon="6.48306">
        <ele>1284.2</ele>
        <time>2022-06-15T13:09:08Z</time>
      </trkpt>
      <trkpt lat="45.86911" lon="6.48302">
        <ele>1284.5</ele>
        <time>2022-06-15T13:09:09Z</time>
      </trkpt>
      <trkpt lat="45.86912" lon="6.48299">
        <ele>1284.7</ele>
        <time>2022-06-15T13:09:10Z</time>
      </trkpt>
      <trkpt lat="45.86912" lon="6.48295">
        <ele>1284.8</ele>
        <time>2022-06-15T13:09:11Z</time>
      </trkpt>
      <trkpt lat="45.86913" lon="6.48292">
        <ele>1285</ele>
        <time>2022-06-15T13:09:12Z</time>
      </trkpt>
      <trkpt lat="45.86914" lon="6.48289">
        <ele>1285.2</ele>
        <time>2022-06-15T13:09:13Z</time>
      </trkpt>
      <trkpt lat="45.86914" lon="6.48285">
        <ele>1285.4</ele>
        <time>2022-06-15T13:09:14Z</time>
      </trkpt>
      <trkpt lat="45.86915" lon="6.48282">
        <ele>1285.5</ele>
        <time>2022-06-15T13:09:15Z</time>
      </trkpt>
      <trkpt lat="45.86915" lon="6.48278">
        <ele>1285.5</ele>
        <time>2022-06-15T13:09:16Z</time>
      </trkpt>
      <trkpt lat="45.86915" lon="6.48275">
        <ele>1285.7</ele>
        <time>2022-06-15T13:09:17Z</time>
      </trkpt>
      <trkpt lat="45.86915" lon="6.48271">
        <ele>1285.9</ele>
        <time>2022-06-15T13:09:18Z</time>
      </trkpt>
      <trkpt lat="45.86915" lon="6.48267">
        <ele>1286</ele>
        <time>2022-06-15T13:09:19Z</time>
      </trkpt>
      <trkpt lat="45.86915" lon="6.48264">
        <ele>1286.1</ele>
        <time>2022-06-15T13:09:20Z</time>
      </trkpt>
      <trkpt lat="45.86916" lon="6.4826">
        <ele>1286.3</ele>
        <time>2022-06-15T13:09:21Z</time>
      </trkpt>
      <trkpt lat="45.86916" lon="6.48257">
        <ele>1286.5</ele>
        <time>2022-06-15T13:09:22Z</time>
      </trkpt>
      <trkpt lat="45.86916" lon="6.48253">
        <ele>1286.8</ele>
        <time>2022-06-15T13:09:23Z</time>
      </trkpt>
      <trkpt lat="45.86917" lon="6.48249">
        <ele>1287</ele>
        <time>2022-06-15T13:09:24Z</time>
      </trkpt>
      <trkpt lat="45.86917" lon="6.48245">
        <ele>1287.1</ele>
        <time>2022-06-15T13:09:25Z</time>
      </trkpt>
      <trkpt lat="45.86918" lon="6.48242">
        <ele>1287.2</ele>
        <time>2022-06-15T13:09:26Z</time>
      </trkpt>
      <trkpt lat="45.86918" lon="6.48238">
        <ele>1287.3</ele>
        <time>2022-06-15T13:09:27Z</time>
      </trkpt>
      <trkpt lat="45.86918" lon="6.48235">
        <ele>1287.4</ele>
        <time>2022-06-15T13:09:28Z</time>
      </trkpt>
      <trkpt lat="45.86919" lon="6.48231">
        <ele>1287.4</ele>
        <time>2022-06-15T13:09:29Z</time>
      </trkpt>
      <trkpt lat="45.86918" lon="6.48228">
        <ele>1287.4</ele>
        <time>2022-06-15T13:09:30Z</time>
      </trkpt>
      <trkpt lat="45.86918" lon="6.48224">
        <ele>1287.3</ele>
        <time>2022-06-15T13:09:31Z</time>
      </trkpt>
      <trkpt lat="45.86918" lon="6.48221">
        <ele>1287.4</ele>
        <time>2022-06-15T13:09:32Z</time>
      </trkpt>
      <trkpt lat="45.86918" lon="6.48218">
        <ele>1287.5</ele>
        <time>2022-06-15T13:09:33Z</time>
      </trkpt>
      <trkpt lat="45.86918" lon="6.48215">
        <ele>1287.5</ele>
        <time>2022-06-15T13:09:34Z</time>
      </trkpt>
      <trkpt lat="45.86916" lon="6.48211">
        <ele>1287.3</ele>
        <time>2022-06-15T13:09:35Z</time>
      </trkpt>
      <trkpt lat="45.86915" lon="6.48208">
        <ele>1287.3</ele>
        <time>2022-06-15T13:09:36Z</time>
      </trkpt>
      <trkpt lat="45.86914" lon="6.48204">
        <ele>1287.1</ele>
        <time>2022-06-15T13:09:37Z</time>
      </trkpt>
      <trkpt lat="45.86913" lon="6.482">
        <ele>1287.1</ele>
        <time>2022-06-15T13:09:38Z</time>
      </trkpt>
      <trkpt lat="45.86912" lon="6.48197">
        <ele>1287.1</ele>
        <time>2022-06-15T13:09:39Z</time>
      </trkpt>
      <trkpt lat="45.86912" lon="6.48193">
        <ele>1287.3</ele>
        <time>2022-06-15T13:09:40Z</time>
      </trkpt>
      <trkpt lat="45.86913" lon="6.48189">
        <ele>1287.5</ele>
        <time>2022-06-15T13:09:41Z</time>
      </trkpt>
      <trkpt lat="45.86913" lon="6.48186">
        <ele>1287.8</ele>
        <time>2022-06-15T13:09:42Z</time>
      </trkpt>
      <trkpt lat="45.86915" lon="6.48183">
        <ele>1288.2</ele>
        <time>2022-06-15T13:09:43Z</time>
      </trkpt>
      <trkpt lat="45.86917" lon="6.48181">
        <ele>1288.5</ele>
        <time>2022-06-15T13:09:44Z</time>
      </trkpt>
      <trkpt lat="45.86919" lon="6.48179">
        <ele>1289.3</ele>
        <time>2022-06-15T13:09:45Z</time>
      </trkpt>
      <trkpt lat="45.86921" lon="6.48179">
        <ele>1290.1</ele>
        <time>2022-06-15T13:09:46Z</time>
      </trkpt>
      <trkpt lat="45.86923" lon="6.48179">
        <ele>1291</ele>
        <time>2022-06-15T13:09:47Z</time>
      </trkpt>
      <trkpt lat="45.86925" lon="6.4818">
        <ele>1291.7</ele>
        <time>2022-06-15T13:09:48Z</time>
      </trkpt>
      <trkpt lat="45.86927" lon="6.48182">
        <ele>1292.2</ele>
        <time>2022-06-15T13:09:49Z</time>
      </trkpt>
      <trkpt lat="45.86929" lon="6.48185">
        <ele>1292.4</ele>
        <time>2022-06-15T13:09:50Z</time>
      </trkpt>
      <trkpt lat="45.86929" lon="6.48189">
        <ele>1292.3</ele>
        <time>2022-06-15T13:09:51Z</time>
      </trkpt>
      <trkpt lat="45.8693" lon="6.48193">
        <ele>1291.9</ele>
        <time>2022-06-15T13:09:52Z</time>
      </trkpt>
      <trkpt lat="45.8693" lon="6.48197">
        <ele>1291.6</ele>
        <time>2022-06-15T13:09:53Z</time>
      </trkpt>
      <trkpt lat="45.86929" lon="6.48201">
        <ele>1291.2</ele>
        <time>2022-06-15T13:09:54Z</time>
      </trkpt>
      <trkpt lat="45.86929" lon="6.48204">
        <ele>1290.8</ele>
        <time>2022-06-15T13:09:55Z</time>
      </trkpt>
      <trkpt lat="45.86929" lon="6.48208">
        <ele>1290.5</ele>
        <time>2022-06-15T13:09:56Z</time>
      </trkpt>
      <trkpt lat="45.86928" lon="6.48211">
        <ele>1290.2</ele>
        <time>2022-06-15T13:09:57Z</time>
      </trkpt>
      <trkpt lat="45.86928" lon="6.48215">
        <ele>1290</ele>
        <time>2022-06-15T13:09:58Z</time>
      </trkpt>
      <trkpt lat="45.86928" lon="6.48218">
        <ele>1289.7</ele>
        <time>2022-06-15T13:09:59Z</time>
      </trkpt>
      <trkpt lat="45.86928" lon="6.48222">
        <ele>1289.4</ele>
        <time>2022-06-15T13:10:00Z</time>
      </trkpt>
      <trkpt lat="45.86928" lon="6.48226">
        <ele>1289.3</ele>
        <time>2022-06-15T13:10:01Z</time>
      </trkpt>
      <trkpt lat="45.86928" lon="6.4823">
        <ele>1289.3</ele>
        <time>2022-06-15T13:10:02Z</time>
      </trkpt>
      <trkpt lat="45.86928" lon="6.48234">
        <ele>1289.4</ele>
        <time>2022-06-15T13:10:03Z</time>
      </trkpt>
      <trkpt lat="45.86928" lon="6.48238">
        <ele>1289.5</ele>
        <time>2022-06-15T13:10:04Z</time>
      </trkpt>
      <trkpt lat="45.86929" lon="6.48242">
        <ele>1289.6</ele>
        <time>2022-06-15T13:10:05Z</time>
      </trkpt>
      <trkpt lat="45.8693" lon="6.48246">
        <ele>1289.8</ele>
        <time>2022-06-15T13:10:06Z</time>
      </trkpt>
      <trkpt lat="45.86931" lon="6.4825">
        <ele>1290</ele>
        <time>2022-06-15T13:10:07Z</time>
      </trkpt>
      <trkpt lat="45.86931" lon="6.48254">
        <ele>1290.1</ele>
        <time>2022-06-15T13:10:08Z</time>
      </trkpt>
      <trkpt lat="45.86932" lon="6.48257">
        <ele>1290.2</ele>
        <time>2022-06-15T13:10:09Z</time>
      </trkpt>
      <trkpt lat="45.86934" lon="6.48261">
        <ele>1290.5</ele>
        <time>2022-06-15T13:10:10Z</time>
      </trkpt>
      <trkpt lat="45.86935" lon="6.48264">
        <ele>1290.8</ele>
        <time>2022-06-15T13:10:11Z</time>
      </trkpt>
      <trkpt lat="45.86937" lon="6.48267">
        <ele>1291.3</ele>
        <time>2022-06-15T13:10:12Z</time>
      </trkpt>
      <trkpt lat="45.86939" lon="6.4827">
        <ele>1291.6</ele>
        <time>2022-06-15T13:10:13Z</time>
      </trkpt>
      <trkpt lat="45.8694" lon="6.48274">
        <ele>1291.9</ele>
        <time>2022-06-15T13:10:14Z</time>
      </trkpt>
      <trkpt lat="45.86941" lon="6.48278">
        <ele>1292.2</ele>
        <time>2022-06-15T13:10:15Z</time>
      </trkpt>
      <trkpt lat="45.86943" lon="6.48281">
        <ele>1292.5</ele>
        <time>2022-06-15T13:10:16Z</time>
      </trkpt>
      <trkpt lat="45.86944" lon="6.48285">
        <ele>1292.8</ele>
        <time>2022-06-15T13:10:17Z</time>
      </trkpt>
      <trkpt lat="45.86945" lon="6.48289">
        <ele>1293</ele>
        <time>2022-06-15T13:10:18Z</time>
      </trkpt>
      <trkpt lat="45.86946" lon="6.48293">
        <ele>1293.3</ele>
        <time>2022-06-15T13:10:19Z</time>
      </trkpt>
      <trkpt lat="45.86946" lon="6.48297">
        <ele>1293.4</ele>
        <time>2022-06-15T13:10:20Z</time>
      </trkpt>
      <trkpt lat="45.86947" lon="6.48302">
        <ele>1293.5</ele>
        <time>2022-06-15T13:10:21Z</time>
      </trkpt>
      <trkpt lat="45.86947" lon="6.48306">
        <ele>1293.6</ele>
        <time>2022-06-15T13:10:22Z</time>
      </trkpt>
      <trkpt lat="45.86948" lon="6.4831">
        <ele>1293.8</ele>
        <time>2022-06-15T13:10:23Z</time>
      </trkpt>
      <trkpt lat="45.86949" lon="6.48315">
        <ele>1293.9</ele>
        <time>2022-06-15T13:10:24Z</time>
      </trkpt>
      <trkpt lat="45.8695" lon="6.48319">
        <ele>1294.1</ele>
        <time>2022-06-15T13:10:25Z</time>
      </trkpt>
      <trkpt lat="45.86951" lon="6.48323">
        <ele>1294.4</ele>
        <time>2022-06-15T13:10:26Z</time>
      </trkpt>
      <trkpt lat="45.86953" lon="6.48327">
        <ele>1294.7</ele>
        <time>2022-06-15T13:10:27Z</time>
      </trkpt>
      <trkpt lat="45.86956" lon="6.48331">
        <ele>1295.2</ele>
        <time>2022-06-15T13:10:28Z</time>
      </trkpt>
      <trkpt lat="45.86959" lon="6.48334">
        <ele>1295.5</ele>
        <time>2022-06-15T13:10:29Z</time>
      </trkpt>
      <trkpt lat="45.86962" lon="6.48336">
        <ele>1295.6</ele>
        <time>2022-06-15T13:10:30Z</time>
      </trkpt>
      <trkpt lat="45.86965" lon="6.48339">
        <ele>1295.7</ele>
        <time>2022-06-15T13:10:31Z</time>
      </trkpt>
      <trkpt lat="45.86968" lon="6.48341">
        <ele>1295.8</ele>
        <time>2022-06-15T13:10:32Z</time>
      </trkpt>
      <trkpt lat="45.86971" lon="6.48343">
        <ele>1295.9</ele>
        <time>2022-06-15T13:10:33Z</time>
      </trkpt>
      <trkpt lat="45.86974" lon="6.48346">
        <ele>1296</ele>
        <time>2022-06-15T13:10:34Z</time>
      </trkpt>
      <trkpt lat="45.86977" lon="6.48348">
        <ele>1296.1</ele>
        <time>2022-06-15T13:10:35Z</time>
      </trkpt>
      <trkpt lat="45.86979" lon="6.4835">
        <ele>1296.3</ele>
        <time>2022-06-15T13:10:36Z</time>
      </trkpt>
      <trkpt lat="45.86982" lon="6.48351">
        <ele>1296.5</ele>
        <time>2022-06-15T13:10:37Z</time>
      </trkpt>
      <trkpt lat="45.86985" lon="6.48353">
        <ele>1296.7</ele>
        <time>2022-06-15T13:10:38Z</time>
      </trkpt>
      <trkpt lat="45.86988" lon="6.48354">
        <ele>1296.9</ele>
        <time>2022-06-15T13:10:39Z</time>
      </trkpt>
      <trkpt lat="45.8699" lon="6.48355">
        <ele>1297.2</ele>
        <time>2022-06-15T13:10:40Z</time>
      </trkpt>
      <trkpt lat="45.86993" lon="6.48357">
        <ele>1297.4</ele>
        <time>2022-06-15T13:10:41Z</time>
      </trkpt>
      <trkpt lat="45.86995" lon="6.48359">
        <ele>1297.5</ele>
        <time>2022-06-15T13:10:42Z</time>
      </trkpt>
      <trkpt lat="45.86998" lon="6.4836">
        <ele>1297.7</ele>
        <time>2022-06-15T13:10:43Z</time>
      </trkpt>
      <trkpt lat="45.87" lon="6.48362">
        <ele>1297.9</ele>
        <time>2022-06-15T13:10:44Z</time>
      </trkpt>
      <trkpt lat="45.87002" lon="6.48364">
        <ele>1298.4</ele>
        <time>2022-06-15T13:10:45Z</time>
      </trkpt>
      <trkpt lat="45.87004" lon="6.48366">
        <ele>1298.8</ele>
        <time>2022-06-15T13:10:46Z</time>
      </trkpt>
      <trkpt lat="45.87006" lon="6.48369">
        <ele>1299.2</ele>
        <time>2022-06-15T13:10:47Z</time>
      </trkpt>
      <trkpt lat="45.87008" lon="6.48372">
        <ele>1299.5</ele>
        <time>2022-06-15T13:10:48Z</time>
      </trkpt>
      <trkpt lat="45.8701" lon="6.48374">
        <ele>1299.8</ele>
        <time>2022-06-15T13:10:49Z</time>
      </trkpt>
      <trkpt lat="45.87012" lon="6.48377">
        <ele>1300</ele>
        <time>2022-06-15T13:10:50Z</time>
      </trkpt>
      <trkpt lat="45.87014" lon="6.4838">
        <ele>1300.2</ele>
        <time>2022-06-15T13:10:51Z</time>
      </trkpt>
      <trkpt lat="45.87015" lon="6.48383">
        <ele>1300.2</ele>
        <time>2022-06-15T13:10:52Z</time>
      </trkpt>
      <trkpt lat="45.87016" lon="6.48387">
        <ele>1300.2</ele>
        <time>2022-06-15T13:10:53Z</time>
      </trkpt>
      <trkpt lat="45.87017" lon="6.48391">
        <ele>1300.1</ele>
        <time>2022-06-15T13:10:54Z</time>
      </trkpt>
      <trkpt lat="45.87018" lon="6.48394">
        <ele>1300.2</ele>
        <time>2022-06-15T13:10:55Z</time>
      </trkpt>
      <trkpt lat="45.87018" lon="6.48398">
        <ele>1300.3</ele>
        <time>2022-06-15T13:10:56Z</time>
      </trkpt>
      <trkpt lat="45.87019" lon="6.48401">
        <ele>1300.3</ele>
        <time>2022-06-15T13:10:57Z</time>
      </trkpt>
      <trkpt lat="45.8702" lon="6.48405">
        <ele>1300.4</ele>
        <time>2022-06-15T13:10:58Z</time>
      </trkpt>
      <trkpt lat="45.87021" lon="6.48408">
        <ele>1300.5</ele>
        <time>2022-06-15T13:10:59Z</time>
      </trkpt>
      <trkpt lat="45.87022" lon="6.48412">
        <ele>1300.6</ele>
        <time>2022-06-15T13:11:00Z</time>
      </trkpt>
      <trkpt lat="45.87023" lon="6.48415">
        <ele>1300.7</ele>
        <time>2022-06-15T13:11:01Z</time>
      </trkpt>
      <trkpt lat="45.87023" lon="6.48419">
        <ele>1300.9</ele>
        <time>2022-06-15T13:11:02Z</time>
      </trkpt>
      <trkpt lat="45.87024" lon="6.48423">
        <ele>1301</ele>
        <time>2022-06-15T13:11:03Z</time>
      </trkpt>
      <trkpt lat="45.87025" lon="6.48426">
        <ele>1301.3</ele>
        <time>2022-06-15T13:11:04Z</time>
      </trkpt>
      <trkpt lat="45.87026" lon="6.48429">
        <ele>1301.5</ele>
        <time>2022-06-15T13:11:05Z</time>
      </trkpt>
      <trkpt lat="45.87027" lon="6.48433">
        <ele>1301.7</ele>
        <time>2022-06-15T13:11:06Z</time>
      </trkpt>
      <trkpt lat="45.87028" lon="6.48436">
        <ele>1301.9</ele>
        <time>2022-06-15T13:11:07Z</time>
      </trkpt>
      <trkpt lat="45.87028" lon="6.4844">
        <ele>1302.2</ele>
        <time>2022-06-15T13:11:08Z</time>
      </trkpt>
      <trkpt lat="45.87029" lon="6.48443">
        <ele>1302.5</ele>
        <time>2022-06-15T13:11:09Z</time>
      </trkpt>
      <trkpt lat="45.8703" lon="6.48447">
        <ele>1302.8</ele>
        <time>2022-06-15T13:11:10Z</time>
      </trkpt>
      <trkpt lat="45.87031" lon="6.4845">
        <ele>1303.1</ele>
        <time>2022-06-15T13:11:11Z</time>
      </trkpt>
      <trkpt lat="45.87032" lon="6.48454">
        <ele>1303.4</ele>
        <time>2022-06-15T13:11:12Z</time>
      </trkpt>
      <trkpt lat="45.87033" lon="6.48457">
        <ele>1303.5</ele>
        <time>2022-06-15T13:11:13Z</time>
      </trkpt>
      <trkpt lat="45.87033" lon="6.48461">
        <ele>1303.7</ele>
        <time>2022-06-15T13:11:14Z</time>
      </trkpt>
      <trkpt lat="45.87034" lon="6.48464">
        <ele>1303.9</ele>
        <time>2022-06-15T13:11:15Z</time>
      </trkpt>
      <trkpt lat="45.87035" lon="6.48468">
        <ele>1304</ele>
        <time>2022-06-15T13:11:16Z</time>
      </trkpt>
      <trkpt lat="45.87035" lon="6.48471">
        <ele>1304.1</ele>
        <time>2022-06-15T13:11:17Z</time>
      </trkpt>
      <trkpt lat="45.87036" lon="6.48475">
        <ele>1304.3</ele>
        <time>2022-06-15T13:11:18Z</time>
      </trkpt>
      <trkpt lat="45.87036" lon="6.48478">
        <ele>1304.4</ele>
        <time>2022-06-15T13:11:19Z</time>
      </trkpt>
      <trkpt lat="45.87036" lon="6.48482">
        <ele>1304.5</ele>
        <time>2022-06-15T13:11:20Z</time>
      </trkpt>
      <trkpt lat="45.87037" lon="6.48485">
        <ele>1304.7</ele>
        <time>2022-06-15T13:11:21Z</time>
      </trkpt>
      <trkpt lat="45.87038" lon="6.48489">
        <ele>1305</ele>
        <time>2022-06-15T13:11:22Z</time>
      </trkpt>
      <trkpt lat="45.87038" lon="6.48492">
        <ele>1305.3</ele>
        <time>2022-06-15T13:11:23Z</time>
      </trkpt>
      <trkpt lat="45.87039" lon="6.48495">
        <ele>1305.6</ele>
        <time>2022-06-15T13:11:24Z</time>
      </trkpt>
      <trkpt lat="45.8704" lon="6.48499">
        <ele>1305.9</ele>
        <time>2022-06-15T13:11:25Z</time>
      </trkpt>
      <trkpt lat="45.87041" lon="6.48502">
        <ele>1306.2</ele>
        <time>2022-06-15T13:11:26Z</time>
      </trkpt>
      <trkpt lat="45.87041" lon="6.48506">
        <ele>1306.2</ele>
        <time>2022-06-15T13:11:27Z</time>
      </trkpt>
      <trkpt lat="45.87041" lon="6.48509">
        <ele>1306.4</ele>
        <time>2022-06-15T13:11:28Z</time>
      </trkpt>
      <trkpt lat="45.87042" lon="6.48513">
        <ele>1306.5</ele>
        <time>2022-06-15T13:11:29Z</time>
      </trkpt>
      <trkpt lat="45.87042" lon="6.48517">
        <ele>1306.6</ele>
        <time>2022-06-15T13:11:30Z</time>
      </trkpt>
      <trkpt lat="45.87043" lon="6.4852">
        <ele>1306.8</ele>
        <time>2022-06-15T13:11:31Z</time>
      </trkpt>
      <trkpt lat="45.87043" lon="6.48524">
        <ele>1306.9</ele>
        <time>2022-06-15T13:11:32Z</time>
      </trkpt>
      <trkpt lat="45.87044" lon="6.48527">
        <ele>1307.1</ele>
        <time>2022-06-15T13:11:33Z</time>
      </trkpt>
      <trkpt lat="45.87045" lon="6.48531">
        <ele>1307.1</ele>
        <time>2022-06-15T13:11:34Z</time>
      </trkpt>
      <trkpt lat="45.87045" lon="6.48534">
        <ele>1307</ele>
        <time>2022-06-15T13:11:35Z</time>
      </trkpt>
      <trkpt lat="45.87046" lon="6.48538">
        <ele>1307</ele>
        <time>2022-06-15T13:11:36Z</time>
      </trkpt>
      <trkpt lat="45.87047" lon="6.48541">
        <ele>1307</ele>
        <time>2022-06-15T13:11:37Z</time>
      </trkpt>
      <trkpt lat="45.87047" lon="6.48545">
        <ele>1307</ele>
        <time>2022-06-15T13:11:38Z</time>
      </trkpt>
      <trkpt lat="45.87049" lon="6.48548">
        <ele>1307.1</ele>
        <time>2022-06-15T13:11:39Z</time>
      </trkpt>
      <trkpt lat="45.8705" lon="6.48552">
        <ele>1307.3</ele>
        <time>2022-06-15T13:11:40Z</time>
      </trkpt>
      <trkpt lat="45.87051" lon="6.48555">
        <ele>1307.4</ele>
        <time>2022-06-15T13:11:41Z</time>
      </trkpt>
      <trkpt lat="45.87052" lon="6.48559">
        <ele>1307.5</ele>
        <time>2022-06-15T13:11:42Z</time>
      </trkpt>
      <trkpt lat="45.87053" lon="6.48562">
        <ele>1307.5</ele>
        <time>2022-06-15T13:11:43Z</time>
      </trkpt>
      <trkpt lat="45.87054" lon="6.48565">
        <ele>1307.6</ele>
        <time>2022-06-15T13:11:44Z</time>
      </trkpt>
      <trkpt lat="45.87055" lon="6.48569">
        <ele>1307.9</ele>
        <time>2022-06-15T13:11:45Z</time>
      </trkpt>
      <trkpt lat="45.87056" lon="6.48571">
        <ele>1308.1</ele>
        <time>2022-06-15T13:11:46Z</time>
      </trkpt>
      <trkpt lat="45.87058" lon="6.48574">
        <ele>1308.2</ele>
        <time>2022-06-15T13:11:47Z</time>
      </trkpt>
      <trkpt lat="45.8706" lon="6.48576">
        <ele>1308.4</ele>
        <time>2022-06-15T13:11:48Z</time>
      </trkpt>
      <trkpt lat="45.87061" lon="6.48579">
        <ele>1308.6</ele>
        <time>2022-06-15T13:11:49Z</time>
      </trkpt>
      <trkpt lat="45.87063" lon="6.48581">
        <ele>1308.7</ele>
        <time>2022-06-15T13:11:50Z</time>
      </trkpt>
      <trkpt lat="45.87065" lon="6.48583">
        <ele>1309</ele>
        <time>2022-06-15T13:11:51Z</time>
      </trkpt>
      <trkpt lat="45.87067" lon="6.48584">
        <ele>1309.3</ele>
        <time>2022-06-15T13:11:52Z</time>
      </trkpt>
      <trkpt lat="45.87069" lon="6.48586">
        <ele>1309.7</ele>
        <time>2022-06-15T13:11:53Z</time>
      </trkpt>
      <trkpt lat="45.87072" lon="6.48587">
        <ele>1310</ele>
        <time>2022-06-15T13:11:54Z</time>
      </trkpt>
      <trkpt lat="45.87075" lon="6.48588">
        <ele>1310.5</ele>
        <time>2022-06-15T13:11:55Z</time>
      </trkpt>
      <trkpt lat="45.87077" lon="6.4859">
        <ele>1310.9</ele>
        <time>2022-06-15T13:11:56Z</time>
      </trkpt>
      <trkpt lat="45.87079" lon="6.48592">
        <ele>1311.1</ele>
        <time>2022-06-15T13:11:57Z</time>
      </trkpt>
      <trkpt lat="45.87081" lon="6.48594">
        <ele>1311.4</ele>
        <time>2022-06-15T13:11:58Z</time>
      </trkpt>
      <trkpt lat="45.87084" lon="6.48596">
        <ele>1311.7</ele>
        <time>2022-06-15T13:11:59Z</time>
      </trkpt>
      <trkpt lat="45.87086" lon="6.48597">
        <ele>1312</ele>
        <time>2022-06-15T13:12:00Z</time>
      </trkpt>
      <trkpt lat="45.87088" lon="6.48599">
        <ele>1312.4</ele>
        <time>2022-06-15T13:12:01Z</time>
      </trkpt>
      <trkpt lat="45.87091" lon="6.486">
        <ele>1312.8</ele>
        <time>2022-06-15T13:12:02Z</time>
      </trkpt>
      <trkpt lat="45.87093" lon="6.48601">
        <ele>1313.1</ele>
        <time>2022-06-15T13:12:03Z</time>
      </trkpt>
      <trkpt lat="45.87095" lon="6.48603">
        <ele>1313.5</ele>
        <time>2022-06-15T13:12:04Z</time>
      </trkpt>
      <trkpt lat="45.87098" lon="6.48605">
        <ele>1313.8</ele>
        <time>2022-06-15T13:12:05Z</time>
      </trkpt>
      <trkpt lat="45.871" lon="6.48607">
        <ele>1314</ele>
        <time>2022-06-15T13:12:06Z</time>
      </trkpt>
      <trkpt lat="45.87102" lon="6.48609">
        <ele>1314.3</ele>
        <time>2022-06-15T13:12:07Z</time>
      </trkpt>
      <trkpt lat="45.87104" lon="6.48611">
        <ele>1314.5</ele>
        <time>2022-06-15T13:12:08Z</time>
      </trkpt>
      <trkpt lat="45.87106" lon="6.48614">
        <ele>1314.8</ele>
        <time>2022-06-15T13:12:09Z</time>
      </trkpt>
      <trkpt lat="45.87108" lon="6.48616">
        <ele>1315.1</ele>
        <time>2022-06-15T13:12:10Z</time>
      </trkpt>
      <trkpt lat="45.8711" lon="6.48619">
        <ele>1315.4</ele>
        <time>2022-06-15T13:12:11Z</time>
      </trkpt>
      <trkpt lat="45.87111" lon="6.48622">
        <ele>1315.6</ele>
        <time>2022-06-15T13:12:12Z</time>
      </trkpt>
      <trkpt lat="45.87112" lon="6.48625">
        <ele>1315.8</ele>
        <time>2022-06-15T13:12:13Z</time>
      </trkpt>
      <trkpt lat="45.87113" lon="6.48628">
        <ele>1315.9</ele>
        <time>2022-06-15T13:12:14Z</time>
      </trkpt>
      <trkpt lat="45.87114" lon="6.48632">
        <ele>1315.9</ele>
        <time>2022-06-15T13:12:15Z</time>
      </trkpt>
      <trkpt lat="45.87114" lon="6.48635">
        <ele>1315.9</ele>
        <time>2022-06-15T13:12:16Z</time>
      </trkpt>
      <trkpt lat="45.87113" lon="6.48639">
        <ele>1315.6</ele>
        <time>2022-06-15T13:12:17Z</time>
      </trkpt>
      <trkpt lat="45.87113" lon="6.48642">
        <ele>1316.2</ele>
        <time>2022-06-15T13:12:18Z</time>
      </trkpt>
      <trkpt lat="45.87112" lon="6.48646">
        <ele>1316.8</ele>
        <time>2022-06-15T13:12:19Z</time>
      </trkpt>
      <trkpt lat="45.8711" lon="6.48649">
        <ele>1317.3</ele>
        <time>2022-06-15T13:12:20Z</time>
      </trkpt>
      <trkpt lat="45.87109" lon="6.48651">
        <ele>1317.6</ele>
        <time>2022-06-15T13:12:21Z</time>
      </trkpt>
      <trkpt lat="45.87107" lon="6.48653">
        <ele>1317.8</ele>
        <time>2022-06-15T13:12:22Z</time>
      </trkpt>
      <trkpt lat="45.87105" lon="6.48654">
        <ele>1317.8</ele>
        <time>2022-06-15T13:12:23Z</time>
      </trkpt>
      <trkpt lat="45.87103" lon="6.48655">
        <ele>1317.7</ele>
        <time>2022-06-15T13:12:24Z</time>
      </trkpt>
      <trkpt lat="45.871" lon="6.48656">
        <ele>1317.4</ele>
        <time>2022-06-15T13:12:25Z</time>
      </trkpt>
      <trkpt lat="45.87097" lon="6.48656">
        <ele>1317.2</ele>
        <time>2022-06-15T13:12:26Z</time>
      </trkpt>
      <trkpt lat="45.87095" lon="6.48657">
        <ele>1317</ele>
        <time>2022-06-15T13:12:27Z</time>
      </trkpt>
      <trkpt lat="45.87092" lon="6.48657">
        <ele>1316.7</ele>
        <time>2022-06-15T13:12:28Z</time>
      </trkpt>
      <trkpt lat="45.8709" lon="6.48658">
        <ele>1316.5</ele>
        <time>2022-06-15T13:12:29Z</time>
      </trkpt>
      <trkpt lat="45.87087" lon="6.48659">
        <ele>1316.3</ele>
        <time>2022-06-15T13:12:30Z</time>
      </trkpt>
      <trkpt lat="45.87085" lon="6.4866">
        <ele>1316.2</ele>
        <time>2022-06-15T13:12:31Z</time>
      </trkpt>
      <trkpt lat="45.87083" lon="6.4866">
        <ele>1316</ele>
        <time>2022-06-15T13:12:32Z</time>
      </trkpt>
      <trkpt lat="45.8708" lon="6.48661">
        <ele>1315.7</ele>
        <time>2022-06-15T13:12:33Z</time>
      </trkpt>
      <trkpt lat="45.87078" lon="6.48663">
        <ele>1315.4</ele>
        <time>2022-06-15T13:12:34Z</time>
      </trkpt>
      <trkpt lat="45.87075" lon="6.48664">
        <ele>1315.2</ele>
        <time>2022-06-15T13:12:35Z</time>
      </trkpt>
      <trkpt lat="45.87073" lon="6.48666">
        <ele>1315.2</ele>
        <time>2022-06-15T13:12:36Z</time>
      </trkpt>
      <trkpt lat="45.87071" lon="6.48668">
        <ele>1315.1</ele>
        <time>2022-06-15T13:12:37Z</time>
      </trkpt>
      <trkpt lat="45.87069" lon="6.4867">
        <ele>1315.2</ele>
        <time>2022-06-15T13:12:38Z</time>
      </trkpt>
      <trkpt lat="45.87067" lon="6.48672">
        <ele>1315.5</ele>
        <time>2022-06-15T13:12:39Z</time>
      </trkpt>
      <trkpt lat="45.87065" lon="6.48675">
        <ele>1315.8</ele>
        <time>2022-06-15T13:12:40Z</time>
      </trkpt>
      <trkpt lat="45.87063" lon="6.48677">
        <ele>1316.1</ele>
        <time>2022-06-15T13:12:41Z</time>
      </trkpt>
      <trkpt lat="45.87062" lon="6.48679">
        <ele>1316.4</ele>
        <time>2022-06-15T13:12:42Z</time>
      </trkpt>
      <trkpt lat="45.8706" lon="6.48682">
        <ele>1316.9</ele>
        <time>2022-06-15T13:12:43Z</time>
      </trkpt>
      <trkpt lat="45.87059" lon="6.48684">
        <ele>1317.6</ele>
        <time>2022-06-15T13:12:44Z</time>
      </trkpt>
      <trkpt lat="45.87058" lon="6.48687">
        <ele>1318.3</ele>
        <time>2022-06-15T13:12:45Z</time>
      </trkpt>
      <trkpt lat="45.87057" lon="6.48691">
        <ele>1319.1</ele>
        <time>2022-06-15T13:12:46Z</time>
      </trkpt>
      <trkpt lat="45.87056" lon="6.48694">
        <ele>1319.8</ele>
        <time>2022-06-15T13:12:47Z</time>
      </trkpt>
      <trkpt lat="45.87055" lon="6.48697">
        <ele>1319.9</ele>
        <time>2022-06-15T13:12:48Z</time>
      </trkpt>
      <trkpt lat="45.87054" lon="6.487">
        <ele>1319.8</ele>
        <time>2022-06-15T13:12:49Z</time>
      </trkpt>
      <trkpt lat="45.87053" lon="6.48703">
        <ele>1319.8</ele>
        <time>2022-06-15T13:12:50Z</time>
      </trkpt>
      <trkpt lat="45.87053" lon="6.48707">
        <ele>1319.9</ele>
        <time>2022-06-15T13:12:51Z</time>
      </trkpt>
      <trkpt lat="45.87052" lon="6.4871">
        <ele>1319.9</ele>
        <time>2022-06-15T13:12:52Z</time>
      </trkpt>
      <trkpt lat="45.87052" lon="6.48714">
        <ele>1320</ele>
        <time>2022-06-15T13:12:53Z</time>
      </trkpt>
      <trkpt lat="45.87051" lon="6.48717">
        <ele>1320</ele>
        <time>2022-06-15T13:12:54Z</time>
      </trkpt>
      <trkpt lat="45.87051" lon="6.48721">
        <ele>1320.2</ele>
        <time>2022-06-15T13:12:55Z</time>
      </trkpt>
      <trkpt lat="45.87051" lon="6.48724">
        <ele>1320.2</ele>
        <time>2022-06-15T13:12:56Z</time>
      </trkpt>
      <trkpt lat="45.87051" lon="6.48727">
        <ele>1320.2</ele>
        <time>2022-06-15T13:12:57Z</time>
      </trkpt>
      <trkpt lat="45.87051" lon="6.4873">
        <ele>1320.1</ele>
        <time>2022-06-15T13:12:58Z</time>
      </trkpt>
      <trkpt lat="45.87051" lon="6.48733">
        <ele>1320.1</ele>
        <time>2022-06-15T13:12:59Z</time>
      </trkpt>
      <trkpt lat="45.87051" lon="6.48735">
        <ele>1320.3</ele>
        <time>2022-06-15T13:13:00Z</time>
      </trkpt>
      <trkpt lat="45.87051" lon="6.48738">
        <ele>1320.3</ele>
        <time>2022-06-15T13:13:01Z</time>
      </trkpt>
      <trkpt lat="45.87052" lon="6.48741">
        <ele>1320.6</ele>
        <time>2022-06-15T13:13:02Z</time>
      </trkpt>
      <trkpt lat="45.87053" lon="6.48744">
        <ele>1320.9</ele>
        <time>2022-06-15T13:13:03Z</time>
      </trkpt>
      <trkpt lat="45.87054" lon="6.48747">
        <ele>1321.2</ele>
        <time>2022-06-15T13:13:04Z</time>
      </trkpt>
      <trkpt lat="45.87055" lon="6.4875">
        <ele>1321.8</ele>
        <time>2022-06-15T13:13:05Z</time>
      </trkpt>
      <trkpt lat="45.87056" lon="6.48753">
        <ele>1321.6</ele>
        <time>2022-06-15T13:13:06Z</time>
      </trkpt>
      <trkpt lat="45.87058" lon="6.48755">
        <ele>1321.3</ele>
        <time>2022-06-15T13:13:07Z</time>
      </trkpt>
      <trkpt lat="45.8706" lon="6.48757">
        <ele>1321</ele>
        <time>2022-06-15T13:13:08Z</time>
      </trkpt>
      <trkpt lat="45.87061" lon="6.48759">
        <ele>1320.8</ele>
        <time>2022-06-15T13:13:09Z</time>
      </trkpt>
      <trkpt lat="45.87063" lon="6.48761">
        <ele>1320.6</ele>
        <time>2022-06-15T13:13:10Z</time>
      </trkpt>
      <trkpt lat="45.87064" lon="6.48762">
        <ele>1320.5</ele>
        <time>2022-06-15T13:13:11Z</time>
      </trkpt>
      <trkpt lat="45.87065" lon="6.48762">
        <ele>1320.6</ele>
        <time>2022-06-15T13:13:12Z</time>
      </trkpt>
      <trkpt lat="45.87065" lon="6.48762">
        <ele>1320.6</ele>
        <time>2022-06-15T13:13:13Z</time>
      </trkpt>
      <trkpt lat="45.87065" lon="6.48762">
        <ele>1320.6</ele>
        <time>2022-06-15T13:13:14Z</time>
      </trkpt>
      <trkpt lat="45.87069" lon="6.48759">
        <ele>1321.4</ele>
        <time>2022-06-15T13:14:04Z</time>
      </trkpt>
      <trkpt lat="45.87071" lon="6.48757">
        <ele>1321.9</ele>
        <time>2022-06-15T13:14:05Z</time>
      </trkpt>
      <trkpt lat="45.87073" lon="6.48755">
        <ele>1322.4</ele>
        <time>2022-06-15T13:14:06Z</time>
      </trkpt>
      <trkpt lat="45.87075" lon="6.48753">
        <ele>1323</ele>
        <time>2022-06-15T13:14:07Z</time>
      </trkpt>
      <trkpt lat="45.87077" lon="6.4875">
        <ele>1323.6</ele>
        <time>2022-06-15T13:14:08Z</time>
      </trkpt>
      <trkpt lat="45.87079" lon="6.48747">
        <ele>1323.9</ele>
        <time>2022-06-15T13:14:09Z</time>
      </trkpt>
      <trkpt lat="45.87081" lon="6.48744">
        <ele>1324.2</ele>
        <time>2022-06-15T13:14:10Z</time>
      </trkpt>
      <trkpt lat="45.87082" lon="6.48741">
        <ele>1324.5</ele>
        <time>2022-06-15T13:14:11Z</time>
      </trkpt>
      <trkpt lat="45.87084" lon="6.48738">
        <ele>1324.6</ele>
        <time>2022-06-15T13:14:12Z</time>
      </trkpt>
      <trkpt lat="45.87086" lon="6.48735">
        <ele>1324.1</ele>
        <time>2022-06-15T13:14:13Z</time>
      </trkpt>
      <trkpt lat="45.87087" lon="6.48733">
        <ele>1323.6</ele>
        <time>2022-06-15T13:14:14Z</time>
      </trkpt>
      <trkpt lat="45.87089" lon="6.4873">
        <ele>1323.1</ele>
        <time>2022-06-15T13:14:15Z</time>
      </trkpt>
      <trkpt lat="45.87091" lon="6.48727">
        <ele>1322.8</ele>
        <time>2022-06-15T13:14:16Z</time>
      </trkpt>
      <trkpt lat="45.87092" lon="6.48725">
        <ele>1322.5</ele>
        <time>2022-06-15T13:14:17Z</time>
      </trkpt>
      <trkpt lat="45.87094" lon="6.48722">
        <ele>1322.3</ele>
        <time>2022-06-15T13:14:18Z</time>
      </trkpt>
      <trkpt lat="45.87095" lon="6.48719">
        <ele>1322.2</ele>
        <time>2022-06-15T13:14:19Z</time>
      </trkpt>
      <trkpt lat="45.87097" lon="6.48716">
        <ele>1322.2</ele>
        <time>2022-06-15T13:14:20Z</time>
      </trkpt>
      <trkpt lat="45.87098" lon="6.48713">
        <ele>1322.4</ele>
        <time>2022-06-15T13:14:21Z</time>
      </trkpt>
      <trkpt lat="45.87099" lon="6.4871">
        <ele>1322.6</ele>
        <time>2022-06-15T13:14:22Z</time>
      </trkpt>
      <trkpt lat="45.871" lon="6.48708">
        <ele>1322.8</ele>
        <time>2022-06-15T13:14:23Z</time>
      </trkpt>
      <trkpt lat="45.87102" lon="6.48705">
        <ele>1323.2</ele>
        <time>2022-06-15T13:14:24Z</time>
      </trkpt>
      <trkpt lat="45.87103" lon="6.48702">
        <ele>1323.6</ele>
        <time>2022-06-15T13:14:25Z</time>
      </trkpt>
      <trkpt lat="45.87103" lon="6.48699">
        <ele>1324.2</ele>
        <time>2022-06-15T13:14:26Z</time>
      </trkpt>
      <trkpt lat="45.87104" lon="6.48697">
        <ele>1324.7</ele>
        <time>2022-06-15T13:14:27Z</time>
      </trkpt>
      <trkpt lat="45.87105" lon="6.48694">
        <ele>1325.1</ele>
        <time>2022-06-15T13:14:28Z</time>
      </trkpt>
      <trkpt lat="45.87107" lon="6.48691">
        <ele>1324.7</ele>
        <time>2022-06-15T13:14:29Z</time>
      </trkpt>
      <trkpt lat="45.87108" lon="6.48689">
        <ele>1324.4</ele>
        <time>2022-06-15T13:14:30Z</time>
      </trkpt>
      <trkpt lat="45.8711" lon="6.48687">
        <ele>1324.2</ele>
        <time>2022-06-15T13:14:31Z</time>
      </trkpt>
      <trkpt lat="45.87112" lon="6.48686">
        <ele>1324.1</ele>
        <time>2022-06-15T13:14:32Z</time>
      </trkpt>
      <trkpt lat="45.87114" lon="6.48685">
        <ele>1323.9</ele>
        <time>2022-06-15T13:14:33Z</time>
      </trkpt>
      <trkpt lat="45.87116" lon="6.48685">
        <ele>1323.8</ele>
        <time>2022-06-15T13:14:34Z</time>
      </trkpt>
      <trkpt lat="45.87118" lon="6.48684">
        <ele>1323.7</ele>
        <time>2022-06-15T13:14:35Z</time>
      </trkpt>
      <trkpt lat="45.8712" lon="6.48683">
        <ele>1323.7</ele>
        <time>2022-06-15T13:14:36Z</time>
      </trkpt>
      <trkpt lat="45.87122" lon="6.48683">
        <ele>1323.7</ele>
        <time>2022-06-15T13:14:37Z</time>
      </trkpt>
      <trkpt lat="45.87124" lon="6.48682">
        <ele>1323.8</ele>
        <time>2022-06-15T13:14:38Z</time>
      </trkpt>
      <trkpt lat="45.87126" lon="6.48681">
        <ele>1324</ele>
        <time>2022-06-15T13:14:39Z</time>
      </trkpt>
      <trkpt lat="45.87128" lon="6.4868">
        <ele>1324.2</ele>
        <time>2022-06-15T13:14:40Z</time>
      </trkpt>
      <trkpt lat="45.8713" lon="6.48679">
        <ele>1324.4</ele>
        <time>2022-06-15T13:14:41Z</time>
      </trkpt>
      <trkpt lat="45.87132" lon="6.48679">
        <ele>1324.6</ele>
        <time>2022-06-15T13:14:42Z</time>
      </trkpt>
      <trkpt lat="45.87134" lon="6.48678">
        <ele>1324.9</ele>
        <time>2022-06-15T13:14:43Z</time>
      </trkpt>
      <trkpt lat="45.87137" lon="6.48678">
        <ele>1325.3</ele>
        <time>2022-06-15T13:14:44Z</time>
      </trkpt>
      <trkpt lat="45.87139" lon="6.48677">
        <ele>1325.5</ele>
        <time>2022-06-15T13:14:45Z</time>
      </trkpt>
      <trkpt lat="45.87141" lon="6.48677">
        <ele>1326.1</ele>
        <time>2022-06-15T13:14:46Z</time>
      </trkpt>
      <trkpt lat="45.87143" lon="6.48676">
        <ele>1326.7</ele>
        <time>2022-06-15T13:14:47Z</time>
      </trkpt>
      <trkpt lat="45.87145" lon="6.48676">
        <ele>1327.5</ele>
        <time>2022-06-15T13:14:48Z</time>
      </trkpt>
      <trkpt lat="45.87147" lon="6.48675">
        <ele>1328.1</ele>
        <time>2022-06-15T13:14:49Z</time>
      </trkpt>
      <trkpt lat="45.87149" lon="6.48675">
        <ele>1328.7</ele>
        <time>2022-06-15T13:14:50Z</time>
      </trkpt>
      <trkpt lat="45.87151" lon="6.48674">
        <ele>1329.3</ele>
        <time>2022-06-15T13:14:51Z</time>
      </trkpt>
      <trkpt lat="45.87153" lon="6.48673">
        <ele>1330</ele>
        <time>2022-06-15T13:14:52Z</time>
      </trkpt>
      <trkpt lat="45.87155" lon="6.48672">
        <ele>1330.8</ele>
        <time>2022-06-15T13:14:53Z</time>
      </trkpt>
      <trkpt lat="45.87157" lon="6.48671">
        <ele>1331.6</ele>
        <time>2022-06-15T13:14:54Z</time>
      </trkpt>
      <trkpt lat="45.87159" lon="6.4867">
        <ele>1332.4</ele>
        <time>2022-06-15T13:14:55Z</time>
      </trkpt>
      <trkpt lat="45.87161" lon="6.48669">
        <ele>1333.2</ele>
        <time>2022-06-15T13:14:56Z</time>
      </trkpt>
      <trkpt lat="45.87163" lon="6.48667">
        <ele>1334.1</ele>
        <time>2022-06-15T13:14:57Z</time>
      </trkpt>
      <trkpt lat="45.87165" lon="6.48666">
        <ele>1334.6</ele>
        <time>2022-06-15T13:14:58Z</time>
      </trkpt>
      <trkpt lat="45.87167" lon="6.48664">
        <ele>1335</ele>
        <time>2022-06-15T13:14:59Z</time>
      </trkpt>
      <trkpt lat="45.87169" lon="6.48662">
        <ele>1335.3</ele>
        <time>2022-06-15T13:15:00Z</time>
      </trkpt>
      <trkpt lat="45.8717" lon="6.4866">
        <ele>1335.5</ele>
        <time>2022-06-15T13:15:01Z</time>
      </trkpt>
      <trkpt lat="45.87172" lon="6.48658">
        <ele>1335.8</ele>
        <time>2022-06-15T13:15:02Z</time>
      </trkpt>
      <trkpt lat="45.87173" lon="6.48655">
        <ele>1336.1</ele>
        <time>2022-06-15T13:15:03Z</time>
      </trkpt>
      <trkpt lat="45.87174" lon="6.48653">
        <ele>1336.2</ele>
        <time>2022-06-15T13:15:04Z</time>
      </trkpt>
      <trkpt lat="45.87175" lon="6.4865">
        <ele>1336.4</ele>
        <time>2022-06-15T13:15:05Z</time>
      </trkpt>
      <trkpt lat="45.87176" lon="6.48647">
        <ele>1336.4</ele>
        <time>2022-06-15T13:15:06Z</time>
      </trkpt>
      <trkpt lat="45.87176" lon="6.48644">
        <ele>1336.5</ele>
        <time>2022-06-15T13:15:07Z</time>
      </trkpt>
      <trkpt lat="45.87177" lon="6.48641">
        <ele>1336.5</ele>
        <time>2022-06-15T13:15:08Z</time>
      </trkpt>
      <trkpt lat="45.87177" lon="6.48638">
        <ele>1336.8</ele>
        <time>2022-06-15T13:15:09Z</time>
      </trkpt>
      <trkpt lat="45.87177" lon="6.48635">
        <ele>1337.6</ele>
        <time>2022-06-15T13:15:10Z</time>
      </trkpt>
      <trkpt lat="45.87177" lon="6.48632">
        <ele>1338.3</ele>
        <time>2022-06-15T13:15:11Z</time>
      </trkpt>
      <trkpt lat="45.87177" lon="6.48629">
        <ele>1338.9</ele>
        <time>2022-06-15T13:15:12Z</time>
      </trkpt>
      <trkpt lat="45.87177" lon="6.48626">
        <ele>1339.3</ele>
        <time>2022-06-15T13:15:13Z</time>
      </trkpt>
      <trkpt lat="45.87176" lon="6.48623">
        <ele>1339.6</ele>
        <time>2022-06-15T13:15:14Z</time>
      </trkpt>
      <trkpt lat="45.87176" lon="6.4862">
        <ele>1340</ele>
        <time>2022-06-15T13:15:15Z</time>
      </trkpt>
      <trkpt lat="45.87175" lon="6.48617">
        <ele>1340.2</ele>
        <time>2022-06-15T13:15:16Z</time>
      </trkpt>
      <trkpt lat="45.87174" lon="6.48614">
        <ele>1340.5</ele>
        <time>2022-06-15T13:15:17Z</time>
      </trkpt>
      <trkpt lat="45.87174" lon="6.48611">
        <ele>1340.8</ele>
        <time>2022-06-15T13:15:18Z</time>
      </trkpt>
      <trkpt lat="45.87174" lon="6.48608">
        <ele>1340.5</ele>
        <time>2022-06-15T13:15:19Z</time>
      </trkpt>
      <trkpt lat="45.87174" lon="6.48605">
        <ele>1340.3</ele>
        <time>2022-06-15T13:15:20Z</time>
      </trkpt>
      <trkpt lat="45.87174" lon="6.48603">
        <ele>1340.4</ele>
        <time>2022-06-15T13:15:21Z</time>
      </trkpt>
      <trkpt lat="45.87175" lon="6.486">
        <ele>1340.6</ele>
        <time>2022-06-15T13:15:22Z</time>
      </trkpt>
      <trkpt lat="45.87175" lon="6.48597">
        <ele>1340.8</ele>
        <time>2022-06-15T13:15:23Z</time>
      </trkpt>
      <trkpt lat="45.87176" lon="6.48594">
        <ele>1341.2</ele>
        <time>2022-06-15T13:15:24Z</time>
      </trkpt>
      <trkpt lat="45.87177" lon="6.48591">
        <ele>1341.6</ele>
        <time>2022-06-15T13:15:25Z</time>
      </trkpt>
      <trkpt lat="45.87179" lon="6.48589">
        <ele>1342.2</ele>
        <time>2022-06-15T13:15:26Z</time>
      </trkpt>
      <trkpt lat="45.8718" lon="6.48586">
        <ele>1342.7</ele>
        <time>2022-06-15T13:15:27Z</time>
      </trkpt>
      <trkpt lat="45.87181" lon="6.48584">
        <ele>1343.3</ele>
        <time>2022-06-15T13:15:28Z</time>
      </trkpt>
      <trkpt lat="45.87182" lon="6.48581">
        <ele>1343.7</ele>
        <time>2022-06-15T13:15:29Z</time>
      </trkpt>
      <trkpt lat="45.87183" lon="6.48578">
        <ele>1343.9</ele>
        <time>2022-06-15T13:15:30Z</time>
      </trkpt>
      <trkpt lat="45.87183" lon="6.48575">
        <ele>1344</ele>
        <time>2022-06-15T13:15:31Z</time>
      </trkpt>
      <trkpt lat="45.87184" lon="6.48572">
        <ele>1344.1</ele>
        <time>2022-06-15T13:15:32Z</time>
      </trkpt>
      <trkpt lat="45.87184" lon="6.48569">
        <ele>1344.3</ele>
        <time>2022-06-15T13:15:33Z</time>
      </trkpt>
      <trkpt lat="45.87185" lon="6.48566">
        <ele>1344.6</ele>
        <time>2022-06-15T13:15:34Z</time>
      </trkpt>
      <trkpt lat="45.87186" lon="6.48563">
        <ele>1344.7</ele>
        <time>2022-06-15T13:15:35Z</time>
      </trkpt>
      <trkpt lat="45.87186" lon="6.4856">
        <ele>1344.7</ele>
        <time>2022-06-15T13:15:36Z</time>
      </trkpt>
      <trkpt lat="45.87186" lon="6.48558">
        <ele>1344.7</ele>
        <time>2022-06-15T13:15:37Z</time>
      </trkpt>
      <trkpt lat="45.87187" lon="6.48555">
        <ele>1344.9</ele>
        <time>2022-06-15T13:15:38Z</time>
      </trkpt>
      <trkpt lat="45.87188" lon="6.48552">
        <ele>1345.4</ele>
        <time>2022-06-15T13:15:39Z</time>
      </trkpt>
      <trkpt lat="45.87188" lon="6.48549">
        <ele>1345.6</ele>
        <time>2022-06-15T13:15:40Z</time>
      </trkpt>
      <trkpt lat="45.87188" lon="6.48546">
        <ele>1345.9</ele>
        <time>2022-06-15T13:15:41Z</time>
      </trkpt>
      <trkpt lat="45.87188" lon="6.48543">
        <ele>1345.8</ele>
        <time>2022-06-15T13:15:42Z</time>
      </trkpt>
      <trkpt lat="45.87188" lon="6.4854">
        <ele>1346</ele>
        <time>2022-06-15T13:15:43Z</time>
      </trkpt>
      <trkpt lat="45.87188" lon="6.48537">
        <ele>1345.9</ele>
        <time>2022-06-15T13:15:44Z</time>
      </trkpt>
      <trkpt lat="45.87187" lon="6.48534">
        <ele>1345.9</ele>
        <time>2022-06-15T13:15:45Z</time>
      </trkpt>
      <trkpt lat="45.87187" lon="6.48531">
        <ele>1345.9</ele>
        <time>2022-06-15T13:15:46Z</time>
      </trkpt>
      <trkpt lat="45.87186" lon="6.48528">
        <ele>1345.7</ele>
        <time>2022-06-15T13:15:47Z</time>
      </trkpt>
      <trkpt lat="45.87185" lon="6.48525">
        <ele>1346</ele>
        <time>2022-06-15T13:15:48Z</time>
      </trkpt>
      <trkpt lat="45.87184" lon="6.48522">
        <ele>1346.1</ele>
        <time>2022-06-15T13:15:49Z</time>
      </trkpt>
      <trkpt lat="45.87184" lon="6.48519">
        <ele>1346.3</ele>
        <time>2022-06-15T13:15:50Z</time>
      </trkpt>
      <trkpt lat="45.87183" lon="6.48516">
        <ele>1346.6</ele>
        <time>2022-06-15T13:15:51Z</time>
      </trkpt>
      <trkpt lat="45.87182" lon="6.48514">
        <ele>1346.8</ele>
        <time>2022-06-15T13:15:52Z</time>
      </trkpt>
      <trkpt lat="45.87181" lon="6.48511">
        <ele>1346.9</ele>
        <time>2022-06-15T13:15:53Z</time>
      </trkpt>
      <trkpt lat="45.8718" lon="6.48508">
        <ele>1346.8</ele>
        <time>2022-06-15T13:15:54Z</time>
      </trkpt>
      <trkpt lat="45.87179" lon="6.48506">
        <ele>1346.7</ele>
        <time>2022-06-15T13:15:55Z</time>
      </trkpt>
      <trkpt lat="45.87177" lon="6.48504">
        <ele>1346.4</ele>
        <time>2022-06-15T13:15:56Z</time>
      </trkpt>
      <trkpt lat="45.87175" lon="6.48502">
        <ele>1346</ele>
        <time>2022-06-15T13:15:57Z</time>
      </trkpt>
      <trkpt lat="45.87174" lon="6.48499">
        <ele>1345.8</ele>
        <time>2022-06-15T13:15:58Z</time>
      </trkpt>
      <trkpt lat="45.87172" lon="6.48497">
        <ele>1345.7</ele>
        <time>2022-06-15T13:15:59Z</time>
      </trkpt>
      <trkpt lat="45.87171" lon="6.48495">
        <ele>1345.6</ele>
        <time>2022-06-15T13:16:00Z</time>
      </trkpt>
      <trkpt lat="45.8717" lon="6.48493">
        <ele>1345.4</ele>
        <time>2022-06-15T13:16:01Z</time>
      </trkpt>
      <trkpt lat="45.87168" lon="6.48491">
        <ele>1345.1</ele>
        <time>2022-06-15T13:16:02Z</time>
      </trkpt>
      <trkpt lat="45.87166" lon="6.4849">
        <ele>1344.7</ele>
        <time>2022-06-15T13:16:03Z</time>
      </trkpt>
      <trkpt lat="45.87164" lon="6.48488">
        <ele>1344.5</ele>
        <time>2022-06-15T13:16:04Z</time>
      </trkpt>
      <trkpt lat="45.87163" lon="6.48487">
        <ele>1344.5</ele>
        <time>2022-06-15T13:16:05Z</time>
      </trkpt>
      <trkpt lat="45.87161" lon="6.48486">
        <ele>1344.2</ele>
        <time>2022-06-15T13:16:06Z</time>
      </trkpt>
      <trkpt lat="45.87158" lon="6.48485">
        <ele>1343.8</ele>
        <time>2022-06-15T13:16:07Z</time>
      </trkpt>
      <trkpt lat="45.87156" lon="6.48483">
        <ele>1343.9</ele>
        <time>2022-06-15T13:16:08Z</time>
      </trkpt>
      <trkpt lat="45.87155" lon="6.48481">
        <ele>1344.1</ele>
        <time>2022-06-15T13:16:09Z</time>
      </trkpt>
      <trkpt lat="45.87153" lon="6.48478">
        <ele>1344.3</ele>
        <time>2022-06-15T13:16:10Z</time>
      </trkpt>
      <trkpt lat="45.87152" lon="6.48476">
        <ele>1344.6</ele>
        <time>2022-06-15T13:16:11Z</time>
      </trkpt>
      <trkpt lat="45.87151" lon="6.48473">
        <ele>1345</ele>
        <time>2022-06-15T13:16:12Z</time>
      </trkpt>
      <trkpt lat="45.8715" lon="6.4847">
        <ele>1345.3</ele>
        <time>2022-06-15T13:16:13Z</time>
      </trkpt>
      <trkpt lat="45.87149" lon="6.48467">
        <ele>1345.7</ele>
        <time>2022-06-15T13:16:14Z</time>
      </trkpt>
      <trkpt lat="45.87148" lon="6.48464">
        <ele>1346</ele>
        <time>2022-06-15T13:16:15Z</time>
      </trkpt>
      <trkpt lat="45.87147" lon="6.48461">
        <ele>1346.3</ele>
        <time>2022-06-15T13:16:16Z</time>
      </trkpt>
      <trkpt lat="45.87145" lon="6.48458">
        <ele>1346.5</ele>
        <time>2022-06-15T13:16:17Z</time>
      </trkpt>
      <trkpt lat="45.87144" lon="6.48455">
        <ele>1346.7</ele>
        <time>2022-06-15T13:16:18Z</time>
      </trkpt>
      <trkpt lat="45.87143" lon="6.48452">
        <ele>1347</ele>
        <time>2022-06-15T13:16:19Z</time>
      </trkpt>
      <trkpt lat="45.87143" lon="6.48449">
        <ele>1347.3</ele>
        <time>2022-06-15T13:16:20Z</time>
      </trkpt>
      <trkpt lat="45.87142" lon="6.48446">
        <ele>1347.7</ele>
        <time>2022-06-15T13:16:21Z</time>
      </trkpt>
      <trkpt lat="45.87142" lon="6.48443">
        <ele>1348.1</ele>
        <time>2022-06-15T13:16:22Z</time>
      </trkpt>
      <trkpt lat="45.87141" lon="6.4844">
        <ele>1348.4</ele>
        <time>2022-06-15T13:16:23Z</time>
      </trkpt>
      <trkpt lat="45.87141" lon="6.48436">
        <ele>1348.8</ele>
        <time>2022-06-15T13:16:24Z</time>
      </trkpt>
      <trkpt lat="45.8714" lon="6.48433">
        <ele>1349.1</ele>
        <time>2022-06-15T13:16:25Z</time>
      </trkpt>
      <trkpt lat="45.8714" lon="6.4843">
        <ele>1349.5</ele>
        <time>2022-06-15T13:16:26Z</time>
      </trkpt>
      <trkpt lat="45.8714" lon="6.48427">
        <ele>1349.9</ele>
        <time>2022-06-15T13:16:27Z</time>
      </trkpt>
      <trkpt lat="45.87139" lon="6.48423">
        <ele>1350.2</ele>
        <time>2022-06-15T13:16:28Z</time>
      </trkpt>
      <trkpt lat="45.87139" lon="6.4842">
        <ele>1350.4</ele>
        <time>2022-06-15T13:16:29Z</time>
      </trkpt>
      <trkpt lat="45.87139" lon="6.48417">
        <ele>1351</ele>
        <time>2022-06-15T13:16:30Z</time>
      </trkpt>
      <trkpt lat="45.87139" lon="6.48414">
        <ele>1351.5</ele>
        <time>2022-06-15T13:16:31Z</time>
      </trkpt>
      <trkpt lat="45.87139" lon="6.48411">
        <ele>1352.1</ele>
        <time>2022-06-15T13:16:32Z</time>
      </trkpt>
      <trkpt lat="45.87138" lon="6.48408">
        <ele>1352.6</ele>
        <time>2022-06-15T13:16:33Z</time>
      </trkpt>
      <trkpt lat="45.87138" lon="6.48404">
        <ele>1353.3</ele>
        <time>2022-06-15T13:16:34Z</time>
      </trkpt>
      <trkpt lat="45.87138" lon="6.48401">
        <ele>1353.8</ele>
        <time>2022-06-15T13:16:35Z</time>
      </trkpt>
      <trkpt lat="45.87138" lon="6.48398">
        <ele>1354.3</ele>
        <time>2022-06-15T13:16:36Z</time>
      </trkpt>
      <trkpt lat="45.87137" lon="6.48395">
        <ele>1354.8</ele>
        <time>2022-06-15T13:16:37Z</time>
      </trkpt>
      <trkpt lat="45.87137" lon="6.48391">
        <ele>1355.1</ele>
        <time>2022-06-15T13:16:38Z</time>
      </trkpt>
      <trkpt lat="45.87136" lon="6.48388">
        <ele>1355.5</ele>
        <time>2022-06-15T13:16:39Z</time>
      </trkpt>
      <trkpt lat="45.87136" lon="6.48385">
        <ele>1356</ele>
        <time>2022-06-15T13:16:40Z</time>
      </trkpt>
      <trkpt lat="45.87135" lon="6.48382">
        <ele>1356.7</ele>
        <time>2022-06-15T13:16:41Z</time>
      </trkpt>
      <trkpt lat="45.87135" lon="6.48378">
        <ele>1357.4</ele>
        <time>2022-06-15T13:16:42Z</time>
      </trkpt>
      <trkpt lat="45.87135" lon="6.48375">
        <ele>1357.8</ele>
        <time>2022-06-15T13:16:43Z</time>
      </trkpt>
      <trkpt lat="45.87134" lon="6.48372">
        <ele>1358.3</ele>
        <time>2022-06-15T13:16:44Z</time>
      </trkpt>
      <trkpt lat="45.87134" lon="6.48369">
        <ele>1358.7</ele>
        <time>2022-06-15T13:16:45Z</time>
      </trkpt>
      <trkpt lat="45.87133" lon="6.48366">
        <ele>1359</ele>
        <time>2022-06-15T13:16:46Z</time>
      </trkpt>
      <trkpt lat="45.87132" lon="6.48363">
        <ele>1359.2</ele>
        <time>2022-06-15T13:16:47Z</time>
      </trkpt>
      <trkpt lat="45.87132" lon="6.48359">
        <ele>1360</ele>
        <time>2022-06-15T13:16:48Z</time>
      </trkpt>
      <trkpt lat="45.87131" lon="6.48356">
        <ele>1359.9</ele>
        <time>2022-06-15T13:16:49Z</time>
      </trkpt>
      <trkpt lat="45.8713" lon="6.48353">
        <ele>1359.9</ele>
        <time>2022-06-15T13:16:50Z</time>
      </trkpt>
      <trkpt lat="45.87129" lon="6.4835">
        <ele>1359.8</ele>
        <time>2022-06-15T13:16:51Z</time>
      </trkpt>
      <trkpt lat="45.87128" lon="6.48347">
        <ele>1359.8</ele>
        <time>2022-06-15T13:16:52Z</time>
      </trkpt>
      <trkpt lat="45.87127" lon="6.48344">
        <ele>1360</ele>
        <time>2022-06-15T13:16:53Z</time>
      </trkpt>
      <trkpt lat="45.87126" lon="6.48342">
        <ele>1360.2</ele>
        <time>2022-06-15T13:16:54Z</time>
      </trkpt>
      <trkpt lat="45.87125" lon="6.48339">
        <ele>1360.2</ele>
        <time>2022-06-15T13:16:55Z</time>
      </trkpt>
      <trkpt lat="45.87125" lon="6.48336">
        <ele>1360.4</ele>
        <time>2022-06-15T13:16:56Z</time>
      </trkpt>
      <trkpt lat="45.87124" lon="6.48333">
        <ele>1360.9</ele>
        <time>2022-06-15T13:16:57Z</time>
      </trkpt>
      <trkpt lat="45.87124" lon="6.4833">
        <ele>1361.4</ele>
        <time>2022-06-15T13:16:58Z</time>
      </trkpt>
      <trkpt lat="45.87123" lon="6.48327">
        <ele>1361.1</ele>
        <time>2022-06-15T13:16:59Z</time>
      </trkpt>
      <trkpt lat="45.87122" lon="6.48324">
        <ele>1361</ele>
        <time>2022-06-15T13:17:00Z</time>
      </trkpt>
      <trkpt lat="45.87122" lon="6.48321">
        <ele>1361.3</ele>
        <time>2022-06-15T13:17:01Z</time>
      </trkpt>
      <trkpt lat="45.87121" lon="6.48318">
        <ele>1361.2</ele>
        <time>2022-06-15T13:17:02Z</time>
      </trkpt>
      <trkpt lat="45.8712" lon="6.48315">
        <ele>1361.1</ele>
        <time>2022-06-15T13:17:03Z</time>
      </trkpt>
      <trkpt lat="45.8712" lon="6.48312">
        <ele>1360.9</ele>
        <time>2022-06-15T13:17:04Z</time>
      </trkpt>
      <trkpt lat="45.87119" lon="6.48309">
        <ele>1360.7</ele>
        <time>2022-06-15T13:17:05Z</time>
      </trkpt>
      <trkpt lat="45.87118" lon="6.48306">
        <ele>1360.3</ele>
        <time>2022-06-15T13:17:06Z</time>
      </trkpt>
      <trkpt lat="45.87117" lon="6.48303">
        <ele>1360.5</ele>
        <time>2022-06-15T13:17:07Z</time>
      </trkpt>
      <trkpt lat="45.87116" lon="6.483">
        <ele>1360.2</ele>
        <time>2022-06-15T13:17:08Z</time>
      </trkpt>
      <trkpt lat="45.87114" lon="6.48297">
        <ele>1359.7</ele>
        <time>2022-06-15T13:17:09Z</time>
      </trkpt>
      <trkpt lat="45.87114" lon="6.48294">
        <ele>1359.8</ele>
        <time>2022-06-15T13:17:10Z</time>
      </trkpt>
      <trkpt lat="45.87113" lon="6.48291">
        <ele>1359.7</ele>
        <time>2022-06-15T13:17:11Z</time>
      </trkpt>
      <trkpt lat="45.87111" lon="6.48288">
        <ele>1359.5</ele>
        <time>2022-06-15T13:17:12Z</time>
      </trkpt>
      <trkpt lat="45.8711" lon="6.48285">
        <ele>1359.4</ele>
        <time>2022-06-15T13:17:13Z</time>
      </trkpt>
      <trkpt lat="45.87109" lon="6.48283">
        <ele>1359.3</ele>
        <time>2022-06-15T13:17:14Z</time>
      </trkpt>
      <trkpt lat="45.87107" lon="6.4828">
        <ele>1359</ele>
        <time>2022-06-15T13:17:15Z</time>
      </trkpt>
      <trkpt lat="45.87106" lon="6.48277">
        <ele>1359.1</ele>
        <time>2022-06-15T13:17:16Z</time>
      </trkpt>
      <trkpt lat="45.87105" lon="6.48274">
        <ele>1359.2</ele>
        <time>2022-06-15T13:17:17Z</time>
      </trkpt>
      <trkpt lat="45.87103" lon="6.48271">
        <ele>1359.3</ele>
        <time>2022-06-15T13:17:18Z</time>
      </trkpt>
      <trkpt lat="45.87102" lon="6.48268">
        <ele>1359.7</ele>
        <time>2022-06-15T13:17:19Z</time>
      </trkpt>
      <trkpt lat="45.87101" lon="6.48265">
        <ele>1360.1</ele>
        <time>2022-06-15T13:17:20Z</time>
      </trkpt>
      <trkpt lat="45.871" lon="6.48263">
        <ele>1360.3</ele>
        <time>2022-06-15T13:17:21Z</time>
      </trkpt>
      <trkpt lat="45.87098" lon="6.4826">
        <ele>1360.4</ele>
        <time>2022-06-15T13:17:22Z</time>
      </trkpt>
      <trkpt lat="45.87097" lon="6.48257">
        <ele>1360.5</ele>
        <time>2022-06-15T13:17:23Z</time>
      </trkpt>
      <trkpt lat="45.87095" lon="6.48255">
        <ele>1360.8</ele>
        <time>2022-06-15T13:17:24Z</time>
      </trkpt>
      <trkpt lat="45.87094" lon="6.48252">
        <ele>1361</ele>
        <time>2022-06-15T13:17:25Z</time>
      </trkpt>
      <trkpt lat="45.87093" lon="6.4825">
        <ele>1361.1</ele>
        <time>2022-06-15T13:17:26Z</time>
      </trkpt>
      <trkpt lat="45.87091" lon="6.48247">
        <ele>1360.8</ele>
        <time>2022-06-15T13:17:27Z</time>
      </trkpt>
      <trkpt lat="45.8709" lon="6.48245">
        <ele>1360.6</ele>
        <time>2022-06-15T13:17:28Z</time>
      </trkpt>
      <trkpt lat="45.87088" lon="6.48242">
        <ele>1360.5</ele>
        <time>2022-06-15T13:17:29Z</time>
      </trkpt>
      <trkpt lat="45.87087" lon="6.48239">
        <ele>1360.5</ele>
        <time>2022-06-15T13:17:30Z</time>
      </trkpt>
      <trkpt lat="45.87086" lon="6.48236">
        <ele>1360.6</ele>
        <time>2022-06-15T13:17:31Z</time>
      </trkpt>
      <trkpt lat="45.87085" lon="6.48233">
        <ele>1360.9</ele>
        <time>2022-06-15T13:17:32Z</time>
      </trkpt>
      <trkpt lat="45.87084" lon="6.4823">
        <ele>1361</ele>
        <time>2022-06-15T13:17:33Z</time>
      </trkpt>
      <trkpt lat="45.87083" lon="6.48227">
        <ele>1361.2</ele>
        <time>2022-06-15T13:17:34Z</time>
      </trkpt>
      <trkpt lat="45.87082" lon="6.48224">
        <ele>1361.6</ele>
        <time>2022-06-15T13:17:35Z</time>
      </trkpt>
      <trkpt lat="45.87082" lon="6.48221">
        <ele>1362.2</ele>
        <time>2022-06-15T13:17:36Z</time>
      </trkpt>
      <trkpt lat="45.87083" lon="6.48218">
        <ele>1362.6</ele>
        <time>2022-06-15T13:17:37Z</time>
      </trkpt>
      <trkpt lat="45.87084" lon="6.48215">
        <ele>1363.1</ele>
        <time>2022-06-15T13:17:38Z</time>
      </trkpt>
      <trkpt lat="45.87084" lon="6.48211">
        <ele>1363.4</ele>
        <time>2022-06-15T13:17:39Z</time>
      </trkpt>
      <trkpt lat="45.87085" lon="6.48208">
        <ele>1363.7</ele>
        <time>2022-06-15T13:17:40Z</time>
      </trkpt>
      <trkpt lat="45.87086" lon="6.48205">
        <ele>1363.9</ele>
        <time>2022-06-15T13:17:41Z</time>
      </trkpt>
      <trkpt lat="45.87087" lon="6.48201">
        <ele>1364.1</ele>
        <time>2022-06-15T13:17:42Z</time>
      </trkpt>
      <trkpt lat="45.87087" lon="6.48198">
        <ele>1364.3</ele>
        <time>2022-06-15T13:17:43Z</time>
      </trkpt>
      <trkpt lat="45.87088" lon="6.48195">
        <ele>1364.5</ele>
        <time>2022-06-15T13:17:44Z</time>
      </trkpt>
      <trkpt lat="45.87089" lon="6.48192">
        <ele>1364.5</ele>
        <time>2022-06-15T13:17:45Z</time>
      </trkpt>
      <trkpt lat="45.8709" lon="6.48189">
        <ele>1364.7</ele>
        <time>2022-06-15T13:17:46Z</time>
      </trkpt>
      <trkpt lat="45.87091" lon="6.48186">
        <ele>1364.9</ele>
        <time>2022-06-15T13:17:47Z</time>
      </trkpt>
      <trkpt lat="45.87092" lon="6.48183">
        <ele>1365.1</ele>
        <time>2022-06-15T13:17:48Z</time>
      </trkpt>
      <trkpt lat="45.87093" lon="6.4818">
        <ele>1365.2</ele>
        <time>2022-06-15T13:17:49Z</time>
      </trkpt>
      <trkpt lat="45.87094" lon="6.48177">
        <ele>1365.3</ele>
        <time>2022-06-15T13:17:50Z</time>
      </trkpt>
      <trkpt lat="45.87095" lon="6.48174">
        <ele>1365.3</ele>
        <time>2022-06-15T13:17:51Z</time>
      </trkpt>
      <trkpt lat="45.87096" lon="6.48171">
        <ele>1365.4</ele>
        <time>2022-06-15T13:17:52Z</time>
      </trkpt>
      <trkpt lat="45.87097" lon="6.48168">
        <ele>1365.6</ele>
        <time>2022-06-15T13:17:53Z</time>
      </trkpt>
      <trkpt lat="45.87098" lon="6.48165">
        <ele>1365.7</ele>
        <time>2022-06-15T13:17:54Z</time>
      </trkpt>
      <trkpt lat="45.87099" lon="6.48162">
        <ele>1365.9</ele>
        <time>2022-06-15T13:17:55Z</time>
      </trkpt>
      <trkpt lat="45.87101" lon="6.48159">
        <ele>1366.1</ele>
        <time>2022-06-15T13:17:56Z</time>
      </trkpt>
      <trkpt lat="45.87102" lon="6.48156">
        <ele>1366.2</ele>
        <time>2022-06-15T13:17:57Z</time>
      </trkpt>
      <trkpt lat="45.87103" lon="6.48153">
        <ele>1366.4</ele>
        <time>2022-06-15T13:17:58Z</time>
      </trkpt>
      <trkpt lat="45.87104" lon="6.4815">
        <ele>1366.5</ele>
        <time>2022-06-15T13:17:59Z</time>
      </trkpt>
      <trkpt lat="45.87105" lon="6.48147">
        <ele>1366.6</ele>
        <time>2022-06-15T13:18:00Z</time>
      </trkpt>
      <trkpt lat="45.87106" lon="6.48144">
        <ele>1366.7</ele>
        <time>2022-06-15T13:18:01Z</time>
      </trkpt>
      <trkpt lat="45.87107" lon="6.48141">
        <ele>1366.9</ele>
        <time>2022-06-15T13:18:02Z</time>
      </trkpt>
      <trkpt lat="45.87108" lon="6.48138">
        <ele>1367.1</ele>
        <time>2022-06-15T13:18:03Z</time>
      </trkpt>
      <trkpt lat="45.87109" lon="6.48136">
        <ele>1367.4</ele>
        <time>2022-06-15T13:18:04Z</time>
      </trkpt>
      <trkpt lat="45.8711" lon="6.48133">
        <ele>1367.5</ele>
        <time>2022-06-15T13:18:05Z</time>
      </trkpt>
      <trkpt lat="45.87111" lon="6.4813">
        <ele>1367.7</ele>
        <time>2022-06-15T13:18:06Z</time>
      </trkpt>
      <trkpt lat="45.87112" lon="6.48127">
        <ele>1367.8</ele>
        <time>2022-06-15T13:18:07Z</time>
      </trkpt>
      <trkpt lat="45.87113" lon="6.48124">
        <ele>1368</ele>
        <time>2022-06-15T13:18:08Z</time>
      </trkpt>
      <trkpt lat="45.87114" lon="6.48121">
        <ele>1368.1</ele>
        <time>2022-06-15T13:18:09Z</time>
      </trkpt>
      <trkpt lat="45.87115" lon="6.48118">
        <ele>1368.2</ele>
        <time>2022-06-15T13:18:10Z</time>
      </trkpt>
      <trkpt lat="45.87116" lon="6.48115">
        <ele>1368.3</ele>
        <time>2022-06-15T13:18:11Z</time>
      </trkpt>
      <trkpt lat="45.87116" lon="6.48112">
        <ele>1368.2</ele>
        <time>2022-06-15T13:18:12Z</time>
      </trkpt>
      <trkpt lat="45.87116" lon="6.48109">
        <ele>1368.3</ele>
        <time>2022-06-15T13:18:13Z</time>
      </trkpt>
      <trkpt lat="45.87116" lon="6.48106">
        <ele>1368.4</ele>
        <time>2022-06-15T13:18:14Z</time>
      </trkpt>
      <trkpt lat="45.87116" lon="6.48103">
        <ele>1368.4</ele>
        <time>2022-06-15T13:18:15Z</time>
      </trkpt>
      <trkpt lat="45.87116" lon="6.481">
        <ele>1368.5</ele>
        <time>2022-06-15T13:18:16Z</time>
      </trkpt>
      <trkpt lat="45.87116" lon="6.48096">
        <ele>1368.6</ele>
        <time>2022-06-15T13:18:17Z</time>
      </trkpt>
      <trkpt lat="45.87116" lon="6.48093">
        <ele>1368.7</ele>
        <time>2022-06-15T13:18:18Z</time>
      </trkpt>
      <trkpt lat="45.87117" lon="6.4809">
        <ele>1368.9</ele>
        <time>2022-06-15T13:18:19Z</time>
      </trkpt>
      <trkpt lat="45.87117" lon="6.48087">
        <ele>1369</ele>
        <time>2022-06-15T13:18:20Z</time>
      </trkpt>
      <trkpt lat="45.87117" lon="6.48083">
        <ele>1369.1</ele>
        <time>2022-06-15T13:18:21Z</time>
      </trkpt>
      <trkpt lat="45.87117" lon="6.48079">
        <ele>1369</ele>
        <time>2022-06-15T13:18:22Z</time>
      </trkpt>
      <trkpt lat="45.87117" lon="6.48075">
        <ele>1369</ele>
        <time>2022-06-15T13:18:23Z</time>
      </trkpt>
      <trkpt lat="45.87117" lon="6.48071">
        <ele>1369</ele>
        <time>2022-06-15T13:18:24Z</time>
      </trkpt>
      <trkpt lat="45.87118" lon="6.48068">
        <ele>1369.1</ele>
        <time>2022-06-15T13:18:25Z</time>
      </trkpt>
      <trkpt lat="45.87119" lon="6.48063">
        <ele>1369.2</ele>
        <time>2022-06-15T13:18:26Z</time>
      </trkpt>
      <trkpt lat="45.8712" lon="6.48059">
        <ele>1369.4</ele>
        <time>2022-06-15T13:18:27Z</time>
      </trkpt>
      <trkpt lat="45.87121" lon="6.48055">
        <ele>1369.5</ele>
        <time>2022-06-15T13:18:28Z</time>
      </trkpt>
      <trkpt lat="45.87123" lon="6.48052">
        <ele>1369.7</ele>
        <time>2022-06-15T13:18:29Z</time>
      </trkpt>
      <trkpt lat="45.87125" lon="6.48049">
        <ele>1369.9</ele>
        <time>2022-06-15T13:18:30Z</time>
      </trkpt>
      <trkpt lat="45.87127" lon="6.48047">
        <ele>1370.1</ele>
        <time>2022-06-15T13:18:31Z</time>
      </trkpt>
      <trkpt lat="45.87129" lon="6.48046">
        <ele>1370.4</ele>
        <time>2022-06-15T13:18:32Z</time>
      </trkpt>
      <trkpt lat="45.87132" lon="6.48045">
        <ele>1370.7</ele>
        <time>2022-06-15T13:18:33Z</time>
      </trkpt>
      <trkpt lat="45.87134" lon="6.48044">
        <ele>1371</ele>
        <time>2022-06-15T13:18:34Z</time>
      </trkpt>
      <trkpt lat="45.87137" lon="6.48045">
        <ele>1371.3</ele>
        <time>2022-06-15T13:18:35Z</time>
      </trkpt>
      <trkpt lat="45.87139" lon="6.48046">
        <ele>1371.7</ele>
        <time>2022-06-15T13:18:36Z</time>
      </trkpt>
      <trkpt lat="45.87141" lon="6.48048">
        <ele>1372.1</ele>
        <time>2022-06-15T13:18:37Z</time>
      </trkpt>
      <trkpt lat="45.87144" lon="6.4805">
        <ele>1372.6</ele>
        <time>2022-06-15T13:18:38Z</time>
      </trkpt>
      <trkpt lat="45.87145" lon="6.48053">
        <ele>1373</ele>
        <time>2022-06-15T13:18:39Z</time>
      </trkpt>
      <trkpt lat="45.87146" lon="6.48056">
        <ele>1373.3</ele>
        <time>2022-06-15T13:18:40Z</time>
      </trkpt>
      <trkpt lat="45.87147" lon="6.4806">
        <ele>1373.5</ele>
        <time>2022-06-15T13:18:41Z</time>
      </trkpt>
      <trkpt lat="45.87147" lon="6.48064">
        <ele>1373.7</ele>
        <time>2022-06-15T13:18:42Z</time>
      </trkpt>
      <trkpt lat="45.87147" lon="6.48068">
        <ele>1373.8</ele>
        <time>2022-06-15T13:18:43Z</time>
      </trkpt>
      <trkpt lat="45.87146" lon="6.48071">
        <ele>1373.9</ele>
        <time>2022-06-15T13:18:44Z</time>
      </trkpt>
      <trkpt lat="45.87146" lon="6.48075">
        <ele>1373.9</ele>
        <time>2022-06-15T13:18:45Z</time>
      </trkpt>
      <trkpt lat="45.87145" lon="6.48079">
        <ele>1373.9</ele>
        <time>2022-06-15T13:18:46Z</time>
      </trkpt>
      <trkpt lat="45.87144" lon="6.48083">
        <ele>1373.9</ele>
        <time>2022-06-15T13:18:47Z</time>
      </trkpt>
      <trkpt lat="45.87144" lon="6.48086">
        <ele>1373.9</ele>
        <time>2022-06-15T13:18:48Z</time>
      </trkpt>
      <trkpt lat="45.87143" lon="6.4809">
        <ele>1373.9</ele>
        <time>2022-06-15T13:18:49Z</time>
      </trkpt>
      <trkpt lat="45.87142" lon="6.48094">
        <ele>1373.9</ele>
        <time>2022-06-15T13:18:50Z</time>
      </trkpt>
      <trkpt lat="45.87142" lon="6.48098">
        <ele>1373.9</ele>
        <time>2022-06-15T13:18:51Z</time>
      </trkpt>
      <trkpt lat="45.87141" lon="6.48101">
        <ele>1373.9</ele>
        <time>2022-06-15T13:18:52Z</time>
      </trkpt>
      <trkpt lat="45.87141" lon="6.48105">
        <ele>1374</ele>
        <time>2022-06-15T13:18:53Z</time>
      </trkpt>
      <trkpt lat="45.87141" lon="6.48109">
        <ele>1374.2</ele>
        <time>2022-06-15T13:18:54Z</time>
      </trkpt>
      <trkpt lat="45.87141" lon="6.48112">
        <ele>1374.3</ele>
        <time>2022-06-15T13:18:55Z</time>
      </trkpt>
      <trkpt lat="45.87142" lon="6.48116">
        <ele>1374.5</ele>
        <time>2022-06-15T13:18:56Z</time>
      </trkpt>
      <trkpt lat="45.87142" lon="6.48119">
        <ele>1374.8</ele>
        <time>2022-06-15T13:18:57Z</time>
      </trkpt>
      <trkpt lat="45.87144" lon="6.48122">
        <ele>1375.1</ele>
        <time>2022-06-15T13:18:58Z</time>
      </trkpt>
      <trkpt lat="45.87146" lon="6.48125">
        <ele>1375.4</ele>
        <time>2022-06-15T13:18:59Z</time>
      </trkpt>
      <trkpt lat="45.87148" lon="6.48126">
        <ele>1375.8</ele>
        <time>2022-06-15T13:19:00Z</time>
      </trkpt>
      <trkpt lat="45.8715" lon="6.48127">
        <ele>1376.2</ele>
        <time>2022-06-15T13:19:01Z</time>
      </trkpt>
      <trkpt lat="45.87153" lon="6.48127">
        <ele>1376.5</ele>
        <time>2022-06-15T13:19:02Z</time>
      </trkpt>
      <trkpt lat="45.87155" lon="6.48125">
        <ele>1376.8</ele>
        <time>2022-06-15T13:19:03Z</time>
      </trkpt>
      <trkpt lat="45.87158" lon="6.48123">
        <ele>1377.1</ele>
        <time>2022-06-15T13:19:04Z</time>
      </trkpt>
      <trkpt lat="45.87159" lon="6.4812">
        <ele>1377.3</ele>
        <time>2022-06-15T13:19:05Z</time>
      </trkpt>
      <trkpt lat="45.87161" lon="6.48117">
        <ele>1377.3</ele>
        <time>2022-06-15T13:19:06Z</time>
      </trkpt>
      <trkpt lat="45.87162" lon="6.48113">
        <ele>1377.4</ele>
        <time>2022-06-15T13:19:07Z</time>
      </trkpt>
      <trkpt lat="45.87163" lon="6.48109">
        <ele>1377.4</ele>
        <time>2022-06-15T13:19:08Z</time>
      </trkpt>
      <trkpt lat="45.87163" lon="6.48105">
        <ele>1377.5</ele>
        <time>2022-06-15T13:19:09Z</time>
      </trkpt>
      <trkpt lat="45.87163" lon="6.48101">
        <ele>1377.5</ele>
        <time>2022-06-15T13:19:10Z</time>
      </trkpt>
      <trkpt lat="45.87163" lon="6.48096">
        <ele>1377.4</ele>
        <time>2022-06-15T13:19:11Z</time>
      </trkpt>
      <trkpt lat="45.87163" lon="6.48091">
        <ele>1377.4</ele>
        <time>2022-06-15T13:19:12Z</time>
      </trkpt>
      <trkpt lat="45.87164" lon="6.48086">
        <ele>1377.5</ele>
        <time>2022-06-15T13:19:13Z</time>
      </trkpt>
      <trkpt lat="45.87164" lon="6.48082">
        <ele>1377.5</ele>
        <time>2022-06-15T13:19:14Z</time>
      </trkpt>
      <trkpt lat="45.87165" lon="6.48077">
        <ele>1377.5</ele>
        <time>2022-06-15T13:19:15Z</time>
      </trkpt>
      <trkpt lat="45.87166" lon="6.48073">
        <ele>1377.4</ele>
        <time>2022-06-15T13:19:16Z</time>
      </trkpt>
      <trkpt lat="45.87167" lon="6.48069">
        <ele>1377.5</ele>
        <time>2022-06-15T13:19:17Z</time>
      </trkpt>
      <trkpt lat="45.87169" lon="6.48066">
        <ele>1377.9</ele>
        <time>2022-06-15T13:19:18Z</time>
      </trkpt>
      <trkpt lat="45.87171" lon="6.48063">
        <ele>1378.3</ele>
        <time>2022-06-15T13:19:19Z</time>
      </trkpt>
      <trkpt lat="45.87173" lon="6.4806">
        <ele>1378.9</ele>
        <time>2022-06-15T13:19:20Z</time>
      </trkpt>
      <trkpt lat="45.87175" lon="6.48058">
        <ele>1379.4</ele>
        <time>2022-06-15T13:19:21Z</time>
      </trkpt>
      <trkpt lat="45.87178" lon="6.48056">
        <ele>1380.1</ele>
        <time>2022-06-15T13:19:22Z</time>
      </trkpt>
      <trkpt lat="45.8718" lon="6.48053">
        <ele>1380.6</ele>
        <time>2022-06-15T13:19:23Z</time>
      </trkpt>
      <trkpt lat="45.87182" lon="6.48051">
        <ele>1381</ele>
        <time>2022-06-15T13:19:24Z</time>
      </trkpt>
      <trkpt lat="45.87183" lon="6.48048">
        <ele>1381.3</ele>
        <time>2022-06-15T13:19:25Z</time>
      </trkpt>
      <trkpt lat="45.87185" lon="6.48044">
        <ele>1381.6</ele>
        <time>2022-06-15T13:19:26Z</time>
      </trkpt>
      <trkpt lat="45.87186" lon="6.48041">
        <ele>1381.8</ele>
        <time>2022-06-15T13:19:27Z</time>
      </trkpt>
      <trkpt lat="45.87187" lon="6.48037">
        <ele>1381.9</ele>
        <time>2022-06-15T13:19:28Z</time>
      </trkpt>
      <trkpt lat="45.87188" lon="6.48034">
        <ele>1382</ele>
        <time>2022-06-15T13:19:29Z</time>
      </trkpt>
      <trkpt lat="45.87188" lon="6.4803">
        <ele>1382</ele>
        <time>2022-06-15T13:19:30Z</time>
      </trkpt>
      <trkpt lat="45.87189" lon="6.48027">
        <ele>1382.2</ele>
        <time>2022-06-15T13:19:31Z</time>
      </trkpt>
      <trkpt lat="45.87189" lon="6.48023">
        <ele>1382.5</ele>
        <time>2022-06-15T13:19:32Z</time>
      </trkpt>
      <trkpt lat="45.8719" lon="6.48019">
        <ele>1382.9</ele>
        <time>2022-06-15T13:19:33Z</time>
      </trkpt>
      <trkpt lat="45.8719" lon="6.48016">
        <ele>1383.3</ele>
        <time>2022-06-15T13:19:34Z</time>
      </trkpt>
      <trkpt lat="45.87191" lon="6.48012">
        <ele>1383.9</ele>
        <time>2022-06-15T13:19:35Z</time>
      </trkpt>
      <trkpt lat="45.87192" lon="6.48009">
        <ele>1384.4</ele>
        <time>2022-06-15T13:19:36Z</time>
      </trkpt>
      <trkpt lat="45.87192" lon="6.48006">
        <ele>1384.8</ele>
        <time>2022-06-15T13:19:37Z</time>
      </trkpt>
      <trkpt lat="45.87192" lon="6.48003">
        <ele>1384.9</ele>
        <time>2022-06-15T13:19:38Z</time>
      </trkpt>
      <trkpt lat="45.87192" lon="6.47999">
        <ele>1385.1</ele>
        <time>2022-06-15T13:19:39Z</time>
      </trkpt>
      <trkpt lat="45.87192" lon="6.47995">
        <ele>1385.7</ele>
        <time>2022-06-15T13:19:40Z</time>
      </trkpt>
      <trkpt lat="45.87192" lon="6.47992">
        <ele>1386.2</ele>
        <time>2022-06-15T13:19:41Z</time>
      </trkpt>
      <trkpt lat="45.87192" lon="6.47988">
        <ele>1386.4</ele>
        <time>2022-06-15T13:19:42Z</time>
      </trkpt>
      <trkpt lat="45.87191" lon="6.47984">
        <ele>1386.7</ele>
        <time>2022-06-15T13:19:43Z</time>
      </trkpt>
      <trkpt lat="45.8719" lon="6.47981">
        <ele>1386.8</ele>
        <time>2022-06-15T13:19:44Z</time>
      </trkpt>
      <trkpt lat="45.8719" lon="6.47978">
        <ele>1387</ele>
        <time>2022-06-15T13:19:45Z</time>
      </trkpt>
      <trkpt lat="45.87189" lon="6.47974">
        <ele>1387.2</ele>
        <time>2022-06-15T13:19:46Z</time>
      </trkpt>
      <trkpt lat="45.87189" lon="6.47971">
        <ele>1387.4</ele>
        <time>2022-06-15T13:19:47Z</time>
      </trkpt>
      <trkpt lat="45.87189" lon="6.47968">
        <ele>1388</ele>
        <time>2022-06-15T13:19:48Z</time>
      </trkpt>
      <trkpt lat="45.87189" lon="6.47965">
        <ele>1388.2</ele>
        <time>2022-06-15T13:19:49Z</time>
      </trkpt>
      <trkpt lat="45.87189" lon="6.47961">
        <ele>1388.5</ele>
        <time>2022-06-15T13:19:50Z</time>
      </trkpt>
      <trkpt lat="45.87189" lon="6.47958">
        <ele>1388.9</ele>
        <time>2022-06-15T13:19:51Z</time>
      </trkpt>
      <trkpt lat="45.87188" lon="6.47954">
        <ele>1388.9</ele>
        <time>2022-06-15T13:19:52Z</time>
      </trkpt>
      <trkpt lat="45.87187" lon="6.47951">
        <ele>1389.1</ele>
        <time>2022-06-15T13:19:53Z</time>
      </trkpt>
      <trkpt lat="45.87187" lon="6.47948">
        <ele>1389</ele>
        <time>2022-06-15T13:19:54Z</time>
      </trkpt>
      <trkpt lat="45.87186" lon="6.47944">
        <ele>1389</ele>
        <time>2022-06-15T13:19:55Z</time>
      </trkpt>
      <trkpt lat="45.87185" lon="6.47941">
        <ele>1389.2</ele>
        <time>2022-06-15T13:19:56Z</time>
      </trkpt>
      <trkpt lat="45.87185" lon="6.47938">
        <ele>1389.8</ele>
        <time>2022-06-15T13:19:57Z</time>
      </trkpt>
      <trkpt lat="45.87185" lon="6.47934">
        <ele>1390.4</ele>
        <time>2022-06-15T13:19:58Z</time>
      </trkpt>
      <trkpt lat="45.87185" lon="6.47931">
        <ele>1391</ele>
        <time>2022-06-15T13:19:59Z</time>
      </trkpt>
      <trkpt lat="45.87185" lon="6.47927">
        <ele>1391.5</ele>
        <time>2022-06-15T13:20:00Z</time>
      </trkpt>
      <trkpt lat="45.87184" lon="6.47923">
        <ele>1391.9</ele>
        <time>2022-06-15T13:20:01Z</time>
      </trkpt>
      <trkpt lat="45.87184" lon="6.4792">
        <ele>1392.5</ele>
        <time>2022-06-15T13:20:02Z</time>
      </trkpt>
      <trkpt lat="45.87184" lon="6.47916">
        <ele>1392.8</ele>
        <time>2022-06-15T13:20:03Z</time>
      </trkpt>
      <trkpt lat="45.87183" lon="6.47913">
        <ele>1393</ele>
        <time>2022-06-15T13:20:04Z</time>
      </trkpt>
      <trkpt lat="45.87182" lon="6.47909">
        <ele>1392.9</ele>
        <time>2022-06-15T13:20:05Z</time>
      </trkpt>
      <trkpt lat="45.87181" lon="6.47906">
        <ele>1393.1</ele>
        <time>2022-06-15T13:20:06Z</time>
      </trkpt>
      <trkpt lat="45.87181" lon="6.47902">
        <ele>1393.3</ele>
        <time>2022-06-15T13:20:07Z</time>
      </trkpt>
      <trkpt lat="45.8718" lon="6.47899">
        <ele>1393.6</ele>
        <time>2022-06-15T13:20:08Z</time>
      </trkpt>
      <trkpt lat="45.87179" lon="6.47895">
        <ele>1393.7</ele>
        <time>2022-06-15T13:20:09Z</time>
      </trkpt>
      <trkpt lat="45.87179" lon="6.47891">
        <ele>1393.7</ele>
        <time>2022-06-15T13:20:10Z</time>
      </trkpt>
      <trkpt lat="45.87178" lon="6.47888">
        <ele>1393.6</ele>
        <time>2022-06-15T13:20:11Z</time>
      </trkpt>
      <trkpt lat="45.87177" lon="6.47884">
        <ele>1393.7</ele>
        <time>2022-06-15T13:20:12Z</time>
      </trkpt>
      <trkpt lat="45.87176" lon="6.4788">
        <ele>1393.8</ele>
        <time>2022-06-15T13:20:13Z</time>
      </trkpt>
      <trkpt lat="45.87176" lon="6.47877">
        <ele>1394</ele>
        <time>2022-06-15T13:20:14Z</time>
      </trkpt>
      <trkpt lat="45.87175" lon="6.47873">
        <ele>1394.3</ele>
        <time>2022-06-15T13:20:15Z</time>
      </trkpt>
      <trkpt lat="45.87175" lon="6.47869">
        <ele>1394.5</ele>
        <time>2022-06-15T13:20:16Z</time>
      </trkpt>
      <trkpt lat="45.87174" lon="6.47866">
        <ele>1394.8</ele>
        <time>2022-06-15T13:20:17Z</time>
      </trkpt>
      <trkpt lat="45.87174" lon="6.47862">
        <ele>1395.1</ele>
        <time>2022-06-15T13:20:18Z</time>
      </trkpt>
      <trkpt lat="45.87174" lon="6.47859">
        <ele>1395.2</ele>
        <time>2022-06-15T13:20:19Z</time>
      </trkpt>
      <trkpt lat="45.87174" lon="6.47856">
        <ele>1395.4</ele>
        <time>2022-06-15T13:20:20Z</time>
      </trkpt>
      <trkpt lat="45.87173" lon="6.47852">
        <ele>1395.5</ele>
        <time>2022-06-15T13:20:21Z</time>
      </trkpt>
      <trkpt lat="45.87173" lon="6.47849">
        <ele>1395.3</ele>
        <time>2022-06-15T13:20:22Z</time>
      </trkpt>
      <trkpt lat="45.87173" lon="6.47846">
        <ele>1395.4</ele>
        <time>2022-06-15T13:20:23Z</time>
      </trkpt>
      <trkpt lat="45.87172" lon="6.47842">
        <ele>1395.3</ele>
        <time>2022-06-15T13:20:24Z</time>
      </trkpt>
      <trkpt lat="45.87172" lon="6.47839">
        <ele>1395.6</ele>
        <time>2022-06-15T13:20:25Z</time>
      </trkpt>
      <trkpt lat="45.87172" lon="6.47836">
        <ele>1395.5</ele>
        <time>2022-06-15T13:20:26Z</time>
      </trkpt>
      <trkpt lat="45.87172" lon="6.47833">
        <ele>1395.7</ele>
        <time>2022-06-15T13:20:27Z</time>
      </trkpt>
      <trkpt lat="45.87172" lon="6.47829">
        <ele>1396.1</ele>
        <time>2022-06-15T13:20:28Z</time>
      </trkpt>
      <trkpt lat="45.87172" lon="6.47826">
        <ele>1396.5</ele>
        <time>2022-06-15T13:20:29Z</time>
      </trkpt>
      <trkpt lat="45.87173" lon="6.47824">
        <ele>1397</ele>
        <time>2022-06-15T13:20:30Z</time>
      </trkpt>
      <trkpt lat="45.87173" lon="6.47821">
        <ele>1397.5</ele>
        <time>2022-06-15T13:20:31Z</time>
      </trkpt>
      <trkpt lat="45.87173" lon="6.47817">
        <ele>1397.8</ele>
        <time>2022-06-15T13:20:32Z</time>
      </trkpt>
      <trkpt lat="45.87173" lon="6.47814">
        <ele>1397.9</ele>
        <time>2022-06-15T13:20:33Z</time>
      </trkpt>
      <trkpt lat="45.87173" lon="6.47811">
        <ele>1397.8</ele>
        <time>2022-06-15T13:20:34Z</time>
      </trkpt>
      <trkpt lat="45.87173" lon="6.47807">
        <ele>1398</ele>
        <time>2022-06-15T13:20:35Z</time>
      </trkpt>
      <trkpt lat="45.87173" lon="6.47804">
        <ele>1398</ele>
        <time>2022-06-15T13:20:36Z</time>
      </trkpt>
      <trkpt lat="45.87172" lon="6.47801">
        <ele>1397.6</ele>
        <time>2022-06-15T13:20:37Z</time>
      </trkpt>
      <trkpt lat="45.87172" lon="6.47797">
        <ele>1397.4</ele>
        <time>2022-06-15T13:20:38Z</time>
      </trkpt>
      <trkpt lat="45.87172" lon="6.47794">
        <ele>1397.3</ele>
        <time>2022-06-15T13:20:39Z</time>
      </trkpt>
      <trkpt lat="45.87172" lon="6.47791">
        <ele>1397.4</ele>
        <time>2022-06-15T13:20:40Z</time>
      </trkpt>
      <trkpt lat="45.87172" lon="6.47788">
        <ele>1397.3</ele>
        <time>2022-06-15T13:20:41Z</time>
      </trkpt>
      <trkpt lat="45.87173" lon="6.47785">
        <ele>1397.6</ele>
        <time>2022-06-15T13:20:42Z</time>
      </trkpt>
      <trkpt lat="45.87174" lon="6.47782">
        <ele>1397.8</ele>
        <time>2022-06-15T13:20:43Z</time>
      </trkpt>
      <trkpt lat="45.87174" lon="6.47778">
        <ele>1397.9</ele>
        <time>2022-06-15T13:20:44Z</time>
      </trkpt>
      <trkpt lat="45.87174" lon="6.47775">
        <ele>1398.1</ele>
        <time>2022-06-15T13:20:45Z</time>
      </trkpt>
      <trkpt lat="45.87175" lon="6.47772">
        <ele>1398.6</ele>
        <time>2022-06-15T13:20:46Z</time>
      </trkpt>
      <trkpt lat="45.87175" lon="6.47769">
        <ele>1399</ele>
        <time>2022-06-15T13:20:47Z</time>
      </trkpt>
      <trkpt lat="45.87175" lon="6.47765">
        <ele>1399.2</ele>
        <time>2022-06-15T13:20:48Z</time>
      </trkpt>
      <trkpt lat="45.87175" lon="6.47762">
        <ele>1399.5</ele>
        <time>2022-06-15T13:20:49Z</time>
      </trkpt>
      <trkpt lat="45.87176" lon="6.47758">
        <ele>1399.9</ele>
        <time>2022-06-15T13:20:50Z</time>
      </trkpt>
      <trkpt lat="45.87176" lon="6.47755">
        <ele>1400.2</ele>
        <time>2022-06-15T13:20:51Z</time>
      </trkpt>
      <trkpt lat="45.87176" lon="6.47752">
        <ele>1400.6</ele>
        <time>2022-06-15T13:20:52Z</time>
      </trkpt>
      <trkpt lat="45.87177" lon="6.47749">
        <ele>1400.9</ele>
        <time>2022-06-15T13:20:53Z</time>
      </trkpt>
      <trkpt lat="45.87177" lon="6.47746">
        <ele>1401</ele>
        <time>2022-06-15T13:20:54Z</time>
      </trkpt>
      <trkpt lat="45.87177" lon="6.47742">
        <ele>1401.1</ele>
        <time>2022-06-15T13:20:55Z</time>
      </trkpt>
      <trkpt lat="45.87178" lon="6.47739">
        <ele>1401.3</ele>
        <time>2022-06-15T13:20:56Z</time>
      </trkpt>
      <trkpt lat="45.87178" lon="6.47736">
        <ele>1401.3</ele>
        <time>2022-06-15T13:20:57Z</time>
      </trkpt>
      <trkpt lat="45.87178" lon="6.47733">
        <ele>1401.3</ele>
        <time>2022-06-15T13:20:58Z</time>
      </trkpt>
      <trkpt lat="45.87178" lon="6.47729">
        <ele>1401.4</ele>
        <time>2022-06-15T13:20:59Z</time>
      </trkpt>
      <trkpt lat="45.87179" lon="6.47726">
        <ele>1401.5</ele>
        <time>2022-06-15T13:21:00Z</time>
      </trkpt>
      <trkpt lat="45.87179" lon="6.47723">
        <ele>1401.7</ele>
        <time>2022-06-15T13:21:01Z</time>
      </trkpt>
      <trkpt lat="45.8718" lon="6.47719">
        <ele>1402</ele>
        <time>2022-06-15T13:21:02Z</time>
      </trkpt>
      <trkpt lat="45.8718" lon="6.47716">
        <ele>1402.2</ele>
        <time>2022-06-15T13:21:03Z</time>
      </trkpt>
      <trkpt lat="45.87181" lon="6.47713">
        <ele>1402.4</ele>
        <time>2022-06-15T13:21:04Z</time>
      </trkpt>
      <trkpt lat="45.87181" lon="6.47709">
        <ele>1402.6</ele>
        <time>2022-06-15T13:21:05Z</time>
      </trkpt>
      <trkpt lat="45.87182" lon="6.47706">
        <ele>1402.9</ele>
        <time>2022-06-15T13:21:06Z</time>
      </trkpt>
      <trkpt lat="45.87182" lon="6.47703">
        <ele>1403.1</ele>
        <time>2022-06-15T13:21:07Z</time>
      </trkpt>
      <trkpt lat="45.87183" lon="6.477">
        <ele>1403.7</ele>
        <time>2022-06-15T13:21:08Z</time>
      </trkpt>
      <trkpt lat="45.87184" lon="6.47697">
        <ele>1404.1</ele>
        <time>2022-06-15T13:21:09Z</time>
      </trkpt>
      <trkpt lat="45.87185" lon="6.47694">
        <ele>1404.6</ele>
        <time>2022-06-15T13:21:10Z</time>
      </trkpt>
      <trkpt lat="45.87186" lon="6.47691">
        <ele>1405.1</ele>
        <time>2022-06-15T13:21:11Z</time>
      </trkpt>
      <trkpt lat="45.87187" lon="6.47688">
        <ele>1405.6</ele>
        <time>2022-06-15T13:21:12Z</time>
      </trkpt>
      <trkpt lat="45.87188" lon="6.47685">
        <ele>1405.8</ele>
        <time>2022-06-15T13:21:13Z</time>
      </trkpt>
      <trkpt lat="45.87188" lon="6.47682">
        <ele>1406.1</ele>
        <time>2022-06-15T13:21:14Z</time>
      </trkpt>
      <trkpt lat="45.8719" lon="6.47679">
        <ele>1406.7</ele>
        <time>2022-06-15T13:21:15Z</time>
      </trkpt>
      <trkpt lat="45.8719" lon="6.47676">
        <ele>1406.9</ele>
        <time>2022-06-15T13:21:16Z</time>
      </trkpt>
      <trkpt lat="45.87191" lon="6.47673">
        <ele>1407.4</ele>
        <time>2022-06-15T13:21:17Z</time>
      </trkpt>
      <trkpt lat="45.87193" lon="6.47671">
        <ele>1408.1</ele>
        <time>2022-06-15T13:21:18Z</time>
      </trkpt>
      <trkpt lat="45.87194" lon="6.47668">
        <ele>1408.5</ele>
        <time>2022-06-15T13:21:19Z</time>
      </trkpt>
      <trkpt lat="45.87195" lon="6.47665">
        <ele>1408.9</ele>
        <time>2022-06-15T13:21:20Z</time>
      </trkpt>
      <trkpt lat="45.87196" lon="6.47663">
        <ele>1409.6</ele>
        <time>2022-06-15T13:21:21Z</time>
      </trkpt>
      <trkpt lat="45.87197" lon="6.47661">
        <ele>1410.5</ele>
        <time>2022-06-15T13:21:22Z</time>
      </trkpt>
      <trkpt lat="45.87199" lon="6.47659">
        <ele>1411.5</ele>
        <time>2022-06-15T13:21:23Z</time>
      </trkpt>
      <trkpt lat="45.87201" lon="6.47657">
        <ele>1412.7</ele>
        <time>2022-06-15T13:21:24Z</time>
      </trkpt>
      <trkpt lat="45.87203" lon="6.47655">
        <ele>1414.1</ele>
        <time>2022-06-15T13:21:25Z</time>
      </trkpt>
      <trkpt lat="45.87205" lon="6.47653">
        <ele>1415.5</ele>
        <time>2022-06-15T13:21:26Z</time>
      </trkpt>
      <trkpt lat="45.87207" lon="6.47651">
        <ele>1417.2</ele>
        <time>2022-06-15T13:21:27Z</time>
      </trkpt>
      <trkpt lat="45.87209" lon="6.47651">
        <ele>1418.6</ele>
        <time>2022-06-15T13:21:28Z</time>
      </trkpt>
      <trkpt lat="45.8721" lon="6.47649">
        <ele>1419.5</ele>
        <time>2022-06-15T13:21:29Z</time>
      </trkpt>
      <trkpt lat="45.87212" lon="6.47647">
        <ele>1420.7</ele>
        <time>2022-06-15T13:21:30Z</time>
      </trkpt>
      <trkpt lat="45.87216" lon="6.47645">
        <ele>1423.2</ele>
        <time>2022-06-15T13:21:31Z</time>
      </trkpt>
      <trkpt lat="45.87219" lon="6.47644">
        <ele>1425.4</ele>
        <time>2022-06-15T13:21:32Z</time>
      </trkpt>
      <trkpt lat="45.87219" lon="6.47644">
        <ele>1425.4</ele>
        <time>2022-06-15T13:21:33Z</time>
      </trkpt>
      <trkpt lat="45.87219" lon="6.47644">
        <ele>1425.4</ele>
        <time>2022-06-15T13:21:34Z</time>
      </trkpt>
      <trkpt lat="45.87219" lon="6.47644">
        <ele>1425.4</ele>
        <time>2022-06-15T13:21:35Z</time>
      </trkpt>
      <trkpt lat="45.87219" lon="6.47644">
        <ele>1425.4</ele>
        <time>2022-06-15T13:21:36Z</time>
      </trkpt>
      <trkpt lat="45.87219" lon="6.47644">
        <ele>1425.4</ele>
        <time>2022-06-15T13:21:37Z</time>
      </trkpt>
      <trkpt lat="45.87219" lon="6.47644">
        <ele>1425.4</ele>
        <time>2022-06-15T13:21:38Z</time>
      </trkpt>
      <trkpt lat="45.87219" lon="6.47644">
        <ele>1425.4</ele>
        <time>2022-06-15T13:21:39Z</time>
      </trkpt>
      <trkpt lat="45.87219" lon="6.47644">
        <ele>1425.4</ele>
        <time>2022-06-15T13:21:40Z</time>
      </trkpt>
      <trkpt lat="45.87219" lon="6.47644">
        <ele>1425.4</ele>
        <time>2022-06-15T13:21:41Z</time>
      </trkpt>
      <trkpt lat="45.87219" lon="6.47644">
        <ele>1425.4</ele>
        <time>2022-06-15T13:21:42Z</time>
      </trkpt>
      <trkpt lat="45.87219" lon="6.47644">
        <ele>1425.4</ele>
        <time>2022-06-15T13:21:43Z</time>
      </trkpt>
      <trkpt lat="45.87219" lon="6.47644">
        <ele>1425.4</ele>
        <time>2022-06-15T13:21:44Z</time>
      </trkpt>
      <trkpt lat="45.87219" lon="6.47644">
        <ele>1425.4</ele>
        <time>2022-06-15T13:21:45Z</time>
      </trkpt>
      <trkpt lat="45.87219" lon="6.47644">
        <ele>1425.4</ele>
        <time>2022-06-15T13:21:46Z</time>
      </trkpt>
      <trkpt lat="45.87219" lon="6.47644">
        <ele>1425.4</ele>
        <time>2022-06-15T13:21:47Z</time>
      </trkpt>
      <trkpt lat="45.87219" lon="6.47644">
        <ele>1425.4</ele>
        <time>2022-06-15T13:21:48Z</time>
      </trkpt>
      <trkpt lat="45.872" lon="6.4756">
        <ele>1412.8</ele>
        <time>2022-06-15T13:21:57Z</time>
      </trkpt>
      <trkpt lat="45.872" lon="6.47558">
        <ele>1412.7</ele>
        <time>2022-06-15T13:21:58Z</time>
      </trkpt>
      <trkpt lat="45.872" lon="6.47555">
        <ele>1412.9</ele>
        <time>2022-06-15T13:21:59Z</time>
      </trkpt>
      <trkpt lat="45.87199" lon="6.47552">
        <ele>1412.8</ele>
        <time>2022-06-15T13:22:00Z</time>
      </trkpt>
      <trkpt lat="45.87199" lon="6.47549">
        <ele>1413</ele>
        <time>2022-06-15T13:22:01Z</time>
      </trkpt>
      <trkpt lat="45.872" lon="6.47545">
        <ele>1413.3</ele>
        <time>2022-06-15T13:22:02Z</time>
      </trkpt>
      <trkpt lat="45.872" lon="6.47542">
        <ele>1413.4</ele>
        <time>2022-06-15T13:22:03Z</time>
      </trkpt>
      <trkpt lat="45.872" lon="6.47539">
        <ele>1413.8</ele>
        <time>2022-06-15T13:22:04Z</time>
      </trkpt>
      <trkpt lat="45.872" lon="6.47536">
        <ele>1413.8</ele>
        <time>2022-06-15T13:22:05Z</time>
      </trkpt>
      <trkpt lat="45.872" lon="6.47532">
        <ele>1413.9</ele>
        <time>2022-06-15T13:22:06Z</time>
      </trkpt>
      <trkpt lat="45.872" lon="6.47529">
        <ele>1413.9</ele>
        <time>2022-06-15T13:22:07Z</time>
      </trkpt>
      <trkpt lat="45.872" lon="6.47526">
        <ele>1414</ele>
        <time>2022-06-15T13:22:08Z</time>
      </trkpt>
      <trkpt lat="45.872" lon="6.47522">
        <ele>1414.2</ele>
        <time>2022-06-15T13:22:09Z</time>
      </trkpt>
      <trkpt lat="45.872" lon="6.47519">
        <ele>1414.2</ele>
        <time>2022-06-15T13:22:10Z</time>
      </trkpt>
      <trkpt lat="45.872" lon="6.47515">
        <ele>1414.2</ele>
        <time>2022-06-15T13:22:11Z</time>
      </trkpt>
      <trkpt lat="45.872" lon="6.47511">
        <ele>1413.8</ele>
        <time>2022-06-15T13:22:12Z</time>
      </trkpt>
      <trkpt lat="45.87199" lon="6.47507">
        <ele>1413.2</ele>
        <time>2022-06-15T13:22:13Z</time>
      </trkpt>
      <trkpt lat="45.87197" lon="6.47504">
        <ele>1412.4</ele>
        <time>2022-06-15T13:22:14Z</time>
      </trkpt>
      <trkpt lat="45.87195" lon="6.47501">
        <ele>1411.3</ele>
        <time>2022-06-15T13:22:15Z</time>
      </trkpt>
      <trkpt lat="45.87193" lon="6.47498">
        <ele>1411.7</ele>
        <time>2022-06-15T13:22:16Z</time>
      </trkpt>
      <trkpt lat="45.8719" lon="6.47496">
        <ele>1412.5</ele>
        <time>2022-06-15T13:22:17Z</time>
      </trkpt>
      <trkpt lat="45.87187" lon="6.47495">
        <ele>1412.9</ele>
        <time>2022-06-15T13:22:18Z</time>
      </trkpt>
      <trkpt lat="45.87184" lon="6.47494">
        <ele>1413.2</ele>
        <time>2022-06-15T13:22:19Z</time>
      </trkpt>
      <trkpt lat="45.8718" lon="6.47494">
        <ele>1413.4</ele>
        <time>2022-06-15T13:22:20Z</time>
      </trkpt>
      <trkpt lat="45.87177" lon="6.47494">
        <ele>1413.6</ele>
        <time>2022-06-15T13:22:21Z</time>
      </trkpt>
      <trkpt lat="45.87173" lon="6.47495">
        <ele>1413.7</ele>
        <time>2022-06-15T13:22:22Z</time>
      </trkpt>
      <trkpt lat="45.8717" lon="6.47495">
        <ele>1413.8</ele>
        <time>2022-06-15T13:22:23Z</time>
      </trkpt>
      <trkpt lat="45.87167" lon="6.47495">
        <ele>1414</ele>
        <time>2022-06-15T13:22:24Z</time>
      </trkpt>
      <trkpt lat="45.87164" lon="6.47494">
        <ele>1413.7</ele>
        <time>2022-06-15T13:22:25Z</time>
      </trkpt>
      <trkpt lat="45.8716" lon="6.47493">
        <ele>1413.4</ele>
        <time>2022-06-15T13:22:26Z</time>
      </trkpt>
      <trkpt lat="45.87157" lon="6.47492">
        <ele>1413.2</ele>
        <time>2022-06-15T13:22:27Z</time>
      </trkpt>
      <trkpt lat="45.87155" lon="6.4749">
        <ele>1413.1</ele>
        <time>2022-06-15T13:22:28Z</time>
      </trkpt>
      <trkpt lat="45.87153" lon="6.47488">
        <ele>1413.2</ele>
        <time>2022-06-15T13:22:29Z</time>
      </trkpt>
      <trkpt lat="45.87151" lon="6.47485">
        <ele>1413.5</ele>
        <time>2022-06-15T13:22:30Z</time>
      </trkpt>
      <trkpt lat="45.8715" lon="6.47481">
        <ele>1413.8</ele>
        <time>2022-06-15T13:22:31Z</time>
      </trkpt>
      <trkpt lat="45.8715" lon="6.47478">
        <ele>1414.2</ele>
        <time>2022-06-15T13:22:32Z</time>
      </trkpt>
      <trkpt lat="45.8715" lon="6.47475">
        <ele>1414.7</ele>
        <time>2022-06-15T13:22:33Z</time>
      </trkpt>
      <trkpt lat="45.87151" lon="6.47472">
        <ele>1415.2</ele>
        <time>2022-06-15T13:22:34Z</time>
      </trkpt>
      <trkpt lat="45.87153" lon="6.4747">
        <ele>1415.8</ele>
        <time>2022-06-15T13:22:35Z</time>
      </trkpt>
      <trkpt lat="45.87155" lon="6.47468">
        <ele>1416.3</ele>
        <time>2022-06-15T13:22:36Z</time>
      </trkpt>
      <trkpt lat="45.87157" lon="6.47468">
        <ele>1416.8</ele>
        <time>2022-06-15T13:22:37Z</time>
      </trkpt>
      <trkpt lat="45.87159" lon="6.47468">
        <ele>1417.1</ele>
        <time>2022-06-15T13:22:38Z</time>
      </trkpt>
      <trkpt lat="45.87161" lon="6.47469">
        <ele>1417.5</ele>
        <time>2022-06-15T13:22:39Z</time>
      </trkpt>
      <trkpt lat="45.87163" lon="6.47469">
        <ele>1417.8</ele>
        <time>2022-06-15T13:22:40Z</time>
      </trkpt>
      <trkpt lat="45.87165" lon="6.4747">
        <ele>1418.1</ele>
        <time>2022-06-15T13:22:41Z</time>
      </trkpt>
      <trkpt lat="45.87167" lon="6.47471">
        <ele>1418.3</ele>
        <time>2022-06-15T13:22:42Z</time>
      </trkpt>
      <trkpt lat="45.8717" lon="6.47471">
        <ele>1418.3</ele>
        <time>2022-06-15T13:22:43Z</time>
      </trkpt>
      <trkpt lat="45.87172" lon="6.47471">
        <ele>1418.4</ele>
        <time>2022-06-15T13:22:44Z</time>
      </trkpt>
      <trkpt lat="45.87174" lon="6.47471">
        <ele>1418.4</ele>
        <time>2022-06-15T13:22:45Z</time>
      </trkpt>
      <trkpt lat="45.87176" lon="6.47472">
        <ele>1418.5</ele>
        <time>2022-06-15T13:22:46Z</time>
      </trkpt>
      <trkpt lat="45.87179" lon="6.47472">
        <ele>1418.5</ele>
        <time>2022-06-15T13:22:47Z</time>
      </trkpt>
      <trkpt lat="45.87181" lon="6.47472">
        <ele>1418.6</ele>
        <time>2022-06-15T13:22:48Z</time>
      </trkpt>
      <trkpt lat="45.87183" lon="6.47472">
        <ele>1418.7</ele>
        <time>2022-06-15T13:22:49Z</time>
      </trkpt>
      <trkpt lat="45.87186" lon="6.47471">
        <ele>1418.8</ele>
        <time>2022-06-15T13:22:50Z</time>
      </trkpt>
      <trkpt lat="45.87188" lon="6.47471">
        <ele>1418.9</ele>
        <time>2022-06-15T13:22:51Z</time>
      </trkpt>
      <trkpt lat="45.8719" lon="6.47471">
        <ele>1419</ele>
        <time>2022-06-15T13:22:52Z</time>
      </trkpt>
      <trkpt lat="45.87193" lon="6.47471">
        <ele>1419.1</ele>
        <time>2022-06-15T13:22:53Z</time>
      </trkpt>
      <trkpt lat="45.87195" lon="6.4747">
        <ele>1419.4</ele>
        <time>2022-06-15T13:22:54Z</time>
      </trkpt>
      <trkpt lat="45.87197" lon="6.47469">
        <ele>1420</ele>
        <time>2022-06-15T13:22:55Z</time>
      </trkpt>
      <trkpt lat="45.87199" lon="6.47468">
        <ele>1420.5</ele>
        <time>2022-06-15T13:22:56Z</time>
      </trkpt>
      <trkpt lat="45.87201" lon="6.47466">
        <ele>1421.1</ele>
        <time>2022-06-15T13:22:57Z</time>
      </trkpt>
      <trkpt lat="45.87203" lon="6.47464">
        <ele>1421.8</ele>
        <time>2022-06-15T13:22:58Z</time>
      </trkpt>
      <trkpt lat="45.87205" lon="6.47461">
        <ele>1422.4</ele>
        <time>2022-06-15T13:22:59Z</time>
      </trkpt>
      <trkpt lat="45.87206" lon="6.47459">
        <ele>1422.9</ele>
        <time>2022-06-15T13:23:00Z</time>
      </trkpt>
      <trkpt lat="45.87207" lon="6.47456">
        <ele>1423.4</ele>
        <time>2022-06-15T13:23:01Z</time>
      </trkpt>
      <trkpt lat="45.87207" lon="6.47452">
        <ele>1423.9</ele>
        <time>2022-06-15T13:23:02Z</time>
      </trkpt>
      <trkpt lat="45.87206" lon="6.47449">
        <ele>1424.1</ele>
        <time>2022-06-15T13:23:03Z</time>
      </trkpt>
      <trkpt lat="45.87205" lon="6.47446">
        <ele>1424.2</ele>
        <time>2022-06-15T13:23:04Z</time>
      </trkpt>
      <trkpt lat="45.87204" lon="6.47443">
        <ele>1424.4</ele>
        <time>2022-06-15T13:23:05Z</time>
      </trkpt>
      <trkpt lat="45.87203" lon="6.47441">
        <ele>1424.6</ele>
        <time>2022-06-15T13:23:06Z</time>
      </trkpt>
      <trkpt lat="45.87201" lon="6.47439">
        <ele>1424.8</ele>
        <time>2022-06-15T13:23:07Z</time>
      </trkpt>
      <trkpt lat="45.87199" lon="6.47438">
        <ele>1424.7</ele>
        <time>2022-06-15T13:23:08Z</time>
      </trkpt>
      <trkpt lat="45.87197" lon="6.47437">
        <ele>1424.6</ele>
        <time>2022-06-15T13:23:09Z</time>
      </trkpt>
      <trkpt lat="45.87195" lon="6.47436">
        <ele>1424.6</ele>
        <time>2022-06-15T13:23:10Z</time>
      </trkpt>
      <trkpt lat="45.87192" lon="6.47434">
        <ele>1424.9</ele>
        <time>2022-06-15T13:23:11Z</time>
      </trkpt>
      <trkpt lat="45.8719" lon="6.47433">
        <ele>1425.1</ele>
        <time>2022-06-15T13:23:12Z</time>
      </trkpt>
      <trkpt lat="45.87188" lon="6.47432">
        <ele>1425.3</ele>
        <time>2022-06-15T13:23:13Z</time>
      </trkpt>
      <trkpt lat="45.87186" lon="6.47432">
        <ele>1425.3</ele>
        <time>2022-06-15T13:23:14Z</time>
      </trkpt>
      <trkpt lat="45.87183" lon="6.47431">
        <ele>1425.3</ele>
        <time>2022-06-15T13:23:15Z</time>
      </trkpt>
      <trkpt lat="45.87181" lon="6.47431">
        <ele>1425.2</ele>
        <time>2022-06-15T13:23:16Z</time>
      </trkpt>
      <trkpt lat="45.87179" lon="6.47431">
        <ele>1425.1</ele>
        <time>2022-06-15T13:23:17Z</time>
      </trkpt>
      <trkpt lat="45.87177" lon="6.47431">
        <ele>1425</ele>
        <time>2022-06-15T13:23:18Z</time>
      </trkpt>
      <trkpt lat="45.87174" lon="6.47431">
        <ele>1424.9</ele>
        <time>2022-06-15T13:23:19Z</time>
      </trkpt>
      <trkpt lat="45.87172" lon="6.4743">
        <ele>1424.9</ele>
        <time>2022-06-15T13:23:20Z</time>
      </trkpt>
      <trkpt lat="45.8717" lon="6.47429">
        <ele>1424.9</ele>
        <time>2022-06-15T13:23:21Z</time>
      </trkpt>
      <trkpt lat="45.87168" lon="6.47428">
        <ele>1424.8</ele>
        <time>2022-06-15T13:23:22Z</time>
      </trkpt>
      <trkpt lat="45.87166" lon="6.47427">
        <ele>1424.7</ele>
        <time>2022-06-15T13:23:23Z</time>
      </trkpt>
      <trkpt lat="45.87163" lon="6.47425">
        <ele>1424.5</ele>
        <time>2022-06-15T13:23:24Z</time>
      </trkpt>
      <trkpt lat="45.87162" lon="6.47423">
        <ele>1424.4</ele>
        <time>2022-06-15T13:23:25Z</time>
      </trkpt>
      <trkpt lat="45.8716" lon="6.47421">
        <ele>1424.4</ele>
        <time>2022-06-15T13:23:26Z</time>
      </trkpt>
      <trkpt lat="45.87158" lon="6.47419">
        <ele>1424.5</ele>
        <time>2022-06-15T13:23:27Z</time>
      </trkpt>
      <trkpt lat="45.87157" lon="6.47416">
        <ele>1424.7</ele>
        <time>2022-06-15T13:23:28Z</time>
      </trkpt>
      <trkpt lat="45.87156" lon="6.47412">
        <ele>1424.9</ele>
        <time>2022-06-15T13:23:29Z</time>
      </trkpt>
      <trkpt lat="45.87156" lon="6.47409">
        <ele>1425.1</ele>
        <time>2022-06-15T13:23:30Z</time>
      </trkpt>
      <trkpt lat="45.87155" lon="6.47406">
        <ele>1425.4</ele>
        <time>2022-06-15T13:23:31Z</time>
      </trkpt>
      <trkpt lat="45.87156" lon="6.47403">
        <ele>1425.8</ele>
        <time>2022-06-15T13:23:32Z</time>
      </trkpt>
      <trkpt lat="45.87157" lon="6.474">
        <ele>1426.2</ele>
        <time>2022-06-15T13:23:33Z</time>
      </trkpt>
      <trkpt lat="45.87158" lon="6.47397">
        <ele>1426.6</ele>
        <time>2022-06-15T13:23:34Z</time>
      </trkpt>
      <trkpt lat="45.87159" lon="6.47395">
        <ele>1427</ele>
        <time>2022-06-15T13:23:35Z</time>
      </trkpt>
      <trkpt lat="45.87162" lon="6.47395">
        <ele>1427.5</ele>
        <time>2022-06-15T13:23:36Z</time>
      </trkpt>
      <trkpt lat="45.87164" lon="6.47395">
        <ele>1427.9</ele>
        <time>2022-06-15T13:23:37Z</time>
      </trkpt>
      <trkpt lat="45.87166" lon="6.47395">
        <ele>1428.2</ele>
        <time>2022-06-15T13:23:38Z</time>
      </trkpt>
      <trkpt lat="45.87169" lon="6.47397">
        <ele>1428.4</ele>
        <time>2022-06-15T13:23:39Z</time>
      </trkpt>
      <trkpt lat="45.87171" lon="6.47398">
        <ele>1428.6</ele>
        <time>2022-06-15T13:23:40Z</time>
      </trkpt>
      <trkpt lat="45.87173" lon="6.47399">
        <ele>1428.8</ele>
        <time>2022-06-15T13:23:41Z</time>
      </trkpt>
      <trkpt lat="45.87175" lon="6.474">
        <ele>1429</ele>
        <time>2022-06-15T13:23:42Z</time>
      </trkpt>
      <trkpt lat="45.87177" lon="6.47402">
        <ele>1429.1</ele>
        <time>2022-06-15T13:23:43Z</time>
      </trkpt>
      <trkpt lat="45.87179" lon="6.47403">
        <ele>1429.3</ele>
        <time>2022-06-15T13:23:44Z</time>
      </trkpt>
      <trkpt lat="45.87181" lon="6.47404">
        <ele>1429.5</ele>
        <time>2022-06-15T13:23:45Z</time>
      </trkpt>
      <trkpt lat="45.87184" lon="6.47405">
        <ele>1429.7</ele>
        <time>2022-06-15T13:23:46Z</time>
      </trkpt>
      <trkpt lat="45.87186" lon="6.47406">
        <ele>1429.9</ele>
        <time>2022-06-15T13:23:47Z</time>
      </trkpt>
      <trkpt lat="45.87188" lon="6.47407">
        <ele>1430</ele>
        <time>2022-06-15T13:23:48Z</time>
      </trkpt>
      <trkpt lat="45.8719" lon="6.47409">
        <ele>1430.2</ele>
        <time>2022-06-15T13:23:49Z</time>
      </trkpt>
      <trkpt lat="45.87192" lon="6.4741">
        <ele>1430.3</ele>
        <time>2022-06-15T13:23:50Z</time>
      </trkpt>
      <trkpt lat="45.87194" lon="6.47411">
        <ele>1430.6</ele>
        <time>2022-06-15T13:23:51Z</time>
      </trkpt>
      <trkpt lat="45.87196" lon="6.47412">
        <ele>1430.7</ele>
        <time>2022-06-15T13:23:52Z</time>
      </trkpt>
      <trkpt lat="45.87198" lon="6.47413">
        <ele>1430.8</ele>
        <time>2022-06-15T13:23:53Z</time>
      </trkpt>
      <trkpt lat="45.87201" lon="6.47414">
        <ele>1430.9</ele>
        <time>2022-06-15T13:23:54Z</time>
      </trkpt>
      <trkpt lat="45.87203" lon="6.47415">
        <ele>1431.1</ele>
        <time>2022-06-15T13:23:55Z</time>
      </trkpt>
      <trkpt lat="45.87205" lon="6.47417">
        <ele>1431.2</ele>
        <time>2022-06-15T13:23:56Z</time>
      </trkpt>
      <trkpt lat="45.87207" lon="6.47419">
        <ele>1431</ele>
        <time>2022-06-15T13:23:57Z</time>
      </trkpt>
      <trkpt lat="45.8721" lon="6.4742">
        <ele>1430.8</ele>
        <time>2022-06-15T13:23:58Z</time>
      </trkpt>
      <trkpt lat="45.87212" lon="6.47422">
        <ele>1430.7</ele>
        <time>2022-06-15T13:23:59Z</time>
      </trkpt>
      <trkpt lat="45.87214" lon="6.47424">
        <ele>1430.6</ele>
        <time>2022-06-15T13:24:00Z</time>
      </trkpt>
      <trkpt lat="45.87216" lon="6.47425">
        <ele>1430.6</ele>
        <time>2022-06-15T13:24:01Z</time>
      </trkpt>
      <trkpt lat="45.87218" lon="6.47426">
        <ele>1430.7</ele>
        <time>2022-06-15T13:24:02Z</time>
      </trkpt>
      <trkpt lat="45.8722" lon="6.47428">
        <ele>1430.7</ele>
        <time>2022-06-15T13:24:03Z</time>
      </trkpt>
      <trkpt lat="45.87222" lon="6.47428">
        <ele>1430.9</ele>
        <time>2022-06-15T13:24:04Z</time>
      </trkpt>
      <trkpt lat="45.87225" lon="6.47429">
        <ele>1431.5</ele>
        <time>2022-06-15T13:24:05Z</time>
      </trkpt>
      <trkpt lat="45.87227" lon="6.47428">
        <ele>1432.3</ele>
        <time>2022-06-15T13:24:06Z</time>
      </trkpt>
      <trkpt lat="45.87229" lon="6.47428">
        <ele>1433</ele>
        <time>2022-06-15T13:24:07Z</time>
      </trkpt>
      <trkpt lat="45.87231" lon="6.47426">
        <ele>1433.8</ele>
        <time>2022-06-15T13:24:08Z</time>
      </trkpt>
      <trkpt lat="45.87233" lon="6.47424">
        <ele>1434.6</ele>
        <time>2022-06-15T13:24:09Z</time>
      </trkpt>
      <trkpt lat="45.87235" lon="6.47422">
        <ele>1435.3</ele>
        <time>2022-06-15T13:24:10Z</time>
      </trkpt>
      <trkpt lat="45.87236" lon="6.4742">
        <ele>1436</ele>
        <time>2022-06-15T13:24:11Z</time>
      </trkpt>
      <trkpt lat="45.87237" lon="6.47416">
        <ele>1436.7</ele>
        <time>2022-06-15T13:24:12Z</time>
      </trkpt>
      <trkpt lat="45.87237" lon="6.47413">
        <ele>1437.1</ele>
        <time>2022-06-15T13:24:13Z</time>
      </trkpt>
      <trkpt lat="45.87237" lon="6.47409">
        <ele>1437.5</ele>
        <time>2022-06-15T13:24:14Z</time>
      </trkpt>
      <trkpt lat="45.87236" lon="6.47406">
        <ele>1437.9</ele>
        <time>2022-06-15T13:24:15Z</time>
      </trkpt>
      <trkpt lat="45.87235" lon="6.47402">
        <ele>1438.1</ele>
        <time>2022-06-15T13:24:16Z</time>
      </trkpt>
      <trkpt lat="45.87234" lon="6.47399">
        <ele>1438.1</ele>
        <time>2022-06-15T13:24:17Z</time>
      </trkpt>
      <trkpt lat="45.87233" lon="6.47397">
        <ele>1438.1</ele>
        <time>2022-06-15T13:24:18Z</time>
      </trkpt>
      <trkpt lat="45.87231" lon="6.47394">
        <ele>1438</ele>
        <time>2022-06-15T13:24:19Z</time>
      </trkpt>
      <trkpt lat="45.8723" lon="6.47392">
        <ele>1437.9</ele>
        <time>2022-06-15T13:24:20Z</time>
      </trkpt>
      <trkpt lat="45.87228" lon="6.47389">
        <ele>1437.7</ele>
        <time>2022-06-15T13:24:21Z</time>
      </trkpt>
      <trkpt lat="45.87227" lon="6.47387">
        <ele>1437.7</ele>
        <time>2022-06-15T13:24:22Z</time>
      </trkpt>
      <trkpt lat="45.87225" lon="6.47385">
        <ele>1437.7</ele>
        <time>2022-06-15T13:24:23Z</time>
      </trkpt>
      <trkpt lat="45.87223" lon="6.47383">
        <ele>1437.6</ele>
        <time>2022-06-15T13:24:24Z</time>
      </trkpt>
      <trkpt lat="45.87221" lon="6.4738">
        <ele>1437.7</ele>
        <time>2022-06-15T13:24:25Z</time>
      </trkpt>
      <trkpt lat="45.8722" lon="6.47378">
        <ele>1438</ele>
        <time>2022-06-15T13:24:26Z</time>
      </trkpt>
      <trkpt lat="45.87218" lon="6.47375">
        <ele>1438.3</ele>
        <time>2022-06-15T13:24:27Z</time>
      </trkpt>
      <trkpt lat="45.87217" lon="6.47373">
        <ele>1438.5</ele>
        <time>2022-06-15T13:24:28Z</time>
      </trkpt>
      <trkpt lat="45.87215" lon="6.4737">
        <ele>1438.7</ele>
        <time>2022-06-15T13:24:29Z</time>
      </trkpt>
      <trkpt lat="45.87214" lon="6.47368">
        <ele>1438.9</ele>
        <time>2022-06-15T13:24:30Z</time>
      </trkpt>
      <trkpt lat="45.87212" lon="6.47366">
        <ele>1439</ele>
        <time>2022-06-15T13:24:31Z</time>
      </trkpt>
      <trkpt lat="45.87211" lon="6.47363">
        <ele>1439.2</ele>
        <time>2022-06-15T13:24:32Z</time>
      </trkpt>
      <trkpt lat="45.8721" lon="6.4736">
        <ele>1439.4</ele>
        <time>2022-06-15T13:24:33Z</time>
      </trkpt>
      <trkpt lat="45.87208" lon="6.47358">
        <ele>1439.4</ele>
        <time>2022-06-15T13:24:34Z</time>
      </trkpt>
      <trkpt lat="45.87207" lon="6.47355">
        <ele>1439.5</ele>
        <time>2022-06-15T13:24:35Z</time>
      </trkpt>
      <trkpt lat="45.87206" lon="6.47352">
        <ele>1439.6</ele>
        <time>2022-06-15T13:24:36Z</time>
      </trkpt>
      <trkpt lat="45.87205" lon="6.47349">
        <ele>1439.7</ele>
        <time>2022-06-15T13:24:37Z</time>
      </trkpt>
      <trkpt lat="45.87204" lon="6.47347">
        <ele>1439.9</ele>
        <time>2022-06-15T13:24:38Z</time>
      </trkpt>
      <trkpt lat="45.87203" lon="6.47344">
        <ele>1440.1</ele>
        <time>2022-06-15T13:24:39Z</time>
      </trkpt>
      <trkpt lat="45.87201" lon="6.47341">
        <ele>1440.2</ele>
        <time>2022-06-15T13:24:40Z</time>
      </trkpt>
      <trkpt lat="45.872" lon="6.47338">
        <ele>1440.4</ele>
        <time>2022-06-15T13:24:41Z</time>
      </trkpt>
      <trkpt lat="45.87199" lon="6.47335">
        <ele>1440.5</ele>
        <time>2022-06-15T13:24:42Z</time>
      </trkpt>
      <trkpt lat="45.87198" lon="6.47333">
        <ele>1440.6</ele>
        <time>2022-06-15T13:24:43Z</time>
      </trkpt>
      <trkpt lat="45.87196" lon="6.47331">
        <ele>1440.8</ele>
        <time>2022-06-15T13:24:44Z</time>
      </trkpt>
      <trkpt lat="45.87195" lon="6.47328">
        <ele>1441</ele>
        <time>2022-06-15T13:24:45Z</time>
      </trkpt>
      <trkpt lat="45.87193" lon="6.47326">
        <ele>1441.2</ele>
        <time>2022-06-15T13:24:46Z</time>
      </trkpt>
      <trkpt lat="45.87192" lon="6.47323">
        <ele>1441.5</ele>
        <time>2022-06-15T13:24:47Z</time>
      </trkpt>
      <trkpt lat="45.8719" lon="6.47321">
        <ele>1441.7</ele>
        <time>2022-06-15T13:24:48Z</time>
      </trkpt>
      <trkpt lat="45.87188" lon="6.47319">
        <ele>1441.9</ele>
        <time>2022-06-15T13:24:49Z</time>
      </trkpt>
      <trkpt lat="45.87187" lon="6.47317">
        <ele>1442.1</ele>
        <time>2022-06-15T13:24:50Z</time>
      </trkpt>
      <trkpt lat="45.87185" lon="6.47315">
        <ele>1442.2</ele>
        <time>2022-06-15T13:24:51Z</time>
      </trkpt>
      <trkpt lat="45.87183" lon="6.47313">
        <ele>1442.4</ele>
        <time>2022-06-15T13:24:52Z</time>
      </trkpt>
      <trkpt lat="45.87181" lon="6.47311">
        <ele>1442.6</ele>
        <time>2022-06-15T13:24:53Z</time>
      </trkpt>
      <trkpt lat="45.8718" lon="6.47309">
        <ele>1442.8</ele>
        <time>2022-06-15T13:24:54Z</time>
      </trkpt>
      <trkpt lat="45.87178" lon="6.47306">
        <ele>1443.1</ele>
        <time>2022-06-15T13:24:55Z</time>
      </trkpt>
      <trkpt lat="45.87177" lon="6.47304">
        <ele>1443.4</ele>
        <time>2022-06-15T13:24:56Z</time>
      </trkpt>
      <trkpt lat="45.87175" lon="6.47301">
        <ele>1443.8</ele>
        <time>2022-06-15T13:24:57Z</time>
      </trkpt>
      <trkpt lat="45.87174" lon="6.47298">
        <ele>1444.1</ele>
        <time>2022-06-15T13:24:58Z</time>
      </trkpt>
      <trkpt lat="45.87173" lon="6.47295">
        <ele>1444.4</ele>
        <time>2022-06-15T13:24:59Z</time>
      </trkpt>
      <trkpt lat="45.87172" lon="6.47293">
        <ele>1444.6</ele>
        <time>2022-06-15T13:25:00Z</time>
      </trkpt>
      <trkpt lat="45.87171" lon="6.4729">
        <ele>1444.9</ele>
        <time>2022-06-15T13:25:01Z</time>
      </trkpt>
      <trkpt lat="45.8717" lon="6.47287">
        <ele>1445.2</ele>
        <time>2022-06-15T13:25:02Z</time>
      </trkpt>
      <trkpt lat="45.87169" lon="6.47284">
        <ele>1445.5</ele>
        <time>2022-06-15T13:25:03Z</time>
      </trkpt>
      <trkpt lat="45.87168" lon="6.47281">
        <ele>1445.8</ele>
        <time>2022-06-15T13:25:04Z</time>
      </trkpt>
      <trkpt lat="45.87167" lon="6.47279">
        <ele>1446</ele>
        <time>2022-06-15T13:25:05Z</time>
      </trkpt>
      <trkpt lat="45.87166" lon="6.47276">
        <ele>1446.1</ele>
        <time>2022-06-15T13:25:06Z</time>
      </trkpt>
      <trkpt lat="45.87165" lon="6.47272">
        <ele>1446.2</ele>
        <time>2022-06-15T13:25:07Z</time>
      </trkpt>
      <trkpt lat="45.87165" lon="6.47269">
        <ele>1446.4</ele>
        <time>2022-06-15T13:25:08Z</time>
      </trkpt>
      <trkpt lat="45.87164" lon="6.47266">
        <ele>1446.5</ele>
        <time>2022-06-15T13:25:09Z</time>
      </trkpt>
      <trkpt lat="45.87163" lon="6.47264">
        <ele>1446.6</ele>
        <time>2022-06-15T13:25:10Z</time>
      </trkpt>
      <trkpt lat="45.87162" lon="6.47261">
        <ele>1446.6</ele>
        <time>2022-06-15T13:25:11Z</time>
      </trkpt>
      <trkpt lat="45.87161" lon="6.47258">
        <ele>1446.6</ele>
        <time>2022-06-15T13:25:12Z</time>
      </trkpt>
      <trkpt lat="45.8716" lon="6.47255">
        <ele>1446.6</ele>
        <time>2022-06-15T13:25:13Z</time>
      </trkpt>
      <trkpt lat="45.87159" lon="6.47252">
        <ele>1446.6</ele>
        <time>2022-06-15T13:25:14Z</time>
      </trkpt>
      <trkpt lat="45.87159" lon="6.47249">
        <ele>1446.8</ele>
        <time>2022-06-15T13:25:15Z</time>
      </trkpt>
      <trkpt lat="45.87158" lon="6.47246">
        <ele>1446.8</ele>
        <time>2022-06-15T13:25:16Z</time>
      </trkpt>
      <trkpt lat="45.87157" lon="6.47243">
        <ele>1447.1</ele>
        <time>2022-06-15T13:25:17Z</time>
      </trkpt>
      <trkpt lat="45.87157" lon="6.4724">
        <ele>1447.2</ele>
        <time>2022-06-15T13:25:18Z</time>
      </trkpt>
      <trkpt lat="45.87156" lon="6.47237">
        <ele>1447.4</ele>
        <time>2022-06-15T13:25:19Z</time>
      </trkpt>
      <trkpt lat="45.87155" lon="6.47233">
        <ele>1447.7</ele>
        <time>2022-06-15T13:25:20Z</time>
      </trkpt>
      <trkpt lat="45.87155" lon="6.4723">
        <ele>1448</ele>
        <time>2022-06-15T13:25:21Z</time>
      </trkpt>
      <trkpt lat="45.87154" lon="6.47226">
        <ele>1448.2</ele>
        <time>2022-06-15T13:25:22Z</time>
      </trkpt>
      <trkpt lat="45.87153" lon="6.47223">
        <ele>1448.4</ele>
        <time>2022-06-15T13:25:23Z</time>
      </trkpt>
      <trkpt lat="45.87152" lon="6.4722">
        <ele>1448.5</ele>
        <time>2022-06-15T13:25:24Z</time>
      </trkpt>
      <trkpt lat="45.87151" lon="6.47216">
        <ele>1448.7</ele>
        <time>2022-06-15T13:25:25Z</time>
      </trkpt>
      <trkpt lat="45.8715" lon="6.47213">
        <ele>1448.9</ele>
        <time>2022-06-15T13:25:26Z</time>
      </trkpt>
      <trkpt lat="45.87149" lon="6.4721">
        <ele>1449.1</ele>
        <time>2022-06-15T13:25:27Z</time>
      </trkpt>
      <trkpt lat="45.87148" lon="6.47207">
        <ele>1449.3</ele>
        <time>2022-06-15T13:25:28Z</time>
      </trkpt>
      <trkpt lat="45.87147" lon="6.47204">
        <ele>1449.5</ele>
        <time>2022-06-15T13:25:29Z</time>
      </trkpt>
      <trkpt lat="45.87146" lon="6.47201">
        <ele>1449.8</ele>
        <time>2022-06-15T13:25:30Z</time>
      </trkpt>
      <trkpt lat="45.87145" lon="6.47198">
        <ele>1450</ele>
        <time>2022-06-15T13:25:31Z</time>
      </trkpt>
      <trkpt lat="45.87144" lon="6.47195">
        <ele>1450.3</ele>
        <time>2022-06-15T13:25:32Z</time>
      </trkpt>
      <trkpt lat="45.87143" lon="6.47192">
        <ele>1450.6</ele>
        <time>2022-06-15T13:25:33Z</time>
      </trkpt>
      <trkpt lat="45.87141" lon="6.47189">
        <ele>1450.8</ele>
        <time>2022-06-15T13:25:34Z</time>
      </trkpt>
      <trkpt lat="45.8714" lon="6.47186">
        <ele>1451</ele>
        <time>2022-06-15T13:25:35Z</time>
      </trkpt>
      <trkpt lat="45.87139" lon="6.47183">
        <ele>1451.1</ele>
        <time>2022-06-15T13:25:36Z</time>
      </trkpt>
      <trkpt lat="45.87137" lon="6.47181">
        <ele>1451.2</ele>
        <time>2022-06-15T13:25:37Z</time>
      </trkpt>
      <trkpt lat="45.87136" lon="6.47178">
        <ele>1451.3</ele>
        <time>2022-06-15T13:25:38Z</time>
      </trkpt>
      <trkpt lat="45.87135" lon="6.47176">
        <ele>1451.3</ele>
        <time>2022-06-15T13:25:39Z</time>
      </trkpt>
      <trkpt lat="45.87133" lon="6.47173">
        <ele>1451.3</ele>
        <time>2022-06-15T13:25:40Z</time>
      </trkpt>
      <trkpt lat="45.87132" lon="6.47171">
        <ele>1451.4</ele>
        <time>2022-06-15T13:25:41Z</time>
      </trkpt>
      <trkpt lat="45.8713" lon="6.47168">
        <ele>1451.5</ele>
        <time>2022-06-15T13:25:42Z</time>
      </trkpt>
      <trkpt lat="45.87129" lon="6.47166">
        <ele>1451.7</ele>
        <time>2022-06-15T13:25:43Z</time>
      </trkpt>
      <trkpt lat="45.87127" lon="6.47163">
        <ele>1452</ele>
        <time>2022-06-15T13:25:44Z</time>
      </trkpt>
      <trkpt lat="45.87126" lon="6.4716">
        <ele>1452.3</ele>
        <time>2022-06-15T13:25:45Z</time>
      </trkpt>
      <trkpt lat="45.87125" lon="6.47157">
        <ele>1452.7</ele>
        <time>2022-06-15T13:25:46Z</time>
      </trkpt>
      <trkpt lat="45.87124" lon="6.47154">
        <ele>1453</ele>
        <time>2022-06-15T13:25:47Z</time>
      </trkpt>
      <trkpt lat="45.87123" lon="6.47152">
        <ele>1453.4</ele>
        <time>2022-06-15T13:25:48Z</time>
      </trkpt>
      <trkpt lat="45.87121" lon="6.47149">
        <ele>1453.7</ele>
        <time>2022-06-15T13:25:49Z</time>
      </trkpt>
      <trkpt lat="45.8712" lon="6.47146">
        <ele>1454.1</ele>
        <time>2022-06-15T13:25:50Z</time>
      </trkpt>
      <trkpt lat="45.87119" lon="6.47143">
        <ele>1454.4</ele>
        <time>2022-06-15T13:25:51Z</time>
      </trkpt>
      <trkpt lat="45.87118" lon="6.4714">
        <ele>1454.8</ele>
        <time>2022-06-15T13:25:52Z</time>
      </trkpt>
      <trkpt lat="45.87117" lon="6.47137">
        <ele>1455.1</ele>
        <time>2022-06-15T13:25:53Z</time>
      </trkpt>
      <trkpt lat="45.87117" lon="6.47135">
        <ele>1455.3</ele>
        <time>2022-06-15T13:25:54Z</time>
      </trkpt>
      <trkpt lat="45.87116" lon="6.47132">
        <ele>1455.5</ele>
        <time>2022-06-15T13:25:55Z</time>
      </trkpt>
      <trkpt lat="45.87115" lon="6.47129">
        <ele>1455.8</ele>
        <time>2022-06-15T13:25:56Z</time>
      </trkpt>
      <trkpt lat="45.87114" lon="6.47126">
        <ele>1455.9</ele>
        <time>2022-06-15T13:25:57Z</time>
      </trkpt>
      <trkpt lat="45.87113" lon="6.47123">
        <ele>1456.1</ele>
        <time>2022-06-15T13:25:58Z</time>
      </trkpt>
      <trkpt lat="45.87112" lon="6.4712">
        <ele>1456.3</ele>
        <time>2022-06-15T13:25:59Z</time>
      </trkpt>
      <trkpt lat="45.87111" lon="6.47117">
        <ele>1456.4</ele>
        <time>2022-06-15T13:26:00Z</time>
      </trkpt>
      <trkpt lat="45.8711" lon="6.47114">
        <ele>1456.4</ele>
        <time>2022-06-15T13:26:01Z</time>
      </trkpt>
      <trkpt lat="45.87109" lon="6.47111">
        <ele>1456.4</ele>
        <time>2022-06-15T13:26:02Z</time>
      </trkpt>
      <trkpt lat="45.87108" lon="6.47108">
        <ele>1456.5</ele>
        <time>2022-06-15T13:26:03Z</time>
      </trkpt>
      <trkpt lat="45.87108" lon="6.47105">
        <ele>1456.6</ele>
        <time>2022-06-15T13:26:04Z</time>
      </trkpt>
      <trkpt lat="45.87107" lon="6.47102">
        <ele>1456.7</ele>
        <time>2022-06-15T13:26:05Z</time>
      </trkpt>
      <trkpt lat="45.87106" lon="6.47099">
        <ele>1456.8</ele>
        <time>2022-06-15T13:26:06Z</time>
      </trkpt>
      <trkpt lat="45.87105" lon="6.47096">
        <ele>1457</ele>
        <time>2022-06-15T13:26:07Z</time>
      </trkpt>
      <trkpt lat="45.87105" lon="6.47092">
        <ele>1457.2</ele>
        <time>2022-06-15T13:26:08Z</time>
      </trkpt>
      <trkpt lat="45.87105" lon="6.47089">
        <ele>1457.5</ele>
        <time>2022-06-15T13:26:09Z</time>
      </trkpt>
      <trkpt lat="45.87104" lon="6.47086">
        <ele>1457.8</ele>
        <time>2022-06-15T13:26:10Z</time>
      </trkpt>
      <trkpt lat="45.87104" lon="6.47083">
        <ele>1458</ele>
        <time>2022-06-15T13:26:11Z</time>
      </trkpt>
      <trkpt lat="45.87103" lon="6.4708">
        <ele>1458</ele>
        <time>2022-06-15T13:26:12Z</time>
      </trkpt>
      <trkpt lat="45.87103" lon="6.47076">
        <ele>1458.1</ele>
        <time>2022-06-15T13:26:13Z</time>
      </trkpt>
      <trkpt lat="45.87103" lon="6.47073">
        <ele>1458.4</ele>
        <time>2022-06-15T13:26:14Z</time>
      </trkpt>
      <trkpt lat="45.87102" lon="6.4707">
        <ele>1458.6</ele>
        <time>2022-06-15T13:26:15Z</time>
      </trkpt>
      <trkpt lat="45.87102" lon="6.47067">
        <ele>1458.8</ele>
        <time>2022-06-15T13:26:16Z</time>
      </trkpt>
      <trkpt lat="45.87102" lon="6.47064">
        <ele>1459</ele>
        <time>2022-06-15T13:26:17Z</time>
      </trkpt>
      <trkpt lat="45.87101" lon="6.47061">
        <ele>1459.1</ele>
        <time>2022-06-15T13:26:18Z</time>
      </trkpt>
      <trkpt lat="45.87101" lon="6.47058">
        <ele>1459.2</ele>
        <time>2022-06-15T13:26:19Z</time>
      </trkpt>
      <trkpt lat="45.87101" lon="6.47055">
        <ele>1459.5</ele>
        <time>2022-06-15T13:26:20Z</time>
      </trkpt>
      <trkpt lat="45.871" lon="6.47051">
        <ele>1459.7</ele>
        <time>2022-06-15T13:26:21Z</time>
      </trkpt>
      <trkpt lat="45.871" lon="6.47048">
        <ele>1460</ele>
        <time>2022-06-15T13:26:22Z</time>
      </trkpt>
      <trkpt lat="45.871" lon="6.47045">
        <ele>1460.4</ele>
        <time>2022-06-15T13:26:23Z</time>
      </trkpt>
      <trkpt lat="45.871" lon="6.47041">
        <ele>1460.6</ele>
        <time>2022-06-15T13:26:24Z</time>
      </trkpt>
      <trkpt lat="45.87099" lon="6.47038">
        <ele>1460.9</ele>
        <time>2022-06-15T13:26:25Z</time>
      </trkpt>
      <trkpt lat="45.87099" lon="6.47035">
        <ele>1461.1</ele>
        <time>2022-06-15T13:26:26Z</time>
      </trkpt>
      <trkpt lat="45.87099" lon="6.47032">
        <ele>1461.5</ele>
        <time>2022-06-15T13:26:27Z</time>
      </trkpt>
      <trkpt lat="45.87099" lon="6.47028">
        <ele>1461.8</ele>
        <time>2022-06-15T13:26:28Z</time>
      </trkpt>
      <trkpt lat="45.87099" lon="6.47025">
        <ele>1461.9</ele>
        <time>2022-06-15T13:26:29Z</time>
      </trkpt>
      <trkpt lat="45.87098" lon="6.47022">
        <ele>1462.1</ele>
        <time>2022-06-15T13:26:30Z</time>
      </trkpt>
      <trkpt lat="45.87098" lon="6.47018">
        <ele>1462.3</ele>
        <time>2022-06-15T13:26:31Z</time>
      </trkpt>
      <trkpt lat="45.87098" lon="6.47014">
        <ele>1462.5</ele>
        <time>2022-06-15T13:26:32Z</time>
      </trkpt>
      <trkpt lat="45.87097" lon="6.47011">
        <ele>1462.7</ele>
        <time>2022-06-15T13:26:33Z</time>
      </trkpt>
      <trkpt lat="45.87096" lon="6.47007">
        <ele>1462.8</ele>
        <time>2022-06-15T13:26:34Z</time>
      </trkpt>
      <trkpt lat="45.87096" lon="6.47003">
        <ele>1463.1</ele>
        <time>2022-06-15T13:26:35Z</time>
      </trkpt>
      <trkpt lat="45.87096" lon="6.46999">
        <ele>1463.3</ele>
        <time>2022-06-15T13:26:36Z</time>
      </trkpt>
      <trkpt lat="45.87096" lon="6.46995">
        <ele>1463.7</ele>
        <time>2022-06-15T13:26:37Z</time>
      </trkpt>
      <trkpt lat="45.87095" lon="6.46991">
        <ele>1464</ele>
        <time>2022-06-15T13:26:38Z</time>
      </trkpt>
      <trkpt lat="45.87095" lon="6.46986">
        <ele>1464.3</ele>
        <time>2022-06-15T13:26:39Z</time>
      </trkpt>
      <trkpt lat="45.87094" lon="6.46982">
        <ele>1464.7</ele>
        <time>2022-06-15T13:26:40Z</time>
      </trkpt>
      <trkpt lat="45.87094" lon="6.46977">
        <ele>1465</ele>
        <time>2022-06-15T13:26:41Z</time>
      </trkpt>
      <trkpt lat="45.87093" lon="6.46973">
        <ele>1465.4</ele>
        <time>2022-06-15T13:26:42Z</time>
      </trkpt>
      <trkpt lat="45.87093" lon="6.46968">
        <ele>1465.6</ele>
        <time>2022-06-15T13:26:43Z</time>
      </trkpt>
      <trkpt lat="45.87092" lon="6.46963">
        <ele>1465.7</ele>
        <time>2022-06-15T13:26:44Z</time>
      </trkpt>
      <trkpt lat="45.87092" lon="6.46959">
        <ele>1465.9</ele>
        <time>2022-06-15T13:26:45Z</time>
      </trkpt>
      <trkpt lat="45.87092" lon="6.46955">
        <ele>1466.1</ele>
        <time>2022-06-15T13:26:46Z</time>
      </trkpt>
      <trkpt lat="45.87093" lon="6.46951">
        <ele>1466.4</ele>
        <time>2022-06-15T13:26:47Z</time>
      </trkpt>
      <trkpt lat="45.87094" lon="6.46947">
        <ele>1466.8</ele>
        <time>2022-06-15T13:26:48Z</time>
      </trkpt>
      <trkpt lat="45.87095" lon="6.46944">
        <ele>1467.1</ele>
        <time>2022-06-15T13:26:49Z</time>
      </trkpt>
      <trkpt lat="45.87096" lon="6.4694">
        <ele>1467.1</ele>
        <time>2022-06-15T13:26:50Z</time>
      </trkpt>
      <trkpt lat="45.87097" lon="6.46937">
        <ele>1467.2</ele>
        <time>2022-06-15T13:26:51Z</time>
      </trkpt>
      <trkpt lat="45.87099" lon="6.46934">
        <ele>1467.4</ele>
        <time>2022-06-15T13:26:52Z</time>
      </trkpt>
      <trkpt lat="45.871" lon="6.46931">
        <ele>1467.5</ele>
        <time>2022-06-15T13:26:53Z</time>
      </trkpt>
      <trkpt lat="45.87101" lon="6.46928">
        <ele>1467.6</ele>
        <time>2022-06-15T13:26:54Z</time>
      </trkpt>
      <trkpt lat="45.87102" lon="6.46924">
        <ele>1467.7</ele>
        <time>2022-06-15T13:26:55Z</time>
      </trkpt>
      <trkpt lat="45.87104" lon="6.46921">
        <ele>1467.8</ele>
        <time>2022-06-15T13:26:56Z</time>
      </trkpt>
      <trkpt lat="45.87105" lon="6.46918">
        <ele>1468</ele>
        <time>2022-06-15T13:26:57Z</time>
      </trkpt>
      <trkpt lat="45.87107" lon="6.46916">
        <ele>1468.1</ele>
        <time>2022-06-15T13:26:58Z</time>
      </trkpt>
      <trkpt lat="45.87108" lon="6.46913">
        <ele>1468.3</ele>
        <time>2022-06-15T13:26:59Z</time>
      </trkpt>
      <trkpt lat="45.8711" lon="6.4691">
        <ele>1468.5</ele>
        <time>2022-06-15T13:27:00Z</time>
      </trkpt>
      <trkpt lat="45.87111" lon="6.46907">
        <ele>1468.7</ele>
        <time>2022-06-15T13:27:01Z</time>
      </trkpt>
      <trkpt lat="45.87113" lon="6.46905">
        <ele>1468.9</ele>
        <time>2022-06-15T13:27:02Z</time>
      </trkpt>
      <trkpt lat="45.87115" lon="6.46902">
        <ele>1469.2</ele>
        <time>2022-06-15T13:27:03Z</time>
      </trkpt>
      <trkpt lat="45.87116" lon="6.469">
        <ele>1469.5</ele>
        <time>2022-06-15T13:27:04Z</time>
      </trkpt>
      <trkpt lat="45.87118" lon="6.46897">
        <ele>1469.7</ele>
        <time>2022-06-15T13:27:05Z</time>
      </trkpt>
      <trkpt lat="45.8712" lon="6.46895">
        <ele>1470</ele>
        <time>2022-06-15T13:27:06Z</time>
      </trkpt>
      <trkpt lat="45.87122" lon="6.46892">
        <ele>1470.4</ele>
        <time>2022-06-15T13:27:07Z</time>
      </trkpt>
      <trkpt lat="45.87124" lon="6.4689">
        <ele>1470.7</ele>
        <time>2022-06-15T13:27:08Z</time>
      </trkpt>
      <trkpt lat="45.87126" lon="6.46888">
        <ele>1471</ele>
        <time>2022-06-15T13:27:09Z</time>
      </trkpt>
      <trkpt lat="45.87127" lon="6.46885">
        <ele>1471.3</ele>
        <time>2022-06-15T13:27:10Z</time>
      </trkpt>
      <trkpt lat="45.87129" lon="6.46883">
        <ele>1471.5</ele>
        <time>2022-06-15T13:27:11Z</time>
      </trkpt>
      <trkpt lat="45.87131" lon="6.46881">
        <ele>1471.8</ele>
        <time>2022-06-15T13:27:12Z</time>
      </trkpt>
      <trkpt lat="45.87133" lon="6.46879">
        <ele>1472.1</ele>
        <time>2022-06-15T13:27:13Z</time>
      </trkpt>
      <trkpt lat="45.87135" lon="6.46876">
        <ele>1472.4</ele>
        <time>2022-06-15T13:27:14Z</time>
      </trkpt>
      <trkpt lat="45.87137" lon="6.46874">
        <ele>1472.6</ele>
        <time>2022-06-15T13:27:15Z</time>
      </trkpt>
      <trkpt lat="45.8714" lon="6.46873">
        <ele>1473</ele>
        <time>2022-06-15T13:27:16Z</time>
      </trkpt>
      <trkpt lat="45.87142" lon="6.46871">
        <ele>1473.2</ele>
        <time>2022-06-15T13:27:17Z</time>
      </trkpt>
      <trkpt lat="45.87144" lon="6.46869">
        <ele>1473.5</ele>
        <time>2022-06-15T13:27:18Z</time>
      </trkpt>
      <trkpt lat="45.87145" lon="6.46866">
        <ele>1473.7</ele>
        <time>2022-06-15T13:27:19Z</time>
      </trkpt>
      <trkpt lat="45.87147" lon="6.46864">
        <ele>1473.9</ele>
        <time>2022-06-15T13:27:20Z</time>
      </trkpt>
      <trkpt lat="45.87149" lon="6.46861">
        <ele>1474.2</ele>
        <time>2022-06-15T13:27:21Z</time>
      </trkpt>
      <trkpt lat="45.87151" lon="6.46859">
        <ele>1474.5</ele>
        <time>2022-06-15T13:27:22Z</time>
      </trkpt>
      <trkpt lat="45.87152" lon="6.46856">
        <ele>1474.8</ele>
        <time>2022-06-15T13:27:23Z</time>
      </trkpt>
      <trkpt lat="45.87154" lon="6.46853">
        <ele>1475.2</ele>
        <time>2022-06-15T13:27:24Z</time>
      </trkpt>
      <trkpt lat="45.87155" lon="6.4685">
        <ele>1475.5</ele>
        <time>2022-06-15T13:27:25Z</time>
      </trkpt>
      <trkpt lat="45.87156" lon="6.46848">
        <ele>1475.8</ele>
        <time>2022-06-15T13:27:26Z</time>
      </trkpt>
      <trkpt lat="45.87157" lon="6.46844">
        <ele>1476</ele>
        <time>2022-06-15T13:27:27Z</time>
      </trkpt>
      <trkpt lat="45.87157" lon="6.46841">
        <ele>1476.2</ele>
        <time>2022-06-15T13:27:28Z</time>
      </trkpt>
      <trkpt lat="45.87158" lon="6.46837">
        <ele>1476.3</ele>
        <time>2022-06-15T13:27:29Z</time>
      </trkpt>
      <trkpt lat="45.87158" lon="6.46833">
        <ele>1476.4</ele>
        <time>2022-06-15T13:27:30Z</time>
      </trkpt>
      <trkpt lat="45.87158" lon="6.46829">
        <ele>1476.6</ele>
        <time>2022-06-15T13:27:31Z</time>
      </trkpt>
      <trkpt lat="45.87159" lon="6.46826">
        <ele>1476.8</ele>
        <time>2022-06-15T13:27:32Z</time>
      </trkpt>
      <trkpt lat="45.87159" lon="6.46822">
        <ele>1476.9</ele>
        <time>2022-06-15T13:27:33Z</time>
      </trkpt>
      <trkpt lat="45.8716" lon="6.46818">
        <ele>1477.2</ele>
        <time>2022-06-15T13:27:34Z</time>
      </trkpt>
      <trkpt lat="45.8716" lon="6.46814">
        <ele>1477.3</ele>
        <time>2022-06-15T13:27:35Z</time>
      </trkpt>
      <trkpt lat="45.87161" lon="6.4681">
        <ele>1477.4</ele>
        <time>2022-06-15T13:27:36Z</time>
      </trkpt>
      <trkpt lat="45.87161" lon="6.46806">
        <ele>1477.5</ele>
        <time>2022-06-15T13:27:37Z</time>
      </trkpt>
      <trkpt lat="45.87162" lon="6.46802">
        <ele>1477.7</ele>
        <time>2022-06-15T13:27:38Z</time>
      </trkpt>
      <trkpt lat="45.87162" lon="6.46798">
        <ele>1477.9</ele>
        <time>2022-06-15T13:27:39Z</time>
      </trkpt>
      <trkpt lat="45.87163" lon="6.46794">
        <ele>1478.1</ele>
        <time>2022-06-15T13:27:40Z</time>
      </trkpt>
      <trkpt lat="45.87164" lon="6.4679">
        <ele>1478.3</ele>
        <time>2022-06-15T13:27:41Z</time>
      </trkpt>
      <trkpt lat="45.87164" lon="6.46786">
        <ele>1478.5</ele>
        <time>2022-06-15T13:27:42Z</time>
      </trkpt>
      <trkpt lat="45.87165" lon="6.46782">
        <ele>1478.5</ele>
        <time>2022-06-15T13:27:43Z</time>
      </trkpt>
      <trkpt lat="45.87165" lon="6.46779">
        <ele>1478.6</ele>
        <time>2022-06-15T13:27:44Z</time>
      </trkpt>
      <trkpt lat="45.87166" lon="6.46775">
        <ele>1478.9</ele>
        <time>2022-06-15T13:27:45Z</time>
      </trkpt>
      <trkpt lat="45.87166" lon="6.46771">
        <ele>1479.1</ele>
        <time>2022-06-15T13:27:46Z</time>
      </trkpt>
      <trkpt lat="45.87166" lon="6.46767">
        <ele>1479.3</ele>
        <time>2022-06-15T13:27:47Z</time>
      </trkpt>
      <trkpt lat="45.87166" lon="6.46763">
        <ele>1479.4</ele>
        <time>2022-06-15T13:27:48Z</time>
      </trkpt>
      <trkpt lat="45.87166" lon="6.46759">
        <ele>1479.6</ele>
        <time>2022-06-15T13:27:49Z</time>
      </trkpt>
      <trkpt lat="45.87166" lon="6.46755">
        <ele>1479.7</ele>
        <time>2022-06-15T13:27:50Z</time>
      </trkpt>
      <trkpt lat="45.87166" lon="6.46751">
        <ele>1479.8</ele>
        <time>2022-06-15T13:27:51Z</time>
      </trkpt>
      <trkpt lat="45.87166" lon="6.46747">
        <ele>1480</ele>
        <time>2022-06-15T13:27:52Z</time>
      </trkpt>
      <trkpt lat="45.87166" lon="6.46743">
        <ele>1480.3</ele>
        <time>2022-06-15T13:27:53Z</time>
      </trkpt>
      <trkpt lat="45.87165" lon="6.46739">
        <ele>1480.5</ele>
        <time>2022-06-15T13:27:54Z</time>
      </trkpt>
      <trkpt lat="45.87165" lon="6.46735">
        <ele>1480.8</ele>
        <time>2022-06-15T13:27:55Z</time>
      </trkpt>
      <trkpt lat="45.87165" lon="6.46731">
        <ele>1481</ele>
        <time>2022-06-15T13:27:56Z</time>
      </trkpt>
      <trkpt lat="45.87165" lon="6.46726">
        <ele>1481.4</ele>
        <time>2022-06-15T13:27:57Z</time>
      </trkpt>
      <trkpt lat="45.87166" lon="6.46722">
        <ele>1481.7</ele>
        <time>2022-06-15T13:27:58Z</time>
      </trkpt>
      <trkpt lat="45.87166" lon="6.46718">
        <ele>1481.9</ele>
        <time>2022-06-15T13:27:59Z</time>
      </trkpt>
      <trkpt lat="45.87166" lon="6.46714">
        <ele>1482.1</ele>
        <time>2022-06-15T13:28:00Z</time>
      </trkpt>
      <trkpt lat="45.87166" lon="6.4671">
        <ele>1482.3</ele>
        <time>2022-06-15T13:28:01Z</time>
      </trkpt>
      <trkpt lat="45.87166" lon="6.46706">
        <ele>1482.5</ele>
        <time>2022-06-15T13:28:02Z</time>
      </trkpt>
      <trkpt lat="45.87167" lon="6.46702">
        <ele>1482.7</ele>
        <time>2022-06-15T13:28:03Z</time>
      </trkpt>
      <trkpt lat="45.87167" lon="6.46698">
        <ele>1483</ele>
        <time>2022-06-15T13:28:04Z</time>
      </trkpt>
      <trkpt lat="45.87168" lon="6.46694">
        <ele>1483.2</ele>
        <time>2022-06-15T13:28:05Z</time>
      </trkpt>
      <trkpt lat="45.87169" lon="6.4669">
        <ele>1483.4</ele>
        <time>2022-06-15T13:28:06Z</time>
      </trkpt>
      <trkpt lat="45.8717" lon="6.46686">
        <ele>1483.5</ele>
        <time>2022-06-15T13:28:07Z</time>
      </trkpt>
      <trkpt lat="45.87171" lon="6.46682">
        <ele>1483.6</ele>
        <time>2022-06-15T13:28:08Z</time>
      </trkpt>
      <trkpt lat="45.87172" lon="6.46678">
        <ele>1483.8</ele>
        <time>2022-06-15T13:28:09Z</time>
      </trkpt>
      <trkpt lat="45.87173" lon="6.46674">
        <ele>1483.9</ele>
        <time>2022-06-15T13:28:10Z</time>
      </trkpt>
      <trkpt lat="45.87174" lon="6.46671">
        <ele>1484.1</ele>
        <time>2022-06-15T13:28:11Z</time>
      </trkpt>
      <trkpt lat="45.87175" lon="6.46667">
        <ele>1484.2</ele>
        <time>2022-06-15T13:28:12Z</time>
      </trkpt>
      <trkpt lat="45.87176" lon="6.46663">
        <ele>1484.3</ele>
        <time>2022-06-15T13:28:13Z</time>
      </trkpt>
      <trkpt lat="45.87177" lon="6.4666">
        <ele>1484.4</ele>
        <time>2022-06-15T13:28:14Z</time>
      </trkpt>
      <trkpt lat="45.87178" lon="6.46656">
        <ele>1484.5</ele>
        <time>2022-06-15T13:28:15Z</time>
      </trkpt>
      <trkpt lat="45.87179" lon="6.46652">
        <ele>1484.6</ele>
        <time>2022-06-15T13:28:16Z</time>
      </trkpt>
      <trkpt lat="45.87181" lon="6.46648">
        <ele>1484.7</ele>
        <time>2022-06-15T13:28:17Z</time>
      </trkpt>
      <trkpt lat="45.87182" lon="6.46644">
        <ele>1484.7</ele>
        <time>2022-06-15T13:28:18Z</time>
      </trkpt>
      <trkpt lat="45.87183" lon="6.46641">
        <ele>1484.8</ele>
        <time>2022-06-15T13:28:19Z</time>
      </trkpt>
      <trkpt lat="45.87185" lon="6.46637">
        <ele>1484.9</ele>
        <time>2022-06-15T13:28:20Z</time>
      </trkpt>
      <trkpt lat="45.87186" lon="6.46633">
        <ele>1484.9</ele>
        <time>2022-06-15T13:28:21Z</time>
      </trkpt>
      <trkpt lat="45.87188" lon="6.46628">
        <ele>1485</ele>
        <time>2022-06-15T13:28:22Z</time>
      </trkpt>
      <trkpt lat="45.87189" lon="6.46624">
        <ele>1485</ele>
        <time>2022-06-15T13:28:23Z</time>
      </trkpt>
      <trkpt lat="45.8719" lon="6.4662">
        <ele>1484.9</ele>
        <time>2022-06-15T13:28:24Z</time>
      </trkpt>
      <trkpt lat="45.87191" lon="6.46616">
        <ele>1484.9</ele>
        <time>2022-06-15T13:28:25Z</time>
      </trkpt>
      <trkpt lat="45.87192" lon="6.46613">
        <ele>1484.9</ele>
        <time>2022-06-15T13:28:26Z</time>
      </trkpt>
      <trkpt lat="45.87193" lon="6.4661">
        <ele>1485</ele>
        <time>2022-06-15T13:28:27Z</time>
      </trkpt>
      <trkpt lat="45.87194" lon="6.46606">
        <ele>1485.2</ele>
        <time>2022-06-15T13:28:28Z</time>
      </trkpt>
      <trkpt lat="45.87195" lon="6.46602">
        <ele>1485.3</ele>
        <time>2022-06-15T13:28:29Z</time>
      </trkpt>
      <trkpt lat="45.87196" lon="6.46599">
        <ele>1485.6</ele>
        <time>2022-06-15T13:28:30Z</time>
      </trkpt>
      <trkpt lat="45.87196" lon="6.46596">
        <ele>1485.7</ele>
        <time>2022-06-15T13:28:31Z</time>
      </trkpt>
      <trkpt lat="45.87197" lon="6.46593">
        <ele>1485.9</ele>
        <time>2022-06-15T13:28:32Z</time>
      </trkpt>
      <trkpt lat="45.87198" lon="6.46591">
        <ele>1486</ele>
        <time>2022-06-15T13:28:33Z</time>
      </trkpt>
      <trkpt lat="45.87198" lon="6.4659">
        <ele>1486.1</ele>
        <time>2022-06-15T13:28:34Z</time>
      </trkpt>
      <trkpt lat="45.87198" lon="6.46589">
        <ele>1486.1</ele>
        <time>2022-06-15T13:28:35Z</time>
      </trkpt>
      <trkpt lat="45.87199" lon="6.46588">
        <ele>1486.2</ele>
        <time>2022-06-15T13:28:36Z</time>
      </trkpt>
      <trkpt lat="45.87199" lon="6.46588">
        <ele>1486.2</ele>
        <time>2022-06-15T13:28:37Z</time>
      </trkpt>
      <trkpt lat="45.87199" lon="6.46588">
        <ele>1486.2</ele>
        <time>2022-06-15T13:28:38Z</time>
      </trkpt>
      <trkpt lat="45.872" lon="6.46575">
        <ele>1486.4</ele>
        <time>2022-06-15T13:30:40Z</time>
      </trkpt>
      <trkpt lat="45.872" lon="6.46573">
        <ele>1486.4</ele>
        <time>2022-06-15T13:30:41Z</time>
      </trkpt>
      <trkpt lat="45.87201" lon="6.4657">
        <ele>1486.5</ele>
        <time>2022-06-15T13:30:42Z</time>
      </trkpt>
      <trkpt lat="45.87202" lon="6.46567">
        <ele>1486.6</ele>
        <time>2022-06-15T13:30:43Z</time>
      </trkpt>
      <trkpt lat="45.87204" lon="6.46565">
        <ele>1486.7</ele>
        <time>2022-06-15T13:30:44Z</time>
      </trkpt>
      <trkpt lat="45.87204" lon="6.46562">
        <ele>1486.7</ele>
        <time>2022-06-15T13:30:45Z</time>
      </trkpt>
      <trkpt lat="45.87205" lon="6.46559">
        <ele>1486.8</ele>
        <time>2022-06-15T13:30:46Z</time>
      </trkpt>
      <trkpt lat="45.87206" lon="6.46556">
        <ele>1486.8</ele>
        <time>2022-06-15T13:30:47Z</time>
      </trkpt>
      <trkpt lat="45.87207" lon="6.46554">
        <ele>1486.9</ele>
        <time>2022-06-15T13:30:48Z</time>
      </trkpt>
      <trkpt lat="45.87208" lon="6.46554">
        <ele>1486.9</ele>
        <time>2022-06-15T13:30:49Z</time>
      </trkpt>
      <trkpt lat="45.8721" lon="6.46556">
        <ele>1487.1</ele>
        <time>2022-06-15T13:30:50Z</time>
      </trkpt>
      <trkpt lat="45.87211" lon="6.46556">
        <ele>1487.2</ele>
        <time>2022-06-15T13:30:51Z</time>
      </trkpt>
      <trkpt lat="45.87213" lon="6.46555">
        <ele>1487.3</ele>
        <time>2022-06-15T13:30:52Z</time>
      </trkpt>
      <trkpt lat="45.87215" lon="6.46552">
        <ele>1487.4</ele>
        <time>2022-06-15T13:30:53Z</time>
      </trkpt>
      <trkpt lat="45.87217" lon="6.46549">
        <ele>1487.4</ele>
        <time>2022-06-15T13:30:54Z</time>
      </trkpt>
      <trkpt lat="45.87219" lon="6.46545">
        <ele>1487.4</ele>
        <time>2022-06-15T13:30:55Z</time>
      </trkpt>
      <trkpt lat="45.87221" lon="6.46543">
        <ele>1487.4</ele>
        <time>2022-06-15T13:30:56Z</time>
      </trkpt>
      <trkpt lat="45.87222" lon="6.4654">
        <ele>1487.4</ele>
        <time>2022-06-15T13:30:57Z</time>
      </trkpt>
      <trkpt lat="45.87224" lon="6.46537">
        <ele>1487.4</ele>
        <time>2022-06-15T13:30:58Z</time>
      </trkpt>
      <trkpt lat="45.87225" lon="6.46535">
        <ele>1487.4</ele>
        <time>2022-06-15T13:30:59Z</time>
      </trkpt>
      <trkpt lat="45.87226" lon="6.46532">
        <ele>1487.3</ele>
        <time>2022-06-15T13:31:00Z</time>
      </trkpt>
      <trkpt lat="45.87227" lon="6.4653">
        <ele>1487.3</ele>
        <time>2022-06-15T13:31:01Z</time>
      </trkpt>
      <trkpt lat="45.87229" lon="6.46528">
        <ele>1487.2</ele>
        <time>2022-06-15T13:31:02Z</time>
      </trkpt>
      <trkpt lat="45.87229" lon="6.46525">
        <ele>1487.2</ele>
        <time>2022-06-15T13:31:03Z</time>
      </trkpt>
      <trkpt lat="45.8723" lon="6.46523">
        <ele>1487.1</ele>
        <time>2022-06-15T13:31:04Z</time>
      </trkpt>
      <trkpt lat="45.8723" lon="6.4652">
        <ele>1487.1</ele>
        <time>2022-06-15T13:31:05Z</time>
      </trkpt>
      <trkpt lat="45.87231" lon="6.46516">
        <ele>1487</ele>
        <time>2022-06-15T13:31:06Z</time>
      </trkpt>
      <trkpt lat="45.87231" lon="6.46513">
        <ele>1487</ele>
        <time>2022-06-15T13:31:07Z</time>
      </trkpt>
      <trkpt lat="45.87231" lon="6.46511">
        <ele>1486.9</ele>
        <time>2022-06-15T13:31:08Z</time>
      </trkpt>
      <trkpt lat="45.87231" lon="6.46508">
        <ele>1486.8</ele>
        <time>2022-06-15T13:31:09Z</time>
      </trkpt>
      <trkpt lat="45.87231" lon="6.46506">
        <ele>1486.8</ele>
        <time>2022-06-15T13:31:10Z</time>
      </trkpt>
      <trkpt lat="45.87231" lon="6.46503">
        <ele>1486.7</ele>
        <time>2022-06-15T13:31:11Z</time>
      </trkpt>
      <trkpt lat="45.87231" lon="6.46501">
        <ele>1486.6</ele>
        <time>2022-06-15T13:31:12Z</time>
      </trkpt>
      <trkpt lat="45.87231" lon="6.46498">
        <ele>1486.6</ele>
        <time>2022-06-15T13:31:13Z</time>
      </trkpt>
      <trkpt lat="45.87231" lon="6.46495">
        <ele>1486.5</ele>
        <time>2022-06-15T13:31:14Z</time>
      </trkpt>
      <trkpt lat="45.87232" lon="6.46493">
        <ele>1486.5</ele>
        <time>2022-06-15T13:31:15Z</time>
      </trkpt>
      <trkpt lat="45.87233" lon="6.4649">
        <ele>1486.5</ele>
        <time>2022-06-15T13:31:16Z</time>
      </trkpt>
      <trkpt lat="45.87234" lon="6.46489">
        <ele>1486.5</ele>
        <time>2022-06-15T13:31:17Z</time>
      </trkpt>
      <trkpt lat="45.87235" lon="6.46488">
        <ele>1486.5</ele>
        <time>2022-06-15T13:31:18Z</time>
      </trkpt>
      <trkpt lat="45.87236" lon="6.46488">
        <ele>1486.5</ele>
        <time>2022-06-15T13:31:19Z</time>
      </trkpt>
      <trkpt lat="45.87237" lon="6.46487">
        <ele>1486.6</ele>
        <time>2022-06-15T13:31:20Z</time>
      </trkpt>
      <trkpt lat="45.87238" lon="6.46486">
        <ele>1486.6</ele>
        <time>2022-06-15T13:31:21Z</time>
      </trkpt>
      <trkpt lat="45.87238" lon="6.46486">
        <ele>1486.6</ele>
        <time>2022-06-15T13:31:22Z</time>
      </trkpt>
      <trkpt lat="45.87238" lon="6.46486">
        <ele>1486.6</ele>
        <time>2022-06-15T13:31:23Z</time>
      </trkpt>
      <trkpt lat="45.87238" lon="6.46486">
        <ele>1486.6</ele>
        <time>2022-06-15T13:31:24Z</time>
      </trkpt>
      <trkpt lat="45.87241" lon="6.46475">
        <ele>1486.1</ele>
        <time>2022-06-15T13:35:17Z</time>
      </trkpt>
      <trkpt lat="45.87242" lon="6.46472">
        <ele>1486</ele>
        <time>2022-06-15T13:35:18Z</time>
      </trkpt>
      <trkpt lat="45.87244" lon="6.46468">
        <ele>1486</ele>
        <time>2022-06-15T13:35:19Z</time>
      </trkpt>
      <trkpt lat="45.87246" lon="6.46464">
        <ele>1486</ele>
        <time>2022-06-15T13:35:20Z</time>
      </trkpt>
      <trkpt lat="45.87248" lon="6.4646">
        <ele>1486</ele>
        <time>2022-06-15T13:35:21Z</time>
      </trkpt>
      <trkpt lat="45.8725" lon="6.46455">
        <ele>1486</ele>
        <time>2022-06-15T13:35:22Z</time>
      </trkpt>
      <trkpt lat="45.87252" lon="6.4645">
        <ele>1486</ele>
        <time>2022-06-15T13:35:23Z</time>
      </trkpt>
      <trkpt lat="45.87254" lon="6.46446">
        <ele>1486</ele>
        <time>2022-06-15T13:35:24Z</time>
      </trkpt>
      <trkpt lat="45.87256" lon="6.4644">
        <ele>1485.9</ele>
        <time>2022-06-15T13:35:25Z</time>
      </trkpt>
      <trkpt lat="45.87258" lon="6.46435">
        <ele>1485.8</ele>
        <time>2022-06-15T13:35:26Z</time>
      </trkpt>
      <trkpt lat="45.8726" lon="6.4643">
        <ele>1485.7</ele>
        <time>2022-06-15T13:35:27Z</time>
      </trkpt>
      <trkpt lat="45.87263" lon="6.46425">
        <ele>1485.6</ele>
        <time>2022-06-15T13:35:28Z</time>
      </trkpt>
      <trkpt lat="45.87265" lon="6.4642">
        <ele>1485.6</ele>
        <time>2022-06-15T13:35:29Z</time>
      </trkpt>
      <trkpt lat="45.87268" lon="6.46414">
        <ele>1485.6</ele>
        <time>2022-06-15T13:35:30Z</time>
      </trkpt>
      <trkpt lat="45.87271" lon="6.46408">
        <ele>1485.4</ele>
        <time>2022-06-15T13:35:31Z</time>
      </trkpt>
      <trkpt lat="45.87273" lon="6.46402">
        <ele>1485.3</ele>
        <time>2022-06-15T13:35:32Z</time>
      </trkpt>
      <trkpt lat="45.87276" lon="6.46395">
        <ele>1485.2</ele>
        <time>2022-06-15T13:35:33Z</time>
      </trkpt>
      <trkpt lat="45.87279" lon="6.46389">
        <ele>1485.1</ele>
        <time>2022-06-15T13:35:34Z</time>
      </trkpt>
      <trkpt lat="45.87281" lon="6.46383">
        <ele>1485.1</ele>
        <time>2022-06-15T13:35:35Z</time>
      </trkpt>
      <trkpt lat="45.87284" lon="6.46376">
        <ele>1485.1</ele>
        <time>2022-06-15T13:35:36Z</time>
      </trkpt>
      <trkpt lat="45.87287" lon="6.46369">
        <ele>1485.1</ele>
        <time>2022-06-15T13:35:37Z</time>
      </trkpt>
      <trkpt lat="45.8729" lon="6.46362">
        <ele>1484.9</ele>
        <time>2022-06-15T13:35:38Z</time>
      </trkpt>
      <trkpt lat="45.87294" lon="6.46355">
        <ele>1484.9</ele>
        <time>2022-06-15T13:35:39Z</time>
      </trkpt>
      <trkpt lat="45.87297" lon="6.46348">
        <ele>1484.7</ele>
        <time>2022-06-15T13:35:40Z</time>
      </trkpt>
      <trkpt lat="45.873" lon="6.4634">
        <ele>1484.4</ele>
        <time>2022-06-15T13:35:41Z</time>
      </trkpt>
      <trkpt lat="45.87303" lon="6.46333">
        <ele>1484</ele>
        <time>2022-06-15T13:35:42Z</time>
      </trkpt>
      <trkpt lat="45.87307" lon="6.46326">
        <ele>1483.9</ele>
        <time>2022-06-15T13:35:43Z</time>
      </trkpt>
      <trkpt lat="45.8731" lon="6.46319">
        <ele>1484</ele>
        <time>2022-06-15T13:35:44Z</time>
      </trkpt>
      <trkpt lat="45.87313" lon="6.46311">
        <ele>1484.1</ele>
        <time>2022-06-15T13:35:45Z</time>
      </trkpt>
      <trkpt lat="45.87316" lon="6.46304">
        <ele>1484</ele>
        <time>2022-06-15T13:35:46Z</time>
      </trkpt>
      <trkpt lat="45.8732" lon="6.46297">
        <ele>1483.9</ele>
        <time>2022-06-15T13:35:47Z</time>
      </trkpt>
      <trkpt lat="45.87323" lon="6.46289">
        <ele>1483.7</ele>
        <time>2022-06-15T13:35:48Z</time>
      </trkpt>
      <trkpt lat="45.87327" lon="6.46282">
        <ele>1483.6</ele>
        <time>2022-06-15T13:35:49Z</time>
      </trkpt>
      <trkpt lat="45.8733" lon="6.46274">
        <ele>1483.4</ele>
        <time>2022-06-15T13:35:50Z</time>
      </trkpt>
      <trkpt lat="45.87334" lon="6.46267">
        <ele>1483.2</ele>
        <time>2022-06-15T13:35:51Z</time>
      </trkpt>
      <trkpt lat="45.87337" lon="6.46259">
        <ele>1483.1</ele>
        <time>2022-06-15T13:35:52Z</time>
      </trkpt>
      <trkpt lat="45.87341" lon="6.4625">
        <ele>1482.8</ele>
        <time>2022-06-15T13:35:53Z</time>
      </trkpt>
      <trkpt lat="45.87345" lon="6.46242">
        <ele>1482.6</ele>
        <time>2022-06-15T13:35:54Z</time>
      </trkpt>
      <trkpt lat="45.8735" lon="6.46234">
        <ele>1482.2</ele>
        <time>2022-06-15T13:35:55Z</time>
      </trkpt>
      <trkpt lat="45.87354" lon="6.46225">
        <ele>1481.7</ele>
        <time>2022-06-15T13:35:56Z</time>
      </trkpt>
      <trkpt lat="45.87358" lon="6.46216">
        <ele>1481.1</ele>
        <time>2022-06-15T13:35:57Z</time>
      </trkpt>
      <trkpt lat="45.87362" lon="6.46206">
        <ele>1480.4</ele>
        <time>2022-06-15T13:35:58Z</time>
      </trkpt>
      <trkpt lat="45.87367" lon="6.46197">
        <ele>1479.7</ele>
        <time>2022-06-15T13:35:59Z</time>
      </trkpt>
      <trkpt lat="45.87371" lon="6.46188">
        <ele>1479.2</ele>
        <time>2022-06-15T13:36:00Z</time>
      </trkpt>
      <trkpt lat="45.87376" lon="6.46178">
        <ele>1478.9</ele>
        <time>2022-06-15T13:36:01Z</time>
      </trkpt>
      <trkpt lat="45.87381" lon="6.46168">
        <ele>1478.5</ele>
        <time>2022-06-15T13:36:02Z</time>
      </trkpt>
      <trkpt lat="45.87386" lon="6.46158">
        <ele>1478.4</ele>
        <time>2022-06-15T13:36:03Z</time>
      </trkpt>
      <trkpt lat="45.8739" lon="6.46148">
        <ele>1478.6</ele>
        <time>2022-06-15T13:36:04Z</time>
      </trkpt>
      <trkpt lat="45.87394" lon="6.46138">
        <ele>1479.2</ele>
        <time>2022-06-15T13:36:05Z</time>
      </trkpt>
      <trkpt lat="45.87397" lon="6.46127">
        <ele>1478.9</ele>
        <time>2022-06-15T13:36:06Z</time>
      </trkpt>
      <trkpt lat="45.874" lon="6.46116">
        <ele>1478.6</ele>
        <time>2022-06-15T13:36:07Z</time>
      </trkpt>
      <trkpt lat="45.87402" lon="6.46105">
        <ele>1478.3</ele>
        <time>2022-06-15T13:36:08Z</time>
      </trkpt>
      <trkpt lat="45.87405" lon="6.46094">
        <ele>1477.8</ele>
        <time>2022-06-15T13:36:09Z</time>
      </trkpt>
      <trkpt lat="45.87407" lon="6.46083">
        <ele>1477</ele>
        <time>2022-06-15T13:36:10Z</time>
      </trkpt>
      <trkpt lat="45.87409" lon="6.46072">
        <ele>1477.2</ele>
        <time>2022-06-15T13:36:11Z</time>
      </trkpt>
      <trkpt lat="45.8741" lon="6.4606">
        <ele>1477.3</ele>
        <time>2022-06-15T13:36:12Z</time>
      </trkpt>
      <trkpt lat="45.87411" lon="6.46049">
        <ele>1477</ele>
        <time>2022-06-15T13:36:13Z</time>
      </trkpt>
      <trkpt lat="45.87412" lon="6.46037">
        <ele>1476.2</ele>
        <time>2022-06-15T13:36:14Z</time>
      </trkpt>
      <trkpt lat="45.87412" lon="6.46025">
        <ele>1475.7</ele>
        <time>2022-06-15T13:36:15Z</time>
      </trkpt>
      <trkpt lat="45.87412" lon="6.46014">
        <ele>1475.7</ele>
        <time>2022-06-15T13:36:16Z</time>
      </trkpt>
      <trkpt lat="45.87413" lon="6.46002">
        <ele>1475.7</ele>
        <time>2022-06-15T13:36:17Z</time>
      </trkpt>
      <trkpt lat="45.87413" lon="6.45991">
        <ele>1475.4</ele>
        <time>2022-06-15T13:36:18Z</time>
      </trkpt>
      <trkpt lat="45.87413" lon="6.45979">
        <ele>1475.1</ele>
        <time>2022-06-15T13:36:19Z</time>
      </trkpt>
      <trkpt lat="45.87413" lon="6.45967">
        <ele>1474.8</ele>
        <time>2022-06-15T13:36:20Z</time>
      </trkpt>
      <trkpt lat="45.87413" lon="6.45956">
        <ele>1474.8</ele>
        <time>2022-06-15T13:36:21Z</time>
      </trkpt>
      <trkpt lat="45.87414" lon="6.45944">
        <ele>1474.7</ele>
        <time>2022-06-15T13:36:22Z</time>
      </trkpt>
      <trkpt lat="45.87414" lon="6.45931">
        <ele>1474.4</ele>
        <time>2022-06-15T13:36:23Z</time>
      </trkpt>
      <trkpt lat="45.87414" lon="6.45919">
        <ele>1474</ele>
        <time>2022-06-15T13:36:24Z</time>
      </trkpt>
      <trkpt lat="45.87414" lon="6.45906">
        <ele>1473.5</ele>
        <time>2022-06-15T13:36:25Z</time>
      </trkpt>
      <trkpt lat="45.87415" lon="6.45894">
        <ele>1473.1</ele>
        <time>2022-06-15T13:36:26Z</time>
      </trkpt>
      <trkpt lat="45.87415" lon="6.45881">
        <ele>1472.7</ele>
        <time>2022-06-15T13:36:27Z</time>
      </trkpt>
      <trkpt lat="45.87415" lon="6.45868">
        <ele>1472.2</ele>
        <time>2022-06-15T13:36:28Z</time>
      </trkpt>
      <trkpt lat="45.87416" lon="6.45856">
        <ele>1471.8</ele>
        <time>2022-06-15T13:36:29Z</time>
      </trkpt>
      <trkpt lat="45.87416" lon="6.45843">
        <ele>1471.3</ele>
        <time>2022-06-15T13:36:30Z</time>
      </trkpt>
      <trkpt lat="45.87417" lon="6.45829">
        <ele>1470.7</ele>
        <time>2022-06-15T13:36:31Z</time>
      </trkpt>
      <trkpt lat="45.87418" lon="6.45815">
        <ele>1469.8</ele>
        <time>2022-06-15T13:36:32Z</time>
      </trkpt>
      <trkpt lat="45.87418" lon="6.45801">
        <ele>1469</ele>
        <time>2022-06-15T13:36:33Z</time>
      </trkpt>
      <trkpt lat="45.87419" lon="6.45786">
        <ele>1468.5</ele>
        <time>2022-06-15T13:36:34Z</time>
      </trkpt>
      <trkpt lat="45.87421" lon="6.45771">
        <ele>1467.9</ele>
        <time>2022-06-15T13:36:35Z</time>
      </trkpt>
      <trkpt lat="45.87423" lon="6.45756">
        <ele>1467.1</ele>
        <time>2022-06-15T13:36:36Z</time>
      </trkpt>
      <trkpt lat="45.87426" lon="6.45741">
        <ele>1466.3</ele>
        <time>2022-06-15T13:36:37Z</time>
      </trkpt>
      <trkpt lat="45.87431" lon="6.45726">
        <ele>1465.8</ele>
        <time>2022-06-15T13:36:38Z</time>
      </trkpt>
      <trkpt lat="45.87436" lon="6.45711">
        <ele>1464.7</ele>
        <time>2022-06-15T13:36:39Z</time>
      </trkpt>
      <trkpt lat="45.87441" lon="6.45697">
        <ele>1463.7</ele>
        <time>2022-06-15T13:36:40Z</time>
      </trkpt>
      <trkpt lat="45.87448" lon="6.45683">
        <ele>1463.1</ele>
        <time>2022-06-15T13:36:41Z</time>
      </trkpt>
      <trkpt lat="45.87455" lon="6.4567">
        <ele>1462.1</ele>
        <time>2022-06-15T13:36:42Z</time>
      </trkpt>
      <trkpt lat="45.87463" lon="6.45657">
        <ele>1461</ele>
        <time>2022-06-15T13:36:43Z</time>
      </trkpt>
      <trkpt lat="45.87472" lon="6.45645">
        <ele>1459.8</ele>
        <time>2022-06-15T13:36:44Z</time>
      </trkpt>
      <trkpt lat="45.8748" lon="6.45633">
        <ele>1459.1</ele>
        <time>2022-06-15T13:36:45Z</time>
      </trkpt>
      <trkpt lat="45.87489" lon="6.45621">
        <ele>1458.5</ele>
        <time>2022-06-15T13:36:46Z</time>
      </trkpt>
      <trkpt lat="45.87498" lon="6.4561">
        <ele>1457.6</ele>
        <time>2022-06-15T13:36:47Z</time>
      </trkpt>
      <trkpt lat="45.87507" lon="6.45599">
        <ele>1457.1</ele>
        <time>2022-06-15T13:36:48Z</time>
      </trkpt>
      <trkpt lat="45.87516" lon="6.45589">
        <ele>1456.6</ele>
        <time>2022-06-15T13:36:49Z</time>
      </trkpt>
      <trkpt lat="45.87526" lon="6.45579">
        <ele>1456.1</ele>
        <time>2022-06-15T13:36:50Z</time>
      </trkpt>
      <trkpt lat="45.87535" lon="6.45569">
        <ele>1455.5</ele>
        <time>2022-06-15T13:36:51Z</time>
      </trkpt>
      <trkpt lat="45.87546" lon="6.45561">
        <ele>1455</ele>
        <time>2022-06-15T13:36:52Z</time>
      </trkpt>
      <trkpt lat="45.87556" lon="6.45553">
        <ele>1454.6</ele>
        <time>2022-06-15T13:36:53Z</time>
      </trkpt>
      <trkpt lat="45.87566" lon="6.45547">
        <ele>1453.7</ele>
        <time>2022-06-15T13:36:54Z</time>
      </trkpt>
      <trkpt lat="45.87575" lon="6.45541">
        <ele>1452.9</ele>
        <time>2022-06-15T13:36:55Z</time>
      </trkpt>
      <trkpt lat="45.87584" lon="6.45536">
        <ele>1452.2</ele>
        <time>2022-06-15T13:36:56Z</time>
      </trkpt>
      <trkpt lat="45.87591" lon="6.45531">
        <ele>1451.3</ele>
        <time>2022-06-15T13:36:57Z</time>
      </trkpt>
      <trkpt lat="45.87598" lon="6.45527">
        <ele>1450.4</ele>
        <time>2022-06-15T13:36:58Z</time>
      </trkpt>
      <trkpt lat="45.87605" lon="6.45523">
        <ele>1449.8</ele>
        <time>2022-06-15T13:36:59Z</time>
      </trkpt>
      <trkpt lat="45.8761" lon="6.45517">
        <ele>1449.3</ele>
        <time>2022-06-15T13:37:00Z</time>
      </trkpt>
      <trkpt lat="45.87614" lon="6.45511">
        <ele>1448.8</ele>
        <time>2022-06-15T13:37:01Z</time>
      </trkpt>
      <trkpt lat="45.87617" lon="6.45503">
        <ele>1448.1</ele>
        <time>2022-06-15T13:37:02Z</time>
      </trkpt>
      <trkpt lat="45.87617" lon="6.45494">
        <ele>1446.8</ele>
        <time>2022-06-15T13:37:03Z</time>
      </trkpt>
      <trkpt lat="45.87614" lon="6.45485">
        <ele>1445.6</ele>
        <time>2022-06-15T13:37:04Z</time>
      </trkpt>
      <trkpt lat="45.87609" lon="6.45477">
        <ele>1444.6</ele>
        <time>2022-06-15T13:37:05Z</time>
      </trkpt>
      <trkpt lat="45.87601" lon="6.45473">
        <ele>1443.7</ele>
        <time>2022-06-15T13:37:06Z</time>
      </trkpt>
      <trkpt lat="45.87592" lon="6.45473">
        <ele>1443.4</ele>
        <time>2022-06-15T13:37:07Z</time>
      </trkpt>
      <trkpt lat="45.87583" lon="6.45475">
        <ele>1443.3</ele>
        <time>2022-06-15T13:37:08Z</time>
      </trkpt>
      <trkpt lat="45.87573" lon="6.45478">
        <ele>1442.1</ele>
        <time>2022-06-15T13:37:09Z</time>
      </trkpt>
      <trkpt lat="45.87564" lon="6.45481">
        <ele>1441.1</ele>
        <time>2022-06-15T13:37:10Z</time>
      </trkpt>
      <trkpt lat="45.87553" lon="6.45485">
        <ele>1440.4</ele>
        <time>2022-06-15T13:37:11Z</time>
      </trkpt>
      <trkpt lat="45.87543" lon="6.45489">
        <ele>1439.9</ele>
        <time>2022-06-15T13:37:12Z</time>
      </trkpt>
      <trkpt lat="45.87532" lon="6.45492">
        <ele>1439.5</ele>
        <time>2022-06-15T13:37:13Z</time>
      </trkpt>
      <trkpt lat="45.87521" lon="6.45496">
        <ele>1439.1</ele>
        <time>2022-06-15T13:37:14Z</time>
      </trkpt>
      <trkpt lat="45.8751" lon="6.45499">
        <ele>1438.8</ele>
        <time>2022-06-15T13:37:15Z</time>
      </trkpt>
      <trkpt lat="45.87499" lon="6.45503">
        <ele>1438.4</ele>
        <time>2022-06-15T13:37:16Z</time>
      </trkpt>
      <trkpt lat="45.87488" lon="6.45506">
        <ele>1437.8</ele>
        <time>2022-06-15T13:37:17Z</time>
      </trkpt>
      <trkpt lat="45.87476" lon="6.4551">
        <ele>1437.2</ele>
        <time>2022-06-15T13:37:18Z</time>
      </trkpt>
      <trkpt lat="45.87465" lon="6.45514">
        <ele>1436.7</ele>
        <time>2022-06-15T13:37:19Z</time>
      </trkpt>
      <trkpt lat="45.87453" lon="6.45518">
        <ele>1436.6</ele>
        <time>2022-06-15T13:37:20Z</time>
      </trkpt>
      <trkpt lat="45.87442" lon="6.45523">
        <ele>1436.7</ele>
        <time>2022-06-15T13:37:21Z</time>
      </trkpt>
      <trkpt lat="45.8743" lon="6.45527">
        <ele>1436.8</ele>
        <time>2022-06-15T13:37:22Z</time>
      </trkpt>
      <trkpt lat="45.87419" lon="6.45531">
        <ele>1436.9</ele>
        <time>2022-06-15T13:37:23Z</time>
      </trkpt>
      <trkpt lat="45.87408" lon="6.45535">
        <ele>1436.8</ele>
        <time>2022-06-15T13:37:24Z</time>
      </trkpt>
      <trkpt lat="45.87397" lon="6.45538">
        <ele>1436.5</ele>
        <time>2022-06-15T13:37:25Z</time>
      </trkpt>
      <trkpt lat="45.87387" lon="6.45538">
        <ele>1435.9</ele>
        <time>2022-06-15T13:37:26Z</time>
      </trkpt>
      <trkpt lat="45.87378" lon="6.45534">
        <ele>1435.4</ele>
        <time>2022-06-15T13:37:27Z</time>
      </trkpt>
      <trkpt lat="45.87372" lon="6.45524">
        <ele>1434.3</ele>
        <time>2022-06-15T13:37:28Z</time>
      </trkpt>
      <trkpt lat="45.8737" lon="6.45512">
        <ele>1433.6</ele>
        <time>2022-06-15T13:37:29Z</time>
      </trkpt>
      <trkpt lat="45.87373" lon="6.45499">
        <ele>1432.5</ele>
        <time>2022-06-15T13:37:30Z</time>
      </trkpt>
      <trkpt lat="45.8738" lon="6.45489">
        <ele>1431.5</ele>
        <time>2022-06-15T13:37:31Z</time>
      </trkpt>
      <trkpt lat="45.87389" lon="6.45482">
        <ele>1430.7</ele>
        <time>2022-06-15T13:37:32Z</time>
      </trkpt>
      <trkpt lat="45.87398" lon="6.45476">
        <ele>1429.7</ele>
        <time>2022-06-15T13:37:33Z</time>
      </trkpt>
      <trkpt lat="45.87409" lon="6.45472">
        <ele>1428.6</ele>
        <time>2022-06-15T13:37:34Z</time>
      </trkpt>
      <trkpt lat="45.87419" lon="6.45468">
        <ele>1427.8</ele>
        <time>2022-06-15T13:37:35Z</time>
      </trkpt>
      <trkpt lat="45.8743" lon="6.45463">
        <ele>1427.3</ele>
        <time>2022-06-15T13:37:36Z</time>
      </trkpt>
      <trkpt lat="45.8744" lon="6.45458">
        <ele>1426.6</ele>
        <time>2022-06-15T13:37:37Z</time>
      </trkpt>
      <trkpt lat="45.87451" lon="6.45453">
        <ele>1425.8</ele>
        <time>2022-06-15T13:37:38Z</time>
      </trkpt>
      <trkpt lat="45.87462" lon="6.45448">
        <ele>1424.9</ele>
        <time>2022-06-15T13:37:39Z</time>
      </trkpt>
      <trkpt lat="45.87472" lon="6.45443">
        <ele>1423.7</ele>
        <time>2022-06-15T13:37:40Z</time>
      </trkpt>
      <trkpt lat="45.87483" lon="6.45438">
        <ele>1422.9</ele>
        <time>2022-06-15T13:37:41Z</time>
      </trkpt>
      <trkpt lat="45.87494" lon="6.45433">
        <ele>1422.3</ele>
        <time>2022-06-15T13:37:42Z</time>
      </trkpt>
      <trkpt lat="45.87505" lon="6.45429">
        <ele>1422</ele>
        <time>2022-06-15T13:37:43Z</time>
      </trkpt>
      <trkpt lat="45.87516" lon="6.45423">
        <ele>1421.3</ele>
        <time>2022-06-15T13:37:44Z</time>
      </trkpt>
      <trkpt lat="45.87527" lon="6.45418">
        <ele>1420.2</ele>
        <time>2022-06-15T13:37:45Z</time>
      </trkpt>
      <trkpt lat="45.87537" lon="6.45411">
        <ele>1420.2</ele>
        <time>2022-06-15T13:37:46Z</time>
      </trkpt>
      <trkpt lat="45.87548" lon="6.45404">
        <ele>1419.8</ele>
        <time>2022-06-15T13:37:47Z</time>
      </trkpt>
      <trkpt lat="45.87558" lon="6.45395">
        <ele>1418.9</ele>
        <time>2022-06-15T13:37:48Z</time>
      </trkpt>
      <trkpt lat="45.87567" lon="6.45386">
        <ele>1418</ele>
        <time>2022-06-15T13:37:49Z</time>
      </trkpt>
      <trkpt lat="45.87577" lon="6.45376">
        <ele>1417.2</ele>
        <time>2022-06-15T13:37:50Z</time>
      </trkpt>
      <trkpt lat="45.87586" lon="6.45365">
        <ele>1416.2</ele>
        <time>2022-06-15T13:37:51Z</time>
      </trkpt>
      <trkpt lat="45.87596" lon="6.45355">
        <ele>1415</ele>
        <time>2022-06-15T13:37:52Z</time>
      </trkpt>
      <trkpt lat="45.87606" lon="6.45344">
        <ele>1413.8</ele>
        <time>2022-06-15T13:37:53Z</time>
      </trkpt>
      <trkpt lat="45.87616" lon="6.45334">
        <ele>1412.6</ele>
        <time>2022-06-15T13:37:54Z</time>
      </trkpt>
      <trkpt lat="45.87626" lon="6.45324">
        <ele>1411.5</ele>
        <time>2022-06-15T13:37:55Z</time>
      </trkpt>
      <trkpt lat="45.87637" lon="6.45314">
        <ele>1410.5</ele>
        <time>2022-06-15T13:37:56Z</time>
      </trkpt>
      <trkpt lat="45.87648" lon="6.45304">
        <ele>1408.7</ele>
        <time>2022-06-15T13:37:57Z</time>
      </trkpt>
      <trkpt lat="45.87659" lon="6.45296">
        <ele>1407.4</ele>
        <time>2022-06-15T13:37:58Z</time>
      </trkpt>
      <trkpt lat="45.87671" lon="6.45289">
        <ele>1407.2</ele>
        <time>2022-06-15T13:37:59Z</time>
      </trkpt>
      <trkpt lat="45.87683" lon="6.45282">
        <ele>1406.1</ele>
        <time>2022-06-15T13:38:00Z</time>
      </trkpt>
      <trkpt lat="45.87695" lon="6.45275">
        <ele>1404.4</ele>
        <time>2022-06-15T13:38:01Z</time>
      </trkpt>
      <trkpt lat="45.87707" lon="6.45268">
        <ele>1403.9</ele>
        <time>2022-06-15T13:38:02Z</time>
      </trkpt>
      <trkpt lat="45.87719" lon="6.4526">
        <ele>1403.5</ele>
        <time>2022-06-15T13:38:03Z</time>
      </trkpt>
      <trkpt lat="45.87731" lon="6.45252">
        <ele>1402.7</ele>
        <time>2022-06-15T13:38:04Z</time>
      </trkpt>
      <trkpt lat="45.87743" lon="6.45244">
        <ele>1401.3</ele>
        <time>2022-06-15T13:38:05Z</time>
      </trkpt>
      <trkpt lat="45.87755" lon="6.45237">
        <ele>1400.1</ele>
        <time>2022-06-15T13:38:06Z</time>
      </trkpt>
      <trkpt lat="45.87767" lon="6.45229">
        <ele>1399.4</ele>
        <time>2022-06-15T13:38:07Z</time>
      </trkpt>
      <trkpt lat="45.87779" lon="6.45221">
        <ele>1398.7</ele>
        <time>2022-06-15T13:38:08Z</time>
      </trkpt>
      <trkpt lat="45.87792" lon="6.45213">
        <ele>1396.9</ele>
        <time>2022-06-15T13:38:09Z</time>
      </trkpt>
      <trkpt lat="45.87804" lon="6.45206">
        <ele>1395.2</ele>
        <time>2022-06-15T13:38:10Z</time>
      </trkpt>
      <trkpt lat="45.87816" lon="6.452">
        <ele>1394.4</ele>
        <time>2022-06-15T13:38:11Z</time>
      </trkpt>
      <trkpt lat="45.87829" lon="6.45193">
        <ele>1393.4</ele>
        <time>2022-06-15T13:38:12Z</time>
      </trkpt>
      <trkpt lat="45.87841" lon="6.45185">
        <ele>1392.3</ele>
        <time>2022-06-15T13:38:13Z</time>
      </trkpt>
      <trkpt lat="45.87852" lon="6.45176">
        <ele>1391.6</ele>
        <time>2022-06-15T13:38:14Z</time>
      </trkpt>
      <trkpt lat="45.87863" lon="6.45167">
        <ele>1391.1</ele>
        <time>2022-06-15T13:38:15Z</time>
      </trkpt>
      <trkpt lat="45.87871" lon="6.45158">
        <ele>1390.1</ele>
        <time>2022-06-15T13:38:16Z</time>
      </trkpt>
      <trkpt lat="45.87879" lon="6.45149">
        <ele>1389.1</ele>
        <time>2022-06-15T13:38:17Z</time>
      </trkpt>
      <trkpt lat="45.87886" lon="6.4514">
        <ele>1388.1</ele>
        <time>2022-06-15T13:38:18Z</time>
      </trkpt>
      <trkpt lat="45.87893" lon="6.45132">
        <ele>1388.6</ele>
        <time>2022-06-15T13:38:19Z</time>
      </trkpt>
      <trkpt lat="45.87898" lon="6.45122">
        <ele>1389.2</ele>
        <time>2022-06-15T13:38:20Z</time>
      </trkpt>
      <trkpt lat="45.87902" lon="6.45111">
        <ele>1388.9</ele>
        <time>2022-06-15T13:38:21Z</time>
      </trkpt>
      <trkpt lat="45.87903" lon="6.451">
        <ele>1387.3</ele>
        <time>2022-06-15T13:38:22Z</time>
      </trkpt>
      <trkpt lat="45.879" lon="6.4509">
        <ele>1385.4</ele>
        <time>2022-06-15T13:38:23Z</time>
      </trkpt>
      <trkpt lat="45.87895" lon="6.45082">
        <ele>1383.8</ele>
        <time>2022-06-15T13:38:24Z</time>
      </trkpt>
      <trkpt lat="45.87887" lon="6.45077">
        <ele>1382.5</ele>
        <time>2022-06-15T13:38:25Z</time>
      </trkpt>
      <trkpt lat="45.87878" lon="6.45078">
        <ele>1381.5</ele>
        <time>2022-06-15T13:38:26Z</time>
      </trkpt>
      <trkpt lat="45.87869" lon="6.45081">
        <ele>1381.4</ele>
        <time>2022-06-15T13:38:27Z</time>
      </trkpt>
      <trkpt lat="45.8786" lon="6.45086">
        <ele>1381</ele>
        <time>2022-06-15T13:38:28Z</time>
      </trkpt>
      <trkpt lat="45.8785" lon="6.4509">
        <ele>1380.2</ele>
        <time>2022-06-15T13:38:29Z</time>
      </trkpt>
      <trkpt lat="45.87839" lon="6.45093">
        <ele>1379.3</ele>
        <time>2022-06-15T13:38:30Z</time>
      </trkpt>
      <trkpt lat="45.87828" lon="6.45094">
        <ele>1378.7</ele>
        <time>2022-06-15T13:38:31Z</time>
      </trkpt>
      <trkpt lat="45.87817" lon="6.45093">
        <ele>1378.3</ele>
        <time>2022-06-15T13:38:32Z</time>
      </trkpt>
      <trkpt lat="45.87806" lon="6.45091">
        <ele>1377.8</ele>
        <time>2022-06-15T13:38:33Z</time>
      </trkpt>
      <trkpt lat="45.87795" lon="6.45089">
        <ele>1377.2</ele>
        <time>2022-06-15T13:38:34Z</time>
      </trkpt>
      <trkpt lat="45.87783" lon="6.45087">
        <ele>1376.6</ele>
        <time>2022-06-15T13:38:35Z</time>
      </trkpt>
      <trkpt lat="45.87771" lon="6.45086">
        <ele>1376.1</ele>
        <time>2022-06-15T13:38:36Z</time>
      </trkpt>
      <trkpt lat="45.87759" lon="6.45088">
        <ele>1375.8</ele>
        <time>2022-06-15T13:38:37Z</time>
      </trkpt>
      <trkpt lat="45.87748" lon="6.45091">
        <ele>1375.5</ele>
        <time>2022-06-15T13:38:38Z</time>
      </trkpt>
      <trkpt lat="45.87737" lon="6.45097">
        <ele>1374.5</ele>
        <time>2022-06-15T13:38:39Z</time>
      </trkpt>
      <trkpt lat="45.87726" lon="6.45106">
        <ele>1374</ele>
        <time>2022-06-15T13:38:40Z</time>
      </trkpt>
      <trkpt lat="45.87717" lon="6.45115">
        <ele>1374.1</ele>
        <time>2022-06-15T13:38:41Z</time>
      </trkpt>
      <trkpt lat="45.87708" lon="6.4512">
        <ele>1374</ele>
        <time>2022-06-15T13:38:42Z</time>
      </trkpt>
      <trkpt lat="45.87699" lon="6.4512">
        <ele>1372.7</ele>
        <time>2022-06-15T13:38:43Z</time>
      </trkpt>
      <trkpt lat="45.87692" lon="6.45114">
        <ele>1370.8</ele>
        <time>2022-06-15T13:38:44Z</time>
      </trkpt>
      <trkpt lat="45.87688" lon="6.45103">
        <ele>1369.5</ele>
        <time>2022-06-15T13:38:45Z</time>
      </trkpt>
      <trkpt lat="45.87688" lon="6.4509">
        <ele>1367.5</ele>
        <time>2022-06-15T13:38:46Z</time>
      </trkpt>
      <trkpt lat="45.87692" lon="6.45077">
        <ele>1366.3</ele>
        <time>2022-06-15T13:38:47Z</time>
      </trkpt>
      <trkpt lat="45.87699" lon="6.45066">
        <ele>1366.1</ele>
        <time>2022-06-15T13:38:48Z</time>
      </trkpt>
      <trkpt lat="45.87706" lon="6.45056">
        <ele>1365.5</ele>
        <time>2022-06-15T13:38:49Z</time>
      </trkpt>
      <trkpt lat="45.87714" lon="6.45045">
        <ele>1364.2</ele>
        <time>2022-06-15T13:38:50Z</time>
      </trkpt>
      <trkpt lat="45.87722" lon="6.45034">
        <ele>1362.9</ele>
        <time>2022-06-15T13:38:51Z</time>
      </trkpt>
      <trkpt lat="45.87731" lon="6.45023">
        <ele>1362.8</ele>
        <time>2022-06-15T13:38:52Z</time>
      </trkpt>
      <trkpt lat="45.8774" lon="6.45011">
        <ele>1362</ele>
        <time>2022-06-15T13:38:53Z</time>
      </trkpt>
      <trkpt lat="45.87748" lon="6.44999">
        <ele>1360</ele>
        <time>2022-06-15T13:38:54Z</time>
      </trkpt>
      <trkpt lat="45.87757" lon="6.44987">
        <ele>1359.8</ele>
        <time>2022-06-15T13:38:55Z</time>
      </trkpt>
      <trkpt lat="45.87766" lon="6.44974">
        <ele>1358.7</ele>
        <time>2022-06-15T13:38:56Z</time>
      </trkpt>
      <trkpt lat="45.87776" lon="6.44962">
        <ele>1356.9</ele>
        <time>2022-06-15T13:38:57Z</time>
      </trkpt>
      <trkpt lat="45.87786" lon="6.4495">
        <ele>1355.7</ele>
        <time>2022-06-15T13:38:58Z</time>
      </trkpt>
      <trkpt lat="45.87797" lon="6.44939">
        <ele>1353.8</ele>
        <time>2022-06-15T13:38:59Z</time>
      </trkpt>
      <trkpt lat="45.87808" lon="6.44929">
        <ele>1352.7</ele>
        <time>2022-06-15T13:39:00Z</time>
      </trkpt>
      <trkpt lat="45.87821" lon="6.44919">
        <ele>1351.4</ele>
        <time>2022-06-15T13:39:01Z</time>
      </trkpt>
      <trkpt lat="45.87833" lon="6.44911">
        <ele>1350.1</ele>
        <time>2022-06-15T13:39:02Z</time>
      </trkpt>
      <trkpt lat="45.87846" lon="6.44902">
        <ele>1348.9</ele>
        <time>2022-06-15T13:39:03Z</time>
      </trkpt>
      <trkpt lat="45.87859" lon="6.44893">
        <ele>1347.6</ele>
        <time>2022-06-15T13:39:04Z</time>
      </trkpt>
      <trkpt lat="45.87872" lon="6.44885">
        <ele>1346.3</ele>
        <time>2022-06-15T13:39:05Z</time>
      </trkpt>
      <trkpt lat="45.87886" lon="6.44876">
        <ele>1345.1</ele>
        <time>2022-06-15T13:39:06Z</time>
      </trkpt>
      <trkpt lat="45.879" lon="6.44867">
        <ele>1343.9</ele>
        <time>2022-06-15T13:39:07Z</time>
      </trkpt>
      <trkpt lat="45.87913" lon="6.44858">
        <ele>1342.5</ele>
        <time>2022-06-15T13:39:08Z</time>
      </trkpt>
      <trkpt lat="45.87926" lon="6.44848">
        <ele>1341.3</ele>
        <time>2022-06-15T13:39:09Z</time>
      </trkpt>
      <trkpt lat="45.87939" lon="6.44839">
        <ele>1339.9</ele>
        <time>2022-06-15T13:39:10Z</time>
      </trkpt>
      <trkpt lat="45.8795" lon="6.4483">
        <ele>1339</ele>
        <time>2022-06-15T13:39:11Z</time>
      </trkpt>
      <trkpt lat="45.87961" lon="6.44819">
        <ele>1338.5</ele>
        <time>2022-06-15T13:39:12Z</time>
      </trkpt>
      <trkpt lat="45.87971" lon="6.44807">
        <ele>1337.2</ele>
        <time>2022-06-15T13:39:13Z</time>
      </trkpt>
      <trkpt lat="45.87979" lon="6.44792">
        <ele>1336.8</ele>
        <time>2022-06-15T13:39:14Z</time>
      </trkpt>
      <trkpt lat="45.87984" lon="6.44776">
        <ele>1336.4</ele>
        <time>2022-06-15T13:39:15Z</time>
      </trkpt>
      <trkpt lat="45.87989" lon="6.44758">
        <ele>1335.8</ele>
        <time>2022-06-15T13:39:16Z</time>
      </trkpt>
      <trkpt lat="45.87992" lon="6.4474">
        <ele>1334.7</ele>
        <time>2022-06-15T13:39:17Z</time>
      </trkpt>
      <trkpt lat="45.87996" lon="6.44723">
        <ele>1333.4</ele>
        <time>2022-06-15T13:39:18Z</time>
      </trkpt>
      <trkpt lat="45.88003" lon="6.44707">
        <ele>1332.2</ele>
        <time>2022-06-15T13:39:19Z</time>
      </trkpt>
      <trkpt lat="45.88011" lon="6.44692">
        <ele>1331.2</ele>
        <time>2022-06-15T13:39:20Z</time>
      </trkpt>
      <trkpt lat="45.88022" lon="6.44679">
        <ele>1330.3</ele>
        <time>2022-06-15T13:39:21Z</time>
      </trkpt>
      <trkpt lat="45.88032" lon="6.44666">
        <ele>1329.3</ele>
        <time>2022-06-15T13:39:22Z</time>
      </trkpt>
      <trkpt lat="45.88043" lon="6.44654">
        <ele>1327.8</ele>
        <time>2022-06-15T13:39:23Z</time>
      </trkpt>
      <trkpt lat="45.88054" lon="6.44642">
        <ele>1326.5</ele>
        <time>2022-06-15T13:39:24Z</time>
      </trkpt>
      <trkpt lat="45.88065" lon="6.4463">
        <ele>1325.5</ele>
        <time>2022-06-15T13:39:25Z</time>
      </trkpt>
      <trkpt lat="45.88075" lon="6.44618">
        <ele>1324.5</ele>
        <time>2022-06-15T13:39:26Z</time>
      </trkpt>
      <trkpt lat="45.88086" lon="6.44606">
        <ele>1323</ele>
        <time>2022-06-15T13:39:27Z</time>
      </trkpt>
      <trkpt lat="45.88096" lon="6.44592">
        <ele>1321.4</ele>
        <time>2022-06-15T13:39:28Z</time>
      </trkpt>
      <trkpt lat="45.88105" lon="6.44577">
        <ele>1320.5</ele>
        <time>2022-06-15T13:39:29Z</time>
      </trkpt>
      <trkpt lat="45.88112" lon="6.4456">
        <ele>1320.5</ele>
        <time>2022-06-15T13:39:30Z</time>
      </trkpt>
      <trkpt lat="45.88118" lon="6.44543">
        <ele>1319.6</ele>
        <time>2022-06-15T13:39:31Z</time>
      </trkpt>
      <trkpt lat="45.88124" lon="6.44525">
        <ele>1318.5</ele>
        <time>2022-06-15T13:39:32Z</time>
      </trkpt>
      <trkpt lat="45.8813" lon="6.44507">
        <ele>1317.8</ele>
        <time>2022-06-15T13:39:33Z</time>
      </trkpt>
      <trkpt lat="45.88136" lon="6.44489">
        <ele>1316.9</ele>
        <time>2022-06-15T13:39:34Z</time>
      </trkpt>
      <trkpt lat="45.88144" lon="6.44473">
        <ele>1316</ele>
        <time>2022-06-15T13:39:35Z</time>
      </trkpt>
      <trkpt lat="45.88152" lon="6.44457">
        <ele>1315.6</ele>
        <time>2022-06-15T13:39:36Z</time>
      </trkpt>
      <trkpt lat="45.88161" lon="6.44444">
        <ele>1315.5</ele>
        <time>2022-06-15T13:39:37Z</time>
      </trkpt>
      <trkpt lat="45.88169" lon="6.44434">
        <ele>1315.1</ele>
        <time>2022-06-15T13:39:38Z</time>
      </trkpt>
      <trkpt lat="45.88176" lon="6.44424">
        <ele>1314.6</ele>
        <time>2022-06-15T13:39:39Z</time>
      </trkpt>
      <trkpt lat="45.88182" lon="6.44415">
        <ele>1313.9</ele>
        <time>2022-06-15T13:39:40Z</time>
      </trkpt>
      <trkpt lat="45.88184" lon="6.44404">
        <ele>1312.3</ele>
        <time>2022-06-15T13:39:41Z</time>
      </trkpt>
      <trkpt lat="45.88184" lon="6.44392">
        <ele>1309.9</ele>
        <time>2022-06-15T13:39:42Z</time>
      </trkpt>
      <trkpt lat="45.8818" lon="6.44382">
        <ele>1307.6</ele>
        <time>2022-06-15T13:39:43Z</time>
      </trkpt>
      <trkpt lat="45.88173" lon="6.44374">
        <ele>1306</ele>
        <time>2022-06-15T13:39:44Z</time>
      </trkpt>
      <trkpt lat="45.88165" lon="6.44371">
        <ele>1305.1</ele>
        <time>2022-06-15T13:39:45Z</time>
      </trkpt>
      <trkpt lat="45.88155" lon="6.44374">
        <ele>1304.1</ele>
        <time>2022-06-15T13:39:46Z</time>
      </trkpt>
      <trkpt lat="45.88146" lon="6.4438">
        <ele>1304.1</ele>
        <time>2022-06-15T13:39:47Z</time>
      </trkpt>
      <trkpt lat="45.88138" lon="6.44387">
        <ele>1304.4</ele>
        <time>2022-06-15T13:39:48Z</time>
      </trkpt>
      <trkpt lat="45.88129" lon="6.44395">
        <ele>1303.3</ele>
        <time>2022-06-15T13:39:49Z</time>
      </trkpt>
      <trkpt lat="45.88119" lon="6.44403">
        <ele>1302.4</ele>
        <time>2022-06-15T13:39:50Z</time>
      </trkpt>
      <trkpt lat="45.8811" lon="6.44411">
        <ele>1301.9</ele>
        <time>2022-06-15T13:39:51Z</time>
      </trkpt>
      <trkpt lat="45.88101" lon="6.44419">
        <ele>1301.7</ele>
        <time>2022-06-15T13:39:52Z</time>
      </trkpt>
      <trkpt lat="45.88091" lon="6.44427">
        <ele>1301.3</ele>
        <time>2022-06-15T13:39:53Z</time>
      </trkpt>
      <trkpt lat="45.88082" lon="6.44437">
        <ele>1301</ele>
        <time>2022-06-15T13:39:54Z</time>
      </trkpt>
      <trkpt lat="45.88072" lon="6.44446">
        <ele>1300.9</ele>
        <time>2022-06-15T13:39:55Z</time>
      </trkpt>
      <trkpt lat="45.88063" lon="6.44454">
        <ele>1300.5</ele>
        <time>2022-06-15T13:39:56Z</time>
      </trkpt>
      <trkpt lat="45.88054" lon="6.4446">
        <ele>1300</ele>
        <time>2022-06-15T13:39:57Z</time>
      </trkpt>
      <trkpt lat="45.88045" lon="6.44461">
        <ele>1299.4</ele>
        <time>2022-06-15T13:39:58Z</time>
      </trkpt>
      <trkpt lat="45.88037" lon="6.44457">
        <ele>1298.5</ele>
        <time>2022-06-15T13:39:59Z</time>
      </trkpt>
      <trkpt lat="45.88031" lon="6.44447">
        <ele>1297.4</ele>
        <time>2022-06-15T13:40:00Z</time>
      </trkpt>
      <trkpt lat="45.88029" lon="6.44436">
        <ele>1296.7</ele>
        <time>2022-06-15T13:40:01Z</time>
      </trkpt>
      <trkpt lat="45.88029" lon="6.44423">
        <ele>1296.3</ele>
        <time>2022-06-15T13:40:02Z</time>
      </trkpt>
      <trkpt lat="45.88032" lon="6.4441">
        <ele>1295.4</ele>
        <time>2022-06-15T13:40:03Z</time>
      </trkpt>
      <trkpt lat="45.88037" lon="6.44398">
        <ele>1294.5</ele>
        <time>2022-06-15T13:40:04Z</time>
      </trkpt>
      <trkpt lat="45.88043" lon="6.44387">
        <ele>1293.9</ele>
        <time>2022-06-15T13:40:05Z</time>
      </trkpt>
      <trkpt lat="45.8805" lon="6.44376">
        <ele>1293.3</ele>
        <time>2022-06-15T13:40:06Z</time>
      </trkpt>
      <trkpt lat="45.88057" lon="6.44365">
        <ele>1292.4</ele>
        <time>2022-06-15T13:40:07Z</time>
      </trkpt>
      <trkpt lat="45.88064" lon="6.44353">
        <ele>1291.7</ele>
        <time>2022-06-15T13:40:08Z</time>
      </trkpt>
      <trkpt lat="45.88073" lon="6.44343">
        <ele>1290.9</ele>
        <time>2022-06-15T13:40:09Z</time>
      </trkpt>
      <trkpt lat="45.88083" lon="6.44335">
        <ele>1290.2</ele>
        <time>2022-06-15T13:40:10Z</time>
      </trkpt>
      <trkpt lat="45.88094" lon="6.44328">
        <ele>1289.6</ele>
        <time>2022-06-15T13:40:11Z</time>
      </trkpt>
      <trkpt lat="45.88105" lon="6.44322">
        <ele>1288.5</ele>
        <time>2022-06-15T13:40:12Z</time>
      </trkpt>
      <trkpt lat="45.88115" lon="6.44314">
        <ele>1287.1</ele>
        <time>2022-06-15T13:40:13Z</time>
      </trkpt>
      <trkpt lat="45.88125" lon="6.44303">
        <ele>1286.4</ele>
        <time>2022-06-15T13:40:14Z</time>
      </trkpt>
      <trkpt lat="45.88134" lon="6.44291">
        <ele>1285.5</ele>
        <time>2022-06-15T13:40:15Z</time>
      </trkpt>
      <trkpt lat="45.88142" lon="6.44279">
        <ele>1283.9</ele>
        <time>2022-06-15T13:40:16Z</time>
      </trkpt>
      <trkpt lat="45.88151" lon="6.44266">
        <ele>1282.3</ele>
        <time>2022-06-15T13:40:17Z</time>
      </trkpt>
      <trkpt lat="45.88161" lon="6.44255">
        <ele>1281.6</ele>
        <time>2022-06-15T13:40:18Z</time>
      </trkpt>
      <trkpt lat="45.88172" lon="6.44246">
        <ele>1280.4</ele>
        <time>2022-06-15T13:40:19Z</time>
      </trkpt>
      <trkpt lat="45.88184" lon="6.44238">
        <ele>1278.5</ele>
        <time>2022-06-15T13:40:20Z</time>
      </trkpt>
      <trkpt lat="45.88196" lon="6.44229">
        <ele>1278</ele>
        <time>2022-06-15T13:40:21Z</time>
      </trkpt>
      <trkpt lat="45.88207" lon="6.44217">
        <ele>1277.2</ele>
        <time>2022-06-15T13:40:22Z</time>
      </trkpt>
      <trkpt lat="45.88216" lon="6.44203">
        <ele>1276.1</ele>
        <time>2022-06-15T13:40:23Z</time>
      </trkpt>
      <trkpt lat="45.88225" lon="6.44188">
        <ele>1276.1</ele>
        <time>2022-06-15T13:40:24Z</time>
      </trkpt>
      <trkpt lat="45.88232" lon="6.44172">
        <ele>1276.6</ele>
        <time>2022-06-15T13:40:25Z</time>
      </trkpt>
      <trkpt lat="45.8824" lon="6.44156">
        <ele>1275.4</ele>
        <time>2022-06-15T13:40:26Z</time>
      </trkpt>
      <trkpt lat="45.88247" lon="6.4414">
        <ele>1272.7</ele>
        <time>2022-06-15T13:40:27Z</time>
      </trkpt>
      <trkpt lat="45.88254" lon="6.44123">
        <ele>1273</ele>
        <time>2022-06-15T13:40:28Z</time>
      </trkpt>
      <trkpt lat="45.88259" lon="6.44105">
        <ele>1272.6</ele>
        <time>2022-06-15T13:40:29Z</time>
      </trkpt>
      <trkpt lat="45.88264" lon="6.44087">
        <ele>1271.1</ele>
        <time>2022-06-15T13:40:30Z</time>
      </trkpt>
      <trkpt lat="45.88269" lon="6.44068">
        <ele>1269.3</ele>
        <time>2022-06-15T13:40:31Z</time>
      </trkpt>
      <trkpt lat="45.88273" lon="6.44049">
        <ele>1267.1</ele>
        <time>2022-06-15T13:40:32Z</time>
      </trkpt>
      <trkpt lat="45.88276" lon="6.4403">
        <ele>1265.1</ele>
        <time>2022-06-15T13:40:33Z</time>
      </trkpt>
      <trkpt lat="45.88279" lon="6.44011">
        <ele>1264.2</ele>
        <time>2022-06-15T13:40:34Z</time>
      </trkpt>
      <trkpt lat="45.88281" lon="6.43992">
        <ele>1263.4</ele>
        <time>2022-06-15T13:40:35Z</time>
      </trkpt>
      <trkpt lat="45.88284" lon="6.43973">
        <ele>1262.9</ele>
        <time>2022-06-15T13:40:36Z</time>
      </trkpt>
      <trkpt lat="45.88288" lon="6.43955">
        <ele>1262.7</ele>
        <time>2022-06-15T13:40:37Z</time>
      </trkpt>
      <trkpt lat="45.88294" lon="6.43937">
        <ele>1262.2</ele>
        <time>2022-06-15T13:40:38Z</time>
      </trkpt>
      <trkpt lat="45.88301" lon="6.43921">
        <ele>1260.1</ele>
        <time>2022-06-15T13:40:39Z</time>
      </trkpt>
      <trkpt lat="45.88308" lon="6.43906">
        <ele>1259</ele>
        <time>2022-06-15T13:40:40Z</time>
      </trkpt>
      <trkpt lat="45.88316" lon="6.43891">
        <ele>1258.6</ele>
        <time>2022-06-15T13:40:41Z</time>
      </trkpt>
      <trkpt lat="45.88324" lon="6.43877">
        <ele>1258.3</ele>
        <time>2022-06-15T13:40:42Z</time>
      </trkpt>
      <trkpt lat="45.88333" lon="6.43863">
        <ele>1258.1</ele>
        <time>2022-06-15T13:40:43Z</time>
      </trkpt>
      <trkpt lat="45.8834" lon="6.43848">
        <ele>1259.1</ele>
        <time>2022-06-15T13:40:44Z</time>
      </trkpt>
      <trkpt lat="45.88347" lon="6.43832">
        <ele>1259</ele>
        <time>2022-06-15T13:40:45Z</time>
      </trkpt>
      <trkpt lat="45.88351" lon="6.43815">
        <ele>1257.5</ele>
        <time>2022-06-15T13:40:46Z</time>
      </trkpt>
      <trkpt lat="45.88355" lon="6.43798">
        <ele>1255.5</ele>
        <time>2022-06-15T13:40:47Z</time>
      </trkpt>
      <trkpt lat="45.88359" lon="6.4378">
        <ele>1253.6</ele>
        <time>2022-06-15T13:40:48Z</time>
      </trkpt>
      <trkpt lat="45.88362" lon="6.43763">
        <ele>1253.4</ele>
        <time>2022-06-15T13:40:49Z</time>
      </trkpt>
      <trkpt lat="45.88366" lon="6.43745">
        <ele>1253.7</ele>
        <time>2022-06-15T13:40:50Z</time>
      </trkpt>
      <trkpt lat="45.88371" lon="6.43728">
        <ele>1253.5</ele>
        <time>2022-06-15T13:40:51Z</time>
      </trkpt>
      <trkpt lat="45.88376" lon="6.43712">
        <ele>1252.4</ele>
        <time>2022-06-15T13:40:52Z</time>
      </trkpt>
      <trkpt lat="45.8838" lon="6.43695">
        <ele>1250.7</ele>
        <time>2022-06-15T13:40:53Z</time>
      </trkpt>
      <trkpt lat="45.88385" lon="6.43678">
        <ele>1250</ele>
        <time>2022-06-15T13:40:54Z</time>
      </trkpt>
      <trkpt lat="45.88389" lon="6.43662">
        <ele>1249.2</ele>
        <time>2022-06-15T13:40:55Z</time>
      </trkpt>
      <trkpt lat="45.88393" lon="6.43645">
        <ele>1248.3</ele>
        <time>2022-06-15T13:40:56Z</time>
      </trkpt>
      <trkpt lat="45.88398" lon="6.43629">
        <ele>1246.6</ele>
        <time>2022-06-15T13:40:57Z</time>
      </trkpt>
      <trkpt lat="45.88404" lon="6.43613">
        <ele>1244.7</ele>
        <time>2022-06-15T13:40:58Z</time>
      </trkpt>
      <trkpt lat="45.8841" lon="6.43598">
        <ele>1243.9</ele>
        <time>2022-06-15T13:40:59Z</time>
      </trkpt>
      <trkpt lat="45.88418" lon="6.43585">
        <ele>1244.2</ele>
        <time>2022-06-15T13:41:00Z</time>
      </trkpt>
      <trkpt lat="45.88426" lon="6.43573">
        <ele>1243.3</ele>
        <time>2022-06-15T13:41:01Z</time>
      </trkpt>
      <trkpt lat="45.88436" lon="6.43564">
        <ele>1242.3</ele>
        <time>2022-06-15T13:41:02Z</time>
      </trkpt>
      <trkpt lat="45.88446" lon="6.43554">
        <ele>1241.3</ele>
        <time>2022-06-15T13:41:03Z</time>
      </trkpt>
      <trkpt lat="45.88455" lon="6.43542">
        <ele>1241.8</ele>
        <time>2022-06-15T13:41:04Z</time>
      </trkpt>
      <trkpt lat="45.88463" lon="6.43529">
        <ele>1241.6</ele>
        <time>2022-06-15T13:41:05Z</time>
      </trkpt>
      <trkpt lat="45.8847" lon="6.43515">
        <ele>1240.2</ele>
        <time>2022-06-15T13:41:06Z</time>
      </trkpt>
      <trkpt lat="45.88478" lon="6.43501">
        <ele>1238.4</ele>
        <time>2022-06-15T13:41:07Z</time>
      </trkpt>
      <trkpt lat="45.88486" lon="6.43487">
        <ele>1237.1</ele>
        <time>2022-06-15T13:41:08Z</time>
      </trkpt>
      <trkpt lat="45.88494" lon="6.43473">
        <ele>1235.8</ele>
        <time>2022-06-15T13:41:09Z</time>
      </trkpt>
      <trkpt lat="45.88501" lon="6.43459">
        <ele>1235.1</ele>
        <time>2022-06-15T13:41:10Z</time>
      </trkpt>
      <trkpt lat="45.8851" lon="6.43446">
        <ele>1235.5</ele>
        <time>2022-06-15T13:41:11Z</time>
      </trkpt>
      <trkpt lat="45.8852" lon="6.43434">
        <ele>1234.8</ele>
        <time>2022-06-15T13:41:12Z</time>
      </trkpt>
      <trkpt lat="45.88531" lon="6.43423">
        <ele>1234</ele>
        <time>2022-06-15T13:41:13Z</time>
      </trkpt>
      <trkpt lat="45.88542" lon="6.43412">
        <ele>1233.6</ele>
        <time>2022-06-15T13:41:14Z</time>
      </trkpt>
      <trkpt lat="45.88553" lon="6.43402">
        <ele>1232.8</ele>
        <time>2022-06-15T13:41:15Z</time>
      </trkpt>
      <trkpt lat="45.88565" lon="6.43392">
        <ele>1230.5</ele>
        <time>2022-06-15T13:41:16Z</time>
      </trkpt>
      <trkpt lat="45.88577" lon="6.43382">
        <ele>1228.7</ele>
        <time>2022-06-15T13:41:17Z</time>
      </trkpt>
      <trkpt lat="45.88588" lon="6.43371">
        <ele>1227.4</ele>
        <time>2022-06-15T13:41:18Z</time>
      </trkpt>
      <trkpt lat="45.88599" lon="6.43362">
        <ele>1225.7</ele>
        <time>2022-06-15T13:41:19Z</time>
      </trkpt>
      <trkpt lat="45.8861" lon="6.43352">
        <ele>1225.3</ele>
        <time>2022-06-15T13:41:20Z</time>
      </trkpt>
      <trkpt lat="45.88621" lon="6.43345">
        <ele>1224.9</ele>
        <time>2022-06-15T13:41:21Z</time>
      </trkpt>
      <trkpt lat="45.88633" lon="6.4334">
        <ele>1224.2</ele>
        <time>2022-06-15T13:41:22Z</time>
      </trkpt>
      <trkpt lat="45.88645" lon="6.43338">
        <ele>1223.3</ele>
        <time>2022-06-15T13:41:23Z</time>
      </trkpt>
      <trkpt lat="45.88658" lon="6.43338">
        <ele>1222.3</ele>
        <time>2022-06-15T13:41:24Z</time>
      </trkpt>
      <trkpt lat="45.8867" lon="6.43339">
        <ele>1221.5</ele>
        <time>2022-06-15T13:41:25Z</time>
      </trkpt>
      <trkpt lat="45.88683" lon="6.43339">
        <ele>1220.7</ele>
        <time>2022-06-15T13:41:26Z</time>
      </trkpt>
      <trkpt lat="45.88695" lon="6.43339">
        <ele>1219.8</ele>
        <time>2022-06-15T13:41:27Z</time>
      </trkpt>
      <trkpt lat="45.88708" lon="6.43337">
        <ele>1219.6</ele>
        <time>2022-06-15T13:41:28Z</time>
      </trkpt>
      <trkpt lat="45.8872" lon="6.43333">
        <ele>1218.9</ele>
        <time>2022-06-15T13:41:29Z</time>
      </trkpt>
      <trkpt lat="45.88733" lon="6.43327">
        <ele>1218.6</ele>
        <time>2022-06-15T13:41:30Z</time>
      </trkpt>
      <trkpt lat="45.88745" lon="6.4332">
        <ele>1218.2</ele>
        <time>2022-06-15T13:41:31Z</time>
      </trkpt>
      <trkpt lat="45.88757" lon="6.43313">
        <ele>1217.7</ele>
        <time>2022-06-15T13:41:32Z</time>
      </trkpt>
      <trkpt lat="45.88769" lon="6.43306">
        <ele>1216.8</ele>
        <time>2022-06-15T13:41:33Z</time>
      </trkpt>
      <trkpt lat="45.88781" lon="6.43299">
        <ele>1216.2</ele>
        <time>2022-06-15T13:41:34Z</time>
      </trkpt>
      <trkpt lat="45.88793" lon="6.43293">
        <ele>1215.4</ele>
        <time>2022-06-15T13:41:35Z</time>
      </trkpt>
      <trkpt lat="45.88805" lon="6.43286">
        <ele>1214.4</ele>
        <time>2022-06-15T13:41:36Z</time>
      </trkpt>
      <trkpt lat="45.88817" lon="6.43279">
        <ele>1212.8</ele>
        <time>2022-06-15T13:41:37Z</time>
      </trkpt>
      <trkpt lat="45.88829" lon="6.43272">
        <ele>1211.3</ele>
        <time>2022-06-15T13:41:38Z</time>
      </trkpt>
      <trkpt lat="45.88842" lon="6.43265">
        <ele>1210.5</ele>
        <time>2022-06-15T13:41:39Z</time>
      </trkpt>
      <trkpt lat="45.88854" lon="6.43259">
        <ele>1210</ele>
        <time>2022-06-15T13:41:40Z</time>
      </trkpt>
      <trkpt lat="45.88866" lon="6.43252">
        <ele>1209.9</ele>
        <time>2022-06-15T13:41:41Z</time>
      </trkpt>
      <trkpt lat="45.88878" lon="6.43245">
        <ele>1210.1</ele>
        <time>2022-06-15T13:41:42Z</time>
      </trkpt>
      <trkpt lat="45.8889" lon="6.43238">
        <ele>1210</ele>
        <time>2022-06-15T13:41:43Z</time>
      </trkpt>
      <trkpt lat="45.88902" lon="6.4323">
        <ele>1209</ele>
        <time>2022-06-15T13:41:44Z</time>
      </trkpt>
      <trkpt lat="45.88913" lon="6.43221">
        <ele>1206.9</ele>
        <time>2022-06-15T13:41:45Z</time>
      </trkpt>
      <trkpt lat="45.88924" lon="6.43209">
        <ele>1207</ele>
        <time>2022-06-15T13:41:46Z</time>
      </trkpt>
      <trkpt lat="45.88935" lon="6.43198">
        <ele>1206.2</ele>
        <time>2022-06-15T13:41:47Z</time>
      </trkpt>
      <trkpt lat="45.88946" lon="6.43186">
        <ele>1204.6</ele>
        <time>2022-06-15T13:41:48Z</time>
      </trkpt>
      <trkpt lat="45.88957" lon="6.43175">
        <ele>1203.6</ele>
        <time>2022-06-15T13:41:49Z</time>
      </trkpt>
      <trkpt lat="45.88968" lon="6.43164">
        <ele>1202.3</ele>
        <time>2022-06-15T13:41:50Z</time>
      </trkpt>
      <trkpt lat="45.88979" lon="6.43152">
        <ele>1201.3</ele>
        <time>2022-06-15T13:41:51Z</time>
      </trkpt>
      <trkpt lat="45.88991" lon="6.43141">
        <ele>1200</ele>
        <time>2022-06-15T13:41:52Z</time>
      </trkpt>
      <trkpt lat="45.89002" lon="6.43129">
        <ele>1199.1</ele>
        <time>2022-06-15T13:41:53Z</time>
      </trkpt>
      <trkpt lat="45.89014" lon="6.43118">
        <ele>1198.5</ele>
        <time>2022-06-15T13:41:54Z</time>
      </trkpt>
      <trkpt lat="45.89027" lon="6.43108">
        <ele>1197.3</ele>
        <time>2022-06-15T13:41:55Z</time>
      </trkpt>
      <trkpt lat="45.8904" lon="6.43099">
        <ele>1195.9</ele>
        <time>2022-06-15T13:41:56Z</time>
      </trkpt>
      <trkpt lat="45.89053" lon="6.4309">
        <ele>1195</ele>
        <time>2022-06-15T13:41:57Z</time>
      </trkpt>
      <trkpt lat="45.89066" lon="6.43081">
        <ele>1194.6</ele>
        <time>2022-06-15T13:41:58Z</time>
      </trkpt>
      <trkpt lat="45.89079" lon="6.43073">
        <ele>1193.9</ele>
        <time>2022-06-15T13:41:59Z</time>
      </trkpt>
      <trkpt lat="45.89092" lon="6.43064">
        <ele>1192.6</ele>
        <time>2022-06-15T13:42:00Z</time>
      </trkpt>
      <trkpt lat="45.89105" lon="6.43056">
        <ele>1191</ele>
        <time>2022-06-15T13:42:01Z</time>
      </trkpt>
      <trkpt lat="45.89118" lon="6.43049">
        <ele>1190.5</ele>
        <time>2022-06-15T13:42:02Z</time>
      </trkpt>
      <trkpt lat="45.89132" lon="6.43043">
        <ele>1190.3</ele>
        <time>2022-06-15T13:42:03Z</time>
      </trkpt>
      <trkpt lat="45.89146" lon="6.43038">
        <ele>1189.4</ele>
        <time>2022-06-15T13:42:04Z</time>
      </trkpt>
      <trkpt lat="45.8916" lon="6.43035">
        <ele>1188.1</ele>
        <time>2022-06-15T13:42:05Z</time>
      </trkpt>
      <trkpt lat="45.89174" lon="6.43032">
        <ele>1186.9</ele>
        <time>2022-06-15T13:42:06Z</time>
      </trkpt>
      <trkpt lat="45.89188" lon="6.43028">
        <ele>1185.2</ele>
        <time>2022-06-15T13:42:07Z</time>
      </trkpt>
      <trkpt lat="45.89202" lon="6.43021">
        <ele>1184</ele>
        <time>2022-06-15T13:42:08Z</time>
      </trkpt>
      <trkpt lat="45.89215" lon="6.43014">
        <ele>1183.6</ele>
        <time>2022-06-15T13:42:09Z</time>
      </trkpt>
      <trkpt lat="45.89228" lon="6.43007">
        <ele>1183</ele>
        <time>2022-06-15T13:42:10Z</time>
      </trkpt>
      <trkpt lat="45.89242" lon="6.43">
        <ele>1181.8</ele>
        <time>2022-06-15T13:42:11Z</time>
      </trkpt>
      <trkpt lat="45.89255" lon="6.42995">
        <ele>1180.8</ele>
        <time>2022-06-15T13:42:12Z</time>
      </trkpt>
      <trkpt lat="45.89269" lon="6.42991">
        <ele>1179.5</ele>
        <time>2022-06-15T13:42:13Z</time>
      </trkpt>
      <trkpt lat="45.89283" lon="6.42986">
        <ele>1178.8</ele>
        <time>2022-06-15T13:42:14Z</time>
      </trkpt>
      <trkpt lat="45.89297" lon="6.42982">
        <ele>1178.5</ele>
        <time>2022-06-15T13:42:15Z</time>
      </trkpt>
      <trkpt lat="45.89311" lon="6.42978">
        <ele>1177.6</ele>
        <time>2022-06-15T13:42:16Z</time>
      </trkpt>
      <trkpt lat="45.89325" lon="6.42973">
        <ele>1176.3</ele>
        <time>2022-06-15T13:42:17Z</time>
      </trkpt>
      <trkpt lat="45.8934" lon="6.42969">
        <ele>1174.9</ele>
        <time>2022-06-15T13:42:18Z</time>
      </trkpt>
      <trkpt lat="45.89354" lon="6.42966">
        <ele>1173.2</ele>
        <time>2022-06-15T13:42:19Z</time>
      </trkpt>
      <trkpt lat="45.89369" lon="6.42965">
        <ele>1172.4</ele>
        <time>2022-06-15T13:42:20Z</time>
      </trkpt>
      <trkpt lat="45.89384" lon="6.42965">
        <ele>1172.1</ele>
        <time>2022-06-15T13:42:21Z</time>
      </trkpt>
      <trkpt lat="45.89399" lon="6.42965">
        <ele>1171.4</ele>
        <time>2022-06-15T13:42:22Z</time>
      </trkpt>
      <trkpt lat="45.89414" lon="6.42965">
        <ele>1170.3</ele>
        <time>2022-06-15T13:42:23Z</time>
      </trkpt>
      <trkpt lat="45.89429" lon="6.42964">
        <ele>1169.5</ele>
        <time>2022-06-15T13:42:24Z</time>
      </trkpt>
      <trkpt lat="45.89444" lon="6.42964">
        <ele>1168.7</ele>
        <time>2022-06-15T13:42:25Z</time>
      </trkpt>
      <trkpt lat="45.89458" lon="6.42964">
        <ele>1167.9</ele>
        <time>2022-06-15T13:42:26Z</time>
      </trkpt>
      <trkpt lat="45.89472" lon="6.42965">
        <ele>1167.5</ele>
        <time>2022-06-15T13:42:27Z</time>
      </trkpt>
      <trkpt lat="45.89485" lon="6.42967">
        <ele>1166.2</ele>
        <time>2022-06-15T13:42:28Z</time>
      </trkpt>
      <trkpt lat="45.89497" lon="6.4297">
        <ele>1165.1</ele>
        <time>2022-06-15T13:42:29Z</time>
      </trkpt>
      <trkpt lat="45.89508" lon="6.42973">
        <ele>1165</ele>
        <time>2022-06-15T13:42:30Z</time>
      </trkpt>
      <trkpt lat="45.89518" lon="6.42972">
        <ele>1164.2</ele>
        <time>2022-06-15T13:42:31Z</time>
      </trkpt>
      <trkpt lat="45.89527" lon="6.42965">
        <ele>1163.3</ele>
        <time>2022-06-15T13:42:32Z</time>
      </trkpt>
      <trkpt lat="45.89536" lon="6.42955">
        <ele>1163.3</ele>
        <time>2022-06-15T13:42:33Z</time>
      </trkpt>
      <trkpt lat="45.89544" lon="6.42945">
        <ele>1162.3</ele>
        <time>2022-06-15T13:42:34Z</time>
      </trkpt>
      <trkpt lat="45.89554" lon="6.42937">
        <ele>1161.3</ele>
        <time>2022-06-15T13:42:35Z</time>
      </trkpt>
      <trkpt lat="45.89565" lon="6.42931">
        <ele>1160.2</ele>
        <time>2022-06-15T13:42:36Z</time>
      </trkpt>
      <trkpt lat="45.89576" lon="6.42927">
        <ele>1159.7</ele>
        <time>2022-06-15T13:42:37Z</time>
      </trkpt>
      <trkpt lat="45.89589" lon="6.42925">
        <ele>1159.1</ele>
        <time>2022-06-15T13:42:38Z</time>
      </trkpt>
      <trkpt lat="45.89601" lon="6.42926">
        <ele>1158.4</ele>
        <time>2022-06-15T13:42:39Z</time>
      </trkpt>
      <trkpt lat="45.89613" lon="6.42928">
        <ele>1157.8</ele>
        <time>2022-06-15T13:42:40Z</time>
      </trkpt>
      <trkpt lat="45.89625" lon="6.42931">
        <ele>1156</ele>
        <time>2022-06-15T13:42:41Z</time>
      </trkpt>
      <trkpt lat="45.89637" lon="6.42932">
        <ele>1154.2</ele>
        <time>2022-06-15T13:42:42Z</time>
      </trkpt>
      <trkpt lat="45.8965" lon="6.42931">
        <ele>1154.1</ele>
        <time>2022-06-15T13:42:43Z</time>
      </trkpt>
      <trkpt lat="45.89662" lon="6.42928">
        <ele>1154.2</ele>
        <time>2022-06-15T13:42:44Z</time>
      </trkpt>
      <trkpt lat="45.89674" lon="6.42924">
        <ele>1153.4</ele>
        <time>2022-06-15T13:42:45Z</time>
      </trkpt>
      <trkpt lat="45.89686" lon="6.42919">
        <ele>1151.8</ele>
        <time>2022-06-15T13:42:46Z</time>
      </trkpt>
      <trkpt lat="45.89698" lon="6.42912">
        <ele>1150.3</ele>
        <time>2022-06-15T13:42:47Z</time>
      </trkpt>
      <trkpt lat="45.8971" lon="6.42905">
        <ele>1149.5</ele>
        <time>2022-06-15T13:42:48Z</time>
      </trkpt>
      <trkpt lat="45.89722" lon="6.42897">
        <ele>1148.5</ele>
        <time>2022-06-15T13:42:49Z</time>
      </trkpt>
      <trkpt lat="45.89734" lon="6.4289">
        <ele>1148.4</ele>
        <time>2022-06-15T13:42:50Z</time>
      </trkpt>
      <trkpt lat="45.89747" lon="6.42882">
        <ele>1148.1</ele>
        <time>2022-06-15T13:42:51Z</time>
      </trkpt>
      <trkpt lat="45.89759" lon="6.42875">
        <ele>1147.3</ele>
        <time>2022-06-15T13:42:52Z</time>
      </trkpt>
      <trkpt lat="45.89772" lon="6.42867">
        <ele>1146</ele>
        <time>2022-06-15T13:42:53Z</time>
      </trkpt>
      <trkpt lat="45.89784" lon="6.42859">
        <ele>1144.7</ele>
        <time>2022-06-15T13:42:54Z</time>
      </trkpt>
      <trkpt lat="45.89796" lon="6.4285">
        <ele>1143.7</ele>
        <time>2022-06-15T13:42:55Z</time>
      </trkpt>
      <trkpt lat="45.89808" lon="6.4284">
        <ele>1143</ele>
        <time>2022-06-15T13:42:56Z</time>
      </trkpt>
      <trkpt lat="45.8982" lon="6.42829">
        <ele>1141.9</ele>
        <time>2022-06-15T13:42:57Z</time>
      </trkpt>
      <trkpt lat="45.89832" lon="6.42819">
        <ele>1141.3</ele>
        <time>2022-06-15T13:42:58Z</time>
      </trkpt>
      <trkpt lat="45.89844" lon="6.42809">
        <ele>1140.8</ele>
        <time>2022-06-15T13:42:59Z</time>
      </trkpt>
      <trkpt lat="45.89856" lon="6.42798">
        <ele>1140</ele>
        <time>2022-06-15T13:43:00Z</time>
      </trkpt>
      <trkpt lat="45.89867" lon="6.42789">
        <ele>1139.5</ele>
        <time>2022-06-15T13:43:01Z</time>
      </trkpt>
      <trkpt lat="45.89877" lon="6.42779">
        <ele>1138.3</ele>
        <time>2022-06-15T13:43:02Z</time>
      </trkpt>
      <trkpt lat="45.89888" lon="6.42772">
        <ele>1136.8</ele>
        <time>2022-06-15T13:43:03Z</time>
      </trkpt>
      <trkpt lat="45.899" lon="6.42767">
        <ele>1135.7</ele>
        <time>2022-06-15T13:43:04Z</time>
      </trkpt>
      <trkpt lat="45.89912" lon="6.42762">
        <ele>1135.2</ele>
        <time>2022-06-15T13:43:05Z</time>
      </trkpt>
      <trkpt lat="45.89924" lon="6.42759">
        <ele>1134.6</ele>
        <time>2022-06-15T13:43:06Z</time>
      </trkpt>
      <trkpt lat="45.89937" lon="6.42756">
        <ele>1133.6</ele>
        <time>2022-06-15T13:43:07Z</time>
      </trkpt>
      <trkpt lat="45.89949" lon="6.42751">
        <ele>1132.4</ele>
        <time>2022-06-15T13:43:08Z</time>
      </trkpt>
      <trkpt lat="45.89961" lon="6.42744">
        <ele>1131.5</ele>
        <time>2022-06-15T13:43:09Z</time>
      </trkpt>
      <trkpt lat="45.89972" lon="6.42734">
        <ele>1130.6</ele>
        <time>2022-06-15T13:43:10Z</time>
      </trkpt>
      <trkpt lat="45.89981" lon="6.42721">
        <ele>1130.1</ele>
        <time>2022-06-15T13:43:11Z</time>
      </trkpt>
      <trkpt lat="45.89987" lon="6.42706">
        <ele>1129.4</ele>
        <time>2022-06-15T13:43:12Z</time>
      </trkpt>
      <trkpt lat="45.89992" lon="6.42688">
        <ele>1129</ele>
        <time>2022-06-15T13:43:13Z</time>
      </trkpt>
      <trkpt lat="45.89993" lon="6.42671">
        <ele>1128.7</ele>
        <time>2022-06-15T13:43:14Z</time>
      </trkpt>
      <trkpt lat="45.89993" lon="6.42652">
        <ele>1127.5</ele>
        <time>2022-06-15T13:43:15Z</time>
      </trkpt>
      <trkpt lat="45.89991" lon="6.42634">
        <ele>1126.1</ele>
        <time>2022-06-15T13:43:16Z</time>
      </trkpt>
      <trkpt lat="45.8999" lon="6.42616">
        <ele>1125.1</ele>
        <time>2022-06-15T13:43:17Z</time>
      </trkpt>
      <trkpt lat="45.89989" lon="6.42597">
        <ele>1124.1</ele>
        <time>2022-06-15T13:43:18Z</time>
      </trkpt>
      <trkpt lat="45.89989" lon="6.42579">
        <ele>1123.3</ele>
        <time>2022-06-15T13:43:19Z</time>
      </trkpt>
      <trkpt lat="45.8999" lon="6.42561">
        <ele>1123.2</ele>
        <time>2022-06-15T13:43:20Z</time>
      </trkpt>
      <trkpt lat="45.89992" lon="6.42547">
        <ele>1121.9</ele>
        <time>2022-06-15T13:43:21Z</time>
      </trkpt>
      <trkpt lat="45.89997" lon="6.42535">
        <ele>1120.6</ele>
        <time>2022-06-15T13:43:22Z</time>
      </trkpt>
      <trkpt lat="45.90004" lon="6.42526">
        <ele>1119.7</ele>
        <time>2022-06-15T13:43:23Z</time>
      </trkpt>
      <trkpt lat="45.90013" lon="6.4252">
        <ele>1118.3</ele>
        <time>2022-06-15T13:43:24Z</time>
      </trkpt>
      <trkpt lat="45.90023" lon="6.4252">
        <ele>1116.9</ele>
        <time>2022-06-15T13:43:25Z</time>
      </trkpt>
      <trkpt lat="45.90033" lon="6.42525">
        <ele>1115.8</ele>
        <time>2022-06-15T13:43:26Z</time>
      </trkpt>
      <trkpt lat="45.90042" lon="6.42533">
        <ele>1114.9</ele>
        <time>2022-06-15T13:43:27Z</time>
      </trkpt>
      <trkpt lat="45.90052" lon="6.42541">
        <ele>1114</ele>
        <time>2022-06-15T13:43:28Z</time>
      </trkpt>
      <trkpt lat="45.90062" lon="6.42547">
        <ele>1113.1</ele>
        <time>2022-06-15T13:43:29Z</time>
      </trkpt>
      <trkpt lat="45.90074" lon="6.42549">
        <ele>1112</ele>
        <time>2022-06-15T13:43:30Z</time>
      </trkpt>
      <trkpt lat="45.90085" lon="6.42548">
        <ele>1110.5</ele>
        <time>2022-06-15T13:43:31Z</time>
      </trkpt>
      <trkpt lat="45.90097" lon="6.42545">
        <ele>1110.8</ele>
        <time>2022-06-15T13:43:32Z</time>
      </trkpt>
      <trkpt lat="45.90109" lon="6.4254">
        <ele>1111</ele>
        <time>2022-06-15T13:43:33Z</time>
      </trkpt>
      <trkpt lat="45.90122" lon="6.42537">
        <ele>1108.8</ele>
        <time>2022-06-15T13:43:34Z</time>
      </trkpt>
      <trkpt lat="45.90134" lon="6.42536">
        <ele>1106.4</ele>
        <time>2022-06-15T13:43:35Z</time>
      </trkpt>
      <trkpt lat="45.90147" lon="6.42535">
        <ele>1105.3</ele>
        <time>2022-06-15T13:43:36Z</time>
      </trkpt>
      <trkpt lat="45.90161" lon="6.42535">
        <ele>1104.9</ele>
        <time>2022-06-15T13:43:37Z</time>
      </trkpt>
      <trkpt lat="45.90174" lon="6.42537">
        <ele>1104.7</ele>
        <time>2022-06-15T13:43:38Z</time>
      </trkpt>
      <trkpt lat="45.90187" lon="6.42539">
        <ele>1104.5</ele>
        <time>2022-06-15T13:43:39Z</time>
      </trkpt>
      <trkpt lat="45.902" lon="6.42541">
        <ele>1103.4</ele>
        <time>2022-06-15T13:43:40Z</time>
      </trkpt>
      <trkpt lat="45.90213" lon="6.42544">
        <ele>1101.4</ele>
        <time>2022-06-15T13:43:41Z</time>
      </trkpt>
      <trkpt lat="45.90224" lon="6.42546">
        <ele>1099.6</ele>
        <time>2022-06-15T13:43:42Z</time>
      </trkpt>
      <trkpt lat="45.90235" lon="6.4255">
        <ele>1099.5</ele>
        <time>2022-06-15T13:43:43Z</time>
      </trkpt>
      <trkpt lat="45.90246" lon="6.42556">
        <ele>1100.1</ele>
        <time>2022-06-15T13:43:44Z</time>
      </trkpt>
      <trkpt lat="45.90256" lon="6.42564">
        <ele>1099.2</ele>
        <time>2022-06-15T13:43:45Z</time>
      </trkpt>
      <trkpt lat="45.90267" lon="6.42573">
        <ele>1098.1</ele>
        <time>2022-06-15T13:43:46Z</time>
      </trkpt>
      <trkpt lat="45.90278" lon="6.42581">
        <ele>1097.6</ele>
        <time>2022-06-15T13:43:47Z</time>
      </trkpt>
      <trkpt lat="45.90288" lon="6.4259">
        <ele>1097</ele>
        <time>2022-06-15T13:43:48Z</time>
      </trkpt>
      <trkpt lat="45.90299" lon="6.42599">
        <ele>1096.1</ele>
        <time>2022-06-15T13:43:49Z</time>
      </trkpt>
      <trkpt lat="45.90309" lon="6.42609">
        <ele>1095.2</ele>
        <time>2022-06-15T13:43:50Z</time>
      </trkpt>
      <trkpt lat="45.9032" lon="6.42618">
        <ele>1095.1</ele>
        <time>2022-06-15T13:43:51Z</time>
      </trkpt>
      <trkpt lat="45.9033" lon="6.42627">
        <ele>1094.1</ele>
        <time>2022-06-15T13:43:52Z</time>
      </trkpt>
      <trkpt lat="45.90341" lon="6.42636">
        <ele>1092.9</ele>
        <time>2022-06-15T13:43:53Z</time>
      </trkpt>
      <trkpt lat="45.90352" lon="6.42646">
        <ele>1093.1</ele>
        <time>2022-06-15T13:43:54Z</time>
      </trkpt>
      <trkpt lat="45.90362" lon="6.42656">
        <ele>1091.5</ele>
        <time>2022-06-15T13:43:55Z</time>
      </trkpt>
      <trkpt lat="45.90372" lon="6.42668">
        <ele>1091</ele>
        <time>2022-06-15T13:43:56Z</time>
      </trkpt>
      <trkpt lat="45.90382" lon="6.4268">
        <ele>1091</ele>
        <time>2022-06-15T13:43:57Z</time>
      </trkpt>
      <trkpt lat="45.90391" lon="6.42693">
        <ele>1088.4</ele>
        <time>2022-06-15T13:43:58Z</time>
      </trkpt>
      <trkpt lat="45.90399" lon="6.42706">
        <ele>1087.6</ele>
        <time>2022-06-15T13:43:59Z</time>
      </trkpt>
      <trkpt lat="45.90407" lon="6.42721">
        <ele>1087.2</ele>
        <time>2022-06-15T13:44:00Z</time>
      </trkpt>
      <trkpt lat="45.90415" lon="6.42736">
        <ele>1086.2</ele>
        <time>2022-06-15T13:44:01Z</time>
      </trkpt>
      <trkpt lat="45.90422" lon="6.42751">
        <ele>1085</ele>
        <time>2022-06-15T13:44:02Z</time>
      </trkpt>
      <trkpt lat="45.90429" lon="6.42767">
        <ele>1084.3</ele>
        <time>2022-06-15T13:44:03Z</time>
      </trkpt>
      <trkpt lat="45.90435" lon="6.42783">
        <ele>1083.7</ele>
        <time>2022-06-15T13:44:04Z</time>
      </trkpt>
      <trkpt lat="45.90441" lon="6.42799">
        <ele>1083.3</ele>
        <time>2022-06-15T13:44:05Z</time>
      </trkpt>
      <trkpt lat="45.90448" lon="6.42815">
        <ele>1082.6</ele>
        <time>2022-06-15T13:44:06Z</time>
      </trkpt>
      <trkpt lat="45.90454" lon="6.42832">
        <ele>1081.2</ele>
        <time>2022-06-15T13:44:07Z</time>
      </trkpt>
      <trkpt lat="45.90459" lon="6.42849">
        <ele>1080.5</ele>
        <time>2022-06-15T13:44:08Z</time>
      </trkpt>
      <trkpt lat="45.90465" lon="6.42867">
        <ele>1079.8</ele>
        <time>2022-06-15T13:44:09Z</time>
      </trkpt>
      <trkpt lat="45.90471" lon="6.42884">
        <ele>1078.2</ele>
        <time>2022-06-15T13:44:10Z</time>
      </trkpt>
      <trkpt lat="45.90477" lon="6.429">
        <ele>1077.1</ele>
        <time>2022-06-15T13:44:11Z</time>
      </trkpt>
      <trkpt lat="45.90483" lon="6.42917">
        <ele>1076.3</ele>
        <time>2022-06-15T13:44:12Z</time>
      </trkpt>
      <trkpt lat="45.90489" lon="6.42934">
        <ele>1076.7</ele>
        <time>2022-06-15T13:44:13Z</time>
      </trkpt>
      <trkpt lat="45.90496" lon="6.42951">
        <ele>1075.9</ele>
        <time>2022-06-15T13:44:14Z</time>
      </trkpt>
      <trkpt lat="45.90503" lon="6.42966">
        <ele>1074.9</ele>
        <time>2022-06-15T13:44:15Z</time>
      </trkpt>
      <trkpt lat="45.90509" lon="6.42981">
        <ele>1074.7</ele>
        <time>2022-06-15T13:44:16Z</time>
      </trkpt>
      <trkpt lat="45.90516" lon="6.42994">
        <ele>1074.8</ele>
        <time>2022-06-15T13:44:17Z</time>
      </trkpt>
      <trkpt lat="45.90523" lon="6.43006">
        <ele>1074.1</ele>
        <time>2022-06-15T13:44:18Z</time>
      </trkpt>
      <trkpt lat="45.9053" lon="6.43017">
        <ele>1072.7</ele>
        <time>2022-06-15T13:44:19Z</time>
      </trkpt>
      <trkpt lat="45.90538" lon="6.43027">
        <ele>1071.9</ele>
        <time>2022-06-15T13:44:20Z</time>
      </trkpt>
      <trkpt lat="45.90546" lon="6.43035">
        <ele>1071.6</ele>
        <time>2022-06-15T13:44:21Z</time>
      </trkpt>
      <trkpt lat="45.90554" lon="6.43041">
        <ele>1070.7</ele>
        <time>2022-06-15T13:44:22Z</time>
      </trkpt>
      <trkpt lat="45.90561" lon="6.43045">
        <ele>1070.1</ele>
        <time>2022-06-15T13:44:23Z</time>
      </trkpt>
      <trkpt lat="45.90568" lon="6.43047">
        <ele>1069.5</ele>
        <time>2022-06-15T13:44:24Z</time>
      </trkpt>
      <trkpt lat="45.90574" lon="6.43048">
        <ele>1068.9</ele>
        <time>2022-06-15T13:44:25Z</time>
      </trkpt>
      <trkpt lat="45.90581" lon="6.4305">
        <ele>1068.3</ele>
        <time>2022-06-15T13:44:26Z</time>
      </trkpt>
      <trkpt lat="45.90587" lon="6.43054">
        <ele>1068</ele>
        <time>2022-06-15T13:44:27Z</time>
      </trkpt>
      <trkpt lat="45.90592" lon="6.43059">
        <ele>1068.2</ele>
        <time>2022-06-15T13:44:28Z</time>
      </trkpt>
      <trkpt lat="45.90597" lon="6.43064">
        <ele>1068.4</ele>
        <time>2022-06-15T13:44:29Z</time>
      </trkpt>
      <trkpt lat="45.90603" lon="6.43066">
        <ele>1068.5</ele>
        <time>2022-06-15T13:44:30Z</time>
      </trkpt>
      <trkpt lat="45.90608" lon="6.43063">
        <ele>1068.3</ele>
        <time>2022-06-15T13:44:31Z</time>
      </trkpt>
      <trkpt lat="45.90612" lon="6.43057">
        <ele>1068</ele>
        <time>2022-06-15T13:44:32Z</time>
      </trkpt>
      <trkpt lat="45.90615" lon="6.4305">
        <ele>1067.5</ele>
        <time>2022-06-15T13:44:33Z</time>
      </trkpt>
      <trkpt lat="45.90618" lon="6.43044">
        <ele>1067</ele>
        <time>2022-06-15T13:44:34Z</time>
      </trkpt>
      <trkpt lat="45.90622" lon="6.43039">
        <ele>1066.6</ele>
        <time>2022-06-15T13:44:35Z</time>
      </trkpt>
      <trkpt lat="45.90625" lon="6.43034">
        <ele>1066.3</ele>
        <time>2022-06-15T13:44:36Z</time>
      </trkpt>
      <trkpt lat="45.9063" lon="6.43029">
        <ele>1066.1</ele>
        <time>2022-06-15T13:44:37Z</time>
      </trkpt>
      <trkpt lat="45.90634" lon="6.43024">
        <ele>1065.8</ele>
        <time>2022-06-15T13:44:38Z</time>
      </trkpt>
      <trkpt lat="45.90638" lon="6.43018">
        <ele>1065.7</ele>
        <time>2022-06-15T13:44:39Z</time>
      </trkpt>
      <trkpt lat="45.90642" lon="6.43012">
        <ele>1065.8</ele>
        <time>2022-06-15T13:44:40Z</time>
      </trkpt>
      <trkpt lat="45.90645" lon="6.43006">
        <ele>1065.9</ele>
        <time>2022-06-15T13:44:41Z</time>
      </trkpt>
      <trkpt lat="45.90647" lon="6.43001">
        <ele>1065.9</ele>
        <time>2022-06-15T13:44:42Z</time>
      </trkpt>
      <trkpt lat="45.90649" lon="6.42995">
        <ele>1066</ele>
        <time>2022-06-15T13:44:43Z</time>
      </trkpt>
      <trkpt lat="45.90651" lon="6.42989">
        <ele>1066.1</ele>
        <time>2022-06-15T13:44:44Z</time>
      </trkpt>
      <trkpt lat="45.90653" lon="6.42983">
        <ele>1066.3</ele>
        <time>2022-06-15T13:44:45Z</time>
      </trkpt>
      <trkpt lat="45.90655" lon="6.42976">
        <ele>1066.4</ele>
        <time>2022-06-15T13:44:46Z</time>
      </trkpt>
      <trkpt lat="45.90656" lon="6.42969">
        <ele>1066.3</ele>
        <time>2022-06-15T13:44:47Z</time>
      </trkpt>
      <trkpt lat="45.90657" lon="6.42962">
        <ele>1065.8</ele>
        <time>2022-06-15T13:44:48Z</time>
      </trkpt>
      <trkpt lat="45.90659" lon="6.42954">
        <ele>1065.3</ele>
        <time>2022-06-15T13:44:49Z</time>
      </trkpt>
      <trkpt lat="45.90659" lon="6.42947">
        <ele>1064.7</ele>
        <time>2022-06-15T13:44:50Z</time>
      </trkpt>
      <trkpt lat="45.9066" lon="6.4294">
        <ele>1064.4</ele>
        <time>2022-06-15T13:44:51Z</time>
      </trkpt>
      <trkpt lat="45.90659" lon="6.42933">
        <ele>1064.2</ele>
        <time>2022-06-15T13:44:52Z</time>
      </trkpt>
      <trkpt lat="45.90659" lon="6.42927">
        <ele>1064</ele>
        <time>2022-06-15T13:44:53Z</time>
      </trkpt>
      <trkpt lat="45.90658" lon="6.4292">
        <ele>1063.8</ele>
        <time>2022-06-15T13:44:54Z</time>
      </trkpt>
      <trkpt lat="45.90657" lon="6.42913">
        <ele>1063.7</ele>
        <time>2022-06-15T13:44:55Z</time>
      </trkpt>
      <trkpt lat="45.90656" lon="6.42906">
        <ele>1063.7</ele>
        <time>2022-06-15T13:44:56Z</time>
      </trkpt>
      <trkpt lat="45.90655" lon="6.42898">
        <ele>1063.7</ele>
        <time>2022-06-15T13:44:57Z</time>
      </trkpt>
      <trkpt lat="45.90654" lon="6.4289">
        <ele>1063.6</ele>
        <time>2022-06-15T13:44:58Z</time>
      </trkpt>
      <trkpt lat="45.90652" lon="6.42882">
        <ele>1063.3</ele>
        <time>2022-06-15T13:44:59Z</time>
      </trkpt>
      <trkpt lat="45.90651" lon="6.42874">
        <ele>1062.9</ele>
        <time>2022-06-15T13:45:00Z</time>
      </trkpt>
      <trkpt lat="45.90649" lon="6.42866">
        <ele>1062.3</ele>
        <time>2022-06-15T13:45:01Z</time>
      </trkpt>
      <trkpt lat="45.90647" lon="6.42857">
        <ele>1061.6</ele>
        <time>2022-06-15T13:45:02Z</time>
      </trkpt>
      <trkpt lat="45.90646" lon="6.42847">
        <ele>1060.8</ele>
        <time>2022-06-15T13:45:03Z</time>
      </trkpt>
      <trkpt lat="45.90644" lon="6.42838">
        <ele>1060.1</ele>
        <time>2022-06-15T13:45:04Z</time>
      </trkpt>
      <trkpt lat="45.90643" lon="6.42829">
        <ele>1059.5</ele>
        <time>2022-06-15T13:45:05Z</time>
      </trkpt>
      <trkpt lat="45.90641" lon="6.42821">
        <ele>1058.8</ele>
        <time>2022-06-15T13:45:06Z</time>
      </trkpt>
      <trkpt lat="45.90639" lon="6.42814">
        <ele>1058.3</ele>
        <time>2022-06-15T13:45:07Z</time>
      </trkpt>
      <trkpt lat="45.90637" lon="6.42806">
        <ele>1057.8</ele>
        <time>2022-06-15T13:45:08Z</time>
      </trkpt>
      <trkpt lat="45.90634" lon="6.42798">
        <ele>1057.3</ele>
        <time>2022-06-15T13:45:09Z</time>
      </trkpt>
      <trkpt lat="45.90631" lon="6.42789">
        <ele>1056.8</ele>
        <time>2022-06-15T13:45:10Z</time>
      </trkpt>
      <trkpt lat="45.90629" lon="6.4278">
        <ele>1056.3</ele>
        <time>2022-06-15T13:45:11Z</time>
      </trkpt>
      <trkpt lat="45.90628" lon="6.42771">
        <ele>1055.9</ele>
        <time>2022-06-15T13:45:12Z</time>
      </trkpt>
      <trkpt lat="45.90627" lon="6.42764">
        <ele>1055.5</ele>
        <time>2022-06-15T13:45:13Z</time>
      </trkpt>
      <trkpt lat="45.90626" lon="6.42758">
        <ele>1055</ele>
        <time>2022-06-15T13:45:14Z</time>
      </trkpt>
      <trkpt lat="45.90625" lon="6.42751">
        <ele>1054.5</ele>
        <time>2022-06-15T13:45:15Z</time>
      </trkpt>
      <trkpt lat="45.90624" lon="6.42744">
        <ele>1054.3</ele>
        <time>2022-06-15T13:45:16Z</time>
      </trkpt>
      <trkpt lat="45.90624" lon="6.42737">
        <ele>1054.1</ele>
        <time>2022-06-15T13:45:17Z</time>
      </trkpt>
      <trkpt lat="45.90624" lon="6.42729">
        <ele>1054</ele>
        <time>2022-06-15T13:45:18Z</time>
      </trkpt>
      <trkpt lat="45.90624" lon="6.42721">
        <ele>1054</ele>
        <time>2022-06-15T13:45:19Z</time>
      </trkpt>
      <trkpt lat="45.90623" lon="6.42714">
        <ele>1053.9</ele>
        <time>2022-06-15T13:45:20Z</time>
      </trkpt>
      <trkpt lat="45.90622" lon="6.42708">
        <ele>1053.8</ele>
        <time>2022-06-15T13:45:21Z</time>
      </trkpt>
      <trkpt lat="45.9062" lon="6.42705">
        <ele>1053.7</ele>
        <time>2022-06-15T13:45:22Z</time>
      </trkpt>
      <trkpt lat="45.90619" lon="6.42701">
        <ele>1053.4</ele>
        <time>2022-06-15T13:45:23Z</time>
      </trkpt>
      <trkpt lat="45.90617" lon="6.42698">
        <ele>1053.1</ele>
        <time>2022-06-15T13:45:24Z</time>
      </trkpt>
      <trkpt lat="45.90614" lon="6.42694">
        <ele>1052.6</ele>
        <time>2022-06-15T13:45:25Z</time>
      </trkpt>
      <trkpt lat="45.90612" lon="6.4269">
        <ele>1052.1</ele>
        <time>2022-06-15T13:45:26Z</time>
      </trkpt>
      <trkpt lat="45.9061" lon="6.42685">
        <ele>1051.8</ele>
        <time>2022-06-15T13:45:27Z</time>
      </trkpt>
      <trkpt lat="45.90608" lon="6.4268">
        <ele>1051.5</ele>
        <time>2022-06-15T13:45:28Z</time>
      </trkpt>
      <trkpt lat="45.90606" lon="6.42675">
        <ele>1051.2</ele>
        <time>2022-06-15T13:45:29Z</time>
      </trkpt>
      <trkpt lat="45.90605" lon="6.42669">
        <ele>1050.9</ele>
        <time>2022-06-15T13:45:30Z</time>
      </trkpt>
      <trkpt lat="45.90603" lon="6.42664">
        <ele>1050.7</ele>
        <time>2022-06-15T13:45:31Z</time>
      </trkpt>
      <trkpt lat="45.90602" lon="6.42658">
        <ele>1050.6</ele>
        <time>2022-06-15T13:45:32Z</time>
      </trkpt>
      <trkpt lat="45.906" lon="6.42651">
        <ele>1050.7</ele>
        <time>2022-06-15T13:45:33Z</time>
      </trkpt>
      <trkpt lat="45.90599" lon="6.42644">
        <ele>1050.8</ele>
        <time>2022-06-15T13:45:34Z</time>
      </trkpt>
      <trkpt lat="45.90598" lon="6.42636">
        <ele>1051</ele>
        <time>2022-06-15T13:45:35Z</time>
      </trkpt>
      <trkpt lat="45.90597" lon="6.42628">
        <ele>1050.8</ele>
        <time>2022-06-15T13:45:36Z</time>
      </trkpt>
      <trkpt lat="45.90596" lon="6.4262">
        <ele>1050.5</ele>
        <time>2022-06-15T13:45:37Z</time>
      </trkpt>
      <trkpt lat="45.90595" lon="6.42611">
        <ele>1050.1</ele>
        <time>2022-06-15T13:45:38Z</time>
      </trkpt>
      <trkpt lat="45.90594" lon="6.42601">
        <ele>1049.7</ele>
        <time>2022-06-15T13:45:39Z</time>
      </trkpt>
      <trkpt lat="45.90593" lon="6.42591">
        <ele>1049.2</ele>
        <time>2022-06-15T13:45:40Z</time>
      </trkpt>
      <trkpt lat="45.90593" lon="6.4258">
        <ele>1048.8</ele>
        <time>2022-06-15T13:45:41Z</time>
      </trkpt>
      <trkpt lat="45.90593" lon="6.4257">
        <ele>1048.2</ele>
        <time>2022-06-15T13:45:42Z</time>
      </trkpt>
      <trkpt lat="45.90593" lon="6.42558">
        <ele>1047.5</ele>
        <time>2022-06-15T13:45:43Z</time>
      </trkpt>
      <trkpt lat="45.90592" lon="6.42545">
        <ele>1046.7</ele>
        <time>2022-06-15T13:45:44Z</time>
      </trkpt>
      <trkpt lat="45.90592" lon="6.42533">
        <ele>1045.8</ele>
        <time>2022-06-15T13:45:45Z</time>
      </trkpt>
      <trkpt lat="45.90592" lon="6.4252">
        <ele>1045.3</ele>
        <time>2022-06-15T13:45:46Z</time>
      </trkpt>
      <trkpt lat="45.90592" lon="6.42506">
        <ele>1044.9</ele>
        <time>2022-06-15T13:45:47Z</time>
      </trkpt>
      <trkpt lat="45.90592" lon="6.42491">
        <ele>1044.4</ele>
        <time>2022-06-15T13:45:48Z</time>
      </trkpt>
      <trkpt lat="45.90592" lon="6.42477">
        <ele>1043.7</ele>
        <time>2022-06-15T13:45:49Z</time>
      </trkpt>
      <trkpt lat="45.90592" lon="6.42461">
        <ele>1042.7</ele>
        <time>2022-06-15T13:45:50Z</time>
      </trkpt>
      <trkpt lat="45.90593" lon="6.42447">
        <ele>1041.5</ele>
        <time>2022-06-15T13:45:51Z</time>
      </trkpt>
      <trkpt lat="45.90593" lon="6.42433">
        <ele>1040.8</ele>
        <time>2022-06-15T13:45:52Z</time>
      </trkpt>
      <trkpt lat="45.90594" lon="6.42419">
        <ele>1040.2</ele>
        <time>2022-06-15T13:45:53Z</time>
      </trkpt>
      <trkpt lat="45.90595" lon="6.42405">
        <ele>1039.1</ele>
        <time>2022-06-15T13:45:54Z</time>
      </trkpt>
      <trkpt lat="45.90596" lon="6.4239">
        <ele>1037.9</ele>
        <time>2022-06-15T13:45:55Z</time>
      </trkpt>
      <trkpt lat="45.90597" lon="6.42375">
        <ele>1037.5</ele>
        <time>2022-06-15T13:45:56Z</time>
      </trkpt>
      <trkpt lat="45.90598" lon="6.42359">
        <ele>1037.1</ele>
        <time>2022-06-15T13:45:57Z</time>
      </trkpt>
      <trkpt lat="45.90599" lon="6.42343">
        <ele>1036.6</ele>
        <time>2022-06-15T13:45:58Z</time>
      </trkpt>
      <trkpt lat="45.906" lon="6.42328">
        <ele>1036.5</ele>
        <time>2022-06-15T13:45:59Z</time>
      </trkpt>
      <trkpt lat="45.90601" lon="6.42313">
        <ele>1036.8</ele>
        <time>2022-06-15T13:46:00Z</time>
      </trkpt>
      <trkpt lat="45.90602" lon="6.42298">
        <ele>1036</ele>
        <time>2022-06-15T13:46:01Z</time>
      </trkpt>
      <trkpt lat="45.90603" lon="6.42283">
        <ele>1034</ele>
        <time>2022-06-15T13:46:02Z</time>
      </trkpt>
      <trkpt lat="45.90604" lon="6.42269">
        <ele>1033.5</ele>
        <time>2022-06-15T13:46:03Z</time>
      </trkpt>
      <trkpt lat="45.90605" lon="6.42255">
        <ele>1034.2</ele>
        <time>2022-06-15T13:46:04Z</time>
      </trkpt>
      <trkpt lat="45.90606" lon="6.42243">
        <ele>1034.8</ele>
        <time>2022-06-15T13:46:05Z</time>
      </trkpt>
      <trkpt lat="45.90608" lon="6.42236">
        <ele>1035.9</ele>
        <time>2022-06-15T13:46:06Z</time>
      </trkpt>
      <trkpt lat="45.90609" lon="6.42229">
        <ele>1036.6</ele>
        <time>2022-06-15T13:46:07Z</time>
      </trkpt>
      <trkpt lat="45.9061" lon="6.42223">
        <ele>1037.2</ele>
        <time>2022-06-15T13:46:08Z</time>
      </trkpt>
      <trkpt lat="45.90611" lon="6.42216">
        <ele>1037</ele>
        <time>2022-06-15T13:46:09Z</time>
      </trkpt>
      <trkpt lat="45.90612" lon="6.4221">
        <ele>1037.2</ele>
        <time>2022-06-15T13:46:10Z</time>
      </trkpt>
      <trkpt lat="45.90614" lon="6.42202">
        <ele>1037.8</ele>
        <time>2022-06-15T13:46:11Z</time>
      </trkpt>
      <trkpt lat="45.90616" lon="6.42195">
        <ele>1038.6</ele>
        <time>2022-06-15T13:46:12Z</time>
      </trkpt>
      <trkpt lat="45.90618" lon="6.42187">
        <ele>1038.8</ele>
        <time>2022-06-15T13:46:13Z</time>
      </trkpt>
      <trkpt lat="45.9062" lon="6.4218">
        <ele>1039.5</ele>
        <time>2022-06-15T13:46:14Z</time>
      </trkpt>
      <trkpt lat="45.90623" lon="6.42173">
        <ele>1040.1</ele>
        <time>2022-06-15T13:46:15Z</time>
      </trkpt>
      <trkpt lat="45.90626" lon="6.42166">
        <ele>1040.8</ele>
        <time>2022-06-15T13:46:16Z</time>
      </trkpt>
      <trkpt lat="45.90628" lon="6.42158">
        <ele>1041.8</ele>
        <time>2022-06-15T13:46:17Z</time>
      </trkpt>
      <trkpt lat="45.90631" lon="6.42151">
        <ele>1043</ele>
        <time>2022-06-15T13:46:18Z</time>
      </trkpt>
      <trkpt lat="45.90634" lon="6.42144">
        <ele>1044.7</ele>
        <time>2022-06-15T13:46:19Z</time>
      </trkpt>
      <trkpt lat="45.90637" lon="6.42137">
        <ele>1045.6</ele>
        <time>2022-06-15T13:46:20Z</time>
      </trkpt>
      <trkpt lat="45.90641" lon="6.4213">
        <ele>1045.9</ele>
        <time>2022-06-15T13:46:21Z</time>
      </trkpt>
      <trkpt lat="45.90645" lon="6.42123">
        <ele>1046.1</ele>
        <time>2022-06-15T13:46:22Z</time>
      </trkpt>
      <trkpt lat="45.90648" lon="6.42116">
        <ele>1047.3</ele>
        <time>2022-06-15T13:46:23Z</time>
      </trkpt>
      <trkpt lat="45.90653" lon="6.4211">
        <ele>1049.4</ele>
        <time>2022-06-15T13:46:24Z</time>
      </trkpt>
      <trkpt lat="45.90657" lon="6.42104">
        <ele>1049.3</ele>
        <time>2022-06-15T13:46:25Z</time>
      </trkpt>
      <trkpt lat="45.90662" lon="6.42098">
        <ele>1048.9</ele>
        <time>2022-06-15T13:46:26Z</time>
      </trkpt>
      <trkpt lat="45.90667" lon="6.42093">
        <ele>1047.2</ele>
        <time>2022-06-15T13:46:27Z</time>
      </trkpt>
      <trkpt lat="45.90672" lon="6.42087">
        <ele>1047.2</ele>
        <time>2022-06-15T13:46:28Z</time>
      </trkpt>
      <trkpt lat="45.90677" lon="6.42082">
        <ele>1048.5</ele>
        <time>2022-06-15T13:46:29Z</time>
      </trkpt>
      <trkpt lat="45.90682" lon="6.42077">
        <ele>1050.3</ele>
        <time>2022-06-15T13:46:30Z</time>
      </trkpt>
      <trkpt lat="45.90687" lon="6.42072">
        <ele>1050.8</ele>
        <time>2022-06-15T13:46:31Z</time>
      </trkpt>
      <trkpt lat="45.9069" lon="6.42065">
        <ele>1047.7</ele>
        <time>2022-06-15T13:46:32Z</time>
      </trkpt>
      <trkpt lat="45.90693" lon="6.42057">
        <ele>1042.3</ele>
        <time>2022-06-15T13:46:33Z</time>
      </trkpt>
      <trkpt lat="45.90697" lon="6.42049">
        <ele>1041.8</ele>
        <time>2022-06-15T13:46:34Z</time>
      </trkpt>
      <trkpt lat="45.907" lon="6.42041">
        <ele>1042</ele>
        <time>2022-06-15T13:46:35Z</time>
      </trkpt>
      <trkpt lat="45.90703" lon="6.42033">
        <ele>1041.8</ele>
        <time>2022-06-15T13:46:36Z</time>
      </trkpt>
      <trkpt lat="45.90707" lon="6.42025">
        <ele>1040.9</ele>
        <time>2022-06-15T13:46:37Z</time>
      </trkpt>
      <trkpt lat="45.90711" lon="6.42018">
        <ele>1038.9</ele>
        <time>2022-06-15T13:46:38Z</time>
      </trkpt>
      <trkpt lat="45.90715" lon="6.4201">
        <ele>1037.6</ele>
        <time>2022-06-15T13:46:39Z</time>
      </trkpt>
      <trkpt lat="45.9072" lon="6.42003">
        <ele>1038.2</ele>
        <time>2022-06-15T13:46:40Z</time>
      </trkpt>
      <trkpt lat="45.90725" lon="6.41997">
        <ele>1038.4</ele>
        <time>2022-06-15T13:46:41Z</time>
      </trkpt>
      <trkpt lat="45.90731" lon="6.41991">
        <ele>1039</ele>
        <time>2022-06-15T13:46:42Z</time>
      </trkpt>
      <trkpt lat="45.90736" lon="6.41984">
        <ele>1039.1</ele>
        <time>2022-06-15T13:46:43Z</time>
      </trkpt>
      <trkpt lat="45.90741" lon="6.41978">
        <ele>1039</ele>
        <time>2022-06-15T13:46:44Z</time>
      </trkpt>
      <trkpt lat="45.90746" lon="6.41971">
        <ele>1038.5</ele>
        <time>2022-06-15T13:46:45Z</time>
      </trkpt>
      <trkpt lat="45.90751" lon="6.41964">
        <ele>1039.1</ele>
        <time>2022-06-15T13:46:46Z</time>
      </trkpt>
      <trkpt lat="45.90756" lon="6.41957">
        <ele>1038</ele>
        <time>2022-06-15T13:46:47Z</time>
      </trkpt>
      <trkpt lat="45.90761" lon="6.4195">
        <ele>1036.9</ele>
        <time>2022-06-15T13:46:48Z</time>
      </trkpt>
      <trkpt lat="45.90766" lon="6.41943">
        <ele>1035.5</ele>
        <time>2022-06-15T13:46:49Z</time>
      </trkpt>
      <trkpt lat="45.90772" lon="6.41937">
        <ele>1034.5</ele>
        <time>2022-06-15T13:46:50Z</time>
      </trkpt>
      <trkpt lat="45.90778" lon="6.41931">
        <ele>1035.1</ele>
        <time>2022-06-15T13:46:51Z</time>
      </trkpt>
      <trkpt lat="45.90785" lon="6.41927">
        <ele>1034.6</ele>
        <time>2022-06-15T13:46:52Z</time>
      </trkpt>
      <trkpt lat="45.90791" lon="6.41922">
        <ele>1033.9</ele>
        <time>2022-06-15T13:46:53Z</time>
      </trkpt>
      <trkpt lat="45.90798" lon="6.41919">
        <ele>1033.7</ele>
        <time>2022-06-15T13:46:54Z</time>
      </trkpt>
      <trkpt lat="45.90805" lon="6.41916">
        <ele>1033.7</ele>
        <time>2022-06-15T13:46:55Z</time>
      </trkpt>
      <trkpt lat="45.90813" lon="6.41915">
        <ele>1033.3</ele>
        <time>2022-06-15T13:46:56Z</time>
      </trkpt>
      <trkpt lat="45.9082" lon="6.41914">
        <ele>1032.9</ele>
        <time>2022-06-15T13:46:57Z</time>
      </trkpt>
      <trkpt lat="45.90828" lon="6.41913">
        <ele>1032.8</ele>
        <time>2022-06-15T13:46:58Z</time>
      </trkpt>
      <trkpt lat="45.90837" lon="6.41914">
        <ele>1032.7</ele>
        <time>2022-06-15T13:46:59Z</time>
      </trkpt>
      <trkpt lat="45.90846" lon="6.41914">
        <ele>1031.7</ele>
        <time>2022-06-15T13:47:00Z</time>
      </trkpt>
      <trkpt lat="45.90854" lon="6.41914">
        <ele>1030.9</ele>
        <time>2022-06-15T13:47:01Z</time>
      </trkpt>
      <trkpt lat="45.90863" lon="6.41913">
        <ele>1030.1</ele>
        <time>2022-06-15T13:47:02Z</time>
      </trkpt>
      <trkpt lat="45.90872" lon="6.41912">
        <ele>1030.4</ele>
        <time>2022-06-15T13:47:03Z</time>
      </trkpt>
      <trkpt lat="45.90881" lon="6.4191">
        <ele>1030.2</ele>
        <time>2022-06-15T13:47:04Z</time>
      </trkpt>
      <trkpt lat="45.9089" lon="6.41909">
        <ele>1030.2</ele>
        <time>2022-06-15T13:47:05Z</time>
      </trkpt>
      <trkpt lat="45.90899" lon="6.41906">
        <ele>1030.2</ele>
        <time>2022-06-15T13:47:06Z</time>
      </trkpt>
      <trkpt lat="45.90908" lon="6.41904">
        <ele>1030</ele>
        <time>2022-06-15T13:47:07Z</time>
      </trkpt>
      <trkpt lat="45.90916" lon="6.41902">
        <ele>1030</ele>
        <time>2022-06-15T13:47:08Z</time>
      </trkpt>
      <trkpt lat="45.90925" lon="6.419">
        <ele>1029.2</ele>
        <time>2022-06-15T13:47:09Z</time>
      </trkpt>
      <trkpt lat="45.90934" lon="6.419">
        <ele>1029.1</ele>
        <time>2022-06-15T13:47:10Z</time>
      </trkpt>
      <trkpt lat="45.90942" lon="6.41901">
        <ele>1029.3</ele>
        <time>2022-06-15T13:47:11Z</time>
      </trkpt>
      <trkpt lat="45.90951" lon="6.41905">
        <ele>1028.9</ele>
        <time>2022-06-15T13:47:12Z</time>
      </trkpt>
      <trkpt lat="45.90959" lon="6.41908">
        <ele>1027.5</ele>
        <time>2022-06-15T13:47:13Z</time>
      </trkpt>
      <trkpt lat="45.90966" lon="6.41912">
        <ele>1026.3</ele>
        <time>2022-06-15T13:47:14Z</time>
      </trkpt>
      <trkpt lat="45.90973" lon="6.41917">
        <ele>1024.9</ele>
        <time>2022-06-15T13:47:15Z</time>
      </trkpt>
      <trkpt lat="45.9098" lon="6.41921">
        <ele>1026.1</ele>
        <time>2022-06-15T13:47:16Z</time>
      </trkpt>
      <trkpt lat="45.90986" lon="6.41926">
        <ele>1026.6</ele>
        <time>2022-06-15T13:47:17Z</time>
      </trkpt>
      <trkpt lat="45.90993" lon="6.4193">
        <ele>1026.1</ele>
        <time>2022-06-15T13:47:18Z</time>
      </trkpt>
      <trkpt lat="45.90999" lon="6.41934">
        <ele>1024.9</ele>
        <time>2022-06-15T13:47:19Z</time>
      </trkpt>
      <trkpt lat="45.91006" lon="6.41938">
        <ele>1024.3</ele>
        <time>2022-06-15T13:47:20Z</time>
      </trkpt>
      <trkpt lat="45.91012" lon="6.41942">
        <ele>1024.2</ele>
        <time>2022-06-15T13:47:21Z</time>
      </trkpt>
      <trkpt lat="45.91019" lon="6.41946">
        <ele>1024.5</ele>
        <time>2022-06-15T13:47:22Z</time>
      </trkpt>
      <trkpt lat="45.91026" lon="6.41949">
        <ele>1024.6</ele>
        <time>2022-06-15T13:47:23Z</time>
      </trkpt>
      <trkpt lat="45.91033" lon="6.41952">
        <ele>1024.7</ele>
        <time>2022-06-15T13:47:24Z</time>
      </trkpt>
      <trkpt lat="45.91039" lon="6.41955">
        <ele>1024.5</ele>
        <time>2022-06-15T13:47:25Z</time>
      </trkpt>
      <trkpt lat="45.91046" lon="6.41958">
        <ele>1024</ele>
        <time>2022-06-15T13:47:26Z</time>
      </trkpt>
      <trkpt lat="45.91053" lon="6.4196">
        <ele>1023.2</ele>
        <time>2022-06-15T13:47:27Z</time>
      </trkpt>
      <trkpt lat="45.9106" lon="6.41963">
        <ele>1022.7</ele>
        <time>2022-06-15T13:47:28Z</time>
      </trkpt>
      <trkpt lat="45.91067" lon="6.41965">
        <ele>1022.5</ele>
        <time>2022-06-15T13:47:29Z</time>
      </trkpt>
      <trkpt lat="45.91073" lon="6.41967">
        <ele>1022.4</ele>
        <time>2022-06-15T13:47:30Z</time>
      </trkpt>
      <trkpt lat="45.91079" lon="6.41968">
        <ele>1022.3</ele>
        <time>2022-06-15T13:47:31Z</time>
      </trkpt>
      <trkpt lat="45.91085" lon="6.41968">
        <ele>1022.1</ele>
        <time>2022-06-15T13:47:32Z</time>
      </trkpt>
      <trkpt lat="45.91091" lon="6.41969">
        <ele>1022</ele>
        <time>2022-06-15T13:47:33Z</time>
      </trkpt>
      <trkpt lat="45.91098" lon="6.41969">
        <ele>1021.8</ele>
        <time>2022-06-15T13:47:34Z</time>
      </trkpt>
      <trkpt lat="45.91105" lon="6.41969">
        <ele>1021.6</ele>
        <time>2022-06-15T13:47:35Z</time>
      </trkpt>
      <trkpt lat="45.91112" lon="6.41967">
        <ele>1021.1</ele>
        <time>2022-06-15T13:47:36Z</time>
      </trkpt>
      <trkpt lat="45.91119" lon="6.41964">
        <ele>1021.3</ele>
        <time>2022-06-15T13:47:37Z</time>
      </trkpt>
      <trkpt lat="45.91127" lon="6.41961">
        <ele>1021.5</ele>
        <time>2022-06-15T13:47:38Z</time>
      </trkpt>
      <trkpt lat="45.91134" lon="6.41956">
        <ele>1021.7</ele>
        <time>2022-06-15T13:47:39Z</time>
      </trkpt>
      <trkpt lat="45.91141" lon="6.41952">
        <ele>1022</ele>
        <time>2022-06-15T13:47:40Z</time>
      </trkpt>
      <trkpt lat="45.91149" lon="6.41946">
        <ele>1022.2</ele>
        <time>2022-06-15T13:47:41Z</time>
      </trkpt>
      <trkpt lat="45.91156" lon="6.41941">
        <ele>1022</ele>
        <time>2022-06-15T13:47:42Z</time>
      </trkpt>
      <trkpt lat="45.91164" lon="6.41936">
        <ele>1021.8</ele>
        <time>2022-06-15T13:47:43Z</time>
      </trkpt>
      <trkpt lat="45.91171" lon="6.41932">
        <ele>1022.2</ele>
        <time>2022-06-15T13:47:44Z</time>
      </trkpt>
      <trkpt lat="45.91178" lon="6.4193">
        <ele>1022.3</ele>
        <time>2022-06-15T13:47:45Z</time>
      </trkpt>
      <trkpt lat="45.91186" lon="6.41927">
        <ele>1022.3</ele>
        <time>2022-06-15T13:47:46Z</time>
      </trkpt>
      <trkpt lat="45.91193" lon="6.41925">
        <ele>1022.3</ele>
        <time>2022-06-15T13:47:47Z</time>
      </trkpt>
      <trkpt lat="45.912" lon="6.41923">
        <ele>1021.8</ele>
        <time>2022-06-15T13:47:48Z</time>
      </trkpt>
      <trkpt lat="45.91206" lon="6.4192">
        <ele>1021</ele>
        <time>2022-06-15T13:47:49Z</time>
      </trkpt>
      <trkpt lat="45.91213" lon="6.41916">
        <ele>1019.7</ele>
        <time>2022-06-15T13:47:50Z</time>
      </trkpt>
      <trkpt lat="45.9122" lon="6.41911">
        <ele>1018</ele>
        <time>2022-06-15T13:47:51Z</time>
      </trkpt>
      <trkpt lat="45.91227" lon="6.41905">
        <ele>1018.1</ele>
        <time>2022-06-15T13:47:52Z</time>
      </trkpt>
      <trkpt lat="45.91233" lon="6.41898">
        <ele>1019</ele>
        <time>2022-06-15T13:47:53Z</time>
      </trkpt>
      <trkpt lat="45.91239" lon="6.4189">
        <ele>1019.7</ele>
        <time>2022-06-15T13:47:54Z</time>
      </trkpt>
      <trkpt lat="45.91244" lon="6.4188">
        <ele>1019.4</ele>
        <time>2022-06-15T13:47:55Z</time>
      </trkpt>
      <trkpt lat="45.9125" lon="6.41871">
        <ele>1019.7</ele>
        <time>2022-06-15T13:47:56Z</time>
      </trkpt>
      <trkpt lat="45.91258" lon="6.41863">
        <ele>1019.9</ele>
        <time>2022-06-15T13:47:57Z</time>
      </trkpt>
      <trkpt lat="45.91265" lon="6.41856">
        <ele>1019.9</ele>
        <time>2022-06-15T13:47:58Z</time>
      </trkpt>
      <trkpt lat="45.91272" lon="6.4185">
        <ele>1020.6</ele>
        <time>2022-06-15T13:47:59Z</time>
      </trkpt>
      <trkpt lat="45.9128" lon="6.41846">
        <ele>1021.5</ele>
        <time>2022-06-15T13:48:00Z</time>
      </trkpt>
      <trkpt lat="45.91287" lon="6.41842">
        <ele>1020.3</ele>
        <time>2022-06-15T13:48:01Z</time>
      </trkpt>
      <trkpt lat="45.91294" lon="6.4184">
        <ele>1019.3</ele>
        <time>2022-06-15T13:48:02Z</time>
      </trkpt>
      <trkpt lat="45.91301" lon="6.41837">
        <ele>1018.2</ele>
        <time>2022-06-15T13:48:03Z</time>
      </trkpt>
      <trkpt lat="45.91309" lon="6.41834">
        <ele>1017.4</ele>
        <time>2022-06-15T13:48:04Z</time>
      </trkpt>
      <trkpt lat="45.91316" lon="6.41831">
        <ele>1016.9</ele>
        <time>2022-06-15T13:48:05Z</time>
      </trkpt>
      <trkpt lat="45.91324" lon="6.41828">
        <ele>1017</ele>
        <time>2022-06-15T13:48:06Z</time>
      </trkpt>
      <trkpt lat="45.91333" lon="6.41826">
        <ele>1017.4</ele>
        <time>2022-06-15T13:48:07Z</time>
      </trkpt>
      <trkpt lat="45.91342" lon="6.41824">
        <ele>1017.3</ele>
        <time>2022-06-15T13:48:08Z</time>
      </trkpt>
      <trkpt lat="45.9135" lon="6.41824">
        <ele>1017.3</ele>
        <time>2022-06-15T13:48:09Z</time>
      </trkpt>
      <trkpt lat="45.91359" lon="6.41824">
        <ele>1017.3</ele>
        <time>2022-06-15T13:48:10Z</time>
      </trkpt>
      <trkpt lat="45.91368" lon="6.41826">
        <ele>1016.5</ele>
        <time>2022-06-15T13:48:11Z</time>
      </trkpt>
      <trkpt lat="45.91377" lon="6.41829">
        <ele>1015.9</ele>
        <time>2022-06-15T13:48:12Z</time>
      </trkpt>
      <trkpt lat="45.91386" lon="6.41831">
        <ele>1015.6</ele>
        <time>2022-06-15T13:48:13Z</time>
      </trkpt>
      <trkpt lat="45.91394" lon="6.41833">
        <ele>1015.8</ele>
        <time>2022-06-15T13:48:14Z</time>
      </trkpt>
      <trkpt lat="45.91403" lon="6.41835">
        <ele>1015.9</ele>
        <time>2022-06-15T13:48:15Z</time>
      </trkpt>
      <trkpt lat="45.91412" lon="6.41837">
        <ele>1015.8</ele>
        <time>2022-06-15T13:48:16Z</time>
      </trkpt>
      <trkpt lat="45.9142" lon="6.41837">
        <ele>1015.4</ele>
        <time>2022-06-15T13:48:17Z</time>
      </trkpt>
      <trkpt lat="45.91429" lon="6.41837">
        <ele>1014.9</ele>
        <time>2022-06-15T13:48:18Z</time>
      </trkpt>
      <trkpt lat="45.91438" lon="6.41837">
        <ele>1014.3</ele>
        <time>2022-06-15T13:48:19Z</time>
      </trkpt>
      <trkpt lat="45.91447" lon="6.41837">
        <ele>1013.8</ele>
        <time>2022-06-15T13:48:20Z</time>
      </trkpt>
      <trkpt lat="45.91457" lon="6.41836">
        <ele>1013.3</ele>
        <time>2022-06-15T13:48:21Z</time>
      </trkpt>
      <trkpt lat="45.91466" lon="6.41837">
        <ele>1013.1</ele>
        <time>2022-06-15T13:48:22Z</time>
      </trkpt>
      <trkpt lat="45.91476" lon="6.41837">
        <ele>1012.8</ele>
        <time>2022-06-15T13:48:23Z</time>
      </trkpt>
      <trkpt lat="45.91486" lon="6.4184">
        <ele>1012.4</ele>
        <time>2022-06-15T13:48:24Z</time>
      </trkpt>
      <trkpt lat="45.91495" lon="6.41844">
        <ele>1012.1</ele>
        <time>2022-06-15T13:48:25Z</time>
      </trkpt>
      <trkpt lat="45.91504" lon="6.4185">
        <ele>1011.2</ele>
        <time>2022-06-15T13:48:26Z</time>
      </trkpt>
      <trkpt lat="45.91512" lon="6.41857">
        <ele>1010.1</ele>
        <time>2022-06-15T13:48:27Z</time>
      </trkpt>
      <trkpt lat="45.9152" lon="6.41865">
        <ele>1009.4</ele>
        <time>2022-06-15T13:48:28Z</time>
      </trkpt>
      <trkpt lat="45.91527" lon="6.41875">
        <ele>1008.2</ele>
        <time>2022-06-15T13:48:29Z</time>
      </trkpt>
      <trkpt lat="45.91535" lon="6.41884">
        <ele>1007</ele>
        <time>2022-06-15T13:48:30Z</time>
      </trkpt>
      <trkpt lat="45.91543" lon="6.41894">
        <ele>1007.1</ele>
        <time>2022-06-15T13:48:31Z</time>
      </trkpt>
      <trkpt lat="45.9155" lon="6.41903">
        <ele>1006.5</ele>
        <time>2022-06-15T13:48:32Z</time>
      </trkpt>
      <trkpt lat="45.91558" lon="6.41913">
        <ele>1005.5</ele>
        <time>2022-06-15T13:48:33Z</time>
      </trkpt>
      <trkpt lat="45.91565" lon="6.41923">
        <ele>1006</ele>
        <time>2022-06-15T13:48:34Z</time>
      </trkpt>
      <trkpt lat="45.91574" lon="6.41933">
        <ele>1005.4</ele>
        <time>2022-06-15T13:48:35Z</time>
      </trkpt>
      <trkpt lat="45.91582" lon="6.41943">
        <ele>1003.5</ele>
        <time>2022-06-15T13:48:36Z</time>
      </trkpt>
      <trkpt lat="45.9159" lon="6.41953">
        <ele>1003.6</ele>
        <time>2022-06-15T13:48:37Z</time>
      </trkpt>
      <trkpt lat="45.91599" lon="6.41963">
        <ele>1003.2</ele>
        <time>2022-06-15T13:48:38Z</time>
      </trkpt>
      <trkpt lat="45.91607" lon="6.41971">
        <ele>1001.9</ele>
        <time>2022-06-15T13:48:39Z</time>
      </trkpt>
      <trkpt lat="45.91617" lon="6.41977">
        <ele>1001.3</ele>
        <time>2022-06-15T13:48:40Z</time>
      </trkpt>
      <trkpt lat="45.91628" lon="6.41979">
        <ele>1000.9</ele>
        <time>2022-06-15T13:48:41Z</time>
      </trkpt>
      <trkpt lat="45.91638" lon="6.4198">
        <ele>1000.1</ele>
        <time>2022-06-15T13:48:42Z</time>
      </trkpt>
      <trkpt lat="45.91649" lon="6.41978">
        <ele>1000.3</ele>
        <time>2022-06-15T13:48:43Z</time>
      </trkpt>
      <trkpt lat="45.91659" lon="6.41974">
        <ele>999.5</ele>
        <time>2022-06-15T13:48:44Z</time>
      </trkpt>
      <trkpt lat="45.91669" lon="6.41967">
        <ele>998.1</ele>
        <time>2022-06-15T13:48:45Z</time>
      </trkpt>
      <trkpt lat="45.91678" lon="6.4196">
        <ele>997.6</ele>
        <time>2022-06-15T13:48:46Z</time>
      </trkpt>
      <trkpt lat="45.91687" lon="6.41951">
        <ele>997.1</ele>
        <time>2022-06-15T13:48:47Z</time>
      </trkpt>
      <trkpt lat="45.91695" lon="6.41942">
        <ele>996.4</ele>
        <time>2022-06-15T13:48:48Z</time>
      </trkpt>
      <trkpt lat="45.91703" lon="6.41932">
        <ele>995.2</ele>
        <time>2022-06-15T13:48:49Z</time>
      </trkpt>
      <trkpt lat="45.91711" lon="6.41922">
        <ele>994.7</ele>
        <time>2022-06-15T13:48:50Z</time>
      </trkpt>
      <trkpt lat="45.91719" lon="6.41912">
        <ele>994.8</ele>
        <time>2022-06-15T13:48:51Z</time>
      </trkpt>
      <trkpt lat="45.91727" lon="6.41902">
        <ele>995.7</ele>
        <time>2022-06-15T13:48:52Z</time>
      </trkpt>
      <trkpt lat="45.91734" lon="6.41892">
        <ele>996.4</ele>
        <time>2022-06-15T13:48:53Z</time>
      </trkpt>
      <trkpt lat="45.91741" lon="6.41882">
        <ele>996.4</ele>
        <time>2022-06-15T13:48:54Z</time>
      </trkpt>
      <trkpt lat="45.91748" lon="6.41871">
        <ele>995.7</ele>
        <time>2022-06-15T13:48:55Z</time>
      </trkpt>
      <trkpt lat="45.91754" lon="6.41861">
        <ele>995.7</ele>
        <time>2022-06-15T13:48:56Z</time>
      </trkpt>
      <trkpt lat="45.9176" lon="6.4185">
        <ele>996</ele>
        <time>2022-06-15T13:48:57Z</time>
      </trkpt>
      <trkpt lat="45.91766" lon="6.4184">
        <ele>995.8</ele>
        <time>2022-06-15T13:48:58Z</time>
      </trkpt>
      <trkpt lat="45.91772" lon="6.41829">
        <ele>995.6</ele>
        <time>2022-06-15T13:48:59Z</time>
      </trkpt>
      <trkpt lat="45.91777" lon="6.41819">
        <ele>995.1</ele>
        <time>2022-06-15T13:49:00Z</time>
      </trkpt>
      <trkpt lat="45.91783" lon="6.41808">
        <ele>994.8</ele>
        <time>2022-06-15T13:49:01Z</time>
      </trkpt>
      <trkpt lat="45.91789" lon="6.41798">
        <ele>994.8</ele>
        <time>2022-06-15T13:49:02Z</time>
      </trkpt>
      <trkpt lat="45.91795" lon="6.41787">
        <ele>994.7</ele>
        <time>2022-06-15T13:49:03Z</time>
      </trkpt>
      <trkpt lat="45.91801" lon="6.41775">
        <ele>994.3</ele>
        <time>2022-06-15T13:49:04Z</time>
      </trkpt>
      <trkpt lat="45.91807" lon="6.41764">
        <ele>993.9</ele>
        <time>2022-06-15T13:49:05Z</time>
      </trkpt>
      <trkpt lat="45.91813" lon="6.41752">
        <ele>993.8</ele>
        <time>2022-06-15T13:49:06Z</time>
      </trkpt>
      <trkpt lat="45.9182" lon="6.4174">
        <ele>993.4</ele>
        <time>2022-06-15T13:49:07Z</time>
      </trkpt>
      <trkpt lat="45.91827" lon="6.4173">
        <ele>992.8</ele>
        <time>2022-06-15T13:49:08Z</time>
      </trkpt>
      <trkpt lat="45.91834" lon="6.4172">
        <ele>992.7</ele>
        <time>2022-06-15T13:49:09Z</time>
      </trkpt>
      <trkpt lat="45.91842" lon="6.41711">
        <ele>992.3</ele>
        <time>2022-06-15T13:49:10Z</time>
      </trkpt>
      <trkpt lat="45.9185" lon="6.41702">
        <ele>991.7</ele>
        <time>2022-06-15T13:49:11Z</time>
      </trkpt>
      <trkpt lat="45.91857" lon="6.41694">
        <ele>990.8</ele>
        <time>2022-06-15T13:49:12Z</time>
      </trkpt>
      <trkpt lat="45.91865" lon="6.41685">
        <ele>991.6</ele>
        <time>2022-06-15T13:49:13Z</time>
      </trkpt>
      <trkpt lat="45.91872" lon="6.41676">
        <ele>993.1</ele>
        <time>2022-06-15T13:49:14Z</time>
      </trkpt>
      <trkpt lat="45.91879" lon="6.41666">
        <ele>993.6</ele>
        <time>2022-06-15T13:49:15Z</time>
      </trkpt>
      <trkpt lat="45.91885" lon="6.41656">
        <ele>993.3</ele>
        <time>2022-06-15T13:49:16Z</time>
      </trkpt>
      <trkpt lat="45.9189" lon="6.41645">
        <ele>992.7</ele>
        <time>2022-06-15T13:49:17Z</time>
      </trkpt>
      <trkpt lat="45.91896" lon="6.41635">
        <ele>992.6</ele>
        <time>2022-06-15T13:49:18Z</time>
      </trkpt>
      <trkpt lat="45.91901" lon="6.41624">
        <ele>992.9</ele>
        <time>2022-06-15T13:49:19Z</time>
      </trkpt>
      <trkpt lat="45.91905" lon="6.41613">
        <ele>993.5</ele>
        <time>2022-06-15T13:49:20Z</time>
      </trkpt>
      <trkpt lat="45.91911" lon="6.41603">
        <ele>993.5</ele>
        <time>2022-06-15T13:49:21Z</time>
      </trkpt>
      <trkpt lat="45.91916" lon="6.41592">
        <ele>993.4</ele>
        <time>2022-06-15T13:49:22Z</time>
      </trkpt>
      <trkpt lat="45.91921" lon="6.41583">
        <ele>991.6</ele>
        <time>2022-06-15T13:49:23Z</time>
      </trkpt>
      <trkpt lat="45.91927" lon="6.41574">
        <ele>990.5</ele>
        <time>2022-06-15T13:49:24Z</time>
      </trkpt>
      <trkpt lat="45.91934" lon="6.41566">
        <ele>989.5</ele>
        <time>2022-06-15T13:49:25Z</time>
      </trkpt>
      <trkpt lat="45.91941" lon="6.41559">
        <ele>988.5</ele>
        <time>2022-06-15T13:49:26Z</time>
      </trkpt>
      <trkpt lat="45.91949" lon="6.41553">
        <ele>987.9</ele>
        <time>2022-06-15T13:49:27Z</time>
      </trkpt>
      <trkpt lat="45.91957" lon="6.41548">
        <ele>987.8</ele>
        <time>2022-06-15T13:49:28Z</time>
      </trkpt>
      <trkpt lat="45.91965" lon="6.41544">
        <ele>987.8</ele>
        <time>2022-06-15T13:49:29Z</time>
      </trkpt>
      <trkpt lat="45.91974" lon="6.41539">
        <ele>987.9</ele>
        <time>2022-06-15T13:49:30Z</time>
      </trkpt>
      <trkpt lat="45.91982" lon="6.41534">
        <ele>987.9</ele>
        <time>2022-06-15T13:49:31Z</time>
      </trkpt>
      <trkpt lat="45.91991" lon="6.41529">
        <ele>987.3</ele>
        <time>2022-06-15T13:49:32Z</time>
      </trkpt>
      <trkpt lat="45.91999" lon="6.41523">
        <ele>986.5</ele>
        <time>2022-06-15T13:49:33Z</time>
      </trkpt>
      <trkpt lat="45.92007" lon="6.41517">
        <ele>987</ele>
        <time>2022-06-15T13:49:34Z</time>
      </trkpt>
      <trkpt lat="45.92015" lon="6.4151">
        <ele>987.1</ele>
        <time>2022-06-15T13:49:35Z</time>
      </trkpt>
      <trkpt lat="45.92022" lon="6.41502">
        <ele>986.7</ele>
        <time>2022-06-15T13:49:36Z</time>
      </trkpt>
      <trkpt lat="45.92029" lon="6.41494">
        <ele>986.1</ele>
        <time>2022-06-15T13:49:37Z</time>
      </trkpt>
      <trkpt lat="45.92037" lon="6.41487">
        <ele>985.4</ele>
        <time>2022-06-15T13:49:38Z</time>
      </trkpt>
      <trkpt lat="45.92045" lon="6.41482">
        <ele>985.2</ele>
        <time>2022-06-15T13:49:39Z</time>
      </trkpt>
      <trkpt lat="45.92054" lon="6.4148">
        <ele>985.5</ele>
        <time>2022-06-15T13:49:40Z</time>
      </trkpt>
      <trkpt lat="45.92064" lon="6.4148">
        <ele>984.7</ele>
        <time>2022-06-15T13:49:41Z</time>
      </trkpt>
      <trkpt lat="45.92073" lon="6.41484">
        <ele>984</ele>
        <time>2022-06-15T13:49:42Z</time>
      </trkpt>
      <trkpt lat="45.92082" lon="6.4149">
        <ele>983.8</ele>
        <time>2022-06-15T13:49:43Z</time>
      </trkpt>
      <trkpt lat="45.92089" lon="6.41498">
        <ele>983.6</ele>
        <time>2022-06-15T13:49:44Z</time>
      </trkpt>
      <trkpt lat="45.92097" lon="6.41506">
        <ele>983.3</ele>
        <time>2022-06-15T13:49:45Z</time>
      </trkpt>
      <trkpt lat="45.92104" lon="6.41515">
        <ele>983.1</ele>
        <time>2022-06-15T13:49:46Z</time>
      </trkpt>
      <trkpt lat="45.92111" lon="6.41524">
        <ele>982.6</ele>
        <time>2022-06-15T13:49:47Z</time>
      </trkpt>
      <trkpt lat="45.92119" lon="6.41531">
        <ele>982.4</ele>
        <time>2022-06-15T13:49:48Z</time>
      </trkpt>
      <trkpt lat="45.92127" lon="6.41538">
        <ele>981.9</ele>
        <time>2022-06-15T13:49:49Z</time>
      </trkpt>
      <trkpt lat="45.92135" lon="6.41543">
        <ele>981</ele>
        <time>2022-06-15T13:49:50Z</time>
      </trkpt>
      <trkpt lat="45.92145" lon="6.41545">
        <ele>980.8</ele>
        <time>2022-06-15T13:49:51Z</time>
      </trkpt>
      <trkpt lat="45.92154" lon="6.41545">
        <ele>981</ele>
        <time>2022-06-15T13:49:52Z</time>
      </trkpt>
      <trkpt lat="45.92162" lon="6.41541">
        <ele>980.8</ele>
        <time>2022-06-15T13:49:53Z</time>
      </trkpt>
      <trkpt lat="45.92171" lon="6.41535">
        <ele>981.3</ele>
        <time>2022-06-15T13:49:54Z</time>
      </trkpt>
      <trkpt lat="45.92178" lon="6.41526">
        <ele>982.2</ele>
        <time>2022-06-15T13:49:55Z</time>
      </trkpt>
      <trkpt lat="45.92185" lon="6.41517">
        <ele>981.8</ele>
        <time>2022-06-15T13:49:56Z</time>
      </trkpt>
      <trkpt lat="45.92192" lon="6.41508">
        <ele>980.5</ele>
        <time>2022-06-15T13:49:57Z</time>
      </trkpt>
      <trkpt lat="45.92199" lon="6.41499">
        <ele>979.4</ele>
        <time>2022-06-15T13:49:58Z</time>
      </trkpt>
      <trkpt lat="45.92206" lon="6.4149">
        <ele>979.4</ele>
        <time>2022-06-15T13:49:59Z</time>
      </trkpt>
      <trkpt lat="45.92213" lon="6.41481">
        <ele>978.6</ele>
        <time>2022-06-15T13:50:00Z</time>
      </trkpt>
      <trkpt lat="45.92221" lon="6.41472">
        <ele>977.6</ele>
        <time>2022-06-15T13:50:01Z</time>
      </trkpt>
      <trkpt lat="45.92228" lon="6.41464">
        <ele>978</ele>
        <time>2022-06-15T13:50:02Z</time>
      </trkpt>
      <trkpt lat="45.92237" lon="6.41456">
        <ele>978.3</ele>
        <time>2022-06-15T13:50:03Z</time>
      </trkpt>
      <trkpt lat="45.92246" lon="6.4145">
        <ele>978.1</ele>
        <time>2022-06-15T13:50:04Z</time>
      </trkpt>
      <trkpt lat="45.92255" lon="6.41443">
        <ele>977.1</ele>
        <time>2022-06-15T13:50:05Z</time>
      </trkpt>
      <trkpt lat="45.92265" lon="6.41437">
        <ele>976.6</ele>
        <time>2022-06-15T13:50:06Z</time>
      </trkpt>
      <trkpt lat="45.92274" lon="6.41429">
        <ele>976</ele>
        <time>2022-06-15T13:50:07Z</time>
      </trkpt>
      <trkpt lat="45.92283" lon="6.4142">
        <ele>975.1</ele>
        <time>2022-06-15T13:50:08Z</time>
      </trkpt>
      <trkpt lat="45.92291" lon="6.4141">
        <ele>974.7</ele>
        <time>2022-06-15T13:50:09Z</time>
      </trkpt>
      <trkpt lat="45.92299" lon="6.41398">
        <ele>974</ele>
        <time>2022-06-15T13:50:10Z</time>
      </trkpt>
      <trkpt lat="45.92306" lon="6.41386">
        <ele>972.9</ele>
        <time>2022-06-15T13:50:11Z</time>
      </trkpt>
      <trkpt lat="45.92313" lon="6.41373">
        <ele>973</ele>
        <time>2022-06-15T13:50:12Z</time>
      </trkpt>
      <trkpt lat="45.92319" lon="6.41362">
        <ele>973</ele>
        <time>2022-06-15T13:50:13Z</time>
      </trkpt>
      <trkpt lat="45.92324" lon="6.41351">
        <ele>972.6</ele>
        <time>2022-06-15T13:50:14Z</time>
      </trkpt>
      <trkpt lat="45.92329" lon="6.41343">
        <ele>972.3</ele>
        <time>2022-06-15T13:50:15Z</time>
      </trkpt>
      <trkpt lat="45.92332" lon="6.41337">
        <ele>972.1</ele>
        <time>2022-06-15T13:50:16Z</time>
      </trkpt>
      <trkpt lat="45.92334" lon="6.41333">
        <ele>972</ele>
        <time>2022-06-15T13:50:17Z</time>
      </trkpt>
      <trkpt lat="45.92336" lon="6.41331">
        <ele>971.9</ele>
        <time>2022-06-15T13:50:18Z</time>
      </trkpt>
      <trkpt lat="45.92337" lon="6.41328">
        <ele>971.8</ele>
        <time>2022-06-15T13:50:19Z</time>
      </trkpt>
      <trkpt lat="45.92338" lon="6.41326">
        <ele>971.7</ele>
        <time>2022-06-15T13:50:20Z</time>
      </trkpt>
      <trkpt lat="45.92339" lon="6.41324">
        <ele>971.6</ele>
        <time>2022-06-15T13:50:21Z</time>
      </trkpt>
      <trkpt lat="45.9234" lon="6.41322">
        <ele>971.6</ele>
        <time>2022-06-15T13:50:22Z</time>
      </trkpt>
      <trkpt lat="45.92341" lon="6.41322">
        <ele>971.6</ele>
        <time>2022-06-15T13:50:23Z</time>
      </trkpt>
      <trkpt lat="45.92341" lon="6.41322">
        <ele>971.6</ele>
        <time>2022-06-15T13:50:24Z</time>
      </trkpt>
      <trkpt lat="45.92341" lon="6.41322">
        <ele>971.6</ele>
        <time>2022-06-15T13:50:25Z</time>
      </trkpt>
      <trkpt lat="45.92341" lon="6.41301">
        <ele>970.8</ele>
        <time>2022-06-15T13:51:03Z</time>
      </trkpt>
      <trkpt lat="45.92342" lon="6.41297">
        <ele>970.7</ele>
        <time>2022-06-15T13:51:04Z</time>
      </trkpt>
      <trkpt lat="45.92343" lon="6.41292">
        <ele>970.5</ele>
        <time>2022-06-15T13:51:05Z</time>
      </trkpt>
      <trkpt lat="45.92343" lon="6.41287">
        <ele>970.3</ele>
        <time>2022-06-15T13:51:06Z</time>
      </trkpt>
      <trkpt lat="45.92343" lon="6.41282">
        <ele>970.1</ele>
        <time>2022-06-15T13:51:07Z</time>
      </trkpt>
      <trkpt lat="45.92342" lon="6.41276">
        <ele>969.9</ele>
        <time>2022-06-15T13:51:08Z</time>
      </trkpt>
      <trkpt lat="45.92341" lon="6.4127">
        <ele>969.7</ele>
        <time>2022-06-15T13:51:09Z</time>
      </trkpt>
      <trkpt lat="45.9234" lon="6.41265">
        <ele>969.4</ele>
        <time>2022-06-15T13:51:10Z</time>
      </trkpt>
      <trkpt lat="45.92339" lon="6.41259">
        <ele>969.2</ele>
        <time>2022-06-15T13:51:11Z</time>
      </trkpt>
      <trkpt lat="45.92339" lon="6.41253">
        <ele>969</ele>
        <time>2022-06-15T13:51:12Z</time>
      </trkpt>
      <trkpt lat="45.92338" lon="6.41247">
        <ele>968.7</ele>
        <time>2022-06-15T13:51:13Z</time>
      </trkpt>
      <trkpt lat="45.92337" lon="6.41241">
        <ele>968.5</ele>
        <time>2022-06-15T13:51:14Z</time>
      </trkpt>
      <trkpt lat="45.92335" lon="6.41234">
        <ele>968.3</ele>
        <time>2022-06-15T13:51:15Z</time>
      </trkpt>
      <trkpt lat="45.92332" lon="6.41227">
        <ele>968.2</ele>
        <time>2022-06-15T13:51:16Z</time>
      </trkpt>
      <trkpt lat="45.9233" lon="6.41221">
        <ele>967.8</ele>
        <time>2022-06-15T13:51:17Z</time>
      </trkpt>
      <trkpt lat="45.92328" lon="6.41215">
        <ele>967.1</ele>
        <time>2022-06-15T13:51:18Z</time>
      </trkpt>
      <trkpt lat="45.92324" lon="6.41209">
        <ele>966.5</ele>
        <time>2022-06-15T13:51:19Z</time>
      </trkpt>
      <trkpt lat="45.92321" lon="6.41203">
        <ele>966.1</ele>
        <time>2022-06-15T13:51:20Z</time>
      </trkpt>
      <trkpt lat="45.92317" lon="6.41197">
        <ele>965.9</ele>
        <time>2022-06-15T13:51:21Z</time>
      </trkpt>
      <trkpt lat="45.92314" lon="6.41191">
        <ele>965.9</ele>
        <time>2022-06-15T13:51:22Z</time>
      </trkpt>
      <trkpt lat="45.92311" lon="6.41185">
        <ele>965.8</ele>
        <time>2022-06-15T13:51:23Z</time>
      </trkpt>
      <trkpt lat="45.92308" lon="6.41179">
        <ele>965.7</ele>
        <time>2022-06-15T13:51:24Z</time>
      </trkpt>
      <trkpt lat="45.92303" lon="6.41174">
        <ele>965.5</ele>
        <time>2022-06-15T13:51:25Z</time>
      </trkpt>
      <trkpt lat="45.92299" lon="6.41169">
        <ele>965.1</ele>
        <time>2022-06-15T13:51:26Z</time>
      </trkpt>
      <trkpt lat="45.92295" lon="6.41164">
        <ele>964.8</ele>
        <time>2022-06-15T13:51:27Z</time>
      </trkpt>
      <trkpt lat="45.92291" lon="6.41159">
        <ele>964.5</ele>
        <time>2022-06-15T13:51:28Z</time>
      </trkpt>
      <trkpt lat="45.92288" lon="6.41154">
        <ele>964.1</ele>
        <time>2022-06-15T13:51:29Z</time>
      </trkpt>
      <trkpt lat="45.92285" lon="6.41148">
        <ele>963.6</ele>
        <time>2022-06-15T13:51:30Z</time>
      </trkpt>
      <trkpt lat="45.92282" lon="6.41141">
        <ele>963.1</ele>
        <time>2022-06-15T13:51:31Z</time>
      </trkpt>
      <trkpt lat="45.92279" lon="6.41133">
        <ele>962.8</ele>
        <time>2022-06-15T13:51:32Z</time>
      </trkpt>
      <trkpt lat="45.92276" lon="6.41125">
        <ele>962.5</ele>
        <time>2022-06-15T13:51:33Z</time>
      </trkpt>
      <trkpt lat="45.92274" lon="6.41117">
        <ele>962.2</ele>
        <time>2022-06-15T13:51:34Z</time>
      </trkpt>
      <trkpt lat="45.92272" lon="6.41108">
        <ele>961.8</ele>
        <time>2022-06-15T13:51:35Z</time>
      </trkpt>
      <trkpt lat="45.92271" lon="6.41099">
        <ele>961.2</ele>
        <time>2022-06-15T13:51:36Z</time>
      </trkpt>
      <trkpt lat="45.9227" lon="6.4109">
        <ele>960.7</ele>
        <time>2022-06-15T13:51:37Z</time>
      </trkpt>
      <trkpt lat="45.92269" lon="6.41082">
        <ele>960.3</ele>
        <time>2022-06-15T13:51:38Z</time>
      </trkpt>
      <trkpt lat="45.92269" lon="6.41075">
        <ele>960.2</ele>
        <time>2022-06-15T13:51:39Z</time>
      </trkpt>
      <trkpt lat="45.92269" lon="6.41072">
        <ele>960.2</ele>
        <time>2022-06-15T13:51:40Z</time>
      </trkpt>
      <trkpt lat="45.9227" lon="6.41068">
        <ele>960.1</ele>
        <time>2022-06-15T13:51:41Z</time>
      </trkpt>
      <trkpt lat="45.92271" lon="6.41064">
        <ele>960.1</ele>
        <time>2022-06-15T13:51:42Z</time>
      </trkpt>
      <trkpt lat="45.92272" lon="6.4106">
        <ele>960</ele>
        <time>2022-06-15T13:51:43Z</time>
      </trkpt>
      <trkpt lat="45.92275" lon="6.41055">
        <ele>960</ele>
        <time>2022-06-15T13:51:44Z</time>
      </trkpt>
      <trkpt lat="45.92279" lon="6.41051">
        <ele>959.8</ele>
        <time>2022-06-15T13:51:45Z</time>
      </trkpt>
      <trkpt lat="45.92283" lon="6.41047">
        <ele>959.6</ele>
        <time>2022-06-15T13:51:46Z</time>
      </trkpt>
      <trkpt lat="45.92288" lon="6.41044">
        <ele>959.4</ele>
        <time>2022-06-15T13:51:47Z</time>
      </trkpt>
      <trkpt lat="45.92294" lon="6.41042">
        <ele>959.2</ele>
        <time>2022-06-15T13:51:48Z</time>
      </trkpt>
      <trkpt lat="45.923" lon="6.4104">
        <ele>959.1</ele>
        <time>2022-06-15T13:51:49Z</time>
      </trkpt>
      <trkpt lat="45.92306" lon="6.41037">
        <ele>959</ele>
        <time>2022-06-15T13:51:50Z</time>
      </trkpt>
      <trkpt lat="45.92313" lon="6.41033">
        <ele>959</ele>
        <time>2022-06-15T13:51:51Z</time>
      </trkpt>
      <trkpt lat="45.92319" lon="6.4103">
        <ele>959</ele>
        <time>2022-06-15T13:51:52Z</time>
      </trkpt>
      <trkpt lat="45.92326" lon="6.41026">
        <ele>958.9</ele>
        <time>2022-06-15T13:51:53Z</time>
      </trkpt>
      <trkpt lat="45.92333" lon="6.41023">
        <ele>958.8</ele>
        <time>2022-06-15T13:51:54Z</time>
      </trkpt>
      <trkpt lat="45.92341" lon="6.4102">
        <ele>958.5</ele>
        <time>2022-06-15T13:51:55Z</time>
      </trkpt>
      <trkpt lat="45.92348" lon="6.41016">
        <ele>958.3</ele>
        <time>2022-06-15T13:51:56Z</time>
      </trkpt>
      <trkpt lat="45.92356" lon="6.41013">
        <ele>958.1</ele>
        <time>2022-06-15T13:51:57Z</time>
      </trkpt>
      <trkpt lat="45.92363" lon="6.4101">
        <ele>958</ele>
        <time>2022-06-15T13:51:58Z</time>
      </trkpt>
      <trkpt lat="45.92371" lon="6.41005">
        <ele>958</ele>
        <time>2022-06-15T13:51:59Z</time>
      </trkpt>
      <trkpt lat="45.92378" lon="6.41">
        <ele>958</ele>
        <time>2022-06-15T13:52:00Z</time>
      </trkpt>
      <trkpt lat="45.92386" lon="6.40995">
        <ele>958</ele>
        <time>2022-06-15T13:52:01Z</time>
      </trkpt>
      <trkpt lat="45.92394" lon="6.4099">
        <ele>957.8</ele>
        <time>2022-06-15T13:52:02Z</time>
      </trkpt>
      <trkpt lat="45.92401" lon="6.40984">
        <ele>957.3</ele>
        <time>2022-06-15T13:52:03Z</time>
      </trkpt>
      <trkpt lat="45.92409" lon="6.40977">
        <ele>956.7</ele>
        <time>2022-06-15T13:52:04Z</time>
      </trkpt>
      <trkpt lat="45.92417" lon="6.40971">
        <ele>956</ele>
        <time>2022-06-15T13:52:05Z</time>
      </trkpt>
      <trkpt lat="45.92425" lon="6.40964">
        <ele>955.6</ele>
        <time>2022-06-15T13:52:06Z</time>
      </trkpt>
      <trkpt lat="45.92433" lon="6.40957">
        <ele>955</ele>
        <time>2022-06-15T13:52:07Z</time>
      </trkpt>
      <trkpt lat="45.92442" lon="6.40951">
        <ele>954.3</ele>
        <time>2022-06-15T13:52:08Z</time>
      </trkpt>
      <trkpt lat="45.92451" lon="6.40946">
        <ele>953.8</ele>
        <time>2022-06-15T13:52:09Z</time>
      </trkpt>
      <trkpt lat="45.92462" lon="6.40943">
        <ele>953.4</ele>
        <time>2022-06-15T13:52:10Z</time>
      </trkpt>
      <trkpt lat="45.92472" lon="6.40942">
        <ele>953</ele>
        <time>2022-06-15T13:52:11Z</time>
      </trkpt>
      <trkpt lat="45.92483" lon="6.40944">
        <ele>952.3</ele>
        <time>2022-06-15T13:52:12Z</time>
      </trkpt>
      <trkpt lat="45.92493" lon="6.40948">
        <ele>951.6</ele>
        <time>2022-06-15T13:52:13Z</time>
      </trkpt>
      <trkpt lat="45.92504" lon="6.40955">
        <ele>950.8</ele>
        <time>2022-06-15T13:52:14Z</time>
      </trkpt>
      <trkpt lat="45.92514" lon="6.40964">
        <ele>949.8</ele>
        <time>2022-06-15T13:52:15Z</time>
      </trkpt>
      <trkpt lat="45.92522" lon="6.40975">
        <ele>948.8</ele>
        <time>2022-06-15T13:52:16Z</time>
      </trkpt>
      <trkpt lat="45.9253" lon="6.40987">
        <ele>947.9</ele>
        <time>2022-06-15T13:52:17Z</time>
      </trkpt>
      <trkpt lat="45.92538" lon="6.40999">
        <ele>947</ele>
        <time>2022-06-15T13:52:18Z</time>
      </trkpt>
      <trkpt lat="45.92546" lon="6.41011">
        <ele>946.7</ele>
        <time>2022-06-15T13:52:19Z</time>
      </trkpt>
      <trkpt lat="45.92554" lon="6.41024">
        <ele>946</ele>
        <time>2022-06-15T13:52:20Z</time>
      </trkpt>
      <trkpt lat="45.92562" lon="6.41037">
        <ele>945.7</ele>
        <time>2022-06-15T13:52:21Z</time>
      </trkpt>
      <trkpt lat="45.92569" lon="6.41051">
        <ele>945.5</ele>
        <time>2022-06-15T13:52:22Z</time>
      </trkpt>
      <trkpt lat="45.92576" lon="6.41066">
        <ele>944.7</ele>
        <time>2022-06-15T13:52:23Z</time>
      </trkpt>
      <trkpt lat="45.92583" lon="6.41081">
        <ele>943.2</ele>
        <time>2022-06-15T13:52:24Z</time>
      </trkpt>
      <trkpt lat="45.9259" lon="6.41096">
        <ele>942.9</ele>
        <time>2022-06-15T13:52:25Z</time>
      </trkpt>
      <trkpt lat="45.92596" lon="6.41112">
        <ele>942.4</ele>
        <time>2022-06-15T13:52:26Z</time>
      </trkpt>
      <trkpt lat="45.92604" lon="6.41126">
        <ele>941.1</ele>
        <time>2022-06-15T13:52:27Z</time>
      </trkpt>
      <trkpt lat="45.92613" lon="6.4114">
        <ele>939.7</ele>
        <time>2022-06-15T13:52:28Z</time>
      </trkpt>
      <trkpt lat="45.92623" lon="6.41152">
        <ele>938.3</ele>
        <time>2022-06-15T13:52:29Z</time>
      </trkpt>
      <trkpt lat="45.92634" lon="6.41162">
        <ele>937.7</ele>
        <time>2022-06-15T13:52:30Z</time>
      </trkpt>
      <trkpt lat="45.92646" lon="6.41169">
        <ele>937.9</ele>
        <time>2022-06-15T13:52:31Z</time>
      </trkpt>
      <trkpt lat="45.92659" lon="6.41175">
        <ele>937.9</ele>
        <time>2022-06-15T13:52:32Z</time>
      </trkpt>
      <trkpt lat="45.92671" lon="6.41181">
        <ele>937.2</ele>
        <time>2022-06-15T13:52:33Z</time>
      </trkpt>
      <trkpt lat="45.92684" lon="6.41187">
        <ele>935.7</ele>
        <time>2022-06-15T13:52:34Z</time>
      </trkpt>
      <trkpt lat="45.92697" lon="6.41193">
        <ele>934.3</ele>
        <time>2022-06-15T13:52:35Z</time>
      </trkpt>
      <trkpt lat="45.9271" lon="6.41198">
        <ele>933.9</ele>
        <time>2022-06-15T13:52:36Z</time>
      </trkpt>
      <trkpt lat="45.92723" lon="6.41203">
        <ele>933.2</ele>
        <time>2022-06-15T13:52:37Z</time>
      </trkpt>
      <trkpt lat="45.92735" lon="6.41207">
        <ele>932.6</ele>
        <time>2022-06-15T13:52:38Z</time>
      </trkpt>
      <trkpt lat="45.92748" lon="6.4121">
        <ele>931.4</ele>
        <time>2022-06-15T13:52:39Z</time>
      </trkpt>
      <trkpt lat="45.92761" lon="6.41212">
        <ele>930.4</ele>
        <time>2022-06-15T13:52:40Z</time>
      </trkpt>
      <trkpt lat="45.92775" lon="6.41214">
        <ele>929.5</ele>
        <time>2022-06-15T13:52:41Z</time>
      </trkpt>
      <trkpt lat="45.92788" lon="6.41215">
        <ele>928.7</ele>
        <time>2022-06-15T13:52:42Z</time>
      </trkpt>
      <trkpt lat="45.92801" lon="6.41216">
        <ele>927.8</ele>
        <time>2022-06-15T13:52:43Z</time>
      </trkpt>
      <trkpt lat="45.92815" lon="6.41217">
        <ele>927</ele>
        <time>2022-06-15T13:52:44Z</time>
      </trkpt>
      <trkpt lat="45.92828" lon="6.41218">
        <ele>926.2</ele>
        <time>2022-06-15T13:52:45Z</time>
      </trkpt>
      <trkpt lat="45.92842" lon="6.4122">
        <ele>925.7</ele>
        <time>2022-06-15T13:52:46Z</time>
      </trkpt>
      <trkpt lat="45.92855" lon="6.41221">
        <ele>925.2</ele>
        <time>2022-06-15T13:52:47Z</time>
      </trkpt>
      <trkpt lat="45.92869" lon="6.41222">
        <ele>924.1</ele>
        <time>2022-06-15T13:52:48Z</time>
      </trkpt>
      <trkpt lat="45.92883" lon="6.41224">
        <ele>923.1</ele>
        <time>2022-06-15T13:52:49Z</time>
      </trkpt>
      <trkpt lat="45.92896" lon="6.41224">
        <ele>922.3</ele>
        <time>2022-06-15T13:52:50Z</time>
      </trkpt>
      <trkpt lat="45.92909" lon="6.41224">
        <ele>921.7</ele>
        <time>2022-06-15T13:52:51Z</time>
      </trkpt>
      <trkpt lat="45.92923" lon="6.41221">
        <ele>920.9</ele>
        <time>2022-06-15T13:52:52Z</time>
      </trkpt>
      <trkpt lat="45.92936" lon="6.41217">
        <ele>920.4</ele>
        <time>2022-06-15T13:52:53Z</time>
      </trkpt>
      <trkpt lat="45.92949" lon="6.41212">
        <ele>919.8</ele>
        <time>2022-06-15T13:52:54Z</time>
      </trkpt>
      <trkpt lat="45.92964" lon="6.4121">
        <ele>919</ele>
        <time>2022-06-15T13:52:55Z</time>
      </trkpt>
      <trkpt lat="45.92978" lon="6.4121">
        <ele>917.9</ele>
        <time>2022-06-15T13:52:56Z</time>
      </trkpt>
      <trkpt lat="45.92993" lon="6.41211">
        <ele>916</ele>
        <time>2022-06-15T13:52:57Z</time>
      </trkpt>
      <trkpt lat="45.93007" lon="6.41216">
        <ele>914.9</ele>
        <time>2022-06-15T13:52:58Z</time>
      </trkpt>
      <trkpt lat="45.93021" lon="6.41223">
        <ele>914.2</ele>
        <time>2022-06-15T13:52:59Z</time>
      </trkpt>
      <trkpt lat="45.93034" lon="6.4123">
        <ele>913.3</ele>
        <time>2022-06-15T13:53:00Z</time>
      </trkpt>
      <trkpt lat="45.93047" lon="6.41239">
        <ele>912</ele>
        <time>2022-06-15T13:53:01Z</time>
      </trkpt>
      <trkpt lat="45.93061" lon="6.41247">
        <ele>910.5</ele>
        <time>2022-06-15T13:53:02Z</time>
      </trkpt>
      <trkpt lat="45.93075" lon="6.41256">
        <ele>910.5</ele>
        <time>2022-06-15T13:53:03Z</time>
      </trkpt>
      <trkpt lat="45.93089" lon="6.41265">
        <ele>910.1</ele>
        <time>2022-06-15T13:53:04Z</time>
      </trkpt>
      <trkpt lat="45.93102" lon="6.41274">
        <ele>909</ele>
        <time>2022-06-15T13:53:05Z</time>
      </trkpt>
      <trkpt lat="45.93116" lon="6.41283">
        <ele>907.7</ele>
        <time>2022-06-15T13:53:06Z</time>
      </trkpt>
      <trkpt lat="45.93129" lon="6.41293">
        <ele>906</ele>
        <time>2022-06-15T13:53:07Z</time>
      </trkpt>
      <trkpt lat="45.93142" lon="6.41304">
        <ele>905.1</ele>
        <time>2022-06-15T13:53:08Z</time>
      </trkpt>
      <trkpt lat="45.93156" lon="6.41314">
        <ele>904.5</ele>
        <time>2022-06-15T13:53:09Z</time>
      </trkpt>
      <trkpt lat="45.9317" lon="6.41324">
        <ele>902.9</ele>
        <time>2022-06-15T13:53:10Z</time>
      </trkpt>
      <trkpt lat="45.93183" lon="6.41334">
        <ele>902.3</ele>
        <time>2022-06-15T13:53:11Z</time>
      </trkpt>
      <trkpt lat="45.93197" lon="6.41345">
        <ele>902.2</ele>
        <time>2022-06-15T13:53:12Z</time>
      </trkpt>
      <trkpt lat="45.9321" lon="6.41357">
        <ele>901.1</ele>
        <time>2022-06-15T13:53:13Z</time>
      </trkpt>
      <trkpt lat="45.93223" lon="6.41372">
        <ele>899.1</ele>
        <time>2022-06-15T13:53:14Z</time>
      </trkpt>
      <trkpt lat="45.93236" lon="6.41387">
        <ele>897.9</ele>
        <time>2022-06-15T13:53:15Z</time>
      </trkpt>
      <trkpt lat="45.93248" lon="6.41402">
        <ele>896.8</ele>
        <time>2022-06-15T13:53:16Z</time>
      </trkpt>
      <trkpt lat="45.9326" lon="6.41417">
        <ele>896.4</ele>
        <time>2022-06-15T13:53:17Z</time>
      </trkpt>
      <trkpt lat="45.93272" lon="6.41433">
        <ele>896</ele>
        <time>2022-06-15T13:53:18Z</time>
      </trkpt>
      <trkpt lat="45.93284" lon="6.41448">
        <ele>894.3</ele>
        <time>2022-06-15T13:53:19Z</time>
      </trkpt>
      <trkpt lat="45.93296" lon="6.41464">
        <ele>893.9</ele>
        <time>2022-06-15T13:53:20Z</time>
      </trkpt>
      <trkpt lat="45.93308" lon="6.41478">
        <ele>893</ele>
        <time>2022-06-15T13:53:21Z</time>
      </trkpt>
      <trkpt lat="45.9332" lon="6.41493">
        <ele>891.7</ele>
        <time>2022-06-15T13:53:22Z</time>
      </trkpt>
      <trkpt lat="45.93332" lon="6.41507">
        <ele>891.3</ele>
        <time>2022-06-15T13:53:23Z</time>
      </trkpt>
      <trkpt lat="45.93344" lon="6.4152">
        <ele>891.1</ele>
        <time>2022-06-15T13:53:24Z</time>
      </trkpt>
      <trkpt lat="45.93358" lon="6.41532">
        <ele>890.2</ele>
        <time>2022-06-15T13:53:25Z</time>
      </trkpt>
      <trkpt lat="45.93371" lon="6.41542">
        <ele>889.7</ele>
        <time>2022-06-15T13:53:26Z</time>
      </trkpt>
      <trkpt lat="45.93386" lon="6.4155">
        <ele>888.3</ele>
        <time>2022-06-15T13:53:27Z</time>
      </trkpt>
      <trkpt lat="45.93401" lon="6.41555">
        <ele>887.5</ele>
        <time>2022-06-15T13:53:28Z</time>
      </trkpt>
      <trkpt lat="45.93416" lon="6.41558">
        <ele>887.1</ele>
        <time>2022-06-15T13:53:29Z</time>
      </trkpt>
      <trkpt lat="45.93431" lon="6.41559">
        <ele>885.2</ele>
        <time>2022-06-15T13:53:30Z</time>
      </trkpt>
      <trkpt lat="45.93445" lon="6.41559">
        <ele>883.4</ele>
        <time>2022-06-15T13:53:31Z</time>
      </trkpt>
      <trkpt lat="45.93458" lon="6.4156">
        <ele>885.7</ele>
        <time>2022-06-15T13:53:32Z</time>
      </trkpt>
      <trkpt lat="45.9347" lon="6.4156">
        <ele>887.8</ele>
        <time>2022-06-15T13:53:33Z</time>
      </trkpt>
      <trkpt lat="45.93482" lon="6.4156">
        <ele>888.9</ele>
        <time>2022-06-15T13:53:34Z</time>
      </trkpt>
      <trkpt lat="45.93493" lon="6.41561">
        <ele>889.7</ele>
        <time>2022-06-15T13:53:35Z</time>
      </trkpt>
      <trkpt lat="45.93504" lon="6.41562">
        <ele>890.4</ele>
        <time>2022-06-15T13:53:36Z</time>
      </trkpt>
      <trkpt lat="45.93515" lon="6.41563">
        <ele>891</ele>
        <time>2022-06-15T13:53:37Z</time>
      </trkpt>
      <trkpt lat="45.93524" lon="6.41566">
        <ele>891.3</ele>
        <time>2022-06-15T13:53:38Z</time>
      </trkpt>
      <trkpt lat="45.93534" lon="6.41569">
        <ele>892.5</ele>
        <time>2022-06-15T13:53:39Z</time>
      </trkpt>
      <trkpt lat="45.93542" lon="6.41574">
        <ele>893.8</ele>
        <time>2022-06-15T13:53:40Z</time>
      </trkpt>
      <trkpt lat="45.9355" lon="6.41579">
        <ele>894.6</ele>
        <time>2022-06-15T13:53:41Z</time>
      </trkpt>
      <trkpt lat="45.93557" lon="6.41585">
        <ele>895</ele>
        <time>2022-06-15T13:53:42Z</time>
      </trkpt>
      <trkpt lat="45.93564" lon="6.41591">
        <ele>895.4</ele>
        <time>2022-06-15T13:53:43Z</time>
      </trkpt>
      <trkpt lat="45.9357" lon="6.41597">
        <ele>895.7</ele>
        <time>2022-06-15T13:53:44Z</time>
      </trkpt>
      <trkpt lat="45.93576" lon="6.41603">
        <ele>896.2</ele>
        <time>2022-06-15T13:53:45Z</time>
      </trkpt>
      <trkpt lat="45.93581" lon="6.41608">
        <ele>896.8</ele>
        <time>2022-06-15T13:53:46Z</time>
      </trkpt>
      <trkpt lat="45.93587" lon="6.41614">
        <ele>897.2</ele>
        <time>2022-06-15T13:53:47Z</time>
      </trkpt>
      <trkpt lat="45.93592" lon="6.41619">
        <ele>897.3</ele>
        <time>2022-06-15T13:53:48Z</time>
      </trkpt>
      <trkpt lat="45.93597" lon="6.41625">
        <ele>897.6</ele>
        <time>2022-06-15T13:53:49Z</time>
      </trkpt>
      <trkpt lat="45.93602" lon="6.4163">
        <ele>897.9</ele>
        <time>2022-06-15T13:53:50Z</time>
      </trkpt>
      <trkpt lat="45.93607" lon="6.41635">
        <ele>898.4</ele>
        <time>2022-06-15T13:53:51Z</time>
      </trkpt>
      <trkpt lat="45.93612" lon="6.4164">
        <ele>898.9</ele>
        <time>2022-06-15T13:53:52Z</time>
      </trkpt>
      <trkpt lat="45.93616" lon="6.41645">
        <ele>898.9</ele>
        <time>2022-06-15T13:53:53Z</time>
      </trkpt>
      <trkpt lat="45.93621" lon="6.4165">
        <ele>899.1</ele>
        <time>2022-06-15T13:53:54Z</time>
      </trkpt>
      <trkpt lat="45.93625" lon="6.41654">
        <ele>899.4</ele>
        <time>2022-06-15T13:53:55Z</time>
      </trkpt>
      <trkpt lat="45.9363" lon="6.41658">
        <ele>899.8</ele>
        <time>2022-06-15T13:53:56Z</time>
      </trkpt>
      <trkpt lat="45.93634" lon="6.41662">
        <ele>900.3</ele>
        <time>2022-06-15T13:53:57Z</time>
      </trkpt>
      <trkpt lat="45.93638" lon="6.41667">
        <ele>900.8</ele>
        <time>2022-06-15T13:53:58Z</time>
      </trkpt>
      <trkpt lat="45.93642" lon="6.41671">
        <ele>901.5</ele>
        <time>2022-06-15T13:53:59Z</time>
      </trkpt>
      <trkpt lat="45.93647" lon="6.41675">
        <ele>902</ele>
        <time>2022-06-15T13:54:00Z</time>
      </trkpt>
      <trkpt lat="45.9365" lon="6.41679">
        <ele>902.3</ele>
        <time>2022-06-15T13:54:01Z</time>
      </trkpt>
      <trkpt lat="45.93654" lon="6.41684">
        <ele>902.4</ele>
        <time>2022-06-15T13:54:02Z</time>
      </trkpt>
      <trkpt lat="45.93657" lon="6.41689">
        <ele>902.2</ele>
        <time>2022-06-15T13:54:03Z</time>
      </trkpt>
      <trkpt lat="45.9366" lon="6.41694">
        <ele>901.9</ele>
        <time>2022-06-15T13:54:04Z</time>
      </trkpt>
      <trkpt lat="45.93663" lon="6.41699">
        <ele>902.2</ele>
        <time>2022-06-15T13:54:05Z</time>
      </trkpt>
      <trkpt lat="45.93666" lon="6.41705">
        <ele>902.5</ele>
        <time>2022-06-15T13:54:06Z</time>
      </trkpt>
      <trkpt lat="45.9367" lon="6.4171">
        <ele>903.4</ele>
        <time>2022-06-15T13:54:07Z</time>
      </trkpt>
      <trkpt lat="45.93673" lon="6.41715">
        <ele>904.1</ele>
        <time>2022-06-15T13:54:08Z</time>
      </trkpt>
      <trkpt lat="45.93676" lon="6.41721">
        <ele>904.5</ele>
        <time>2022-06-15T13:54:09Z</time>
      </trkpt>
      <trkpt lat="45.93679" lon="6.41726">
        <ele>904.4</ele>
        <time>2022-06-15T13:54:10Z</time>
      </trkpt>
      <trkpt lat="45.93683" lon="6.41731">
        <ele>904.3</ele>
        <time>2022-06-15T13:54:11Z</time>
      </trkpt>
      <trkpt lat="45.93685" lon="6.41736">
        <ele>903.9</ele>
        <time>2022-06-15T13:54:12Z</time>
      </trkpt>
      <trkpt lat="45.93688" lon="6.41742">
        <ele>903.4</ele>
        <time>2022-06-15T13:54:13Z</time>
      </trkpt>
      <trkpt lat="45.93691" lon="6.41747">
        <ele>902.9</ele>
        <time>2022-06-15T13:54:14Z</time>
      </trkpt>
      <trkpt lat="45.93694" lon="6.41753">
        <ele>902.8</ele>
        <time>2022-06-15T13:54:15Z</time>
      </trkpt>
      <trkpt lat="45.93697" lon="6.41758">
        <ele>903.4</ele>
        <time>2022-06-15T13:54:16Z</time>
      </trkpt>
      <trkpt lat="45.93701" lon="6.41763">
        <ele>904</ele>
        <time>2022-06-15T13:54:17Z</time>
      </trkpt>
      <trkpt lat="45.93703" lon="6.41768">
        <ele>904.5</ele>
        <time>2022-06-15T13:54:18Z</time>
      </trkpt>
      <trkpt lat="45.93707" lon="6.41774">
        <ele>904.9</ele>
        <time>2022-06-15T13:54:19Z</time>
      </trkpt>
      <trkpt lat="45.9371" lon="6.41779">
        <ele>905.2</ele>
        <time>2022-06-15T13:54:20Z</time>
      </trkpt>
      <trkpt lat="45.93713" lon="6.41785">
        <ele>905.3</ele>
        <time>2022-06-15T13:54:21Z</time>
      </trkpt>
      <trkpt lat="45.93715" lon="6.4179">
        <ele>905.2</ele>
        <time>2022-06-15T13:54:22Z</time>
      </trkpt>
      <trkpt lat="45.93717" lon="6.41795">
        <ele>905.2</ele>
        <time>2022-06-15T13:54:23Z</time>
      </trkpt>
      <trkpt lat="45.9372" lon="6.418">
        <ele>905.1</ele>
        <time>2022-06-15T13:54:24Z</time>
      </trkpt>
      <trkpt lat="45.93722" lon="6.41806">
        <ele>904.9</ele>
        <time>2022-06-15T13:54:25Z</time>
      </trkpt>
      <trkpt lat="45.93724" lon="6.41811">
        <ele>905</ele>
        <time>2022-06-15T13:54:26Z</time>
      </trkpt>
      <trkpt lat="45.93727" lon="6.41817">
        <ele>905.1</ele>
        <time>2022-06-15T13:54:27Z</time>
      </trkpt>
      <trkpt lat="45.93729" lon="6.41822">
        <ele>905.2</ele>
        <time>2022-06-15T13:54:28Z</time>
      </trkpt>
      <trkpt lat="45.93731" lon="6.41828">
        <ele>905.2</ele>
        <time>2022-06-15T13:54:29Z</time>
      </trkpt>
      <trkpt lat="45.93733" lon="6.41833">
        <ele>905.2</ele>
        <time>2022-06-15T13:54:30Z</time>
      </trkpt>
      <trkpt lat="45.93735" lon="6.41839">
        <ele>905.2</ele>
        <time>2022-06-15T13:54:31Z</time>
      </trkpt>
      <trkpt lat="45.93738" lon="6.41844">
        <ele>905.3</ele>
        <time>2022-06-15T13:54:32Z</time>
      </trkpt>
      <trkpt lat="45.9374" lon="6.41849">
        <ele>905.5</ele>
        <time>2022-06-15T13:54:33Z</time>
      </trkpt>
      <trkpt lat="45.93742" lon="6.41855">
        <ele>905.7</ele>
        <time>2022-06-15T13:54:34Z</time>
      </trkpt>
      <trkpt lat="45.93745" lon="6.4186">
        <ele>906.2</ele>
        <time>2022-06-15T13:54:35Z</time>
      </trkpt>
      <trkpt lat="45.93747" lon="6.41864">
        <ele>906.7</ele>
        <time>2022-06-15T13:54:36Z</time>
      </trkpt>
      <trkpt lat="45.9375" lon="6.41869">
        <ele>907.2</ele>
        <time>2022-06-15T13:54:37Z</time>
      </trkpt>
      <trkpt lat="45.93752" lon="6.41874">
        <ele>907.6</ele>
        <time>2022-06-15T13:54:38Z</time>
      </trkpt>
      <trkpt lat="45.93754" lon="6.41878">
        <ele>907.9</ele>
        <time>2022-06-15T13:54:39Z</time>
      </trkpt>
      <trkpt lat="45.93757" lon="6.41883">
        <ele>908.2</ele>
        <time>2022-06-15T13:54:40Z</time>
      </trkpt>
      <trkpt lat="45.9376" lon="6.41888">
        <ele>908.5</ele>
        <time>2022-06-15T13:54:41Z</time>
      </trkpt>
      <trkpt lat="45.93763" lon="6.41893">
        <ele>908.2</ele>
        <time>2022-06-15T13:54:42Z</time>
      </trkpt>
      <trkpt lat="45.93765" lon="6.41897">
        <ele>907.8</ele>
        <time>2022-06-15T13:54:43Z</time>
      </trkpt>
      <trkpt lat="45.93768" lon="6.41902">
        <ele>907.8</ele>
        <time>2022-06-15T13:54:44Z</time>
      </trkpt>
      <trkpt lat="45.93771" lon="6.41906">
        <ele>908</ele>
        <time>2022-06-15T13:54:45Z</time>
      </trkpt>
      <trkpt lat="45.93774" lon="6.41911">
        <ele>908.4</ele>
        <time>2022-06-15T13:54:46Z</time>
      </trkpt>
      <trkpt lat="45.93777" lon="6.41915">
        <ele>909</ele>
        <time>2022-06-15T13:54:47Z</time>
      </trkpt>
      <trkpt lat="45.93781" lon="6.4192">
        <ele>909</ele>
        <time>2022-06-15T13:54:48Z</time>
      </trkpt>
      <trkpt lat="45.93784" lon="6.41924">
        <ele>908.8</ele>
        <time>2022-06-15T13:54:49Z</time>
      </trkpt>
      <trkpt lat="45.93787" lon="6.41929">
        <ele>908.7</ele>
        <time>2022-06-15T13:54:50Z</time>
      </trkpt>
      <trkpt lat="45.9379" lon="6.41933">
        <ele>908.7</ele>
        <time>2022-06-15T13:54:51Z</time>
      </trkpt>
      <trkpt lat="45.93794" lon="6.41938">
        <ele>908.9</ele>
        <time>2022-06-15T13:54:52Z</time>
      </trkpt>
      <trkpt lat="45.93797" lon="6.41943">
        <ele>909</ele>
        <time>2022-06-15T13:54:53Z</time>
      </trkpt>
      <trkpt lat="45.938" lon="6.41948">
        <ele>909.3</ele>
        <time>2022-06-15T13:54:54Z</time>
      </trkpt>
      <trkpt lat="45.93804" lon="6.41953">
        <ele>909.9</ele>
        <time>2022-06-15T13:54:55Z</time>
      </trkpt>
      <trkpt lat="45.93808" lon="6.41958">
        <ele>910.1</ele>
        <time>2022-06-15T13:54:56Z</time>
      </trkpt>
      <trkpt lat="45.93811" lon="6.41963">
        <ele>910</ele>
        <time>2022-06-15T13:54:57Z</time>
      </trkpt>
      <trkpt lat="45.93815" lon="6.41969">
        <ele>909.8</ele>
        <time>2022-06-15T13:54:58Z</time>
      </trkpt>
      <trkpt lat="45.93818" lon="6.41975">
        <ele>909.6</ele>
        <time>2022-06-15T13:54:59Z</time>
      </trkpt>
      <trkpt lat="45.93821" lon="6.41982">
        <ele>909.6</ele>
        <time>2022-06-15T13:55:00Z</time>
      </trkpt>
      <trkpt lat="45.93824" lon="6.41988">
        <ele>909.7</ele>
        <time>2022-06-15T13:55:01Z</time>
      </trkpt>
      <trkpt lat="45.93828" lon="6.41994">
        <ele>909.9</ele>
        <time>2022-06-15T13:55:02Z</time>
      </trkpt>
      <trkpt lat="45.93831" lon="6.42">
        <ele>910.2</ele>
        <time>2022-06-15T13:55:03Z</time>
      </trkpt>
      <trkpt lat="45.93834" lon="6.42007">
        <ele>910.5</ele>
        <time>2022-06-15T13:55:04Z</time>
      </trkpt>
      <trkpt lat="45.93838" lon="6.42014">
        <ele>910.5</ele>
        <time>2022-06-15T13:55:05Z</time>
      </trkpt>
      <trkpt lat="45.93842" lon="6.42021">
        <ele>910.6</ele>
        <time>2022-06-15T13:55:06Z</time>
      </trkpt>
      <trkpt lat="45.93845" lon="6.42028">
        <ele>910.6</ele>
        <time>2022-06-15T13:55:07Z</time>
      </trkpt>
      <trkpt lat="45.93849" lon="6.42035">
        <ele>910.2</ele>
        <time>2022-06-15T13:55:08Z</time>
      </trkpt>
      <trkpt lat="45.93853" lon="6.42043">
        <ele>909.9</ele>
        <time>2022-06-15T13:55:09Z</time>
      </trkpt>
      <trkpt lat="45.93857" lon="6.42051">
        <ele>909.7</ele>
        <time>2022-06-15T13:55:10Z</time>
      </trkpt>
      <trkpt lat="45.93861" lon="6.42058">
        <ele>909.7</ele>
        <time>2022-06-15T13:55:11Z</time>
      </trkpt>
      <trkpt lat="45.93865" lon="6.42066">
        <ele>910.2</ele>
        <time>2022-06-15T13:55:12Z</time>
      </trkpt>
      <trkpt lat="45.93869" lon="6.42073">
        <ele>910.4</ele>
        <time>2022-06-15T13:55:13Z</time>
      </trkpt>
      <trkpt lat="45.93873" lon="6.4208">
        <ele>910.1</ele>
        <time>2022-06-15T13:55:14Z</time>
      </trkpt>
      <trkpt lat="45.93877" lon="6.42088">
        <ele>909.7</ele>
        <time>2022-06-15T13:55:15Z</time>
      </trkpt>
      <trkpt lat="45.93881" lon="6.42095">
        <ele>909.6</ele>
        <time>2022-06-15T13:55:16Z</time>
      </trkpt>
      <trkpt lat="45.93886" lon="6.42103">
        <ele>909.8</ele>
        <time>2022-06-15T13:55:17Z</time>
      </trkpt>
      <trkpt lat="45.93891" lon="6.42111">
        <ele>910.2</ele>
        <time>2022-06-15T13:55:18Z</time>
      </trkpt>
      <trkpt lat="45.93895" lon="6.42119">
        <ele>909.8</ele>
        <time>2022-06-15T13:55:19Z</time>
      </trkpt>
      <trkpt lat="45.939" lon="6.42128">
        <ele>909.4</ele>
        <time>2022-06-15T13:55:20Z</time>
      </trkpt>
      <trkpt lat="45.93905" lon="6.42136">
        <ele>909.1</ele>
        <time>2022-06-15T13:55:21Z</time>
      </trkpt>
      <trkpt lat="45.9391" lon="6.42145">
        <ele>908.8</ele>
        <time>2022-06-15T13:55:22Z</time>
      </trkpt>
      <trkpt lat="45.93915" lon="6.42154">
        <ele>908.4</ele>
        <time>2022-06-15T13:55:23Z</time>
      </trkpt>
      <trkpt lat="45.93919" lon="6.42164">
        <ele>907.7</ele>
        <time>2022-06-15T13:55:24Z</time>
      </trkpt>
      <trkpt lat="45.93924" lon="6.42173">
        <ele>907.5</ele>
        <time>2022-06-15T13:55:25Z</time>
      </trkpt>
      <trkpt lat="45.93929" lon="6.42182">
        <ele>907.5</ele>
        <time>2022-06-15T13:55:26Z</time>
      </trkpt>
      <trkpt lat="45.93933" lon="6.42192">
        <ele>907.3</ele>
        <time>2022-06-15T13:55:27Z</time>
      </trkpt>
      <trkpt lat="45.93938" lon="6.42201">
        <ele>907.4</ele>
        <time>2022-06-15T13:55:28Z</time>
      </trkpt>
      <trkpt lat="45.93942" lon="6.4221">
        <ele>907.7</ele>
        <time>2022-06-15T13:55:29Z</time>
      </trkpt>
      <trkpt lat="45.93947" lon="6.42218">
        <ele>908.1</ele>
        <time>2022-06-15T13:55:30Z</time>
      </trkpt>
      <trkpt lat="45.93951" lon="6.42227">
        <ele>908.2</ele>
        <time>2022-06-15T13:55:31Z</time>
      </trkpt>
      <trkpt lat="45.93955" lon="6.42235">
        <ele>908.4</ele>
        <time>2022-06-15T13:55:32Z</time>
      </trkpt>
      <trkpt lat="45.9396" lon="6.42243">
        <ele>908.5</ele>
        <time>2022-06-15T13:55:33Z</time>
      </trkpt>
      <trkpt lat="45.93964" lon="6.42251">
        <ele>908.7</ele>
        <time>2022-06-15T13:55:34Z</time>
      </trkpt>
      <trkpt lat="45.93969" lon="6.42258">
        <ele>908.8</ele>
        <time>2022-06-15T13:55:35Z</time>
      </trkpt>
      <trkpt lat="45.93974" lon="6.42266">
        <ele>909.2</ele>
        <time>2022-06-15T13:55:36Z</time>
      </trkpt>
      <trkpt lat="45.93978" lon="6.42274">
        <ele>909.7</ele>
        <time>2022-06-15T13:55:37Z</time>
      </trkpt>
      <trkpt lat="45.93983" lon="6.42282">
        <ele>910</ele>
        <time>2022-06-15T13:55:38Z</time>
      </trkpt>
      <trkpt lat="45.93987" lon="6.4229">
        <ele>910.2</ele>
        <time>2022-06-15T13:55:39Z</time>
      </trkpt>
      <trkpt lat="45.93991" lon="6.42297">
        <ele>910.3</ele>
        <time>2022-06-15T13:55:40Z</time>
      </trkpt>
      <trkpt lat="45.93995" lon="6.42305">
        <ele>910.5</ele>
        <time>2022-06-15T13:55:41Z</time>
      </trkpt>
      <trkpt lat="45.93999" lon="6.42313">
        <ele>910.8</ele>
        <time>2022-06-15T13:55:42Z</time>
      </trkpt>
      <trkpt lat="45.94002" lon="6.4232">
        <ele>911.3</ele>
        <time>2022-06-15T13:55:43Z</time>
      </trkpt>
      <trkpt lat="45.94006" lon="6.42328">
        <ele>911.7</ele>
        <time>2022-06-15T13:55:44Z</time>
      </trkpt>
      <trkpt lat="45.94009" lon="6.42335">
        <ele>911.9</ele>
        <time>2022-06-15T13:55:45Z</time>
      </trkpt>
      <trkpt lat="45.94012" lon="6.42342">
        <ele>912</ele>
        <time>2022-06-15T13:55:46Z</time>
      </trkpt>
      <trkpt lat="45.94015" lon="6.4235">
        <ele>912</ele>
        <time>2022-06-15T13:55:47Z</time>
      </trkpt>
      <trkpt lat="45.94018" lon="6.42357">
        <ele>912.1</ele>
        <time>2022-06-15T13:55:48Z</time>
      </trkpt>
      <trkpt lat="45.94021" lon="6.42364">
        <ele>912.3</ele>
        <time>2022-06-15T13:55:49Z</time>
      </trkpt>
      <trkpt lat="45.94025" lon="6.42371">
        <ele>912.7</ele>
        <time>2022-06-15T13:55:50Z</time>
      </trkpt>
      <trkpt lat="45.94029" lon="6.42378">
        <ele>913.1</ele>
        <time>2022-06-15T13:55:51Z</time>
      </trkpt>
      <trkpt lat="45.94033" lon="6.42384">
        <ele>913.4</ele>
        <time>2022-06-15T13:55:52Z</time>
      </trkpt>
      <trkpt lat="45.94037" lon="6.42391">
        <ele>913.5</ele>
        <time>2022-06-15T13:55:53Z</time>
      </trkpt>
      <trkpt lat="45.94041" lon="6.42397">
        <ele>913.5</ele>
        <time>2022-06-15T13:55:54Z</time>
      </trkpt>
      <trkpt lat="45.94045" lon="6.42403">
        <ele>913.5</ele>
        <time>2022-06-15T13:55:55Z</time>
      </trkpt>
      <trkpt lat="45.94048" lon="6.4241">
        <ele>913.5</ele>
        <time>2022-06-15T13:55:56Z</time>
      </trkpt>
      <trkpt lat="45.94052" lon="6.42418">
        <ele>913.6</ele>
        <time>2022-06-15T13:55:57Z</time>
      </trkpt>
      <trkpt lat="45.94055" lon="6.42426">
        <ele>913.9</ele>
        <time>2022-06-15T13:55:58Z</time>
      </trkpt>
      <trkpt lat="45.94059" lon="6.42433">
        <ele>914.2</ele>
        <time>2022-06-15T13:55:59Z</time>
      </trkpt>
      <trkpt lat="45.94063" lon="6.4244">
        <ele>914.4</ele>
        <time>2022-06-15T13:56:00Z</time>
      </trkpt>
      <trkpt lat="45.94066" lon="6.42447">
        <ele>914.2</ele>
        <time>2022-06-15T13:56:01Z</time>
      </trkpt>
      <trkpt lat="45.9407" lon="6.42455">
        <ele>914</ele>
        <time>2022-06-15T13:56:02Z</time>
      </trkpt>
      <trkpt lat="45.94074" lon="6.42462">
        <ele>913.8</ele>
        <time>2022-06-15T13:56:03Z</time>
      </trkpt>
      <trkpt lat="45.94078" lon="6.4247">
        <ele>913.7</ele>
        <time>2022-06-15T13:56:04Z</time>
      </trkpt>
      <trkpt lat="45.94082" lon="6.42477">
        <ele>913.9</ele>
        <time>2022-06-15T13:56:05Z</time>
      </trkpt>
      <trkpt lat="45.94086" lon="6.42485">
        <ele>914.1</ele>
        <time>2022-06-15T13:56:06Z</time>
      </trkpt>
      <trkpt lat="45.9409" lon="6.42494">
        <ele>914.2</ele>
        <time>2022-06-15T13:56:07Z</time>
      </trkpt>
      <trkpt lat="45.94094" lon="6.42501">
        <ele>914</ele>
        <time>2022-06-15T13:56:08Z</time>
      </trkpt>
      <trkpt lat="45.94098" lon="6.42509">
        <ele>913.9</ele>
        <time>2022-06-15T13:56:09Z</time>
      </trkpt>
      <trkpt lat="45.94102" lon="6.42517">
        <ele>914</ele>
        <time>2022-06-15T13:56:10Z</time>
      </trkpt>
      <trkpt lat="45.94107" lon="6.42525">
        <ele>914.5</ele>
        <time>2022-06-15T13:56:11Z</time>
      </trkpt>
      <trkpt lat="45.94111" lon="6.42533">
        <ele>914.9</ele>
        <time>2022-06-15T13:56:12Z</time>
      </trkpt>
      <trkpt lat="45.94114" lon="6.42541">
        <ele>915.1</ele>
        <time>2022-06-15T13:56:13Z</time>
      </trkpt>
      <trkpt lat="45.94118" lon="6.42549">
        <ele>915.3</ele>
        <time>2022-06-15T13:56:14Z</time>
      </trkpt>
      <trkpt lat="45.94123" lon="6.42556">
        <ele>915.4</ele>
        <time>2022-06-15T13:56:15Z</time>
      </trkpt>
      <trkpt lat="45.94126" lon="6.42563">
        <ele>915.6</ele>
        <time>2022-06-15T13:56:16Z</time>
      </trkpt>
      <trkpt lat="45.9413" lon="6.4257">
        <ele>915.9</ele>
        <time>2022-06-15T13:56:17Z</time>
      </trkpt>
      <trkpt lat="45.94133" lon="6.42576">
        <ele>916.2</ele>
        <time>2022-06-15T13:56:18Z</time>
      </trkpt>
      <trkpt lat="45.94136" lon="6.42581">
        <ele>916.7</ele>
        <time>2022-06-15T13:56:19Z</time>
      </trkpt>
      <trkpt lat="45.9414" lon="6.42587">
        <ele>917.1</ele>
        <time>2022-06-15T13:56:20Z</time>
      </trkpt>
      <trkpt lat="45.94143" lon="6.42593">
        <ele>917.4</ele>
        <time>2022-06-15T13:56:21Z</time>
      </trkpt>
      <trkpt lat="45.94146" lon="6.42598">
        <ele>917.6</ele>
        <time>2022-06-15T13:56:22Z</time>
      </trkpt>
      <trkpt lat="45.9415" lon="6.42603">
        <ele>917.9</ele>
        <time>2022-06-15T13:56:23Z</time>
      </trkpt>
      <trkpt lat="45.94152" lon="6.42609">
        <ele>918</ele>
        <time>2022-06-15T13:56:24Z</time>
      </trkpt>
      <trkpt lat="45.94155" lon="6.42615">
        <ele>918.1</ele>
        <time>2022-06-15T13:56:25Z</time>
      </trkpt>
      <trkpt lat="45.94158" lon="6.42621">
        <ele>918.3</ele>
        <time>2022-06-15T13:56:26Z</time>
      </trkpt>
      <trkpt lat="45.94161" lon="6.42627">
        <ele>918.6</ele>
        <time>2022-06-15T13:56:27Z</time>
      </trkpt>
      <trkpt lat="45.94164" lon="6.42633">
        <ele>918.8</ele>
        <time>2022-06-15T13:56:28Z</time>
      </trkpt>
      <trkpt lat="45.94167" lon="6.42638">
        <ele>919</ele>
        <time>2022-06-15T13:56:29Z</time>
      </trkpt>
      <trkpt lat="45.9417" lon="6.42644">
        <ele>919.4</ele>
        <time>2022-06-15T13:56:30Z</time>
      </trkpt>
      <trkpt lat="45.94173" lon="6.42649">
        <ele>919.7</ele>
        <time>2022-06-15T13:56:31Z</time>
      </trkpt>
      <trkpt lat="45.94176" lon="6.42655">
        <ele>920</ele>
        <time>2022-06-15T13:56:32Z</time>
      </trkpt>
      <trkpt lat="45.94179" lon="6.42661">
        <ele>920.3</ele>
        <time>2022-06-15T13:56:33Z</time>
      </trkpt>
      <trkpt lat="45.94182" lon="6.42667">
        <ele>920.6</ele>
        <time>2022-06-15T13:56:34Z</time>
      </trkpt>
      <trkpt lat="45.94185" lon="6.42672">
        <ele>920.7</ele>
        <time>2022-06-15T13:56:35Z</time>
      </trkpt>
      <trkpt lat="45.94187" lon="6.42678">
        <ele>920.6</ele>
        <time>2022-06-15T13:56:36Z</time>
      </trkpt>
      <trkpt lat="45.9419" lon="6.42684">
        <ele>920.5</ele>
        <time>2022-06-15T13:56:37Z</time>
      </trkpt>
      <trkpt lat="45.94193" lon="6.42689">
        <ele>920.3</ele>
        <time>2022-06-15T13:56:38Z</time>
      </trkpt>
      <trkpt lat="45.94195" lon="6.42695">
        <ele>920.1</ele>
        <time>2022-06-15T13:56:39Z</time>
      </trkpt>
      <trkpt lat="45.94197" lon="6.42701">
        <ele>920.4</ele>
        <time>2022-06-15T13:56:40Z</time>
      </trkpt>
      <trkpt lat="45.94199" lon="6.42707">
        <ele>920.6</ele>
        <time>2022-06-15T13:56:41Z</time>
      </trkpt>
      <trkpt lat="45.94202" lon="6.42713">
        <ele>920.8</ele>
        <time>2022-06-15T13:56:42Z</time>
      </trkpt>
      <trkpt lat="45.94204" lon="6.42719">
        <ele>921</ele>
        <time>2022-06-15T13:56:43Z</time>
      </trkpt>
      <trkpt lat="45.94206" lon="6.42725">
        <ele>921.4</ele>
        <time>2022-06-15T13:56:44Z</time>
      </trkpt>
      <trkpt lat="45.94209" lon="6.42732">
        <ele>921.7</ele>
        <time>2022-06-15T13:56:45Z</time>
      </trkpt>
      <trkpt lat="45.94211" lon="6.42738">
        <ele>921.9</ele>
        <time>2022-06-15T13:56:46Z</time>
      </trkpt>
      <trkpt lat="45.94214" lon="6.42744">
        <ele>922</ele>
        <time>2022-06-15T13:56:47Z</time>
      </trkpt>
      <trkpt lat="45.94217" lon="6.4275">
        <ele>922</ele>
        <time>2022-06-15T13:56:48Z</time>
      </trkpt>
      <trkpt lat="45.9422" lon="6.42756">
        <ele>922</ele>
        <time>2022-06-15T13:56:49Z</time>
      </trkpt>
      <trkpt lat="45.94223" lon="6.42762">
        <ele>922</ele>
        <time>2022-06-15T13:56:50Z</time>
      </trkpt>
      <trkpt lat="45.94225" lon="6.42768">
        <ele>922.3</ele>
        <time>2022-06-15T13:56:51Z</time>
      </trkpt>
      <trkpt lat="45.94228" lon="6.42773">
        <ele>922.5</ele>
        <time>2022-06-15T13:56:52Z</time>
      </trkpt>
      <trkpt lat="45.94231" lon="6.42779">
        <ele>922.6</ele>
        <time>2022-06-15T13:56:53Z</time>
      </trkpt>
      <trkpt lat="45.94233" lon="6.42786">
        <ele>922.9</ele>
        <time>2022-06-15T13:56:54Z</time>
      </trkpt>
      <trkpt lat="45.94235" lon="6.42792">
        <ele>923</ele>
        <time>2022-06-15T13:56:55Z</time>
      </trkpt>
      <trkpt lat="45.94237" lon="6.42798">
        <ele>923</ele>
        <time>2022-06-15T13:56:56Z</time>
      </trkpt>
      <trkpt lat="45.94239" lon="6.42805">
        <ele>923</ele>
        <time>2022-06-15T13:56:57Z</time>
      </trkpt>
      <trkpt lat="45.94241" lon="6.42811">
        <ele>922.9</ele>
        <time>2022-06-15T13:56:58Z</time>
      </trkpt>
      <trkpt lat="45.94242" lon="6.42816">
        <ele>922.7</ele>
        <time>2022-06-15T13:56:59Z</time>
      </trkpt>
      <trkpt lat="45.94243" lon="6.4282">
        <ele>922.6</ele>
        <time>2022-06-15T13:57:00Z</time>
      </trkpt>
      <trkpt lat="45.94243" lon="6.42823">
        <ele>922.5</ele>
        <time>2022-06-15T13:57:01Z</time>
      </trkpt>
      <trkpt lat="45.94244" lon="6.42825">
        <ele>922.5</ele>
        <time>2022-06-15T13:57:02Z</time>
      </trkpt>
      <trkpt lat="45.94245" lon="6.42827">
        <ele>922.4</ele>
        <time>2022-06-15T13:57:03Z</time>
      </trkpt>
      <trkpt lat="45.94246" lon="6.42827">
        <ele>922.4</ele>
        <time>2022-06-15T13:57:04Z</time>
      </trkpt>
      <trkpt lat="45.94246" lon="6.42827">
        <ele>922.3</ele>
        <time>2022-06-15T13:57:05Z</time>
      </trkpt>
      <trkpt lat="45.94246" lon="6.42827">
        <ele>922.3</ele>
        <time>2022-06-15T13:57:06Z</time>
      </trkpt>
      <trkpt lat="45.94246" lon="6.42827">
        <ele>922.3</ele>
        <time>2022-06-15T13:57:07Z</time>
      </trkpt>
      <trkpt lat="45.94262" lon="6.42837">
        <ele>923</ele>
        <time>2022-06-15T13:59:01Z</time>
      </trkpt>
      <trkpt lat="45.94263" lon="6.42842">
        <ele>922.7</ele>
        <time>2022-06-15T13:59:02Z</time>
      </trkpt>
      <trkpt lat="45.94264" lon="6.42847">
        <ele>922.5</ele>
        <time>2022-06-15T13:59:03Z</time>
      </trkpt>
      <trkpt lat="45.94265" lon="6.42852">
        <ele>922.3</ele>
        <time>2022-06-15T13:59:04Z</time>
      </trkpt>
      <trkpt lat="45.94267" lon="6.42857">
        <ele>922.2</ele>
        <time>2022-06-15T13:59:05Z</time>
      </trkpt>
      <trkpt lat="45.9427" lon="6.42862">
        <ele>922.1</ele>
        <time>2022-06-15T13:59:06Z</time>
      </trkpt>
      <trkpt lat="45.94272" lon="6.42867">
        <ele>922.1</ele>
        <time>2022-06-15T13:59:07Z</time>
      </trkpt>
      <trkpt lat="45.94274" lon="6.42872">
        <ele>922.2</ele>
        <time>2022-06-15T13:59:08Z</time>
      </trkpt>
      <trkpt lat="45.94277" lon="6.42877">
        <ele>922.3</ele>
        <time>2022-06-15T13:59:09Z</time>
      </trkpt>
      <trkpt lat="45.94279" lon="6.42883">
        <ele>922.4</ele>
        <time>2022-06-15T13:59:10Z</time>
      </trkpt>
      <trkpt lat="45.94281" lon="6.42888">
        <ele>922.6</ele>
        <time>2022-06-15T13:59:11Z</time>
      </trkpt>
      <trkpt lat="45.94282" lon="6.42893">
        <ele>922.6</ele>
        <time>2022-06-15T13:59:12Z</time>
      </trkpt>
      <trkpt lat="45.94283" lon="6.42898">
        <ele>922.7</ele>
        <time>2022-06-15T13:59:13Z</time>
      </trkpt>
      <trkpt lat="45.94285" lon="6.42904">
        <ele>922.7</ele>
        <time>2022-06-15T13:59:14Z</time>
      </trkpt>
      <trkpt lat="45.94286" lon="6.4291">
        <ele>922.7</ele>
        <time>2022-06-15T13:59:15Z</time>
      </trkpt>
      <trkpt lat="45.94288" lon="6.42916">
        <ele>922.8</ele>
        <time>2022-06-15T13:59:16Z</time>
      </trkpt>
      <trkpt lat="45.94289" lon="6.42923">
        <ele>922.9</ele>
        <time>2022-06-15T13:59:17Z</time>
      </trkpt>
      <trkpt lat="45.9429" lon="6.42928">
        <ele>922.9</ele>
        <time>2022-06-15T13:59:18Z</time>
      </trkpt>
      <trkpt lat="45.9429" lon="6.42933">
        <ele>923</ele>
        <time>2022-06-15T13:59:19Z</time>
      </trkpt>
      <trkpt lat="45.94291" lon="6.42937">
        <ele>923</ele>
        <time>2022-06-15T13:59:20Z</time>
      </trkpt>
      <trkpt lat="45.94292" lon="6.42942">
        <ele>923.1</ele>
        <time>2022-06-15T13:59:21Z</time>
      </trkpt>
      <trkpt lat="45.94294" lon="6.42947">
        <ele>923.3</ele>
        <time>2022-06-15T13:59:22Z</time>
      </trkpt>
      <trkpt lat="45.94295" lon="6.42953">
        <ele>923.7</ele>
        <time>2022-06-15T13:59:23Z</time>
      </trkpt>
      <trkpt lat="45.94296" lon="6.42959">
        <ele>923.9</ele>
        <time>2022-06-15T13:59:24Z</time>
      </trkpt>
      <trkpt lat="45.94297" lon="6.42966">
        <ele>924.3</ele>
        <time>2022-06-15T13:59:25Z</time>
      </trkpt>
      <trkpt lat="45.94298" lon="6.42973">
        <ele>924.7</ele>
        <time>2022-06-15T13:59:26Z</time>
      </trkpt>
      <trkpt lat="45.943" lon="6.4298">
        <ele>925.2</ele>
        <time>2022-06-15T13:59:27Z</time>
      </trkpt>
      <trkpt lat="45.94301" lon="6.42987">
        <ele>925.8</ele>
        <time>2022-06-15T13:59:28Z</time>
      </trkpt>
      <trkpt lat="45.94302" lon="6.42994">
        <ele>926.5</ele>
        <time>2022-06-15T13:59:29Z</time>
      </trkpt>
      <trkpt lat="45.94304" lon="6.43001">
        <ele>927.3</ele>
        <time>2022-06-15T13:59:30Z</time>
      </trkpt>
      <trkpt lat="45.94305" lon="6.43008">
        <ele>927.6</ele>
        <time>2022-06-15T13:59:31Z</time>
      </trkpt>
      <trkpt lat="45.94307" lon="6.43015">
        <ele>927.6</ele>
        <time>2022-06-15T13:59:32Z</time>
      </trkpt>
      <trkpt lat="45.94308" lon="6.43022">
        <ele>927.5</ele>
        <time>2022-06-15T13:59:33Z</time>
      </trkpt>
      <trkpt lat="45.9431" lon="6.43029">
        <ele>927.4</ele>
        <time>2022-06-15T13:59:34Z</time>
      </trkpt>
      <trkpt lat="45.9431" lon="6.43037">
        <ele>927.3</ele>
        <time>2022-06-15T13:59:35Z</time>
      </trkpt>
      <trkpt lat="45.94311" lon="6.43044">
        <ele>927.2</ele>
        <time>2022-06-15T13:59:36Z</time>
      </trkpt>
      <trkpt lat="45.94311" lon="6.4305">
        <ele>927.1</ele>
        <time>2022-06-15T13:59:37Z</time>
      </trkpt>
      <trkpt lat="45.94311" lon="6.43057">
        <ele>927</ele>
        <time>2022-06-15T13:59:38Z</time>
      </trkpt>
      <trkpt lat="45.94311" lon="6.43064">
        <ele>927</ele>
        <time>2022-06-15T13:59:39Z</time>
      </trkpt>
      <trkpt lat="45.94311" lon="6.43071">
        <ele>927</ele>
        <time>2022-06-15T13:59:40Z</time>
      </trkpt>
      <trkpt lat="45.94312" lon="6.43078">
        <ele>927.1</ele>
        <time>2022-06-15T13:59:41Z</time>
      </trkpt>
      <trkpt lat="45.94312" lon="6.43086">
        <ele>927.1</ele>
        <time>2022-06-15T13:59:42Z</time>
      </trkpt>
      <trkpt lat="45.94313" lon="6.43094">
        <ele>926.9</ele>
        <time>2022-06-15T13:59:43Z</time>
      </trkpt>
      <trkpt lat="45.94314" lon="6.43101">
        <ele>926.7</ele>
        <time>2022-06-15T13:59:44Z</time>
      </trkpt>
      <trkpt lat="45.94315" lon="6.43109">
        <ele>926.4</ele>
        <time>2022-06-15T13:59:45Z</time>
      </trkpt>
      <trkpt lat="45.94316" lon="6.43118">
        <ele>926</ele>
        <time>2022-06-15T13:59:46Z</time>
      </trkpt>
      <trkpt lat="45.94317" lon="6.43126">
        <ele>925.5</ele>
        <time>2022-06-15T13:59:47Z</time>
      </trkpt>
      <trkpt lat="45.94318" lon="6.43134">
        <ele>925</ele>
        <time>2022-06-15T13:59:48Z</time>
      </trkpt>
      <trkpt lat="45.94319" lon="6.43143">
        <ele>924.8</ele>
        <time>2022-06-15T13:59:49Z</time>
      </trkpt>
      <trkpt lat="45.9432" lon="6.43152">
        <ele>924.8</ele>
        <time>2022-06-15T13:59:50Z</time>
      </trkpt>
      <trkpt lat="45.94321" lon="6.43162">
        <ele>924.8</ele>
        <time>2022-06-15T13:59:51Z</time>
      </trkpt>
      <trkpt lat="45.94321" lon="6.43172">
        <ele>924.5</ele>
        <time>2022-06-15T13:59:52Z</time>
      </trkpt>
      <trkpt lat="45.94322" lon="6.43183">
        <ele>923.9</ele>
        <time>2022-06-15T13:59:53Z</time>
      </trkpt>
      <trkpt lat="45.94323" lon="6.43193">
        <ele>923.4</ele>
        <time>2022-06-15T13:59:54Z</time>
      </trkpt>
      <trkpt lat="45.94324" lon="6.43204">
        <ele>923.2</ele>
        <time>2022-06-15T13:59:55Z</time>
      </trkpt>
      <trkpt lat="45.94324" lon="6.43216">
        <ele>923</ele>
        <time>2022-06-15T13:59:56Z</time>
      </trkpt>
      <trkpt lat="45.94325" lon="6.43227">
        <ele>922.6</ele>
        <time>2022-06-15T13:59:57Z</time>
      </trkpt>
      <trkpt lat="45.94326" lon="6.43239">
        <ele>921.8</ele>
        <time>2022-06-15T13:59:58Z</time>
      </trkpt>
      <trkpt lat="45.94327" lon="6.43251">
        <ele>921.1</ele>
        <time>2022-06-15T13:59:59Z</time>
      </trkpt>
      <trkpt lat="45.94328" lon="6.43263">
        <ele>921.1</ele>
        <time>2022-06-15T14:00:00Z</time>
      </trkpt>
      <trkpt lat="45.94328" lon="6.43274">
        <ele>921</ele>
        <time>2022-06-15T14:00:01Z</time>
      </trkpt>
      <trkpt lat="45.94328" lon="6.43286">
        <ele>921.1</ele>
        <time>2022-06-15T14:00:02Z</time>
      </trkpt>
      <trkpt lat="45.94328" lon="6.43297">
        <ele>921.2</ele>
        <time>2022-06-15T14:00:03Z</time>
      </trkpt>
      <trkpt lat="45.94327" lon="6.43308">
        <ele>921.3</ele>
        <time>2022-06-15T14:00:04Z</time>
      </trkpt>
      <trkpt lat="45.94328" lon="6.43319">
        <ele>921.4</ele>
        <time>2022-06-15T14:00:05Z</time>
      </trkpt>
      <trkpt lat="45.94328" lon="6.4333">
        <ele>921.4</ele>
        <time>2022-06-15T14:00:06Z</time>
      </trkpt>
      <trkpt lat="45.94328" lon="6.43339">
        <ele>921.4</ele>
        <time>2022-06-15T14:00:07Z</time>
      </trkpt>
      <trkpt lat="45.94328" lon="6.43349">
        <ele>921.5</ele>
        <time>2022-06-15T14:00:08Z</time>
      </trkpt>
      <trkpt lat="45.94328" lon="6.43359">
        <ele>921.6</ele>
        <time>2022-06-15T14:00:09Z</time>
      </trkpt>
      <trkpt lat="45.94328" lon="6.43368">
        <ele>922.1</ele>
        <time>2022-06-15T14:00:10Z</time>
      </trkpt>
      <trkpt lat="45.94329" lon="6.43376">
        <ele>922.7</ele>
        <time>2022-06-15T14:00:11Z</time>
      </trkpt>
      <trkpt lat="45.94329" lon="6.43384">
        <ele>923.3</ele>
        <time>2022-06-15T14:00:12Z</time>
      </trkpt>
      <trkpt lat="45.94329" lon="6.43393">
        <ele>923.6</ele>
        <time>2022-06-15T14:00:13Z</time>
      </trkpt>
      <trkpt lat="45.94329" lon="6.43401">
        <ele>923.3</ele>
        <time>2022-06-15T14:00:14Z</time>
      </trkpt>
      <trkpt lat="45.94329" lon="6.43409">
        <ele>923.1</ele>
        <time>2022-06-15T14:00:15Z</time>
      </trkpt>
      <trkpt lat="45.9433" lon="6.43418">
        <ele>922.9</ele>
        <time>2022-06-15T14:00:16Z</time>
      </trkpt>
      <trkpt lat="45.9433" lon="6.43426">
        <ele>923</ele>
        <time>2022-06-15T14:00:17Z</time>
      </trkpt>
      <trkpt lat="45.9433" lon="6.43434">
        <ele>923.2</ele>
        <time>2022-06-15T14:00:18Z</time>
      </trkpt>
      <trkpt lat="45.9433" lon="6.43441">
        <ele>923.4</ele>
        <time>2022-06-15T14:00:19Z</time>
      </trkpt>
      <trkpt lat="45.94329" lon="6.43449">
        <ele>923.4</ele>
        <time>2022-06-15T14:00:20Z</time>
      </trkpt>
      <trkpt lat="45.94329" lon="6.43457">
        <ele>923.4</ele>
        <time>2022-06-15T14:00:21Z</time>
      </trkpt>
      <trkpt lat="45.94328" lon="6.43464">
        <ele>923.4</ele>
        <time>2022-06-15T14:00:22Z</time>
      </trkpt>
      <trkpt lat="45.94327" lon="6.43472">
        <ele>923.3</ele>
        <time>2022-06-15T14:00:23Z</time>
      </trkpt>
      <trkpt lat="45.94327" lon="6.4348">
        <ele>923.5</ele>
        <time>2022-06-15T14:00:24Z</time>
      </trkpt>
      <trkpt lat="45.94325" lon="6.43488">
        <ele>923.5</ele>
        <time>2022-06-15T14:00:25Z</time>
      </trkpt>
      <trkpt lat="45.94324" lon="6.43495">
        <ele>923.6</ele>
        <time>2022-06-15T14:00:26Z</time>
      </trkpt>
      <trkpt lat="45.94323" lon="6.43503">
        <ele>923.5</ele>
        <time>2022-06-15T14:00:27Z</time>
      </trkpt>
      <trkpt lat="45.94322" lon="6.4351">
        <ele>923.5</ele>
        <time>2022-06-15T14:00:28Z</time>
      </trkpt>
      <trkpt lat="45.9432" lon="6.43518">
        <ele>923.4</ele>
        <time>2022-06-15T14:00:29Z</time>
      </trkpt>
      <trkpt lat="45.94318" lon="6.43525">
        <ele>923.2</ele>
        <time>2022-06-15T14:00:30Z</time>
      </trkpt>
      <trkpt lat="45.94317" lon="6.43533">
        <ele>923.4</ele>
        <time>2022-06-15T14:00:31Z</time>
      </trkpt>
      <trkpt lat="45.94315" lon="6.4354">
        <ele>923.7</ele>
        <time>2022-06-15T14:00:32Z</time>
      </trkpt>
      <trkpt lat="45.94313" lon="6.43547">
        <ele>923.9</ele>
        <time>2022-06-15T14:00:33Z</time>
      </trkpt>
      <trkpt lat="45.94311" lon="6.43555">
        <ele>924.1</ele>
        <time>2022-06-15T14:00:34Z</time>
      </trkpt>
      <trkpt lat="45.94308" lon="6.43562">
        <ele>924</ele>
        <time>2022-06-15T14:00:35Z</time>
      </trkpt>
      <trkpt lat="45.94306" lon="6.43569">
        <ele>923.9</ele>
        <time>2022-06-15T14:00:36Z</time>
      </trkpt>
      <trkpt lat="45.94303" lon="6.43575">
        <ele>924.3</ele>
        <time>2022-06-15T14:00:37Z</time>
      </trkpt>
      <trkpt lat="45.943" lon="6.43582">
        <ele>924.5</ele>
        <time>2022-06-15T14:00:38Z</time>
      </trkpt>
      <trkpt lat="45.94297" lon="6.43588">
        <ele>924.8</ele>
        <time>2022-06-15T14:00:39Z</time>
      </trkpt>
      <trkpt lat="45.94294" lon="6.43593">
        <ele>925.2</ele>
        <time>2022-06-15T14:00:40Z</time>
      </trkpt>
      <trkpt lat="45.94291" lon="6.43599">
        <ele>925.6</ele>
        <time>2022-06-15T14:00:41Z</time>
      </trkpt>
      <trkpt lat="45.94288" lon="6.43604">
        <ele>926</ele>
        <time>2022-06-15T14:00:42Z</time>
      </trkpt>
      <trkpt lat="45.94285" lon="6.43609">
        <ele>926.3</ele>
        <time>2022-06-15T14:00:43Z</time>
      </trkpt>
      <trkpt lat="45.94283" lon="6.43614">
        <ele>926.4</ele>
        <time>2022-06-15T14:00:44Z</time>
      </trkpt>
      <trkpt lat="45.9428" lon="6.43618">
        <ele>926.4</ele>
        <time>2022-06-15T14:00:45Z</time>
      </trkpt>
      <trkpt lat="45.94279" lon="6.43622">
        <ele>926.4</ele>
        <time>2022-06-15T14:00:46Z</time>
      </trkpt>
      <trkpt lat="45.94277" lon="6.43625">
        <ele>926.5</ele>
        <time>2022-06-15T14:00:47Z</time>
      </trkpt>
      <trkpt lat="45.94275" lon="6.43628">
        <ele>926.4</ele>
        <time>2022-06-15T14:00:48Z</time>
      </trkpt>
      <trkpt lat="45.94273" lon="6.43631">
        <ele>926.3</ele>
        <time>2022-06-15T14:00:49Z</time>
      </trkpt>
      <trkpt lat="45.94271" lon="6.43635">
        <ele>926.2</ele>
        <time>2022-06-15T14:00:50Z</time>
      </trkpt>
      <trkpt lat="45.94268" lon="6.43637">
        <ele>926</ele>
        <time>2022-06-15T14:00:51Z</time>
      </trkpt>
      <trkpt lat="45.94266" lon="6.4364">
        <ele>925.8</ele>
        <time>2022-06-15T14:00:52Z</time>
      </trkpt>
      <trkpt lat="45.94264" lon="6.43642">
        <ele>925.8</ele>
        <time>2022-06-15T14:00:53Z</time>
      </trkpt>
      <trkpt lat="45.94263" lon="6.43643">
        <ele>925.7</ele>
        <time>2022-06-15T14:00:54Z</time>
      </trkpt>
      <trkpt lat="45.94261" lon="6.43643">
        <ele>925.5</ele>
        <time>2022-06-15T14:00:55Z</time>
      </trkpt>
      <trkpt lat="45.94259" lon="6.43642">
        <ele>925.2</ele>
        <time>2022-06-15T14:00:56Z</time>
      </trkpt>
      <trkpt lat="45.94258" lon="6.43641">
        <ele>925</ele>
        <time>2022-06-15T14:00:57Z</time>
      </trkpt>
      <trkpt lat="45.94256" lon="6.4364">
        <ele>924.8</ele>
        <time>2022-06-15T14:00:58Z</time>
      </trkpt>
      <trkpt lat="45.94256" lon="6.43639">
        <ele>924.6</ele>
        <time>2022-06-15T14:00:59Z</time>
      </trkpt>
      <trkpt lat="45.94255" lon="6.43637">
        <ele>924.6</ele>
        <time>2022-06-15T14:01:00Z</time>
      </trkpt>
      <trkpt lat="45.94253" lon="6.43636">
        <ele>924.5</ele>
        <time>2022-06-15T14:01:01Z</time>
      </trkpt>
      <trkpt lat="45.94252" lon="6.43636">
        <ele>924.4</ele>
        <time>2022-06-15T14:01:02Z</time>
      </trkpt>
      <trkpt lat="45.94251" lon="6.43635">
        <ele>924.3</ele>
        <time>2022-06-15T14:01:03Z</time>
      </trkpt>
      <trkpt lat="45.9425" lon="6.43635">
        <ele>924.3</ele>
        <time>2022-06-15T14:01:04Z</time>
      </trkpt>
      <trkpt lat="45.94249" lon="6.43634">
        <ele>924.5</ele>
        <time>2022-06-15T14:01:05Z</time>
      </trkpt>
      <trkpt lat="45.94248" lon="6.43633">
        <ele>924.7</ele>
        <time>2022-06-15T14:01:06Z</time>
      </trkpt>
      <trkpt lat="45.94248" lon="6.43633">
        <ele>924.8</ele>
        <time>2022-06-15T14:01:07Z</time>
      </trkpt>
      <trkpt lat="45.94247" lon="6.43632">
        <ele>925</ele>
        <time>2022-06-15T14:01:08Z</time>
      </trkpt>
      <trkpt lat="45.94245" lon="6.43631">
        <ele>925.2</ele>
        <time>2022-06-15T14:01:09Z</time>
      </trkpt>
      <trkpt lat="45.94245" lon="6.43631">
        <ele>925.3</ele>
        <time>2022-06-15T14:01:10Z</time>
      </trkpt>
      <trkpt lat="45.94244" lon="6.43631">
        <ele>925.4</ele>
        <time>2022-06-15T14:01:11Z</time>
      </trkpt>
      <trkpt lat="45.94243" lon="6.43631">
        <ele>925.5</ele>
        <time>2022-06-15T14:01:12Z</time>
      </trkpt>
      <trkpt lat="45.94242" lon="6.43631">
        <ele>925.6</ele>
        <time>2022-06-15T14:01:13Z</time>
      </trkpt>
      <trkpt lat="45.94242" lon="6.43631">
        <ele>925.7</ele>
        <time>2022-06-15T14:01:14Z</time>
      </trkpt>
      <trkpt lat="45.94241" lon="6.43632">
        <ele>925.8</ele>
        <time>2022-06-15T14:01:15Z</time>
      </trkpt>
      <trkpt lat="45.9424" lon="6.43632">
        <ele>925.9</ele>
        <time>2022-06-15T14:01:16Z</time>
      </trkpt>
      <trkpt lat="45.94239" lon="6.43633">
        <ele>925.9</ele>
        <time>2022-06-15T14:01:17Z</time>
      </trkpt>
      <trkpt lat="45.94239" lon="6.43634">
        <ele>925.9</ele>
        <time>2022-06-15T14:01:18Z</time>
      </trkpt>
      <trkpt lat="45.94239" lon="6.43636">
        <ele>925.8</ele>
        <time>2022-06-15T14:01:19Z</time>
      </trkpt>
      <trkpt lat="45.94239" lon="6.43637">
        <ele>925.7</ele>
        <time>2022-06-15T14:01:20Z</time>
      </trkpt>
      <trkpt lat="45.94241" lon="6.43637">
        <ele>925.5</ele>
        <time>2022-06-15T14:01:21Z</time>
      </trkpt>
      <trkpt lat="45.94242" lon="6.43636">
        <ele>925.3</ele>
        <time>2022-06-15T14:01:22Z</time>
      </trkpt>
      <trkpt lat="45.94244" lon="6.43636">
        <ele>925</ele>
        <time>2022-06-15T14:01:23Z</time>
      </trkpt>
      <trkpt lat="45.94246" lon="6.43637">
        <ele>924.8</ele>
        <time>2022-06-15T14:01:24Z</time>
      </trkpt>
      <trkpt lat="45.94247" lon="6.43638">
        <ele>924.5</ele>
        <time>2022-06-15T14:01:25Z</time>
      </trkpt>
      <trkpt lat="45.94248" lon="6.43639">
        <ele>924.3</ele>
        <time>2022-06-15T14:01:26Z</time>
      </trkpt>
      <trkpt lat="45.9425" lon="6.4364">
        <ele>924.2</ele>
        <time>2022-06-15T14:01:27Z</time>
      </trkpt>
      <trkpt lat="45.94252" lon="6.43641">
        <ele>924.4</ele>
        <time>2022-06-15T14:01:28Z</time>
      </trkpt>
      <trkpt lat="45.94255" lon="6.43643">
        <ele>924.9</ele>
        <time>2022-06-15T14:01:29Z</time>
      </trkpt>
      <trkpt lat="45.94258" lon="6.43645">
        <ele>925.4</ele>
        <time>2022-06-15T14:01:30Z</time>
      </trkpt>
      <trkpt lat="45.94261" lon="6.4365">
        <ele>926</ele>
        <time>2022-06-15T14:01:31Z</time>
      </trkpt>
      <trkpt lat="45.94262" lon="6.43655">
        <ele>926.5</ele>
        <time>2022-06-15T14:01:32Z</time>
      </trkpt>
      <trkpt lat="45.94261" lon="6.43662">
        <ele>927</ele>
        <time>2022-06-15T14:01:33Z</time>
      </trkpt>
      <trkpt lat="45.94259" lon="6.43667">
        <ele>927.3</ele>
        <time>2022-06-15T14:01:34Z</time>
      </trkpt>
      <trkpt lat="45.94256" lon="6.43672">
        <ele>927.6</ele>
        <time>2022-06-15T14:01:35Z</time>
      </trkpt>
      <trkpt lat="45.94253" lon="6.43676">
        <ele>927.8</ele>
        <time>2022-06-15T14:01:36Z</time>
      </trkpt>
      <trkpt lat="45.9425" lon="6.43681">
        <ele>928</ele>
        <time>2022-06-15T14:01:37Z</time>
      </trkpt>
      <trkpt lat="45.94248" lon="6.43686">
        <ele>928.3</ele>
        <time>2022-06-15T14:01:38Z</time>
      </trkpt>
      <trkpt lat="45.94246" lon="6.43692">
        <ele>928.5</ele>
        <time>2022-06-15T14:01:39Z</time>
      </trkpt>
      <trkpt lat="45.94244" lon="6.43697">
        <ele>928.7</ele>
        <time>2022-06-15T14:01:40Z</time>
      </trkpt>
      <trkpt lat="45.94242" lon="6.43703">
        <ele>929</ele>
        <time>2022-06-15T14:01:41Z</time>
      </trkpt>
      <trkpt lat="45.9424" lon="6.43708">
        <ele>929.1</ele>
        <time>2022-06-15T14:01:42Z</time>
      </trkpt>
      <trkpt lat="45.94238" lon="6.43713">
        <ele>929.2</ele>
        <time>2022-06-15T14:01:43Z</time>
      </trkpt>
      <trkpt lat="45.94236" lon="6.43719">
        <ele>929.3</ele>
        <time>2022-06-15T14:01:44Z</time>
      </trkpt>
      <trkpt lat="45.94234" lon="6.43724">
        <ele>929.4</ele>
        <time>2022-06-15T14:01:45Z</time>
      </trkpt>
      <trkpt lat="45.94232" lon="6.43729">
        <ele>929.7</ele>
        <time>2022-06-15T14:01:46Z</time>
      </trkpt>
      <trkpt lat="45.9423" lon="6.43734">
        <ele>929.9</ele>
        <time>2022-06-15T14:01:47Z</time>
      </trkpt>
      <trkpt lat="45.94228" lon="6.43738">
        <ele>930.2</ele>
        <time>2022-06-15T14:01:48Z</time>
      </trkpt>
      <trkpt lat="45.94226" lon="6.43743">
        <ele>930.5</ele>
        <time>2022-06-15T14:01:49Z</time>
      </trkpt>
      <trkpt lat="45.94224" lon="6.43749">
        <ele>931</ele>
        <time>2022-06-15T14:01:50Z</time>
      </trkpt>
      <trkpt lat="45.94222" lon="6.43754">
        <ele>931.4</ele>
        <time>2022-06-15T14:01:51Z</time>
      </trkpt>
      <trkpt lat="45.9422" lon="6.43759">
        <ele>931.7</ele>
        <time>2022-06-15T14:01:52Z</time>
      </trkpt>
      <trkpt lat="45.94218" lon="6.43764">
        <ele>932.1</ele>
        <time>2022-06-15T14:01:53Z</time>
      </trkpt>
      <trkpt lat="45.94216" lon="6.43769">
        <ele>932.5</ele>
        <time>2022-06-15T14:01:54Z</time>
      </trkpt>
      <trkpt lat="45.94214" lon="6.43774">
        <ele>932.9</ele>
        <time>2022-06-15T14:01:55Z</time>
      </trkpt>
      <trkpt lat="45.94212" lon="6.43779">
        <ele>933.4</ele>
        <time>2022-06-15T14:01:56Z</time>
      </trkpt>
      <trkpt lat="45.9421" lon="6.43783">
        <ele>933.9</ele>
        <time>2022-06-15T14:01:57Z</time>
      </trkpt>
      <trkpt lat="45.94208" lon="6.43788">
        <ele>934.3</ele>
        <time>2022-06-15T14:01:58Z</time>
      </trkpt>
      <trkpt lat="45.94207" lon="6.43793">
        <ele>934.7</ele>
        <time>2022-06-15T14:01:59Z</time>
      </trkpt>
      <trkpt lat="45.94205" lon="6.43798">
        <ele>935</ele>
        <time>2022-06-15T14:02:00Z</time>
      </trkpt>
      <trkpt lat="45.94204" lon="6.43803">
        <ele>935.4</ele>
        <time>2022-06-15T14:02:01Z</time>
      </trkpt>
      <trkpt lat="45.94203" lon="6.43809">
        <ele>935.6</ele>
        <time>2022-06-15T14:02:02Z</time>
      </trkpt>
      <trkpt lat="45.94201" lon="6.43814">
        <ele>935.5</ele>
        <time>2022-06-15T14:02:03Z</time>
      </trkpt>
      <trkpt lat="45.942" lon="6.43819">
        <ele>935.4</ele>
        <time>2022-06-15T14:02:04Z</time>
      </trkpt>
      <trkpt lat="45.94199" lon="6.43824">
        <ele>935.4</ele>
        <time>2022-06-15T14:02:05Z</time>
      </trkpt>
      <trkpt lat="45.94197" lon="6.43829">
        <ele>935.3</ele>
        <time>2022-06-15T14:02:06Z</time>
      </trkpt>
      <trkpt lat="45.94196" lon="6.43833">
        <ele>935.3</ele>
        <time>2022-06-15T14:02:07Z</time>
      </trkpt>
      <trkpt lat="45.94195" lon="6.43838">
        <ele>935.1</ele>
        <time>2022-06-15T14:02:08Z</time>
      </trkpt>
      <trkpt lat="45.94194" lon="6.43843">
        <ele>934.9</ele>
        <time>2022-06-15T14:02:09Z</time>
      </trkpt>
      <trkpt lat="45.94193" lon="6.43849">
        <ele>934.7</ele>
        <time>2022-06-15T14:02:10Z</time>
      </trkpt>
      <trkpt lat="45.94192" lon="6.43854">
        <ele>934.6</ele>
        <time>2022-06-15T14:02:11Z</time>
      </trkpt>
      <trkpt lat="45.94191" lon="6.43859">
        <ele>934.4</ele>
        <time>2022-06-15T14:02:12Z</time>
      </trkpt>
      <trkpt lat="45.9419" lon="6.43865">
        <ele>934.5</ele>
        <time>2022-06-15T14:02:13Z</time>
      </trkpt>
      <trkpt lat="45.94189" lon="6.43871">
        <ele>934.8</ele>
        <time>2022-06-15T14:02:14Z</time>
      </trkpt>
      <trkpt lat="45.94188" lon="6.43876">
        <ele>935</ele>
        <time>2022-06-15T14:02:15Z</time>
      </trkpt>
      <trkpt lat="45.94187" lon="6.4388">
        <ele>935.2</ele>
        <time>2022-06-15T14:02:16Z</time>
      </trkpt>
      <trkpt lat="45.94186" lon="6.43885">
        <ele>935.4</ele>
        <time>2022-06-15T14:02:17Z</time>
      </trkpt>
      <trkpt lat="45.94185" lon="6.43889">
        <ele>935.7</ele>
        <time>2022-06-15T14:02:18Z</time>
      </trkpt>
      <trkpt lat="45.94183" lon="6.43894">
        <ele>936.1</ele>
        <time>2022-06-15T14:02:19Z</time>
      </trkpt>
      <trkpt lat="45.94181" lon="6.43898">
        <ele>936.5</ele>
        <time>2022-06-15T14:02:20Z</time>
      </trkpt>
      <trkpt lat="45.9418" lon="6.43903">
        <ele>937</ele>
        <time>2022-06-15T14:02:21Z</time>
      </trkpt>
      <trkpt lat="45.94179" lon="6.43908">
        <ele>937.5</ele>
        <time>2022-06-15T14:02:22Z</time>
      </trkpt>
      <trkpt lat="45.94177" lon="6.43913">
        <ele>938</ele>
        <time>2022-06-15T14:02:23Z</time>
      </trkpt>
      <trkpt lat="45.94176" lon="6.43918">
        <ele>938.4</ele>
        <time>2022-06-15T14:02:24Z</time>
      </trkpt>
      <trkpt lat="45.94174" lon="6.43922">
        <ele>938.7</ele>
        <time>2022-06-15T14:02:25Z</time>
      </trkpt>
      <trkpt lat="45.94172" lon="6.43926">
        <ele>938.9</ele>
        <time>2022-06-15T14:02:26Z</time>
      </trkpt>
      <trkpt lat="45.94171" lon="6.43931">
        <ele>939</ele>
        <time>2022-06-15T14:02:27Z</time>
      </trkpt>
      <trkpt lat="45.94169" lon="6.43935">
        <ele>939</ele>
        <time>2022-06-15T14:02:28Z</time>
      </trkpt>
      <trkpt lat="45.94168" lon="6.43939">
        <ele>939</ele>
        <time>2022-06-15T14:02:29Z</time>
      </trkpt>
      <trkpt lat="45.94166" lon="6.43943">
        <ele>938.9</ele>
        <time>2022-06-15T14:02:30Z</time>
      </trkpt>
      <trkpt lat="45.94165" lon="6.43947">
        <ele>939</ele>
        <time>2022-06-15T14:02:31Z</time>
      </trkpt>
      <trkpt lat="45.94164" lon="6.43951">
        <ele>939.3</ele>
        <time>2022-06-15T14:02:32Z</time>
      </trkpt>
      <trkpt lat="45.94163" lon="6.43955">
        <ele>939.6</ele>
        <time>2022-06-15T14:02:33Z</time>
      </trkpt>
      <trkpt lat="45.94162" lon="6.43959">
        <ele>939.9</ele>
        <time>2022-06-15T14:02:34Z</time>
      </trkpt>
      <trkpt lat="45.94161" lon="6.43962">
        <ele>940.2</ele>
        <time>2022-06-15T14:02:35Z</time>
      </trkpt>
      <trkpt lat="45.9416" lon="6.43966">
        <ele>940.5</ele>
        <time>2022-06-15T14:02:36Z</time>
      </trkpt>
      <trkpt lat="45.9416" lon="6.4397">
        <ele>940.7</ele>
        <time>2022-06-15T14:02:37Z</time>
      </trkpt>
      <trkpt lat="45.94159" lon="6.43974">
        <ele>941</ele>
        <time>2022-06-15T14:02:38Z</time>
      </trkpt>
      <trkpt lat="45.94159" lon="6.43978">
        <ele>941.2</ele>
        <time>2022-06-15T14:02:39Z</time>
      </trkpt>
      <trkpt lat="45.94158" lon="6.43982">
        <ele>941.3</ele>
        <time>2022-06-15T14:02:40Z</time>
      </trkpt>
      <trkpt lat="45.94158" lon="6.43986">
        <ele>941.5</ele>
        <time>2022-06-15T14:02:41Z</time>
      </trkpt>
      <trkpt lat="45.94157" lon="6.43991">
        <ele>941.8</ele>
        <time>2022-06-15T14:02:42Z</time>
      </trkpt>
      <trkpt lat="45.94157" lon="6.43995">
        <ele>941.9</ele>
        <time>2022-06-15T14:02:43Z</time>
      </trkpt>
      <trkpt lat="45.94157" lon="6.43999">
        <ele>942.1</ele>
        <time>2022-06-15T14:02:44Z</time>
      </trkpt>
      <trkpt lat="45.94156" lon="6.44004">
        <ele>942.2</ele>
        <time>2022-06-15T14:02:45Z</time>
      </trkpt>
      <trkpt lat="45.94156" lon="6.44008">
        <ele>942.3</ele>
        <time>2022-06-15T14:02:46Z</time>
      </trkpt>
      <trkpt lat="45.94156" lon="6.44012">
        <ele>942.4</ele>
        <time>2022-06-15T14:02:47Z</time>
      </trkpt>
      <trkpt lat="45.94155" lon="6.44016">
        <ele>942.4</ele>
        <time>2022-06-15T14:02:48Z</time>
      </trkpt>
      <trkpt lat="45.94155" lon="6.44021">
        <ele>942.5</ele>
        <time>2022-06-15T14:02:49Z</time>
      </trkpt>
      <trkpt lat="45.94154" lon="6.44025">
        <ele>942.5</ele>
        <time>2022-06-15T14:02:50Z</time>
      </trkpt>
      <trkpt lat="45.94154" lon="6.44029">
        <ele>942.6</ele>
        <time>2022-06-15T14:02:51Z</time>
      </trkpt>
      <trkpt lat="45.94153" lon="6.44034">
        <ele>943</ele>
        <time>2022-06-15T14:02:52Z</time>
      </trkpt>
      <trkpt lat="45.94152" lon="6.44038">
        <ele>943.5</ele>
        <time>2022-06-15T14:02:53Z</time>
      </trkpt>
      <trkpt lat="45.94151" lon="6.44042">
        <ele>943.9</ele>
        <time>2022-06-15T14:02:54Z</time>
      </trkpt>
      <trkpt lat="45.94151" lon="6.44045">
        <ele>944.3</ele>
        <time>2022-06-15T14:02:55Z</time>
      </trkpt>
      <trkpt lat="45.9415" lon="6.44049">
        <ele>944.9</ele>
        <time>2022-06-15T14:02:56Z</time>
      </trkpt>
      <trkpt lat="45.94149" lon="6.44053">
        <ele>945.4</ele>
        <time>2022-06-15T14:02:57Z</time>
      </trkpt>
      <trkpt lat="45.94148" lon="6.44056">
        <ele>945.6</ele>
        <time>2022-06-15T14:02:58Z</time>
      </trkpt>
      <trkpt lat="45.94147" lon="6.44059">
        <ele>945.5</ele>
        <time>2022-06-15T14:02:59Z</time>
      </trkpt>
      <trkpt lat="45.94145" lon="6.44063">
        <ele>945.6</ele>
        <time>2022-06-15T14:03:00Z</time>
      </trkpt>
      <trkpt lat="45.94144" lon="6.44067">
        <ele>945.6</ele>
        <time>2022-06-15T14:03:01Z</time>
      </trkpt>
      <trkpt lat="45.94143" lon="6.44069">
        <ele>945.6</ele>
        <time>2022-06-15T14:03:02Z</time>
      </trkpt>
      <trkpt lat="45.94142" lon="6.44072">
        <ele>945.5</ele>
        <time>2022-06-15T14:03:03Z</time>
      </trkpt>
      <trkpt lat="45.9414" lon="6.44076">
        <ele>945.6</ele>
        <time>2022-06-15T14:03:04Z</time>
      </trkpt>
      <trkpt lat="45.94139" lon="6.44079">
        <ele>945.5</ele>
        <time>2022-06-15T14:03:05Z</time>
      </trkpt>
      <trkpt lat="45.94137" lon="6.44082">
        <ele>945.7</ele>
        <time>2022-06-15T14:03:06Z</time>
      </trkpt>
      <trkpt lat="45.94135" lon="6.44085">
        <ele>946.1</ele>
        <time>2022-06-15T14:03:07Z</time>
      </trkpt>
      <trkpt lat="45.94133" lon="6.44088">
        <ele>946.5</ele>
        <time>2022-06-15T14:03:08Z</time>
      </trkpt>
      <trkpt lat="45.94132" lon="6.44092">
        <ele>946.9</ele>
        <time>2022-06-15T14:03:09Z</time>
      </trkpt>
      <trkpt lat="45.9413" lon="6.44095">
        <ele>947.4</ele>
        <time>2022-06-15T14:03:10Z</time>
      </trkpt>
      <trkpt lat="45.94128" lon="6.44099">
        <ele>947.8</ele>
        <time>2022-06-15T14:03:11Z</time>
      </trkpt>
      <trkpt lat="45.94127" lon="6.44101">
        <ele>948.1</ele>
        <time>2022-06-15T14:03:12Z</time>
      </trkpt>
      <trkpt lat="45.94125" lon="6.44104">
        <ele>948.3</ele>
        <time>2022-06-15T14:03:13Z</time>
      </trkpt>
      <trkpt lat="45.94122" lon="6.44107">
        <ele>948.5</ele>
        <time>2022-06-15T14:03:14Z</time>
      </trkpt>
      <trkpt lat="45.9412" lon="6.44109">
        <ele>948.6</ele>
        <time>2022-06-15T14:03:15Z</time>
      </trkpt>
      <trkpt lat="45.94118" lon="6.44112">
        <ele>948.8</ele>
        <time>2022-06-15T14:03:16Z</time>
      </trkpt>
      <trkpt lat="45.94116" lon="6.44116">
        <ele>948.8</ele>
        <time>2022-06-15T14:03:17Z</time>
      </trkpt>
      <trkpt lat="45.94114" lon="6.44118">
        <ele>948.8</ele>
        <time>2022-06-15T14:03:18Z</time>
      </trkpt>
      <trkpt lat="45.94112" lon="6.44121">
        <ele>948.8</ele>
        <time>2022-06-15T14:03:19Z</time>
      </trkpt>
      <trkpt lat="45.94109" lon="6.44124">
        <ele>949</ele>
        <time>2022-06-15T14:03:20Z</time>
      </trkpt>
      <trkpt lat="45.94107" lon="6.44127">
        <ele>949.2</ele>
        <time>2022-06-15T14:03:21Z</time>
      </trkpt>
      <trkpt lat="45.94105" lon="6.4413">
        <ele>949.4</ele>
        <time>2022-06-15T14:03:22Z</time>
      </trkpt>
      <trkpt lat="45.94103" lon="6.44134">
        <ele>949.7</ele>
        <time>2022-06-15T14:03:23Z</time>
      </trkpt>
      <trkpt lat="45.94101" lon="6.44136">
        <ele>949.8</ele>
        <time>2022-06-15T14:03:24Z</time>
      </trkpt>
      <trkpt lat="45.94099" lon="6.4414">
        <ele>950</ele>
        <time>2022-06-15T14:03:25Z</time>
      </trkpt>
      <trkpt lat="45.94098" lon="6.44143">
        <ele>950.2</ele>
        <time>2022-06-15T14:03:26Z</time>
      </trkpt>
      <trkpt lat="45.94096" lon="6.44147">
        <ele>950.4</ele>
        <time>2022-06-15T14:03:27Z</time>
      </trkpt>
      <trkpt lat="45.94094" lon="6.4415">
        <ele>950.5</ele>
        <time>2022-06-15T14:03:28Z</time>
      </trkpt>
      <trkpt lat="45.94092" lon="6.44153">
        <ele>950.7</ele>
        <time>2022-06-15T14:03:29Z</time>
      </trkpt>
      <trkpt lat="45.9409" lon="6.44157">
        <ele>950.8</ele>
        <time>2022-06-15T14:03:30Z</time>
      </trkpt>
      <trkpt lat="45.94088" lon="6.44161">
        <ele>950.9</ele>
        <time>2022-06-15T14:03:31Z</time>
      </trkpt>
      <trkpt lat="45.94087" lon="6.44165">
        <ele>951.1</ele>
        <time>2022-06-15T14:03:32Z</time>
      </trkpt>
      <trkpt lat="45.94085" lon="6.44169">
        <ele>951.2</ele>
        <time>2022-06-15T14:03:33Z</time>
      </trkpt>
      <trkpt lat="45.94083" lon="6.44173">
        <ele>951.5</ele>
        <time>2022-06-15T14:03:34Z</time>
      </trkpt>
      <trkpt lat="45.94081" lon="6.44177">
        <ele>951.7</ele>
        <time>2022-06-15T14:03:35Z</time>
      </trkpt>
      <trkpt lat="45.94079" lon="6.44182">
        <ele>952</ele>
        <time>2022-06-15T14:03:36Z</time>
      </trkpt>
      <trkpt lat="45.94077" lon="6.44186">
        <ele>952.2</ele>
        <time>2022-06-15T14:03:37Z</time>
      </trkpt>
      <trkpt lat="45.94075" lon="6.4419">
        <ele>952.4</ele>
        <time>2022-06-15T14:03:38Z</time>
      </trkpt>
      <trkpt lat="45.94074" lon="6.44194">
        <ele>952.6</ele>
        <time>2022-06-15T14:03:39Z</time>
      </trkpt>
      <trkpt lat="45.94072" lon="6.44199">
        <ele>952.9</ele>
        <time>2022-06-15T14:03:40Z</time>
      </trkpt>
      <trkpt lat="45.94071" lon="6.44204">
        <ele>953.1</ele>
        <time>2022-06-15T14:03:41Z</time>
      </trkpt>
      <trkpt lat="45.94069" lon="6.44209">
        <ele>953.2</ele>
        <time>2022-06-15T14:03:42Z</time>
      </trkpt>
      <trkpt lat="45.94067" lon="6.44213">
        <ele>953.4</ele>
        <time>2022-06-15T14:03:43Z</time>
      </trkpt>
      <trkpt lat="45.94066" lon="6.44217">
        <ele>953.5</ele>
        <time>2022-06-15T14:03:44Z</time>
      </trkpt>
      <trkpt lat="45.94064" lon="6.44222">
        <ele>953.5</ele>
        <time>2022-06-15T14:03:45Z</time>
      </trkpt>
      <trkpt lat="45.94062" lon="6.44226">
        <ele>953.6</ele>
        <time>2022-06-15T14:03:46Z</time>
      </trkpt>
      <trkpt lat="45.9406" lon="6.4423">
        <ele>953.6</ele>
        <time>2022-06-15T14:03:47Z</time>
      </trkpt>
      <trkpt lat="45.94058" lon="6.44235">
        <ele>953.6</ele>
        <time>2022-06-15T14:03:48Z</time>
      </trkpt>
      <trkpt lat="45.94056" lon="6.44239">
        <ele>953.6</ele>
        <time>2022-06-15T14:03:49Z</time>
      </trkpt>
      <trkpt lat="45.94054" lon="6.44243">
        <ele>953.7</ele>
        <time>2022-06-15T14:03:50Z</time>
      </trkpt>
      <trkpt lat="45.94052" lon="6.44248">
        <ele>953.8</ele>
        <time>2022-06-15T14:03:51Z</time>
      </trkpt>
      <trkpt lat="45.9405" lon="6.44252">
        <ele>953.9</ele>
        <time>2022-06-15T14:03:52Z</time>
      </trkpt>
      <trkpt lat="45.94049" lon="6.44256">
        <ele>954</ele>
        <time>2022-06-15T14:03:53Z</time>
      </trkpt>
      <trkpt lat="45.94048" lon="6.44259">
        <ele>954</ele>
        <time>2022-06-15T14:03:54Z</time>
      </trkpt>
      <trkpt lat="45.94046" lon="6.4426">
        <ele>954</ele>
        <time>2022-06-15T14:03:55Z</time>
      </trkpt>
      <trkpt lat="45.94045" lon="6.44261">
        <ele>954</ele>
        <time>2022-06-15T14:03:56Z</time>
      </trkpt>
      <trkpt lat="45.94043" lon="6.44259">
        <ele>953.9</ele>
        <time>2022-06-15T14:03:57Z</time>
      </trkpt>
      <trkpt lat="45.94041" lon="6.44258">
        <ele>953.7</ele>
        <time>2022-06-15T14:03:58Z</time>
      </trkpt>
      <trkpt lat="45.94038" lon="6.44256">
        <ele>953.6</ele>
        <time>2022-06-15T14:03:59Z</time>
      </trkpt>
      <trkpt lat="45.94036" lon="6.44253">
        <ele>953.4</ele>
        <time>2022-06-15T14:04:00Z</time>
      </trkpt>
      <trkpt lat="45.94034" lon="6.44252">
        <ele>953.3</ele>
        <time>2022-06-15T14:04:01Z</time>
      </trkpt>
      <trkpt lat="45.94032" lon="6.4425">
        <ele>953.1</ele>
        <time>2022-06-15T14:04:02Z</time>
      </trkpt>
      <trkpt lat="45.9403" lon="6.44248">
        <ele>953</ele>
        <time>2022-06-15T14:04:03Z</time>
      </trkpt>
      <trkpt lat="45.94028" lon="6.44246">
        <ele>952.8</ele>
        <time>2022-06-15T14:04:04Z</time>
      </trkpt>
      <trkpt lat="45.94026" lon="6.44244">
        <ele>952.8</ele>
        <time>2022-06-15T14:04:05Z</time>
      </trkpt>
      <trkpt lat="45.94023" lon="6.44242">
        <ele>952.7</ele>
        <time>2022-06-15T14:04:06Z</time>
      </trkpt>
      <trkpt lat="45.94021" lon="6.44242">
        <ele>952.7</ele>
        <time>2022-06-15T14:04:07Z</time>
      </trkpt>
      <trkpt lat="45.9402" lon="6.44243">
        <ele>952.7</ele>
        <time>2022-06-15T14:04:08Z</time>
      </trkpt>
      <trkpt lat="45.94019" lon="6.44244">
        <ele>952.8</ele>
        <time>2022-06-15T14:04:09Z</time>
      </trkpt>
      <trkpt lat="45.94019" lon="6.44244">
        <ele>952.8</ele>
        <time>2022-06-15T14:04:10Z</time>
      </trkpt>
      <trkpt lat="45.94019" lon="6.44244">
        <ele>952.8</ele>
        <time>2022-06-15T14:04:11Z</time>
      </trkpt>
      <trkpt lat="45.94019" lon="6.44244">
        <ele>952.8</ele>
        <time>2022-06-15T14:04:12Z</time>
      </trkpt>
    </trkseg>
  </trk>
</gpx>